<?xml version="1.0" encoding="UTF-8" standalone="no" ?>
<gpx xmlns="http://www.topografix.com/GPX/1/1" xmlns:xsi="http://www.w3.org/2001/XMLSchema-instance" xsi:schemaLocation="http://www.topografix.com/GPX/1/1 http://www.topografix.com/GPX/1/1/gpx.xsd" version="1.1" creator="VisuGPX - https://www.visugpx.com">
  <metadata>
    <name>Tour de Lans en Vercors</name>
    <desc><![CDATA[Au départ de Grenoble, un parcours exigeant mais magnifique : Moucherotte, Crêtes de Lans, Charande, La Molière, Sornin et le Pas du Curé]]></desc>
  </metadata>
  <trk>
    <name><![CDATA[Tour de Lans en Vercors sur TraceDeTrail.fr]]></name>
    <trkseg>
      <trkpt lat="45.18434" lon="5.71757">
        <ele>221</ele>
        <time>2020-02-23T07:41:28.000Z</time>
      </trkpt>
      <trkpt lat="45.18426" lon="5.71765">
        <ele>217.4</ele>
        <time>2020-02-23T07:41:38.000Z</time>
      </trkpt>
      <trkpt lat="45.18404" lon="5.71761">
        <ele>218</ele>
        <time>2020-02-23T07:41:53.000Z</time>
      </trkpt>
      <trkpt lat="45.18372" lon="5.71761">
        <ele>218</ele>
        <time>2020-02-23T07:42:01.000Z</time>
      </trkpt>
      <trkpt lat="45.18362" lon="5.71759">
        <ele>216.7</ele>
        <time>2020-02-23T07:42:11.000Z</time>
      </trkpt>
      <trkpt lat="45.18349" lon="5.71754">
        <ele>225</ele>
        <time>2020-02-23T07:42:08.000Z</time>
      </trkpt>
      <trkpt lat="45.18341" lon="5.71751">
        <ele>216.2</ele>
        <time>2020-02-23T07:42:18.000Z</time>
      </trkpt>
      <trkpt lat="45.18331" lon="5.7175">
        <ele>216</ele>
        <time>2020-02-23T07:42:28.000Z</time>
      </trkpt>
      <trkpt lat="45.18317" lon="5.71748">
        <ele>227</ele>
        <time>2020-02-23T07:42:20.000Z</time>
      </trkpt>
      <trkpt lat="45.18297" lon="5.71737">
        <ele>231</ele>
        <time>2020-02-23T07:42:31.000Z</time>
      </trkpt>
      <trkpt lat="45.18286" lon="5.71729">
        <ele>217.7</ele>
        <time>2020-02-23T07:42:41.000Z</time>
      </trkpt>
      <trkpt lat="45.1828" lon="5.71721">
        <ele>231</ele>
        <time>2020-02-23T07:42:40.000Z</time>
      </trkpt>
      <trkpt lat="45.18268" lon="5.71663">
        <ele>230</ele>
        <time>2020-02-23T07:42:47.000Z</time>
      </trkpt>
      <trkpt lat="45.18266" lon="5.71634">
        <ele>230</ele>
        <time>2020-02-23T07:42:54.000Z</time>
      </trkpt>
      <trkpt lat="45.18261" lon="5.7162">
        <ele>218.4</ele>
        <time>2020-02-23T07:43:04.000Z</time>
      </trkpt>
      <trkpt lat="45.18252" lon="5.71613">
        <ele>228</ele>
        <time>2020-02-23T07:43:00.000Z</time>
      </trkpt>
      <trkpt lat="45.18243" lon="5.71606">
        <ele>219.2</ele>
        <time>2020-02-23T07:43:10.000Z</time>
      </trkpt>
      <trkpt lat="45.18231" lon="5.71582">
        <ele>229</ele>
        <time>2020-02-23T07:43:11.000Z</time>
      </trkpt>
      <trkpt lat="45.1822" lon="5.71565">
        <ele>219.2</ele>
        <time>2020-02-23T07:43:21.000Z</time>
      </trkpt>
      <trkpt lat="45.18216" lon="5.71557">
        <ele>228</ele>
        <time>2020-02-23T07:43:19.000Z</time>
      </trkpt>
      <trkpt lat="45.18214" lon="5.71542">
        <ele>219.6</ele>
        <time>2020-02-23T07:43:29.000Z</time>
      </trkpt>
      <trkpt lat="45.18211" lon="5.71528">
        <ele>228</ele>
        <time>2020-02-23T07:43:27.000Z</time>
      </trkpt>
      <trkpt lat="45.18205" lon="5.71517">
        <ele>219.7</ele>
        <time>2020-02-23T07:43:37.000Z</time>
      </trkpt>
      <trkpt lat="45.18198" lon="5.71507">
        <ele>229</ele>
        <time>2020-02-23T07:43:37.000Z</time>
      </trkpt>
      <trkpt lat="45.18189" lon="5.71503">
        <ele>219.6</ele>
        <time>2020-02-23T07:43:47.000Z</time>
      </trkpt>
      <trkpt lat="45.18169" lon="5.7149">
        <ele>229</ele>
        <time>2020-02-23T07:43:46.000Z</time>
      </trkpt>
      <trkpt lat="45.18153" lon="5.71476">
        <ele>229</ele>
        <time>2020-02-23T07:43:49.000Z</time>
      </trkpt>
      <trkpt lat="45.18149" lon="5.71471">
        <ele>219.5</ele>
        <time>2020-02-23T07:43:59.000Z</time>
      </trkpt>
      <trkpt lat="45.18146" lon="5.71459">
        <ele>219.4</ele>
        <time>2020-02-23T07:44:09.000Z</time>
      </trkpt>
      <trkpt lat="45.18147" lon="5.71452">
        <ele>229</ele>
        <time>2020-02-23T07:43:54.000Z</time>
      </trkpt>
      <trkpt lat="45.18151" lon="5.71441">
        <ele>218.8</ele>
        <time>2020-02-23T07:44:04.000Z</time>
      </trkpt>
      <trkpt lat="45.18142" lon="5.71439">
        <ele>219.1</ele>
        <time>2020-02-23T07:44:14.000Z</time>
      </trkpt>
      <trkpt lat="45.18134" lon="5.71429">
        <ele>227</ele>
        <time>2020-02-23T07:44:09.000Z</time>
      </trkpt>
      <trkpt lat="45.18129" lon="5.71424">
        <ele>219.4</ele>
        <time>2020-02-23T07:44:19.000Z</time>
      </trkpt>
      <trkpt lat="45.18122" lon="5.71417">
        <ele>219.8</ele>
        <time>2020-02-23T07:44:29.000Z</time>
      </trkpt>
      <trkpt lat="45.18115" lon="5.71412">
        <ele>227</ele>
        <time>2020-02-23T07:44:15.000Z</time>
      </trkpt>
      <trkpt lat="45.18108" lon="5.71401">
        <ele>219.5</ele>
        <time>2020-02-23T07:44:25.000Z</time>
      </trkpt>
      <trkpt lat="45.18105" lon="5.71383">
        <ele>227</ele>
        <time>2020-02-23T07:44:20.000Z</time>
      </trkpt>
      <trkpt lat="45.18106" lon="5.71376">
        <ele>219.2</ele>
        <time>2020-02-23T07:44:30.000Z</time>
      </trkpt>
      <trkpt lat="45.18105" lon="5.71368">
        <ele>219.1</ele>
        <time>2020-02-23T07:44:40.000Z</time>
      </trkpt>
      <trkpt lat="45.18092" lon="5.71363">
        <ele>227</ele>
        <time>2020-02-23T07:44:30.000Z</time>
      </trkpt>
      <trkpt lat="45.18086" lon="5.71363">
        <ele>219.6</ele>
        <time>2020-02-23T07:44:40.000Z</time>
      </trkpt>
      <trkpt lat="45.18058" lon="5.71342">
        <ele>229</ele>
        <time>2020-02-23T07:44:41.000Z</time>
      </trkpt>
      <trkpt lat="45.18052" lon="5.71336">
        <ele>220.6</ele>
        <time>2020-02-23T07:44:51.000Z</time>
      </trkpt>
      <trkpt lat="45.18045" lon="5.7133">
        <ele>220.2</ele>
        <time>2020-02-23T07:45:01.000Z</time>
      </trkpt>
      <trkpt lat="45.18041" lon="5.71325">
        <ele>231</ele>
        <time>2020-02-23T07:44:50.000Z</time>
      </trkpt>
      <trkpt lat="45.18035" lon="5.71314">
        <ele>220.1</ele>
        <time>2020-02-23T07:45:00.000Z</time>
      </trkpt>
      <trkpt lat="45.18025" lon="5.7129">
        <ele>231</ele>
        <time>2020-02-23T07:44:56.000Z</time>
      </trkpt>
      <trkpt lat="45.18015" lon="5.71249">
        <ele>231</ele>
        <time>2020-02-23T07:45:05.000Z</time>
      </trkpt>
      <trkpt lat="45.18012" lon="5.71231">
        <ele>220.2</ele>
        <time>2020-02-23T07:45:15.000Z</time>
      </trkpt>
      <trkpt lat="45.1801" lon="5.7122">
        <ele>228</ele>
        <time>2020-02-23T07:45:12.000Z</time>
      </trkpt>
      <trkpt lat="45.18015" lon="5.71193">
        <ele>228</ele>
        <time>2020-02-23T07:45:17.000Z</time>
      </trkpt>
      <trkpt lat="45.18016" lon="5.71174">
        <ele>219.9</ele>
        <time>2020-02-23T07:45:27.000Z</time>
      </trkpt>
      <trkpt lat="45.18016" lon="5.71161">
        <ele>229</ele>
        <time>2020-02-23T07:45:24.000Z</time>
      </trkpt>
      <trkpt lat="45.18018" lon="5.71151">
        <ele>220.2</ele>
        <time>2020-02-23T07:45:34.000Z</time>
      </trkpt>
      <trkpt lat="45.18021" lon="5.71118">
        <ele>239</ele>
        <time>2020-02-23T07:45:33.000Z</time>
      </trkpt>
      <trkpt lat="45.18022" lon="5.71109">
        <ele>220.2</ele>
        <time>2020-02-23T07:45:43.000Z</time>
      </trkpt>
      <trkpt lat="45.18023" lon="5.71091">
        <ele>220</ele>
        <time>2020-02-23T07:45:53.000Z</time>
      </trkpt>
      <trkpt lat="45.18024" lon="5.71087">
        <ele>238</ele>
        <time>2020-02-23T07:45:40.000Z</time>
      </trkpt>
      <trkpt lat="45.18027" lon="5.71078">
        <ele>219.2</ele>
        <time>2020-02-23T07:45:50.000Z</time>
      </trkpt>
      <trkpt lat="45.18028" lon="5.71047">
        <ele>237</ele>
        <time>2020-02-23T07:45:49.000Z</time>
      </trkpt>
      <trkpt lat="45.18031" lon="5.71023">
        <ele>218.7</ele>
        <time>2020-02-23T07:45:59.000Z</time>
      </trkpt>
      <trkpt lat="45.18031" lon="5.71018">
        <ele>235</ele>
        <time>2020-02-23T07:45:55.000Z</time>
      </trkpt>
      <trkpt lat="45.18035" lon="5.7099">
        <ele>235</ele>
        <time>2020-02-23T07:46:01.000Z</time>
      </trkpt>
      <trkpt lat="45.18033" lon="5.70971">
        <ele>217.8</ele>
        <time>2020-02-23T07:46:11.000Z</time>
      </trkpt>
      <trkpt lat="45.18032" lon="5.70966">
        <ele>217.8</ele>
        <time>2020-02-23T07:46:21.000Z</time>
      </trkpt>
      <trkpt lat="45.18033" lon="5.70958">
        <ele>234</ele>
        <time>2020-02-23T07:46:11.000Z</time>
      </trkpt>
      <trkpt lat="45.18034" lon="5.70921">
        <ele>233</ele>
        <time>2020-02-23T07:46:19.000Z</time>
      </trkpt>
      <trkpt lat="45.18036" lon="5.70903">
        <ele>218.4</ele>
        <time>2020-02-23T07:46:29.000Z</time>
      </trkpt>
      <trkpt lat="45.18036" lon="5.70895">
        <ele>218.5</ele>
        <time>2020-02-23T07:46:39.000Z</time>
      </trkpt>
      <trkpt lat="45.18035" lon="5.70891">
        <ele>233</ele>
        <time>2020-02-23T07:46:26.000Z</time>
      </trkpt>
      <trkpt lat="45.18035" lon="5.70878">
        <ele>218.8</ele>
        <time>2020-02-23T07:46:36.000Z</time>
      </trkpt>
      <trkpt lat="45.18033" lon="5.70867">
        <ele>219</ele>
        <time>2020-02-23T07:46:46.000Z</time>
      </trkpt>
      <trkpt lat="45.18033" lon="5.70853">
        <ele>233</ele>
        <time>2020-02-23T07:46:36.000Z</time>
      </trkpt>
      <trkpt lat="45.18032" lon="5.70846">
        <ele>219.3</ele>
        <time>2020-02-23T07:46:46.000Z</time>
      </trkpt>
      <trkpt lat="45.18026" lon="5.70825">
        <ele>236</ele>
        <time>2020-02-23T07:46:44.000Z</time>
      </trkpt>
      <trkpt lat="45.18026" lon="5.70799">
        <ele>220.3</ele>
        <time>2020-02-23T07:46:54.000Z</time>
      </trkpt>
      <trkpt lat="45.18025" lon="5.70787">
        <ele>237</ele>
        <time>2020-02-23T07:46:55.000Z</time>
      </trkpt>
      <trkpt lat="45.18025" lon="5.70757">
        <ele>237</ele>
        <time>2020-02-23T07:47:01.000Z</time>
      </trkpt>
      <trkpt lat="45.18018" lon="5.70746">
        <ele>221.1</ele>
        <time>2020-02-23T07:47:11.000Z</time>
      </trkpt>
      <trkpt lat="45.18017" lon="5.70736">
        <ele>221.1</ele>
        <time>2020-02-23T07:47:21.000Z</time>
      </trkpt>
      <trkpt lat="45.18016" lon="5.70724">
        <ele>237</ele>
        <time>2020-02-23T07:47:11.000Z</time>
      </trkpt>
      <trkpt lat="45.18012" lon="5.70714">
        <ele>220.8</ele>
        <time>2020-02-23T07:47:21.000Z</time>
      </trkpt>
      <trkpt lat="45.18008" lon="5.70702">
        <ele>220.5</ele>
        <time>2020-02-23T07:47:31.000Z</time>
      </trkpt>
      <trkpt lat="45.18004" lon="5.70698">
        <ele>236</ele>
        <time>2020-02-23T07:47:24.000Z</time>
      </trkpt>
      <trkpt lat="45.17997" lon="5.70687">
        <ele>219.7</ele>
        <time>2020-02-23T07:47:34.000Z</time>
      </trkpt>
      <trkpt lat="45.1799" lon="5.7066">
        <ele>235</ele>
        <time>2020-02-23T07:47:29.000Z</time>
      </trkpt>
      <trkpt lat="45.17989" lon="5.70652">
        <ele>219.2</ele>
        <time>2020-02-23T07:47:39.000Z</time>
      </trkpt>
      <trkpt lat="45.1799" lon="5.70638">
        <ele>219.2</ele>
        <time>2020-02-23T07:47:49.000Z</time>
      </trkpt>
      <trkpt lat="45.17994" lon="5.70621">
        <ele>229</ele>
        <time>2020-02-23T07:47:36.000Z</time>
      </trkpt>
      <trkpt lat="45.18005" lon="5.70591">
        <ele>226</ele>
        <time>2020-02-23T07:47:41.000Z</time>
      </trkpt>
      <trkpt lat="45.1801" lon="5.70579">
        <ele>219.6</ele>
        <time>2020-02-23T07:47:51.000Z</time>
      </trkpt>
      <trkpt lat="45.18015" lon="5.70567">
        <ele>223</ele>
        <time>2020-02-23T07:47:46.000Z</time>
      </trkpt>
      <trkpt lat="45.18016" lon="5.7056">
        <ele>220.9</ele>
        <time>2020-02-23T07:47:56.000Z</time>
      </trkpt>
      <trkpt lat="45.18018" lon="5.7055">
        <ele>221.2</ele>
        <time>2020-02-23T07:48:06.000Z</time>
      </trkpt>
      <trkpt lat="45.18021" lon="5.70526">
        <ele>222</ele>
        <time>2020-02-23T07:47:55.000Z</time>
      </trkpt>
      <trkpt lat="45.18021" lon="5.70515">
        <ele>221.1</ele>
        <time>2020-02-23T07:48:05.000Z</time>
      </trkpt>
      <trkpt lat="45.18021" lon="5.70511">
        <ele>221</ele>
        <time>2020-02-23T07:48:15.000Z</time>
      </trkpt>
      <trkpt lat="45.18023" lon="5.70475">
        <ele>221</ele>
        <time>2020-02-23T07:48:08.000Z</time>
      </trkpt>
      <trkpt lat="45.18023" lon="5.70444">
        <ele>220</ele>
        <time>2020-02-23T07:48:16.000Z</time>
      </trkpt>
      <trkpt lat="45.18023" lon="5.70407">
        <ele>220</ele>
        <time>2020-02-23T07:48:26.000Z</time>
      </trkpt>
      <trkpt lat="45.18022" lon="5.70393">
        <ele>220</ele>
        <time>2020-02-23T07:48:36.000Z</time>
      </trkpt>
      <trkpt lat="45.1802" lon="5.70382">
        <ele>219.8</ele>
        <time>2020-02-23T07:48:46.000Z</time>
      </trkpt>
      <trkpt lat="45.18018" lon="5.7037">
        <ele>219</ele>
        <time>2020-02-23T07:48:44.000Z</time>
      </trkpt>
      <trkpt lat="45.18017" lon="5.70338">
        <ele>219</ele>
        <time>2020-02-23T07:48:52.000Z</time>
      </trkpt>
      <trkpt lat="45.18018" lon="5.70327">
        <ele>218.9</ele>
        <time>2020-02-23T07:49:02.000Z</time>
      </trkpt>
      <trkpt lat="45.18018" lon="5.70312">
        <ele>219.1</ele>
        <time>2020-02-23T07:49:12.000Z</time>
      </trkpt>
      <trkpt lat="45.18019" lon="5.70255">
        <ele>218</ele>
        <time>2020-02-23T07:49:14.000Z</time>
      </trkpt>
      <trkpt lat="45.18019" lon="5.7024">
        <ele>219.9</ele>
        <time>2020-02-23T07:49:24.000Z</time>
      </trkpt>
      <trkpt lat="45.1802" lon="5.70227">
        <ele>219</ele>
        <time>2020-02-23T07:49:21.000Z</time>
      </trkpt>
      <trkpt lat="45.1802" lon="5.70192">
        <ele>220</ele>
        <time>2020-02-23T07:49:31.000Z</time>
      </trkpt>
      <trkpt lat="45.18021" lon="5.70157">
        <ele>220</ele>
        <time>2020-02-23T07:49:39.000Z</time>
      </trkpt>
      <trkpt lat="45.18021" lon="5.70094">
        <ele>219</ele>
        <time>2020-02-23T07:49:54.000Z</time>
      </trkpt>
      <trkpt lat="45.18021" lon="5.70042">
        <ele>219</ele>
        <time>2020-02-23T07:50:07.000Z</time>
      </trkpt>
      <trkpt lat="45.18022" lon="5.70007">
        <ele>219</ele>
        <time>2020-02-23T07:50:17.000Z</time>
      </trkpt>
      <trkpt lat="45.18023" lon="5.69968">
        <ele>219</ele>
        <time>2020-02-23T07:50:24.000Z</time>
      </trkpt>
      <trkpt lat="45.18023" lon="5.69912">
        <ele>220</ele>
        <time>2020-02-23T07:50:37.000Z</time>
      </trkpt>
      <trkpt lat="45.18024" lon="5.69867">
        <ele>220</ele>
        <time>2020-02-23T07:50:47.000Z</time>
      </trkpt>
      <trkpt lat="45.18026" lon="5.69833">
        <ele>220</ele>
        <time>2020-02-23T07:50:55.000Z</time>
      </trkpt>
      <trkpt lat="45.18029" lon="5.69809">
        <ele>216.9</ele>
        <time>2020-02-23T07:51:05.000Z</time>
      </trkpt>
      <trkpt lat="45.1803" lon="5.69796">
        <ele>218</ele>
        <time>2020-02-23T07:51:04.000Z</time>
      </trkpt>
      <trkpt lat="45.18033" lon="5.69784">
        <ele>217</ele>
        <time>2020-02-23T07:51:14.000Z</time>
      </trkpt>
      <trkpt lat="45.18037" lon="5.69717">
        <ele>217</ele>
        <time>2020-02-23T07:51:24.000Z</time>
      </trkpt>
      <trkpt lat="45.18037" lon="5.69672">
        <ele>217</ele>
        <time>2020-02-23T07:51:35.000Z</time>
      </trkpt>
      <trkpt lat="45.18037" lon="5.69645">
        <ele>217</ele>
        <time>2020-02-23T07:51:42.000Z</time>
      </trkpt>
      <trkpt lat="45.1804" lon="5.69586">
        <ele>217</ele>
        <time>2020-02-23T07:51:57.000Z</time>
      </trkpt>
      <trkpt lat="45.18042" lon="5.69558">
        <ele>216</ele>
        <time>2020-02-23T07:52:04.000Z</time>
      </trkpt>
      <trkpt lat="45.18043" lon="5.69527">
        <ele>216</ele>
        <time>2020-02-23T07:52:12.000Z</time>
      </trkpt>
      <trkpt lat="45.18044" lon="5.69498">
        <ele>216</ele>
        <time>2020-02-23T07:52:19.000Z</time>
      </trkpt>
      <trkpt lat="45.18044" lon="5.69474">
        <ele>216.5</ele>
        <time>2020-02-23T07:52:29.000Z</time>
      </trkpt>
      <trkpt lat="45.18047" lon="5.69447">
        <ele>215</ele>
        <time>2020-02-23T07:52:31.000Z</time>
      </trkpt>
      <trkpt lat="45.18046" lon="5.69424">
        <ele>216.5</ele>
        <time>2020-02-23T07:52:41.000Z</time>
      </trkpt>
      <trkpt lat="45.18048" lon="5.69409">
        <ele>211</ele>
        <time>2020-02-23T07:52:41.000Z</time>
      </trkpt>
      <trkpt lat="45.18049" lon="5.69394">
        <ele>217.3</ele>
        <time>2020-02-23T07:52:51.000Z</time>
      </trkpt>
      <trkpt lat="45.18048" lon="5.69382">
        <ele>211</ele>
        <time>2020-02-23T07:52:48.000Z</time>
      </trkpt>
      <trkpt lat="45.18045" lon="5.69378">
        <ele>217.4</ele>
        <time>2020-02-23T07:52:58.000Z</time>
      </trkpt>
      <trkpt lat="45.18041" lon="5.69376">
        <ele>217.5</ele>
        <time>2020-02-23T07:53:08.000Z</time>
      </trkpt>
      <trkpt lat="45.18036" lon="5.69375">
        <ele>217.5</ele>
        <time>2020-02-23T07:53:18.000Z</time>
      </trkpt>
      <trkpt lat="45.18027" lon="5.69376">
        <ele>212</ele>
        <time>2020-02-23T07:52:57.000Z</time>
      </trkpt>
      <trkpt lat="45.18017" lon="5.69376">
        <ele>217.6</ele>
        <time>2020-02-23T07:53:07.000Z</time>
      </trkpt>
      <trkpt lat="45.17998" lon="5.69383">
        <ele>212</ele>
        <time>2020-02-23T07:53:08.000Z</time>
      </trkpt>
      <trkpt lat="45.1799" lon="5.69384">
        <ele>217.2</ele>
        <time>2020-02-23T07:53:18.000Z</time>
      </trkpt>
      <trkpt lat="45.17977" lon="5.69385">
        <ele>215</ele>
        <time>2020-02-23T07:53:15.000Z</time>
      </trkpt>
      <trkpt lat="45.17966" lon="5.69382">
        <ele>217.2</ele>
        <time>2020-02-23T07:53:25.000Z</time>
      </trkpt>
      <trkpt lat="45.17961" lon="5.6938">
        <ele>217.2</ele>
        <time>2020-02-23T07:53:35.000Z</time>
      </trkpt>
      <trkpt lat="45.17956" lon="5.69376">
        <ele>220</ele>
        <time>2020-02-23T07:53:23.000Z</time>
      </trkpt>
      <trkpt lat="45.17945" lon="5.69365">
        <ele>217.2</ele>
        <time>2020-02-23T07:53:33.000Z</time>
      </trkpt>
      <trkpt lat="45.17935" lon="5.69358">
        <ele>221</ele>
        <time>2020-02-23T07:53:32.000Z</time>
      </trkpt>
      <trkpt lat="45.17924" lon="5.69351">
        <ele>217.1</ele>
        <time>2020-02-23T07:53:42.000Z</time>
      </trkpt>
      <trkpt lat="45.17919" lon="5.69347">
        <ele>217.1</ele>
        <time>2020-02-23T07:53:52.000Z</time>
      </trkpt>
      <trkpt lat="45.1791" lon="5.69338">
        <ele>222</ele>
        <time>2020-02-23T07:53:42.000Z</time>
      </trkpt>
      <trkpt lat="45.17902" lon="5.69327">
        <ele>217</ele>
        <time>2020-02-23T07:53:52.000Z</time>
      </trkpt>
      <trkpt lat="45.17892" lon="5.69313">
        <ele>221</ele>
        <time>2020-02-23T07:53:51.000Z</time>
      </trkpt>
      <trkpt lat="45.17887" lon="5.69301">
        <ele>217</ele>
        <time>2020-02-23T07:54:01.000Z</time>
      </trkpt>
      <trkpt lat="45.17881" lon="5.69285">
        <ele>221</ele>
        <time>2020-02-23T07:53:59.000Z</time>
      </trkpt>
      <trkpt lat="45.17879" lon="5.69274">
        <ele>217</ele>
        <time>2020-02-23T07:54:09.000Z</time>
      </trkpt>
      <trkpt lat="45.17876" lon="5.69268">
        <ele>217</ele>
        <time>2020-02-23T07:54:19.000Z</time>
      </trkpt>
      <trkpt lat="45.17869" lon="5.69257">
        <ele>220</ele>
        <time>2020-02-23T07:54:08.000Z</time>
      </trkpt>
      <trkpt lat="45.17861" lon="5.69238">
        <ele>216.2</ele>
        <time>2020-02-23T07:54:18.000Z</time>
      </trkpt>
      <trkpt lat="45.17852" lon="5.69218">
        <ele>220</ele>
        <time>2020-02-23T07:54:21.000Z</time>
      </trkpt>
      <trkpt lat="45.17847" lon="5.69208">
        <ele>215.7</ele>
        <time>2020-02-23T07:54:31.000Z</time>
      </trkpt>
      <trkpt lat="45.17839" lon="5.69191">
        <ele>221</ele>
        <time>2020-02-23T07:54:29.000Z</time>
      </trkpt>
      <trkpt lat="45.17832" lon="5.69179">
        <ele>214.5</ele>
        <time>2020-02-23T07:54:39.000Z</time>
      </trkpt>
      <trkpt lat="45.17826" lon="5.69165">
        <ele>221</ele>
        <time>2020-02-23T07:54:37.000Z</time>
      </trkpt>
      <trkpt lat="45.17816" lon="5.69129">
        <ele>217</ele>
        <time>2020-02-23T07:54:47.000Z</time>
      </trkpt>
      <trkpt lat="45.17806" lon="5.69101">
        <ele>217</ele>
        <time>2020-02-23T07:54:55.000Z</time>
      </trkpt>
      <trkpt lat="45.17803" lon="5.69095">
        <ele>214.9</ele>
        <time>2020-02-23T07:55:05.000Z</time>
      </trkpt>
      <trkpt lat="45.1779" lon="5.69086">
        <ele>218</ele>
        <time>2020-02-23T07:55:02.000Z</time>
      </trkpt>
      <trkpt lat="45.17787" lon="5.69084">
        <ele>215.1</ele>
        <time>2020-02-23T07:55:12.000Z</time>
      </trkpt>
      <trkpt lat="45.17782" lon="5.69076">
        <ele>215.9</ele>
        <time>2020-02-23T07:55:22.000Z</time>
      </trkpt>
      <trkpt lat="45.17775" lon="5.6906">
        <ele>218</ele>
        <time>2020-02-23T07:55:11.000Z</time>
      </trkpt>
      <trkpt lat="45.17772" lon="5.6905">
        <ele>216.1</ele>
        <time>2020-02-23T07:55:21.000Z</time>
      </trkpt>
      <trkpt lat="45.17767" lon="5.6904">
        <ele>216.1</ele>
        <time>2020-02-23T07:55:31.000Z</time>
      </trkpt>
      <trkpt lat="45.17767" lon="5.69035">
        <ele>219</ele>
        <time>2020-02-23T07:55:19.000Z</time>
      </trkpt>
      <trkpt lat="45.17766" lon="5.69032">
        <ele>216.2</ele>
        <time>2020-02-23T07:55:29.000Z</time>
      </trkpt>
      <trkpt lat="45.17754" lon="5.69009">
        <ele>220</ele>
        <time>2020-02-23T07:55:27.000Z</time>
      </trkpt>
      <trkpt lat="45.17738" lon="5.68979">
        <ele>220</ele>
        <time>2020-02-23T07:55:37.000Z</time>
      </trkpt>
      <trkpt lat="45.17719" lon="5.68939">
        <ele>220</ele>
        <time>2020-02-23T07:55:49.000Z</time>
      </trkpt>
      <trkpt lat="45.17709" lon="5.68916">
        <ele>217.6</ele>
        <time>2020-02-23T07:55:59.000Z</time>
      </trkpt>
      <trkpt lat="45.17686" lon="5.6887">
        <ele>220</ele>
        <time>2020-02-23T07:56:11.000Z</time>
      </trkpt>
      <trkpt lat="45.17682" lon="5.68859">
        <ele>218.1</ele>
        <time>2020-02-23T07:56:21.000Z</time>
      </trkpt>
      <trkpt lat="45.17659" lon="5.68812">
        <ele>219</ele>
        <time>2020-02-23T07:56:29.000Z</time>
      </trkpt>
      <trkpt lat="45.17653" lon="5.68799">
        <ele>218.3</ele>
        <time>2020-02-23T07:56:39.000Z</time>
      </trkpt>
      <trkpt lat="45.1765" lon="5.68793">
        <ele>218.3</ele>
        <time>2020-02-23T07:56:49.000Z</time>
      </trkpt>
      <trkpt lat="45.1764" lon="5.6877">
        <ele>219</ele>
        <time>2020-02-23T07:56:42.000Z</time>
      </trkpt>
      <trkpt lat="45.17634" lon="5.68746">
        <ele>218.8</ele>
        <time>2020-02-23T07:56:52.000Z</time>
      </trkpt>
      <trkpt lat="45.17632" lon="5.68738">
        <ele>218</ele>
        <time>2020-02-23T07:56:51.000Z</time>
      </trkpt>
      <trkpt lat="45.17632" lon="5.68734">
        <ele>218.8</ele>
        <time>2020-02-23T07:57:01.000Z</time>
      </trkpt>
      <trkpt lat="45.17633" lon="5.68727">
        <ele>218.8</ele>
        <time>2020-02-23T07:57:11.000Z</time>
      </trkpt>
      <trkpt lat="45.17638" lon="5.6871">
        <ele>218</ele>
        <time>2020-02-23T07:56:59.000Z</time>
      </trkpt>
      <trkpt lat="45.17638" lon="5.68707">
        <ele>218.7</ele>
        <time>2020-02-23T07:57:09.000Z</time>
      </trkpt>
      <trkpt lat="45.17636" lon="5.68702">
        <ele>218.7</ele>
        <time>2020-02-23T07:57:19.000Z</time>
      </trkpt>
      <trkpt lat="45.1763" lon="5.68693">
        <ele>218.7</ele>
        <time>2020-02-23T07:57:29.000Z</time>
      </trkpt>
      <trkpt lat="45.17624" lon="5.68687">
        <ele>219</ele>
        <time>2020-02-23T07:57:08.000Z</time>
      </trkpt>
      <trkpt lat="45.17609" lon="5.68673">
        <ele>218.8</ele>
        <time>2020-02-23T07:57:18.000Z</time>
      </trkpt>
      <trkpt lat="45.17585" lon="5.68648">
        <ele>220</ele>
        <time>2020-02-23T07:57:26.000Z</time>
      </trkpt>
      <trkpt lat="45.17579" lon="5.68644">
        <ele>220.2</ele>
        <time>2020-02-23T07:57:36.000Z</time>
      </trkpt>
      <trkpt lat="45.17568" lon="5.68635">
        <ele>221</ele>
        <time>2020-02-23T07:57:34.000Z</time>
      </trkpt>
      <trkpt lat="45.17552" lon="5.68634">
        <ele>220.6</ele>
        <time>2020-02-23T07:57:44.000Z</time>
      </trkpt>
      <trkpt lat="45.17548" lon="5.6863">
        <ele>227</ele>
        <time>2020-02-23T07:57:42.000Z</time>
      </trkpt>
      <trkpt lat="45.17545" lon="5.68624">
        <ele>220.8</ele>
        <time>2020-02-23T07:57:52.000Z</time>
      </trkpt>
      <trkpt lat="45.17534" lon="5.68608">
        <ele>227</ele>
        <time>2020-02-23T07:57:51.000Z</time>
      </trkpt>
      <trkpt lat="45.17517" lon="5.68594">
        <ele>230</ele>
        <time>2020-02-23T07:57:59.000Z</time>
      </trkpt>
      <trkpt lat="45.17504" lon="5.6858">
        <ele>224.2</ele>
        <time>2020-02-23T07:58:09.000Z</time>
      </trkpt>
      <trkpt lat="45.175" lon="5.68575">
        <ele>230</ele>
        <time>2020-02-23T07:58:08.000Z</time>
      </trkpt>
      <trkpt lat="45.17495" lon="5.6857">
        <ele>225.6</ele>
        <time>2020-02-23T07:58:18.000Z</time>
      </trkpt>
      <trkpt lat="45.17492" lon="5.68566">
        <ele>226.4</ele>
        <time>2020-02-23T07:58:28.000Z</time>
      </trkpt>
      <trkpt lat="45.1748" lon="5.68555">
        <ele>238</ele>
        <time>2020-02-23T07:58:19.000Z</time>
      </trkpt>
      <trkpt lat="45.17471" lon="5.68544">
        <ele>229.7</ele>
        <time>2020-02-23T07:58:29.000Z</time>
      </trkpt>
      <trkpt lat="45.1746" lon="5.68534">
        <ele>243</ele>
        <time>2020-02-23T07:58:30.000Z</time>
      </trkpt>
      <trkpt lat="45.17449" lon="5.68523">
        <ele>231.4</ele>
        <time>2020-02-23T07:58:40.000Z</time>
      </trkpt>
      <trkpt lat="45.17431" lon="5.68509">
        <ele>248</ele>
        <time>2020-02-23T07:58:44.000Z</time>
      </trkpt>
      <trkpt lat="45.17414" lon="5.68498">
        <ele>248</ele>
        <time>2020-02-23T07:58:52.000Z</time>
      </trkpt>
      <trkpt lat="45.1741" lon="5.68488">
        <ele>242.2</ele>
        <time>2020-02-23T07:59:02.000Z</time>
      </trkpt>
      <trkpt lat="45.17408" lon="5.68485">
        <ele>243.4</ele>
        <time>2020-02-23T07:59:12.000Z</time>
      </trkpt>
      <trkpt lat="45.17405" lon="5.68481">
        <ele>244.9</ele>
        <time>2020-02-23T07:59:22.000Z</time>
      </trkpt>
      <trkpt lat="45.17399" lon="5.68477">
        <ele>257</ele>
        <time>2020-02-23T07:59:08.000Z</time>
      </trkpt>
      <trkpt lat="45.17388" lon="5.68472">
        <ele>247.9</ele>
        <time>2020-02-23T07:59:18.000Z</time>
      </trkpt>
      <trkpt lat="45.17371" lon="5.68466">
        <ele>259</ele>
        <time>2020-02-23T07:59:33.000Z</time>
      </trkpt>
      <trkpt lat="45.17359" lon="5.68467">
        <ele>248.4</ele>
        <time>2020-02-23T07:59:43.000Z</time>
      </trkpt>
      <trkpt lat="45.17352" lon="5.68465">
        <ele>259</ele>
        <time>2020-02-23T07:59:48.000Z</time>
      </trkpt>
      <trkpt lat="45.17336" lon="5.68449">
        <ele>265</ele>
        <time>2020-02-23T08:00:06.000Z</time>
      </trkpt>
      <trkpt lat="45.17327" lon="5.68441">
        <ele>249.7</ele>
        <time>2020-02-23T08:00:16.000Z</time>
      </trkpt>
      <trkpt lat="45.1732" lon="5.68433">
        <ele>268</ele>
        <time>2020-02-23T08:00:22.000Z</time>
      </trkpt>
      <trkpt lat="45.17315" lon="5.68421">
        <ele>252.2</ele>
        <time>2020-02-23T08:00:32.000Z</time>
      </trkpt>
      <trkpt lat="45.17303" lon="5.684">
        <ele>268</ele>
        <time>2020-02-23T08:00:46.000Z</time>
      </trkpt>
      <trkpt lat="45.173" lon="5.68393">
        <ele>261.7</ele>
        <time>2020-02-23T08:00:56.000Z</time>
      </trkpt>
      <trkpt lat="45.17291" lon="5.68389">
        <ele>261.1</ele>
        <time>2020-02-23T08:01:06.000Z</time>
      </trkpt>
      <trkpt lat="45.17284" lon="5.68379">
        <ele>267</ele>
        <time>2020-02-23T08:01:43.000Z</time>
      </trkpt>
      <trkpt lat="45.17279" lon="5.68367">
        <ele>261.9</ele>
        <time>2020-02-23T08:01:53.000Z</time>
      </trkpt>
      <trkpt lat="45.17277" lon="5.68353">
        <ele>267</ele>
        <time>2020-02-23T08:02:02.000Z</time>
      </trkpt>
      <trkpt lat="45.17274" lon="5.68342">
        <ele>262.6</ele>
        <time>2020-02-23T08:02:12.000Z</time>
      </trkpt>
      <trkpt lat="45.17271" lon="5.68334">
        <ele>262.4</ele>
        <time>2020-02-23T08:02:22.000Z</time>
      </trkpt>
      <trkpt lat="45.1727" lon="5.68331">
        <ele>267.8</ele>
        <time>2020-02-23T08:02:32.000Z</time>
      </trkpt>
      <trkpt lat="45.17264" lon="5.68296">
        <ele>270</ele>
        <time>2020-02-23T08:02:17.000Z</time>
      </trkpt>
      <trkpt lat="45.17262" lon="5.68279">
        <ele>271.2</ele>
        <time>2020-02-23T08:02:27.000Z</time>
      </trkpt>
      <trkpt lat="45.17258" lon="5.68265">
        <ele>268</ele>
        <time>2020-02-23T08:02:25.000Z</time>
      </trkpt>
      <trkpt lat="45.17251" lon="5.68249">
        <ele>268.7</ele>
        <time>2020-02-23T08:02:35.000Z</time>
      </trkpt>
      <trkpt lat="45.17231" lon="5.68212">
        <ele>269</ele>
        <time>2020-02-23T08:02:43.000Z</time>
      </trkpt>
      <trkpt lat="45.17222" lon="5.68192">
        <ele>268</ele>
        <time>2020-02-23T08:02:53.000Z</time>
      </trkpt>
      <trkpt lat="45.17222" lon="5.68187">
        <ele>270</ele>
        <time>2020-02-23T08:02:49.000Z</time>
      </trkpt>
      <trkpt lat="45.17219" lon="5.68178">
        <ele>268.3</ele>
        <time>2020-02-23T08:02:59.000Z</time>
      </trkpt>
      <trkpt lat="45.17204" lon="5.68152">
        <ele>267</ele>
        <time>2020-02-23T08:03:01.000Z</time>
      </trkpt>
      <trkpt lat="45.17199" lon="5.68144">
        <ele>273.3</ele>
        <time>2020-02-23T08:03:11.000Z</time>
      </trkpt>
      <trkpt lat="45.17195" lon="5.68139">
        <ele>273.4</ele>
        <time>2020-02-23T08:03:21.000Z</time>
      </trkpt>
      <trkpt lat="45.17193" lon="5.68136">
        <ele>273.5</ele>
        <time>2020-02-23T08:03:31.000Z</time>
      </trkpt>
      <trkpt lat="45.17189" lon="5.68131">
        <ele>267</ele>
        <time>2020-02-23T08:03:09.000Z</time>
      </trkpt>
      <trkpt lat="45.1718" lon="5.68123">
        <ele>274.1</ele>
        <time>2020-02-23T08:03:19.000Z</time>
      </trkpt>
      <trkpt lat="45.17167" lon="5.68115">
        <ele>268</ele>
        <time>2020-02-23T08:03:19.000Z</time>
      </trkpt>
      <trkpt lat="45.17158" lon="5.68112">
        <ele>271.1</ele>
        <time>2020-02-23T08:03:29.000Z</time>
      </trkpt>
      <trkpt lat="45.17149" lon="5.68107">
        <ele>270</ele>
        <time>2020-02-23T08:03:25.000Z</time>
      </trkpt>
      <trkpt lat="45.17135" lon="5.68095">
        <ele>271.1</ele>
        <time>2020-02-23T08:03:35.000Z</time>
      </trkpt>
      <trkpt lat="45.17124" lon="5.68092">
        <ele>271</ele>
        <time>2020-02-23T08:03:36.000Z</time>
      </trkpt>
      <trkpt lat="45.17106" lon="5.68091">
        <ele>269.8</ele>
        <time>2020-02-23T08:03:46.000Z</time>
      </trkpt>
      <trkpt lat="45.17096" lon="5.68088">
        <ele>274</ele>
        <time>2020-02-23T08:03:45.000Z</time>
      </trkpt>
      <trkpt lat="45.17089" lon="5.68084">
        <ele>269.9</ele>
        <time>2020-02-23T08:03:55.000Z</time>
      </trkpt>
      <trkpt lat="45.17077" lon="5.68081">
        <ele>274</ele>
        <time>2020-02-23T08:03:53.000Z</time>
      </trkpt>
      <trkpt lat="45.17074" lon="5.68081">
        <ele>271.1</ele>
        <time>2020-02-23T08:04:03.000Z</time>
      </trkpt>
      <trkpt lat="45.17033" lon="5.68072">
        <ele>275</ele>
        <time>2020-02-23T08:04:09.000Z</time>
      </trkpt>
      <trkpt lat="45.17024" lon="5.68069">
        <ele>271.8</ele>
        <time>2020-02-23T08:04:19.000Z</time>
      </trkpt>
      <trkpt lat="45.17009" lon="5.68057">
        <ele>276</ele>
        <time>2020-02-23T08:04:19.000Z</time>
      </trkpt>
      <trkpt lat="45.17" lon="5.68054">
        <ele>272.3</ele>
        <time>2020-02-23T08:04:29.000Z</time>
      </trkpt>
      <trkpt lat="45.16977" lon="5.68049">
        <ele>278</ele>
        <time>2020-02-23T08:04:32.000Z</time>
      </trkpt>
      <trkpt lat="45.16971" lon="5.68048">
        <ele>274.3</ele>
        <time>2020-02-23T08:04:42.000Z</time>
      </trkpt>
      <trkpt lat="45.16963" lon="5.68045">
        <ele>274.7</ele>
        <time>2020-02-23T08:04:52.000Z</time>
      </trkpt>
      <trkpt lat="45.16954" lon="5.68044">
        <ele>278</ele>
        <time>2020-02-23T08:04:43.000Z</time>
      </trkpt>
      <trkpt lat="45.16944" lon="5.68045">
        <ele>275.1</ele>
        <time>2020-02-23T08:04:53.000Z</time>
      </trkpt>
      <trkpt lat="45.16927" lon="5.6805">
        <ele>279</ele>
        <time>2020-02-23T08:04:54.000Z</time>
      </trkpt>
      <trkpt lat="45.1692" lon="5.68051">
        <ele>275.1</ele>
        <time>2020-02-23T08:05:04.000Z</time>
      </trkpt>
      <trkpt lat="45.16914" lon="5.68049">
        <ele>272.6</ele>
        <time>2020-02-23T08:05:14.000Z</time>
      </trkpt>
      <trkpt lat="45.16913" lon="5.68048">
        <ele>272.6</ele>
        <time>2020-02-23T08:05:24.000Z</time>
      </trkpt>
      <trkpt lat="45.16907" lon="5.68041">
        <ele>281</ele>
        <time>2020-02-23T08:05:04.000Z</time>
      </trkpt>
      <trkpt lat="45.16906" lon="5.68039">
        <ele>273</ele>
        <time>2020-02-23T08:05:14.000Z</time>
      </trkpt>
      <trkpt lat="45.16902" lon="5.68026">
        <ele>274</ele>
        <time>2020-02-23T08:05:24.000Z</time>
      </trkpt>
      <trkpt lat="45.169" lon="5.68007">
        <ele>283</ele>
        <time>2020-02-23T08:05:13.000Z</time>
      </trkpt>
      <trkpt lat="45.169" lon="5.67995">
        <ele>281.2</ele>
        <time>2020-02-23T08:05:23.000Z</time>
      </trkpt>
      <trkpt lat="45.16891" lon="5.67951">
        <ele>285</ele>
        <time>2020-02-23T08:05:34.000Z</time>
      </trkpt>
      <trkpt lat="45.16887" lon="5.67941">
        <ele>283.9</ele>
        <time>2020-02-23T08:05:44.000Z</time>
      </trkpt>
      <trkpt lat="45.16885" lon="5.67935">
        <ele>284.2</ele>
        <time>2020-02-23T08:05:54.000Z</time>
      </trkpt>
      <trkpt lat="45.16882" lon="5.67928">
        <ele>290</ele>
        <time>2020-02-23T08:05:48.000Z</time>
      </trkpt>
      <trkpt lat="45.16875" lon="5.67909">
        <ele>293.4</ele>
        <time>2020-02-23T08:05:58.000Z</time>
      </trkpt>
      <trkpt lat="45.1687" lon="5.67897">
        <ele>302</ele>
        <time>2020-02-23T08:06:09.000Z</time>
      </trkpt>
      <trkpt lat="45.16866" lon="5.6789">
        <ele>294.5</ele>
        <time>2020-02-23T08:06:19.000Z</time>
      </trkpt>
      <trkpt lat="45.16855" lon="5.67874">
        <ele>306</ele>
        <time>2020-02-23T08:06:27.000Z</time>
      </trkpt>
      <trkpt lat="45.16851" lon="5.67866">
        <ele>296.7</ele>
        <time>2020-02-23T08:06:37.000Z</time>
      </trkpt>
      <trkpt lat="45.16849" lon="5.67853">
        <ele>298.1</ele>
        <time>2020-02-23T08:06:47.000Z</time>
      </trkpt>
      <trkpt lat="45.16847" lon="5.67839">
        <ele>308</ele>
        <time>2020-02-23T08:06:48.000Z</time>
      </trkpt>
      <trkpt lat="45.16844" lon="5.67826">
        <ele>307.1</ele>
        <time>2020-02-23T08:06:58.000Z</time>
      </trkpt>
      <trkpt lat="45.1684" lon="5.67813">
        <ele>314</ele>
        <time>2020-02-23T08:07:04.000Z</time>
      </trkpt>
      <trkpt lat="45.16839" lon="5.678">
        <ele>312.6</ele>
        <time>2020-02-23T08:07:14.000Z</time>
      </trkpt>
      <trkpt lat="45.16832" lon="5.67791">
        <ele>322</ele>
        <time>2020-02-23T08:07:27.000Z</time>
      </trkpt>
      <trkpt lat="45.16823" lon="5.67778">
        <ele>312.6</ele>
        <time>2020-02-23T08:07:37.000Z</time>
      </trkpt>
      <trkpt lat="45.16816" lon="5.67765">
        <ele>325</ele>
        <time>2020-02-23T08:07:50.000Z</time>
      </trkpt>
      <trkpt lat="45.16811" lon="5.67753">
        <ele>315.1</ele>
        <time>2020-02-23T08:08:00.000Z</time>
      </trkpt>
      <trkpt lat="45.16799" lon="5.67732">
        <ele>329</ele>
        <time>2020-02-23T08:08:15.000Z</time>
      </trkpt>
      <trkpt lat="45.16796" lon="5.67724">
        <ele>324.3</ele>
        <time>2020-02-23T08:08:25.000Z</time>
      </trkpt>
      <trkpt lat="45.16791" lon="5.67704">
        <ele>333</ele>
        <time>2020-02-23T08:08:33.000Z</time>
      </trkpt>
      <trkpt lat="45.1679" lon="5.67677">
        <ele>333</ele>
        <time>2020-02-23T08:08:50.000Z</time>
      </trkpt>
      <trkpt lat="45.16787" lon="5.67664">
        <ele>338.7</ele>
        <time>2020-02-23T08:09:00.000Z</time>
      </trkpt>
      <trkpt lat="45.16787" lon="5.67652">
        <ele>339.6</ele>
        <time>2020-02-23T08:09:10.000Z</time>
      </trkpt>
      <trkpt lat="45.16788" lon="5.6765">
        <ele>334</ele>
        <time>2020-02-23T08:09:06.000Z</time>
      </trkpt>
      <trkpt lat="45.16799" lon="5.67648">
        <ele>341.9</ele>
        <time>2020-02-23T08:09:16.000Z</time>
      </trkpt>
      <trkpt lat="45.16817" lon="5.67647">
        <ele>347</ele>
        <time>2020-02-23T08:09:29.000Z</time>
      </trkpt>
      <trkpt lat="45.16826" lon="5.67643">
        <ele>344.6</ele>
        <time>2020-02-23T08:09:39.000Z</time>
      </trkpt>
      <trkpt lat="45.16835" lon="5.67642">
        <ele>353.5</ele>
        <time>2020-02-23T08:09:49.000Z</time>
      </trkpt>
      <trkpt lat="45.16844" lon="5.67637">
        <ele>355</ele>
        <time>2020-02-23T08:09:56.000Z</time>
      </trkpt>
      <trkpt lat="45.16852" lon="5.6763">
        <ele>357.2</ele>
        <time>2020-02-23T08:10:06.000Z</time>
      </trkpt>
      <trkpt lat="45.1686" lon="5.67623">
        <ele>362</ele>
        <time>2020-02-23T08:10:11.000Z</time>
      </trkpt>
      <trkpt lat="45.16868" lon="5.67615">
        <ele>360.4</ele>
        <time>2020-02-23T08:10:21.000Z</time>
      </trkpt>
      <trkpt lat="45.16876" lon="5.67608">
        <ele>361.8</ele>
        <time>2020-02-23T08:10:31.000Z</time>
      </trkpt>
      <trkpt lat="45.16883" lon="5.67597">
        <ele>372</ele>
        <time>2020-02-23T08:10:33.000Z</time>
      </trkpt>
      <trkpt lat="45.16878" lon="5.67587">
        <ele>364.2</ele>
        <time>2020-02-23T08:10:43.000Z</time>
      </trkpt>
      <trkpt lat="45.16878" lon="5.67574">
        <ele>378.6</ele>
        <time>2020-02-23T08:10:53.000Z</time>
      </trkpt>
      <trkpt lat="45.16887" lon="5.67567">
        <ele>383</ele>
        <time>2020-02-23T08:11:14.000Z</time>
      </trkpt>
      <trkpt lat="45.16904" lon="5.67556">
        <ele>381.2</ele>
        <time>2020-02-23T08:11:24.000Z</time>
      </trkpt>
      <trkpt lat="45.16922" lon="5.67548">
        <ele>393</ele>
        <time>2020-02-23T08:11:49.000Z</time>
      </trkpt>
      <trkpt lat="45.16918" lon="5.67543">
        <ele>392.9</ele>
        <time>2020-02-23T08:11:59.000Z</time>
      </trkpt>
      <trkpt lat="45.16915" lon="5.67536">
        <ele>385.1</ele>
        <time>2020-02-23T08:12:09.000Z</time>
      </trkpt>
      <trkpt lat="45.16917" lon="5.67525">
        <ele>393</ele>
        <time>2020-02-23T08:12:17.000Z</time>
      </trkpt>
      <trkpt lat="45.16925" lon="5.67518">
        <ele>397.1</ele>
        <time>2020-02-23T08:12:27.000Z</time>
      </trkpt>
      <trkpt lat="45.16936" lon="5.67517">
        <ele>398</ele>
        <time>2020-02-23T08:12:37.000Z</time>
      </trkpt>
      <trkpt lat="45.16951" lon="5.67501">
        <ele>399.8</ele>
        <time>2020-02-23T08:12:47.000Z</time>
      </trkpt>
      <trkpt lat="45.16959" lon="5.67494">
        <ele>400</ele>
        <time>2020-02-23T08:13:02.000Z</time>
      </trkpt>
      <trkpt lat="45.16969" lon="5.67492">
        <ele>416.7</ele>
        <time>2020-02-23T08:13:12.000Z</time>
      </trkpt>
      <trkpt lat="45.16977" lon="5.67498">
        <ele>412</ele>
        <time>2020-02-23T08:13:15.000Z</time>
      </trkpt>
      <trkpt lat="45.16986" lon="5.67503">
        <ele>408.6</ele>
        <time>2020-02-23T08:13:25.000Z</time>
      </trkpt>
      <trkpt lat="45.16995" lon="5.67512">
        <ele>412</ele>
        <time>2020-02-23T08:13:26.000Z</time>
      </trkpt>
      <trkpt lat="45.17002" lon="5.67522">
        <ele>414.4</ele>
        <time>2020-02-23T08:13:36.000Z</time>
      </trkpt>
      <trkpt lat="45.17018" lon="5.67541">
        <ele>412</ele>
        <time>2020-02-23T08:13:40.000Z</time>
      </trkpt>
      <trkpt lat="45.17029" lon="5.67551">
        <ele>411</ele>
        <time>2020-02-23T08:13:50.000Z</time>
      </trkpt>
      <trkpt lat="45.17035" lon="5.67559">
        <ele>412</ele>
        <time>2020-02-23T08:13:48.000Z</time>
      </trkpt>
      <trkpt lat="45.17046" lon="5.67567">
        <ele>411.2</ele>
        <time>2020-02-23T08:13:58.000Z</time>
      </trkpt>
      <trkpt lat="45.17054" lon="5.67569">
        <ele>412</ele>
        <time>2020-02-23T08:13:56.000Z</time>
      </trkpt>
      <trkpt lat="45.17061" lon="5.67561">
        <ele>413.4</ele>
        <time>2020-02-23T08:14:06.000Z</time>
      </trkpt>
      <trkpt lat="45.17059" lon="5.67554">
        <ele>414</ele>
        <time>2020-02-23T08:14:16.000Z</time>
      </trkpt>
      <trkpt lat="45.17056" lon="5.67554">
        <ele>413.8</ele>
        <time>2020-02-23T08:14:26.000Z</time>
      </trkpt>
      <trkpt lat="45.17045" lon="5.67551">
        <ele>412</ele>
        <time>2020-02-23T08:14:27.000Z</time>
      </trkpt>
      <trkpt lat="45.17037" lon="5.67542">
        <ele>413.4</ele>
        <time>2020-02-23T08:14:37.000Z</time>
      </trkpt>
      <trkpt lat="45.17017" lon="5.67501">
        <ele>417</ele>
        <time>2020-02-23T08:15:00.000Z</time>
      </trkpt>
      <trkpt lat="45.17007" lon="5.67484">
        <ele>425.1</ele>
        <time>2020-02-23T08:15:10.000Z</time>
      </trkpt>
      <trkpt lat="45.17005" lon="5.67471">
        <ele>421</ele>
        <time>2020-02-23T08:15:19.000Z</time>
      </trkpt>
      <trkpt lat="45.17013" lon="5.67463">
        <ele>429.4</ele>
        <time>2020-02-23T08:15:29.000Z</time>
      </trkpt>
      <trkpt lat="45.17023" lon="5.67465">
        <ele>426</ele>
        <time>2020-02-23T08:15:30.000Z</time>
      </trkpt>
      <trkpt lat="45.17039" lon="5.67466">
        <ele>431.1</ele>
        <time>2020-02-23T08:15:40.000Z</time>
      </trkpt>
      <trkpt lat="45.17043" lon="5.67467">
        <ele>426</ele>
        <time>2020-02-23T08:15:49.000Z</time>
      </trkpt>
      <trkpt lat="45.17046" lon="5.67466">
        <ele>431.6</ele>
        <time>2020-02-23T08:15:59.000Z</time>
      </trkpt>
      <trkpt lat="45.17055" lon="5.6746">
        <ele>432.6</ele>
        <time>2020-02-23T08:16:09.000Z</time>
      </trkpt>
      <trkpt lat="45.17062" lon="5.67447">
        <ele>432</ele>
        <time>2020-02-23T08:16:05.000Z</time>
      </trkpt>
      <trkpt lat="45.17065" lon="5.6744">
        <ele>434.5</ele>
        <time>2020-02-23T08:16:15.000Z</time>
      </trkpt>
      <trkpt lat="45.17065" lon="5.67436">
        <ele>434.8</ele>
        <time>2020-02-23T08:16:25.000Z</time>
      </trkpt>
      <trkpt lat="45.1707" lon="5.67426">
        <ele>436.3</ele>
        <time>2020-02-23T08:16:35.000Z</time>
      </trkpt>
      <trkpt lat="45.17074" lon="5.67421">
        <ele>441</ele>
        <time>2020-02-23T08:16:22.000Z</time>
      </trkpt>
      <trkpt lat="45.17078" lon="5.67409">
        <ele>441.4</ele>
        <time>2020-02-23T08:16:32.000Z</time>
      </trkpt>
      <trkpt lat="45.1708" lon="5.67396">
        <ele>444</ele>
        <time>2020-02-23T08:16:38.000Z</time>
      </trkpt>
      <trkpt lat="45.17085" lon="5.67384">
        <ele>447.6</ele>
        <time>2020-02-23T08:16:48.000Z</time>
      </trkpt>
      <trkpt lat="45.17089" lon="5.67372">
        <ele>446</ele>
        <time>2020-02-23T08:16:54.000Z</time>
      </trkpt>
      <trkpt lat="45.17091" lon="5.67369">
        <ele>449.4</ele>
        <time>2020-02-23T08:17:04.000Z</time>
      </trkpt>
      <trkpt lat="45.17093" lon="5.67367">
        <ele>449.6</ele>
        <time>2020-02-23T08:17:14.000Z</time>
      </trkpt>
      <trkpt lat="45.17094" lon="5.67361">
        <ele>450.1</ele>
        <time>2020-02-23T08:17:24.000Z</time>
      </trkpt>
      <trkpt lat="45.17099" lon="5.67346">
        <ele>453</ele>
        <time>2020-02-23T08:17:10.000Z</time>
      </trkpt>
      <trkpt lat="45.17102" lon="5.67329">
        <ele>454.8</ele>
        <time>2020-02-23T08:17:20.000Z</time>
      </trkpt>
      <trkpt lat="45.17104" lon="5.67322">
        <ele>455.1</ele>
        <time>2020-02-23T08:17:30.000Z</time>
      </trkpt>
      <trkpt lat="45.17109" lon="5.67314">
        <ele>458</ele>
        <time>2020-02-23T08:17:29.000Z</time>
      </trkpt>
      <trkpt lat="45.17115" lon="5.67306">
        <ele>455.9</ele>
        <time>2020-02-23T08:17:39.000Z</time>
      </trkpt>
      <trkpt lat="45.17119" lon="5.673">
        <ele>456.2</ele>
        <time>2020-02-23T08:17:49.000Z</time>
      </trkpt>
      <trkpt lat="45.17121" lon="5.67296">
        <ele>456.3</ele>
        <time>2020-02-23T08:17:59.000Z</time>
      </trkpt>
      <trkpt lat="45.17123" lon="5.6729">
        <ele>463</ele>
        <time>2020-02-23T08:17:38.000Z</time>
      </trkpt>
      <trkpt lat="45.17123" lon="5.67287">
        <ele>456.7</ele>
        <time>2020-02-23T08:17:48.000Z</time>
      </trkpt>
      <trkpt lat="45.17124" lon="5.67272">
        <ele>457.2</ele>
        <time>2020-02-23T08:17:58.000Z</time>
      </trkpt>
      <trkpt lat="45.17125" lon="5.67263">
        <ele>462</ele>
        <time>2020-02-23T08:17:47.000Z</time>
      </trkpt>
      <trkpt lat="45.17128" lon="5.67254">
        <ele>457.6</ele>
        <time>2020-02-23T08:17:57.000Z</time>
      </trkpt>
      <trkpt lat="45.17135" lon="5.67246">
        <ele>465.1</ele>
        <time>2020-02-23T08:18:07.000Z</time>
      </trkpt>
      <trkpt lat="45.17144" lon="5.67242">
        <ele>462</ele>
        <time>2020-02-23T08:17:59.000Z</time>
      </trkpt>
      <trkpt lat="45.17153" lon="5.6724">
        <ele>463.8</ele>
        <time>2020-02-23T08:18:09.000Z</time>
      </trkpt>
      <trkpt lat="45.17164" lon="5.67237">
        <ele>463</ele>
        <time>2020-02-23T08:18:07.000Z</time>
      </trkpt>
      <trkpt lat="45.17164" lon="5.67222">
        <ele>466.4</ele>
        <time>2020-02-23T08:18:17.000Z</time>
      </trkpt>
      <trkpt lat="45.17159" lon="5.67206">
        <ele>483</ele>
        <time>2020-02-23T08:18:17.000Z</time>
      </trkpt>
      <trkpt lat="45.17157" lon="5.67204">
        <ele>469.6</ele>
        <time>2020-02-23T08:18:27.000Z</time>
      </trkpt>
      <trkpt lat="45.17148" lon="5.67198">
        <ele>470.3</ele>
        <time>2020-02-23T08:18:37.000Z</time>
      </trkpt>
      <trkpt lat="45.1714" lon="5.67192">
        <ele>483</ele>
        <time>2020-02-23T08:18:26.000Z</time>
      </trkpt>
      <trkpt lat="45.17145" lon="5.67182">
        <ele>472.4</ele>
        <time>2020-02-23T08:18:36.000Z</time>
      </trkpt>
      <trkpt lat="45.1714" lon="5.67171">
        <ele>472.9</ele>
        <time>2020-02-23T08:18:46.000Z</time>
      </trkpt>
      <trkpt lat="45.1713" lon="5.67168">
        <ele>490</ele>
        <time>2020-02-23T08:18:52.000Z</time>
      </trkpt>
      <trkpt lat="45.17119" lon="5.6716">
        <ele>489.8</ele>
        <time>2020-02-23T08:19:02.000Z</time>
      </trkpt>
      <trkpt lat="45.17102" lon="5.67153">
        <ele>495</ele>
        <time>2020-02-23T08:19:04.000Z</time>
      </trkpt>
      <trkpt lat="45.17094" lon="5.67148">
        <ele>488.5</ele>
        <time>2020-02-23T08:19:14.000Z</time>
      </trkpt>
      <trkpt lat="45.17083" lon="5.67143">
        <ele>494</ele>
        <time>2020-02-23T08:19:13.000Z</time>
      </trkpt>
      <trkpt lat="45.17071" lon="5.67136">
        <ele>490.6</ele>
        <time>2020-02-23T08:19:23.000Z</time>
      </trkpt>
      <trkpt lat="45.17065" lon="5.67133">
        <ele>503</ele>
        <time>2020-02-23T08:19:24.000Z</time>
      </trkpt>
      <trkpt lat="45.17056" lon="5.67132">
        <ele>492</ele>
        <time>2020-02-23T08:19:34.000Z</time>
      </trkpt>
      <trkpt lat="45.17049" lon="5.67132">
        <ele>492</ele>
        <time>2020-02-23T08:19:44.000Z</time>
      </trkpt>
      <trkpt lat="45.17039" lon="5.67128">
        <ele>496</ele>
        <time>2020-02-23T08:19:32.000Z</time>
      </trkpt>
      <trkpt lat="45.17029" lon="5.67127">
        <ele>492.9</ele>
        <time>2020-02-23T08:19:42.000Z</time>
      </trkpt>
      <trkpt lat="45.17019" lon="5.67132">
        <ele>489</ele>
        <time>2020-02-23T08:19:43.000Z</time>
      </trkpt>
      <trkpt lat="45.17009" lon="5.67133">
        <ele>490.5</ele>
        <time>2020-02-23T08:19:53.000Z</time>
      </trkpt>
      <trkpt lat="45.16989" lon="5.67138">
        <ele>479</ele>
        <time>2020-02-23T08:20:00.000Z</time>
      </trkpt>
      <trkpt lat="45.1698" lon="5.67139">
        <ele>487.9</ele>
        <time>2020-02-23T08:20:10.000Z</time>
      </trkpt>
      <trkpt lat="45.1697" lon="5.67135">
        <ele>479</ele>
        <time>2020-02-23T08:20:11.000Z</time>
      </trkpt>
      <trkpt lat="45.16961" lon="5.67128">
        <ele>491.1</ele>
        <time>2020-02-23T08:20:21.000Z</time>
      </trkpt>
      <trkpt lat="45.16943" lon="5.6712">
        <ele>502</ele>
        <time>2020-02-23T08:20:26.000Z</time>
      </trkpt>
      <trkpt lat="45.16922" lon="5.6711">
        <ele>503</ele>
        <time>2020-02-23T08:20:36.000Z</time>
      </trkpt>
      <trkpt lat="45.16906" lon="5.67097">
        <ele>496.9</ele>
        <time>2020-02-23T08:20:46.000Z</time>
      </trkpt>
      <trkpt lat="45.16897" lon="5.67093">
        <ele>507</ele>
        <time>2020-02-23T08:20:51.000Z</time>
      </trkpt>
      <trkpt lat="45.1689" lon="5.67089">
        <ele>493.4</ele>
        <time>2020-02-23T08:21:01.000Z</time>
      </trkpt>
      <trkpt lat="45.1687" lon="5.67063">
        <ele>511</ele>
        <time>2020-02-23T08:21:11.000Z</time>
      </trkpt>
      <trkpt lat="45.16863" lon="5.67055">
        <ele>512</ele>
        <time>2020-02-23T08:21:21.000Z</time>
      </trkpt>
      <trkpt lat="45.16855" lon="5.67045">
        <ele>513</ele>
        <time>2020-02-23T08:21:21.000Z</time>
      </trkpt>
      <trkpt lat="45.16846" lon="5.67039">
        <ele>513.5</ele>
        <time>2020-02-23T08:21:31.000Z</time>
      </trkpt>
      <trkpt lat="45.16841" lon="5.67027">
        <ele>516</ele>
        <time>2020-02-23T08:21:32.000Z</time>
      </trkpt>
      <trkpt lat="45.16834" lon="5.67018">
        <ele>516.8</ele>
        <time>2020-02-23T08:21:42.000Z</time>
      </trkpt>
      <trkpt lat="45.16817" lon="5.67001">
        <ele>522</ele>
        <time>2020-02-23T08:21:46.000Z</time>
      </trkpt>
      <trkpt lat="45.16809" lon="5.66992">
        <ele>531.7</ele>
        <time>2020-02-23T08:21:56.000Z</time>
      </trkpt>
      <trkpt lat="45.16789" lon="5.66983">
        <ele>523</ele>
        <time>2020-02-23T08:22:05.000Z</time>
      </trkpt>
      <trkpt lat="45.16783" lon="5.66981">
        <ele>535</ele>
        <time>2020-02-23T08:22:15.000Z</time>
      </trkpt>
      <trkpt lat="45.16772" lon="5.66978">
        <ele>534.8</ele>
        <time>2020-02-23T08:22:25.000Z</time>
      </trkpt>
      <trkpt lat="45.16762" lon="5.66977">
        <ele>525</ele>
        <time>2020-02-23T08:22:23.000Z</time>
      </trkpt>
      <trkpt lat="45.16764" lon="5.66963">
        <ele>539.3</ele>
        <time>2020-02-23T08:22:33.000Z</time>
      </trkpt>
      <trkpt lat="45.16773" lon="5.66953">
        <ele>551</ele>
        <time>2020-02-23T08:22:38.000Z</time>
      </trkpt>
      <trkpt lat="45.16788" lon="5.6694">
        <ele>545.4</ele>
        <time>2020-02-23T08:22:48.000Z</time>
      </trkpt>
      <trkpt lat="45.16799" lon="5.66938">
        <ele>551</ele>
        <time>2020-02-23T08:22:52.000Z</time>
      </trkpt>
      <trkpt lat="45.1681" lon="5.66944">
        <ele>544.8</ele>
        <time>2020-02-23T08:23:02.000Z</time>
      </trkpt>
      <trkpt lat="45.1682" lon="5.66948">
        <ele>551</ele>
        <time>2020-02-23T08:23:01.000Z</time>
      </trkpt>
      <trkpt lat="45.16828" lon="5.66954">
        <ele>542.1</ele>
        <time>2020-02-23T08:23:11.000Z</time>
      </trkpt>
      <trkpt lat="45.16838" lon="5.66953">
        <ele>547.6</ele>
        <time>2020-02-23T08:23:21.000Z</time>
      </trkpt>
      <trkpt lat="45.16846" lon="5.66957">
        <ele>552</ele>
        <time>2020-02-23T08:23:20.000Z</time>
      </trkpt>
      <trkpt lat="45.16854" lon="5.66963">
        <ele>545.5</ele>
        <time>2020-02-23T08:23:30.000Z</time>
      </trkpt>
      <trkpt lat="45.16863" lon="5.66969">
        <ele>545.2</ele>
        <time>2020-02-23T08:23:40.000Z</time>
      </trkpt>
      <trkpt lat="45.1689" lon="5.6696">
        <ele>553</ele>
        <time>2020-02-23T08:24:04.000Z</time>
      </trkpt>
      <trkpt lat="45.169" lon="5.66962">
        <ele>550.8</ele>
        <time>2020-02-23T08:24:14.000Z</time>
      </trkpt>
      <trkpt lat="45.16909" lon="5.66966">
        <ele>554</ele>
        <time>2020-02-23T08:24:21.000Z</time>
      </trkpt>
      <trkpt lat="45.16916" lon="5.66968">
        <ele>550.5</ele>
        <time>2020-02-23T08:24:31.000Z</time>
      </trkpt>
      <trkpt lat="45.16926" lon="5.66967">
        <ele>556.2</ele>
        <time>2020-02-23T08:24:41.000Z</time>
      </trkpt>
      <trkpt lat="45.16938" lon="5.66965">
        <ele>557</ele>
        <time>2020-02-23T08:24:43.000Z</time>
      </trkpt>
      <trkpt lat="45.16947" lon="5.66965">
        <ele>556.9</ele>
        <time>2020-02-23T08:24:53.000Z</time>
      </trkpt>
      <trkpt lat="45.16944" lon="5.66954">
        <ele>558.4</ele>
        <time>2020-02-23T08:25:03.000Z</time>
      </trkpt>
      <trkpt lat="45.16943" lon="5.66952">
        <ele>558.7</ele>
        <time>2020-02-23T08:25:13.000Z</time>
      </trkpt>
      <trkpt lat="45.16934" lon="5.66948">
        <ele>562</ele>
        <time>2020-02-23T08:25:10.000Z</time>
      </trkpt>
      <trkpt lat="45.16928" lon="5.66943">
        <ele>560.7</ele>
        <time>2020-02-23T08:25:20.000Z</time>
      </trkpt>
      <trkpt lat="45.16928" lon="5.6694">
        <ele>561.2</ele>
        <time>2020-02-23T08:25:30.000Z</time>
      </trkpt>
      <trkpt lat="45.1693" lon="5.66938">
        <ele>561.5</ele>
        <time>2020-02-23T08:25:40.000Z</time>
      </trkpt>
      <trkpt lat="45.16934" lon="5.66931">
        <ele>562.3</ele>
        <time>2020-02-23T08:25:50.000Z</time>
      </trkpt>
      <trkpt lat="45.16939" lon="5.66919">
        <ele>568</ele>
        <time>2020-02-23T08:25:40.000Z</time>
      </trkpt>
      <trkpt lat="45.16942" lon="5.66916">
        <ele>574.6</ele>
        <time>2020-02-23T08:25:50.000Z</time>
      </trkpt>
      <trkpt lat="45.16946" lon="5.66904">
        <ele>575.8</ele>
        <time>2020-02-23T08:26:00.000Z</time>
      </trkpt>
      <trkpt lat="45.16944" lon="5.66901">
        <ele>576</ele>
        <time>2020-02-23T08:26:10.000Z</time>
      </trkpt>
      <trkpt lat="45.1694" lon="5.6689">
        <ele>572</ele>
        <time>2020-02-23T08:26:12.000Z</time>
      </trkpt>
      <trkpt lat="45.16932" lon="5.66879">
        <ele>579.1</ele>
        <time>2020-02-23T08:26:22.000Z</time>
      </trkpt>
      <trkpt lat="45.16921" lon="5.66861">
        <ele>574</ele>
        <time>2020-02-23T08:26:30.000Z</time>
      </trkpt>
      <trkpt lat="45.1691" lon="5.66859">
        <ele>582.7</ele>
        <time>2020-02-23T08:26:40.000Z</time>
      </trkpt>
      <trkpt lat="45.1686" lon="5.66856">
        <ele>576</ele>
        <time>2020-02-23T08:26:53.000Z</time>
      </trkpt>
      <trkpt lat="45.16843" lon="5.66854">
        <ele>583.2</ele>
        <time>2020-02-23T08:27:03.000Z</time>
      </trkpt>
      <trkpt lat="45.16822" lon="5.66853">
        <ele>578</ele>
        <time>2020-02-23T08:27:09.000Z</time>
      </trkpt>
      <trkpt lat="45.16811" lon="5.6685">
        <ele>583.1</ele>
        <time>2020-02-23T08:27:19.000Z</time>
      </trkpt>
      <trkpt lat="45.16802" lon="5.66843">
        <ele>596</ele>
        <time>2020-02-23T08:27:19.000Z</time>
      </trkpt>
      <trkpt lat="45.16794" lon="5.66834">
        <ele>584.2</ele>
        <time>2020-02-23T08:27:29.000Z</time>
      </trkpt>
      <trkpt lat="45.16776" lon="5.66826">
        <ele>596</ele>
        <time>2020-02-23T08:27:33.000Z</time>
      </trkpt>
      <trkpt lat="45.16767" lon="5.66825">
        <ele>601.5</ele>
        <time>2020-02-23T08:27:43.000Z</time>
      </trkpt>
      <trkpt lat="45.16757" lon="5.66823">
        <ele>600.3</ele>
        <time>2020-02-23T08:27:53.000Z</time>
      </trkpt>
      <trkpt lat="45.16776" lon="5.66792">
        <ele>604</ele>
        <time>2020-02-23T08:28:14.000Z</time>
      </trkpt>
      <trkpt lat="45.16784" lon="5.66785">
        <ele>608.3</ele>
        <time>2020-02-23T08:28:24.000Z</time>
      </trkpt>
      <trkpt lat="45.16793" lon="5.6678">
        <ele>609.1</ele>
        <time>2020-02-23T08:28:34.000Z</time>
      </trkpt>
      <trkpt lat="45.16803" lon="5.66779">
        <ele>612</ele>
        <time>2020-02-23T08:28:32.000Z</time>
      </trkpt>
      <trkpt lat="45.16814" lon="5.66783">
        <ele>609.2</ele>
        <time>2020-02-23T08:28:42.000Z</time>
      </trkpt>
      <trkpt lat="45.16822" lon="5.66788">
        <ele>611</ele>
        <time>2020-02-23T08:28:42.000Z</time>
      </trkpt>
      <trkpt lat="45.16832" lon="5.66792">
        <ele>607.3</ele>
        <time>2020-02-23T08:28:52.000Z</time>
      </trkpt>
      <trkpt lat="45.1684" lon="5.66788">
        <ele>608.2</ele>
        <time>2020-02-23T08:29:02.000Z</time>
      </trkpt>
      <trkpt lat="45.1685" lon="5.66786">
        <ele>611</ele>
        <time>2020-02-23T08:29:01.000Z</time>
      </trkpt>
      <trkpt lat="45.1687" lon="5.6678">
        <ele>611</ele>
        <time>2020-02-23T08:29:17.000Z</time>
      </trkpt>
      <trkpt lat="45.16889" lon="5.66776">
        <ele>614</ele>
        <time>2020-02-23T08:29:25.000Z</time>
      </trkpt>
      <trkpt lat="45.16898" lon="5.6677">
        <ele>611.6</ele>
        <time>2020-02-23T08:29:35.000Z</time>
      </trkpt>
      <trkpt lat="45.16906" lon="5.66764">
        <ele>615</ele>
        <time>2020-02-23T08:29:35.000Z</time>
      </trkpt>
      <trkpt lat="45.16912" lon="5.66754">
        <ele>618</ele>
        <time>2020-02-23T08:29:45.000Z</time>
      </trkpt>
      <trkpt lat="45.16919" lon="5.66744">
        <ele>616</ele>
        <time>2020-02-23T08:29:45.000Z</time>
      </trkpt>
      <trkpt lat="45.16926" lon="5.66734">
        <ele>629.6</ele>
        <time>2020-02-23T08:29:55.000Z</time>
      </trkpt>
      <trkpt lat="45.16942" lon="5.66717">
        <ele>626</ele>
        <time>2020-02-23T08:29:59.000Z</time>
      </trkpt>
      <trkpt lat="45.16948" lon="5.66706">
        <ele>637.6</ele>
        <time>2020-02-23T08:30:09.000Z</time>
      </trkpt>
      <trkpt lat="45.16956" lon="5.66699">
        <ele>631</ele>
        <time>2020-02-23T08:30:09.000Z</time>
      </trkpt>
      <trkpt lat="45.16965" lon="5.66694">
        <ele>639.2</ele>
        <time>2020-02-23T08:30:19.000Z</time>
      </trkpt>
      <trkpt lat="45.16976" lon="5.66691">
        <ele>636</ele>
        <time>2020-02-23T08:30:19.000Z</time>
      </trkpt>
      <trkpt lat="45.16994" lon="5.6669">
        <ele>640.3</ele>
        <time>2020-02-23T08:30:29.000Z</time>
      </trkpt>
      <trkpt lat="45.17004" lon="5.66689">
        <ele>636</ele>
        <time>2020-02-23T08:30:32.000Z</time>
      </trkpt>
      <trkpt lat="45.17032" lon="5.66682">
        <ele>637</ele>
        <time>2020-02-23T08:30:45.000Z</time>
      </trkpt>
      <trkpt lat="45.17042" lon="5.66678">
        <ele>637.8</ele>
        <time>2020-02-23T08:30:55.000Z</time>
      </trkpt>
      <trkpt lat="45.17073" lon="5.66678">
        <ele>636</ele>
        <time>2020-02-23T08:31:02.000Z</time>
      </trkpt>
      <trkpt lat="45.17087" lon="5.66687">
        <ele>640.2</ele>
        <time>2020-02-23T08:31:12.000Z</time>
      </trkpt>
      <trkpt lat="45.17092" lon="5.66691">
        <ele>636</ele>
        <time>2020-02-23T08:31:10.000Z</time>
      </trkpt>
      <trkpt lat="45.17102" lon="5.66697">
        <ele>638.8</ele>
        <time>2020-02-23T08:31:20.000Z</time>
      </trkpt>
      <trkpt lat="45.17114" lon="5.66706">
        <ele>639</ele>
        <time>2020-02-23T08:31:23.000Z</time>
      </trkpt>
      <trkpt lat="45.17127" lon="5.66714">
        <ele>638.4</ele>
        <time>2020-02-23T08:31:33.000Z</time>
      </trkpt>
      <trkpt lat="45.17143" lon="5.6672">
        <ele>638</ele>
        <time>2020-02-23T08:31:39.000Z</time>
      </trkpt>
      <trkpt lat="45.17149" lon="5.6672">
        <ele>639.4</ele>
        <time>2020-02-23T08:31:49.000Z</time>
      </trkpt>
      <trkpt lat="45.17155" lon="5.66717">
        <ele>639.5</ele>
        <time>2020-02-23T08:31:59.000Z</time>
      </trkpt>
      <trkpt lat="45.17161" lon="5.66705">
        <ele>638</ele>
        <time>2020-02-23T08:31:51.000Z</time>
      </trkpt>
      <trkpt lat="45.17162" lon="5.66688">
        <ele>639.6</ele>
        <time>2020-02-23T08:32:01.000Z</time>
      </trkpt>
      <trkpt lat="45.17158" lon="5.66676">
        <ele>640</ele>
        <time>2020-02-23T08:32:00.000Z</time>
      </trkpt>
      <trkpt lat="45.17156" lon="5.66676">
        <ele>639.7</ele>
        <time>2020-02-23T08:32:10.000Z</time>
      </trkpt>
      <trkpt lat="45.17154" lon="5.6668">
        <ele>639.6</ele>
        <time>2020-02-23T08:32:20.000Z</time>
      </trkpt>
      <trkpt lat="45.17153" lon="5.66686">
        <ele>639.6</ele>
        <time>2020-02-23T08:32:30.000Z</time>
      </trkpt>
      <trkpt lat="45.17152" lon="5.6669">
        <ele>639.5</ele>
        <time>2020-02-23T08:32:40.000Z</time>
      </trkpt>
      <trkpt lat="45.17148" lon="5.66694">
        <ele>639.4</ele>
        <time>2020-02-23T08:32:50.000Z</time>
      </trkpt>
      <trkpt lat="45.17146" lon="5.66695">
        <ele>642</ele>
        <time>2020-02-23T08:32:12.000Z</time>
      </trkpt>
      <trkpt lat="45.17142" lon="5.66693">
        <ele>639.3</ele>
        <time>2020-02-23T08:32:22.000Z</time>
      </trkpt>
      <trkpt lat="45.17137" lon="5.66684">
        <ele>639.4</ele>
        <time>2020-02-23T08:32:32.000Z</time>
      </trkpt>
      <trkpt lat="45.17129" lon="5.66661">
        <ele>651</ele>
        <time>2020-02-23T08:32:28.000Z</time>
      </trkpt>
      <trkpt lat="45.17124" lon="5.66652">
        <ele>646.7</ele>
        <time>2020-02-23T08:32:38.000Z</time>
      </trkpt>
      <trkpt lat="45.17112" lon="5.66633">
        <ele>653</ele>
        <time>2020-02-23T08:32:42.000Z</time>
      </trkpt>
      <trkpt lat="45.17107" lon="5.66624">
        <ele>649.8</ele>
        <time>2020-02-23T08:32:52.000Z</time>
      </trkpt>
      <trkpt lat="45.17104" lon="5.66616">
        <ele>651</ele>
        <time>2020-02-23T08:33:02.000Z</time>
      </trkpt>
      <trkpt lat="45.17101" lon="5.66602">
        <ele>658</ele>
        <time>2020-02-23T08:32:56.000Z</time>
      </trkpt>
      <trkpt lat="45.17101" lon="5.66599">
        <ele>654.2</ele>
        <time>2020-02-23T08:33:06.000Z</time>
      </trkpt>
      <trkpt lat="45.17102" lon="5.66595">
        <ele>654.6</ele>
        <time>2020-02-23T08:33:16.000Z</time>
      </trkpt>
      <trkpt lat="45.17106" lon="5.66588">
        <ele>654.5</ele>
        <time>2020-02-23T08:33:26.000Z</time>
      </trkpt>
      <trkpt lat="45.17107" lon="5.66583">
        <ele>662.6</ele>
        <time>2020-02-23T08:33:36.000Z</time>
      </trkpt>
      <trkpt lat="45.17109" lon="5.66573">
        <ele>661</ele>
        <time>2020-02-23T08:33:11.000Z</time>
      </trkpt>
      <trkpt lat="45.17115" lon="5.6656">
        <ele>663</ele>
        <time>2020-02-23T08:33:21.000Z</time>
      </trkpt>
      <trkpt lat="45.17116" lon="5.66551">
        <ele>663.6</ele>
        <time>2020-02-23T08:33:31.000Z</time>
      </trkpt>
      <trkpt lat="45.17116" lon="5.66536">
        <ele>672</ele>
        <time>2020-02-23T08:33:33.000Z</time>
      </trkpt>
      <trkpt lat="45.17115" lon="5.66525">
        <ele>666.8</ele>
        <time>2020-02-23T08:33:43.000Z</time>
      </trkpt>
      <trkpt lat="45.17116" lon="5.66519">
        <ele>667.3</ele>
        <time>2020-02-23T08:33:53.000Z</time>
      </trkpt>
      <trkpt lat="45.17115" lon="5.66508">
        <ele>675</ele>
        <time>2020-02-23T08:33:49.000Z</time>
      </trkpt>
      <trkpt lat="45.17115" lon="5.6649">
        <ele>680.8</ele>
        <time>2020-02-23T08:33:59.000Z</time>
      </trkpt>
      <trkpt lat="45.17114" lon="5.66487">
        <ele>681.2</ele>
        <time>2020-02-23T08:34:09.000Z</time>
      </trkpt>
      <trkpt lat="45.17112" lon="5.66485">
        <ele>681.6</ele>
        <time>2020-02-23T08:34:19.000Z</time>
      </trkpt>
      <trkpt lat="45.17107" lon="5.66486">
        <ele>679</ele>
        <time>2020-02-23T08:34:13.000Z</time>
      </trkpt>
      <trkpt lat="45.17101" lon="5.66485">
        <ele>682.8</ele>
        <time>2020-02-23T08:34:23.000Z</time>
      </trkpt>
      <trkpt lat="45.17097" lon="5.66485">
        <ele>683.2</ele>
        <time>2020-02-23T08:34:33.000Z</time>
      </trkpt>
      <trkpt lat="45.17094" lon="5.66486">
        <ele>683.3</ele>
        <time>2020-02-23T08:34:43.000Z</time>
      </trkpt>
      <trkpt lat="45.1709" lon="5.66487">
        <ele>683.5</ele>
        <time>2020-02-23T08:34:53.000Z</time>
      </trkpt>
      <trkpt lat="45.17087" lon="5.66486">
        <ele>686</ele>
        <time>2020-02-23T08:34:32.000Z</time>
      </trkpt>
      <trkpt lat="45.17081" lon="5.66487">
        <ele>694.6</ele>
        <time>2020-02-23T08:34:42.000Z</time>
      </trkpt>
      <trkpt lat="45.17075" lon="5.66487">
        <ele>696.1</ele>
        <time>2020-02-23T08:34:52.000Z</time>
      </trkpt>
      <trkpt lat="45.17062" lon="5.66489">
        <ele>690</ele>
        <time>2020-02-23T08:34:53.000Z</time>
      </trkpt>
      <trkpt lat="45.17062" lon="5.66474">
        <ele>703.9</ele>
        <time>2020-02-23T08:35:03.000Z</time>
      </trkpt>
      <trkpt lat="45.17067" lon="5.66462">
        <ele>690</ele>
        <time>2020-02-23T08:35:03.000Z</time>
      </trkpt>
      <trkpt lat="45.17074" lon="5.66453">
        <ele>705.8</ele>
        <time>2020-02-23T08:35:13.000Z</time>
      </trkpt>
      <trkpt lat="45.17081" lon="5.66443">
        <ele>691</ele>
        <time>2020-02-23T08:35:11.000Z</time>
      </trkpt>
      <trkpt lat="45.17096" lon="5.66426">
        <ele>693.5</ele>
        <time>2020-02-23T08:35:21.000Z</time>
      </trkpt>
      <trkpt lat="45.17102" lon="5.66416">
        <ele>693</ele>
        <time>2020-02-23T08:35:24.000Z</time>
      </trkpt>
      <trkpt lat="45.17106" lon="5.66403">
        <ele>704.4</ele>
        <time>2020-02-23T08:35:34.000Z</time>
      </trkpt>
      <trkpt lat="45.1711" lon="5.6639">
        <ele>699</ele>
        <time>2020-02-23T08:35:35.000Z</time>
      </trkpt>
      <trkpt lat="45.17123" lon="5.66355">
        <ele>709</ele>
        <time>2020-02-23T08:35:52.000Z</time>
      </trkpt>
      <trkpt lat="45.1713" lon="5.66346">
        <ele>709.6</ele>
        <time>2020-02-23T08:36:02.000Z</time>
      </trkpt>
      <trkpt lat="45.1714" lon="5.66341">
        <ele>715</ele>
        <time>2020-02-23T08:36:05.000Z</time>
      </trkpt>
      <trkpt lat="45.1715" lon="5.66335">
        <ele>708.9</ele>
        <time>2020-02-23T08:36:15.000Z</time>
      </trkpt>
      <trkpt lat="45.17159" lon="5.6633">
        <ele>715</ele>
        <time>2020-02-23T08:36:16.000Z</time>
      </trkpt>
      <trkpt lat="45.17167" lon="5.66323">
        <ele>711.7</ele>
        <time>2020-02-23T08:36:26.000Z</time>
      </trkpt>
      <trkpt lat="45.17182" lon="5.66315">
        <ele>721</ele>
        <time>2020-02-23T08:36:33.000Z</time>
      </trkpt>
      <trkpt lat="45.17186" lon="5.66314">
        <ele>713</ele>
        <time>2020-02-23T08:36:43.000Z</time>
      </trkpt>
      <trkpt lat="45.1719" lon="5.66314">
        <ele>712.8</ele>
        <time>2020-02-23T08:36:53.000Z</time>
      </trkpt>
      <trkpt lat="45.172" lon="5.66311">
        <ele>712.6</ele>
        <time>2020-02-23T08:37:03.000Z</time>
      </trkpt>
      <trkpt lat="45.17206" lon="5.66311">
        <ele>722</ele>
        <time>2020-02-23T08:36:49.000Z</time>
      </trkpt>
      <trkpt lat="45.1721" lon="5.66309">
        <ele>711.8</ele>
        <time>2020-02-23T08:36:59.000Z</time>
      </trkpt>
      <trkpt lat="45.1722" lon="5.66307">
        <ele>710.9</ele>
        <time>2020-02-23T08:37:09.000Z</time>
      </trkpt>
      <trkpt lat="45.17221" lon="5.66305">
        <ele>711.1</ele>
        <time>2020-02-23T08:37:19.000Z</time>
      </trkpt>
      <trkpt lat="45.17227" lon="5.66292">
        <ele>725</ele>
        <time>2020-02-23T08:37:13.000Z</time>
      </trkpt>
      <trkpt lat="45.17228" lon="5.66287">
        <ele>713.1</ele>
        <time>2020-02-23T08:37:23.000Z</time>
      </trkpt>
      <trkpt lat="45.17226" lon="5.66263">
        <ele>730</ele>
        <time>2020-02-23T08:37:34.000Z</time>
      </trkpt>
      <trkpt lat="45.17223" lon="5.66251">
        <ele>716.6</ele>
        <time>2020-02-23T08:37:44.000Z</time>
      </trkpt>
      <trkpt lat="45.17221" lon="5.66247">
        <ele>725.3</ele>
        <time>2020-02-23T08:37:54.000Z</time>
      </trkpt>
      <trkpt lat="45.1722" lon="5.6624">
        <ele>725.8</ele>
        <time>2020-02-23T08:38:04.000Z</time>
      </trkpt>
      <trkpt lat="45.17217" lon="5.66228">
        <ele>731</ele>
        <time>2020-02-23T08:37:58.000Z</time>
      </trkpt>
      <trkpt lat="45.17214" lon="5.66202">
        <ele>728.5</ele>
        <time>2020-02-23T08:38:08.000Z</time>
      </trkpt>
      <trkpt lat="45.17211" lon="5.66193">
        <ele>733</ele>
        <time>2020-02-23T08:38:17.000Z</time>
      </trkpt>
      <trkpt lat="45.1721" lon="5.66184">
        <ele>729.6</ele>
        <time>2020-02-23T08:38:27.000Z</time>
      </trkpt>
      <trkpt lat="45.17197" lon="5.66141">
        <ele>745</ele>
        <time>2020-02-23T08:38:45.000Z</time>
      </trkpt>
      <trkpt lat="45.17195" lon="5.66128">
        <ele>736.8</ele>
        <time>2020-02-23T08:38:55.000Z</time>
      </trkpt>
      <trkpt lat="45.17195" lon="5.661">
        <ele>752</ele>
        <time>2020-02-23T08:39:06.000Z</time>
      </trkpt>
      <trkpt lat="45.17193" lon="5.66086">
        <ele>739.6</ele>
        <time>2020-02-23T08:39:16.000Z</time>
      </trkpt>
      <trkpt lat="45.1719" lon="5.66074">
        <ele>743.3</ele>
        <time>2020-02-23T08:39:26.000Z</time>
      </trkpt>
      <trkpt lat="45.17188" lon="5.6606">
        <ele>756</ele>
        <time>2020-02-23T08:39:36.000Z</time>
      </trkpt>
      <trkpt lat="45.17186" lon="5.66027">
        <ele>761</ele>
        <time>2020-02-23T08:39:58.000Z</time>
      </trkpt>
      <trkpt lat="45.17182" lon="5.66006">
        <ele>750.1</ele>
        <time>2020-02-23T08:40:08.000Z</time>
      </trkpt>
      <trkpt lat="45.1718" lon="5.66001">
        <ele>767</ele>
        <time>2020-02-23T08:40:15.000Z</time>
      </trkpt>
      <trkpt lat="45.17175" lon="5.65995">
        <ele>755.6</ele>
        <time>2020-02-23T08:40:25.000Z</time>
      </trkpt>
      <trkpt lat="45.17169" lon="5.65981">
        <ele>753.8</ele>
        <time>2020-02-23T08:40:35.000Z</time>
      </trkpt>
      <trkpt lat="45.17163" lon="5.65975">
        <ele>769</ele>
        <time>2020-02-23T08:40:37.000Z</time>
      </trkpt>
      <trkpt lat="45.1716" lon="5.6597">
        <ele>766.1</ele>
        <time>2020-02-23T08:40:47.000Z</time>
      </trkpt>
      <trkpt lat="45.17155" lon="5.65957">
        <ele>767.7</ele>
        <time>2020-02-23T08:40:57.000Z</time>
      </trkpt>
      <trkpt lat="45.17148" lon="5.65944">
        <ele>783</ele>
        <time>2020-02-23T08:40:59.000Z</time>
      </trkpt>
      <trkpt lat="45.17147" lon="5.65931">
        <ele>769.8</ele>
        <time>2020-02-23T08:41:09.000Z</time>
      </trkpt>
      <trkpt lat="45.17143" lon="5.65921">
        <ele>770.2</ele>
        <time>2020-02-23T08:41:19.000Z</time>
      </trkpt>
      <trkpt lat="45.17141" lon="5.65919">
        <ele>785</ele>
        <time>2020-02-23T08:41:19.000Z</time>
      </trkpt>
      <trkpt lat="45.17139" lon="5.65916">
        <ele>776.4</ele>
        <time>2020-02-23T08:41:29.000Z</time>
      </trkpt>
      <trkpt lat="45.17135" lon="5.65912">
        <ele>776.8</ele>
        <time>2020-02-23T08:41:39.000Z</time>
      </trkpt>
      <trkpt lat="45.17133" lon="5.65909">
        <ele>777</ele>
        <time>2020-02-23T08:41:49.000Z</time>
      </trkpt>
      <trkpt lat="45.17127" lon="5.65896">
        <ele>788</ele>
        <time>2020-02-23T08:41:35.000Z</time>
      </trkpt>
      <trkpt lat="45.17126" lon="5.6589">
        <ele>778.2</ele>
        <time>2020-02-23T08:41:45.000Z</time>
      </trkpt>
      <trkpt lat="45.17119" lon="5.65883">
        <ele>778.8</ele>
        <time>2020-02-23T08:41:55.000Z</time>
      </trkpt>
      <trkpt lat="45.17118" lon="5.6588">
        <ele>779</ele>
        <time>2020-02-23T08:42:05.000Z</time>
      </trkpt>
      <trkpt lat="45.1712" lon="5.65862">
        <ele>795</ele>
        <time>2020-02-23T08:42:00.000Z</time>
      </trkpt>
      <trkpt lat="45.17124" lon="5.6585">
        <ele>780.3</ele>
        <time>2020-02-23T08:42:10.000Z</time>
      </trkpt>
      <trkpt lat="45.1712" lon="5.65836">
        <ele>800</ele>
        <time>2020-02-23T08:42:18.000Z</time>
      </trkpt>
      <trkpt lat="45.17119" lon="5.65823">
        <ele>785.5</ele>
        <time>2020-02-23T08:42:28.000Z</time>
      </trkpt>
      <trkpt lat="45.17116" lon="5.65814">
        <ele>785.8</ele>
        <time>2020-02-23T08:42:38.000Z</time>
      </trkpt>
      <trkpt lat="45.17111" lon="5.65806">
        <ele>800</ele>
        <time>2020-02-23T08:42:40.000Z</time>
      </trkpt>
      <trkpt lat="45.17108" lon="5.65801">
        <ele>786.6</ele>
        <time>2020-02-23T08:42:50.000Z</time>
      </trkpt>
      <trkpt lat="45.17103" lon="5.65798">
        <ele>786.9</ele>
        <time>2020-02-23T08:43:00.000Z</time>
      </trkpt>
      <trkpt lat="45.17102" lon="5.65795">
        <ele>787.1</ele>
        <time>2020-02-23T08:43:10.000Z</time>
      </trkpt>
      <trkpt lat="45.17095" lon="5.65778">
        <ele>800</ele>
        <time>2020-02-23T08:43:00.000Z</time>
      </trkpt>
      <trkpt lat="45.17088" lon="5.65767">
        <ele>790.4</ele>
        <time>2020-02-23T08:43:10.000Z</time>
      </trkpt>
      <trkpt lat="45.17085" lon="5.65761">
        <ele>791.7</ele>
        <time>2020-02-23T08:43:20.000Z</time>
      </trkpt>
      <trkpt lat="45.1708" lon="5.65752">
        <ele>801</ele>
        <time>2020-02-23T08:43:18.000Z</time>
      </trkpt>
      <trkpt lat="45.17076" lon="5.65742">
        <ele>798.6</ele>
        <time>2020-02-23T08:43:28.000Z</time>
      </trkpt>
      <trkpt lat="45.17073" lon="5.6572">
        <ele>802</ele>
        <time>2020-02-23T08:43:34.000Z</time>
      </trkpt>
      <trkpt lat="45.17072" lon="5.65706">
        <ele>803.8</ele>
        <time>2020-02-23T08:43:44.000Z</time>
      </trkpt>
      <trkpt lat="45.17069" lon="5.65684">
        <ele>813</ele>
        <time>2020-02-23T08:43:51.000Z</time>
      </trkpt>
      <trkpt lat="45.1707" lon="5.65673">
        <ele>804.9</ele>
        <time>2020-02-23T08:44:01.000Z</time>
      </trkpt>
      <trkpt lat="45.17069" lon="5.65656">
        <ele>817</ele>
        <time>2020-02-23T08:44:06.000Z</time>
      </trkpt>
      <trkpt lat="45.17064" lon="5.65634">
        <ele>813.7</ele>
        <time>2020-02-23T08:44:16.000Z</time>
      </trkpt>
      <trkpt lat="45.1706" lon="5.65619">
        <ele>818</ele>
        <time>2020-02-23T08:44:26.000Z</time>
      </trkpt>
      <trkpt lat="45.17055" lon="5.6559">
        <ele>820</ele>
        <time>2020-02-23T08:44:43.000Z</time>
      </trkpt>
      <trkpt lat="45.17056" lon="5.65576">
        <ele>822.4</ele>
        <time>2020-02-23T08:44:53.000Z</time>
      </trkpt>
      <trkpt lat="45.17051" lon="5.6555">
        <ele>828</ele>
        <time>2020-02-23T08:45:04.000Z</time>
      </trkpt>
      <trkpt lat="45.17052" lon="5.65524">
        <ele>826.1</ele>
        <time>2020-02-23T08:45:14.000Z</time>
      </trkpt>
      <trkpt lat="45.17054" lon="5.65511">
        <ele>828</ele>
        <time>2020-02-23T08:45:22.000Z</time>
      </trkpt>
      <trkpt lat="45.17053" lon="5.65498">
        <ele>832</ele>
        <time>2020-02-23T08:45:32.000Z</time>
      </trkpt>
      <trkpt lat="45.17051" lon="5.65485">
        <ele>833.1</ele>
        <time>2020-02-23T08:45:42.000Z</time>
      </trkpt>
      <trkpt lat="45.17048" lon="5.65479">
        <ele>841</ele>
        <time>2020-02-23T08:45:39.000Z</time>
      </trkpt>
      <trkpt lat="45.17046" lon="5.65473">
        <ele>834.7</ele>
        <time>2020-02-23T08:45:49.000Z</time>
      </trkpt>
      <trkpt lat="45.17045" lon="5.6547">
        <ele>835</ele>
        <time>2020-02-23T08:45:59.000Z</time>
      </trkpt>
      <trkpt lat="45.1704" lon="5.6546">
        <ele>836.4</ele>
        <time>2020-02-23T08:46:09.000Z</time>
      </trkpt>
      <trkpt lat="45.17036" lon="5.65443">
        <ele>843</ele>
        <time>2020-02-23T08:45:57.000Z</time>
      </trkpt>
      <trkpt lat="45.1703" lon="5.65415">
        <ele>842</ele>
        <time>2020-02-23T08:46:06.000Z</time>
      </trkpt>
      <trkpt lat="45.17021" lon="5.65389">
        <ele>846</ele>
        <time>2020-02-23T08:46:14.000Z</time>
      </trkpt>
      <trkpt lat="45.17015" lon="5.65377">
        <ele>845.3</ele>
        <time>2020-02-23T08:46:24.000Z</time>
      </trkpt>
      <trkpt lat="45.17006" lon="5.6535">
        <ele>851</ele>
        <time>2020-02-23T08:46:28.000Z</time>
      </trkpt>
      <trkpt lat="45.17002" lon="5.65339">
        <ele>852.8</ele>
        <time>2020-02-23T08:46:38.000Z</time>
      </trkpt>
      <trkpt lat="45.16993" lon="5.653">
        <ele>858</ele>
        <time>2020-02-23T08:46:44.000Z</time>
      </trkpt>
      <trkpt lat="45.16994" lon="5.65286">
        <ele>866.4</ele>
        <time>2020-02-23T08:46:54.000Z</time>
      </trkpt>
      <trkpt lat="45.16997" lon="5.65269">
        <ele>859</ele>
        <time>2020-02-23T08:46:54.000Z</time>
      </trkpt>
      <trkpt lat="45.17002" lon="5.65243">
        <ele>859</ele>
        <time>2020-02-23T08:47:02.000Z</time>
      </trkpt>
      <trkpt lat="45.17" lon="5.6523">
        <ele>853.4</ele>
        <time>2020-02-23T08:47:12.000Z</time>
      </trkpt>
      <trkpt lat="45.1698" lon="5.65227">
        <ele>869</ele>
        <time>2020-02-23T08:47:22.000Z</time>
      </trkpt>
      <trkpt lat="45.16976" lon="5.65222">
        <ele>869.7</ele>
        <time>2020-02-23T08:47:32.000Z</time>
      </trkpt>
      <trkpt lat="45.16971" lon="5.65214">
        <ele>871</ele>
        <time>2020-02-23T08:47:42.000Z</time>
      </trkpt>
      <trkpt lat="45.16971" lon="5.65202">
        <ele>870</ele>
        <time>2020-02-23T08:47:32.000Z</time>
      </trkpt>
      <trkpt lat="45.16977" lon="5.6519">
        <ele>870</ele>
        <time>2020-02-23T08:47:42.000Z</time>
      </trkpt>
      <trkpt lat="45.16986" lon="5.65181">
        <ele>869</ele>
        <time>2020-02-23T08:47:42.000Z</time>
      </trkpt>
      <trkpt lat="45.16992" lon="5.65175">
        <ele>865.9</ele>
        <time>2020-02-23T08:47:52.000Z</time>
      </trkpt>
      <trkpt lat="45.17" lon="5.65162">
        <ele>870</ele>
        <time>2020-02-23T08:47:51.000Z</time>
      </trkpt>
      <trkpt lat="45.17002" lon="5.65147">
        <ele>858.6</ele>
        <time>2020-02-23T08:48:01.000Z</time>
      </trkpt>
      <trkpt lat="45.17" lon="5.65133">
        <ele>872</ele>
        <time>2020-02-23T08:48:03.000Z</time>
      </trkpt>
      <trkpt lat="45.16998" lon="5.65123">
        <ele>870.4</ele>
        <time>2020-02-23T08:48:13.000Z</time>
      </trkpt>
      <trkpt lat="45.16996" lon="5.65117">
        <ele>870.5</ele>
        <time>2020-02-23T08:48:23.000Z</time>
      </trkpt>
      <trkpt lat="45.16988" lon="5.65103">
        <ele>879</ele>
        <time>2020-02-23T08:48:16.000Z</time>
      </trkpt>
      <trkpt lat="45.16987" lon="5.65092">
        <ele>869.5</ele>
        <time>2020-02-23T08:48:26.000Z</time>
      </trkpt>
      <trkpt lat="45.16987" lon="5.65078">
        <ele>871.5</ele>
        <time>2020-02-23T08:48:36.000Z</time>
      </trkpt>
      <trkpt lat="45.16987" lon="5.65065">
        <ele>881</ele>
        <time>2020-02-23T08:48:28.000Z</time>
      </trkpt>
      <trkpt lat="45.16988" lon="5.65051">
        <ele>875.7</ele>
        <time>2020-02-23T08:48:38.000Z</time>
      </trkpt>
      <trkpt lat="45.16986" lon="5.65038">
        <ele>881</ele>
        <time>2020-02-23T08:48:39.000Z</time>
      </trkpt>
      <trkpt lat="45.16982" lon="5.65026">
        <ele>877.6</ele>
        <time>2020-02-23T08:48:49.000Z</time>
      </trkpt>
      <trkpt lat="45.16981" lon="5.65013">
        <ele>877.5</ele>
        <time>2020-02-23T08:48:59.000Z</time>
      </trkpt>
      <trkpt lat="45.16969" lon="5.64993">
        <ele>883</ele>
        <time>2020-02-23T08:49:07.000Z</time>
      </trkpt>
      <trkpt lat="45.16964" lon="5.6498">
        <ele>890.1</ele>
        <time>2020-02-23T08:49:17.000Z</time>
      </trkpt>
      <trkpt lat="45.16962" lon="5.64966">
        <ele>885</ele>
        <time>2020-02-23T08:49:23.000Z</time>
      </trkpt>
      <trkpt lat="45.16965" lon="5.64952">
        <ele>893.2</ele>
        <time>2020-02-23T08:49:33.000Z</time>
      </trkpt>
      <trkpt lat="45.16969" lon="5.6494">
        <ele>890</ele>
        <time>2020-02-23T08:49:42.000Z</time>
      </trkpt>
      <trkpt lat="45.16975" lon="5.6493">
        <ele>894.4</ele>
        <time>2020-02-23T08:49:52.000Z</time>
      </trkpt>
      <trkpt lat="45.16981" lon="5.64926">
        <ele>894.3</ele>
        <time>2020-02-23T08:50:02.000Z</time>
      </trkpt>
      <trkpt lat="45.16982" lon="5.64924">
        <ele>894.4</ele>
        <time>2020-02-23T08:50:12.000Z</time>
      </trkpt>
      <trkpt lat="45.1699" lon="5.64916">
        <ele>892</ele>
        <time>2020-02-23T08:50:03.000Z</time>
      </trkpt>
      <trkpt lat="45.16997" lon="5.64906">
        <ele>901.4</ele>
        <time>2020-02-23T08:50:13.000Z</time>
      </trkpt>
      <trkpt lat="45.17004" lon="5.64902">
        <ele>900.5</ele>
        <time>2020-02-23T08:50:23.000Z</time>
      </trkpt>
      <trkpt lat="45.17014" lon="5.64892">
        <ele>907</ele>
        <time>2020-02-23T08:50:25.000Z</time>
      </trkpt>
      <trkpt lat="45.17021" lon="5.64882">
        <ele>905.6</ele>
        <time>2020-02-23T08:50:35.000Z</time>
      </trkpt>
      <trkpt lat="45.1703" lon="5.64875">
        <ele>913</ele>
        <time>2020-02-23T08:50:41.000Z</time>
      </trkpt>
      <trkpt lat="45.17049" lon="5.64867">
        <ele>913</ele>
        <time>2020-02-23T08:50:56.000Z</time>
      </trkpt>
      <trkpt lat="45.17059" lon="5.64866">
        <ele>908.4</ele>
        <time>2020-02-23T08:51:06.000Z</time>
      </trkpt>
      <trkpt lat="45.17069" lon="5.64866">
        <ele>916</ele>
        <time>2020-02-23T08:51:10.000Z</time>
      </trkpt>
      <trkpt lat="45.17078" lon="5.64861">
        <ele>910.2</ele>
        <time>2020-02-23T08:51:20.000Z</time>
      </trkpt>
      <trkpt lat="45.17079" lon="5.6486">
        <ele>910.5</ele>
        <time>2020-02-23T08:51:30.000Z</time>
      </trkpt>
      <trkpt lat="45.17084" lon="5.64852">
        <ele>909</ele>
        <time>2020-02-23T08:51:40.000Z</time>
      </trkpt>
      <trkpt lat="45.17089" lon="5.6484">
        <ele>925</ele>
        <time>2020-02-23T08:51:34.000Z</time>
      </trkpt>
      <trkpt lat="45.17089" lon="5.64827">
        <ele>921.8</ele>
        <time>2020-02-23T08:51:44.000Z</time>
      </trkpt>
      <trkpt lat="45.17093" lon="5.64814">
        <ele>923.1</ele>
        <time>2020-02-23T08:51:54.000Z</time>
      </trkpt>
      <trkpt lat="45.17095" lon="5.64802">
        <ele>933</ele>
        <time>2020-02-23T08:51:56.000Z</time>
      </trkpt>
      <trkpt lat="45.17096" lon="5.64788">
        <ele>927</ele>
        <time>2020-02-23T08:52:06.000Z</time>
      </trkpt>
      <trkpt lat="45.17099" lon="5.64776">
        <ele>929.3</ele>
        <time>2020-02-23T08:52:16.000Z</time>
      </trkpt>
      <trkpt lat="45.17105" lon="5.64766">
        <ele>942</ele>
        <time>2020-02-23T08:52:18.000Z</time>
      </trkpt>
      <trkpt lat="45.17112" lon="5.6474">
        <ele>942</ele>
        <time>2020-02-23T08:52:35.000Z</time>
      </trkpt>
      <trkpt lat="45.1712" lon="5.64733">
        <ele>944.2</ele>
        <time>2020-02-23T08:52:45.000Z</time>
      </trkpt>
      <trkpt lat="45.17128" lon="5.64724">
        <ele>942</ele>
        <time>2020-02-23T08:52:47.000Z</time>
      </trkpt>
      <trkpt lat="45.17138" lon="5.64719">
        <ele>944.2</ele>
        <time>2020-02-23T08:52:57.000Z</time>
      </trkpt>
      <trkpt lat="45.17148" lon="5.64717">
        <ele>942</ele>
        <time>2020-02-23T08:52:56.000Z</time>
      </trkpt>
      <trkpt lat="45.17167" lon="5.64717">
        <ele>940.9</ele>
        <time>2020-02-23T08:53:06.000Z</time>
      </trkpt>
      <trkpt lat="45.17181" lon="5.64719">
        <ele>942</ele>
        <time>2020-02-23T08:53:12.000Z</time>
      </trkpt>
      <trkpt lat="45.17194" lon="5.64716">
        <ele>942.2</ele>
        <time>2020-02-23T08:53:22.000Z</time>
      </trkpt>
      <trkpt lat="45.17199" lon="5.6471">
        <ele>945</ele>
        <time>2020-02-23T08:53:26.000Z</time>
      </trkpt>
      <trkpt lat="45.17197" lon="5.64707">
        <ele>943.9</ele>
        <time>2020-02-23T08:53:36.000Z</time>
      </trkpt>
      <trkpt lat="45.17187" lon="5.64706">
        <ele>943.9</ele>
        <time>2020-02-23T08:53:46.000Z</time>
      </trkpt>
      <trkpt lat="45.17176" lon="5.647">
        <ele>949</ele>
        <time>2020-02-23T08:53:43.000Z</time>
      </trkpt>
      <trkpt lat="45.17166" lon="5.6469">
        <ele>948.9</ele>
        <time>2020-02-23T08:53:53.000Z</time>
      </trkpt>
      <trkpt lat="45.17149" lon="5.64678">
        <ele>954</ele>
        <time>2020-02-23T08:54:04.000Z</time>
      </trkpt>
      <trkpt lat="45.17134" lon="5.64662">
        <ele>964.2</ele>
        <time>2020-02-23T08:54:14.000Z</time>
      </trkpt>
      <trkpt lat="45.17125" lon="5.64659">
        <ele>966</ele>
        <time>2020-02-23T08:54:19.000Z</time>
      </trkpt>
      <trkpt lat="45.17117" lon="5.64652">
        <ele>965.8</ele>
        <time>2020-02-23T08:54:29.000Z</time>
      </trkpt>
      <trkpt lat="45.17107" lon="5.64651">
        <ele>966</ele>
        <time>2020-02-23T08:54:30.000Z</time>
      </trkpt>
      <trkpt lat="45.17098" lon="5.64655">
        <ele>964.8</ele>
        <time>2020-02-23T08:54:40.000Z</time>
      </trkpt>
      <trkpt lat="45.17093" lon="5.64666">
        <ele>963.2</ele>
        <time>2020-02-23T08:54:50.000Z</time>
      </trkpt>
      <trkpt lat="45.17091" lon="5.64679">
        <ele>963</ele>
        <time>2020-02-23T08:54:46.000Z</time>
      </trkpt>
      <trkpt lat="45.17087" lon="5.64691">
        <ele>952.1</ele>
        <time>2020-02-23T08:54:56.000Z</time>
      </trkpt>
      <trkpt lat="45.1708" lon="5.64703">
        <ele>957</ele>
        <time>2020-02-23T08:54:57.000Z</time>
      </trkpt>
      <trkpt lat="45.17075" lon="5.64714">
        <ele>950.9</ele>
        <time>2020-02-23T08:55:07.000Z</time>
      </trkpt>
      <trkpt lat="45.17064" lon="5.64721">
        <ele>963</ele>
        <time>2020-02-23T08:55:06.000Z</time>
      </trkpt>
      <trkpt lat="45.17059" lon="5.6472">
        <ele>950.3</ele>
        <time>2020-02-23T08:55:16.000Z</time>
      </trkpt>
      <trkpt lat="45.17056" lon="5.64716">
        <ele>950.9</ele>
        <time>2020-02-23T08:55:26.000Z</time>
      </trkpt>
      <trkpt lat="45.17054" lon="5.64708">
        <ele>951.8</ele>
        <time>2020-02-23T08:55:36.000Z</time>
      </trkpt>
      <trkpt lat="45.17062" lon="5.64682">
        <ele>969</ele>
        <time>2020-02-23T08:55:24.000Z</time>
      </trkpt>
      <trkpt lat="45.1706" lon="5.64668">
        <ele>956.1</ele>
        <time>2020-02-23T08:55:34.000Z</time>
      </trkpt>
      <trkpt lat="45.17051" lon="5.64672">
        <ele>969</ele>
        <time>2020-02-23T08:55:36.000Z</time>
      </trkpt>
      <trkpt lat="45.17041" lon="5.64678">
        <ele>954.7</ele>
        <time>2020-02-23T08:55:46.000Z</time>
      </trkpt>
      <trkpt lat="45.17033" lon="5.64678">
        <ele>954.8</ele>
        <time>2020-02-23T08:55:56.000Z</time>
      </trkpt>
      <trkpt lat="45.17031" lon="5.64676">
        <ele>970</ele>
        <time>2020-02-23T08:55:49.000Z</time>
      </trkpt>
      <trkpt lat="45.17024" lon="5.64663">
        <ele>966.3</ele>
        <time>2020-02-23T08:55:59.000Z</time>
      </trkpt>
      <trkpt lat="45.17018" lon="5.64637">
        <ele>973</ele>
        <time>2020-02-23T08:56:13.000Z</time>
      </trkpt>
      <trkpt lat="45.17013" lon="5.64626">
        <ele>970.5</ele>
        <time>2020-02-23T08:56:23.000Z</time>
      </trkpt>
      <trkpt lat="45.17008" lon="5.64617">
        <ele>972.1</ele>
        <time>2020-02-23T08:56:33.000Z</time>
      </trkpt>
      <trkpt lat="45.16998" lon="5.64612">
        <ele>980</ele>
        <time>2020-02-23T08:56:34.000Z</time>
      </trkpt>
      <trkpt lat="45.16996" lon="5.64605">
        <ele>973.4</ele>
        <time>2020-02-23T08:56:44.000Z</time>
      </trkpt>
      <trkpt lat="45.16996" lon="5.64596">
        <ele>975.8</ele>
        <time>2020-02-23T08:56:54.000Z</time>
      </trkpt>
      <trkpt lat="45.16996" lon="5.64581">
        <ele>981</ele>
        <time>2020-02-23T08:56:51.000Z</time>
      </trkpt>
      <trkpt lat="45.1699" lon="5.64571">
        <ele>984.1</ele>
        <time>2020-02-23T08:57:01.000Z</time>
      </trkpt>
      <trkpt lat="45.16981" lon="5.64556">
        <ele>983</ele>
        <time>2020-02-23T08:57:06.000Z</time>
      </trkpt>
      <trkpt lat="45.16973" lon="5.64536">
        <ele>988.6</ele>
        <time>2020-02-23T08:57:16.000Z</time>
      </trkpt>
      <trkpt lat="45.16965" lon="5.64524">
        <ele>988</ele>
        <time>2020-02-23T08:57:21.000Z</time>
      </trkpt>
      <trkpt lat="45.16962" lon="5.64519">
        <ele>989.9</ele>
        <time>2020-02-23T08:57:31.000Z</time>
      </trkpt>
      <trkpt lat="45.16957" lon="5.64512">
        <ele>990.3</ele>
        <time>2020-02-23T08:57:41.000Z</time>
      </trkpt>
      <trkpt lat="45.1695" lon="5.64504">
        <ele>991</ele>
        <time>2020-02-23T08:57:30.000Z</time>
      </trkpt>
      <trkpt lat="45.16939" lon="5.64496">
        <ele>1000.5</ele>
        <time>2020-02-23T08:57:40.000Z</time>
      </trkpt>
      <trkpt lat="45.1693" lon="5.64487">
        <ele>992</ele>
        <time>2020-02-23T08:57:42.000Z</time>
      </trkpt>
      <trkpt lat="45.1692" lon="5.64482">
        <ele>1000.2</ele>
        <time>2020-02-23T08:57:52.000Z</time>
      </trkpt>
      <trkpt lat="45.16912" lon="5.64475">
        <ele>992</ele>
        <time>2020-02-23T08:57:52.000Z</time>
      </trkpt>
      <trkpt lat="45.16902" lon="5.64472">
        <ele>1003.5</ele>
        <time>2020-02-23T08:58:02.000Z</time>
      </trkpt>
      <trkpt lat="45.16892" lon="5.64474">
        <ele>993</ele>
        <time>2020-02-23T08:58:02.000Z</time>
      </trkpt>
      <trkpt lat="45.16867" lon="5.64494">
        <ele>995</ele>
        <time>2020-02-23T08:58:16.000Z</time>
      </trkpt>
      <trkpt lat="45.16848" lon="5.64497">
        <ele>1000</ele>
        <time>2020-02-23T08:58:25.000Z</time>
      </trkpt>
      <trkpt lat="45.16839" lon="5.64494">
        <ele>1002.6</ele>
        <time>2020-02-23T08:58:35.000Z</time>
      </trkpt>
      <trkpt lat="45.16832" lon="5.64485">
        <ele>1007.9</ele>
        <time>2020-02-23T08:58:45.000Z</time>
      </trkpt>
      <trkpt lat="45.1683" lon="5.64471">
        <ele>1005</ele>
        <time>2020-02-23T08:58:39.000Z</time>
      </trkpt>
      <trkpt lat="45.16833" lon="5.64457">
        <ele>1014.3</ele>
        <time>2020-02-23T08:58:49.000Z</time>
      </trkpt>
      <trkpt lat="45.1684" lon="5.64447">
        <ele>1012</ele>
        <time>2020-02-23T08:58:48.000Z</time>
      </trkpt>
      <trkpt lat="45.16848" lon="5.64438">
        <ele>1011.3</ele>
        <time>2020-02-23T08:58:58.000Z</time>
      </trkpt>
      <trkpt lat="45.16857" lon="5.64434">
        <ele>1014</ele>
        <time>2020-02-23T08:58:58.000Z</time>
      </trkpt>
      <trkpt lat="45.16863" lon="5.64424">
        <ele>1011.1</ele>
        <time>2020-02-23T08:59:08.000Z</time>
      </trkpt>
      <trkpt lat="45.16873" lon="5.64398">
        <ele>1024</ele>
        <time>2020-02-23T08:59:13.000Z</time>
      </trkpt>
      <trkpt lat="45.16881" lon="5.64387">
        <ele>1023.7</ele>
        <time>2020-02-23T08:59:23.000Z</time>
      </trkpt>
      <trkpt lat="45.1689" lon="5.64384">
        <ele>1026</ele>
        <time>2020-02-23T08:59:23.000Z</time>
      </trkpt>
      <trkpt lat="45.169" lon="5.64382">
        <ele>1023.6</ele>
        <time>2020-02-23T08:59:33.000Z</time>
      </trkpt>
      <trkpt lat="45.16909" lon="5.64388">
        <ele>1026</ele>
        <time>2020-02-23T08:59:32.000Z</time>
      </trkpt>
      <trkpt lat="45.16918" lon="5.64396">
        <ele>1019.7</ele>
        <time>2020-02-23T08:59:42.000Z</time>
      </trkpt>
      <trkpt lat="45.16933" lon="5.64415">
        <ele>1021</ele>
        <time>2020-02-23T08:59:45.000Z</time>
      </trkpt>
      <trkpt lat="45.16943" lon="5.64426">
        <ele>1008.5</ele>
        <time>2020-02-23T08:59:55.000Z</time>
      </trkpt>
      <trkpt lat="45.16951" lon="5.64432">
        <ele>1022</ele>
        <time>2020-02-23T08:59:55.000Z</time>
      </trkpt>
      <trkpt lat="45.1696" lon="5.64433">
        <ele>1008.4</ele>
        <time>2020-02-23T09:00:05.000Z</time>
      </trkpt>
      <trkpt lat="45.16967" lon="5.64429">
        <ele>1009.2</ele>
        <time>2020-02-23T09:00:15.000Z</time>
      </trkpt>
      <trkpt lat="45.16976" lon="5.64428">
        <ele>1022</ele>
        <time>2020-02-23T09:00:08.000Z</time>
      </trkpt>
      <trkpt lat="45.16989" lon="5.64423">
        <ele>1013.2</ele>
        <time>2020-02-23T09:00:18.000Z</time>
      </trkpt>
      <trkpt lat="45.16993" lon="5.64421">
        <ele>1014.6</ele>
        <time>2020-02-23T09:00:28.000Z</time>
      </trkpt>
      <trkpt lat="45.16998" lon="5.64417">
        <ele>1023</ele>
        <time>2020-02-23T09:00:17.000Z</time>
      </trkpt>
      <trkpt lat="45.17007" lon="5.64405">
        <ele>1021.3</ele>
        <time>2020-02-23T09:00:27.000Z</time>
      </trkpt>
      <trkpt lat="45.17015" lon="5.64398">
        <ele>1025</ele>
        <time>2020-02-23T09:00:28.000Z</time>
      </trkpt>
      <trkpt lat="45.17021" lon="5.64392">
        <ele>1023.8</ele>
        <time>2020-02-23T09:00:38.000Z</time>
      </trkpt>
      <trkpt lat="45.17025" lon="5.64386">
        <ele>1024.5</ele>
        <time>2020-02-23T09:00:48.000Z</time>
      </trkpt>
      <trkpt lat="45.17029" lon="5.64379">
        <ele>1028</ele>
        <time>2020-02-23T09:00:38.000Z</time>
      </trkpt>
      <trkpt lat="45.17035" lon="5.64371">
        <ele>1026</ele>
        <time>2020-02-23T09:00:48.000Z</time>
      </trkpt>
      <trkpt lat="45.1704" lon="5.64365">
        <ele>1026.4</ele>
        <time>2020-02-23T09:00:58.000Z</time>
      </trkpt>
      <trkpt lat="45.17046" lon="5.64361">
        <ele>1028</ele>
        <time>2020-02-23T09:00:49.000Z</time>
      </trkpt>
      <trkpt lat="45.17048" lon="5.64358">
        <ele>1026.9</ele>
        <time>2020-02-23T09:00:59.000Z</time>
      </trkpt>
      <trkpt lat="45.17047" lon="5.64355">
        <ele>1027.1</ele>
        <time>2020-02-23T09:01:09.000Z</time>
      </trkpt>
      <trkpt lat="45.17046" lon="5.64355">
        <ele>1027.1</ele>
        <time>2020-02-23T09:01:19.000Z</time>
      </trkpt>
      <trkpt lat="45.17043" lon="5.64355">
        <ele>1027.2</ele>
        <time>2020-02-23T09:01:29.000Z</time>
      </trkpt>
      <trkpt lat="45.17041" lon="5.64356">
        <ele>1027.1</ele>
        <time>2020-02-23T09:01:39.000Z</time>
      </trkpt>
      <trkpt lat="45.17033" lon="5.64357">
        <ele>1028</ele>
        <time>2020-02-23T09:01:04.000Z</time>
      </trkpt>
      <trkpt lat="45.17023" lon="5.64359">
        <ele>1027.6</ele>
        <time>2020-02-23T09:01:14.000Z</time>
      </trkpt>
      <trkpt lat="45.17016" lon="5.64358">
        <ele>1028</ele>
        <time>2020-02-23T09:01:24.000Z</time>
      </trkpt>
      <trkpt lat="45.17011" lon="5.64359">
        <ele>1031</ele>
        <time>2020-02-23T09:01:17.000Z</time>
      </trkpt>
      <trkpt lat="45.17002" lon="5.64357">
        <ele>1028.8</ele>
        <time>2020-02-23T09:01:27.000Z</time>
      </trkpt>
      <trkpt lat="45.16998" lon="5.64355">
        <ele>1029</ele>
        <time>2020-02-23T09:01:37.000Z</time>
      </trkpt>
      <trkpt lat="45.16995" lon="5.64351">
        <ele>1029.7</ele>
        <time>2020-02-23T09:01:47.000Z</time>
      </trkpt>
      <trkpt lat="45.16986" lon="5.64343">
        <ele>1035</ele>
        <time>2020-02-23T09:01:32.000Z</time>
      </trkpt>
      <trkpt lat="45.16977" lon="5.64333">
        <ele>1039</ele>
        <time>2020-02-23T09:01:42.000Z</time>
      </trkpt>
      <trkpt lat="45.16971" lon="5.64323">
        <ele>1035</ele>
        <time>2020-02-23T09:01:43.000Z</time>
      </trkpt>
      <trkpt lat="45.16968" lon="5.64321">
        <ele>1040.1</ele>
        <time>2020-02-23T09:01:53.000Z</time>
      </trkpt>
      <trkpt lat="45.16963" lon="5.64315">
        <ele>1040.7</ele>
        <time>2020-02-23T09:02:03.000Z</time>
      </trkpt>
      <trkpt lat="45.16952" lon="5.64296">
        <ele>1048</ele>
        <time>2020-02-23T09:01:56.000Z</time>
      </trkpt>
      <trkpt lat="45.16945" lon="5.64289">
        <ele>1043.3</ele>
        <time>2020-02-23T09:02:06.000Z</time>
      </trkpt>
      <trkpt lat="45.16938" lon="5.64285">
        <ele>1044</ele>
        <time>2020-02-23T09:02:16.000Z</time>
      </trkpt>
      <trkpt lat="45.16931" lon="5.64283">
        <ele>1049</ele>
        <time>2020-02-23T09:02:08.000Z</time>
      </trkpt>
      <trkpt lat="45.16925" lon="5.64283">
        <ele>1044.8</ele>
        <time>2020-02-23T09:02:18.000Z</time>
      </trkpt>
      <trkpt lat="45.16919" lon="5.6428">
        <ele>1045.4</ele>
        <time>2020-02-23T09:02:28.000Z</time>
      </trkpt>
      <trkpt lat="45.16915" lon="5.64273">
        <ele>1047.1</ele>
        <time>2020-02-23T09:02:38.000Z</time>
      </trkpt>
      <trkpt lat="45.16914" lon="5.6427">
        <ele>1049</ele>
        <time>2020-02-23T09:02:21.000Z</time>
      </trkpt>
      <trkpt lat="45.16913" lon="5.64267">
        <ele>1048.4</ele>
        <time>2020-02-23T09:02:31.000Z</time>
      </trkpt>
      <trkpt lat="45.16912" lon="5.64256">
        <ele>1051.1</ele>
        <time>2020-02-23T09:02:41.000Z</time>
      </trkpt>
      <trkpt lat="45.16908" lon="5.64242">
        <ele>1049</ele>
        <time>2020-02-23T09:02:38.000Z</time>
      </trkpt>
      <trkpt lat="45.16908" lon="5.64239">
        <ele>1056.9</ele>
        <time>2020-02-23T09:02:48.000Z</time>
      </trkpt>
      <trkpt lat="45.16908" lon="5.64232">
        <ele>1057.9</ele>
        <time>2020-02-23T09:02:58.000Z</time>
      </trkpt>
      <trkpt lat="45.16905" lon="5.64216">
        <ele>1060.2</ele>
        <time>2020-02-23T09:03:08.000Z</time>
      </trkpt>
      <trkpt lat="45.16902" lon="5.64196">
        <ele>1063</ele>
        <time>2020-02-23T09:03:00.000Z</time>
      </trkpt>
      <trkpt lat="45.16904" lon="5.64193">
        <ele>1063.6</ele>
        <time>2020-02-23T09:03:10.000Z</time>
      </trkpt>
      <trkpt lat="45.16906" lon="5.64186">
        <ele>1064.8</ele>
        <time>2020-02-23T09:03:20.000Z</time>
      </trkpt>
      <trkpt lat="45.16909" lon="5.64182">
        <ele>1065.8</ele>
        <time>2020-02-23T09:03:30.000Z</time>
      </trkpt>
      <trkpt lat="45.16912" lon="5.64169">
        <ele>1067</ele>
        <time>2020-02-23T09:03:19.000Z</time>
      </trkpt>
      <trkpt lat="45.16913" lon="5.64167">
        <ele>1069.6</ele>
        <time>2020-02-23T09:03:29.000Z</time>
      </trkpt>
      <trkpt lat="45.16916" lon="5.64163">
        <ele>1071.7</ele>
        <time>2020-02-23T09:03:39.000Z</time>
      </trkpt>
      <trkpt lat="45.16919" lon="5.64158">
        <ele>1069.9</ele>
        <time>2020-02-23T09:03:49.000Z</time>
      </trkpt>
      <trkpt lat="45.1692" lon="5.64155">
        <ele>1069.7</ele>
        <time>2020-02-23T09:03:59.000Z</time>
      </trkpt>
      <trkpt lat="45.1692" lon="5.64151">
        <ele>1069.5</ele>
        <time>2020-02-23T09:04:09.000Z</time>
      </trkpt>
      <trkpt lat="45.16919" lon="5.64149">
        <ele>1069.5</ele>
        <time>2020-02-23T09:04:19.000Z</time>
      </trkpt>
      <trkpt lat="45.16915" lon="5.64151">
        <ele>1070</ele>
        <time>2020-02-23T09:03:42.000Z</time>
      </trkpt>
      <trkpt lat="45.16913" lon="5.64151">
        <ele>1073.5</ele>
        <time>2020-02-23T09:03:52.000Z</time>
      </trkpt>
      <trkpt lat="45.16911" lon="5.64149">
        <ele>1073.8</ele>
        <time>2020-02-23T09:04:02.000Z</time>
      </trkpt>
      <trkpt lat="45.1691" lon="5.64147">
        <ele>1074</ele>
        <time>2020-02-23T09:04:12.000Z</time>
      </trkpt>
      <trkpt lat="45.16908" lon="5.64145">
        <ele>1074.3</ele>
        <time>2020-02-23T09:04:22.000Z</time>
      </trkpt>
      <trkpt lat="45.16902" lon="5.64139">
        <ele>1075</ele>
        <time>2020-02-23T09:04:32.000Z</time>
      </trkpt>
      <trkpt lat="45.16899" lon="5.64134">
        <ele>1073</ele>
        <time>2020-02-23T09:04:00.000Z</time>
      </trkpt>
      <trkpt lat="45.16894" lon="5.64127">
        <ele>1076.1</ele>
        <time>2020-02-23T09:04:10.000Z</time>
      </trkpt>
      <trkpt lat="45.16893" lon="5.64124">
        <ele>1076.4</ele>
        <time>2020-02-23T09:04:20.000Z</time>
      </trkpt>
      <trkpt lat="45.16887" lon="5.64115">
        <ele>1077.1</ele>
        <time>2020-02-23T09:04:30.000Z</time>
      </trkpt>
      <trkpt lat="45.16885" lon="5.64095">
        <ele>1082</ele>
        <time>2020-02-23T09:04:26.000Z</time>
      </trkpt>
      <trkpt lat="45.16882" lon="5.64084">
        <ele>1078.8</ele>
        <time>2020-02-23T09:04:36.000Z</time>
      </trkpt>
      <trkpt lat="45.16872" lon="5.64068">
        <ele>1085</ele>
        <time>2020-02-23T09:04:46.000Z</time>
      </trkpt>
      <trkpt lat="45.16866" lon="5.64065">
        <ele>1086.6</ele>
        <time>2020-02-23T09:04:56.000Z</time>
      </trkpt>
      <trkpt lat="45.16861" lon="5.64066">
        <ele>1086.8</ele>
        <time>2020-02-23T09:05:06.000Z</time>
      </trkpt>
      <trkpt lat="45.16859" lon="5.64065">
        <ele>1086.9</ele>
        <time>2020-02-23T09:05:16.000Z</time>
      </trkpt>
      <trkpt lat="45.16851" lon="5.6406">
        <ele>1085</ele>
        <time>2020-02-23T09:05:01.000Z</time>
      </trkpt>
      <trkpt lat="45.16844" lon="5.64051">
        <ele>1087.9</ele>
        <time>2020-02-23T09:05:11.000Z</time>
      </trkpt>
      <trkpt lat="45.16825" lon="5.64038">
        <ele>1093</ele>
        <time>2020-02-23T09:05:15.000Z</time>
      </trkpt>
      <trkpt lat="45.16819" lon="5.64026">
        <ele>1096.7</ele>
        <time>2020-02-23T09:05:25.000Z</time>
      </trkpt>
      <trkpt lat="45.16811" lon="5.64001">
        <ele>1100</ele>
        <time>2020-02-23T09:05:30.000Z</time>
      </trkpt>
      <trkpt lat="45.16808" lon="5.63984">
        <ele>1104.9</ele>
        <time>2020-02-23T09:05:40.000Z</time>
      </trkpt>
      <trkpt lat="45.16809" lon="5.63971">
        <ele>1098</ele>
        <time>2020-02-23T09:05:39.000Z</time>
      </trkpt>
      <trkpt lat="45.16815" lon="5.63959">
        <ele>1106.6</ele>
        <time>2020-02-23T09:05:49.000Z</time>
      </trkpt>
      <trkpt lat="45.16821" lon="5.63948">
        <ele>1102</ele>
        <time>2020-02-23T09:05:49.000Z</time>
      </trkpt>
      <trkpt lat="45.16826" lon="5.63944">
        <ele>1107.2</ele>
        <time>2020-02-23T09:05:59.000Z</time>
      </trkpt>
      <trkpt lat="45.16825" lon="5.63941">
        <ele>1107.4</ele>
        <time>2020-02-23T09:06:09.000Z</time>
      </trkpt>
      <trkpt lat="45.16823" lon="5.63941">
        <ele>1107.5</ele>
        <time>2020-02-23T09:06:19.000Z</time>
      </trkpt>
      <trkpt lat="45.16815" lon="5.63945">
        <ele>1107.5</ele>
        <time>2020-02-23T09:06:29.000Z</time>
      </trkpt>
      <trkpt lat="45.16802" lon="5.63955">
        <ele>1106</ele>
        <time>2020-02-23T09:06:12.000Z</time>
      </trkpt>
      <trkpt lat="45.16789" lon="5.63969">
        <ele>1107.9</ele>
        <time>2020-02-23T09:06:22.000Z</time>
      </trkpt>
      <trkpt lat="45.16778" lon="5.63988">
        <ele>1106</ele>
        <time>2020-02-23T09:06:27.000Z</time>
      </trkpt>
      <trkpt lat="45.16763" lon="5.6402">
        <ele>1106</ele>
        <time>2020-02-23T09:06:40.000Z</time>
      </trkpt>
      <trkpt lat="45.16757" lon="5.64028">
        <ele>1101.8</ele>
        <time>2020-02-23T09:06:50.000Z</time>
      </trkpt>
      <trkpt lat="45.16755" lon="5.6403">
        <ele>1101.6</ele>
        <time>2020-02-23T09:07:00.000Z</time>
      </trkpt>
      <trkpt lat="45.1675" lon="5.64035">
        <ele>1106</ele>
        <time>2020-02-23T09:07:10.000Z</time>
      </trkpt>
      <trkpt lat="45.16737" lon="5.64044">
        <ele>1099</ele>
        <time>2020-02-23T09:06:54.000Z</time>
      </trkpt>
      <trkpt lat="45.16723" lon="5.64048">
        <ele>1104.9</ele>
        <time>2020-02-23T09:07:04.000Z</time>
      </trkpt>
      <trkpt lat="45.16707" lon="5.64049">
        <ele>1099</ele>
        <time>2020-02-23T09:07:07.000Z</time>
      </trkpt>
      <trkpt lat="45.16703" lon="5.64048">
        <ele>1105.7</ele>
        <time>2020-02-23T09:07:17.000Z</time>
      </trkpt>
      <trkpt lat="45.1669" lon="5.64044">
        <ele>1106.3</ele>
        <time>2020-02-23T09:07:27.000Z</time>
      </trkpt>
      <trkpt lat="45.16674" lon="5.64035">
        <ele>1100</ele>
        <time>2020-02-23T09:07:22.000Z</time>
      </trkpt>
      <trkpt lat="45.16667" lon="5.64033">
        <ele>1107.8</ele>
        <time>2020-02-23T09:07:32.000Z</time>
      </trkpt>
      <trkpt lat="45.16663" lon="5.64034">
        <ele>1109.9</ele>
        <time>2020-02-23T09:07:42.000Z</time>
      </trkpt>
      <trkpt lat="45.16661" lon="5.64034">
        <ele>1109.9</ele>
        <time>2020-02-23T09:07:52.000Z</time>
      </trkpt>
      <trkpt lat="45.16648" lon="5.64024">
        <ele>1099</ele>
        <time>2020-02-23T09:07:34.000Z</time>
      </trkpt>
      <trkpt lat="45.16636" lon="5.6401">
        <ele>1110.9</ele>
        <time>2020-02-23T09:07:44.000Z</time>
      </trkpt>
      <trkpt lat="45.16631" lon="5.64005">
        <ele>1099</ele>
        <time>2020-02-23T09:07:42.000Z</time>
      </trkpt>
      <trkpt lat="45.16613" lon="5.63979">
        <ele>1099</ele>
        <time>2020-02-23T09:07:52.000Z</time>
      </trkpt>
      <trkpt lat="45.16604" lon="5.63968">
        <ele>1113.3</ele>
        <time>2020-02-23T09:08:02.000Z</time>
      </trkpt>
      <trkpt lat="45.16597" lon="5.63964">
        <ele>1099</ele>
        <time>2020-02-23T09:08:00.000Z</time>
      </trkpt>
      <trkpt lat="45.16591" lon="5.63962">
        <ele>1113.3</ele>
        <time>2020-02-23T09:08:10.000Z</time>
      </trkpt>
      <trkpt lat="45.1658" lon="5.63961">
        <ele>1124.5</ele>
        <time>2020-02-23T09:08:20.000Z</time>
      </trkpt>
      <trkpt lat="45.16572" lon="5.63957">
        <ele>1099</ele>
        <time>2020-02-23T09:08:12.000Z</time>
      </trkpt>
      <trkpt lat="45.16562" lon="5.63957">
        <ele>1127.1</ele>
        <time>2020-02-23T09:08:22.000Z</time>
      </trkpt>
      <trkpt lat="45.16557" lon="5.63959">
        <ele>1128</ele>
        <time>2020-02-23T09:08:32.000Z</time>
      </trkpt>
      <trkpt lat="45.16552" lon="5.63956">
        <ele>1112</ele>
        <time>2020-02-23T09:08:24.000Z</time>
      </trkpt>
      <trkpt lat="45.16548" lon="5.63951">
        <ele>1129.8</ele>
        <time>2020-02-23T09:08:34.000Z</time>
      </trkpt>
      <trkpt lat="45.16541" lon="5.6395">
        <ele>1131.4</ele>
        <time>2020-02-23T09:08:44.000Z</time>
      </trkpt>
      <trkpt lat="45.16538" lon="5.63942">
        <ele>1121</ele>
        <time>2020-02-23T09:08:44.000Z</time>
      </trkpt>
      <trkpt lat="45.16538" lon="5.63936">
        <ele>1132.2</ele>
        <time>2020-02-23T09:08:54.000Z</time>
      </trkpt>
      <trkpt lat="45.16536" lon="5.63933">
        <ele>1132.8</ele>
        <time>2020-02-23T09:09:04.000Z</time>
      </trkpt>
      <trkpt lat="45.16534" lon="5.63922">
        <ele>1133.6</ele>
        <time>2020-02-23T09:09:14.000Z</time>
      </trkpt>
      <trkpt lat="45.16533" lon="5.63919">
        <ele>1134</ele>
        <time>2020-02-23T09:09:24.000Z</time>
      </trkpt>
      <trkpt lat="45.16532" lon="5.63916">
        <ele>1130</ele>
        <time>2020-02-23T09:08:59.000Z</time>
      </trkpt>
      <trkpt lat="45.1653" lon="5.63914">
        <ele>1134.9</ele>
        <time>2020-02-23T09:09:09.000Z</time>
      </trkpt>
      <trkpt lat="45.16526" lon="5.63912">
        <ele>1136.2</ele>
        <time>2020-02-23T09:09:19.000Z</time>
      </trkpt>
      <trkpt lat="45.16523" lon="5.63917">
        <ele>1137.5</ele>
        <time>2020-02-23T09:09:29.000Z</time>
      </trkpt>
      <trkpt lat="45.16524" lon="5.63919">
        <ele>1137.1</ele>
        <time>2020-02-23T09:09:39.000Z</time>
      </trkpt>
      <trkpt lat="45.16522" lon="5.63925">
        <ele>1137.5</ele>
        <time>2020-02-23T09:09:49.000Z</time>
      </trkpt>
      <trkpt lat="45.16523" lon="5.63928">
        <ele>1130</ele>
        <time>2020-02-23T09:09:30.000Z</time>
      </trkpt>
      <trkpt lat="45.16521" lon="5.63933">
        <ele>1137</ele>
        <time>2020-02-23T09:09:40.000Z</time>
      </trkpt>
      <trkpt lat="45.16518" lon="5.63931">
        <ele>1138.1</ele>
        <time>2020-02-23T09:09:50.000Z</time>
      </trkpt>
      <trkpt lat="45.16515" lon="5.63925">
        <ele>1140</ele>
        <time>2020-02-23T09:10:00.000Z</time>
      </trkpt>
      <trkpt lat="45.16512" lon="5.63913">
        <ele>1134</ele>
        <time>2020-02-23T09:09:49.000Z</time>
      </trkpt>
      <trkpt lat="45.16508" lon="5.63908">
        <ele>1142.2</ele>
        <time>2020-02-23T09:09:59.000Z</time>
      </trkpt>
      <trkpt lat="45.16504" lon="5.63896">
        <ele>1139.6</ele>
        <time>2020-02-23T09:10:09.000Z</time>
      </trkpt>
      <trkpt lat="45.16504" lon="5.63889">
        <ele>1134</ele>
        <time>2020-02-23T09:10:06.000Z</time>
      </trkpt>
      <trkpt lat="45.165" lon="5.63878">
        <ele>1163</ele>
        <time>2020-02-23T09:10:16.000Z</time>
      </trkpt>
      <trkpt lat="45.165" lon="5.63873">
        <ele>1162.9</ele>
        <time>2020-02-23T09:10:26.000Z</time>
      </trkpt>
      <trkpt lat="45.16497" lon="5.63868">
        <ele>1162.8</ele>
        <time>2020-02-23T09:10:36.000Z</time>
      </trkpt>
      <trkpt lat="45.16496" lon="5.63865">
        <ele>1135</ele>
        <time>2020-02-23T09:10:23.000Z</time>
      </trkpt>
      <trkpt lat="45.16497" lon="5.63858">
        <ele>1160.8</ele>
        <time>2020-02-23T09:10:33.000Z</time>
      </trkpt>
      <trkpt lat="45.16494" lon="5.63846">
        <ele>1156.9</ele>
        <time>2020-02-23T09:10:43.000Z</time>
      </trkpt>
      <trkpt lat="45.16492" lon="5.63842">
        <ele>1155.9</ele>
        <time>2020-02-23T09:10:53.000Z</time>
      </trkpt>
      <trkpt lat="45.16491" lon="5.63839">
        <ele>1137</ele>
        <time>2020-02-23T09:10:42.000Z</time>
      </trkpt>
      <trkpt lat="45.1649" lon="5.63829">
        <ele>1155.2</ele>
        <time>2020-02-23T09:10:52.000Z</time>
      </trkpt>
      <trkpt lat="45.16489" lon="5.6383">
        <ele>1155.6</ele>
        <time>2020-02-23T09:11:02.000Z</time>
      </trkpt>
      <trkpt lat="45.16488" lon="5.63834">
        <ele>1156.2</ele>
        <time>2020-02-23T09:11:12.000Z</time>
      </trkpt>
      <trkpt lat="45.16487" lon="5.6384">
        <ele>1157.9</ele>
        <time>2020-02-23T09:11:22.000Z</time>
      </trkpt>
      <trkpt lat="45.16486" lon="5.63845">
        <ele>1151</ele>
        <time>2020-02-23T09:11:07.000Z</time>
      </trkpt>
      <trkpt lat="45.16484" lon="5.63859">
        <ele>1163.8</ele>
        <time>2020-02-23T09:11:17.000Z</time>
      </trkpt>
      <trkpt lat="45.16484" lon="5.63872">
        <ele>1165.4</ele>
        <time>2020-02-23T09:11:27.000Z</time>
      </trkpt>
      <trkpt lat="45.16482" lon="5.63875">
        <ele>1152</ele>
        <time>2020-02-23T09:11:28.000Z</time>
      </trkpt>
      <trkpt lat="45.16477" lon="5.63889">
        <ele>1166.9</ele>
        <time>2020-02-23T09:11:38.000Z</time>
      </trkpt>
      <trkpt lat="45.16474" lon="5.63893">
        <ele>1167.6</ele>
        <time>2020-02-23T09:11:48.000Z</time>
      </trkpt>
      <trkpt lat="45.16473" lon="5.63899">
        <ele>1157</ele>
        <time>2020-02-23T09:11:44.000Z</time>
      </trkpt>
      <trkpt lat="45.16469" lon="5.63906">
        <ele>1168.7</ele>
        <time>2020-02-23T09:11:54.000Z</time>
      </trkpt>
      <trkpt lat="45.16463" lon="5.63917">
        <ele>1176.1</ele>
        <time>2020-02-23T09:12:04.000Z</time>
      </trkpt>
      <trkpt lat="45.16463" lon="5.6392">
        <ele>1176.2</ele>
        <time>2020-02-23T09:12:14.000Z</time>
      </trkpt>
      <trkpt lat="45.16461" lon="5.63923">
        <ele>1162</ele>
        <time>2020-02-23T09:12:04.000Z</time>
      </trkpt>
      <trkpt lat="45.16452" lon="5.63927">
        <ele>1181.6</ele>
        <time>2020-02-23T09:12:14.000Z</time>
      </trkpt>
      <trkpt lat="45.16447" lon="5.63922">
        <ele>1183.8</ele>
        <time>2020-02-23T09:12:24.000Z</time>
      </trkpt>
      <trkpt lat="45.16448" lon="5.6391">
        <ele>1170</ele>
        <time>2020-02-23T09:12:21.000Z</time>
      </trkpt>
      <trkpt lat="45.16449" lon="5.63908">
        <ele>1177.6</ele>
        <time>2020-02-23T09:12:31.000Z</time>
      </trkpt>
      <trkpt lat="45.16448" lon="5.63896">
        <ele>1177</ele>
        <time>2020-02-23T09:12:41.000Z</time>
      </trkpt>
      <trkpt lat="45.16447" lon="5.63893">
        <ele>1177.1</ele>
        <time>2020-02-23T09:12:51.000Z</time>
      </trkpt>
      <trkpt lat="45.16446" lon="5.63884">
        <ele>1178</ele>
        <time>2020-02-23T09:12:40.000Z</time>
      </trkpt>
      <trkpt lat="45.16443" lon="5.63875">
        <ele>1176.9</ele>
        <time>2020-02-23T09:12:50.000Z</time>
      </trkpt>
      <trkpt lat="45.16442" lon="5.63871">
        <ele>1177.1</ele>
        <time>2020-02-23T09:13:00.000Z</time>
      </trkpt>
      <trkpt lat="45.16441" lon="5.63859">
        <ele>1177.6</ele>
        <time>2020-02-23T09:13:10.000Z</time>
      </trkpt>
      <trkpt lat="45.16439" lon="5.63855">
        <ele>1180</ele>
        <time>2020-02-23T09:12:59.000Z</time>
      </trkpt>
      <trkpt lat="45.1644" lon="5.63852">
        <ele>1178.4</ele>
        <time>2020-02-23T09:13:09.000Z</time>
      </trkpt>
      <trkpt lat="45.16436" lon="5.63839">
        <ele>1181.4</ele>
        <time>2020-02-23T09:13:19.000Z</time>
      </trkpt>
      <trkpt lat="45.16435" lon="5.63834">
        <ele>1182.1</ele>
        <time>2020-02-23T09:13:29.000Z</time>
      </trkpt>
      <trkpt lat="45.16434" lon="5.6383">
        <ele>1182</ele>
        <time>2020-02-23T09:13:39.000Z</time>
      </trkpt>
      <trkpt lat="45.16433" lon="5.63828">
        <ele>1180</ele>
        <time>2020-02-23T09:13:20.000Z</time>
      </trkpt>
      <trkpt lat="45.1643" lon="5.63834">
        <ele>1184.8</ele>
        <time>2020-02-23T09:13:30.000Z</time>
      </trkpt>
      <trkpt lat="45.16428" lon="5.63834">
        <ele>1185.9</ele>
        <time>2020-02-23T09:13:40.000Z</time>
      </trkpt>
      <trkpt lat="45.16427" lon="5.6383">
        <ele>1185.9</ele>
        <time>2020-02-23T09:13:50.000Z</time>
      </trkpt>
      <trkpt lat="45.16423" lon="5.63827">
        <ele>1187.2</ele>
        <time>2020-02-23T09:14:00.000Z</time>
      </trkpt>
      <trkpt lat="45.16419" lon="5.63819">
        <ele>1180</ele>
        <time>2020-02-23T09:13:47.000Z</time>
      </trkpt>
      <trkpt lat="45.16417" lon="5.63818">
        <ele>1184.6</ele>
        <time>2020-02-23T09:13:57.000Z</time>
      </trkpt>
      <trkpt lat="45.16415" lon="5.6382">
        <ele>1208.3</ele>
        <time>2020-02-23T09:14:07.000Z</time>
      </trkpt>
      <trkpt lat="45.16412" lon="5.63832">
        <ele>1200.6</ele>
        <time>2020-02-23T09:14:17.000Z</time>
      </trkpt>
      <trkpt lat="45.1641" lon="5.63831">
        <ele>1203.2</ele>
        <time>2020-02-23T09:14:27.000Z</time>
      </trkpt>
      <trkpt lat="45.1641" lon="5.63828">
        <ele>1204.7</ele>
        <time>2020-02-23T09:14:37.000Z</time>
      </trkpt>
      <trkpt lat="45.16405" lon="5.6382">
        <ele>1190</ele>
        <time>2020-02-23T09:14:18.000Z</time>
      </trkpt>
      <trkpt lat="45.16405" lon="5.63809">
        <ele>1216.7</ele>
        <time>2020-02-23T09:14:28.000Z</time>
      </trkpt>
      <trkpt lat="45.16404" lon="5.63795">
        <ele>1219.5</ele>
        <time>2020-02-23T09:14:38.000Z</time>
      </trkpt>
      <trkpt lat="45.16403" lon="5.63792">
        <ele>1191</ele>
        <time>2020-02-23T09:14:34.000Z</time>
      </trkpt>
      <trkpt lat="45.16399" lon="5.63784">
        <ele>1220.8</ele>
        <time>2020-02-23T09:14:44.000Z</time>
      </trkpt>
      <trkpt lat="45.16399" lon="5.63778">
        <ele>1220.1</ele>
        <time>2020-02-23T09:14:54.000Z</time>
      </trkpt>
      <trkpt lat="45.16395" lon="5.63764">
        <ele>1193</ele>
        <time>2020-02-23T09:14:55.000Z</time>
      </trkpt>
      <trkpt lat="45.16392" lon="5.63779">
        <ele>1223</ele>
        <time>2020-02-23T09:15:05.000Z</time>
      </trkpt>
      <trkpt lat="45.16388" lon="5.63793">
        <ele>1200</ele>
        <time>2020-02-23T09:15:17.000Z</time>
      </trkpt>
      <trkpt lat="45.16387" lon="5.63799">
        <ele>1225.3</ele>
        <time>2020-02-23T09:15:27.000Z</time>
      </trkpt>
      <trkpt lat="45.16386" lon="5.63803">
        <ele>1225.5</ele>
        <time>2020-02-23T09:15:37.000Z</time>
      </trkpt>
      <trkpt lat="45.16384" lon="5.63811">
        <ele>1225.9</ele>
        <time>2020-02-23T09:15:47.000Z</time>
      </trkpt>
      <trkpt lat="45.16379" lon="5.63824">
        <ele>1235</ele>
        <time>2020-02-23T09:15:40.000Z</time>
      </trkpt>
      <trkpt lat="45.16376" lon="5.63836">
        <ele>1234.9</ele>
        <time>2020-02-23T09:15:50.000Z</time>
      </trkpt>
      <trkpt lat="45.16374" lon="5.63848">
        <ele>1236.8</ele>
        <time>2020-02-23T09:16:00.000Z</time>
      </trkpt>
      <trkpt lat="45.16372" lon="5.63854">
        <ele>1241</ele>
        <time>2020-02-23T09:16:03.000Z</time>
      </trkpt>
      <trkpt lat="45.1637" lon="5.63867">
        <ele>1240.2</ele>
        <time>2020-02-23T09:16:13.000Z</time>
      </trkpt>
      <trkpt lat="45.1636" lon="5.63888">
        <ele>1241</ele>
        <time>2020-02-23T09:16:26.000Z</time>
      </trkpt>
      <trkpt lat="45.16358" lon="5.63886">
        <ele>1248.7</ele>
        <time>2020-02-23T09:16:36.000Z</time>
      </trkpt>
      <trkpt lat="45.16359" lon="5.63879">
        <ele>1246.7</ele>
        <time>2020-02-23T09:16:46.000Z</time>
      </trkpt>
      <trkpt lat="45.16357" lon="5.63867">
        <ele>1246.1</ele>
        <time>2020-02-23T09:16:56.000Z</time>
      </trkpt>
      <trkpt lat="45.16355" lon="5.63864">
        <ele>1241</ele>
        <time>2020-02-23T09:16:43.000Z</time>
      </trkpt>
      <trkpt lat="45.16353" lon="5.6385">
        <ele>1248.5</ele>
        <time>2020-02-23T09:16:53.000Z</time>
      </trkpt>
      <trkpt lat="45.16353" lon="5.6384">
        <ele>1249.8</ele>
        <time>2020-02-23T09:17:03.000Z</time>
      </trkpt>
      <trkpt lat="45.16351" lon="5.63832">
        <ele>1248</ele>
        <time>2020-02-23T09:17:02.000Z</time>
      </trkpt>
      <trkpt lat="45.1635" lon="5.63819">
        <ele>1245.3</ele>
        <time>2020-02-23T09:17:12.000Z</time>
      </trkpt>
      <trkpt lat="45.16349" lon="5.63813">
        <ele>1243.9</ele>
        <time>2020-02-23T09:17:22.000Z</time>
      </trkpt>
      <trkpt lat="45.16347" lon="5.63811">
        <ele>1244.2</ele>
        <time>2020-02-23T09:17:32.000Z</time>
      </trkpt>
      <trkpt lat="45.16346" lon="5.63796">
        <ele>1251</ele>
        <time>2020-02-23T09:17:26.000Z</time>
      </trkpt>
      <trkpt lat="45.16345" lon="5.63794">
        <ele>1241.7</ele>
        <time>2020-02-23T09:17:36.000Z</time>
      </trkpt>
      <trkpt lat="45.16342" lon="5.63777">
        <ele>1244.1</ele>
        <time>2020-02-23T09:17:46.000Z</time>
      </trkpt>
      <trkpt lat="45.16343" lon="5.6376">
        <ele>1254</ele>
        <time>2020-02-23T09:17:49.000Z</time>
      </trkpt>
      <trkpt lat="45.16339" lon="5.63748">
        <ele>1258.5</ele>
        <time>2020-02-23T09:17:59.000Z</time>
      </trkpt>
      <trkpt lat="45.16339" lon="5.63744">
        <ele>1256.6</ele>
        <time>2020-02-23T09:18:09.000Z</time>
      </trkpt>
      <trkpt lat="45.16337" lon="5.63738">
        <ele>1253.9</ele>
        <time>2020-02-23T09:18:19.000Z</time>
      </trkpt>
      <trkpt lat="45.16335" lon="5.63735">
        <ele>1254</ele>
        <time>2020-02-23T09:18:08.000Z</time>
      </trkpt>
      <trkpt lat="45.16332" lon="5.63724">
        <ele>1285.4</ele>
        <time>2020-02-23T09:18:18.000Z</time>
      </trkpt>
      <trkpt lat="45.1633" lon="5.63727">
        <ele>1284.6</ele>
        <time>2020-02-23T09:18:28.000Z</time>
      </trkpt>
      <trkpt lat="45.16329" lon="5.63733">
        <ele>1281.9</ele>
        <time>2020-02-23T09:18:38.000Z</time>
      </trkpt>
      <trkpt lat="45.16328" lon="5.63745">
        <ele>1254</ele>
        <time>2020-02-23T09:18:40.000Z</time>
      </trkpt>
      <trkpt lat="45.16327" lon="5.63752">
        <ele>1273.3</ele>
        <time>2020-02-23T09:18:50.000Z</time>
      </trkpt>
      <trkpt lat="45.16327" lon="5.63756">
        <ele>1275.4</ele>
        <time>2020-02-23T09:19:00.000Z</time>
      </trkpt>
      <trkpt lat="45.16323" lon="5.63767">
        <ele>1283.7</ele>
        <time>2020-02-23T09:19:10.000Z</time>
      </trkpt>
      <trkpt lat="45.16319" lon="5.63775">
        <ele>1281</ele>
        <time>2020-02-23T09:19:02.000Z</time>
      </trkpt>
      <trkpt lat="45.16318" lon="5.6378">
        <ele>1289.5</ele>
        <time>2020-02-23T09:19:12.000Z</time>
      </trkpt>
      <trkpt lat="45.16317" lon="5.63798">
        <ele>1290.9</ele>
        <time>2020-02-23T09:19:22.000Z</time>
      </trkpt>
      <trkpt lat="45.16314" lon="5.63804">
        <ele>1281</ele>
        <time>2020-02-23T09:19:21.000Z</time>
      </trkpt>
      <trkpt lat="45.16313" lon="5.63805">
        <ele>1291.6</ele>
        <time>2020-02-23T09:19:31.000Z</time>
      </trkpt>
      <trkpt lat="45.16313" lon="5.63802">
        <ele>1291.9</ele>
        <time>2020-02-23T09:19:41.000Z</time>
      </trkpt>
      <trkpt lat="45.16309" lon="5.63789">
        <ele>1293.5</ele>
        <time>2020-02-23T09:19:51.000Z</time>
      </trkpt>
      <trkpt lat="45.16311" lon="5.63783">
        <ele>1292.3</ele>
        <time>2020-02-23T09:20:01.000Z</time>
      </trkpt>
      <trkpt lat="45.1631" lon="5.63779">
        <ele>1281</ele>
        <time>2020-02-23T09:19:42.000Z</time>
      </trkpt>
      <trkpt lat="45.1631" lon="5.63776">
        <ele>1291.8</ele>
        <time>2020-02-23T09:19:52.000Z</time>
      </trkpt>
      <trkpt lat="45.16308" lon="5.63773">
        <ele>1292.2</ele>
        <time>2020-02-23T09:20:02.000Z</time>
      </trkpt>
      <trkpt lat="45.16307" lon="5.63767">
        <ele>1291.7</ele>
        <time>2020-02-23T09:20:12.000Z</time>
      </trkpt>
      <trkpt lat="45.16307" lon="5.63764">
        <ele>1291.2</ele>
        <time>2020-02-23T09:20:22.000Z</time>
      </trkpt>
      <trkpt lat="45.16303" lon="5.63755">
        <ele>1292.6</ele>
        <time>2020-02-23T09:20:32.000Z</time>
      </trkpt>
      <trkpt lat="45.16299" lon="5.63734">
        <ele>1304</ele>
        <time>2020-02-23T09:20:16.000Z</time>
      </trkpt>
      <trkpt lat="45.16295" lon="5.6373">
        <ele>1298</ele>
        <time>2020-02-23T09:20:26.000Z</time>
      </trkpt>
      <trkpt lat="45.16294" lon="5.63721">
        <ele>1298.9</ele>
        <time>2020-02-23T09:20:36.000Z</time>
      </trkpt>
      <trkpt lat="45.16292" lon="5.63714">
        <ele>1299.9</ele>
        <time>2020-02-23T09:20:46.000Z</time>
      </trkpt>
      <trkpt lat="45.16292" lon="5.63711">
        <ele>1300</ele>
        <time>2020-02-23T09:20:56.000Z</time>
      </trkpt>
      <trkpt lat="45.16289" lon="5.63706">
        <ele>1304</ele>
        <time>2020-02-23T09:20:38.000Z</time>
      </trkpt>
      <trkpt lat="45.16286" lon="5.63697">
        <ele>1302.8</ele>
        <time>2020-02-23T09:20:48.000Z</time>
      </trkpt>
      <trkpt lat="45.16287" lon="5.63691">
        <ele>1302.7</ele>
        <time>2020-02-23T09:20:58.000Z</time>
      </trkpt>
      <trkpt lat="45.1629" lon="5.63677">
        <ele>1309</ele>
        <time>2020-02-23T09:20:58.000Z</time>
      </trkpt>
      <trkpt lat="45.16293" lon="5.63673">
        <ele>1300.5</ele>
        <time>2020-02-23T09:21:08.000Z</time>
      </trkpt>
      <trkpt lat="45.16295" lon="5.63667">
        <ele>1299.5</ele>
        <time>2020-02-23T09:21:18.000Z</time>
      </trkpt>
      <trkpt lat="45.16294" lon="5.63662">
        <ele>1304.4</ele>
        <time>2020-02-23T09:21:28.000Z</time>
      </trkpt>
      <trkpt lat="45.16292" lon="5.63667">
        <ele>1301.1</ele>
        <time>2020-02-23T09:21:38.000Z</time>
      </trkpt>
      <trkpt lat="45.16288" lon="5.6367">
        <ele>1309</ele>
        <time>2020-02-23T09:21:18.000Z</time>
      </trkpt>
      <trkpt lat="45.16283" lon="5.63676">
        <ele>1305.6</ele>
        <time>2020-02-23T09:21:28.000Z</time>
      </trkpt>
      <trkpt lat="45.16277" lon="5.63681">
        <ele>1308.2</ele>
        <time>2020-02-23T09:21:38.000Z</time>
      </trkpt>
      <trkpt lat="45.16275" lon="5.63683">
        <ele>1308.9</ele>
        <time>2020-02-23T09:21:48.000Z</time>
      </trkpt>
      <trkpt lat="45.16274" lon="5.63686">
        <ele>1308.8</ele>
        <time>2020-02-23T09:21:58.000Z</time>
      </trkpt>
      <trkpt lat="45.16276" lon="5.63694">
        <ele>1321</ele>
        <time>2020-02-23T09:21:34.000Z</time>
      </trkpt>
      <trkpt lat="45.16275" lon="5.63698">
        <ele>1306.8</ele>
        <time>2020-02-23T09:21:44.000Z</time>
      </trkpt>
      <trkpt lat="45.16274" lon="5.637">
        <ele>1307</ele>
        <time>2020-02-23T09:21:54.000Z</time>
      </trkpt>
      <trkpt lat="45.16274" lon="5.63704">
        <ele>1306.7</ele>
        <time>2020-02-23T09:22:04.000Z</time>
      </trkpt>
      <trkpt lat="45.16274" lon="5.63709">
        <ele>1306.5</ele>
        <time>2020-02-23T09:22:14.000Z</time>
      </trkpt>
      <trkpt lat="45.1627" lon="5.63719">
        <ele>1334</ele>
        <time>2020-02-23T09:21:54.000Z</time>
      </trkpt>
      <trkpt lat="45.16268" lon="5.63727">
        <ele>1309.7</ele>
        <time>2020-02-23T09:22:04.000Z</time>
      </trkpt>
      <trkpt lat="45.16268" lon="5.6373">
        <ele>1310.3</ele>
        <time>2020-02-23T09:22:14.000Z</time>
      </trkpt>
      <trkpt lat="45.16269" lon="5.63733">
        <ele>1310.5</ele>
        <time>2020-02-23T09:22:24.000Z</time>
      </trkpt>
      <trkpt lat="45.1627" lon="5.63737">
        <ele>1310.8</ele>
        <time>2020-02-23T09:22:34.000Z</time>
      </trkpt>
      <trkpt lat="45.16269" lon="5.63741">
        <ele>1312.1</ele>
        <time>2020-02-23T09:22:44.000Z</time>
      </trkpt>
      <trkpt lat="45.16258" lon="5.63757">
        <ele>1340</ele>
        <time>2020-02-23T09:22:23.000Z</time>
      </trkpt>
      <trkpt lat="45.16254" lon="5.63775">
        <ele>1314.1</ele>
        <time>2020-02-23T09:22:33.000Z</time>
      </trkpt>
      <trkpt lat="45.16251" lon="5.63784">
        <ele>1344</ele>
        <time>2020-02-23T09:22:43.000Z</time>
      </trkpt>
      <trkpt lat="45.16249" lon="5.63795">
        <ele>1357.6</ele>
        <time>2020-02-23T09:22:53.000Z</time>
      </trkpt>
      <trkpt lat="45.16247" lon="5.63799">
        <ele>1358</ele>
        <time>2020-02-23T09:23:03.000Z</time>
      </trkpt>
      <trkpt lat="45.16246" lon="5.63796">
        <ele>1358.2</ele>
        <time>2020-02-23T09:23:13.000Z</time>
      </trkpt>
      <trkpt lat="45.16243" lon="5.63789">
        <ele>1358.2</ele>
        <time>2020-02-23T09:23:23.000Z</time>
      </trkpt>
      <trkpt lat="45.16243" lon="5.63785">
        <ele>1344</ele>
        <time>2020-02-23T09:23:07.000Z</time>
      </trkpt>
      <trkpt lat="45.16241" lon="5.63771">
        <ele>1353.1</ele>
        <time>2020-02-23T09:23:17.000Z</time>
      </trkpt>
      <trkpt lat="45.16237" lon="5.63764">
        <ele>1351.5</ele>
        <time>2020-02-23T09:23:27.000Z</time>
      </trkpt>
      <trkpt lat="45.16237" lon="5.6376">
        <ele>1339</ele>
        <time>2020-02-23T09:23:22.000Z</time>
      </trkpt>
      <trkpt lat="45.16238" lon="5.63752">
        <ele>1345.8</ele>
        <time>2020-02-23T09:23:32.000Z</time>
      </trkpt>
      <trkpt lat="45.16239" lon="5.63749">
        <ele>1341.4</ele>
        <time>2020-02-23T09:23:42.000Z</time>
      </trkpt>
      <trkpt lat="45.16239" lon="5.63743">
        <ele>1342.9</ele>
        <time>2020-02-23T09:23:52.000Z</time>
      </trkpt>
      <trkpt lat="45.16243" lon="5.63731">
        <ele>1353</ele>
        <time>2020-02-23T09:23:44.000Z</time>
      </trkpt>
      <trkpt lat="45.16242" lon="5.63721">
        <ele>1349.4</ele>
        <time>2020-02-23T09:23:54.000Z</time>
      </trkpt>
      <trkpt lat="45.16241" lon="5.63719">
        <ele>1349.9</ele>
        <time>2020-02-23T09:24:04.000Z</time>
      </trkpt>
      <trkpt lat="45.16237" lon="5.63714">
        <ele>1351.5</ele>
        <time>2020-02-23T09:24:14.000Z</time>
      </trkpt>
      <trkpt lat="45.16233" lon="5.63704">
        <ele>1358</ele>
        <time>2020-02-23T09:24:04.000Z</time>
      </trkpt>
      <trkpt lat="45.16231" lon="5.63697">
        <ele>1352.6</ele>
        <time>2020-02-23T09:24:14.000Z</time>
      </trkpt>
      <trkpt lat="45.16229" lon="5.63692">
        <ele>1352.6</ele>
        <time>2020-02-23T09:24:24.000Z</time>
      </trkpt>
      <trkpt lat="45.16228" lon="5.63689">
        <ele>1352.5</ele>
        <time>2020-02-23T09:24:34.000Z</time>
      </trkpt>
      <trkpt lat="45.16225" lon="5.63684">
        <ele>1353</ele>
        <time>2020-02-23T09:24:44.000Z</time>
      </trkpt>
      <trkpt lat="45.16225" lon="5.63677">
        <ele>1363</ele>
        <time>2020-02-23T09:24:25.000Z</time>
      </trkpt>
      <trkpt lat="45.16223" lon="5.63672">
        <ele>1352.7</ele>
        <time>2020-02-23T09:24:35.000Z</time>
      </trkpt>
      <trkpt lat="45.16214" lon="5.63664">
        <ele>1355.8</ele>
        <time>2020-02-23T09:24:45.000Z</time>
      </trkpt>
      <trkpt lat="45.1621" lon="5.63661">
        <ele>1368</ele>
        <time>2020-02-23T09:24:44.000Z</time>
      </trkpt>
      <trkpt lat="45.16201" lon="5.63658">
        <ele>1361.8</ele>
        <time>2020-02-23T09:24:54.000Z</time>
      </trkpt>
      <trkpt lat="45.16198" lon="5.63655">
        <ele>1363</ele>
        <time>2020-02-23T09:25:04.000Z</time>
      </trkpt>
      <trkpt lat="45.16196" lon="5.63653">
        <ele>1363.7</ele>
        <time>2020-02-23T09:25:14.000Z</time>
      </trkpt>
      <trkpt lat="45.16192" lon="5.63648">
        <ele>1373</ele>
        <time>2020-02-23T09:25:12.000Z</time>
      </trkpt>
      <trkpt lat="45.16189" lon="5.63644">
        <ele>1365.3</ele>
        <time>2020-02-23T09:25:22.000Z</time>
      </trkpt>
      <trkpt lat="45.16184" lon="5.63637">
        <ele>1365.6</ele>
        <time>2020-02-23T09:25:32.000Z</time>
      </trkpt>
      <trkpt lat="45.16176" lon="5.6363">
        <ele>1390</ele>
        <time>2020-02-23T09:25:31.000Z</time>
      </trkpt>
      <trkpt lat="45.16167" lon="5.6362">
        <ele>1366.7</ele>
        <time>2020-02-23T09:25:41.000Z</time>
      </trkpt>
      <trkpt lat="45.16154" lon="5.63598">
        <ele>1397</ele>
        <time>2020-02-23T09:25:58.000Z</time>
      </trkpt>
      <trkpt lat="45.16147" lon="5.63576">
        <ele>1392.3</ele>
        <time>2020-02-23T09:26:08.000Z</time>
      </trkpt>
      <trkpt lat="45.16145" lon="5.63574">
        <ele>1397</ele>
        <time>2020-02-23T09:26:16.000Z</time>
      </trkpt>
      <trkpt lat="45.16146" lon="5.63564">
        <ele>1395.2</ele>
        <time>2020-02-23T09:26:26.000Z</time>
      </trkpt>
      <trkpt lat="45.16145" lon="5.6356">
        <ele>1396.4</ele>
        <time>2020-02-23T09:26:36.000Z</time>
      </trkpt>
      <trkpt lat="45.16142" lon="5.63555">
        <ele>1398.1</ele>
        <time>2020-02-23T09:26:46.000Z</time>
      </trkpt>
      <trkpt lat="45.1614" lon="5.6354">
        <ele>1418</ele>
        <time>2020-02-23T09:26:37.000Z</time>
      </trkpt>
      <trkpt lat="45.16134" lon="5.6355">
        <ele>1400.8</ele>
        <time>2020-02-23T09:26:47.000Z</time>
      </trkpt>
      <trkpt lat="45.16133" lon="5.63555">
        <ele>1400.5</ele>
        <time>2020-02-23T09:26:57.000Z</time>
      </trkpt>
      <trkpt lat="45.16131" lon="5.63559">
        <ele>1400.7</ele>
        <time>2020-02-23T09:27:07.000Z</time>
      </trkpt>
      <trkpt lat="45.16131" lon="5.63562">
        <ele>1400.4</ele>
        <time>2020-02-23T09:27:17.000Z</time>
      </trkpt>
      <trkpt lat="45.16128" lon="5.63566">
        <ele>1430</ele>
        <time>2020-02-23T09:27:10.000Z</time>
      </trkpt>
      <trkpt lat="45.16126" lon="5.63571">
        <ele>1401.4</ele>
        <time>2020-02-23T09:27:20.000Z</time>
      </trkpt>
      <trkpt lat="45.16126" lon="5.63575">
        <ele>1401.3</ele>
        <time>2020-02-23T09:27:30.000Z</time>
      </trkpt>
      <trkpt lat="45.16129" lon="5.63585">
        <ele>1401.5</ele>
        <time>2020-02-23T09:27:40.000Z</time>
      </trkpt>
      <trkpt lat="45.16128" lon="5.63595">
        <ele>1428</ele>
        <time>2020-02-23T09:27:36.000Z</time>
      </trkpt>
      <trkpt lat="45.16128" lon="5.63604">
        <ele>1403.3</ele>
        <time>2020-02-23T09:27:46.000Z</time>
      </trkpt>
      <trkpt lat="45.16127" lon="5.63607">
        <ele>1403.9</ele>
        <time>2020-02-23T09:27:56.000Z</time>
      </trkpt>
      <trkpt lat="45.16125" lon="5.6361">
        <ele>1404.8</ele>
        <time>2020-02-23T09:28:06.000Z</time>
      </trkpt>
      <trkpt lat="45.16124" lon="5.63627">
        <ele>1426</ele>
        <time>2020-02-23T09:28:05.000Z</time>
      </trkpt>
      <trkpt lat="45.16127" lon="5.6363">
        <ele>1406.1</ele>
        <time>2020-02-23T09:28:15.000Z</time>
      </trkpt>
      <trkpt lat="45.16128" lon="5.63634">
        <ele>1406.1</ele>
        <time>2020-02-23T09:28:25.000Z</time>
      </trkpt>
      <trkpt lat="45.16128" lon="5.63644">
        <ele>1406.9</ele>
        <time>2020-02-23T09:28:35.000Z</time>
      </trkpt>
      <trkpt lat="45.16127" lon="5.63653">
        <ele>1424</ele>
        <time>2020-02-23T09:28:24.000Z</time>
      </trkpt>
      <trkpt lat="45.16131" lon="5.63667">
        <ele>1414.7</ele>
        <time>2020-02-23T09:28:34.000Z</time>
      </trkpt>
      <trkpt lat="45.16131" lon="5.63676">
        <ele>1415.2</ele>
        <time>2020-02-23T09:28:44.000Z</time>
      </trkpt>
      <trkpt lat="45.16133" lon="5.63678">
        <ele>1417</ele>
        <time>2020-02-23T09:28:45.000Z</time>
      </trkpt>
      <trkpt lat="45.16135" lon="5.63685">
        <ele>1414.1</ele>
        <time>2020-02-23T09:28:55.000Z</time>
      </trkpt>
      <trkpt lat="45.16137" lon="5.63689">
        <ele>1413.7</ele>
        <time>2020-02-23T09:29:05.000Z</time>
      </trkpt>
      <trkpt lat="45.16138" lon="5.63694">
        <ele>1414</ele>
        <time>2020-02-23T09:29:15.000Z</time>
      </trkpt>
      <trkpt lat="45.1614" lon="5.63698">
        <ele>1413.8</ele>
        <time>2020-02-23T09:29:25.000Z</time>
      </trkpt>
      <trkpt lat="45.16139" lon="5.63701">
        <ele>1414.5</ele>
        <time>2020-02-23T09:29:35.000Z</time>
      </trkpt>
      <trkpt lat="45.16138" lon="5.63703">
        <ele>1418</ele>
        <time>2020-02-23T09:29:08.000Z</time>
      </trkpt>
      <trkpt lat="45.16138" lon="5.63706">
        <ele>1415.3</ele>
        <time>2020-02-23T09:29:18.000Z</time>
      </trkpt>
      <trkpt lat="45.16142" lon="5.63716">
        <ele>1414.5</ele>
        <time>2020-02-23T09:29:28.000Z</time>
      </trkpt>
      <trkpt lat="45.16145" lon="5.6373">
        <ele>1419</ele>
        <time>2020-02-23T09:29:34.000Z</time>
      </trkpt>
      <trkpt lat="45.16145" lon="5.63734">
        <ele>1412.4</ele>
        <time>2020-02-23T09:29:44.000Z</time>
      </trkpt>
      <trkpt lat="45.16144" lon="5.63735">
        <ele>1412.7</ele>
        <time>2020-02-23T09:29:54.000Z</time>
      </trkpt>
      <trkpt lat="45.16141" lon="5.63742">
        <ele>1413.6</ele>
        <time>2020-02-23T09:30:04.000Z</time>
      </trkpt>
      <trkpt lat="45.16139" lon="5.63744">
        <ele>1414.6</ele>
        <time>2020-02-23T09:30:14.000Z</time>
      </trkpt>
      <trkpt lat="45.16133" lon="5.6374">
        <ele>1417.7</ele>
        <time>2020-02-23T09:30:24.000Z</time>
      </trkpt>
      <trkpt lat="45.1613" lon="5.63742">
        <ele>1445</ele>
        <time>2020-02-23T09:30:06.000Z</time>
      </trkpt>
      <trkpt lat="45.16125" lon="5.63746">
        <ele>1422</ele>
        <time>2020-02-23T09:30:16.000Z</time>
      </trkpt>
      <trkpt lat="45.16122" lon="5.63752">
        <ele>1430.5</ele>
        <time>2020-02-23T09:30:26.000Z</time>
      </trkpt>
      <trkpt lat="45.16119" lon="5.63757">
        <ele>1432.1</ele>
        <time>2020-02-23T09:30:36.000Z</time>
      </trkpt>
      <trkpt lat="45.16119" lon="5.63767">
        <ele>1445</ele>
        <time>2020-02-23T09:30:27.000Z</time>
      </trkpt>
      <trkpt lat="45.16121" lon="5.63772">
        <ele>1431.4</ele>
        <time>2020-02-23T09:30:37.000Z</time>
      </trkpt>
      <trkpt lat="45.16122" lon="5.63785">
        <ele>1431.5</ele>
        <time>2020-02-23T09:30:47.000Z</time>
      </trkpt>
      <trkpt lat="45.16127" lon="5.63802">
        <ele>1446</ele>
        <time>2020-02-23T09:30:54.000Z</time>
      </trkpt>
      <trkpt lat="45.16122" lon="5.63808">
        <ele>1432.9</ele>
        <time>2020-02-23T09:31:04.000Z</time>
      </trkpt>
      <trkpt lat="45.16124" lon="5.63814">
        <ele>1432.7</ele>
        <time>2020-02-23T09:31:14.000Z</time>
      </trkpt>
      <trkpt lat="45.16124" lon="5.63817">
        <ele>1432.8</ele>
        <time>2020-02-23T09:31:24.000Z</time>
      </trkpt>
      <trkpt lat="45.16125" lon="5.63819">
        <ele>1432.6</ele>
        <time>2020-02-23T09:31:34.000Z</time>
      </trkpt>
      <trkpt lat="45.16126" lon="5.63825">
        <ele>1432.5</ele>
        <time>2020-02-23T09:31:44.000Z</time>
      </trkpt>
      <trkpt lat="45.16123" lon="5.63826">
        <ele>1446</ele>
        <time>2020-02-23T09:31:30.000Z</time>
      </trkpt>
      <trkpt lat="45.16117" lon="5.63825">
        <ele>1435.6</ele>
        <time>2020-02-23T09:31:40.000Z</time>
      </trkpt>
      <trkpt lat="45.16113" lon="5.63823">
        <ele>1436.9</ele>
        <time>2020-02-23T09:31:50.000Z</time>
      </trkpt>
      <trkpt lat="45.16111" lon="5.63821">
        <ele>1437.4</ele>
        <time>2020-02-23T09:32:00.000Z</time>
      </trkpt>
      <trkpt lat="45.1611" lon="5.63818">
        <ele>1437.4</ele>
        <time>2020-02-23T09:32:10.000Z</time>
      </trkpt>
      <trkpt lat="45.16106" lon="5.63817">
        <ele>1446</ele>
        <time>2020-02-23T09:31:51.000Z</time>
      </trkpt>
      <trkpt lat="45.16104" lon="5.63815">
        <ele>1439</ele>
        <time>2020-02-23T09:32:01.000Z</time>
      </trkpt>
      <trkpt lat="45.16104" lon="5.63812">
        <ele>1438.5</ele>
        <time>2020-02-23T09:32:11.000Z</time>
      </trkpt>
      <trkpt lat="45.16101" lon="5.63808">
        <ele>1438.7</ele>
        <time>2020-02-23T09:32:21.000Z</time>
      </trkpt>
      <trkpt lat="45.16099" lon="5.63807">
        <ele>1439.1</ele>
        <time>2020-02-23T09:32:31.000Z</time>
      </trkpt>
      <trkpt lat="45.16095" lon="5.63805">
        <ele>1439.6</ele>
        <time>2020-02-23T09:32:41.000Z</time>
      </trkpt>
      <trkpt lat="45.16093" lon="5.638">
        <ele>1439.3</ele>
        <time>2020-02-23T09:32:51.000Z</time>
      </trkpt>
      <trkpt lat="45.16091" lon="5.63798">
        <ele>1458</ele>
        <time>2020-02-23T09:32:18.000Z</time>
      </trkpt>
      <trkpt lat="45.16086" lon="5.63797">
        <ele>1440.1</ele>
        <time>2020-02-23T09:32:28.000Z</time>
      </trkpt>
      <trkpt lat="45.16081" lon="5.63792">
        <ele>1464.7</ele>
        <time>2020-02-23T09:32:38.000Z</time>
      </trkpt>
      <trkpt lat="45.1608" lon="5.6379">
        <ele>1464.9</ele>
        <time>2020-02-23T09:32:48.000Z</time>
      </trkpt>
      <trkpt lat="45.16081" lon="5.63787">
        <ele>1464.8</ele>
        <time>2020-02-23T09:32:58.000Z</time>
      </trkpt>
      <trkpt lat="45.16076" lon="5.63781">
        <ele>1458</ele>
        <time>2020-02-23T09:32:45.000Z</time>
      </trkpt>
      <trkpt lat="45.16074" lon="5.63781">
        <ele>1465.3</ele>
        <time>2020-02-23T09:32:55.000Z</time>
      </trkpt>
      <trkpt lat="45.16061" lon="5.63776">
        <ele>1467.2</ele>
        <time>2020-02-23T09:33:05.000Z</time>
      </trkpt>
      <trkpt lat="45.16057" lon="5.63777">
        <ele>1478</ele>
        <time>2020-02-23T09:33:08.000Z</time>
      </trkpt>
      <trkpt lat="45.16058" lon="5.63773">
        <ele>1467.7</ele>
        <time>2020-02-23T09:33:18.000Z</time>
      </trkpt>
      <trkpt lat="45.16061" lon="5.63767">
        <ele>1466.7</ele>
        <time>2020-02-23T09:33:28.000Z</time>
      </trkpt>
      <trkpt lat="45.16064" lon="5.63763">
        <ele>1465.6</ele>
        <time>2020-02-23T09:33:38.000Z</time>
      </trkpt>
      <trkpt lat="45.16063" lon="5.6376">
        <ele>1465.7</ele>
        <time>2020-02-23T09:33:48.000Z</time>
      </trkpt>
      <trkpt lat="45.16062" lon="5.63759">
        <ele>1465.9</ele>
        <time>2020-02-23T09:33:58.000Z</time>
      </trkpt>
      <trkpt lat="45.1606" lon="5.63759">
        <ele>1466.6</ele>
        <time>2020-02-23T09:34:08.000Z</time>
      </trkpt>
      <trkpt lat="45.16056" lon="5.63752">
        <ele>1480</ele>
        <time>2020-02-23T09:33:41.000Z</time>
      </trkpt>
      <trkpt lat="45.16051" lon="5.63745">
        <ele>1471.1</ele>
        <time>2020-02-23T09:33:51.000Z</time>
      </trkpt>
      <trkpt lat="45.1605" lon="5.63743">
        <ele>1471.5</ele>
        <time>2020-02-23T09:34:01.000Z</time>
      </trkpt>
      <trkpt lat="45.16048" lon="5.63741">
        <ele>1472.2</ele>
        <time>2020-02-23T09:34:11.000Z</time>
      </trkpt>
      <trkpt lat="45.16047" lon="5.63739">
        <ele>1472.6</ele>
        <time>2020-02-23T09:34:21.000Z</time>
      </trkpt>
      <trkpt lat="45.16046" lon="5.63731">
        <ele>1495</ele>
        <time>2020-02-23T09:34:06.000Z</time>
      </trkpt>
      <trkpt lat="45.16044" lon="5.6373">
        <ele>1473.5</ele>
        <time>2020-02-23T09:34:16.000Z</time>
      </trkpt>
      <trkpt lat="45.16039" lon="5.63733">
        <ele>1475.2</ele>
        <time>2020-02-23T09:34:26.000Z</time>
      </trkpt>
      <trkpt lat="45.16037" lon="5.63733">
        <ele>1475.9</ele>
        <time>2020-02-23T09:34:36.000Z</time>
      </trkpt>
      <trkpt lat="45.16033" lon="5.63732">
        <ele>1477.2</ele>
        <time>2020-02-23T09:34:46.000Z</time>
      </trkpt>
      <trkpt lat="45.16031" lon="5.63733">
        <ele>1477.9</ele>
        <time>2020-02-23T09:34:56.000Z</time>
      </trkpt>
      <trkpt lat="45.16029" lon="5.63735">
        <ele>1478.8</ele>
        <time>2020-02-23T09:35:06.000Z</time>
      </trkpt>
      <trkpt lat="45.16029" lon="5.63732">
        <ele>1495</ele>
        <time>2020-02-23T09:34:36.000Z</time>
      </trkpt>
      <trkpt lat="45.16029" lon="5.63729">
        <ele>1478.3</ele>
        <time>2020-02-23T09:34:46.000Z</time>
      </trkpt>
      <trkpt lat="45.16034" lon="5.63722">
        <ele>1476.4</ele>
        <time>2020-02-23T09:34:56.000Z</time>
      </trkpt>
      <trkpt lat="45.16038" lon="5.63714">
        <ele>1474.9</ele>
        <time>2020-02-23T09:35:06.000Z</time>
      </trkpt>
      <trkpt lat="45.16039" lon="5.6371">
        <ele>1474.6</ele>
        <time>2020-02-23T09:35:16.000Z</time>
      </trkpt>
      <trkpt lat="45.16038" lon="5.63704">
        <ele>1495</ele>
        <time>2020-02-23T09:35:06.000Z</time>
      </trkpt>
      <trkpt lat="45.16036" lon="5.63702">
        <ele>1475.3</ele>
        <time>2020-02-23T09:35:16.000Z</time>
      </trkpt>
      <trkpt lat="45.1603" lon="5.63705">
        <ele>1477.1</ele>
        <time>2020-02-23T09:35:26.000Z</time>
      </trkpt>
      <trkpt lat="45.16028" lon="5.63705">
        <ele>1477.6</ele>
        <time>2020-02-23T09:35:36.000Z</time>
      </trkpt>
      <trkpt lat="45.16015" lon="5.63706">
        <ele>1496</ele>
        <time>2020-02-23T09:35:34.000Z</time>
      </trkpt>
      <trkpt lat="45.16013" lon="5.63705">
        <ele>1481.2</ele>
        <time>2020-02-23T09:35:44.000Z</time>
      </trkpt>
      <trkpt lat="45.16006" lon="5.637">
        <ele>1482.9</ele>
        <time>2020-02-23T09:35:54.000Z</time>
      </trkpt>
      <trkpt lat="45.15998" lon="5.63697">
        <ele>1505.1</ele>
        <time>2020-02-23T09:36:04.000Z</time>
      </trkpt>
      <trkpt lat="45.15997" lon="5.63694">
        <ele>1496</ele>
        <time>2020-02-23T09:35:52.000Z</time>
      </trkpt>
      <trkpt lat="45.15992" lon="5.63687">
        <ele>1505</ele>
        <time>2020-02-23T09:36:02.000Z</time>
      </trkpt>
      <trkpt lat="45.15987" lon="5.63681">
        <ele>1505.1</ele>
        <time>2020-02-23T09:36:12.000Z</time>
      </trkpt>
      <trkpt lat="45.15983" lon="5.6368">
        <ele>1505.7</ele>
        <time>2020-02-23T09:36:22.000Z</time>
      </trkpt>
      <trkpt lat="45.15982" lon="5.63683">
        <ele>1498</ele>
        <time>2020-02-23T09:36:12.000Z</time>
      </trkpt>
      <trkpt lat="45.15983" lon="5.63692">
        <ele>1506.2</ele>
        <time>2020-02-23T09:36:22.000Z</time>
      </trkpt>
      <trkpt lat="45.15987" lon="5.63702">
        <ele>1505.9</ele>
        <time>2020-02-23T09:36:32.000Z</time>
      </trkpt>
      <trkpt lat="45.15988" lon="5.63706">
        <ele>1505.7</ele>
        <time>2020-02-23T09:36:42.000Z</time>
      </trkpt>
      <trkpt lat="45.15988" lon="5.63713">
        <ele>1498</ele>
        <time>2020-02-23T09:36:31.000Z</time>
      </trkpt>
      <trkpt lat="45.15987" lon="5.63716">
        <ele>1505.2</ele>
        <time>2020-02-23T09:36:41.000Z</time>
      </trkpt>
      <trkpt lat="45.15985" lon="5.63719">
        <ele>1505.1</ele>
        <time>2020-02-23T09:36:51.000Z</time>
      </trkpt>
      <trkpt lat="45.1598" lon="5.63723">
        <ele>1505.3</ele>
        <time>2020-02-23T09:37:01.000Z</time>
      </trkpt>
      <trkpt lat="45.15977" lon="5.63725">
        <ele>1505.5</ele>
        <time>2020-02-23T09:37:11.000Z</time>
      </trkpt>
      <trkpt lat="45.1597" lon="5.63725">
        <ele>1498</ele>
        <time>2020-02-23T09:36:44.000Z</time>
      </trkpt>
      <trkpt lat="45.15953" lon="5.63722">
        <ele>1508.8</ele>
        <time>2020-02-23T09:36:54.000Z</time>
      </trkpt>
      <trkpt lat="45.15939" lon="5.63719">
        <ele>1517</ele>
        <time>2020-02-23T09:36:58.000Z</time>
      </trkpt>
      <trkpt lat="45.15929" lon="5.63718">
        <ele>1511.3</ele>
        <time>2020-02-23T09:37:08.000Z</time>
      </trkpt>
      <trkpt lat="45.15909" lon="5.63716">
        <ele>1521</ele>
        <time>2020-02-23T09:37:11.000Z</time>
      </trkpt>
      <trkpt lat="45.159" lon="5.63718">
        <ele>1525.4</ele>
        <time>2020-02-23T09:37:21.000Z</time>
      </trkpt>
      <trkpt lat="45.15893" lon="5.63719">
        <ele>1526.1</ele>
        <time>2020-02-23T09:37:31.000Z</time>
      </trkpt>
      <trkpt lat="45.15881" lon="5.63718">
        <ele>1521</ele>
        <time>2020-02-23T09:37:28.000Z</time>
      </trkpt>
      <trkpt lat="45.15872" lon="5.63714">
        <ele>1529.3</ele>
        <time>2020-02-23T09:37:38.000Z</time>
      </trkpt>
      <trkpt lat="45.1586" lon="5.63705">
        <ele>1526</ele>
        <time>2020-02-23T09:37:49.000Z</time>
      </trkpt>
      <trkpt lat="45.15844" lon="5.63697">
        <ele>1534.4</ele>
        <time>2020-02-23T09:37:59.000Z</time>
      </trkpt>
      <trkpt lat="45.15829" lon="5.63696">
        <ele>1538</ele>
        <time>2020-02-23T09:38:19.000Z</time>
      </trkpt>
      <trkpt lat="45.1582" lon="5.637">
        <ele>1546.3</ele>
        <time>2020-02-23T09:38:29.000Z</time>
      </trkpt>
      <trkpt lat="45.15817" lon="5.637">
        <ele>1546.5</ele>
        <time>2020-02-23T09:38:39.000Z</time>
      </trkpt>
      <trkpt lat="45.15815" lon="5.63701">
        <ele>1546.6</ele>
        <time>2020-02-23T09:38:49.000Z</time>
      </trkpt>
      <trkpt lat="45.15814" lon="5.63701">
        <ele>1546.6</ele>
        <time>2020-02-23T09:38:59.000Z</time>
      </trkpt>
      <trkpt lat="45.1581" lon="5.63702">
        <ele>1540</ele>
        <time>2020-02-23T09:38:42.000Z</time>
      </trkpt>
      <trkpt lat="45.15807" lon="5.63701">
        <ele>1547.2</ele>
        <time>2020-02-23T09:38:52.000Z</time>
      </trkpt>
      <trkpt lat="45.15805" lon="5.63702">
        <ele>1547.3</ele>
        <time>2020-02-23T09:39:02.000Z</time>
      </trkpt>
      <trkpt lat="45.158" lon="5.637">
        <ele>1547.9</ele>
        <time>2020-02-23T09:39:12.000Z</time>
      </trkpt>
      <trkpt lat="45.15796" lon="5.63701">
        <ele>1548.3</ele>
        <time>2020-02-23T09:39:22.000Z</time>
      </trkpt>
      <trkpt lat="45.15789" lon="5.63697">
        <ele>1550</ele>
        <time>2020-02-23T09:39:10.000Z</time>
      </trkpt>
      <trkpt lat="45.15781" lon="5.63697">
        <ele>1550.1</ele>
        <time>2020-02-23T09:39:20.000Z</time>
      </trkpt>
      <trkpt lat="45.15777" lon="5.63693">
        <ele>1550.8</ele>
        <time>2020-02-23T09:39:30.000Z</time>
      </trkpt>
      <trkpt lat="45.15772" lon="5.63689">
        <ele>1551.8</ele>
        <time>2020-02-23T09:39:40.000Z</time>
      </trkpt>
      <trkpt lat="45.15763" lon="5.63685">
        <ele>1555</ele>
        <time>2020-02-23T09:39:31.000Z</time>
      </trkpt>
      <trkpt lat="45.15746" lon="5.63686">
        <ele>1564.3</ele>
        <time>2020-02-23T09:39:41.000Z</time>
      </trkpt>
      <trkpt lat="45.15734" lon="5.63683">
        <ele>1560</ele>
        <time>2020-02-23T09:40:01.000Z</time>
      </trkpt>
      <trkpt lat="45.15731" lon="5.63682">
        <ele>1565.9</ele>
        <time>2020-02-23T09:40:11.000Z</time>
      </trkpt>
      <trkpt lat="45.15725" lon="5.63683">
        <ele>1566.9</ele>
        <time>2020-02-23T09:40:21.000Z</time>
      </trkpt>
      <trkpt lat="45.15719" lon="5.63681">
        <ele>1567.9</ele>
        <time>2020-02-23T09:40:31.000Z</time>
      </trkpt>
      <trkpt lat="45.15716" lon="5.63681">
        <ele>1560</ele>
        <time>2020-02-23T09:40:25.000Z</time>
      </trkpt>
      <trkpt lat="45.15706" lon="5.63679">
        <ele>1570.4</ele>
        <time>2020-02-23T09:40:35.000Z</time>
      </trkpt>
      <trkpt lat="45.15701" lon="5.63671">
        <ele>1571.7</ele>
        <time>2020-02-23T09:40:45.000Z</time>
      </trkpt>
      <trkpt lat="45.15701" lon="5.63661">
        <ele>1569</ele>
        <time>2020-02-23T09:40:51.000Z</time>
      </trkpt>
      <trkpt lat="45.15699" lon="5.63654">
        <ele>1577.2</ele>
        <time>2020-02-23T09:41:01.000Z</time>
      </trkpt>
      <trkpt lat="45.15697" lon="5.63646">
        <ele>1577.7</ele>
        <time>2020-02-23T09:41:11.000Z</time>
      </trkpt>
      <trkpt lat="45.15696" lon="5.63644">
        <ele>1577.9</ele>
        <time>2020-02-23T09:41:21.000Z</time>
      </trkpt>
      <trkpt lat="45.15693" lon="5.6364">
        <ele>1578.4</ele>
        <time>2020-02-23T09:41:31.000Z</time>
      </trkpt>
      <trkpt lat="45.1569" lon="5.63639">
        <ele>1573</ele>
        <time>2020-02-23T09:41:07.000Z</time>
      </trkpt>
      <trkpt lat="45.15683" lon="5.63638">
        <ele>1579.7</ele>
        <time>2020-02-23T09:41:17.000Z</time>
      </trkpt>
      <trkpt lat="45.15681" lon="5.63639">
        <ele>1579.9</ele>
        <time>2020-02-23T09:41:27.000Z</time>
      </trkpt>
      <trkpt lat="45.15672" lon="5.63646">
        <ele>1579</ele>
        <time>2020-02-23T09:41:23.000Z</time>
      </trkpt>
      <trkpt lat="45.15668" lon="5.63648">
        <ele>1581.1</ele>
        <time>2020-02-23T09:41:33.000Z</time>
      </trkpt>
      <trkpt lat="45.15658" lon="5.63647">
        <ele>1594.4</ele>
        <time>2020-02-23T09:41:43.000Z</time>
      </trkpt>
      <trkpt lat="45.15649" lon="5.6365">
        <ele>1591</ele>
        <time>2020-02-23T09:42:04.000Z</time>
      </trkpt>
      <trkpt lat="45.15642" lon="5.63659">
        <ele>1596.3</ele>
        <time>2020-02-23T09:42:14.000Z</time>
      </trkpt>
      <trkpt lat="45.15628" lon="5.63662">
        <ele>1591</ele>
        <time>2020-02-23T09:42:33.000Z</time>
      </trkpt>
      <trkpt lat="45.15625" lon="5.63661">
        <ele>1600.7</ele>
        <time>2020-02-23T09:42:43.000Z</time>
      </trkpt>
      <trkpt lat="45.1562" lon="5.63659">
        <ele>1601.9</ele>
        <time>2020-02-23T09:42:53.000Z</time>
      </trkpt>
      <trkpt lat="45.15616" lon="5.63655">
        <ele>1602.9</ele>
        <time>2020-02-23T09:43:03.000Z</time>
      </trkpt>
      <trkpt lat="45.15614" lon="5.63647">
        <ele>1603.4</ele>
        <time>2020-02-23T09:43:13.000Z</time>
      </trkpt>
      <trkpt lat="45.15609" lon="5.63626">
        <ele>1602</ele>
        <time>2020-02-23T09:43:14.000Z</time>
      </trkpt>
      <trkpt lat="45.15606" lon="5.63619">
        <ele>1605.9</ele>
        <time>2020-02-23T09:43:24.000Z</time>
      </trkpt>
      <trkpt lat="45.15603" lon="5.63601">
        <ele>1608.8</ele>
        <time>2020-02-23T09:43:34.000Z</time>
      </trkpt>
      <trkpt lat="45.15602" lon="5.63569">
        <ele>1611</ele>
        <time>2020-02-23T09:43:49.000Z</time>
      </trkpt>
      <trkpt lat="45.156" lon="5.63555">
        <ele>1616.5</ele>
        <time>2020-02-23T09:43:59.000Z</time>
      </trkpt>
      <trkpt lat="45.15599" lon="5.63552">
        <ele>1616.7</ele>
        <time>2020-02-23T09:44:09.000Z</time>
      </trkpt>
      <trkpt lat="45.15593" lon="5.63543">
        <ele>1620</ele>
        <time>2020-02-23T09:44:05.000Z</time>
      </trkpt>
      <trkpt lat="45.15588" lon="5.63539">
        <ele>1618.4</ele>
        <time>2020-02-23T09:44:15.000Z</time>
      </trkpt>
      <trkpt lat="45.15587" lon="5.63537">
        <ele>1618.7</ele>
        <time>2020-02-23T09:44:25.000Z</time>
      </trkpt>
      <trkpt lat="45.15584" lon="5.63535">
        <ele>1619.1</ele>
        <time>2020-02-23T09:44:35.000Z</time>
      </trkpt>
      <trkpt lat="45.15576" lon="5.63528">
        <ele>1620</ele>
        <time>2020-02-23T09:44:25.000Z</time>
      </trkpt>
      <trkpt lat="45.15576" lon="5.63514">
        <ele>1632.6</ele>
        <time>2020-02-23T09:44:35.000Z</time>
      </trkpt>
      <trkpt lat="45.15585" lon="5.63508">
        <ele>1618</ele>
        <time>2020-02-23T09:44:41.000Z</time>
      </trkpt>
      <trkpt lat="45.15604" lon="5.63504">
        <ele>1621</ele>
        <time>2020-02-23T09:44:51.000Z</time>
      </trkpt>
      <trkpt lat="45.15622" lon="5.63503">
        <ele>1617</ele>
        <time>2020-02-23T09:45:28.000Z</time>
      </trkpt>
      <trkpt lat="45.15624" lon="5.63503">
        <ele>1616.6</ele>
        <time>2020-02-23T09:45:38.000Z</time>
      </trkpt>
      <trkpt lat="45.15634" lon="5.63508">
        <ele>1614.8</ele>
        <time>2020-02-23T09:45:48.000Z</time>
      </trkpt>
      <trkpt lat="45.15636" lon="5.63508">
        <ele>1614.5</ele>
        <time>2020-02-23T09:45:58.000Z</time>
      </trkpt>
      <trkpt lat="45.1564" lon="5.63504">
        <ele>1614</ele>
        <time>2020-02-23T09:46:08.000Z</time>
      </trkpt>
      <trkpt lat="45.15641" lon="5.63501">
        <ele>1616</ele>
        <time>2020-02-23T09:45:48.000Z</time>
      </trkpt>
      <trkpt lat="45.15642" lon="5.63495">
        <ele>1612</ele>
        <time>2020-02-23T09:45:58.000Z</time>
      </trkpt>
      <trkpt lat="45.15642" lon="5.63492">
        <ele>1611.9</ele>
        <time>2020-02-23T09:46:08.000Z</time>
      </trkpt>
      <trkpt lat="45.15638" lon="5.63483">
        <ele>1611.8</ele>
        <time>2020-02-23T09:46:18.000Z</time>
      </trkpt>
      <trkpt lat="45.15636" lon="5.63481">
        <ele>1611.9</ele>
        <time>2020-02-23T09:46:28.000Z</time>
      </trkpt>
      <trkpt lat="45.15631" lon="5.63478">
        <ele>1615</ele>
        <time>2020-02-23T09:46:07.000Z</time>
      </trkpt>
      <trkpt lat="45.15625" lon="5.63472">
        <ele>1612.5</ele>
        <time>2020-02-23T09:46:17.000Z</time>
      </trkpt>
      <trkpt lat="45.15616" lon="5.63467">
        <ele>1613.3</ele>
        <time>2020-02-23T09:46:27.000Z</time>
      </trkpt>
      <trkpt lat="45.15591" lon="5.6346">
        <ele>1615</ele>
        <time>2020-02-23T09:46:43.000Z</time>
      </trkpt>
      <trkpt lat="45.15588" lon="5.63461">
        <ele>1615.7</ele>
        <time>2020-02-23T09:46:53.000Z</time>
      </trkpt>
      <trkpt lat="45.15579" lon="5.6346">
        <ele>1631</ele>
        <time>2020-02-23T09:47:03.000Z</time>
      </trkpt>
      <trkpt lat="45.1557" lon="5.63461">
        <ele>1615</ele>
        <time>2020-02-23T09:47:01.000Z</time>
      </trkpt>
      <trkpt lat="45.15555" lon="5.63467">
        <ele>1634</ele>
        <time>2020-02-23T09:47:11.000Z</time>
      </trkpt>
      <trkpt lat="45.15547" lon="5.63466">
        <ele>1616</ele>
        <time>2020-02-23T09:47:26.000Z</time>
      </trkpt>
      <trkpt lat="45.15537" lon="5.63463">
        <ele>1636.3</ele>
        <time>2020-02-23T09:47:36.000Z</time>
      </trkpt>
      <trkpt lat="45.15523" lon="5.63461">
        <ele>1616</ele>
        <time>2020-02-23T09:47:46.000Z</time>
      </trkpt>
      <trkpt lat="45.15515" lon="5.63461">
        <ele>1639.1</ele>
        <time>2020-02-23T09:47:56.000Z</time>
      </trkpt>
      <trkpt lat="45.155" lon="5.63465">
        <ele>1624</ele>
        <time>2020-02-23T09:48:06.000Z</time>
      </trkpt>
      <trkpt lat="45.15497" lon="5.63465">
        <ele>1651.2</ele>
        <time>2020-02-23T09:48:16.000Z</time>
      </trkpt>
      <trkpt lat="45.15491" lon="5.63462">
        <ele>1651.1</ele>
        <time>2020-02-23T09:48:26.000Z</time>
      </trkpt>
      <trkpt lat="45.15488" lon="5.63462">
        <ele>1651.2</ele>
        <time>2020-02-23T09:48:36.000Z</time>
      </trkpt>
      <trkpt lat="45.15483" lon="5.63462">
        <ele>1651.3</ele>
        <time>2020-02-23T09:48:46.000Z</time>
      </trkpt>
      <trkpt lat="45.15476" lon="5.63464">
        <ele>1635</ele>
        <time>2020-02-23T09:48:32.000Z</time>
      </trkpt>
      <trkpt lat="45.1547" lon="5.63467">
        <ele>1652.3</ele>
        <time>2020-02-23T09:48:42.000Z</time>
      </trkpt>
      <trkpt lat="45.15464" lon="5.63472">
        <ele>1653</ele>
        <time>2020-02-23T09:48:52.000Z</time>
      </trkpt>
      <trkpt lat="45.15461" lon="5.63473">
        <ele>1653.2</ele>
        <time>2020-02-23T09:49:02.000Z</time>
      </trkpt>
      <trkpt lat="45.15454" lon="5.63473">
        <ele>1637</ele>
        <time>2020-02-23T09:48:57.000Z</time>
      </trkpt>
      <trkpt lat="45.15452" lon="5.63475">
        <ele>1654</ele>
        <time>2020-02-23T09:49:07.000Z</time>
      </trkpt>
      <trkpt lat="45.15426" lon="5.63493">
        <ele>1644</ele>
        <time>2020-02-23T09:49:24.000Z</time>
      </trkpt>
      <trkpt lat="45.15421" lon="5.63495">
        <ele>1661.2</ele>
        <time>2020-02-23T09:49:34.000Z</time>
      </trkpt>
      <trkpt lat="45.15411" lon="5.635">
        <ele>1664.3</ele>
        <time>2020-02-23T09:49:44.000Z</time>
      </trkpt>
      <trkpt lat="45.15395" lon="5.63503">
        <ele>1651</ele>
        <time>2020-02-23T09:49:49.000Z</time>
      </trkpt>
      <trkpt lat="45.15383" lon="5.63509">
        <ele>1669.2</ele>
        <time>2020-02-23T09:49:59.000Z</time>
      </trkpt>
      <trkpt lat="45.15379" lon="5.63513">
        <ele>1669.8</ele>
        <time>2020-02-23T09:50:09.000Z</time>
      </trkpt>
      <trkpt lat="45.15368" lon="5.63524">
        <ele>1655</ele>
        <time>2020-02-23T09:50:21.000Z</time>
      </trkpt>
      <trkpt lat="45.15355" lon="5.63534">
        <ele>1672.7</ele>
        <time>2020-02-23T09:50:31.000Z</time>
      </trkpt>
      <trkpt lat="45.15349" lon="5.63539">
        <ele>1666</ele>
        <time>2020-02-23T09:50:42.000Z</time>
      </trkpt>
      <trkpt lat="45.15345" lon="5.63542">
        <ele>1673.5</ele>
        <time>2020-02-23T09:50:52.000Z</time>
      </trkpt>
      <trkpt lat="45.15338" lon="5.63544">
        <ele>1674.2</ele>
        <time>2020-02-23T09:51:02.000Z</time>
      </trkpt>
      <trkpt lat="45.15334" lon="5.63545">
        <ele>1674.5</ele>
        <time>2020-02-23T09:51:12.000Z</time>
      </trkpt>
      <trkpt lat="45.15326" lon="5.63547">
        <ele>1666</ele>
        <time>2020-02-23T09:51:07.000Z</time>
      </trkpt>
      <trkpt lat="45.15322" lon="5.63547">
        <ele>1695.1</ele>
        <time>2020-02-23T09:51:17.000Z</time>
      </trkpt>
      <trkpt lat="45.15316" lon="5.63549">
        <ele>1695.9</ele>
        <time>2020-02-23T09:51:27.000Z</time>
      </trkpt>
      <trkpt lat="45.15307" lon="5.63548">
        <ele>1681</ele>
        <time>2020-02-23T09:51:28.000Z</time>
      </trkpt>
      <trkpt lat="45.15301" lon="5.63545">
        <ele>1698.8</ele>
        <time>2020-02-23T09:51:38.000Z</time>
      </trkpt>
      <trkpt lat="45.15292" lon="5.63543">
        <ele>1700.5</ele>
        <time>2020-02-23T09:51:48.000Z</time>
      </trkpt>
      <trkpt lat="45.1529" lon="5.63542">
        <ele>1700.9</ele>
        <time>2020-02-23T09:51:58.000Z</time>
      </trkpt>
      <trkpt lat="45.15286" lon="5.63543">
        <ele>1700</ele>
        <time>2020-02-23T09:52:02.000Z</time>
      </trkpt>
      <trkpt lat="45.15282" lon="5.63542">
        <ele>1702.5</ele>
        <time>2020-02-23T09:52:12.000Z</time>
      </trkpt>
      <trkpt lat="45.15275" lon="5.6354">
        <ele>1703.6</ele>
        <time>2020-02-23T09:52:22.000Z</time>
      </trkpt>
      <trkpt lat="45.15273" lon="5.63538">
        <ele>1703.7</ele>
        <time>2020-02-23T09:52:32.000Z</time>
      </trkpt>
      <trkpt lat="45.15261" lon="5.63524">
        <ele>1700</ele>
        <time>2020-02-23T09:52:29.000Z</time>
      </trkpt>
      <trkpt lat="45.15251" lon="5.63515">
        <ele>1704.6</ele>
        <time>2020-02-23T09:52:39.000Z</time>
      </trkpt>
      <trkpt lat="45.15242" lon="5.63505">
        <ele>1700</ele>
        <time>2020-02-23T09:52:45.000Z</time>
      </trkpt>
      <trkpt lat="45.15227" lon="5.63497">
        <ele>1705.9</ele>
        <time>2020-02-23T09:52:55.000Z</time>
      </trkpt>
      <trkpt lat="45.15222" lon="5.63496">
        <ele>1695</ele>
        <time>2020-02-23T09:53:01.000Z</time>
      </trkpt>
      <trkpt lat="45.15217" lon="5.63493">
        <ele>1706.7</ele>
        <time>2020-02-23T09:53:11.000Z</time>
      </trkpt>
      <trkpt lat="45.15201" lon="5.63487">
        <ele>1695</ele>
        <time>2020-02-23T09:53:17.000Z</time>
      </trkpt>
      <trkpt lat="45.15193" lon="5.63484">
        <ele>1710.6</ele>
        <time>2020-02-23T09:53:27.000Z</time>
      </trkpt>
      <trkpt lat="45.15188" lon="5.63482">
        <ele>1711.5</ele>
        <time>2020-02-23T09:53:37.000Z</time>
      </trkpt>
      <trkpt lat="45.15175" lon="5.63481">
        <ele>1696</ele>
        <time>2020-02-23T09:53:37.000Z</time>
      </trkpt>
      <trkpt lat="45.15169" lon="5.63481">
        <ele>1715.3</ele>
        <time>2020-02-23T09:53:47.000Z</time>
      </trkpt>
      <trkpt lat="45.15164" lon="5.6348">
        <ele>1722</ele>
        <time>2020-02-23T09:53:57.000Z</time>
      </trkpt>
      <trkpt lat="45.15155" lon="5.63481">
        <ele>1704</ele>
        <time>2020-02-23T09:53:53.000Z</time>
      </trkpt>
      <trkpt lat="45.15151" lon="5.6348">
        <ele>1721.4</ele>
        <time>2020-02-23T09:54:03.000Z</time>
      </trkpt>
      <trkpt lat="45.1514" lon="5.63482">
        <ele>1721.3</ele>
        <time>2020-02-23T09:54:13.000Z</time>
      </trkpt>
      <trkpt lat="45.15134" lon="5.63486">
        <ele>1704</ele>
        <time>2020-02-23T09:54:13.000Z</time>
      </trkpt>
      <trkpt lat="45.15122" lon="5.6349">
        <ele>1723.2</ele>
        <time>2020-02-23T09:54:23.000Z</time>
      </trkpt>
      <trkpt lat="45.1511" lon="5.63493">
        <ele>1707</ele>
        <time>2020-02-23T09:54:33.000Z</time>
      </trkpt>
      <trkpt lat="45.15096" lon="5.63494">
        <ele>1730.3</ele>
        <time>2020-02-23T09:54:43.000Z</time>
      </trkpt>
      <trkpt lat="45.15084" lon="5.63499">
        <ele>1710</ele>
        <time>2020-02-23T09:54:53.000Z</time>
      </trkpt>
      <trkpt lat="45.15079" lon="5.63498">
        <ele>1737</ele>
        <time>2020-02-23T09:55:03.000Z</time>
      </trkpt>
      <trkpt lat="45.15073" lon="5.635">
        <ele>1734.4</ele>
        <time>2020-02-23T09:55:13.000Z</time>
      </trkpt>
      <trkpt lat="45.15061" lon="5.63505">
        <ele>1720</ele>
        <time>2020-02-23T09:55:15.000Z</time>
      </trkpt>
      <trkpt lat="45.15055" lon="5.63509">
        <ele>1753.4</ele>
        <time>2020-02-23T09:55:25.000Z</time>
      </trkpt>
      <trkpt lat="45.15047" lon="5.63512">
        <ele>1754.6</ele>
        <time>2020-02-23T09:55:35.000Z</time>
      </trkpt>
      <trkpt lat="45.15039" lon="5.63518">
        <ele>1726</ele>
        <time>2020-02-23T09:55:44.000Z</time>
      </trkpt>
      <trkpt lat="45.1503" lon="5.63522">
        <ele>1756.2</ele>
        <time>2020-02-23T09:55:54.000Z</time>
      </trkpt>
      <trkpt lat="45.15026" lon="5.63524">
        <ele>1756.4</ele>
        <time>2020-02-23T09:56:04.000Z</time>
      </trkpt>
      <trkpt lat="45.15024" lon="5.63525">
        <ele>1756.5</ele>
        <time>2020-02-23T09:56:14.000Z</time>
      </trkpt>
      <trkpt lat="45.15017" lon="5.63524">
        <ele>1734</ele>
        <time>2020-02-23T09:56:15.000Z</time>
      </trkpt>
      <trkpt lat="45.15015" lon="5.63524">
        <ele>1755.4</ele>
        <time>2020-02-23T09:56:25.000Z</time>
      </trkpt>
      <trkpt lat="45.15013" lon="5.63525">
        <ele>1755.5</ele>
        <time>2020-02-23T09:56:35.000Z</time>
      </trkpt>
      <trkpt lat="45.15011" lon="5.63527">
        <ele>1756</ele>
        <time>2020-02-23T09:56:45.000Z</time>
      </trkpt>
      <trkpt lat="45.15004" lon="5.63528">
        <ele>1756</ele>
        <time>2020-02-23T09:56:55.000Z</time>
      </trkpt>
      <trkpt lat="45.14988" lon="5.63532">
        <ele>1743</ele>
        <time>2020-02-23T09:56:49.000Z</time>
      </trkpt>
      <trkpt lat="45.1498" lon="5.63536">
        <ele>1759.3</ele>
        <time>2020-02-23T09:56:59.000Z</time>
      </trkpt>
      <trkpt lat="45.14971" lon="5.63541">
        <ele>1760.8</ele>
        <time>2020-02-23T09:57:09.000Z</time>
      </trkpt>
      <trkpt lat="45.14968" lon="5.63544">
        <ele>1743</ele>
        <time>2020-02-23T09:57:08.000Z</time>
      </trkpt>
      <trkpt lat="45.14964" lon="5.63548">
        <ele>1762.3</ele>
        <time>2020-02-23T09:57:18.000Z</time>
      </trkpt>
      <trkpt lat="45.14961" lon="5.63556">
        <ele>1763.8</ele>
        <time>2020-02-23T09:57:28.000Z</time>
      </trkpt>
      <trkpt lat="45.1496" lon="5.63558">
        <ele>1764.1</ele>
        <time>2020-02-23T09:57:38.000Z</time>
      </trkpt>
      <trkpt lat="45.14958" lon="5.63564">
        <ele>1765.1</ele>
        <time>2020-02-23T09:57:48.000Z</time>
      </trkpt>
      <trkpt lat="45.14956" lon="5.63566">
        <ele>1755</ele>
        <time>2020-02-23T09:57:33.000Z</time>
      </trkpt>
      <trkpt lat="45.14953" lon="5.63574">
        <ele>1766.4</ele>
        <time>2020-02-23T09:57:43.000Z</time>
      </trkpt>
      <trkpt lat="45.14948" lon="5.63581">
        <ele>1767.2</ele>
        <time>2020-02-23T09:57:53.000Z</time>
      </trkpt>
      <trkpt lat="45.14944" lon="5.63589">
        <ele>1759</ele>
        <time>2020-02-23T09:58:01.000Z</time>
      </trkpt>
      <trkpt lat="45.14942" lon="5.63591">
        <ele>1789.3</ele>
        <time>2020-02-23T09:58:11.000Z</time>
      </trkpt>
      <trkpt lat="45.14935" lon="5.63602">
        <ele>1790.6</ele>
        <time>2020-02-23T09:58:21.000Z</time>
      </trkpt>
      <trkpt lat="45.14932" lon="5.63605">
        <ele>1791.1</ele>
        <time>2020-02-23T09:58:31.000Z</time>
      </trkpt>
      <trkpt lat="45.14926" lon="5.63613">
        <ele>1764</ele>
        <time>2020-02-23T09:58:38.000Z</time>
      </trkpt>
      <trkpt lat="45.14911" lon="5.6363">
        <ele>1794.5</ele>
        <time>2020-02-23T09:58:48.000Z</time>
      </trkpt>
      <trkpt lat="45.14894" lon="5.63639">
        <ele>1778</ele>
        <time>2020-02-23T09:59:20.000Z</time>
      </trkpt>
      <trkpt lat="45.14878" lon="5.63646">
        <ele>1795.3</ele>
        <time>2020-02-23T09:59:30.000Z</time>
      </trkpt>
      <trkpt lat="45.14857" lon="5.63659">
        <ele>1785</ele>
        <time>2020-02-23T09:59:54.000Z</time>
      </trkpt>
      <trkpt lat="45.14853" lon="5.6366">
        <ele>1796.2</ele>
        <time>2020-02-23T10:00:04.000Z</time>
      </trkpt>
      <trkpt lat="45.14848" lon="5.63662">
        <ele>1796.9</ele>
        <time>2020-02-23T10:00:14.000Z</time>
      </trkpt>
      <trkpt lat="45.14841" lon="5.63669">
        <ele>1806.7</ele>
        <time>2020-02-23T10:00:24.000Z</time>
      </trkpt>
      <trkpt lat="45.14835" lon="5.63672">
        <ele>1794</ele>
        <time>2020-02-23T10:00:19.000Z</time>
      </trkpt>
      <trkpt lat="45.14821" lon="5.63683">
        <ele>1806.9</ele>
        <time>2020-02-23T10:00:29.000Z</time>
      </trkpt>
      <trkpt lat="45.14818" lon="5.63687">
        <ele>1798</ele>
        <time>2020-02-23T10:00:41.000Z</time>
      </trkpt>
      <trkpt lat="45.14813" lon="5.63697">
        <ele>1809.7</ele>
        <time>2020-02-23T10:00:51.000Z</time>
      </trkpt>
      <trkpt lat="45.14809" lon="5.63712">
        <ele>1803</ele>
        <time>2020-02-23T10:01:03.000Z</time>
      </trkpt>
      <trkpt lat="45.14808" lon="5.63721">
        <ele>1813.9</ele>
        <time>2020-02-23T10:01:13.000Z</time>
      </trkpt>
      <trkpt lat="45.14809" lon="5.63729">
        <ele>1815.3</ele>
        <time>2020-02-23T10:01:23.000Z</time>
      </trkpt>
      <trkpt lat="45.1481" lon="5.63732">
        <ele>1815.9</ele>
        <time>2020-02-23T10:01:33.000Z</time>
      </trkpt>
      <trkpt lat="45.14812" lon="5.63734">
        <ele>1816.5</ele>
        <time>2020-02-23T10:01:43.000Z</time>
      </trkpt>
      <trkpt lat="45.14821" lon="5.63736">
        <ele>1809</ele>
        <time>2020-02-23T10:01:30.000Z</time>
      </trkpt>
      <trkpt lat="45.14828" lon="5.63736">
        <ele>1819.3</ele>
        <time>2020-02-23T10:01:40.000Z</time>
      </trkpt>
      <trkpt lat="45.14837" lon="5.63736">
        <ele>1823.7</ele>
        <time>2020-02-23T10:01:50.000Z</time>
      </trkpt>
      <trkpt lat="45.14839" lon="5.63736">
        <ele>1823.7</ele>
        <time>2020-02-23T10:02:00.000Z</time>
      </trkpt>
      <trkpt lat="45.14841" lon="5.63738">
        <ele>1809</ele>
        <time>2020-02-23T10:01:51.000Z</time>
      </trkpt>
      <trkpt lat="45.14848" lon="5.63744">
        <ele>1824.4</ele>
        <time>2020-02-23T10:02:01.000Z</time>
      </trkpt>
      <trkpt lat="45.14855" lon="5.63754">
        <ele>1835.1</ele>
        <time>2020-02-23T10:02:11.000Z</time>
      </trkpt>
      <trkpt lat="45.14859" lon="5.63763">
        <ele>1818</ele>
        <time>2020-02-23T10:02:13.000Z</time>
      </trkpt>
      <trkpt lat="45.14861" lon="5.63766">
        <ele>1837.5</ele>
        <time>2020-02-23T10:02:23.000Z</time>
      </trkpt>
      <trkpt lat="45.14867" lon="5.63776">
        <ele>1839.4</ele>
        <time>2020-02-23T10:02:33.000Z</time>
      </trkpt>
      <trkpt lat="45.14873" lon="5.63785">
        <ele>1828</ele>
        <time>2020-02-23T10:02:31.000Z</time>
      </trkpt>
      <trkpt lat="45.14875" lon="5.63787">
        <ele>1841.1</ele>
        <time>2020-02-23T10:02:41.000Z</time>
      </trkpt>
      <trkpt lat="45.14881" lon="5.63789">
        <ele>1841.7</ele>
        <time>2020-02-23T10:02:51.000Z</time>
      </trkpt>
      <trkpt lat="45.14882" lon="5.63792">
        <ele>1842</ele>
        <time>2020-02-23T10:03:01.000Z</time>
      </trkpt>
      <trkpt lat="45.1488" lon="5.63801">
        <ele>1842.6</ele>
        <time>2020-02-23T10:03:11.000Z</time>
      </trkpt>
      <trkpt lat="45.14874" lon="5.6381">
        <ele>1830</ele>
        <time>2020-02-23T10:03:06.000Z</time>
      </trkpt>
      <trkpt lat="45.1487" lon="5.6381">
        <ele>1842.8</ele>
        <time>2020-02-23T10:03:16.000Z</time>
      </trkpt>
      <trkpt lat="45.14872" lon="5.63816">
        <ele>1843.3</ele>
        <time>2020-02-23T10:03:26.000Z</time>
      </trkpt>
      <trkpt lat="45.14872" lon="5.63819">
        <ele>1843.5</ele>
        <time>2020-02-23T10:03:36.000Z</time>
      </trkpt>
      <trkpt lat="45.14872" lon="5.63822">
        <ele>1843.7</ele>
        <time>2020-02-23T10:03:46.000Z</time>
      </trkpt>
      <trkpt lat="45.14869" lon="5.63826">
        <ele>1843.8</ele>
        <time>2020-02-23T10:03:56.000Z</time>
      </trkpt>
      <trkpt lat="45.14868" lon="5.63829">
        <ele>1843.9</ele>
        <time>2020-02-23T10:04:06.000Z</time>
      </trkpt>
      <trkpt lat="45.14868" lon="5.63832">
        <ele>1837</ele>
        <time>2020-02-23T10:03:37.000Z</time>
      </trkpt>
      <trkpt lat="45.1487" lon="5.63834">
        <ele>1853.5</ele>
        <time>2020-02-23T10:03:47.000Z</time>
      </trkpt>
      <trkpt lat="45.1487" lon="5.63837">
        <ele>1853.6</ele>
        <time>2020-02-23T10:03:57.000Z</time>
      </trkpt>
      <trkpt lat="45.14869" lon="5.63845">
        <ele>1854</ele>
        <time>2020-02-23T10:04:07.000Z</time>
      </trkpt>
      <trkpt lat="45.14869" lon="5.63848">
        <ele>1854.2</ele>
        <time>2020-02-23T10:04:17.000Z</time>
      </trkpt>
      <trkpt lat="45.14871" lon="5.63851">
        <ele>1854.5</ele>
        <time>2020-02-23T10:04:27.000Z</time>
      </trkpt>
      <trkpt lat="45.14871" lon="5.63863">
        <ele>1849</ele>
        <time>2020-02-23T10:04:02.000Z</time>
      </trkpt>
      <trkpt lat="45.14872" lon="5.63872">
        <ele>1856.4</ele>
        <time>2020-02-23T10:04:12.000Z</time>
      </trkpt>
      <trkpt lat="45.14873" lon="5.63882">
        <ele>1857.4</ele>
        <time>2020-02-23T10:04:22.000Z</time>
      </trkpt>
      <trkpt lat="45.14877" lon="5.63897">
        <ele>1854</ele>
        <time>2020-02-23T10:04:28.000Z</time>
      </trkpt>
      <trkpt lat="45.14879" lon="5.63899">
        <ele>1858.8</ele>
        <time>2020-02-23T10:04:38.000Z</time>
      </trkpt>
      <trkpt lat="45.1488" lon="5.63906">
        <ele>1859.2</ele>
        <time>2020-02-23T10:04:48.000Z</time>
      </trkpt>
      <trkpt lat="45.14879" lon="5.63915">
        <ele>1859.6</ele>
        <time>2020-02-23T10:04:58.000Z</time>
      </trkpt>
      <trkpt lat="45.14879" lon="5.63918">
        <ele>1864.2</ele>
        <time>2020-02-23T10:05:08.000Z</time>
      </trkpt>
      <trkpt lat="45.1488" lon="5.6392">
        <ele>1864.2</ele>
        <time>2020-02-23T10:05:18.000Z</time>
      </trkpt>
      <trkpt lat="45.14886" lon="5.63928">
        <ele>1856</ele>
        <time>2020-02-23T10:04:56.000Z</time>
      </trkpt>
      <trkpt lat="45.14887" lon="5.63931">
        <ele>1864</ele>
        <time>2020-02-23T10:05:06.000Z</time>
      </trkpt>
      <trkpt lat="45.14889" lon="5.63936">
        <ele>1863.9</ele>
        <time>2020-02-23T10:05:16.000Z</time>
      </trkpt>
      <trkpt lat="45.14891" lon="5.63938">
        <ele>1863.9</ele>
        <time>2020-02-23T10:05:26.000Z</time>
      </trkpt>
      <trkpt lat="45.14889" lon="5.63941">
        <ele>1863.9</ele>
        <time>2020-02-23T10:05:36.000Z</time>
      </trkpt>
      <trkpt lat="45.14876" lon="5.63946">
        <ele>1858</ele>
        <time>2020-02-23T10:05:17.000Z</time>
      </trkpt>
      <trkpt lat="45.14866" lon="5.63953">
        <ele>1864.5</ele>
        <time>2020-02-23T10:05:27.000Z</time>
      </trkpt>
      <trkpt lat="45.1486" lon="5.63956">
        <ele>1864.7</ele>
        <time>2020-02-23T10:05:37.000Z</time>
      </trkpt>
      <trkpt lat="45.14856" lon="5.63958">
        <ele>1858</ele>
        <time>2020-02-23T10:05:35.000Z</time>
      </trkpt>
      <trkpt lat="45.14842" lon="5.63959">
        <ele>1865.2</ele>
        <time>2020-02-23T10:05:45.000Z</time>
      </trkpt>
      <trkpt lat="45.1484" lon="5.63961">
        <ele>1865.2</ele>
        <time>2020-02-23T10:05:55.000Z</time>
      </trkpt>
      <trkpt lat="45.14838" lon="5.63973">
        <ele>1850</ele>
        <time>2020-02-23T10:06:03.000Z</time>
      </trkpt>
      <trkpt lat="45.14837" lon="5.63979">
        <ele>1865.9</ele>
        <time>2020-02-23T10:06:13.000Z</time>
      </trkpt>
      <trkpt lat="45.14837" lon="5.63982">
        <ele>1866.1</ele>
        <time>2020-02-23T10:06:23.000Z</time>
      </trkpt>
      <trkpt lat="45.14835" lon="5.63985">
        <ele>1866.3</ele>
        <time>2020-02-23T10:06:33.000Z</time>
      </trkpt>
      <trkpt lat="45.14833" lon="5.63986">
        <ele>1867.2</ele>
        <time>2020-02-23T10:06:43.000Z</time>
      </trkpt>
      <trkpt lat="45.14831" lon="5.63988">
        <ele>1867.3</ele>
        <time>2020-02-23T10:06:53.000Z</time>
      </trkpt>
      <trkpt lat="45.14829" lon="5.63995">
        <ele>1856</ele>
        <time>2020-02-23T10:06:33.000Z</time>
      </trkpt>
      <trkpt lat="45.14827" lon="5.63997">
        <ele>1867.4</ele>
        <time>2020-02-23T10:06:43.000Z</time>
      </trkpt>
      <trkpt lat="45.14816" lon="5.63988">
        <ele>1866.7</ele>
        <time>2020-02-23T10:06:53.000Z</time>
      </trkpt>
      <trkpt lat="45.14814" lon="5.63983">
        <ele>1866.6</ele>
        <time>2020-02-23T10:07:03.000Z</time>
      </trkpt>
      <trkpt lat="45.14812" lon="5.63982">
        <ele>1853</ele>
        <time>2020-02-23T10:06:59.000Z</time>
      </trkpt>
      <trkpt lat="45.1481" lon="5.63981">
        <ele>1866.5</ele>
        <time>2020-02-23T10:07:09.000Z</time>
      </trkpt>
      <trkpt lat="45.14807" lon="5.63983">
        <ele>1866.3</ele>
        <time>2020-02-23T10:07:19.000Z</time>
      </trkpt>
      <trkpt lat="45.14805" lon="5.63981">
        <ele>1866.2</ele>
        <time>2020-02-23T10:07:29.000Z</time>
      </trkpt>
      <trkpt lat="45.14802" lon="5.63978">
        <ele>1866.2</ele>
        <time>2020-02-23T10:07:39.000Z</time>
      </trkpt>
      <trkpt lat="45.148" lon="5.63978">
        <ele>1866.1</ele>
        <time>2020-02-23T10:07:49.000Z</time>
      </trkpt>
      <trkpt lat="45.14796" lon="5.63971">
        <ele>1861</ele>
        <time>2020-02-23T10:07:27.000Z</time>
      </trkpt>
      <trkpt lat="45.14788" lon="5.63964">
        <ele>1866.5</ele>
        <time>2020-02-23T10:07:37.000Z</time>
      </trkpt>
      <trkpt lat="45.14785" lon="5.6396">
        <ele>1866.8</ele>
        <time>2020-02-23T10:07:47.000Z</time>
      </trkpt>
      <trkpt lat="45.14782" lon="5.63956">
        <ele>1867.2</ele>
        <time>2020-02-23T10:07:57.000Z</time>
      </trkpt>
      <trkpt lat="45.14772" lon="5.63953">
        <ele>1862</ele>
        <time>2020-02-23T10:08:06.000Z</time>
      </trkpt>
      <trkpt lat="45.1476" lon="5.63946">
        <ele>1869.4</ele>
        <time>2020-02-23T10:08:16.000Z</time>
      </trkpt>
      <trkpt lat="45.14756" lon="5.63947">
        <ele>1869.4</ele>
        <time>2020-02-23T10:08:26.000Z</time>
      </trkpt>
      <trkpt lat="45.14751" lon="5.63944">
        <ele>1863</ele>
        <time>2020-02-23T10:08:34.000Z</time>
      </trkpt>
      <trkpt lat="45.14752" lon="5.63943">
        <ele>1870.4</ele>
        <time>2020-02-23T10:08:44.000Z</time>
      </trkpt>
      <trkpt lat="45.14749" lon="5.63943">
        <ele>1864.7</ele>
        <time>2020-02-23T10:08:54.000Z</time>
      </trkpt>
      <trkpt lat="45.14747" lon="5.63942">
        <ele>1865</ele>
        <time>2020-02-23T10:09:04.000Z</time>
      </trkpt>
      <trkpt lat="45.14747" lon="5.63936">
        <ele>1867.4</ele>
        <time>2020-02-23T10:09:14.000Z</time>
      </trkpt>
      <trkpt lat="45.14746" lon="5.63934">
        <ele>1868.2</ele>
        <time>2020-02-23T10:09:24.000Z</time>
      </trkpt>
      <trkpt lat="45.14746" lon="5.63931">
        <ele>1869.7</ele>
        <time>2020-02-23T10:09:34.000Z</time>
      </trkpt>
      <trkpt lat="45.14744" lon="5.63925">
        <ele>1872.2</ele>
        <time>2020-02-23T10:09:44.000Z</time>
      </trkpt>
      <trkpt lat="45.14747" lon="5.63921">
        <ele>1875</ele>
        <time>2020-02-23T10:26:46.000Z</time>
      </trkpt>
      <trkpt lat="45.14751" lon="5.63919">
        <ele>1878.6</ele>
        <time>2020-02-23T10:26:56.000Z</time>
      </trkpt>
      <trkpt lat="45.14753" lon="5.6392">
        <ele>1877.6</ele>
        <time>2020-02-23T10:27:06.000Z</time>
      </trkpt>
      <trkpt lat="45.14757" lon="5.63921">
        <ele>1876</ele>
        <time>2020-02-23T10:27:16.000Z</time>
      </trkpt>
      <trkpt lat="45.14762" lon="5.63919">
        <ele>1874.7</ele>
        <time>2020-02-23T10:27:26.000Z</time>
      </trkpt>
      <trkpt lat="45.14766" lon="5.63919">
        <ele>1875</ele>
        <time>2020-02-23T10:27:15.000Z</time>
      </trkpt>
      <trkpt lat="45.14768" lon="5.6392">
        <ele>1872.9</ele>
        <time>2020-02-23T10:27:25.000Z</time>
      </trkpt>
      <trkpt lat="45.14782" lon="5.63922">
        <ele>1870.3</ele>
        <time>2020-02-23T10:27:35.000Z</time>
      </trkpt>
      <trkpt lat="45.14793" lon="5.63929">
        <ele>1872</ele>
        <time>2020-02-23T10:27:47.000Z</time>
      </trkpt>
      <trkpt lat="45.148" lon="5.6393">
        <ele>1868.2</ele>
        <time>2020-02-23T10:27:57.000Z</time>
      </trkpt>
      <trkpt lat="45.14804" lon="5.63928">
        <ele>1868</ele>
        <time>2020-02-23T10:28:07.000Z</time>
      </trkpt>
      <trkpt lat="45.14806" lon="5.63928">
        <ele>1867.9</ele>
        <time>2020-02-23T10:28:17.000Z</time>
      </trkpt>
      <trkpt lat="45.1481" lon="5.63931">
        <ele>1867.6</ele>
        <time>2020-02-23T10:28:27.000Z</time>
      </trkpt>
      <trkpt lat="45.14812" lon="5.63933">
        <ele>1870</ele>
        <time>2020-02-23T10:28:22.000Z</time>
      </trkpt>
      <trkpt lat="45.14815" lon="5.63934">
        <ele>1867.3</ele>
        <time>2020-02-23T10:28:32.000Z</time>
      </trkpt>
      <trkpt lat="45.14821" lon="5.63934">
        <ele>1867.1</ele>
        <time>2020-02-23T10:28:42.000Z</time>
      </trkpt>
      <trkpt lat="45.14823" lon="5.63935">
        <ele>1867.1</ele>
        <time>2020-02-23T10:28:52.000Z</time>
      </trkpt>
      <trkpt lat="45.14829" lon="5.63932">
        <ele>1866.9</ele>
        <time>2020-02-23T10:29:02.000Z</time>
      </trkpt>
      <trkpt lat="45.14827" lon="5.63927">
        <ele>1870</ele>
        <time>2020-02-23T10:29:11.000Z</time>
      </trkpt>
      <trkpt lat="45.14825" lon="5.63923">
        <ele>1866.8</ele>
        <time>2020-02-23T10:29:21.000Z</time>
      </trkpt>
      <trkpt lat="45.14821" lon="5.63914">
        <ele>1864.4</ele>
        <time>2020-02-23T10:29:31.000Z</time>
      </trkpt>
      <trkpt lat="45.1482" lon="5.63912">
        <ele>1864.3</ele>
        <time>2020-02-23T10:29:41.000Z</time>
      </trkpt>
      <trkpt lat="45.14813" lon="5.63911">
        <ele>1870</ele>
        <time>2020-02-23T10:29:31.000Z</time>
      </trkpt>
      <trkpt lat="45.14806" lon="5.63907">
        <ele>1863.9</ele>
        <time>2020-02-23T10:29:41.000Z</time>
      </trkpt>
      <trkpt lat="45.14801" lon="5.63905">
        <ele>1864</ele>
        <time>2020-02-23T10:29:51.000Z</time>
      </trkpt>
      <trkpt lat="45.14796" lon="5.63902">
        <ele>1864.1</ele>
        <time>2020-02-23T10:30:01.000Z</time>
      </trkpt>
      <trkpt lat="45.14784" lon="5.63891">
        <ele>1869</ele>
        <time>2020-02-23T10:29:55.000Z</time>
      </trkpt>
      <trkpt lat="45.14776" lon="5.6388">
        <ele>1862.8</ele>
        <time>2020-02-23T10:30:05.000Z</time>
      </trkpt>
      <trkpt lat="45.14764" lon="5.63869">
        <ele>1868</ele>
        <time>2020-02-23T10:30:09.000Z</time>
      </trkpt>
      <trkpt lat="45.14755" lon="5.63861">
        <ele>1859.6</ele>
        <time>2020-02-23T10:30:19.000Z</time>
      </trkpt>
      <trkpt lat="45.14742" lon="5.6385">
        <ele>1868</ele>
        <time>2020-02-23T10:30:19.000Z</time>
      </trkpt>
      <trkpt lat="45.14732" lon="5.6384">
        <ele>1860.8</ele>
        <time>2020-02-23T10:30:29.000Z</time>
      </trkpt>
      <trkpt lat="45.14728" lon="5.63838">
        <ele>1861.6</ele>
        <time>2020-02-23T10:30:39.000Z</time>
      </trkpt>
      <trkpt lat="45.14718" lon="5.63837">
        <ele>1858</ele>
        <time>2020-02-23T10:30:36.000Z</time>
      </trkpt>
      <trkpt lat="45.14706" lon="5.63829">
        <ele>1849.1</ele>
        <time>2020-02-23T10:30:46.000Z</time>
      </trkpt>
      <trkpt lat="45.14693" lon="5.63822">
        <ele>1855</ele>
        <time>2020-02-23T10:31:00.000Z</time>
      </trkpt>
      <trkpt lat="45.14685" lon="5.63817">
        <ele>1851.7</ele>
        <time>2020-02-23T10:31:10.000Z</time>
      </trkpt>
      <trkpt lat="45.1466" lon="5.63807">
        <ele>1842</ele>
        <time>2020-02-23T10:31:15.000Z</time>
      </trkpt>
      <trkpt lat="45.14652" lon="5.63805">
        <ele>1851.5</ele>
        <time>2020-02-23T10:31:25.000Z</time>
      </trkpt>
      <trkpt lat="45.14628" lon="5.63797">
        <ele>1825</ele>
        <time>2020-02-23T10:31:27.000Z</time>
      </trkpt>
      <trkpt lat="45.14611" lon="5.63796">
        <ele>1848</ele>
        <time>2020-02-23T10:31:37.000Z</time>
      </trkpt>
      <trkpt lat="45.14595" lon="5.63793">
        <ele>1824</ele>
        <time>2020-02-23T10:31:39.000Z</time>
      </trkpt>
      <trkpt lat="45.14586" lon="5.6379">
        <ele>1846.3</ele>
        <time>2020-02-23T10:31:49.000Z</time>
      </trkpt>
      <trkpt lat="45.14573" lon="5.6379">
        <ele>1824</ele>
        <time>2020-02-23T10:31:48.000Z</time>
      </trkpt>
      <trkpt lat="45.14556" lon="5.63796">
        <ele>1841</ele>
        <time>2020-02-23T10:31:58.000Z</time>
      </trkpt>
      <trkpt lat="45.14545" lon="5.63802">
        <ele>1818</ele>
        <time>2020-02-23T10:31:58.000Z</time>
      </trkpt>
      <trkpt lat="45.14534" lon="5.63805">
        <ele>1840.2</ele>
        <time>2020-02-23T10:32:08.000Z</time>
      </trkpt>
      <trkpt lat="45.1452" lon="5.63813">
        <ele>1818</ele>
        <time>2020-02-23T10:32:07.000Z</time>
      </trkpt>
      <trkpt lat="45.14509" lon="5.63815">
        <ele>1840.1</ele>
        <time>2020-02-23T10:32:17.000Z</time>
      </trkpt>
      <trkpt lat="45.14501" lon="5.63817">
        <ele>1814</ele>
        <time>2020-02-23T10:32:14.000Z</time>
      </trkpt>
      <trkpt lat="45.1449" lon="5.63816">
        <ele>1835.2</ele>
        <time>2020-02-23T10:32:24.000Z</time>
      </trkpt>
      <trkpt lat="45.14479" lon="5.63816">
        <ele>1812</ele>
        <time>2020-02-23T10:32:22.000Z</time>
      </trkpt>
      <trkpt lat="45.14474" lon="5.63815">
        <ele>1833.3</ele>
        <time>2020-02-23T10:32:32.000Z</time>
      </trkpt>
      <trkpt lat="45.14466" lon="5.63815">
        <ele>1832.7</ele>
        <time>2020-02-23T10:32:42.000Z</time>
      </trkpt>
      <trkpt lat="45.14458" lon="5.63814">
        <ele>1809</ele>
        <time>2020-02-23T10:32:30.000Z</time>
      </trkpt>
      <trkpt lat="45.14446" lon="5.63807">
        <ele>1831.3</ele>
        <time>2020-02-23T10:32:40.000Z</time>
      </trkpt>
      <trkpt lat="45.14439" lon="5.63802">
        <ele>1801</ele>
        <time>2020-02-23T10:32:38.000Z</time>
      </trkpt>
      <trkpt lat="45.14427" lon="5.63794">
        <ele>1829.7</ele>
        <time>2020-02-23T10:32:48.000Z</time>
      </trkpt>
      <trkpt lat="45.14425" lon="5.63791">
        <ele>1829.2</ele>
        <time>2020-02-23T10:32:58.000Z</time>
      </trkpt>
      <trkpt lat="45.14416" lon="5.63783">
        <ele>1801</ele>
        <time>2020-02-23T10:32:51.000Z</time>
      </trkpt>
      <trkpt lat="45.14408" lon="5.63778">
        <ele>1826.3</ele>
        <time>2020-02-23T10:33:01.000Z</time>
      </trkpt>
      <trkpt lat="45.14401" lon="5.63773">
        <ele>1826</ele>
        <time>2020-02-23T10:33:11.000Z</time>
      </trkpt>
      <trkpt lat="45.14389" lon="5.63764">
        <ele>1792</ele>
        <time>2020-02-23T10:33:05.000Z</time>
      </trkpt>
      <trkpt lat="45.14384" lon="5.63762">
        <ele>1826.3</ele>
        <time>2020-02-23T10:33:15.000Z</time>
      </trkpt>
      <trkpt lat="45.14375" lon="5.63758">
        <ele>1826.8</ele>
        <time>2020-02-23T10:33:25.000Z</time>
      </trkpt>
      <trkpt lat="45.14369" lon="5.63753">
        <ele>1791</ele>
        <time>2020-02-23T10:33:14.000Z</time>
      </trkpt>
      <trkpt lat="45.14358" lon="5.63744">
        <ele>1817.7</ele>
        <time>2020-02-23T10:33:24.000Z</time>
      </trkpt>
      <trkpt lat="45.1435" lon="5.63741">
        <ele>1791</ele>
        <time>2020-02-23T10:33:22.000Z</time>
      </trkpt>
      <trkpt lat="45.1434" lon="5.63734">
        <ele>1819.5</ele>
        <time>2020-02-23T10:33:32.000Z</time>
      </trkpt>
      <trkpt lat="45.14321" lon="5.63727">
        <ele>1797</ele>
        <time>2020-02-23T10:33:33.000Z</time>
      </trkpt>
      <trkpt lat="45.14315" lon="5.63725">
        <ele>1822</ele>
        <time>2020-02-23T10:33:43.000Z</time>
      </trkpt>
      <trkpt lat="45.14287" lon="5.63704">
        <ele>1820</ele>
        <time>2020-02-23T10:33:47.000Z</time>
      </trkpt>
      <trkpt lat="45.14282" lon="5.63699">
        <ele>1818.9</ele>
        <time>2020-02-23T10:33:57.000Z</time>
      </trkpt>
      <trkpt lat="45.14278" lon="5.63695">
        <ele>1818.3</ele>
        <time>2020-02-23T10:34:07.000Z</time>
      </trkpt>
      <trkpt lat="45.14274" lon="5.63692">
        <ele>1817.9</ele>
        <time>2020-02-23T10:34:17.000Z</time>
      </trkpt>
      <trkpt lat="45.14264" lon="5.63687">
        <ele>1822</ele>
        <time>2020-02-23T10:33:59.000Z</time>
      </trkpt>
      <trkpt lat="45.14254" lon="5.63679">
        <ele>1814.3</ele>
        <time>2020-02-23T10:34:09.000Z</time>
      </trkpt>
      <trkpt lat="45.14243" lon="5.63674">
        <ele>1822</ele>
        <time>2020-02-23T10:34:09.000Z</time>
      </trkpt>
      <trkpt lat="45.14215" lon="5.63658">
        <ele>1817</ele>
        <time>2020-02-23T10:34:20.000Z</time>
      </trkpt>
      <trkpt lat="45.14201" lon="5.63652">
        <ele>1802.5</ele>
        <time>2020-02-23T10:34:30.000Z</time>
      </trkpt>
      <trkpt lat="45.14195" lon="5.6365">
        <ele>1816</ele>
        <time>2020-02-23T10:34:27.000Z</time>
      </trkpt>
      <trkpt lat="45.14175" lon="5.63643">
        <ele>1813</ele>
        <time>2020-02-23T10:34:34.000Z</time>
      </trkpt>
      <trkpt lat="45.14162" lon="5.63637">
        <ele>1794.4</ele>
        <time>2020-02-23T10:34:44.000Z</time>
      </trkpt>
      <trkpt lat="45.14141" lon="5.63631">
        <ele>1808</ele>
        <time>2020-02-23T10:34:47.000Z</time>
      </trkpt>
      <trkpt lat="45.14114" lon="5.63617">
        <ele>1795</ele>
        <time>2020-02-23T10:34:58.000Z</time>
      </trkpt>
      <trkpt lat="45.14094" lon="5.63614">
        <ele>1795</ele>
        <time>2020-02-23T10:35:06.000Z</time>
      </trkpt>
      <trkpt lat="45.14089" lon="5.63611">
        <ele>1784.3</ele>
        <time>2020-02-23T10:35:16.000Z</time>
      </trkpt>
      <trkpt lat="45.14082" lon="5.63606">
        <ele>1776.8</ele>
        <time>2020-02-23T10:35:26.000Z</time>
      </trkpt>
      <trkpt lat="45.14068" lon="5.63591">
        <ele>1795</ele>
        <time>2020-02-23T10:35:17.000Z</time>
      </trkpt>
      <trkpt lat="45.14056" lon="5.6358">
        <ele>1786.5</ele>
        <time>2020-02-23T10:35:27.000Z</time>
      </trkpt>
      <trkpt lat="45.1404" lon="5.63564">
        <ele>1789</ele>
        <time>2020-02-23T10:35:29.000Z</time>
      </trkpt>
      <trkpt lat="45.14036" lon="5.63561">
        <ele>1785.6</ele>
        <time>2020-02-23T10:35:39.000Z</time>
      </trkpt>
      <trkpt lat="45.14021" lon="5.63546">
        <ele>1785</ele>
        <time>2020-02-23T10:35:37.000Z</time>
      </trkpt>
      <trkpt lat="45.14014" lon="5.63541">
        <ele>1783.6</ele>
        <time>2020-02-23T10:35:47.000Z</time>
      </trkpt>
      <trkpt lat="45.14001" lon="5.63538">
        <ele>1781</ele>
        <time>2020-02-23T10:35:45.000Z</time>
      </trkpt>
      <trkpt lat="45.13995" lon="5.63535">
        <ele>1780.7</ele>
        <time>2020-02-23T10:35:55.000Z</time>
      </trkpt>
      <trkpt lat="45.13993" lon="5.63533">
        <ele>1780.4</ele>
        <time>2020-02-23T10:36:05.000Z</time>
      </trkpt>
      <trkpt lat="45.13991" lon="5.63529">
        <ele>1779.8</ele>
        <time>2020-02-23T10:36:15.000Z</time>
      </trkpt>
      <trkpt lat="45.13989" lon="5.63521">
        <ele>1778.7</ele>
        <time>2020-02-23T10:36:25.000Z</time>
      </trkpt>
      <trkpt lat="45.13986" lon="5.63509">
        <ele>1780</ele>
        <time>2020-02-23T10:35:54.000Z</time>
      </trkpt>
      <trkpt lat="45.13984" lon="5.63503">
        <ele>1777.2</ele>
        <time>2020-02-23T10:36:04.000Z</time>
      </trkpt>
      <trkpt lat="45.13981" lon="5.63497">
        <ele>1770.2</ele>
        <time>2020-02-23T10:36:14.000Z</time>
      </trkpt>
      <trkpt lat="45.13979" lon="5.63495">
        <ele>1769.9</ele>
        <time>2020-02-23T10:36:24.000Z</time>
      </trkpt>
      <trkpt lat="45.13969" lon="5.63489">
        <ele>1778</ele>
        <time>2020-02-23T10:36:04.000Z</time>
      </trkpt>
      <trkpt lat="45.13962" lon="5.63482">
        <ele>1768.6</ele>
        <time>2020-02-23T10:36:14.000Z</time>
      </trkpt>
      <trkpt lat="45.13955" lon="5.63478">
        <ele>1768.6</ele>
        <time>2020-02-23T10:36:24.000Z</time>
      </trkpt>
      <trkpt lat="45.13931" lon="5.63466">
        <ele>1776</ele>
        <time>2020-02-23T10:36:19.000Z</time>
      </trkpt>
      <trkpt lat="45.13917" lon="5.63458">
        <ele>1767.3</ele>
        <time>2020-02-23T10:36:29.000Z</time>
      </trkpt>
      <trkpt lat="45.13909" lon="5.63453">
        <ele>1771</ele>
        <time>2020-02-23T10:36:27.000Z</time>
      </trkpt>
      <trkpt lat="45.13899" lon="5.63445">
        <ele>1768.4</ele>
        <time>2020-02-23T10:36:37.000Z</time>
      </trkpt>
      <trkpt lat="45.13874" lon="5.63417">
        <ele>1769</ele>
        <time>2020-02-23T10:36:43.000Z</time>
      </trkpt>
      <trkpt lat="45.13863" lon="5.63406">
        <ele>1757.8</ele>
        <time>2020-02-23T10:36:53.000Z</time>
      </trkpt>
      <trkpt lat="45.13851" lon="5.63394">
        <ele>1769</ele>
        <time>2020-02-23T10:36:55.000Z</time>
      </trkpt>
      <trkpt lat="45.13839" lon="5.63384">
        <ele>1756.6</ele>
        <time>2020-02-23T10:37:05.000Z</time>
      </trkpt>
      <trkpt lat="45.13816" lon="5.6337">
        <ele>1767</ele>
        <time>2020-02-23T10:37:12.000Z</time>
      </trkpt>
      <trkpt lat="45.13806" lon="5.63362">
        <ele>1762.4</ele>
        <time>2020-02-23T10:37:22.000Z</time>
      </trkpt>
      <trkpt lat="45.13774" lon="5.63326">
        <ele>1766</ele>
        <time>2020-02-23T10:37:30.000Z</time>
      </trkpt>
      <trkpt lat="45.13739" lon="5.63288">
        <ele>1766</ele>
        <time>2020-02-23T10:37:46.000Z</time>
      </trkpt>
      <trkpt lat="45.1373" lon="5.63272">
        <ele>1753.1</ele>
        <time>2020-02-23T10:37:56.000Z</time>
      </trkpt>
      <trkpt lat="45.13728" lon="5.63263">
        <ele>1765</ele>
        <time>2020-02-23T10:37:55.000Z</time>
      </trkpt>
      <trkpt lat="45.13724" lon="5.63256">
        <ele>1751.7</ele>
        <time>2020-02-23T10:38:05.000Z</time>
      </trkpt>
      <trkpt lat="45.13715" lon="5.63245">
        <ele>1737.7</ele>
        <time>2020-02-23T10:38:15.000Z</time>
      </trkpt>
      <trkpt lat="45.13705" lon="5.63228">
        <ele>1764</ele>
        <time>2020-02-23T10:38:06.000Z</time>
      </trkpt>
      <trkpt lat="45.13688" lon="5.63193">
        <ele>1755</ele>
        <time>2020-02-23T10:38:15.000Z</time>
      </trkpt>
      <trkpt lat="45.13683" lon="5.63187">
        <ele>1733.1</ele>
        <time>2020-02-23T10:38:25.000Z</time>
      </trkpt>
      <trkpt lat="45.13667" lon="5.63172">
        <ele>1750</ele>
        <time>2020-02-23T10:38:22.000Z</time>
      </trkpt>
      <trkpt lat="45.13659" lon="5.63161">
        <ele>1728.2</ele>
        <time>2020-02-23T10:38:32.000Z</time>
      </trkpt>
      <trkpt lat="45.13655" lon="5.63155">
        <ele>1727.2</ele>
        <time>2020-02-23T10:38:42.000Z</time>
      </trkpt>
      <trkpt lat="45.13649" lon="5.63147">
        <ele>1746</ele>
        <time>2020-02-23T10:38:31.000Z</time>
      </trkpt>
      <trkpt lat="45.13639" lon="5.63139">
        <ele>1725.3</ele>
        <time>2020-02-23T10:38:41.000Z</time>
      </trkpt>
      <trkpt lat="45.13625" lon="5.6313">
        <ele>1736</ele>
        <time>2020-02-23T10:38:40.000Z</time>
      </trkpt>
      <trkpt lat="45.13615" lon="5.63122">
        <ele>1724.6</ele>
        <time>2020-02-23T10:38:50.000Z</time>
      </trkpt>
      <trkpt lat="45.136" lon="5.63114">
        <ele>1736</ele>
        <time>2020-02-23T10:38:50.000Z</time>
      </trkpt>
      <trkpt lat="45.13582" lon="5.631">
        <ele>1732</ele>
        <time>2020-02-23T10:38:58.000Z</time>
      </trkpt>
      <trkpt lat="45.13578" lon="5.63097">
        <ele>1725.8</ele>
        <time>2020-02-23T10:39:08.000Z</time>
      </trkpt>
      <trkpt lat="45.13574" lon="5.63092">
        <ele>1725</ele>
        <time>2020-02-23T10:39:18.000Z</time>
      </trkpt>
      <trkpt lat="45.13569" lon="5.63086">
        <ele>1725.4</ele>
        <time>2020-02-23T10:39:28.000Z</time>
      </trkpt>
      <trkpt lat="45.13552" lon="5.63073">
        <ele>1728</ele>
        <time>2020-02-23T10:39:10.000Z</time>
      </trkpt>
      <trkpt lat="45.13543" lon="5.63064">
        <ele>1716.4</ele>
        <time>2020-02-23T10:39:20.000Z</time>
      </trkpt>
      <trkpt lat="45.13531" lon="5.63053">
        <ele>1719</ele>
        <time>2020-02-23T10:39:19.000Z</time>
      </trkpt>
      <trkpt lat="45.1352" lon="5.6304">
        <ele>1715.9</ele>
        <time>2020-02-23T10:39:29.000Z</time>
      </trkpt>
      <trkpt lat="45.13514" lon="5.63031">
        <ele>1719</ele>
        <time>2020-02-23T10:39:27.000Z</time>
      </trkpt>
      <trkpt lat="45.13509" lon="5.63021">
        <ele>1715.3</ele>
        <time>2020-02-23T10:39:37.000Z</time>
      </trkpt>
      <trkpt lat="45.13506" lon="5.63015">
        <ele>1715.3</ele>
        <time>2020-02-23T10:39:47.000Z</time>
      </trkpt>
      <trkpt lat="45.13504" lon="5.63008">
        <ele>1715.5</ele>
        <time>2020-02-23T10:39:57.000Z</time>
      </trkpt>
      <trkpt lat="45.13503" lon="5.63001">
        <ele>1711</ele>
        <time>2020-02-23T10:39:36.000Z</time>
      </trkpt>
      <trkpt lat="45.13501" lon="5.62974">
        <ele>1708.8</ele>
        <time>2020-02-23T10:39:46.000Z</time>
      </trkpt>
      <trkpt lat="45.135" lon="5.62962">
        <ele>1710</ele>
        <time>2020-02-23T10:39:46.000Z</time>
      </trkpt>
      <trkpt lat="45.135" lon="5.6295">
        <ele>1721</ele>
        <time>2020-02-23T10:39:56.000Z</time>
      </trkpt>
      <trkpt lat="45.13501" lon="5.6294">
        <ele>1708.8</ele>
        <time>2020-02-23T10:40:06.000Z</time>
      </trkpt>
      <trkpt lat="45.13502" lon="5.62924">
        <ele>1705</ele>
        <time>2020-02-23T10:39:56.000Z</time>
      </trkpt>
      <trkpt lat="45.13503" lon="5.62915">
        <ele>1713.1</ele>
        <time>2020-02-23T10:40:06.000Z</time>
      </trkpt>
      <trkpt lat="45.1351" lon="5.62884">
        <ele>1695</ele>
        <time>2020-02-23T10:40:06.000Z</time>
      </trkpt>
      <trkpt lat="45.13522" lon="5.62837">
        <ele>1695</ele>
        <time>2020-02-23T10:40:18.000Z</time>
      </trkpt>
      <trkpt lat="45.13523" lon="5.62829">
        <ele>1693.4</ele>
        <time>2020-02-23T10:40:28.000Z</time>
      </trkpt>
      <trkpt lat="45.13526" lon="5.62813">
        <ele>1691.4</ele>
        <time>2020-02-23T10:40:38.000Z</time>
      </trkpt>
      <trkpt lat="45.13527" lon="5.62797">
        <ele>1703</ele>
        <time>2020-02-23T10:40:28.000Z</time>
      </trkpt>
      <trkpt lat="45.13528" lon="5.62789">
        <ele>1690.1</ele>
        <time>2020-02-23T10:40:38.000Z</time>
      </trkpt>
      <trkpt lat="45.13531" lon="5.62777">
        <ele>1689.7</ele>
        <time>2020-02-23T10:40:48.000Z</time>
      </trkpt>
      <trkpt lat="45.13537" lon="5.62762">
        <ele>1704</ele>
        <time>2020-02-23T10:40:37.000Z</time>
      </trkpt>
      <trkpt lat="45.1354" lon="5.62751">
        <ele>1688.1</ele>
        <time>2020-02-23T10:40:47.000Z</time>
      </trkpt>
      <trkpt lat="45.13542" lon="5.62739">
        <ele>1687.8</ele>
        <time>2020-02-23T10:40:57.000Z</time>
      </trkpt>
      <trkpt lat="45.13545" lon="5.62731">
        <ele>1704</ele>
        <time>2020-02-23T10:40:45.000Z</time>
      </trkpt>
      <trkpt lat="45.13546" lon="5.62722">
        <ele>1687.2</ele>
        <time>2020-02-23T10:40:55.000Z</time>
      </trkpt>
      <trkpt lat="45.13547" lon="5.62714">
        <ele>1687.2</ele>
        <time>2020-02-23T10:41:05.000Z</time>
      </trkpt>
      <trkpt lat="45.13547" lon="5.62701">
        <ele>1702</ele>
        <time>2020-02-23T10:40:52.000Z</time>
      </trkpt>
      <trkpt lat="45.13548" lon="5.62671">
        <ele>1693</ele>
        <time>2020-02-23T10:40:59.000Z</time>
      </trkpt>
      <trkpt lat="45.13553" lon="5.62641">
        <ele>1685</ele>
        <time>2020-02-23T10:41:06.000Z</time>
      </trkpt>
      <trkpt lat="45.13554" lon="5.62625">
        <ele>1684.8</ele>
        <time>2020-02-23T10:41:16.000Z</time>
      </trkpt>
      <trkpt lat="45.13552" lon="5.62608">
        <ele>1684</ele>
        <time>2020-02-23T10:41:14.000Z</time>
      </trkpt>
      <trkpt lat="45.1355" lon="5.626">
        <ele>1684.3</ele>
        <time>2020-02-23T10:41:24.000Z</time>
      </trkpt>
      <trkpt lat="45.13546" lon="5.6259">
        <ele>1684.4</ele>
        <time>2020-02-23T10:41:34.000Z</time>
      </trkpt>
      <trkpt lat="45.13543" lon="5.62585">
        <ele>1683</ele>
        <time>2020-02-23T10:41:21.000Z</time>
      </trkpt>
      <trkpt lat="45.13534" lon="5.62575">
        <ele>1678</ele>
        <time>2020-02-23T10:41:31.000Z</time>
      </trkpt>
      <trkpt lat="45.13529" lon="5.62571">
        <ele>1678.2</ele>
        <time>2020-02-23T10:41:41.000Z</time>
      </trkpt>
      <trkpt lat="45.13519" lon="5.62557">
        <ele>1679</ele>
        <time>2020-02-23T10:41:32.000Z</time>
      </trkpt>
      <trkpt lat="45.13492" lon="5.62513">
        <ele>1675</ele>
        <time>2020-02-23T10:41:47.000Z</time>
      </trkpt>
      <trkpt lat="45.13482" lon="5.62495">
        <ele>1668.1</ele>
        <time>2020-02-23T10:41:57.000Z</time>
      </trkpt>
      <trkpt lat="45.13478" lon="5.6249">
        <ele>1676</ele>
        <time>2020-02-23T10:41:55.000Z</time>
      </trkpt>
      <trkpt lat="45.13474" lon="5.62484">
        <ele>1667.6</ele>
        <time>2020-02-23T10:42:05.000Z</time>
      </trkpt>
      <trkpt lat="45.13459" lon="5.6247">
        <ele>1671</ele>
        <time>2020-02-23T10:42:03.000Z</time>
      </trkpt>
      <trkpt lat="45.1345" lon="5.6246">
        <ele>1666.9</ele>
        <time>2020-02-23T10:42:13.000Z</time>
      </trkpt>
      <trkpt lat="45.13443" lon="5.62455">
        <ele>1666</ele>
        <time>2020-02-23T10:42:10.000Z</time>
      </trkpt>
      <trkpt lat="45.13431" lon="5.62444">
        <ele>1665.6</ele>
        <time>2020-02-23T10:42:20.000Z</time>
      </trkpt>
      <trkpt lat="45.13417" lon="5.62427">
        <ele>1662</ele>
        <time>2020-02-23T10:42:22.000Z</time>
      </trkpt>
      <trkpt lat="45.13397" lon="5.6241">
        <ele>1659</ele>
        <time>2020-02-23T10:42:30.000Z</time>
      </trkpt>
      <trkpt lat="45.1339" lon="5.62402">
        <ele>1663</ele>
        <time>2020-02-23T10:42:40.000Z</time>
      </trkpt>
      <trkpt lat="45.13381" lon="5.62391">
        <ele>1659</ele>
        <time>2020-02-23T10:42:37.000Z</time>
      </trkpt>
      <trkpt lat="45.1338" lon="5.62388">
        <ele>1663.1</ele>
        <time>2020-02-23T10:42:47.000Z</time>
      </trkpt>
      <trkpt lat="45.13378" lon="5.6238">
        <ele>1662.7</ele>
        <time>2020-02-23T10:42:57.000Z</time>
      </trkpt>
      <trkpt lat="45.13378" lon="5.62356">
        <ele>1655</ele>
        <time>2020-02-23T10:42:46.000Z</time>
      </trkpt>
      <trkpt lat="45.13378" lon="5.62347">
        <ele>1660</ele>
        <time>2020-02-23T10:42:56.000Z</time>
      </trkpt>
      <trkpt lat="45.1338" lon="5.62339">
        <ele>1659.3</ele>
        <time>2020-02-23T10:43:06.000Z</time>
      </trkpt>
      <trkpt lat="45.1338" lon="5.6233">
        <ele>1650.9</ele>
        <time>2020-02-23T10:43:16.000Z</time>
      </trkpt>
      <trkpt lat="45.13378" lon="5.62316">
        <ele>1651</ele>
        <time>2020-02-23T10:42:56.000Z</time>
      </trkpt>
      <trkpt lat="45.13374" lon="5.62306">
        <ele>1650.3</ele>
        <time>2020-02-23T10:43:06.000Z</time>
      </trkpt>
      <trkpt lat="45.13371" lon="5.623">
        <ele>1650.1</ele>
        <time>2020-02-23T10:43:16.000Z</time>
      </trkpt>
      <trkpt lat="45.13365" lon="5.6229">
        <ele>1645</ele>
        <time>2020-02-23T10:43:04.000Z</time>
      </trkpt>
      <trkpt lat="45.1336" lon="5.62279">
        <ele>1649.3</ele>
        <time>2020-02-23T10:43:14.000Z</time>
      </trkpt>
      <trkpt lat="45.13352" lon="5.62266">
        <ele>1642</ele>
        <time>2020-02-23T10:43:11.000Z</time>
      </trkpt>
      <trkpt lat="45.13346" lon="5.62253">
        <ele>1648.9</ele>
        <time>2020-02-23T10:43:21.000Z</time>
      </trkpt>
      <trkpt lat="45.13332" lon="5.62233">
        <ele>1643</ele>
        <time>2020-02-23T10:43:22.000Z</time>
      </trkpt>
      <trkpt lat="45.13324" lon="5.62222">
        <ele>1645.2</ele>
        <time>2020-02-23T10:43:32.000Z</time>
      </trkpt>
      <trkpt lat="45.13318" lon="5.62215">
        <ele>1637</ele>
        <time>2020-02-23T10:43:29.000Z</time>
      </trkpt>
      <trkpt lat="45.13308" lon="5.62201">
        <ele>1643.1</ele>
        <time>2020-02-23T10:43:39.000Z</time>
      </trkpt>
      <trkpt lat="45.13296" lon="5.62188">
        <ele>1631</ele>
        <time>2020-02-23T10:43:39.000Z</time>
      </trkpt>
      <trkpt lat="45.13287" lon="5.6218">
        <ele>1642.3</ele>
        <time>2020-02-23T10:43:49.000Z</time>
      </trkpt>
      <trkpt lat="45.13275" lon="5.6217">
        <ele>1631</ele>
        <time>2020-02-23T10:43:48.000Z</time>
      </trkpt>
      <trkpt lat="45.13265" lon="5.62163">
        <ele>1635.8</ele>
        <time>2020-02-23T10:43:58.000Z</time>
      </trkpt>
      <trkpt lat="45.13249" lon="5.62156">
        <ele>1623</ele>
        <time>2020-02-23T10:43:58.000Z</time>
      </trkpt>
      <trkpt lat="45.13232" lon="5.62152">
        <ele>1637.6</ele>
        <time>2020-02-23T10:44:08.000Z</time>
      </trkpt>
      <trkpt lat="45.13225" lon="5.62147">
        <ele>1621</ele>
        <time>2020-02-23T10:44:07.000Z</time>
      </trkpt>
      <trkpt lat="45.13221" lon="5.62141">
        <ele>1637.1</ele>
        <time>2020-02-23T10:44:17.000Z</time>
      </trkpt>
      <trkpt lat="45.13213" lon="5.62125">
        <ele>1618</ele>
        <time>2020-02-23T10:44:14.000Z</time>
      </trkpt>
      <trkpt lat="45.13205" lon="5.62114">
        <ele>1635.9</ele>
        <time>2020-02-23T10:44:24.000Z</time>
      </trkpt>
      <trkpt lat="45.132" lon="5.62109">
        <ele>1635.7</ele>
        <time>2020-02-23T10:44:34.000Z</time>
      </trkpt>
      <trkpt lat="45.13195" lon="5.62099">
        <ele>1618</ele>
        <time>2020-02-23T10:44:24.000Z</time>
      </trkpt>
      <trkpt lat="45.13187" lon="5.62086">
        <ele>1634.7</ele>
        <time>2020-02-23T10:44:34.000Z</time>
      </trkpt>
      <trkpt lat="45.13176" lon="5.62073">
        <ele>1617</ele>
        <time>2020-02-23T10:44:33.000Z</time>
      </trkpt>
      <trkpt lat="45.13173" lon="5.62067">
        <ele>1630.7</ele>
        <time>2020-02-23T10:44:43.000Z</time>
      </trkpt>
      <trkpt lat="45.13169" lon="5.62061">
        <ele>1630.2</ele>
        <time>2020-02-23T10:44:53.000Z</time>
      </trkpt>
      <trkpt lat="45.1316" lon="5.6204">
        <ele>1617</ele>
        <time>2020-02-23T10:44:43.000Z</time>
      </trkpt>
      <trkpt lat="45.13154" lon="5.62032">
        <ele>1626.7</ele>
        <time>2020-02-23T10:44:53.000Z</time>
      </trkpt>
      <trkpt lat="45.13148" lon="5.6202">
        <ele>1626.2</ele>
        <time>2020-02-23T10:45:03.000Z</time>
      </trkpt>
      <trkpt lat="45.13142" lon="5.62009">
        <ele>1617</ele>
        <time>2020-02-23T10:44:54.000Z</time>
      </trkpt>
      <trkpt lat="45.13126" lon="5.61988">
        <ele>1616</ele>
        <time>2020-02-23T10:45:02.000Z</time>
      </trkpt>
      <trkpt lat="45.13122" lon="5.61981">
        <ele>1619.9</ele>
        <time>2020-02-23T10:45:12.000Z</time>
      </trkpt>
      <trkpt lat="45.13119" lon="5.61974">
        <ele>1619.5</ele>
        <time>2020-02-23T10:45:22.000Z</time>
      </trkpt>
      <trkpt lat="45.13117" lon="5.61966">
        <ele>1619.2</ele>
        <time>2020-02-23T10:45:32.000Z</time>
      </trkpt>
      <trkpt lat="45.13117" lon="5.61953">
        <ele>1611</ele>
        <time>2020-02-23T10:45:11.000Z</time>
      </trkpt>
      <trkpt lat="45.13117" lon="5.61945">
        <ele>1618.2</ele>
        <time>2020-02-23T10:45:21.000Z</time>
      </trkpt>
      <trkpt lat="45.13123" lon="5.6193">
        <ele>1618.1</ele>
        <time>2020-02-23T10:45:31.000Z</time>
      </trkpt>
      <trkpt lat="45.13127" lon="5.61923">
        <ele>1610</ele>
        <time>2020-02-23T10:45:19.000Z</time>
      </trkpt>
      <trkpt lat="45.13138" lon="5.61905">
        <ele>1616.1</ele>
        <time>2020-02-23T10:45:29.000Z</time>
      </trkpt>
      <trkpt lat="45.13142" lon="5.61895">
        <ele>1609</ele>
        <time>2020-02-23T10:45:28.000Z</time>
      </trkpt>
      <trkpt lat="45.13145" lon="5.61888">
        <ele>1616</ele>
        <time>2020-02-23T10:45:38.000Z</time>
      </trkpt>
      <trkpt lat="45.13146" lon="5.61877">
        <ele>1615.7</ele>
        <time>2020-02-23T10:45:48.000Z</time>
      </trkpt>
      <trkpt lat="45.13146" lon="5.61873">
        <ele>1615.6</ele>
        <time>2020-02-23T10:45:58.000Z</time>
      </trkpt>
      <trkpt lat="45.13145" lon="5.61865">
        <ele>1605</ele>
        <time>2020-02-23T10:45:36.000Z</time>
      </trkpt>
      <trkpt lat="45.13143" lon="5.61855">
        <ele>1615.4</ele>
        <time>2020-02-23T10:45:46.000Z</time>
      </trkpt>
      <trkpt lat="45.13142" lon="5.61853">
        <ele>1615.3</ele>
        <time>2020-02-23T10:45:56.000Z</time>
      </trkpt>
      <trkpt lat="45.13135" lon="5.61846">
        <ele>1614.8</ele>
        <time>2020-02-23T10:46:06.000Z</time>
      </trkpt>
      <trkpt lat="45.13133" lon="5.61841">
        <ele>1603</ele>
        <time>2020-02-23T10:45:47.000Z</time>
      </trkpt>
      <trkpt lat="45.13123" lon="5.61843">
        <ele>1613.8</ele>
        <time>2020-02-23T10:45:57.000Z</time>
      </trkpt>
      <trkpt lat="45.13119" lon="5.61844">
        <ele>1613.5</ele>
        <time>2020-02-23T10:46:07.000Z</time>
      </trkpt>
      <trkpt lat="45.13116" lon="5.61844">
        <ele>1613.2</ele>
        <time>2020-02-23T10:46:17.000Z</time>
      </trkpt>
      <trkpt lat="45.13105" lon="5.61847">
        <ele>1603</ele>
        <time>2020-02-23T10:46:25.000Z</time>
      </trkpt>
      <trkpt lat="45.13102" lon="5.6185">
        <ele>1612.2</ele>
        <time>2020-02-23T10:46:35.000Z</time>
      </trkpt>
      <trkpt lat="45.13099" lon="5.61855">
        <ele>1612.2</ele>
        <time>2020-02-23T10:46:45.000Z</time>
      </trkpt>
      <trkpt lat="45.13094" lon="5.61862">
        <ele>1612.4</ele>
        <time>2020-02-23T10:46:55.000Z</time>
      </trkpt>
      <trkpt lat="45.13091" lon="5.61863">
        <ele>1612.3</ele>
        <time>2020-02-23T10:47:05.000Z</time>
      </trkpt>
      <trkpt lat="45.13085" lon="5.61864">
        <ele>1596</ele>
        <time>2020-02-23T10:46:39.000Z</time>
      </trkpt>
      <trkpt lat="45.13075" lon="5.6186">
        <ele>1605.7</ele>
        <time>2020-02-23T10:46:49.000Z</time>
      </trkpt>
      <trkpt lat="45.13068" lon="5.6186">
        <ele>1605.4</ele>
        <time>2020-02-23T10:46:59.000Z</time>
      </trkpt>
      <trkpt lat="45.13064" lon="5.61858">
        <ele>1592</ele>
        <time>2020-02-23T10:46:54.000Z</time>
      </trkpt>
      <trkpt lat="45.13058" lon="5.61857">
        <ele>1604.8</ele>
        <time>2020-02-23T10:47:04.000Z</time>
      </trkpt>
      <trkpt lat="45.13054" lon="5.61854">
        <ele>1604.5</ele>
        <time>2020-02-23T10:47:14.000Z</time>
      </trkpt>
      <trkpt lat="45.13052" lon="5.61852">
        <ele>1604.4</ele>
        <time>2020-02-23T10:47:24.000Z</time>
      </trkpt>
      <trkpt lat="45.13051" lon="5.61844">
        <ele>1604.3</ele>
        <time>2020-02-23T10:47:34.000Z</time>
      </trkpt>
      <trkpt lat="45.1305" lon="5.6184">
        <ele>1590</ele>
        <time>2020-02-23T10:47:04.000Z</time>
      </trkpt>
      <trkpt lat="45.13042" lon="5.61829">
        <ele>1600</ele>
        <time>2020-02-23T10:47:14.000Z</time>
      </trkpt>
      <trkpt lat="45.13041" lon="5.61826">
        <ele>1599.8</ele>
        <time>2020-02-23T10:47:24.000Z</time>
      </trkpt>
      <trkpt lat="45.1304" lon="5.61818">
        <ele>1599.5</ele>
        <time>2020-02-23T10:47:34.000Z</time>
      </trkpt>
      <trkpt lat="45.13036" lon="5.61812">
        <ele>1589</ele>
        <time>2020-02-23T10:47:14.000Z</time>
      </trkpt>
      <trkpt lat="45.1303" lon="5.61806">
        <ele>1598.2</ele>
        <time>2020-02-23T10:47:24.000Z</time>
      </trkpt>
      <trkpt lat="45.13023" lon="5.61804">
        <ele>1597.6</ele>
        <time>2020-02-23T10:47:34.000Z</time>
      </trkpt>
      <trkpt lat="45.13016" lon="5.61806">
        <ele>1587</ele>
        <time>2020-02-23T10:47:41.000Z</time>
      </trkpt>
      <trkpt lat="45.13009" lon="5.61804">
        <ele>1596.8</ele>
        <time>2020-02-23T10:47:51.000Z</time>
      </trkpt>
      <trkpt lat="45.12994" lon="5.61792">
        <ele>1580</ele>
        <time>2020-02-23T10:47:54.000Z</time>
      </trkpt>
      <trkpt lat="45.12983" lon="5.61787">
        <ele>1584.5</ele>
        <time>2020-02-23T10:48:04.000Z</time>
      </trkpt>
      <trkpt lat="45.1298" lon="5.61786">
        <ele>1584.2</ele>
        <time>2020-02-23T10:48:14.000Z</time>
      </trkpt>
      <trkpt lat="45.12978" lon="5.61786">
        <ele>1584.1</ele>
        <time>2020-02-23T10:48:24.000Z</time>
      </trkpt>
      <trkpt lat="45.12971" lon="5.61783">
        <ele>1576</ele>
        <time>2020-02-23T10:48:05.000Z</time>
      </trkpt>
      <trkpt lat="45.12966" lon="5.61782">
        <ele>1582.9</ele>
        <time>2020-02-23T10:48:15.000Z</time>
      </trkpt>
      <trkpt lat="45.12954" lon="5.61773">
        <ele>1581.3</ele>
        <time>2020-02-23T10:48:25.000Z</time>
      </trkpt>
      <trkpt lat="45.12951" lon="5.61771">
        <ele>1575</ele>
        <time>2020-02-23T10:48:14.000Z</time>
      </trkpt>
      <trkpt lat="45.12942" lon="5.61769">
        <ele>1579.6</ele>
        <time>2020-02-23T10:48:24.000Z</time>
      </trkpt>
      <trkpt lat="45.12939" lon="5.61767">
        <ele>1579</ele>
        <time>2020-02-23T10:48:34.000Z</time>
      </trkpt>
      <trkpt lat="45.12931" lon="5.61763">
        <ele>1562</ele>
        <time>2020-02-23T10:48:20.000Z</time>
      </trkpt>
      <trkpt lat="45.12917" lon="5.61758">
        <ele>1574.1</ele>
        <time>2020-02-23T10:48:30.000Z</time>
      </trkpt>
      <trkpt lat="45.12912" lon="5.61758">
        <ele>1562</ele>
        <time>2020-02-23T10:48:27.000Z</time>
      </trkpt>
      <trkpt lat="45.12907" lon="5.61759">
        <ele>1568.5</ele>
        <time>2020-02-23T10:48:37.000Z</time>
      </trkpt>
      <trkpt lat="45.12902" lon="5.61758">
        <ele>1567.9</ele>
        <time>2020-02-23T10:48:47.000Z</time>
      </trkpt>
      <trkpt lat="45.12893" lon="5.61752">
        <ele>1551</ele>
        <time>2020-02-23T10:48:36.000Z</time>
      </trkpt>
      <trkpt lat="45.12889" lon="5.6175">
        <ele>1553</ele>
        <time>2020-02-23T10:48:46.000Z</time>
      </trkpt>
      <trkpt lat="45.12877" lon="5.6175">
        <ele>1549.9</ele>
        <time>2020-02-23T10:48:56.000Z</time>
      </trkpt>
      <trkpt lat="45.12868" lon="5.61751">
        <ele>1543</ele>
        <time>2020-02-23T10:48:48.000Z</time>
      </trkpt>
      <trkpt lat="45.12866" lon="5.6175">
        <ele>1548.4</ele>
        <time>2020-02-23T10:48:58.000Z</time>
      </trkpt>
      <trkpt lat="45.12864" lon="5.61745">
        <ele>1547.8</ele>
        <time>2020-02-23T10:49:08.000Z</time>
      </trkpt>
      <trkpt lat="45.12851" lon="5.61741">
        <ele>1543</ele>
        <time>2020-02-23T10:48:57.000Z</time>
      </trkpt>
      <trkpt lat="45.12841" lon="5.61731">
        <ele>1545.9</ele>
        <time>2020-02-23T10:49:07.000Z</time>
      </trkpt>
      <trkpt lat="45.12834" lon="5.61728">
        <ele>1545.1</ele>
        <time>2020-02-23T10:49:17.000Z</time>
      </trkpt>
      <trkpt lat="45.1283" lon="5.61729">
        <ele>1536</ele>
        <time>2020-02-23T10:49:07.000Z</time>
      </trkpt>
      <trkpt lat="45.12823" lon="5.61731">
        <ele>1538.2</ele>
        <time>2020-02-23T10:49:17.000Z</time>
      </trkpt>
      <trkpt lat="45.12818" lon="5.61731">
        <ele>1537.3</ele>
        <time>2020-02-23T10:49:27.000Z</time>
      </trkpt>
      <trkpt lat="45.1281" lon="5.61733">
        <ele>1531</ele>
        <time>2020-02-23T10:49:16.000Z</time>
      </trkpt>
      <trkpt lat="45.12805" lon="5.61733">
        <ele>1535</ele>
        <time>2020-02-23T10:49:26.000Z</time>
      </trkpt>
      <trkpt lat="45.12791" lon="5.6173">
        <ele>1527</ele>
        <time>2020-02-23T10:49:26.000Z</time>
      </trkpt>
      <trkpt lat="45.12788" lon="5.61732">
        <ele>1532.2</ele>
        <time>2020-02-23T10:49:36.000Z</time>
      </trkpt>
      <trkpt lat="45.12787" lon="5.61733">
        <ele>1532.2</ele>
        <time>2020-02-23T10:49:46.000Z</time>
      </trkpt>
      <trkpt lat="45.12783" lon="5.61735">
        <ele>1531.9</ele>
        <time>2020-02-23T10:49:56.000Z</time>
      </trkpt>
      <trkpt lat="45.12779" lon="5.61736">
        <ele>1531.6</ele>
        <time>2020-02-23T10:50:06.000Z</time>
      </trkpt>
      <trkpt lat="45.12774" lon="5.61736">
        <ele>1531.2</ele>
        <time>2020-02-23T10:50:16.000Z</time>
      </trkpt>
      <trkpt lat="45.12768" lon="5.61732">
        <ele>1529</ele>
        <time>2020-02-23T10:49:38.000Z</time>
      </trkpt>
      <trkpt lat="45.12762" lon="5.61733">
        <ele>1530.4</ele>
        <time>2020-02-23T10:49:48.000Z</time>
      </trkpt>
      <trkpt lat="45.12759" lon="5.61736">
        <ele>1530.5</ele>
        <time>2020-02-23T10:49:58.000Z</time>
      </trkpt>
      <trkpt lat="45.12757" lon="5.61738">
        <ele>1530.6</ele>
        <time>2020-02-23T10:50:08.000Z</time>
      </trkpt>
      <trkpt lat="45.12756" lon="5.61742">
        <ele>1530.7</ele>
        <time>2020-02-23T10:50:18.000Z</time>
      </trkpt>
      <trkpt lat="45.12755" lon="5.61744">
        <ele>1530.8</ele>
        <time>2020-02-23T10:50:28.000Z</time>
      </trkpt>
      <trkpt lat="45.1275" lon="5.61749">
        <ele>1528</ele>
        <time>2020-02-23T10:49:54.000Z</time>
      </trkpt>
      <trkpt lat="45.12746" lon="5.61753">
        <ele>1530.7</ele>
        <time>2020-02-23T10:50:04.000Z</time>
      </trkpt>
      <trkpt lat="45.12741" lon="5.61752">
        <ele>1530.4</ele>
        <time>2020-02-23T10:50:14.000Z</time>
      </trkpt>
      <trkpt lat="45.1274" lon="5.61753">
        <ele>1530.3</ele>
        <time>2020-02-23T10:50:24.000Z</time>
      </trkpt>
      <trkpt lat="45.12732" lon="5.6175">
        <ele>1527</ele>
        <time>2020-02-23T10:50:10.000Z</time>
      </trkpt>
      <trkpt lat="45.12725" lon="5.6175">
        <ele>1521.5</ele>
        <time>2020-02-23T10:50:20.000Z</time>
      </trkpt>
      <trkpt lat="45.12709" lon="5.61749">
        <ele>1515</ele>
        <time>2020-02-23T10:50:21.000Z</time>
      </trkpt>
      <trkpt lat="45.12694" lon="5.61746">
        <ele>1516.4</ele>
        <time>2020-02-23T10:50:31.000Z</time>
      </trkpt>
      <trkpt lat="45.12692" lon="5.61747">
        <ele>1516.2</ele>
        <time>2020-02-23T10:50:41.000Z</time>
      </trkpt>
      <trkpt lat="45.1269" lon="5.61749">
        <ele>1515</ele>
        <time>2020-02-23T10:50:28.000Z</time>
      </trkpt>
      <trkpt lat="45.12686" lon="5.61749">
        <ele>1515.6</ele>
        <time>2020-02-23T10:50:38.000Z</time>
      </trkpt>
      <trkpt lat="45.1268" lon="5.61747">
        <ele>1515</ele>
        <time>2020-02-23T10:50:48.000Z</time>
      </trkpt>
      <trkpt lat="45.12677" lon="5.61745">
        <ele>1514.8</ele>
        <time>2020-02-23T10:50:58.000Z</time>
      </trkpt>
      <trkpt lat="45.12674" lon="5.61746">
        <ele>1514.6</ele>
        <time>2020-02-23T10:51:08.000Z</time>
      </trkpt>
      <trkpt lat="45.12668" lon="5.61748">
        <ele>1509</ele>
        <time>2020-02-23T10:50:41.000Z</time>
      </trkpt>
      <trkpt lat="45.12664" lon="5.61749">
        <ele>1512.1</ele>
        <time>2020-02-23T10:50:51.000Z</time>
      </trkpt>
      <trkpt lat="45.1266" lon="5.61746">
        <ele>1509.2</ele>
        <time>2020-02-23T10:51:01.000Z</time>
      </trkpt>
      <trkpt lat="45.12657" lon="5.61743">
        <ele>1507.3</ele>
        <time>2020-02-23T10:51:11.000Z</time>
      </trkpt>
      <trkpt lat="45.12655" lon="5.61745">
        <ele>1506.9</ele>
        <time>2020-02-23T10:51:21.000Z</time>
      </trkpt>
      <trkpt lat="45.12648" lon="5.61747">
        <ele>1503</ele>
        <time>2020-02-23T10:50:58.000Z</time>
      </trkpt>
      <trkpt lat="45.12637" lon="5.61746">
        <ele>1501.3</ele>
        <time>2020-02-23T10:51:08.000Z</time>
      </trkpt>
      <trkpt lat="45.12631" lon="5.61745">
        <ele>1499.9</ele>
        <time>2020-02-23T10:51:18.000Z</time>
      </trkpt>
      <trkpt lat="45.12626" lon="5.61746">
        <ele>1498</ele>
        <time>2020-02-23T10:51:10.000Z</time>
      </trkpt>
      <trkpt lat="45.12624" lon="5.61747">
        <ele>1498.6</ele>
        <time>2020-02-23T10:51:20.000Z</time>
      </trkpt>
      <trkpt lat="45.12619" lon="5.61753">
        <ele>1507.4</ele>
        <time>2020-02-23T10:51:30.000Z</time>
      </trkpt>
      <trkpt lat="45.12617" lon="5.61753">
        <ele>1506.9</ele>
        <time>2020-02-23T10:51:40.000Z</time>
      </trkpt>
      <trkpt lat="45.12611" lon="5.61752">
        <ele>1505.4</ele>
        <time>2020-02-23T10:51:50.000Z</time>
      </trkpt>
      <trkpt lat="45.12602" lon="5.61746">
        <ele>1498</ele>
        <time>2020-02-23T10:51:22.000Z</time>
      </trkpt>
      <trkpt lat="45.12596" lon="5.61746">
        <ele>1494.4</ele>
        <time>2020-02-23T10:51:32.000Z</time>
      </trkpt>
      <trkpt lat="45.12593" lon="5.61747">
        <ele>1494.1</ele>
        <time>2020-02-23T10:51:42.000Z</time>
      </trkpt>
      <trkpt lat="45.12587" lon="5.61743">
        <ele>1493.7</ele>
        <time>2020-02-23T10:51:52.000Z</time>
      </trkpt>
      <trkpt lat="45.12583" lon="5.61741">
        <ele>1496</ele>
        <time>2020-02-23T10:51:32.000Z</time>
      </trkpt>
      <trkpt lat="45.12577" lon="5.61743">
        <ele>1488.5</ele>
        <time>2020-02-23T10:51:42.000Z</time>
      </trkpt>
      <trkpt lat="45.12571" lon="5.61742">
        <ele>1486.8</ele>
        <time>2020-02-23T10:51:52.000Z</time>
      </trkpt>
      <trkpt lat="45.12565" lon="5.61744">
        <ele>1485.5</ele>
        <time>2020-02-23T10:52:02.000Z</time>
      </trkpt>
      <trkpt lat="45.12559" lon="5.61746">
        <ele>1494</ele>
        <time>2020-02-23T10:51:43.000Z</time>
      </trkpt>
      <trkpt lat="45.12544" lon="5.61737">
        <ele>1481.6</ele>
        <time>2020-02-23T10:51:53.000Z</time>
      </trkpt>
      <trkpt lat="45.12531" lon="5.61724">
        <ele>1482</ele>
        <time>2020-02-23T10:51:54.000Z</time>
      </trkpt>
      <trkpt lat="45.12522" lon="5.61712">
        <ele>1478.5</ele>
        <time>2020-02-23T10:52:04.000Z</time>
      </trkpt>
      <trkpt lat="45.12508" lon="5.61688">
        <ele>1469</ele>
        <time>2020-02-23T10:52:04.000Z</time>
      </trkpt>
      <trkpt lat="45.12504" lon="5.61684">
        <ele>1474.5</ele>
        <time>2020-02-23T10:52:14.000Z</time>
      </trkpt>
      <trkpt lat="45.125" lon="5.61681">
        <ele>1471.5</ele>
        <time>2020-02-23T10:52:24.000Z</time>
      </trkpt>
      <trkpt lat="45.12492" lon="5.61679">
        <ele>1471.6</ele>
        <time>2020-02-23T10:52:34.000Z</time>
      </trkpt>
      <trkpt lat="45.1249" lon="5.61681">
        <ele>1469</ele>
        <time>2020-02-23T10:52:16.000Z</time>
      </trkpt>
      <trkpt lat="45.12488" lon="5.61681">
        <ele>1471.9</ele>
        <time>2020-02-23T10:52:26.000Z</time>
      </trkpt>
      <trkpt lat="45.12486" lon="5.61679">
        <ele>1471.9</ele>
        <time>2020-02-23T10:52:36.000Z</time>
      </trkpt>
      <trkpt lat="45.12484" lon="5.61676">
        <ele>1471.8</ele>
        <time>2020-02-23T10:52:46.000Z</time>
      </trkpt>
      <trkpt lat="45.12483" lon="5.61664">
        <ele>1465.8</ele>
        <time>2020-02-23T10:52:56.000Z</time>
      </trkpt>
      <trkpt lat="45.12484" lon="5.61661">
        <ele>1465.7</ele>
        <time>2020-02-23T10:53:06.000Z</time>
      </trkpt>
      <trkpt lat="45.12487" lon="5.61652">
        <ele>1466</ele>
        <time>2020-02-23T10:52:34.000Z</time>
      </trkpt>
      <trkpt lat="45.12489" lon="5.6165">
        <ele>1464.6</ele>
        <time>2020-02-23T10:52:44.000Z</time>
      </trkpt>
      <trkpt lat="45.12497" lon="5.61646">
        <ele>1464.1</ele>
        <time>2020-02-23T10:52:54.000Z</time>
      </trkpt>
      <trkpt lat="45.12506" lon="5.61645">
        <ele>1464</ele>
        <time>2020-02-23T10:52:51.000Z</time>
      </trkpt>
      <trkpt lat="45.12508" lon="5.61645">
        <ele>1463.2</ele>
        <time>2020-02-23T10:53:01.000Z</time>
      </trkpt>
      <trkpt lat="45.12519" lon="5.61649">
        <ele>1463.4</ele>
        <time>2020-02-23T10:53:11.000Z</time>
      </trkpt>
      <trkpt lat="45.12524" lon="5.61649">
        <ele>1463.1</ele>
        <time>2020-02-23T10:53:21.000Z</time>
      </trkpt>
      <trkpt lat="45.12537" lon="5.61643">
        <ele>1460</ele>
        <time>2020-02-23T10:53:05.000Z</time>
      </trkpt>
      <trkpt lat="45.1254" lon="5.61643">
        <ele>1462.3</ele>
        <time>2020-02-23T10:53:15.000Z</time>
      </trkpt>
      <trkpt lat="45.12549" lon="5.61638">
        <ele>1462</ele>
        <time>2020-02-23T10:53:25.000Z</time>
      </trkpt>
      <trkpt lat="45.12553" lon="5.61638">
        <ele>1462.2</ele>
        <time>2020-02-23T10:53:35.000Z</time>
      </trkpt>
      <trkpt lat="45.12555" lon="5.61637">
        <ele>1462.2</ele>
        <time>2020-02-23T10:53:45.000Z</time>
      </trkpt>
      <trkpt lat="45.12559" lon="5.61631">
        <ele>1458</ele>
        <time>2020-02-23T10:53:22.000Z</time>
      </trkpt>
      <trkpt lat="45.12561" lon="5.61627">
        <ele>1460.7</ele>
        <time>2020-02-23T10:53:32.000Z</time>
      </trkpt>
      <trkpt lat="45.12562" lon="5.61605">
        <ele>1449</ele>
        <time>2020-02-23T10:53:36.000Z</time>
      </trkpt>
      <trkpt lat="45.12562" lon="5.61601">
        <ele>1456.4</ele>
        <time>2020-02-23T10:53:46.000Z</time>
      </trkpt>
      <trkpt lat="45.12561" lon="5.61598">
        <ele>1456</ele>
        <time>2020-02-23T10:53:56.000Z</time>
      </trkpt>
      <trkpt lat="45.1256" lon="5.61592">
        <ele>1455.4</ele>
        <time>2020-02-23T10:54:06.000Z</time>
      </trkpt>
      <trkpt lat="45.12561" lon="5.61586">
        <ele>1454.8</ele>
        <time>2020-02-23T10:54:16.000Z</time>
      </trkpt>
      <trkpt lat="45.12563" lon="5.61581">
        <ele>1439.9</ele>
        <time>2020-02-23T10:54:26.000Z</time>
      </trkpt>
      <trkpt lat="45.12568" lon="5.61567">
        <ele>1433</ele>
        <time>2020-02-23T10:53:52.000Z</time>
      </trkpt>
      <trkpt lat="45.12572" lon="5.61562">
        <ele>1437.6</ele>
        <time>2020-02-23T10:54:02.000Z</time>
      </trkpt>
      <trkpt lat="45.12577" lon="5.61554">
        <ele>1435.6</ele>
        <time>2020-02-23T10:54:12.000Z</time>
      </trkpt>
      <trkpt lat="45.12588" lon="5.61535">
        <ele>1418</ele>
        <time>2020-02-23T10:54:03.000Z</time>
      </trkpt>
      <trkpt lat="45.12594" lon="5.61527">
        <ele>1437.1</ele>
        <time>2020-02-23T10:54:13.000Z</time>
      </trkpt>
      <trkpt lat="45.12599" lon="5.61523">
        <ele>1436.6</ele>
        <time>2020-02-23T10:54:23.000Z</time>
      </trkpt>
      <trkpt lat="45.12604" lon="5.61518">
        <ele>1416</ele>
        <time>2020-02-23T10:54:10.000Z</time>
      </trkpt>
      <trkpt lat="45.12609" lon="5.6151">
        <ele>1435.8</ele>
        <time>2020-02-23T10:54:20.000Z</time>
      </trkpt>
      <trkpt lat="45.1262" lon="5.61494">
        <ele>1416</ele>
        <time>2020-02-23T10:54:20.000Z</time>
      </trkpt>
      <trkpt lat="45.12628" lon="5.61488">
        <ele>1415.6</ele>
        <time>2020-02-23T10:54:30.000Z</time>
      </trkpt>
      <trkpt lat="45.12635" lon="5.61486">
        <ele>1416.4</ele>
        <time>2020-02-23T10:54:40.000Z</time>
      </trkpt>
      <trkpt lat="45.1264" lon="5.61483">
        <ele>1415</ele>
        <time>2020-02-23T10:54:29.000Z</time>
      </trkpt>
      <trkpt lat="45.12642" lon="5.6148">
        <ele>1416.5</ele>
        <time>2020-02-23T10:54:39.000Z</time>
      </trkpt>
      <trkpt lat="45.12651" lon="5.61473">
        <ele>1415.8</ele>
        <time>2020-02-23T10:54:49.000Z</time>
      </trkpt>
      <trkpt lat="45.12661" lon="5.61469">
        <ele>1415</ele>
        <time>2020-02-23T10:54:39.000Z</time>
      </trkpt>
      <trkpt lat="45.12673" lon="5.61463">
        <ele>1418.2</ele>
        <time>2020-02-23T10:54:49.000Z</time>
      </trkpt>
      <trkpt lat="45.12685" lon="5.6146">
        <ele>1415</ele>
        <time>2020-02-23T10:54:47.000Z</time>
      </trkpt>
      <trkpt lat="45.12715" lon="5.61454">
        <ele>1416</ele>
        <time>2020-02-23T10:54:57.000Z</time>
      </trkpt>
      <trkpt lat="45.12726" lon="5.61453">
        <ele>1416.7</ele>
        <time>2020-02-23T10:55:07.000Z</time>
      </trkpt>
      <trkpt lat="45.12739" lon="5.61454">
        <ele>1416</ele>
        <time>2020-02-23T10:55:03.000Z</time>
      </trkpt>
      <trkpt lat="45.1275" lon="5.61452">
        <ele>1416.5</ele>
        <time>2020-02-23T10:55:13.000Z</time>
      </trkpt>
      <trkpt lat="45.12761" lon="5.61448">
        <ele>1412</ele>
        <time>2020-02-23T10:55:11.000Z</time>
      </trkpt>
      <trkpt lat="45.12763" lon="5.61446">
        <ele>1415</ele>
        <time>2020-02-23T10:55:21.000Z</time>
      </trkpt>
      <trkpt lat="45.12767" lon="5.61444">
        <ele>1414.6</ele>
        <time>2020-02-23T10:55:31.000Z</time>
      </trkpt>
      <trkpt lat="45.12773" lon="5.61443">
        <ele>1414.6</ele>
        <time>2020-02-23T10:55:41.000Z</time>
      </trkpt>
      <trkpt lat="45.12778" lon="5.6144">
        <ele>1414.2</ele>
        <time>2020-02-23T10:55:51.000Z</time>
      </trkpt>
      <trkpt lat="45.12779" lon="5.61437">
        <ele>1395</ele>
        <time>2020-02-23T10:55:20.000Z</time>
      </trkpt>
      <trkpt lat="45.12782" lon="5.61435">
        <ele>1413.4</ele>
        <time>2020-02-23T10:55:30.000Z</time>
      </trkpt>
      <trkpt lat="45.12785" lon="5.61436">
        <ele>1413.6</ele>
        <time>2020-02-23T10:55:40.000Z</time>
      </trkpt>
      <trkpt lat="45.12789" lon="5.61435">
        <ele>1413.4</ele>
        <time>2020-02-23T10:55:50.000Z</time>
      </trkpt>
      <trkpt lat="45.12792" lon="5.61434">
        <ele>1413.1</ele>
        <time>2020-02-23T10:56:00.000Z</time>
      </trkpt>
      <trkpt lat="45.12816" lon="5.6141">
        <ele>1385</ele>
        <time>2020-02-23T10:55:36.000Z</time>
      </trkpt>
      <trkpt lat="45.12827" lon="5.61397">
        <ele>1389.3</ele>
        <time>2020-02-23T10:55:46.000Z</time>
      </trkpt>
      <trkpt lat="45.12829" lon="5.61395">
        <ele>1388.8</ele>
        <time>2020-02-23T10:55:56.000Z</time>
      </trkpt>
      <trkpt lat="45.12833" lon="5.61395">
        <ele>1379</ele>
        <time>2020-02-23T10:55:44.000Z</time>
      </trkpt>
      <trkpt lat="45.12841" lon="5.61387">
        <ele>1387.6</ele>
        <time>2020-02-23T10:55:54.000Z</time>
      </trkpt>
      <trkpt lat="45.12847" lon="5.6138">
        <ele>1385.8</ele>
        <time>2020-02-23T10:56:04.000Z</time>
      </trkpt>
      <trkpt lat="45.12855" lon="5.61369">
        <ele>1373</ele>
        <time>2020-02-23T10:55:56.000Z</time>
      </trkpt>
      <trkpt lat="45.12857" lon="5.61366">
        <ele>1382.8</ele>
        <time>2020-02-23T10:56:06.000Z</time>
      </trkpt>
      <trkpt lat="45.12858" lon="5.61359">
        <ele>1381.3</ele>
        <time>2020-02-23T10:56:16.000Z</time>
      </trkpt>
      <trkpt lat="45.12861" lon="5.61354">
        <ele>1380.7</ele>
        <time>2020-02-23T10:56:26.000Z</time>
      </trkpt>
      <trkpt lat="45.12867" lon="5.61335">
        <ele>1367</ele>
        <time>2020-02-23T10:56:10.000Z</time>
      </trkpt>
      <trkpt lat="45.1287" lon="5.61323">
        <ele>1364.1</ele>
        <time>2020-02-23T10:56:20.000Z</time>
      </trkpt>
      <trkpt lat="45.12866" lon="5.61314">
        <ele>1363.2</ele>
        <time>2020-02-23T10:56:30.000Z</time>
      </trkpt>
      <trkpt lat="45.12854" lon="5.61308">
        <ele>1366</ele>
        <time>2020-02-23T10:56:28.000Z</time>
      </trkpt>
      <trkpt lat="45.12842" lon="5.61307">
        <ele>1361.6</ele>
        <time>2020-02-23T10:56:38.000Z</time>
      </trkpt>
      <trkpt lat="45.12831" lon="5.61304">
        <ele>1360</ele>
        <time>2020-02-23T10:56:39.000Z</time>
      </trkpt>
      <trkpt lat="45.12823" lon="5.61302">
        <ele>1356.6</ele>
        <time>2020-02-23T10:56:49.000Z</time>
      </trkpt>
      <trkpt lat="45.12813" lon="5.61301">
        <ele>1356.3</ele>
        <time>2020-02-23T10:56:59.000Z</time>
      </trkpt>
      <trkpt lat="45.12804" lon="5.61299">
        <ele>1359</ele>
        <time>2020-02-23T10:56:48.000Z</time>
      </trkpt>
      <trkpt lat="45.12794" lon="5.61296">
        <ele>1355.6</ele>
        <time>2020-02-23T10:56:58.000Z</time>
      </trkpt>
      <trkpt lat="45.12787" lon="5.61291">
        <ele>1355</ele>
        <time>2020-02-23T10:57:08.000Z</time>
      </trkpt>
      <trkpt lat="45.1278" lon="5.61288">
        <ele>1358</ele>
        <time>2020-02-23T10:56:57.000Z</time>
      </trkpt>
      <trkpt lat="45.12775" lon="5.61285">
        <ele>1354.1</ele>
        <time>2020-02-23T10:57:07.000Z</time>
      </trkpt>
      <trkpt lat="45.12765" lon="5.61281">
        <ele>1353.3</ele>
        <time>2020-02-23T10:57:17.000Z</time>
      </trkpt>
      <trkpt lat="45.12755" lon="5.61273">
        <ele>1355</ele>
        <time>2020-02-23T10:57:09.000Z</time>
      </trkpt>
      <trkpt lat="45.12746" lon="5.61263">
        <ele>1349.1</ele>
        <time>2020-02-23T10:57:19.000Z</time>
      </trkpt>
      <trkpt lat="45.12736" lon="5.61257">
        <ele>1335</ele>
        <time>2020-02-23T10:57:18.000Z</time>
      </trkpt>
      <trkpt lat="45.12716" lon="5.61246">
        <ele>1335</ele>
        <time>2020-02-23T10:57:26.000Z</time>
      </trkpt>
      <trkpt lat="45.12699" lon="5.61243">
        <ele>1336.1</ele>
        <time>2020-02-23T10:57:36.000Z</time>
      </trkpt>
      <trkpt lat="45.12693" lon="5.6124">
        <ele>1329</ele>
        <time>2020-02-23T10:57:34.000Z</time>
      </trkpt>
      <trkpt lat="45.1268" lon="5.6123">
        <ele>1335.8</ele>
        <time>2020-02-23T10:57:44.000Z</time>
      </trkpt>
      <trkpt lat="45.12666" lon="5.61221">
        <ele>1324</ele>
        <time>2020-02-23T10:57:44.000Z</time>
      </trkpt>
      <trkpt lat="45.12646" lon="5.61205">
        <ele>1322</ele>
        <time>2020-02-23T10:57:52.000Z</time>
      </trkpt>
      <trkpt lat="45.12637" lon="5.61199">
        <ele>1324.1</ele>
        <time>2020-02-23T10:58:02.000Z</time>
      </trkpt>
      <trkpt lat="45.12629" lon="5.6119">
        <ele>1320</ele>
        <time>2020-02-23T10:58:01.000Z</time>
      </trkpt>
      <trkpt lat="45.12618" lon="5.61181">
        <ele>1320.9</ele>
        <time>2020-02-23T10:58:11.000Z</time>
      </trkpt>
      <trkpt lat="45.12608" lon="5.61178">
        <ele>1315</ele>
        <time>2020-02-23T10:58:10.000Z</time>
      </trkpt>
      <trkpt lat="45.126" lon="5.61177">
        <ele>1317.7</ele>
        <time>2020-02-23T10:58:20.000Z</time>
      </trkpt>
      <trkpt lat="45.12598" lon="5.61176">
        <ele>1317.1</ele>
        <time>2020-02-23T10:58:30.000Z</time>
      </trkpt>
      <trkpt lat="45.12591" lon="5.61169">
        <ele>1313.9</ele>
        <time>2020-02-23T10:58:40.000Z</time>
      </trkpt>
      <trkpt lat="45.12583" lon="5.61164">
        <ele>1315</ele>
        <time>2020-02-23T10:58:21.000Z</time>
      </trkpt>
      <trkpt lat="45.12574" lon="5.61153">
        <ele>1300.3</ele>
        <time>2020-02-23T10:58:31.000Z</time>
      </trkpt>
      <trkpt lat="45.1256" lon="5.61146">
        <ele>1306</ele>
        <time>2020-02-23T10:58:31.000Z</time>
      </trkpt>
      <trkpt lat="45.12556" lon="5.61146">
        <ele>1294.9</ele>
        <time>2020-02-23T10:58:41.000Z</time>
      </trkpt>
      <trkpt lat="45.12553" lon="5.61143">
        <ele>1294</ele>
        <time>2020-02-23T10:58:51.000Z</time>
      </trkpt>
      <trkpt lat="45.12552" lon="5.6114">
        <ele>1293.4</ele>
        <time>2020-02-23T10:59:01.000Z</time>
      </trkpt>
      <trkpt lat="45.12552" lon="5.61131">
        <ele>1292</ele>
        <time>2020-02-23T10:59:11.000Z</time>
      </trkpt>
      <trkpt lat="45.12552" lon="5.61122">
        <ele>1304</ele>
        <time>2020-02-23T10:58:41.000Z</time>
      </trkpt>
      <trkpt lat="45.12556" lon="5.61111">
        <ele>1289.4</ele>
        <time>2020-02-23T10:58:51.000Z</time>
      </trkpt>
      <trkpt lat="45.12555" lon="5.61107">
        <ele>1288.9</ele>
        <time>2020-02-23T10:59:01.000Z</time>
      </trkpt>
      <trkpt lat="45.12553" lon="5.61103">
        <ele>1288.3</ele>
        <time>2020-02-23T10:59:11.000Z</time>
      </trkpt>
      <trkpt lat="45.12548" lon="5.61102">
        <ele>1299</ele>
        <time>2020-02-23T10:58:52.000Z</time>
      </trkpt>
      <trkpt lat="45.12546" lon="5.61101">
        <ele>1287.7</ele>
        <time>2020-02-23T10:59:02.000Z</time>
      </trkpt>
      <trkpt lat="45.1254" lon="5.611">
        <ele>1287</ele>
        <time>2020-02-23T10:59:12.000Z</time>
      </trkpt>
      <trkpt lat="45.12527" lon="5.61094">
        <ele>1295</ele>
        <time>2020-02-23T10:59:03.000Z</time>
      </trkpt>
      <trkpt lat="45.12521" lon="5.61093">
        <ele>1283.1</ele>
        <time>2020-02-23T10:59:13.000Z</time>
      </trkpt>
      <trkpt lat="45.12516" lon="5.61094">
        <ele>1282.1</ele>
        <time>2020-02-23T10:59:23.000Z</time>
      </trkpt>
      <trkpt lat="45.12509" lon="5.61095">
        <ele>1280.6</ele>
        <time>2020-02-23T10:59:33.000Z</time>
      </trkpt>
      <trkpt lat="45.12502" lon="5.61093">
        <ele>1295</ele>
        <time>2020-02-23T10:59:17.000Z</time>
      </trkpt>
      <trkpt lat="45.12496" lon="5.61089">
        <ele>1274.1</ele>
        <time>2020-02-23T10:59:27.000Z</time>
      </trkpt>
      <trkpt lat="45.12489" lon="5.61091">
        <ele>1274.7</ele>
        <time>2020-02-23T10:59:37.000Z</time>
      </trkpt>
      <trkpt lat="45.12484" lon="5.6109">
        <ele>1296</ele>
        <time>2020-02-23T10:59:28.000Z</time>
      </trkpt>
      <trkpt lat="45.12473" lon="5.61092">
        <ele>1274.9</ele>
        <time>2020-02-23T10:59:38.000Z</time>
      </trkpt>
      <trkpt lat="45.12463" lon="5.61089">
        <ele>1296</ele>
        <time>2020-02-23T10:59:39.000Z</time>
      </trkpt>
      <trkpt lat="45.12451" lon="5.61084">
        <ele>1272.3</ele>
        <time>2020-02-23T10:59:49.000Z</time>
      </trkpt>
      <trkpt lat="45.12443" lon="5.61083">
        <ele>1284</ele>
        <time>2020-02-23T10:59:47.000Z</time>
      </trkpt>
      <trkpt lat="45.12431" lon="5.61085">
        <ele>1267.5</ele>
        <time>2020-02-23T10:59:57.000Z</time>
      </trkpt>
      <trkpt lat="45.1242" lon="5.61088">
        <ele>1277</ele>
        <time>2020-02-23T10:59:54.000Z</time>
      </trkpt>
      <trkpt lat="45.12409" lon="5.61087">
        <ele>1264.5</ele>
        <time>2020-02-23T11:00:04.000Z</time>
      </trkpt>
      <trkpt lat="45.12398" lon="5.61083">
        <ele>1266</ele>
        <time>2020-02-23T11:00:03.000Z</time>
      </trkpt>
      <trkpt lat="45.12387" lon="5.61078">
        <ele>1256.1</ele>
        <time>2020-02-23T11:00:13.000Z</time>
      </trkpt>
      <trkpt lat="45.1238" lon="5.61072">
        <ele>1263</ele>
        <time>2020-02-23T11:00:10.000Z</time>
      </trkpt>
      <trkpt lat="45.12373" lon="5.61062">
        <ele>1255</ele>
        <time>2020-02-23T11:00:20.000Z</time>
      </trkpt>
      <trkpt lat="45.12368" lon="5.6105">
        <ele>1251</ele>
        <time>2020-02-23T11:00:17.000Z</time>
      </trkpt>
      <trkpt lat="45.12352" lon="5.61026">
        <ele>1251</ele>
        <time>2020-02-23T11:00:25.000Z</time>
      </trkpt>
      <trkpt lat="45.12347" lon="5.61011">
        <ele>1247</ele>
        <time>2020-02-23T11:00:35.000Z</time>
      </trkpt>
      <trkpt lat="45.12335" lon="5.60985">
        <ele>1239</ele>
        <time>2020-02-23T11:00:37.000Z</time>
      </trkpt>
      <trkpt lat="45.12328" lon="5.60976">
        <ele>1237.9</ele>
        <time>2020-02-23T11:00:47.000Z</time>
      </trkpt>
      <trkpt lat="45.12323" lon="5.60965">
        <ele>1236.6</ele>
        <time>2020-02-23T11:00:57.000Z</time>
      </trkpt>
      <trkpt lat="45.12311" lon="5.60945">
        <ele>1224</ele>
        <time>2020-02-23T11:00:50.000Z</time>
      </trkpt>
      <trkpt lat="45.12308" lon="5.60932">
        <ele>1233</ele>
        <time>2020-02-23T11:01:00.000Z</time>
      </trkpt>
      <trkpt lat="45.12301" lon="5.6092">
        <ele>1216</ele>
        <time>2020-02-23T11:00:58.000Z</time>
      </trkpt>
      <trkpt lat="45.12295" lon="5.60911">
        <ele>1220</ele>
        <time>2020-02-23T11:01:08.000Z</time>
      </trkpt>
      <trkpt lat="45.12283" lon="5.60889">
        <ele>1212</ele>
        <time>2020-02-23T11:01:13.000Z</time>
      </trkpt>
      <trkpt lat="45.12275" lon="5.60882">
        <ele>1217.5</ele>
        <time>2020-02-23T11:01:23.000Z</time>
      </trkpt>
      <trkpt lat="45.12266" lon="5.60874">
        <ele>1209</ele>
        <time>2020-02-23T11:01:21.000Z</time>
      </trkpt>
      <trkpt lat="45.12258" lon="5.60866">
        <ele>1214.8</ele>
        <time>2020-02-23T11:01:31.000Z</time>
      </trkpt>
      <trkpt lat="45.12254" lon="5.60853">
        <ele>1209</ele>
        <time>2020-02-23T11:01:28.000Z</time>
      </trkpt>
      <trkpt lat="45.1225" lon="5.6082">
        <ele>1195</ele>
        <time>2020-02-23T11:01:37.000Z</time>
      </trkpt>
      <trkpt lat="45.12243" lon="5.60795">
        <ele>1203.9</ele>
        <time>2020-02-23T11:01:47.000Z</time>
      </trkpt>
      <trkpt lat="45.12237" lon="5.6078">
        <ele>1189</ele>
        <time>2020-02-23T11:01:48.000Z</time>
      </trkpt>
      <trkpt lat="45.12236" lon="5.60765">
        <ele>1197.3</ele>
        <time>2020-02-23T11:01:58.000Z</time>
      </trkpt>
      <trkpt lat="45.12232" lon="5.60747">
        <ele>1181</ele>
        <time>2020-02-23T11:01:56.000Z</time>
      </trkpt>
      <trkpt lat="45.1223" lon="5.60743">
        <ele>1184.1</ele>
        <time>2020-02-23T11:02:06.000Z</time>
      </trkpt>
      <trkpt lat="45.12228" lon="5.6074">
        <ele>1184</ele>
        <time>2020-02-23T11:02:16.000Z</time>
      </trkpt>
      <trkpt lat="45.12226" lon="5.60733">
        <ele>1183.6</ele>
        <time>2020-02-23T11:02:26.000Z</time>
      </trkpt>
      <trkpt lat="45.12225" lon="5.60718">
        <ele>1177</ele>
        <time>2020-02-23T11:02:07.000Z</time>
      </trkpt>
      <trkpt lat="45.12225" lon="5.6069">
        <ele>1171</ele>
        <time>2020-02-23T11:02:15.000Z</time>
      </trkpt>
      <trkpt lat="45.12224" lon="5.60674">
        <ele>1172.5</ele>
        <time>2020-02-23T11:02:25.000Z</time>
      </trkpt>
      <trkpt lat="45.12223" lon="5.60659">
        <ele>1157</ele>
        <time>2020-02-23T11:02:25.000Z</time>
      </trkpt>
      <trkpt lat="45.1222" lon="5.6064">
        <ele>1158.4</ele>
        <time>2020-02-23T11:02:35.000Z</time>
      </trkpt>
      <trkpt lat="45.12217" lon="5.60632">
        <ele>1157</ele>
        <time>2020-02-23T11:02:31.000Z</time>
      </trkpt>
      <trkpt lat="45.12216" lon="5.60614">
        <ele>1156.5</ele>
        <time>2020-02-23T11:02:41.000Z</time>
      </trkpt>
      <trkpt lat="45.12216" lon="5.6061">
        <ele>1156</ele>
        <time>2020-02-23T11:02:51.000Z</time>
      </trkpt>
      <trkpt lat="45.12209" lon="5.60599">
        <ele>1144</ele>
        <time>2020-02-23T11:02:41.000Z</time>
      </trkpt>
      <trkpt lat="45.12204" lon="5.60588">
        <ele>1156.1</ele>
        <time>2020-02-23T11:02:51.000Z</time>
      </trkpt>
      <trkpt lat="45.12203" lon="5.60584">
        <ele>1156</ele>
        <time>2020-02-23T11:03:01.000Z</time>
      </trkpt>
      <trkpt lat="45.122" lon="5.60551">
        <ele>1137</ele>
        <time>2020-02-23T11:02:53.000Z</time>
      </trkpt>
      <trkpt lat="45.12201" lon="5.60547">
        <ele>1141.2</ele>
        <time>2020-02-23T11:03:03.000Z</time>
      </trkpt>
      <trkpt lat="45.12208" lon="5.60536">
        <ele>1139.6</ele>
        <time>2020-02-23T11:03:13.000Z</time>
      </trkpt>
      <trkpt lat="45.12219" lon="5.60525">
        <ele>1130</ele>
        <time>2020-02-23T11:03:03.000Z</time>
      </trkpt>
      <trkpt lat="45.12226" lon="5.60519">
        <ele>1137.5</ele>
        <time>2020-02-23T11:03:13.000Z</time>
      </trkpt>
      <trkpt lat="45.12231" lon="5.60518">
        <ele>1137.2</ele>
        <time>2020-02-23T11:03:23.000Z</time>
      </trkpt>
      <trkpt lat="45.12234" lon="5.60518">
        <ele>1137</ele>
        <time>2020-02-23T11:03:33.000Z</time>
      </trkpt>
      <trkpt lat="45.12243" lon="5.60521">
        <ele>1125</ele>
        <time>2020-02-23T11:03:12.000Z</time>
      </trkpt>
      <trkpt lat="45.12263" lon="5.60529">
        <ele>1125</ele>
        <time>2020-02-23T11:03:19.000Z</time>
      </trkpt>
      <trkpt lat="45.12265" lon="5.60529">
        <ele>1135</ele>
        <time>2020-02-23T11:03:29.000Z</time>
      </trkpt>
      <trkpt lat="45.12264" lon="5.60525">
        <ele>1134.8</ele>
        <time>2020-02-23T11:03:39.000Z</time>
      </trkpt>
      <trkpt lat="45.1226" lon="5.60522">
        <ele>1134.6</ele>
        <time>2020-02-23T11:03:49.000Z</time>
      </trkpt>
      <trkpt lat="45.12256" lon="5.60518">
        <ele>1134.4</ele>
        <time>2020-02-23T11:03:59.000Z</time>
      </trkpt>
      <trkpt lat="45.12242" lon="5.60512">
        <ele>1123</ele>
        <time>2020-02-23T11:03:31.000Z</time>
      </trkpt>
      <trkpt lat="45.1223" lon="5.60509">
        <ele>1136.5</ele>
        <time>2020-02-23T11:03:41.000Z</time>
      </trkpt>
      <trkpt lat="45.12198" lon="5.60504">
        <ele>1122</ele>
        <time>2020-02-23T11:03:48.000Z</time>
      </trkpt>
      <trkpt lat="45.12171" lon="5.60498">
        <ele>1122</ele>
        <time>2020-02-23T11:03:57.000Z</time>
      </trkpt>
      <trkpt lat="45.12162" lon="5.60495">
        <ele>1128.5</ele>
        <time>2020-02-23T11:04:07.000Z</time>
      </trkpt>
      <trkpt lat="45.12156" lon="5.60492">
        <ele>1128.2</ele>
        <time>2020-02-23T11:04:17.000Z</time>
      </trkpt>
      <trkpt lat="45.12153" lon="5.6049">
        <ele>1118</ele>
        <time>2020-02-23T11:04:03.000Z</time>
      </trkpt>
      <trkpt lat="45.12151" lon="5.60487">
        <ele>1127.9</ele>
        <time>2020-02-23T11:04:13.000Z</time>
      </trkpt>
      <trkpt lat="45.12149" lon="5.60483">
        <ele>1127.6</ele>
        <time>2020-02-23T11:04:23.000Z</time>
      </trkpt>
      <trkpt lat="45.12146" lon="5.60465">
        <ele>1118</ele>
        <time>2020-02-23T11:04:09.000Z</time>
      </trkpt>
      <trkpt lat="45.12143" lon="5.60457">
        <ele>1125.4</ele>
        <time>2020-02-23T11:04:19.000Z</time>
      </trkpt>
      <trkpt lat="45.1214" lon="5.6045">
        <ele>1124.8</ele>
        <time>2020-02-23T11:04:29.000Z</time>
      </trkpt>
      <trkpt lat="45.12133" lon="5.60441">
        <ele>1119</ele>
        <time>2020-02-23T11:04:16.000Z</time>
      </trkpt>
      <trkpt lat="45.12122" lon="5.60428">
        <ele>1124.4</ele>
        <time>2020-02-23T11:04:26.000Z</time>
      </trkpt>
      <trkpt lat="45.12095" lon="5.60393">
        <ele>1119</ele>
        <time>2020-02-23T11:04:34.000Z</time>
      </trkpt>
      <trkpt lat="45.12064" lon="5.60354">
        <ele>1119</ele>
        <time>2020-02-23T11:04:48.000Z</time>
      </trkpt>
      <trkpt lat="45.12057" lon="5.60344">
        <ele>1121.9</ele>
        <time>2020-02-23T11:04:58.000Z</time>
      </trkpt>
      <trkpt lat="45.12053" lon="5.60336">
        <ele>1121.8</ele>
        <time>2020-02-23T11:05:08.000Z</time>
      </trkpt>
      <trkpt lat="45.12051" lon="5.60327">
        <ele>1116</ele>
        <time>2020-02-23T11:04:55.000Z</time>
      </trkpt>
      <trkpt lat="45.12051" lon="5.60322">
        <ele>1125.2</ele>
        <time>2020-02-23T11:05:05.000Z</time>
      </trkpt>
      <trkpt lat="45.12052" lon="5.60313">
        <ele>1125.9</ele>
        <time>2020-02-23T11:05:15.000Z</time>
      </trkpt>
      <trkpt lat="45.12054" lon="5.60306">
        <ele>1126.5</ele>
        <time>2020-02-23T11:05:25.000Z</time>
      </trkpt>
      <trkpt lat="45.12066" lon="5.60304">
        <ele>1120</ele>
        <time>2020-02-23T11:05:04.000Z</time>
      </trkpt>
      <trkpt lat="45.12078" lon="5.60309">
        <ele>1125.4</ele>
        <time>2020-02-23T11:05:14.000Z</time>
      </trkpt>
      <trkpt lat="45.12089" lon="5.60317">
        <ele>1125</ele>
        <time>2020-02-23T11:05:10.000Z</time>
      </trkpt>
      <trkpt lat="45.12101" lon="5.60323">
        <ele>1126.7</ele>
        <time>2020-02-23T11:05:20.000Z</time>
      </trkpt>
      <trkpt lat="45.1212" lon="5.60334">
        <ele>1125</ele>
        <time>2020-02-23T11:05:19.000Z</time>
      </trkpt>
      <trkpt lat="45.12142" lon="5.60352">
        <ele>1125</ele>
        <time>2020-02-23T11:05:29.000Z</time>
      </trkpt>
      <trkpt lat="45.12164" lon="5.6037">
        <ele>1124</ele>
        <time>2020-02-23T11:05:35.000Z</time>
      </trkpt>
      <trkpt lat="45.12195" lon="5.60384">
        <ele>1115</ele>
        <time>2020-02-23T11:05:46.000Z</time>
      </trkpt>
      <trkpt lat="45.12216" lon="5.60386">
        <ele>1108</ele>
        <time>2020-02-23T11:05:52.000Z</time>
      </trkpt>
      <trkpt lat="45.12236" lon="5.60384">
        <ele>1108</ele>
        <time>2020-02-23T11:05:58.000Z</time>
      </trkpt>
      <trkpt lat="45.12256" lon="5.60379">
        <ele>1104</ele>
        <time>2020-02-23T11:06:04.000Z</time>
      </trkpt>
      <trkpt lat="45.12263" lon="5.60377">
        <ele>1111.7</ele>
        <time>2020-02-23T11:06:14.000Z</time>
      </trkpt>
      <trkpt lat="45.12266" lon="5.60375">
        <ele>1111.8</ele>
        <time>2020-02-23T11:06:24.000Z</time>
      </trkpt>
      <trkpt lat="45.12275" lon="5.6037">
        <ele>1098</ele>
        <time>2020-02-23T11:06:10.000Z</time>
      </trkpt>
      <trkpt lat="45.12285" lon="5.60362">
        <ele>1111.7</ele>
        <time>2020-02-23T11:06:20.000Z</time>
      </trkpt>
      <trkpt lat="45.12292" lon="5.60353">
        <ele>1098</ele>
        <time>2020-02-23T11:06:17.000Z</time>
      </trkpt>
      <trkpt lat="45.12299" lon="5.6034">
        <ele>1111</ele>
        <time>2020-02-23T11:06:27.000Z</time>
      </trkpt>
      <trkpt lat="45.12307" lon="5.60329">
        <ele>1093</ele>
        <time>2020-02-23T11:06:25.000Z</time>
      </trkpt>
      <trkpt lat="45.12318" lon="5.60316">
        <ele>1115.4</ele>
        <time>2020-02-23T11:06:35.000Z</time>
      </trkpt>
      <trkpt lat="45.12314" lon="5.60326">
        <ele>1093</ele>
        <time>2020-02-23T11:06:37.000Z</time>
      </trkpt>
      <trkpt lat="45.12316" lon="5.60324">
        <ele>1114.5</ele>
        <time>2020-02-23T11:06:47.000Z</time>
      </trkpt>
      <trkpt lat="45.12316" lon="5.60321">
        <ele>1114.9</ele>
        <time>2020-02-23T11:06:57.000Z</time>
      </trkpt>
      <trkpt lat="45.12315" lon="5.60318">
        <ele>1115.6</ele>
        <time>2020-02-23T11:07:07.000Z</time>
      </trkpt>
      <trkpt lat="45.12313" lon="5.60316">
        <ele>1116.2</ele>
        <time>2020-02-23T11:07:17.000Z</time>
      </trkpt>
      <trkpt lat="45.12311" lon="5.60315">
        <ele>1116.6</ele>
        <time>2020-02-23T11:07:27.000Z</time>
      </trkpt>
      <trkpt lat="45.12309" lon="5.60312">
        <ele>1117.3</ele>
        <time>2020-02-23T11:07:37.000Z</time>
      </trkpt>
      <trkpt lat="45.12308" lon="5.60307">
        <ele>1118</ele>
        <time>2020-02-23T11:07:47.000Z</time>
      </trkpt>
      <trkpt lat="45.1231" lon="5.60294">
        <ele>1093</ele>
        <time>2020-02-23T11:06:55.000Z</time>
      </trkpt>
      <trkpt lat="45.12317" lon="5.60285">
        <ele>1119.8</ele>
        <time>2020-02-23T11:07:05.000Z</time>
      </trkpt>
      <trkpt lat="45.12328" lon="5.60274">
        <ele>1094</ele>
        <time>2020-02-23T11:07:02.000Z</time>
      </trkpt>
      <trkpt lat="45.12342" lon="5.60265">
        <ele>1112.5</ele>
        <time>2020-02-23T11:07:12.000Z</time>
      </trkpt>
      <trkpt lat="45.1236" lon="5.60255">
        <ele>1102</ele>
        <time>2020-02-23T11:07:15.000Z</time>
      </trkpt>
      <trkpt lat="45.1237" lon="5.60253">
        <ele>1108.3</ele>
        <time>2020-02-23T11:07:25.000Z</time>
      </trkpt>
      <trkpt lat="45.12379" lon="5.60253">
        <ele>1106.8</ele>
        <time>2020-02-23T11:07:35.000Z</time>
      </trkpt>
      <trkpt lat="45.1239" lon="5.60254">
        <ele>1102</ele>
        <time>2020-02-23T11:07:23.000Z</time>
      </trkpt>
      <trkpt lat="45.12399" lon="5.60257">
        <ele>1103.5</ele>
        <time>2020-02-23T11:07:33.000Z</time>
      </trkpt>
      <trkpt lat="45.12403" lon="5.60258">
        <ele>1102.9</ele>
        <time>2020-02-23T11:07:43.000Z</time>
      </trkpt>
      <trkpt lat="45.1241" lon="5.60266">
        <ele>1100</ele>
        <time>2020-02-23T11:07:29.000Z</time>
      </trkpt>
      <trkpt lat="45.1242" lon="5.60271">
        <ele>1099.4</ele>
        <time>2020-02-23T11:07:39.000Z</time>
      </trkpt>
      <trkpt lat="45.12429" lon="5.60274">
        <ele>1101</ele>
        <time>2020-02-23T11:07:42.000Z</time>
      </trkpt>
      <trkpt lat="45.12439" lon="5.60279">
        <ele>1099.6</ele>
        <time>2020-02-23T11:07:52.000Z</time>
      </trkpt>
      <trkpt lat="45.12459" lon="5.60284">
        <ele>1101</ele>
        <time>2020-02-23T11:07:57.000Z</time>
      </trkpt>
      <trkpt lat="45.12468" lon="5.60288">
        <ele>1099.8</ele>
        <time>2020-02-23T11:08:07.000Z</time>
      </trkpt>
      <trkpt lat="45.1248" lon="5.60286">
        <ele>1099</ele>
        <time>2020-02-23T11:08:06.000Z</time>
      </trkpt>
      <trkpt lat="45.125" lon="5.60272">
        <ele>1097</ele>
        <time>2020-02-23T11:08:16.000Z</time>
      </trkpt>
      <trkpt lat="45.12507" lon="5.60263">
        <ele>1097.1</ele>
        <time>2020-02-23T11:08:26.000Z</time>
      </trkpt>
      <trkpt lat="45.12513" lon="5.6025">
        <ele>1092</ele>
        <time>2020-02-23T11:08:27.000Z</time>
      </trkpt>
      <trkpt lat="45.12516" lon="5.60237">
        <ele>1089.4</ele>
        <time>2020-02-23T11:08:37.000Z</time>
      </trkpt>
      <trkpt lat="45.12521" lon="5.60225">
        <ele>1083</ele>
        <time>2020-02-23T11:08:35.000Z</time>
      </trkpt>
      <trkpt lat="45.12522" lon="5.60212">
        <ele>1090.4</ele>
        <time>2020-02-23T11:08:45.000Z</time>
      </trkpt>
      <trkpt lat="45.12533" lon="5.60209">
        <ele>1080</ele>
        <time>2020-02-23T11:08:44.000Z</time>
      </trkpt>
      <trkpt lat="45.12535" lon="5.60207">
        <ele>1090</ele>
        <time>2020-02-23T11:08:54.000Z</time>
      </trkpt>
      <trkpt lat="45.1253" lon="5.60199">
        <ele>1090.3</ele>
        <time>2020-02-23T11:09:04.000Z</time>
      </trkpt>
      <trkpt lat="45.12528" lon="5.60188">
        <ele>1090.7</ele>
        <time>2020-02-23T11:09:14.000Z</time>
      </trkpt>
      <trkpt lat="45.12527" lon="5.60185">
        <ele>1078</ele>
        <time>2020-02-23T11:08:55.000Z</time>
      </trkpt>
      <trkpt lat="45.12524" lon="5.60169">
        <ele>1092</ele>
        <time>2020-02-23T11:09:05.000Z</time>
      </trkpt>
      <trkpt lat="45.12533" lon="5.60174">
        <ele>1078</ele>
        <time>2020-02-23T11:09:11.000Z</time>
      </trkpt>
      <trkpt lat="45.12539" lon="5.60184">
        <ele>1089.3</ele>
        <time>2020-02-23T11:09:21.000Z</time>
      </trkpt>
      <trkpt lat="45.1255" lon="5.60193">
        <ele>1075</ele>
        <time>2020-02-23T11:09:18.000Z</time>
      </trkpt>
      <trkpt lat="45.12554" lon="5.60192">
        <ele>1087.7</ele>
        <time>2020-02-23T11:09:28.000Z</time>
      </trkpt>
      <trkpt lat="45.12564" lon="5.60184">
        <ele>1085.2</ele>
        <time>2020-02-23T11:09:38.000Z</time>
      </trkpt>
      <trkpt lat="45.12569" lon="5.60174">
        <ele>1067</ele>
        <time>2020-02-23T11:09:28.000Z</time>
      </trkpt>
      <trkpt lat="45.12573" lon="5.60161">
        <ele>1079.1</ele>
        <time>2020-02-23T11:09:38.000Z</time>
      </trkpt>
      <trkpt lat="45.12579" lon="5.60148">
        <ele>1056</ele>
        <time>2020-02-23T11:09:35.000Z</time>
      </trkpt>
      <trkpt lat="45.12588" lon="5.60138">
        <ele>1074.1</ele>
        <time>2020-02-23T11:09:45.000Z</time>
      </trkpt>
      <trkpt lat="45.12595" lon="5.60126">
        <ele>1051</ele>
        <time>2020-02-23T11:09:43.000Z</time>
      </trkpt>
      <trkpt lat="45.12596" lon="5.60111">
        <ele>1072.1</ele>
        <time>2020-02-23T11:09:53.000Z</time>
      </trkpt>
      <trkpt lat="45.12594" lon="5.60096">
        <ele>1051</ele>
        <time>2020-02-23T11:09:57.000Z</time>
      </trkpt>
      <trkpt lat="45.12596" lon="5.60083">
        <ele>1064.1</ele>
        <time>2020-02-23T11:10:07.000Z</time>
      </trkpt>
      <trkpt lat="45.12596" lon="5.60069">
        <ele>1051</ele>
        <time>2020-02-23T11:10:08.000Z</time>
      </trkpt>
      <trkpt lat="45.12598" lon="5.60052">
        <ele>1061.1</ele>
        <time>2020-02-23T11:10:18.000Z</time>
      </trkpt>
      <trkpt lat="45.12603" lon="5.6004">
        <ele>1044</ele>
        <time>2020-02-23T11:10:15.000Z</time>
      </trkpt>
      <trkpt lat="45.12611" lon="5.6003">
        <ele>1059.1</ele>
        <time>2020-02-23T11:10:25.000Z</time>
      </trkpt>
      <trkpt lat="45.12617" lon="5.6002">
        <ele>1044</ele>
        <time>2020-02-23T11:10:21.000Z</time>
      </trkpt>
      <trkpt lat="45.12622" lon="5.60006">
        <ele>1057</ele>
        <time>2020-02-23T11:10:31.000Z</time>
      </trkpt>
      <trkpt lat="45.12639" lon="5.5999">
        <ele>1038</ele>
        <time>2020-02-23T11:10:30.000Z</time>
      </trkpt>
      <trkpt lat="45.12638" lon="5.59973">
        <ele>1048.9</ele>
        <time>2020-02-23T11:10:40.000Z</time>
      </trkpt>
      <trkpt lat="45.12637" lon="5.59967">
        <ele>1048.9</ele>
        <time>2020-02-23T11:10:50.000Z</time>
      </trkpt>
      <trkpt lat="45.12636" lon="5.59965">
        <ele>1049</ele>
        <time>2020-02-23T11:11:00.000Z</time>
      </trkpt>
      <trkpt lat="45.12631" lon="5.59954">
        <ele>1040</ele>
        <time>2020-02-23T11:10:42.000Z</time>
      </trkpt>
      <trkpt lat="45.12625" lon="5.59939">
        <ele>1049.5</ele>
        <time>2020-02-23T11:10:52.000Z</time>
      </trkpt>
      <trkpt lat="45.12621" lon="5.59915">
        <ele>1039</ele>
        <time>2020-02-23T11:10:50.000Z</time>
      </trkpt>
      <trkpt lat="45.12621" lon="5.59906">
        <ele>1046.3</ele>
        <time>2020-02-23T11:11:00.000Z</time>
      </trkpt>
      <trkpt lat="45.12623" lon="5.59879">
        <ele>1038</ele>
        <time>2020-02-23T11:10:58.000Z</time>
      </trkpt>
      <trkpt lat="45.12627" lon="5.59859">
        <ele>1044.4</ele>
        <time>2020-02-23T11:11:08.000Z</time>
      </trkpt>
      <trkpt lat="45.12628" lon="5.59846">
        <ele>1036</ele>
        <time>2020-02-23T11:11:06.000Z</time>
      </trkpt>
      <trkpt lat="45.12627" lon="5.59834">
        <ele>1043.9</ele>
        <time>2020-02-23T11:11:16.000Z</time>
      </trkpt>
      <trkpt lat="45.12624" lon="5.59818">
        <ele>1036</ele>
        <time>2020-02-23T11:11:13.000Z</time>
      </trkpt>
      <trkpt lat="45.12622" lon="5.59806">
        <ele>1040.5</ele>
        <time>2020-02-23T11:11:23.000Z</time>
      </trkpt>
      <trkpt lat="45.1262" lon="5.59794">
        <ele>1040.2</ele>
        <time>2020-02-23T11:11:33.000Z</time>
      </trkpt>
      <trkpt lat="45.12618" lon="5.59757">
        <ele>1034</ele>
        <time>2020-02-23T11:11:28.000Z</time>
      </trkpt>
      <trkpt lat="45.12619" lon="5.59753">
        <ele>1039.1</ele>
        <time>2020-02-23T11:11:38.000Z</time>
      </trkpt>
      <trkpt lat="45.12622" lon="5.59738">
        <ele>1036.1</ele>
        <time>2020-02-23T11:11:48.000Z</time>
      </trkpt>
      <trkpt lat="45.12626" lon="5.59727">
        <ele>1032</ele>
        <time>2020-02-23T11:11:36.000Z</time>
      </trkpt>
      <trkpt lat="45.12626" lon="5.597">
        <ele>1035.3</ele>
        <time>2020-02-23T11:11:46.000Z</time>
      </trkpt>
      <trkpt lat="45.12629" lon="5.59674">
        <ele>1030</ele>
        <time>2020-02-23T11:11:48.000Z</time>
      </trkpt>
      <trkpt lat="45.12631" lon="5.59661">
        <ele>1032.6</ele>
        <time>2020-02-23T11:11:58.000Z</time>
      </trkpt>
      <trkpt lat="45.12632" lon="5.59647">
        <ele>1030</ele>
        <time>2020-02-23T11:11:55.000Z</time>
      </trkpt>
      <trkpt lat="45.12635" lon="5.59631">
        <ele>1032.1</ele>
        <time>2020-02-23T11:12:05.000Z</time>
      </trkpt>
      <trkpt lat="45.12643" lon="5.59609">
        <ele>1030</ele>
        <time>2020-02-23T11:12:04.000Z</time>
      </trkpt>
      <trkpt lat="45.12643" lon="5.59602">
        <ele>1031.4</ele>
        <time>2020-02-23T11:12:14.000Z</time>
      </trkpt>
      <trkpt lat="45.12638" lon="5.5959">
        <ele>1031.3</ele>
        <time>2020-02-23T11:12:24.000Z</time>
      </trkpt>
      <trkpt lat="45.12635" lon="5.59588">
        <ele>1031.3</ele>
        <time>2020-02-23T11:12:34.000Z</time>
      </trkpt>
      <trkpt lat="45.12638" lon="5.59583">
        <ele>1029</ele>
        <time>2020-02-23T11:12:33.000Z</time>
      </trkpt>
      <trkpt lat="45.12641" lon="5.59574">
        <ele>1030</ele>
        <time>2020-02-23T11:12:43.000Z</time>
      </trkpt>
      <trkpt lat="45.12642" lon="5.5956">
        <ele>1030</ele>
        <time>2020-02-23T11:12:53.000Z</time>
      </trkpt>
      <trkpt lat="45.12645" lon="5.59548">
        <ele>1027</ele>
        <time>2020-02-23T11:12:42.000Z</time>
      </trkpt>
      <trkpt lat="45.1265" lon="5.59537">
        <ele>1029.7</ele>
        <time>2020-02-23T11:12:52.000Z</time>
      </trkpt>
      <trkpt lat="45.12659" lon="5.59518">
        <ele>1025</ele>
        <time>2020-02-23T11:12:50.000Z</time>
      </trkpt>
      <trkpt lat="45.12663" lon="5.59507">
        <ele>1028.6</ele>
        <time>2020-02-23T11:13:00.000Z</time>
      </trkpt>
      <trkpt lat="45.12679" lon="5.59458">
        <ele>1021</ele>
        <time>2020-02-23T11:13:05.000Z</time>
      </trkpt>
      <trkpt lat="45.12682" lon="5.59445">
        <ele>1026</ele>
        <time>2020-02-23T11:13:15.000Z</time>
      </trkpt>
      <trkpt lat="45.12692" lon="5.59413">
        <ele>1020</ele>
        <time>2020-02-23T11:13:16.000Z</time>
      </trkpt>
      <trkpt lat="45.12702" lon="5.59377">
        <ele>1020</ele>
        <time>2020-02-23T11:13:26.000Z</time>
      </trkpt>
      <trkpt lat="45.12715" lon="5.59332">
        <ele>1020</ele>
        <time>2020-02-23T11:13:36.000Z</time>
      </trkpt>
      <trkpt lat="45.12721" lon="5.59314">
        <ele>1024.7</ele>
        <time>2020-02-23T11:13:46.000Z</time>
      </trkpt>
      <trkpt lat="45.12728" lon="5.59297">
        <ele>1022</ele>
        <time>2020-02-23T11:13:46.000Z</time>
      </trkpt>
      <trkpt lat="45.12732" lon="5.59286">
        <ele>1024.4</ele>
        <time>2020-02-23T11:13:56.000Z</time>
      </trkpt>
      <trkpt lat="45.12735" lon="5.5927">
        <ele>1022</ele>
        <time>2020-02-23T11:13:53.000Z</time>
      </trkpt>
      <trkpt lat="45.12738" lon="5.59263">
        <ele>1023.9</ele>
        <time>2020-02-23T11:14:03.000Z</time>
      </trkpt>
      <trkpt lat="45.12742" lon="5.59256">
        <ele>1023.6</ele>
        <time>2020-02-23T11:14:13.000Z</time>
      </trkpt>
      <trkpt lat="45.12747" lon="5.5924">
        <ele>1021</ele>
        <time>2020-02-23T11:14:01.000Z</time>
      </trkpt>
      <trkpt lat="45.12748" lon="5.59236">
        <ele>1023</ele>
        <time>2020-02-23T11:14:11.000Z</time>
      </trkpt>
      <trkpt lat="45.12748" lon="5.59227">
        <ele>1022.9</ele>
        <time>2020-02-23T11:14:21.000Z</time>
      </trkpt>
      <trkpt lat="45.1275" lon="5.59219">
        <ele>1022.8</ele>
        <time>2020-02-23T11:14:31.000Z</time>
      </trkpt>
      <trkpt lat="45.12752" lon="5.59211">
        <ele>1021</ele>
        <time>2020-02-23T11:14:08.000Z</time>
      </trkpt>
      <trkpt lat="45.12756" lon="5.5919">
        <ele>1021.4</ele>
        <time>2020-02-23T11:14:18.000Z</time>
      </trkpt>
      <trkpt lat="45.12761" lon="5.5917">
        <ele>1017</ele>
        <time>2020-02-23T11:14:18.000Z</time>
      </trkpt>
      <trkpt lat="45.12764" lon="5.59154">
        <ele>1020.6</ele>
        <time>2020-02-23T11:14:28.000Z</time>
      </trkpt>
      <trkpt lat="45.12767" lon="5.59142">
        <ele>1015</ele>
        <time>2020-02-23T11:14:25.000Z</time>
      </trkpt>
      <trkpt lat="45.12772" lon="5.5913">
        <ele>1020.3</ele>
        <time>2020-02-23T11:14:35.000Z</time>
      </trkpt>
      <trkpt lat="45.12777" lon="5.59115">
        <ele>1014</ele>
        <time>2020-02-23T11:14:32.000Z</time>
      </trkpt>
      <trkpt lat="45.12779" lon="5.59107">
        <ele>1020.1</ele>
        <time>2020-02-23T11:14:42.000Z</time>
      </trkpt>
      <trkpt lat="45.12786" lon="5.59084">
        <ele>1014</ele>
        <time>2020-02-23T11:14:40.000Z</time>
      </trkpt>
      <trkpt lat="45.12791" lon="5.59064">
        <ele>1019.7</ele>
        <time>2020-02-23T11:14:50.000Z</time>
      </trkpt>
      <trkpt lat="45.12794" lon="5.59057">
        <ele>1015</ele>
        <time>2020-02-23T11:14:47.000Z</time>
      </trkpt>
      <trkpt lat="45.12795" lon="5.59044">
        <ele>1019.7</ele>
        <time>2020-02-23T11:14:57.000Z</time>
      </trkpt>
      <trkpt lat="45.12796" lon="5.59039">
        <ele>1019.7</ele>
        <time>2020-02-23T11:15:07.000Z</time>
      </trkpt>
      <trkpt lat="45.12802" lon="5.59019">
        <ele>1019</ele>
        <time>2020-02-23T11:14:56.000Z</time>
      </trkpt>
      <trkpt lat="45.12805" lon="5.59007">
        <ele>1019.4</ele>
        <time>2020-02-23T11:15:06.000Z</time>
      </trkpt>
      <trkpt lat="45.12804" lon="5.58979">
        <ele>1019</ele>
        <time>2020-02-23T11:15:05.000Z</time>
      </trkpt>
      <trkpt lat="45.12807" lon="5.58967">
        <ele>1018.7</ele>
        <time>2020-02-23T11:15:15.000Z</time>
      </trkpt>
      <trkpt lat="45.12812" lon="5.58953">
        <ele>1016</ele>
        <time>2020-02-23T11:15:12.000Z</time>
      </trkpt>
      <trkpt lat="45.12814" lon="5.58946">
        <ele>1018.3</ele>
        <time>2020-02-23T11:15:22.000Z</time>
      </trkpt>
      <trkpt lat="45.12817" lon="5.58943">
        <ele>1018.1</ele>
        <time>2020-02-23T11:15:32.000Z</time>
      </trkpt>
      <trkpt lat="45.12819" lon="5.58941">
        <ele>1018</ele>
        <time>2020-02-23T11:15:42.000Z</time>
      </trkpt>
      <trkpt lat="45.12825" lon="5.58943">
        <ele>1017.9</ele>
        <time>2020-02-23T11:15:52.000Z</time>
      </trkpt>
      <trkpt lat="45.12794" lon="5.5891">
        <ele>1017</ele>
        <time>2020-02-23T11:34:21.000Z</time>
      </trkpt>
      <trkpt lat="45.12798" lon="5.58903">
        <ele>1017.6</ele>
        <time>2020-02-23T11:34:31.000Z</time>
      </trkpt>
      <trkpt lat="45.128" lon="5.58903">
        <ele>1017.6</ele>
        <time>2020-02-23T11:34:41.000Z</time>
      </trkpt>
      <trkpt lat="45.12803" lon="5.58907">
        <ele>1017.5</ele>
        <time>2020-02-23T11:34:51.000Z</time>
      </trkpt>
      <trkpt lat="45.12806" lon="5.58913">
        <ele>1017.3</ele>
        <time>2020-02-23T11:35:01.000Z</time>
      </trkpt>
      <trkpt lat="45.12807" lon="5.58916">
        <ele>1015</ele>
        <time>2020-02-23T11:34:36.000Z</time>
      </trkpt>
      <trkpt lat="45.12809" lon="5.58914">
        <ele>1017.2</ele>
        <time>2020-02-23T11:34:46.000Z</time>
      </trkpt>
      <trkpt lat="45.12811" lon="5.58893">
        <ele>1017.3</ele>
        <time>2020-02-23T11:34:56.000Z</time>
      </trkpt>
      <trkpt lat="45.12814" lon="5.58879">
        <ele>1013</ele>
        <time>2020-02-23T11:34:51.000Z</time>
      </trkpt>
      <trkpt lat="45.12818" lon="5.58869">
        <ele>1017.2</ele>
        <time>2020-02-23T11:35:01.000Z</time>
      </trkpt>
      <trkpt lat="45.12826" lon="5.58861">
        <ele>1017.1</ele>
        <time>2020-02-23T11:35:11.000Z</time>
      </trkpt>
      <trkpt lat="45.12828" lon="5.58856">
        <ele>1012</ele>
        <time>2020-02-23T11:35:00.000Z</time>
      </trkpt>
      <trkpt lat="45.12833" lon="5.58824">
        <ele>1012</ele>
        <time>2020-02-23T11:35:09.000Z</time>
      </trkpt>
      <trkpt lat="45.12841" lon="5.58796">
        <ele>1012</ele>
        <time>2020-02-23T11:35:16.000Z</time>
      </trkpt>
      <trkpt lat="45.12851" lon="5.58769">
        <ele>1012</ele>
        <time>2020-02-23T11:35:24.000Z</time>
      </trkpt>
      <trkpt lat="45.12852" lon="5.58761">
        <ele>1013.8</ele>
        <time>2020-02-23T11:35:34.000Z</time>
      </trkpt>
      <trkpt lat="45.12857" lon="5.58744">
        <ele>1012</ele>
        <time>2020-02-23T11:35:31.000Z</time>
      </trkpt>
      <trkpt lat="45.12864" lon="5.58728">
        <ele>1014.9</ele>
        <time>2020-02-23T11:35:41.000Z</time>
      </trkpt>
      <trkpt lat="45.12876" lon="5.58695">
        <ele>1012</ele>
        <time>2020-02-23T11:35:45.000Z</time>
      </trkpt>
      <trkpt lat="45.12878" lon="5.5868">
        <ele>1014.9</ele>
        <time>2020-02-23T11:35:55.000Z</time>
      </trkpt>
      <trkpt lat="45.12882" lon="5.58665">
        <ele>1012</ele>
        <time>2020-02-23T11:35:53.000Z</time>
      </trkpt>
      <trkpt lat="45.12889" lon="5.58643">
        <ele>1013.7</ele>
        <time>2020-02-23T11:36:03.000Z</time>
      </trkpt>
      <trkpt lat="45.1289" lon="5.58639">
        <ele>1012</ele>
        <time>2020-02-23T11:36:00.000Z</time>
      </trkpt>
      <trkpt lat="45.12899" lon="5.58614">
        <ele>1009</ele>
        <time>2020-02-23T11:36:07.000Z</time>
      </trkpt>
      <trkpt lat="45.12905" lon="5.58593">
        <ele>1012.1</ele>
        <time>2020-02-23T11:36:17.000Z</time>
      </trkpt>
      <trkpt lat="45.12906" lon="5.58589">
        <ele>1009</ele>
        <time>2020-02-23T11:36:14.000Z</time>
      </trkpt>
      <trkpt lat="45.12907" lon="5.58578">
        <ele>1011.4</ele>
        <time>2020-02-23T11:36:24.000Z</time>
      </trkpt>
      <trkpt lat="45.12908" lon="5.5857">
        <ele>1011.6</ele>
        <time>2020-02-23T11:36:34.000Z</time>
      </trkpt>
      <trkpt lat="45.12917" lon="5.58534">
        <ele>1011</ele>
        <time>2020-02-23T11:36:28.000Z</time>
      </trkpt>
      <trkpt lat="45.12927" lon="5.58503">
        <ele>1011</ele>
        <time>2020-02-23T11:36:36.000Z</time>
      </trkpt>
      <trkpt lat="45.1293" lon="5.58496">
        <ele>1011.5</ele>
        <time>2020-02-23T11:36:46.000Z</time>
      </trkpt>
      <trkpt lat="45.1294" lon="5.58458">
        <ele>1005</ele>
        <time>2020-02-23T11:36:48.000Z</time>
      </trkpt>
      <trkpt lat="45.1295" lon="5.58429">
        <ele>1003</ele>
        <time>2020-02-23T11:36:56.000Z</time>
      </trkpt>
      <trkpt lat="45.12955" lon="5.58403">
        <ele>1003</ele>
        <time>2020-02-23T11:37:03.000Z</time>
      </trkpt>
      <trkpt lat="45.12965" lon="5.58366">
        <ele>1004</ele>
        <time>2020-02-23T11:37:13.000Z</time>
      </trkpt>
      <trkpt lat="45.1297" lon="5.58349">
        <ele>1008.3</ele>
        <time>2020-02-23T11:37:23.000Z</time>
      </trkpt>
      <trkpt lat="45.12976" lon="5.58335">
        <ele>1004</ele>
        <time>2020-02-23T11:37:22.000Z</time>
      </trkpt>
      <trkpt lat="45.1298" lon="5.58324">
        <ele>1007.3</ele>
        <time>2020-02-23T11:37:32.000Z</time>
      </trkpt>
      <trkpt lat="45.12993" lon="5.5829">
        <ele>1004</ele>
        <time>2020-02-23T11:37:35.000Z</time>
      </trkpt>
      <trkpt lat="45.13001" lon="5.58259">
        <ele>1004</ele>
        <time>2020-02-23T11:37:43.000Z</time>
      </trkpt>
      <trkpt lat="45.13013" lon="5.58236">
        <ele>1006</ele>
        <time>2020-02-23T11:37:50.000Z</time>
      </trkpt>
      <trkpt lat="45.13015" lon="5.58223">
        <ele>1005.4</ele>
        <time>2020-02-23T11:38:00.000Z</time>
      </trkpt>
      <trkpt lat="45.13017" lon="5.58215">
        <ele>1005.3</ele>
        <time>2020-02-23T11:38:10.000Z</time>
      </trkpt>
      <trkpt lat="45.13023" lon="5.58197">
        <ele>1011</ele>
        <time>2020-02-23T11:38:00.000Z</time>
      </trkpt>
      <trkpt lat="45.13031" lon="5.5817">
        <ele>1014</ele>
        <time>2020-02-23T11:38:07.000Z</time>
      </trkpt>
      <trkpt lat="45.13033" lon="5.58163">
        <ele>1005.2</ele>
        <time>2020-02-23T11:38:17.000Z</time>
      </trkpt>
      <trkpt lat="45.13038" lon="5.58153">
        <ele>1005.1</ele>
        <time>2020-02-23T11:38:27.000Z</time>
      </trkpt>
      <trkpt lat="45.13042" lon="5.58142">
        <ele>1015</ele>
        <time>2020-02-23T11:38:15.000Z</time>
      </trkpt>
      <trkpt lat="45.13045" lon="5.58127">
        <ele>1005.2</ele>
        <time>2020-02-23T11:38:25.000Z</time>
      </trkpt>
      <trkpt lat="45.13049" lon="5.58117">
        <ele>1005.3</ele>
        <time>2020-02-23T11:38:35.000Z</time>
      </trkpt>
      <trkpt lat="45.1305" lon="5.5811">
        <ele>1015</ele>
        <time>2020-02-23T11:38:24.000Z</time>
      </trkpt>
      <trkpt lat="45.1305" lon="5.58106">
        <ele>1005.4</ele>
        <time>2020-02-23T11:38:34.000Z</time>
      </trkpt>
      <trkpt lat="45.13047" lon="5.58099">
        <ele>1005.4</ele>
        <time>2020-02-23T11:38:44.000Z</time>
      </trkpt>
      <trkpt lat="45.13043" lon="5.58095">
        <ele>1005.5</ele>
        <time>2020-02-23T11:38:54.000Z</time>
      </trkpt>
      <trkpt lat="45.13038" lon="5.58091">
        <ele>1015</ele>
        <time>2020-02-23T11:38:31.000Z</time>
      </trkpt>
      <trkpt lat="45.13019" lon="5.58082">
        <ele>1015</ele>
        <time>2020-02-23T11:38:38.000Z</time>
      </trkpt>
      <trkpt lat="45.13013" lon="5.58077">
        <ele>1007.1</ele>
        <time>2020-02-23T11:38:48.000Z</time>
      </trkpt>
      <trkpt lat="45.13009" lon="5.58073">
        <ele>1007.1</ele>
        <time>2020-02-23T11:38:58.000Z</time>
      </trkpt>
      <trkpt lat="45.13008" lon="5.5807">
        <ele>1007.2</ele>
        <time>2020-02-23T11:39:08.000Z</time>
      </trkpt>
      <trkpt lat="45.13007" lon="5.58063">
        <ele>1015</ele>
        <time>2020-02-23T11:38:46.000Z</time>
      </trkpt>
      <trkpt lat="45.13004" lon="5.58057">
        <ele>1007.7</ele>
        <time>2020-02-23T11:38:56.000Z</time>
      </trkpt>
      <trkpt lat="45.1299" lon="5.58042">
        <ele>1013</ele>
        <time>2020-02-23T11:38:55.000Z</time>
      </trkpt>
      <trkpt lat="45.12988" lon="5.58041">
        <ele>1006.5</ele>
        <time>2020-02-23T11:39:05.000Z</time>
      </trkpt>
      <trkpt lat="45.12985" lon="5.58041">
        <ele>1006.5</ele>
        <time>2020-02-23T11:39:15.000Z</time>
      </trkpt>
      <trkpt lat="45.12982" lon="5.5804">
        <ele>1006.5</ele>
        <time>2020-02-23T11:39:25.000Z</time>
      </trkpt>
      <trkpt lat="45.12975" lon="5.58033">
        <ele>1006.6</ele>
        <time>2020-02-23T11:39:35.000Z</time>
      </trkpt>
      <trkpt lat="45.12958" lon="5.5802">
        <ele>1012</ele>
        <time>2020-02-23T11:39:09.000Z</time>
      </trkpt>
      <trkpt lat="45.12938" lon="5.58003">
        <ele>1012</ele>
        <time>2020-02-23T11:39:18.000Z</time>
      </trkpt>
      <trkpt lat="45.12915" lon="5.57986">
        <ele>1012</ele>
        <time>2020-02-23T11:39:28.000Z</time>
      </trkpt>
      <trkpt lat="45.12888" lon="5.57966">
        <ele>1012</ele>
        <time>2020-02-23T11:39:37.000Z</time>
      </trkpt>
      <trkpt lat="45.12861" lon="5.57943">
        <ele>1012</ele>
        <time>2020-02-23T11:39:48.000Z</time>
      </trkpt>
      <trkpt lat="45.12837" lon="5.57925">
        <ele>1013</ele>
        <time>2020-02-23T11:39:57.000Z</time>
      </trkpt>
      <trkpt lat="45.12821" lon="5.57911">
        <ele>1013</ele>
        <time>2020-02-23T11:40:04.000Z</time>
      </trkpt>
      <trkpt lat="45.12791" lon="5.57887">
        <ele>1014</ele>
        <time>2020-02-23T11:40:16.000Z</time>
      </trkpt>
      <trkpt lat="45.12775" lon="5.57876">
        <ele>1004.8</ele>
        <time>2020-02-23T11:40:26.000Z</time>
      </trkpt>
      <trkpt lat="45.12768" lon="5.57869">
        <ele>1015</ele>
        <time>2020-02-23T11:40:25.000Z</time>
      </trkpt>
      <trkpt lat="45.12766" lon="5.57866">
        <ele>1005</ele>
        <time>2020-02-23T11:40:35.000Z</time>
      </trkpt>
      <trkpt lat="45.12764" lon="5.57859">
        <ele>1005.2</ele>
        <time>2020-02-23T11:40:45.000Z</time>
      </trkpt>
      <trkpt lat="45.12763" lon="5.57848">
        <ele>1005.5</ele>
        <time>2020-02-23T11:40:55.000Z</time>
      </trkpt>
      <trkpt lat="45.12765" lon="5.57838">
        <ele>1015</ele>
        <time>2020-02-23T11:40:34.000Z</time>
      </trkpt>
      <trkpt lat="45.12768" lon="5.57822">
        <ele>1010.9</ele>
        <time>2020-02-23T11:40:44.000Z</time>
      </trkpt>
      <trkpt lat="45.12771" lon="5.57802">
        <ele>1015</ele>
        <time>2020-02-23T11:40:45.000Z</time>
      </trkpt>
      <trkpt lat="45.12771" lon="5.57772">
        <ele>1019</ele>
        <time>2020-02-23T11:40:56.000Z</time>
      </trkpt>
      <trkpt lat="45.1277" lon="5.5776">
        <ele>1016</ele>
        <time>2020-02-23T11:41:06.000Z</time>
      </trkpt>
      <trkpt lat="45.12765" lon="5.57733">
        <ele>1024</ele>
        <time>2020-02-23T11:41:16.000Z</time>
      </trkpt>
      <trkpt lat="45.12763" lon="5.57725">
        <ele>1026</ele>
        <time>2020-02-23T11:41:26.000Z</time>
      </trkpt>
      <trkpt lat="45.12756" lon="5.57706">
        <ele>1025</ele>
        <time>2020-02-23T11:41:30.000Z</time>
      </trkpt>
      <trkpt lat="45.12753" lon="5.57693">
        <ele>1027.7</ele>
        <time>2020-02-23T11:41:40.000Z</time>
      </trkpt>
      <trkpt lat="45.12749" lon="5.57682">
        <ele>1018.9</ele>
        <time>2020-02-23T11:41:50.000Z</time>
      </trkpt>
      <trkpt lat="45.1274" lon="5.57665">
        <ele>1028</ele>
        <time>2020-02-23T11:41:52.000Z</time>
      </trkpt>
      <trkpt lat="45.12726" lon="5.57644">
        <ele>1032</ele>
        <time>2020-02-23T11:42:06.000Z</time>
      </trkpt>
      <trkpt lat="45.12713" lon="5.57629">
        <ele>1032.7</ele>
        <time>2020-02-23T11:42:16.000Z</time>
      </trkpt>
      <trkpt lat="45.12704" lon="5.57619">
        <ele>1038</ele>
        <time>2020-02-23T11:42:27.000Z</time>
      </trkpt>
      <trkpt lat="45.12697" lon="5.57612">
        <ele>1034.3</ele>
        <time>2020-02-23T11:42:37.000Z</time>
      </trkpt>
      <trkpt lat="45.12681" lon="5.57599">
        <ele>1044</ele>
        <time>2020-02-23T11:42:46.000Z</time>
      </trkpt>
      <trkpt lat="45.12671" lon="5.57589">
        <ele>1037.6</ele>
        <time>2020-02-23T11:42:56.000Z</time>
      </trkpt>
      <trkpt lat="45.12667" lon="5.57583">
        <ele>1039.4</ele>
        <time>2020-02-23T11:43:06.000Z</time>
      </trkpt>
      <trkpt lat="45.12657" lon="5.57567">
        <ele>1048</ele>
        <time>2020-02-23T11:43:05.000Z</time>
      </trkpt>
      <trkpt lat="45.12652" lon="5.57558">
        <ele>1039.5</ele>
        <time>2020-02-23T11:43:15.000Z</time>
      </trkpt>
      <trkpt lat="45.12642" lon="5.57539">
        <ele>1056</ele>
        <time>2020-02-23T11:43:17.000Z</time>
      </trkpt>
      <trkpt lat="45.12626" lon="5.57514">
        <ele>1062</ele>
        <time>2020-02-23T11:43:30.000Z</time>
      </trkpt>
      <trkpt lat="45.1261" lon="5.57494">
        <ele>1062</ele>
        <time>2020-02-23T11:43:41.000Z</time>
      </trkpt>
      <trkpt lat="45.12593" lon="5.57471">
        <ele>1072</ele>
        <time>2020-02-23T11:43:54.000Z</time>
      </trkpt>
      <trkpt lat="45.12587" lon="5.57464">
        <ele>1054.7</ele>
        <time>2020-02-23T11:44:04.000Z</time>
      </trkpt>
      <trkpt lat="45.12579" lon="5.57454">
        <ele>1043.3</ele>
        <time>2020-02-23T11:44:14.000Z</time>
      </trkpt>
      <trkpt lat="45.12574" lon="5.57443">
        <ele>1078</ele>
        <time>2020-02-23T11:44:09.000Z</time>
      </trkpt>
      <trkpt lat="45.12573" lon="5.5744">
        <ele>1046.7</ele>
        <time>2020-02-23T11:44:19.000Z</time>
      </trkpt>
      <trkpt lat="45.12573" lon="5.57432">
        <ele>1049.4</ele>
        <time>2020-02-23T11:44:29.000Z</time>
      </trkpt>
      <trkpt lat="45.12572" lon="5.57428">
        <ele>1050.5</ele>
        <time>2020-02-23T11:44:39.000Z</time>
      </trkpt>
      <trkpt lat="45.12567" lon="5.57418">
        <ele>1082</ele>
        <time>2020-02-23T11:44:23.000Z</time>
      </trkpt>
      <trkpt lat="45.12562" lon="5.57411">
        <ele>1062.3</ele>
        <time>2020-02-23T11:44:33.000Z</time>
      </trkpt>
      <trkpt lat="45.12558" lon="5.57405">
        <ele>1062.5</ele>
        <time>2020-02-23T11:44:43.000Z</time>
      </trkpt>
      <trkpt lat="45.12552" lon="5.57401">
        <ele>1084</ele>
        <time>2020-02-23T11:44:34.000Z</time>
      </trkpt>
      <trkpt lat="45.12534" lon="5.57383">
        <ele>1085</ele>
        <time>2020-02-23T11:44:45.000Z</time>
      </trkpt>
      <trkpt lat="45.12507" lon="5.57351">
        <ele>1093</ele>
        <time>2020-02-23T11:45:05.000Z</time>
      </trkpt>
      <trkpt lat="45.12491" lon="5.57332">
        <ele>1100</ele>
        <time>2020-02-23T11:45:17.000Z</time>
      </trkpt>
      <trkpt lat="45.12484" lon="5.57324">
        <ele>1072</ele>
        <time>2020-02-23T11:45:27.000Z</time>
      </trkpt>
      <trkpt lat="45.12474" lon="5.57312">
        <ele>1103</ele>
        <time>2020-02-23T11:45:30.000Z</time>
      </trkpt>
      <trkpt lat="45.12472" lon="5.57308">
        <ele>1074.4</ele>
        <time>2020-02-23T11:45:40.000Z</time>
      </trkpt>
      <trkpt lat="45.12466" lon="5.57302">
        <ele>1075</ele>
        <time>2020-02-23T11:45:50.000Z</time>
      </trkpt>
      <trkpt lat="45.1246" lon="5.57292">
        <ele>1105</ele>
        <time>2020-02-23T11:45:41.000Z</time>
      </trkpt>
      <trkpt lat="45.12456" lon="5.57286">
        <ele>1077.1</ele>
        <time>2020-02-23T11:45:51.000Z</time>
      </trkpt>
      <trkpt lat="45.12449" lon="5.57279">
        <ele>1077.7</ele>
        <time>2020-02-23T11:46:01.000Z</time>
      </trkpt>
      <trkpt lat="45.12441" lon="5.57269">
        <ele>1118</ele>
        <time>2020-02-23T11:45:55.000Z</time>
      </trkpt>
      <trkpt lat="45.12429" lon="5.57258">
        <ele>1080.3</ele>
        <time>2020-02-23T11:46:05.000Z</time>
      </trkpt>
      <trkpt lat="45.12415" lon="5.57246">
        <ele>1123</ele>
        <time>2020-02-23T11:46:13.000Z</time>
      </trkpt>
      <trkpt lat="45.1239" lon="5.57224">
        <ele>1123</ele>
        <time>2020-02-23T11:46:30.000Z</time>
      </trkpt>
      <trkpt lat="45.12377" lon="5.57209">
        <ele>1088.9</ele>
        <time>2020-02-23T11:46:40.000Z</time>
      </trkpt>
      <trkpt lat="45.12366" lon="5.57198">
        <ele>1120</ele>
        <time>2020-02-23T11:46:45.000Z</time>
      </trkpt>
      <trkpt lat="45.1236" lon="5.57191">
        <ele>1089.7</ele>
        <time>2020-02-23T11:46:55.000Z</time>
      </trkpt>
      <trkpt lat="45.12346" lon="5.57176">
        <ele>1106</ele>
        <time>2020-02-23T11:46:58.000Z</time>
      </trkpt>
      <trkpt lat="45.12339" lon="5.57172">
        <ele>1090.5</ele>
        <time>2020-02-23T11:47:08.000Z</time>
      </trkpt>
      <trkpt lat="45.12335" lon="5.57169">
        <ele>1090.8</ele>
        <time>2020-02-23T11:47:18.000Z</time>
      </trkpt>
      <trkpt lat="45.12333" lon="5.57167">
        <ele>1090.6</ele>
        <time>2020-02-23T11:47:28.000Z</time>
      </trkpt>
      <trkpt lat="45.12333" lon="5.57164">
        <ele>1092.6</ele>
        <time>2020-02-23T11:47:38.000Z</time>
      </trkpt>
      <trkpt lat="45.12345" lon="5.57162">
        <ele>1106</ele>
        <time>2020-02-23T11:47:21.000Z</time>
      </trkpt>
      <trkpt lat="45.12355" lon="5.57163">
        <ele>1110.6</ele>
        <time>2020-02-23T11:47:31.000Z</time>
      </trkpt>
      <trkpt lat="45.1236" lon="5.57162">
        <ele>1113.1</ele>
        <time>2020-02-23T11:47:41.000Z</time>
      </trkpt>
      <trkpt lat="45.12369" lon="5.57162">
        <ele>1116</ele>
        <time>2020-02-23T11:47:41.000Z</time>
      </trkpt>
      <trkpt lat="45.12377" lon="5.57163">
        <ele>1118.1</ele>
        <time>2020-02-23T11:47:51.000Z</time>
      </trkpt>
      <trkpt lat="45.12387" lon="5.57166">
        <ele>1119.3</ele>
        <time>2020-02-23T11:48:01.000Z</time>
      </trkpt>
      <trkpt lat="45.12391" lon="5.57165">
        <ele>1124</ele>
        <time>2020-02-23T11:47:59.000Z</time>
      </trkpt>
      <trkpt lat="45.12394" lon="5.57166">
        <ele>1119.8</ele>
        <time>2020-02-23T11:48:09.000Z</time>
      </trkpt>
      <trkpt lat="45.12403" lon="5.57169">
        <ele>1105.1</ele>
        <time>2020-02-23T11:48:19.000Z</time>
      </trkpt>
      <trkpt lat="45.12405" lon="5.57171">
        <ele>1105.9</ele>
        <time>2020-02-23T11:48:29.000Z</time>
      </trkpt>
      <trkpt lat="45.12412" lon="5.57176">
        <ele>1133</ele>
        <time>2020-02-23T11:48:11.000Z</time>
      </trkpt>
      <trkpt lat="45.12423" lon="5.57183">
        <ele>1112.5</ele>
        <time>2020-02-23T11:48:21.000Z</time>
      </trkpt>
      <trkpt lat="45.12443" lon="5.57192">
        <ele>1134</ele>
        <time>2020-02-23T11:48:26.000Z</time>
      </trkpt>
      <trkpt lat="45.12444" lon="5.57197">
        <ele>1110.1</ele>
        <time>2020-02-23T11:48:36.000Z</time>
      </trkpt>
      <trkpt lat="45.12446" lon="5.572">
        <ele>1109.7</ele>
        <time>2020-02-23T11:48:46.000Z</time>
      </trkpt>
      <trkpt lat="45.12447" lon="5.57193">
        <ele>1111.1</ele>
        <time>2020-02-23T11:48:56.000Z</time>
      </trkpt>
      <trkpt lat="45.12441" lon="5.57187">
        <ele>1133</ele>
        <time>2020-02-23T11:49:01.000Z</time>
      </trkpt>
      <trkpt lat="45.12422" lon="5.57178">
        <ele>1133</ele>
        <time>2020-02-23T11:49:09.000Z</time>
      </trkpt>
      <trkpt lat="45.12418" lon="5.57175">
        <ele>1114.6</ele>
        <time>2020-02-23T11:49:19.000Z</time>
      </trkpt>
      <trkpt lat="45.12411" lon="5.57171">
        <ele>1109.9</ele>
        <time>2020-02-23T11:49:29.000Z</time>
      </trkpt>
      <trkpt lat="45.12399" lon="5.57162">
        <ele>1127</ele>
        <time>2020-02-23T11:49:20.000Z</time>
      </trkpt>
      <trkpt lat="45.12377" lon="5.57152">
        <ele>1122</ele>
        <time>2020-02-23T11:49:29.000Z</time>
      </trkpt>
      <trkpt lat="45.12371" lon="5.57146">
        <ele>1119.7</ele>
        <time>2020-02-23T11:49:39.000Z</time>
      </trkpt>
      <trkpt lat="45.12364" lon="5.57141">
        <ele>1119.5</ele>
        <time>2020-02-23T11:49:49.000Z</time>
      </trkpt>
      <trkpt lat="45.12357" lon="5.57136">
        <ele>1122</ele>
        <time>2020-02-23T11:49:38.000Z</time>
      </trkpt>
      <trkpt lat="45.12347" lon="5.57128">
        <ele>1121.3</ele>
        <time>2020-02-23T11:49:48.000Z</time>
      </trkpt>
      <trkpt lat="45.1234" lon="5.57125">
        <ele>1122</ele>
        <time>2020-02-23T11:49:58.000Z</time>
      </trkpt>
      <trkpt lat="45.12336" lon="5.5712">
        <ele>1122</ele>
        <time>2020-02-23T11:49:49.000Z</time>
      </trkpt>
      <trkpt lat="45.12329" lon="5.57114">
        <ele>1114.5</ele>
        <time>2020-02-23T11:49:59.000Z</time>
      </trkpt>
      <trkpt lat="45.12321" lon="5.57105">
        <ele>1117.8</ele>
        <time>2020-02-23T11:50:09.000Z</time>
      </trkpt>
      <trkpt lat="45.12317" lon="5.57101">
        <ele>1126</ele>
        <time>2020-02-23T11:50:07.000Z</time>
      </trkpt>
      <trkpt lat="45.12313" lon="5.57096">
        <ele>1118.9</ele>
        <time>2020-02-23T11:50:17.000Z</time>
      </trkpt>
      <trkpt lat="45.123" lon="5.57083">
        <ele>1130</ele>
        <time>2020-02-23T11:50:23.000Z</time>
      </trkpt>
      <trkpt lat="45.1229" lon="5.57076">
        <ele>1138.9</ele>
        <time>2020-02-23T11:50:33.000Z</time>
      </trkpt>
      <trkpt lat="45.12288" lon="5.57074">
        <ele>1138.7</ele>
        <time>2020-02-23T11:50:43.000Z</time>
      </trkpt>
      <trkpt lat="45.12281" lon="5.57068">
        <ele>1139</ele>
        <time>2020-02-23T11:50:39.000Z</time>
      </trkpt>
      <trkpt lat="45.12279" lon="5.57066">
        <ele>1137.7</ele>
        <time>2020-02-23T11:50:49.000Z</time>
      </trkpt>
      <trkpt lat="45.12276" lon="5.57061">
        <ele>1138.2</ele>
        <time>2020-02-23T11:50:59.000Z</time>
      </trkpt>
      <trkpt lat="45.12271" lon="5.57056">
        <ele>1138.6</ele>
        <time>2020-02-23T11:51:09.000Z</time>
      </trkpt>
      <trkpt lat="45.12252" lon="5.5704">
        <ele>1143</ele>
        <time>2020-02-23T11:51:06.000Z</time>
      </trkpt>
      <trkpt lat="45.12248" lon="5.57036">
        <ele>1132.1</ele>
        <time>2020-02-23T11:51:16.000Z</time>
      </trkpt>
      <trkpt lat="45.12244" lon="5.57034">
        <ele>1132.7</ele>
        <time>2020-02-23T11:51:26.000Z</time>
      </trkpt>
      <trkpt lat="45.1224" lon="5.5703">
        <ele>1134</ele>
        <time>2020-02-23T11:51:36.000Z</time>
      </trkpt>
      <trkpt lat="45.12228" lon="5.57023">
        <ele>1147</ele>
        <time>2020-02-23T11:51:34.000Z</time>
      </trkpt>
      <trkpt lat="45.12215" lon="5.57012">
        <ele>1135</ele>
        <time>2020-02-23T11:51:44.000Z</time>
      </trkpt>
      <trkpt lat="45.12211" lon="5.57008">
        <ele>1151</ele>
        <time>2020-02-23T11:51:56.000Z</time>
      </trkpt>
      <trkpt lat="45.12209" lon="5.57007">
        <ele>1134.8</ele>
        <time>2020-02-23T11:52:06.000Z</time>
      </trkpt>
      <trkpt lat="45.12205" lon="5.57005">
        <ele>1134.7</ele>
        <time>2020-02-23T11:52:16.000Z</time>
      </trkpt>
      <trkpt lat="45.12196" lon="5.56998">
        <ele>1159</ele>
        <time>2020-02-23T11:52:26.000Z</time>
      </trkpt>
      <trkpt lat="45.12187" lon="5.56993">
        <ele>1156</ele>
        <time>2020-02-23T11:52:18.000Z</time>
      </trkpt>
      <trkpt lat="45.12181" lon="5.56992">
        <ele>1154.7</ele>
        <time>2020-02-23T11:52:28.000Z</time>
      </trkpt>
      <trkpt lat="45.12172" lon="5.56989">
        <ele>1152.5</ele>
        <time>2020-02-23T11:52:38.000Z</time>
      </trkpt>
      <trkpt lat="45.12169" lon="5.56987">
        <ele>1153.1</ele>
        <time>2020-02-23T11:52:48.000Z</time>
      </trkpt>
      <trkpt lat="45.12168" lon="5.56985">
        <ele>1169</ele>
        <time>2020-02-23T11:52:35.000Z</time>
      </trkpt>
      <trkpt lat="45.12159" lon="5.56979">
        <ele>1149.4</ele>
        <time>2020-02-23T11:52:45.000Z</time>
      </trkpt>
      <trkpt lat="45.12153" lon="5.56974">
        <ele>1150.9</ele>
        <time>2020-02-23T11:52:55.000Z</time>
      </trkpt>
      <trkpt lat="45.12148" lon="5.56971">
        <ele>1169</ele>
        <time>2020-02-23T11:52:52.000Z</time>
      </trkpt>
      <trkpt lat="45.12144" lon="5.56966">
        <ele>1152.7</ele>
        <time>2020-02-23T11:53:02.000Z</time>
      </trkpt>
      <trkpt lat="45.12138" lon="5.56962">
        <ele>1153.2</ele>
        <time>2020-02-23T11:53:12.000Z</time>
      </trkpt>
      <trkpt lat="45.12133" lon="5.56956">
        <ele>1172</ele>
        <time>2020-02-23T11:53:09.000Z</time>
      </trkpt>
      <trkpt lat="45.12128" lon="5.56952">
        <ele>1154.6</ele>
        <time>2020-02-23T11:53:19.000Z</time>
      </trkpt>
      <trkpt lat="45.12125" lon="5.56948">
        <ele>1155.2</ele>
        <time>2020-02-23T11:53:29.000Z</time>
      </trkpt>
      <trkpt lat="45.12116" lon="5.56938">
        <ele>1170</ele>
        <time>2020-02-23T11:53:27.000Z</time>
      </trkpt>
      <trkpt lat="45.1211" lon="5.56928">
        <ele>1157.6</ele>
        <time>2020-02-23T11:53:37.000Z</time>
      </trkpt>
      <trkpt lat="45.12094" lon="5.56911">
        <ele>1170</ele>
        <time>2020-02-23T11:53:52.000Z</time>
      </trkpt>
      <trkpt lat="45.1209" lon="5.56903">
        <ele>1172.3</ele>
        <time>2020-02-23T11:54:02.000Z</time>
      </trkpt>
      <trkpt lat="45.12088" lon="5.56901">
        <ele>1172.7</ele>
        <time>2020-02-23T11:54:12.000Z</time>
      </trkpt>
      <trkpt lat="45.12078" lon="5.56891">
        <ele>1165</ele>
        <time>2020-02-23T11:54:08.000Z</time>
      </trkpt>
      <trkpt lat="45.12074" lon="5.56884">
        <ele>1166.2</ele>
        <time>2020-02-23T11:54:18.000Z</time>
      </trkpt>
      <trkpt lat="45.12066" lon="5.56875">
        <ele>1167.1</ele>
        <time>2020-02-23T11:54:28.000Z</time>
      </trkpt>
      <trkpt lat="45.12061" lon="5.56871">
        <ele>1160</ele>
        <time>2020-02-23T11:54:24.000Z</time>
      </trkpt>
      <trkpt lat="45.12057" lon="5.56867">
        <ele>1167.5</ele>
        <time>2020-02-23T11:54:34.000Z</time>
      </trkpt>
      <trkpt lat="45.12055" lon="5.56866">
        <ele>1167.4</ele>
        <time>2020-02-23T11:54:44.000Z</time>
      </trkpt>
      <trkpt lat="45.12053" lon="5.56863">
        <ele>1167.6</ele>
        <time>2020-02-23T11:54:54.000Z</time>
      </trkpt>
      <trkpt lat="45.1205" lon="5.56862">
        <ele>1167.3</ele>
        <time>2020-02-23T11:55:04.000Z</time>
      </trkpt>
      <trkpt lat="45.12043" lon="5.56853">
        <ele>1160</ele>
        <time>2020-02-23T11:54:42.000Z</time>
      </trkpt>
      <trkpt lat="45.12037" lon="5.5685">
        <ele>1166.9</ele>
        <time>2020-02-23T11:54:52.000Z</time>
      </trkpt>
      <trkpt lat="45.12032" lon="5.5684">
        <ele>1167</ele>
        <time>2020-02-23T11:55:02.000Z</time>
      </trkpt>
      <trkpt lat="45.12033" lon="5.56837">
        <ele>1167.3</ele>
        <time>2020-02-23T11:55:12.000Z</time>
      </trkpt>
      <trkpt lat="45.12038" lon="5.56836">
        <ele>1161</ele>
        <time>2020-02-23T11:55:02.000Z</time>
      </trkpt>
      <trkpt lat="45.12051" lon="5.56836">
        <ele>1170.3</ele>
        <time>2020-02-23T11:55:12.000Z</time>
      </trkpt>
      <trkpt lat="45.12075" lon="5.56828">
        <ele>1164</ele>
        <time>2020-02-23T11:55:30.000Z</time>
      </trkpt>
      <trkpt lat="45.12084" lon="5.56822">
        <ele>1187</ele>
        <time>2020-02-23T11:55:40.000Z</time>
      </trkpt>
      <trkpt lat="45.12089" lon="5.56819">
        <ele>1187.9</ele>
        <time>2020-02-23T11:55:50.000Z</time>
      </trkpt>
      <trkpt lat="45.12102" lon="5.56807">
        <ele>1164</ele>
        <time>2020-02-23T11:55:55.000Z</time>
      </trkpt>
      <trkpt lat="45.12106" lon="5.56805">
        <ele>1190.8</ele>
        <time>2020-02-23T11:56:05.000Z</time>
      </trkpt>
      <trkpt lat="45.12112" lon="5.56801">
        <ele>1191.5</ele>
        <time>2020-02-23T11:56:15.000Z</time>
      </trkpt>
      <trkpt lat="45.12115" lon="5.56797">
        <ele>1191.8</ele>
        <time>2020-02-23T11:56:25.000Z</time>
      </trkpt>
      <trkpt lat="45.1212" lon="5.56795">
        <ele>1165</ele>
        <time>2020-02-23T11:56:14.000Z</time>
      </trkpt>
      <trkpt lat="45.12123" lon="5.56794">
        <ele>1192.8</ele>
        <time>2020-02-23T11:56:24.000Z</time>
      </trkpt>
      <trkpt lat="45.12125" lon="5.56795">
        <ele>1193.1</ele>
        <time>2020-02-23T11:56:34.000Z</time>
      </trkpt>
      <trkpt lat="45.12127" lon="5.56794">
        <ele>1193.3</ele>
        <time>2020-02-23T11:56:44.000Z</time>
      </trkpt>
      <trkpt lat="45.12139" lon="5.56797">
        <ele>1178</ele>
        <time>2020-02-23T11:56:35.000Z</time>
      </trkpt>
      <trkpt lat="45.12146" lon="5.56796">
        <ele>1195.6</ele>
        <time>2020-02-23T11:56:45.000Z</time>
      </trkpt>
      <trkpt lat="45.12152" lon="5.56792">
        <ele>1196.1</ele>
        <time>2020-02-23T11:56:55.000Z</time>
      </trkpt>
      <trkpt lat="45.12157" lon="5.56786">
        <ele>1178</ele>
        <time>2020-02-23T11:57:00.000Z</time>
      </trkpt>
      <trkpt lat="45.12159" lon="5.56785">
        <ele>1196.5</ele>
        <time>2020-02-23T11:57:10.000Z</time>
      </trkpt>
      <trkpt lat="45.12161" lon="5.56784">
        <ele>1196.7</ele>
        <time>2020-02-23T11:57:20.000Z</time>
      </trkpt>
      <trkpt lat="45.12166" lon="5.56785">
        <ele>1196.9</ele>
        <time>2020-02-23T11:57:30.000Z</time>
      </trkpt>
      <trkpt lat="45.12179" lon="5.56782">
        <ele>1189</ele>
        <time>2020-02-23T11:57:19.000Z</time>
      </trkpt>
      <trkpt lat="45.12195" lon="5.56784">
        <ele>1211.1</ele>
        <time>2020-02-23T11:57:29.000Z</time>
      </trkpt>
      <trkpt lat="45.12202" lon="5.56786">
        <ele>1196</ele>
        <time>2020-02-23T11:57:38.000Z</time>
      </trkpt>
      <trkpt lat="45.12225" lon="5.56787">
        <ele>1211</ele>
        <time>2020-02-23T11:57:59.000Z</time>
      </trkpt>
      <trkpt lat="45.12228" lon="5.56786">
        <ele>1214.8</ele>
        <time>2020-02-23T11:58:09.000Z</time>
      </trkpt>
      <trkpt lat="45.12244" lon="5.56785">
        <ele>1215</ele>
        <time>2020-02-23T11:58:18.000Z</time>
      </trkpt>
      <trkpt lat="45.12256" lon="5.56779">
        <ele>1227.2</ele>
        <time>2020-02-23T11:58:28.000Z</time>
      </trkpt>
      <trkpt lat="45.12267" lon="5.56778">
        <ele>1215</ele>
        <time>2020-02-23T11:58:39.000Z</time>
      </trkpt>
      <trkpt lat="45.12274" lon="5.56776">
        <ele>1228.6</ele>
        <time>2020-02-23T11:58:49.000Z</time>
      </trkpt>
      <trkpt lat="45.12283" lon="5.56778">
        <ele>1229.8</ele>
        <time>2020-02-23T11:58:59.000Z</time>
      </trkpt>
      <trkpt lat="45.12285" lon="5.56778">
        <ele>1230</ele>
        <time>2020-02-23T11:59:09.000Z</time>
      </trkpt>
      <trkpt lat="45.1229" lon="5.56776">
        <ele>1217</ele>
        <time>2020-02-23T11:59:00.000Z</time>
      </trkpt>
      <trkpt lat="45.12294" lon="5.56777">
        <ele>1231</ele>
        <time>2020-02-23T11:59:10.000Z</time>
      </trkpt>
      <trkpt lat="45.12298" lon="5.56775">
        <ele>1231.5</ele>
        <time>2020-02-23T11:59:20.000Z</time>
      </trkpt>
      <trkpt lat="45.12303" lon="5.56777">
        <ele>1232</ele>
        <time>2020-02-23T11:59:30.000Z</time>
      </trkpt>
      <trkpt lat="45.12307" lon="5.56776">
        <ele>1232.5</ele>
        <time>2020-02-23T11:59:40.000Z</time>
      </trkpt>
      <trkpt lat="45.12318" lon="5.56775">
        <ele>1225</ele>
        <time>2020-02-23T11:59:28.000Z</time>
      </trkpt>
      <trkpt lat="45.12321" lon="5.56776">
        <ele>1233.8</ele>
        <time>2020-02-23T11:59:38.000Z</time>
      </trkpt>
      <trkpt lat="45.1233" lon="5.56777">
        <ele>1234.3</ele>
        <time>2020-02-23T11:59:48.000Z</time>
      </trkpt>
      <trkpt lat="45.12337" lon="5.56781">
        <ele>1238</ele>
        <time>2020-02-23T11:59:51.000Z</time>
      </trkpt>
      <trkpt lat="45.12339" lon="5.56785">
        <ele>1244.8</ele>
        <time>2020-02-23T12:00:01.000Z</time>
      </trkpt>
      <trkpt lat="45.12343" lon="5.56788">
        <ele>1245.2</ele>
        <time>2020-02-23T12:00:11.000Z</time>
      </trkpt>
      <trkpt lat="45.12344" lon="5.5679">
        <ele>1245.4</ele>
        <time>2020-02-23T12:00:21.000Z</time>
      </trkpt>
      <trkpt lat="45.12347" lon="5.56796">
        <ele>1245.7</ele>
        <time>2020-02-23T12:00:31.000Z</time>
      </trkpt>
      <trkpt lat="45.12347" lon="5.56799">
        <ele>1245.8</ele>
        <time>2020-02-23T12:00:41.000Z</time>
      </trkpt>
      <trkpt lat="45.12349" lon="5.56805">
        <ele>1238</ele>
        <time>2020-02-23T12:00:13.000Z</time>
      </trkpt>
      <trkpt lat="45.12353" lon="5.56809">
        <ele>1246.2</ele>
        <time>2020-02-23T12:00:23.000Z</time>
      </trkpt>
      <trkpt lat="45.12357" lon="5.5681">
        <ele>1246.6</ele>
        <time>2020-02-23T12:00:33.000Z</time>
      </trkpt>
      <trkpt lat="45.12362" lon="5.5681">
        <ele>1247.1</ele>
        <time>2020-02-23T12:00:43.000Z</time>
      </trkpt>
      <trkpt lat="45.1237" lon="5.56817">
        <ele>1246</ele>
        <time>2020-02-23T12:00:33.000Z</time>
      </trkpt>
      <trkpt lat="45.12376" lon="5.56824">
        <ele>1249</ele>
        <time>2020-02-23T12:00:43.000Z</time>
      </trkpt>
      <trkpt lat="45.1238" lon="5.56829">
        <ele>1249.7</ele>
        <time>2020-02-23T12:00:53.000Z</time>
      </trkpt>
      <trkpt lat="45.12382" lon="5.56831">
        <ele>1250</ele>
        <time>2020-02-23T12:01:03.000Z</time>
      </trkpt>
      <trkpt lat="45.12387" lon="5.56833">
        <ele>1247</ele>
        <time>2020-02-23T12:00:51.000Z</time>
      </trkpt>
      <trkpt lat="45.1239" lon="5.56837">
        <ele>1245.4</ele>
        <time>2020-02-23T12:01:01.000Z</time>
      </trkpt>
      <trkpt lat="45.12396" lon="5.5684">
        <ele>1246.9</ele>
        <time>2020-02-23T12:01:11.000Z</time>
      </trkpt>
      <trkpt lat="45.12398" lon="5.56842">
        <ele>1247.2</ele>
        <time>2020-02-23T12:01:21.000Z</time>
      </trkpt>
      <trkpt lat="45.12401" lon="5.56843">
        <ele>1248</ele>
        <time>2020-02-23T12:01:31.000Z</time>
      </trkpt>
      <trkpt lat="45.12431" lon="5.56853">
        <ele>1248</ele>
        <time>2020-02-23T12:01:29.000Z</time>
      </trkpt>
      <trkpt lat="45.12441" lon="5.56856">
        <ele>1256.9</ele>
        <time>2020-02-23T12:01:39.000Z</time>
      </trkpt>
      <trkpt lat="45.12456" lon="5.56857">
        <ele>1253</ele>
        <time>2020-02-23T12:01:50.000Z</time>
      </trkpt>
      <trkpt lat="45.1246" lon="5.56859">
        <ele>1258.3</ele>
        <time>2020-02-23T12:02:00.000Z</time>
      </trkpt>
      <trkpt lat="45.12462" lon="5.56861">
        <ele>1258.3</ele>
        <time>2020-02-23T12:02:10.000Z</time>
      </trkpt>
      <trkpt lat="45.12468" lon="5.56864">
        <ele>1258.7</ele>
        <time>2020-02-23T12:02:20.000Z</time>
      </trkpt>
      <trkpt lat="45.12474" lon="5.5687">
        <ele>1259</ele>
        <time>2020-02-23T12:02:06.000Z</time>
      </trkpt>
      <trkpt lat="45.12478" lon="5.56872">
        <ele>1258.9</ele>
        <time>2020-02-23T12:02:16.000Z</time>
      </trkpt>
      <trkpt lat="45.12482" lon="5.56871">
        <ele>1259.4</ele>
        <time>2020-02-23T12:02:26.000Z</time>
      </trkpt>
      <trkpt lat="45.1249" lon="5.56872">
        <ele>1259.9</ele>
        <time>2020-02-23T12:02:36.000Z</time>
      </trkpt>
      <trkpt lat="45.12495" lon="5.5687">
        <ele>1267</ele>
        <time>2020-02-23T12:02:26.000Z</time>
      </trkpt>
      <trkpt lat="45.12501" lon="5.5687">
        <ele>1272.6</ele>
        <time>2020-02-23T12:02:36.000Z</time>
      </trkpt>
      <trkpt lat="45.1251" lon="5.5687">
        <ele>1273</ele>
        <time>2020-02-23T12:02:46.000Z</time>
      </trkpt>
      <trkpt lat="45.12515" lon="5.56871">
        <ele>1267</ele>
        <time>2020-02-23T12:02:44.000Z</time>
      </trkpt>
      <trkpt lat="45.12524" lon="5.56877">
        <ele>1273.9</ele>
        <time>2020-02-23T12:02:54.000Z</time>
      </trkpt>
      <trkpt lat="45.12537" lon="5.56886">
        <ele>1269</ele>
        <time>2020-02-23T12:03:04.000Z</time>
      </trkpt>
      <trkpt lat="45.12543" lon="5.56887">
        <ele>1276</ele>
        <time>2020-02-23T12:03:14.000Z</time>
      </trkpt>
      <trkpt lat="45.1255" lon="5.56887">
        <ele>1277</ele>
        <time>2020-02-23T12:03:24.000Z</time>
      </trkpt>
      <trkpt lat="45.12555" lon="5.56889">
        <ele>1277.8</ele>
        <time>2020-02-23T12:03:34.000Z</time>
      </trkpt>
      <trkpt lat="45.1256" lon="5.5689">
        <ele>1272</ele>
        <time>2020-02-23T12:03:24.000Z</time>
      </trkpt>
      <trkpt lat="45.12569" lon="5.56896">
        <ele>1280.2</ele>
        <time>2020-02-23T12:03:34.000Z</time>
      </trkpt>
      <trkpt lat="45.12581" lon="5.569">
        <ele>1285</ele>
        <time>2020-02-23T12:03:42.000Z</time>
      </trkpt>
      <trkpt lat="45.12588" lon="5.56907">
        <ele>1290</ele>
        <time>2020-02-23T12:03:52.000Z</time>
      </trkpt>
      <trkpt lat="45.12592" lon="5.56911">
        <ele>1290</ele>
        <time>2020-02-23T12:04:02.000Z</time>
      </trkpt>
      <trkpt lat="45.12605" lon="5.56921">
        <ele>1294</ele>
        <time>2020-02-23T12:04:04.000Z</time>
      </trkpt>
      <trkpt lat="45.12616" lon="5.56924">
        <ele>1286.6</ele>
        <time>2020-02-23T12:04:14.000Z</time>
      </trkpt>
      <trkpt lat="45.12633" lon="5.56933">
        <ele>1306</ele>
        <time>2020-02-23T12:04:32.000Z</time>
      </trkpt>
      <trkpt lat="45.12638" lon="5.56934">
        <ele>1289.1</ele>
        <time>2020-02-23T12:04:42.000Z</time>
      </trkpt>
      <trkpt lat="45.12641" lon="5.56935">
        <ele>1289.6</ele>
        <time>2020-02-23T12:04:52.000Z</time>
      </trkpt>
      <trkpt lat="45.12653" lon="5.56938">
        <ele>1306</ele>
        <time>2020-02-23T12:04:47.000Z</time>
      </trkpt>
      <trkpt lat="45.12657" lon="5.56939">
        <ele>1291.8</ele>
        <time>2020-02-23T12:04:57.000Z</time>
      </trkpt>
      <trkpt lat="45.12662" lon="5.56941">
        <ele>1291.8</ele>
        <time>2020-02-23T12:05:07.000Z</time>
      </trkpt>
      <trkpt lat="45.12676" lon="5.56945">
        <ele>1310</ele>
        <time>2020-02-23T12:05:06.000Z</time>
      </trkpt>
      <trkpt lat="45.12692" lon="5.56945">
        <ele>1304.6</ele>
        <time>2020-02-23T12:05:16.000Z</time>
      </trkpt>
      <trkpt lat="45.12698" lon="5.56946">
        <ele>1316</ele>
        <time>2020-02-23T12:05:23.000Z</time>
      </trkpt>
      <trkpt lat="45.12704" lon="5.56945">
        <ele>1305.8</ele>
        <time>2020-02-23T12:05:33.000Z</time>
      </trkpt>
      <trkpt lat="45.12709" lon="5.56943">
        <ele>1306.5</ele>
        <time>2020-02-23T12:05:43.000Z</time>
      </trkpt>
      <trkpt lat="45.12715" lon="5.56942">
        <ele>1307.3</ele>
        <time>2020-02-23T12:05:53.000Z</time>
      </trkpt>
      <trkpt lat="45.12721" lon="5.56938">
        <ele>1327</ele>
        <time>2020-02-23T12:05:46.000Z</time>
      </trkpt>
      <trkpt lat="45.12728" lon="5.56935">
        <ele>1309.8</ele>
        <time>2020-02-23T12:05:56.000Z</time>
      </trkpt>
      <trkpt lat="45.1273" lon="5.56934">
        <ele>1310.2</ele>
        <time>2020-02-23T12:06:06.000Z</time>
      </trkpt>
      <trkpt lat="45.12733" lon="5.56935">
        <ele>1310.6</ele>
        <time>2020-02-23T12:06:16.000Z</time>
      </trkpt>
      <trkpt lat="45.12745" lon="5.56932">
        <ele>1329</ele>
        <time>2020-02-23T12:06:06.000Z</time>
      </trkpt>
      <trkpt lat="45.12749" lon="5.56929">
        <ele>1314</ele>
        <time>2020-02-23T12:06:16.000Z</time>
      </trkpt>
      <trkpt lat="45.12757" lon="5.56927">
        <ele>1320.8</ele>
        <time>2020-02-23T12:06:26.000Z</time>
      </trkpt>
      <trkpt lat="45.12765" lon="5.56925">
        <ele>1329</ele>
        <time>2020-02-23T12:06:20.000Z</time>
      </trkpt>
      <trkpt lat="45.12772" lon="5.56926">
        <ele>1322.3</ele>
        <time>2020-02-23T12:06:30.000Z</time>
      </trkpt>
      <trkpt lat="45.12778" lon="5.56926">
        <ele>1322.9</ele>
        <time>2020-02-23T12:06:40.000Z</time>
      </trkpt>
      <trkpt lat="45.1279" lon="5.56927">
        <ele>1332</ele>
        <time>2020-02-23T12:06:39.000Z</time>
      </trkpt>
      <trkpt lat="45.12799" lon="5.56929">
        <ele>1325.3</ele>
        <time>2020-02-23T12:06:49.000Z</time>
      </trkpt>
      <trkpt lat="45.12806" lon="5.56929">
        <ele>1326.2</ele>
        <time>2020-02-23T12:06:59.000Z</time>
      </trkpt>
      <trkpt lat="45.12815" lon="5.56931">
        <ele>1337</ele>
        <time>2020-02-23T12:06:57.000Z</time>
      </trkpt>
      <trkpt lat="45.12822" lon="5.56934">
        <ele>1327.8</ele>
        <time>2020-02-23T12:07:07.000Z</time>
      </trkpt>
      <trkpt lat="45.12837" lon="5.56939">
        <ele>1339</ele>
        <time>2020-02-23T12:07:12.000Z</time>
      </trkpt>
      <trkpt lat="45.1285" lon="5.56945">
        <ele>1336.9</ele>
        <time>2020-02-23T12:07:22.000Z</time>
      </trkpt>
      <trkpt lat="45.12853" lon="5.56945">
        <ele>1337.1</ele>
        <time>2020-02-23T12:07:32.000Z</time>
      </trkpt>
      <trkpt lat="45.12869" lon="5.56949">
        <ele>1351</ele>
        <time>2020-02-23T12:07:38.000Z</time>
      </trkpt>
      <trkpt lat="45.12874" lon="5.5695">
        <ele>1338.9</ele>
        <time>2020-02-23T12:07:48.000Z</time>
      </trkpt>
      <trkpt lat="45.12883" lon="5.56954">
        <ele>1339.7</ele>
        <time>2020-02-23T12:07:58.000Z</time>
      </trkpt>
      <trkpt lat="45.12886" lon="5.56955">
        <ele>1340</ele>
        <time>2020-02-23T12:08:08.000Z</time>
      </trkpt>
      <trkpt lat="45.12895" lon="5.56953">
        <ele>1366</ele>
        <time>2020-02-23T12:07:54.000Z</time>
      </trkpt>
      <trkpt lat="45.12903" lon="5.56953">
        <ele>1340.9</ele>
        <time>2020-02-23T12:08:04.000Z</time>
      </trkpt>
      <trkpt lat="45.12921" lon="5.56957">
        <ele>1376</ele>
        <time>2020-02-23T12:08:05.000Z</time>
      </trkpt>
      <trkpt lat="45.12924" lon="5.56958">
        <ele>1349.4</ele>
        <time>2020-02-23T12:08:15.000Z</time>
      </trkpt>
      <trkpt lat="45.12942" lon="5.56955">
        <ele>1378</ele>
        <time>2020-02-23T12:08:20.000Z</time>
      </trkpt>
      <trkpt lat="45.12955" lon="5.56959">
        <ele>1351.1</ele>
        <time>2020-02-23T12:08:30.000Z</time>
      </trkpt>
      <trkpt lat="45.12957" lon="5.56961">
        <ele>1351.3</ele>
        <time>2020-02-23T12:08:40.000Z</time>
      </trkpt>
      <trkpt lat="45.1296" lon="5.56967">
        <ele>1381</ele>
        <time>2020-02-23T12:08:35.000Z</time>
      </trkpt>
      <trkpt lat="45.12967" lon="5.56978">
        <ele>1353.1</ele>
        <time>2020-02-23T12:08:45.000Z</time>
      </trkpt>
      <trkpt lat="45.12979" lon="5.56985">
        <ele>1381</ele>
        <time>2020-02-23T12:08:54.000Z</time>
      </trkpt>
      <trkpt lat="45.12989" lon="5.56987">
        <ele>1356.7</ele>
        <time>2020-02-23T12:09:04.000Z</time>
      </trkpt>
      <trkpt lat="45.13004" lon="5.56999">
        <ele>1380</ele>
        <time>2020-02-23T12:09:17.000Z</time>
      </trkpt>
      <trkpt lat="45.13008" lon="5.57003">
        <ele>1363.4</ele>
        <time>2020-02-23T12:09:27.000Z</time>
      </trkpt>
      <trkpt lat="45.13023" lon="5.57014">
        <ele>1380</ele>
        <time>2020-02-23T12:09:36.000Z</time>
      </trkpt>
      <trkpt lat="45.13026" lon="5.57018">
        <ele>1365.7</ele>
        <time>2020-02-23T12:09:46.000Z</time>
      </trkpt>
      <trkpt lat="45.1303" lon="5.57021">
        <ele>1366</ele>
        <time>2020-02-23T12:09:56.000Z</time>
      </trkpt>
      <trkpt lat="45.13044" lon="5.57028">
        <ele>1379</ele>
        <time>2020-02-23T12:09:59.000Z</time>
      </trkpt>
      <trkpt lat="45.13046" lon="5.5703">
        <ele>1367.4</ele>
        <time>2020-02-23T12:10:09.000Z</time>
      </trkpt>
      <trkpt lat="45.13054" lon="5.57032">
        <ele>1368</ele>
        <time>2020-02-23T12:10:19.000Z</time>
      </trkpt>
      <trkpt lat="45.1306" lon="5.57037">
        <ele>1368.6</ele>
        <time>2020-02-23T12:10:29.000Z</time>
      </trkpt>
      <trkpt lat="45.13067" lon="5.5704">
        <ele>1379</ele>
        <time>2020-02-23T12:10:21.000Z</time>
      </trkpt>
      <trkpt lat="45.13075" lon="5.57043">
        <ele>1369.8</ele>
        <time>2020-02-23T12:10:31.000Z</time>
      </trkpt>
      <trkpt lat="45.13093" lon="5.57045">
        <ele>1380</ele>
        <time>2020-02-23T12:10:41.000Z</time>
      </trkpt>
      <trkpt lat="45.13101" lon="5.57044">
        <ele>1378.3</ele>
        <time>2020-02-23T12:10:51.000Z</time>
      </trkpt>
      <trkpt lat="45.13109" lon="5.57047">
        <ele>1378.9</ele>
        <time>2020-02-23T12:11:01.000Z</time>
      </trkpt>
      <trkpt lat="45.13127" lon="5.57057">
        <ele>1382</ele>
        <time>2020-02-23T12:11:10.000Z</time>
      </trkpt>
      <trkpt lat="45.13141" lon="5.57066">
        <ele>1382.4</ele>
        <time>2020-02-23T12:11:20.000Z</time>
      </trkpt>
      <trkpt lat="45.13146" lon="5.57069">
        <ele>1382</ele>
        <time>2020-02-23T12:11:27.000Z</time>
      </trkpt>
      <trkpt lat="45.13154" lon="5.57071">
        <ele>1384.6</ele>
        <time>2020-02-23T12:11:37.000Z</time>
      </trkpt>
      <trkpt lat="45.13158" lon="5.57074">
        <ele>1385.8</ele>
        <time>2020-02-23T12:11:47.000Z</time>
      </trkpt>
      <trkpt lat="45.13166" lon="5.57074">
        <ele>1388</ele>
        <time>2020-02-23T12:11:45.000Z</time>
      </trkpt>
      <trkpt lat="45.13177" lon="5.57074">
        <ele>1388.5</ele>
        <time>2020-02-23T12:11:55.000Z</time>
      </trkpt>
      <trkpt lat="45.13199" lon="5.57081">
        <ele>1389</ele>
        <time>2020-02-23T12:12:09.000Z</time>
      </trkpt>
      <trkpt lat="45.13201" lon="5.57082">
        <ele>1388.5</ele>
        <time>2020-02-23T12:12:19.000Z</time>
      </trkpt>
      <trkpt lat="45.13206" lon="5.57084">
        <ele>1390.4</ele>
        <time>2020-02-23T12:12:29.000Z</time>
      </trkpt>
      <trkpt lat="45.13212" lon="5.57087">
        <ele>1390.7</ele>
        <time>2020-02-23T12:12:39.000Z</time>
      </trkpt>
      <trkpt lat="45.13218" lon="5.57092">
        <ele>1391</ele>
        <time>2020-02-23T12:12:25.000Z</time>
      </trkpt>
      <trkpt lat="45.13221" lon="5.57093">
        <ele>1391.3</ele>
        <time>2020-02-23T12:12:35.000Z</time>
      </trkpt>
      <trkpt lat="45.13236" lon="5.57103">
        <ele>1391</ele>
        <time>2020-02-23T12:12:40.000Z</time>
      </trkpt>
      <trkpt lat="45.13245" lon="5.57107">
        <ele>1392.4</ele>
        <time>2020-02-23T12:12:50.000Z</time>
      </trkpt>
      <trkpt lat="45.1325" lon="5.57113">
        <ele>1396.3</ele>
        <time>2020-02-23T12:13:00.000Z</time>
      </trkpt>
      <trkpt lat="45.13261" lon="5.57123">
        <ele>1392</ele>
        <time>2020-02-23T12:12:52.000Z</time>
      </trkpt>
      <trkpt lat="45.13274" lon="5.57139">
        <ele>1396.8</ele>
        <time>2020-02-23T12:13:02.000Z</time>
      </trkpt>
      <trkpt lat="45.13281" lon="5.57147">
        <ele>1401</ele>
        <time>2020-02-23T12:13:03.000Z</time>
      </trkpt>
      <trkpt lat="45.13299" lon="5.57164">
        <ele>1402</ele>
        <time>2020-02-23T12:13:13.000Z</time>
      </trkpt>
      <trkpt lat="45.13303" lon="5.57167">
        <ele>1396.4</ele>
        <time>2020-02-23T12:13:23.000Z</time>
      </trkpt>
      <trkpt lat="45.13318" lon="5.57183">
        <ele>1404</ele>
        <time>2020-02-23T12:13:23.000Z</time>
      </trkpt>
      <trkpt lat="45.13329" lon="5.57191">
        <ele>1397.2</ele>
        <time>2020-02-23T12:13:33.000Z</time>
      </trkpt>
      <trkpt lat="45.13341" lon="5.57202">
        <ele>1406</ele>
        <time>2020-02-23T12:13:35.000Z</time>
      </trkpt>
      <trkpt lat="45.13349" lon="5.57206">
        <ele>1402.1</ele>
        <time>2020-02-23T12:13:45.000Z</time>
      </trkpt>
      <trkpt lat="45.13357" lon="5.57208">
        <ele>1402.2</ele>
        <time>2020-02-23T12:13:55.000Z</time>
      </trkpt>
      <trkpt lat="45.13369" lon="5.57218">
        <ele>1404</ele>
        <time>2020-02-23T12:13:49.000Z</time>
      </trkpt>
      <trkpt lat="45.13373" lon="5.57223">
        <ele>1402.7</ele>
        <time>2020-02-23T12:13:59.000Z</time>
      </trkpt>
      <trkpt lat="45.13389" lon="5.57237">
        <ele>1404</ele>
        <time>2020-02-23T12:13:59.000Z</time>
      </trkpt>
      <trkpt lat="45.13407" lon="5.5725">
        <ele>1405</ele>
        <time>2020-02-23T12:14:09.000Z</time>
      </trkpt>
      <trkpt lat="45.13411" lon="5.57255">
        <ele>1402.5</ele>
        <time>2020-02-23T12:14:19.000Z</time>
      </trkpt>
      <trkpt lat="45.13419" lon="5.5726">
        <ele>1406.2</ele>
        <time>2020-02-23T12:14:29.000Z</time>
      </trkpt>
      <trkpt lat="45.13434" lon="5.57273">
        <ele>1407</ele>
        <time>2020-02-23T12:14:31.000Z</time>
      </trkpt>
      <trkpt lat="45.13452" lon="5.57281">
        <ele>1402.8</ele>
        <time>2020-02-23T12:14:41.000Z</time>
      </trkpt>
      <trkpt lat="45.1346" lon="5.57289">
        <ele>1421</ele>
        <time>2020-02-23T12:14:53.000Z</time>
      </trkpt>
      <trkpt lat="45.13461" lon="5.57292">
        <ele>1402.5</ele>
        <time>2020-02-23T12:15:03.000Z</time>
      </trkpt>
      <trkpt lat="45.13462" lon="5.57289">
        <ele>1402.9</ele>
        <time>2020-02-23T12:15:13.000Z</time>
      </trkpt>
      <trkpt lat="45.13464" lon="5.57288">
        <ele>1403.1</ele>
        <time>2020-02-23T12:15:23.000Z</time>
      </trkpt>
      <trkpt lat="45.13469" lon="5.57288">
        <ele>1403.6</ele>
        <time>2020-02-23T12:15:33.000Z</time>
      </trkpt>
      <trkpt lat="45.13478" lon="5.57291">
        <ele>1421</ele>
        <time>2020-02-23T12:15:28.000Z</time>
      </trkpt>
      <trkpt lat="45.13484" lon="5.57294">
        <ele>1404.4</ele>
        <time>2020-02-23T12:15:38.000Z</time>
      </trkpt>
      <trkpt lat="45.13495" lon="5.573">
        <ele>1404.9</ele>
        <time>2020-02-23T12:15:48.000Z</time>
      </trkpt>
      <trkpt lat="45.13509" lon="5.57303">
        <ele>1416</ele>
        <time>2020-02-23T12:15:43.000Z</time>
      </trkpt>
      <trkpt lat="45.13518" lon="5.57308">
        <ele>1413</ele>
        <time>2020-02-23T12:15:53.000Z</time>
      </trkpt>
      <trkpt lat="45.1352" lon="5.5731">
        <ele>1413.1</ele>
        <time>2020-02-23T12:16:03.000Z</time>
      </trkpt>
      <trkpt lat="45.13521" lon="5.57316">
        <ele>1413</ele>
        <time>2020-02-23T12:16:13.000Z</time>
      </trkpt>
      <trkpt lat="45.13523" lon="5.57315">
        <ele>1413.2</ele>
        <time>2020-02-23T12:16:23.000Z</time>
      </trkpt>
      <trkpt lat="45.13526" lon="5.57315">
        <ele>1417</ele>
        <time>2020-02-23T12:16:07.000Z</time>
      </trkpt>
      <trkpt lat="45.13532" lon="5.57314">
        <ele>1413.9</ele>
        <time>2020-02-23T12:16:17.000Z</time>
      </trkpt>
      <trkpt lat="45.1354" lon="5.57319">
        <ele>1414.7</ele>
        <time>2020-02-23T12:16:27.000Z</time>
      </trkpt>
      <trkpt lat="45.13556" lon="5.57326">
        <ele>1418</ele>
        <time>2020-02-23T12:16:26.000Z</time>
      </trkpt>
      <trkpt lat="45.13567" lon="5.57327">
        <ele>1418.8</ele>
        <time>2020-02-23T12:16:36.000Z</time>
      </trkpt>
      <trkpt lat="45.13583" lon="5.57331">
        <ele>1422</ele>
        <time>2020-02-23T12:16:40.000Z</time>
      </trkpt>
      <trkpt lat="45.13598" lon="5.57334">
        <ele>1420.7</ele>
        <time>2020-02-23T12:16:50.000Z</time>
      </trkpt>
      <trkpt lat="45.13601" lon="5.57335">
        <ele>1420.4</ele>
        <time>2020-02-23T12:17:00.000Z</time>
      </trkpt>
      <trkpt lat="45.13608" lon="5.5734">
        <ele>1429</ele>
        <time>2020-02-23T12:16:51.000Z</time>
      </trkpt>
      <trkpt lat="45.13613" lon="5.57342">
        <ele>1419.3</ele>
        <time>2020-02-23T12:17:01.000Z</time>
      </trkpt>
      <trkpt lat="45.13631" lon="5.57349">
        <ele>1428</ele>
        <time>2020-02-23T12:17:01.000Z</time>
      </trkpt>
      <trkpt lat="45.1364" lon="5.57352">
        <ele>1419.8</ele>
        <time>2020-02-23T12:17:11.000Z</time>
      </trkpt>
      <trkpt lat="45.13649" lon="5.57358">
        <ele>1428</ele>
        <time>2020-02-23T12:17:10.000Z</time>
      </trkpt>
      <trkpt lat="45.1367" lon="5.57378">
        <ele>1428</ele>
        <time>2020-02-23T12:17:22.000Z</time>
      </trkpt>
      <trkpt lat="45.13677" lon="5.57382">
        <ele>1425.8</ele>
        <time>2020-02-23T12:17:32.000Z</time>
      </trkpt>
      <trkpt lat="45.13684" lon="5.57383">
        <ele>1426.2</ele>
        <time>2020-02-23T12:17:42.000Z</time>
      </trkpt>
      <trkpt lat="45.13694" lon="5.57389">
        <ele>1425</ele>
        <time>2020-02-23T12:17:32.000Z</time>
      </trkpt>
      <trkpt lat="45.13702" lon="5.57392">
        <ele>1427.1</ele>
        <time>2020-02-23T12:17:42.000Z</time>
      </trkpt>
      <trkpt lat="45.13708" lon="5.57395">
        <ele>1427.5</ele>
        <time>2020-02-23T12:17:52.000Z</time>
      </trkpt>
      <trkpt lat="45.13717" lon="5.57403">
        <ele>1425</ele>
        <time>2020-02-23T12:17:44.000Z</time>
      </trkpt>
      <trkpt lat="45.13724" lon="5.57402">
        <ele>1428.8</ele>
        <time>2020-02-23T12:17:54.000Z</time>
      </trkpt>
      <trkpt lat="45.13734" lon="5.57405">
        <ele>1429.6</ele>
        <time>2020-02-23T12:18:04.000Z</time>
      </trkpt>
      <trkpt lat="45.13744" lon="5.57405">
        <ele>1424</ele>
        <time>2020-02-23T12:17:57.000Z</time>
      </trkpt>
      <trkpt lat="45.13749" lon="5.57409">
        <ele>1430.5</ele>
        <time>2020-02-23T12:18:07.000Z</time>
      </trkpt>
      <trkpt lat="45.1375" lon="5.57411">
        <ele>1433.6</ele>
        <time>2020-02-23T12:18:17.000Z</time>
      </trkpt>
      <trkpt lat="45.13755" lon="5.57414">
        <ele>1433.7</ele>
        <time>2020-02-23T12:18:27.000Z</time>
      </trkpt>
      <trkpt lat="45.13761" lon="5.57416">
        <ele>1427</ele>
        <time>2020-02-23T12:18:07.000Z</time>
      </trkpt>
      <trkpt lat="45.13764" lon="5.57416">
        <ele>1436.6</ele>
        <time>2020-02-23T12:18:17.000Z</time>
      </trkpt>
      <trkpt lat="45.13771" lon="5.57417">
        <ele>1425.3</ele>
        <time>2020-02-23T12:18:27.000Z</time>
      </trkpt>
      <trkpt lat="45.13777" lon="5.57415">
        <ele>1439.8</ele>
        <time>2020-02-23T12:18:37.000Z</time>
      </trkpt>
      <trkpt lat="45.13789" lon="5.57418">
        <ele>1430</ele>
        <time>2020-02-23T12:18:25.000Z</time>
      </trkpt>
      <trkpt lat="45.13793" lon="5.57417">
        <ele>1426.4</ele>
        <time>2020-02-23T12:18:35.000Z</time>
      </trkpt>
      <trkpt lat="45.13798" lon="5.57414">
        <ele>1443.5</ele>
        <time>2020-02-23T12:18:45.000Z</time>
      </trkpt>
      <trkpt lat="45.13804" lon="5.57409">
        <ele>1444.4</ele>
        <time>2020-02-23T12:18:55.000Z</time>
      </trkpt>
      <trkpt lat="45.13814" lon="5.57402">
        <ele>1443</ele>
        <time>2020-02-23T12:18:51.000Z</time>
      </trkpt>
      <trkpt lat="45.13821" lon="5.57401">
        <ele>1446.3</ele>
        <time>2020-02-23T12:19:01.000Z</time>
      </trkpt>
      <trkpt lat="45.13828" lon="5.57401">
        <ele>1446.8</ele>
        <time>2020-02-23T12:19:11.000Z</time>
      </trkpt>
      <trkpt lat="45.13842" lon="5.57397">
        <ele>1447</ele>
        <time>2020-02-23T12:19:14.000Z</time>
      </trkpt>
      <trkpt lat="45.13844" lon="5.57398">
        <ele>1455.7</ele>
        <time>2020-02-23T12:19:24.000Z</time>
      </trkpt>
      <trkpt lat="45.13847" lon="5.57398">
        <ele>1456.1</ele>
        <time>2020-02-23T12:19:34.000Z</time>
      </trkpt>
      <trkpt lat="45.13859" lon="5.574">
        <ele>1457.7</ele>
        <time>2020-02-23T12:19:44.000Z</time>
      </trkpt>
      <trkpt lat="45.13862" lon="5.574">
        <ele>1451</ele>
        <time>2020-02-23T12:19:30.000Z</time>
      </trkpt>
      <trkpt lat="45.13867" lon="5.57401">
        <ele>1458.9</ele>
        <time>2020-02-23T12:19:40.000Z</time>
      </trkpt>
      <trkpt lat="45.13872" lon="5.57405">
        <ele>1459.6</ele>
        <time>2020-02-23T12:19:50.000Z</time>
      </trkpt>
      <trkpt lat="45.13879" lon="5.57414">
        <ele>1450</ele>
        <time>2020-02-23T12:19:47.000Z</time>
      </trkpt>
      <trkpt lat="45.13881" lon="5.57415">
        <ele>1460.9</ele>
        <time>2020-02-23T12:19:57.000Z</time>
      </trkpt>
      <trkpt lat="45.13887" lon="5.57416">
        <ele>1461.9</ele>
        <time>2020-02-23T12:20:07.000Z</time>
      </trkpt>
      <trkpt lat="45.13894" lon="5.57419">
        <ele>1452.1</ele>
        <time>2020-02-23T12:20:17.000Z</time>
      </trkpt>
      <trkpt lat="45.13901" lon="5.57419">
        <ele>1450</ele>
        <time>2020-02-23T12:20:10.000Z</time>
      </trkpt>
      <trkpt lat="45.13903" lon="5.5742">
        <ele>1456.4</ele>
        <time>2020-02-23T12:20:20.000Z</time>
      </trkpt>
      <trkpt lat="45.13905" lon="5.57422">
        <ele>1457</ele>
        <time>2020-02-23T12:20:30.000Z</time>
      </trkpt>
      <trkpt lat="45.13915" lon="5.57425">
        <ele>1460.1</ele>
        <time>2020-02-23T12:20:40.000Z</time>
      </trkpt>
      <trkpt lat="45.13921" lon="5.57428">
        <ele>1452</ele>
        <time>2020-02-23T12:20:31.000Z</time>
      </trkpt>
      <trkpt lat="45.13925" lon="5.57428">
        <ele>1466.7</ele>
        <time>2020-02-23T12:20:41.000Z</time>
      </trkpt>
      <trkpt lat="45.13936" lon="5.57427">
        <ele>1467</ele>
        <time>2020-02-23T12:20:51.000Z</time>
      </trkpt>
      <trkpt lat="45.13941" lon="5.5743">
        <ele>1459</ele>
        <time>2020-02-23T12:20:53.000Z</time>
      </trkpt>
      <trkpt lat="45.1395" lon="5.57433">
        <ele>1467.7</ele>
        <time>2020-02-23T12:21:03.000Z</time>
      </trkpt>
      <trkpt lat="45.13955" lon="5.5743">
        <ele>1468.7</ele>
        <time>2020-02-23T12:21:13.000Z</time>
      </trkpt>
      <trkpt lat="45.13962" lon="5.57426">
        <ele>1469</ele>
        <time>2020-02-23T12:21:14.000Z</time>
      </trkpt>
      <trkpt lat="45.13964" lon="5.57427">
        <ele>1470.4</ele>
        <time>2020-02-23T12:21:24.000Z</time>
      </trkpt>
      <trkpt lat="45.1397" lon="5.57425">
        <ele>1471.8</ele>
        <time>2020-02-23T12:21:34.000Z</time>
      </trkpt>
      <trkpt lat="45.13977" lon="5.57425">
        <ele>1473.6</ele>
        <time>2020-02-23T12:21:44.000Z</time>
      </trkpt>
      <trkpt lat="45.13987" lon="5.57426">
        <ele>1469</ele>
        <time>2020-02-23T12:21:35.000Z</time>
      </trkpt>
      <trkpt lat="45.13989" lon="5.57426">
        <ele>1477</ele>
        <time>2020-02-23T12:21:45.000Z</time>
      </trkpt>
      <trkpt lat="45.14" lon="5.57427">
        <ele>1484.8</ele>
        <time>2020-02-23T12:21:55.000Z</time>
      </trkpt>
      <trkpt lat="45.14001" lon="5.57428">
        <ele>1484.8</ele>
        <time>2020-02-23T12:22:05.000Z</time>
      </trkpt>
      <trkpt lat="45.14005" lon="5.5743">
        <ele>1484.8</ele>
        <time>2020-02-23T12:22:15.000Z</time>
      </trkpt>
      <trkpt lat="45.14013" lon="5.57428">
        <ele>1477</ele>
        <time>2020-02-23T12:21:58.000Z</time>
      </trkpt>
      <trkpt lat="45.14018" lon="5.57429">
        <ele>1485.1</ele>
        <time>2020-02-23T12:22:08.000Z</time>
      </trkpt>
      <trkpt lat="45.14027" lon="5.57436">
        <ele>1485.3</ele>
        <time>2020-02-23T12:22:18.000Z</time>
      </trkpt>
      <trkpt lat="45.1403" lon="5.57442">
        <ele>1485</ele>
        <time>2020-02-23T12:22:11.000Z</time>
      </trkpt>
      <trkpt lat="45.14036" lon="5.5745">
        <ele>1485.4</ele>
        <time>2020-02-23T12:22:21.000Z</time>
      </trkpt>
      <trkpt lat="45.14038" lon="5.57453">
        <ele>1485.4</ele>
        <time>2020-02-23T12:22:31.000Z</time>
      </trkpt>
      <trkpt lat="45.14041" lon="5.57459">
        <ele>1485.4</ele>
        <time>2020-02-23T12:22:41.000Z</time>
      </trkpt>
      <trkpt lat="45.14044" lon="5.57458">
        <ele>1485.7</ele>
        <time>2020-02-23T12:22:51.000Z</time>
      </trkpt>
      <trkpt lat="45.14051" lon="5.57454">
        <ele>1496</ele>
        <time>2020-02-23T12:22:31.000Z</time>
      </trkpt>
      <trkpt lat="45.14064" lon="5.57454">
        <ele>1487.2</ele>
        <time>2020-02-23T12:22:41.000Z</time>
      </trkpt>
      <trkpt lat="45.14071" lon="5.57459">
        <ele>1500</ele>
        <time>2020-02-23T12:22:46.000Z</time>
      </trkpt>
      <trkpt lat="45.14076" lon="5.5746">
        <ele>1487.7</ele>
        <time>2020-02-23T12:22:56.000Z</time>
      </trkpt>
      <trkpt lat="45.14086" lon="5.57468">
        <ele>1493.9</ele>
        <time>2020-02-23T12:23:06.000Z</time>
      </trkpt>
      <trkpt lat="45.14092" lon="5.5747">
        <ele>1504</ele>
        <time>2020-02-23T12:23:02.000Z</time>
      </trkpt>
      <trkpt lat="45.14109" lon="5.57477">
        <ele>1494.5</ele>
        <time>2020-02-23T12:23:12.000Z</time>
      </trkpt>
      <trkpt lat="45.14141" lon="5.57481">
        <ele>1505</ele>
        <time>2020-02-23T12:23:25.000Z</time>
      </trkpt>
      <trkpt lat="45.14163" lon="5.57481">
        <ele>1506</ele>
        <time>2020-02-23T12:23:36.000Z</time>
      </trkpt>
      <trkpt lat="45.14167" lon="5.57483">
        <ele>1499.6</ele>
        <time>2020-02-23T12:23:46.000Z</time>
      </trkpt>
      <trkpt lat="45.14174" lon="5.57485">
        <ele>1499.7</ele>
        <time>2020-02-23T12:23:56.000Z</time>
      </trkpt>
      <trkpt lat="45.14179" lon="5.57487">
        <ele>1499.8</ele>
        <time>2020-02-23T12:24:06.000Z</time>
      </trkpt>
      <trkpt lat="45.14185" lon="5.57491">
        <ele>1509</ele>
        <time>2020-02-23T12:23:49.000Z</time>
      </trkpt>
      <trkpt lat="45.14195" lon="5.57494">
        <ele>1500.3</ele>
        <time>2020-02-23T12:23:59.000Z</time>
      </trkpt>
      <trkpt lat="45.14202" lon="5.57498">
        <ele>1500.7</ele>
        <time>2020-02-23T12:24:09.000Z</time>
      </trkpt>
      <trkpt lat="45.14207" lon="5.57502">
        <ele>1514</ele>
        <time>2020-02-23T12:24:02.000Z</time>
      </trkpt>
      <trkpt lat="45.14216" lon="5.5751">
        <ele>1500.5</ele>
        <time>2020-02-23T12:24:12.000Z</time>
      </trkpt>
      <trkpt lat="45.14222" lon="5.57515">
        <ele>1500.9</ele>
        <time>2020-02-23T12:24:22.000Z</time>
      </trkpt>
      <trkpt lat="45.1424" lon="5.57531">
        <ele>1519</ele>
        <time>2020-02-23T12:24:23.000Z</time>
      </trkpt>
      <trkpt lat="45.14246" lon="5.57534">
        <ele>1501</ele>
        <time>2020-02-23T12:24:33.000Z</time>
      </trkpt>
      <trkpt lat="45.14257" lon="5.57541">
        <ele>1509</ele>
        <time>2020-02-23T12:24:43.000Z</time>
      </trkpt>
      <trkpt lat="45.14267" lon="5.57545">
        <ele>1519</ele>
        <time>2020-02-23T12:24:39.000Z</time>
      </trkpt>
      <trkpt lat="45.14273" lon="5.57546">
        <ele>1509.6</ele>
        <time>2020-02-23T12:24:49.000Z</time>
      </trkpt>
      <trkpt lat="45.1428" lon="5.57549">
        <ele>1510</ele>
        <time>2020-02-23T12:24:59.000Z</time>
      </trkpt>
      <trkpt lat="45.14295" lon="5.57553">
        <ele>1517</ele>
        <time>2020-02-23T12:24:55.000Z</time>
      </trkpt>
      <trkpt lat="45.14311" lon="5.57556">
        <ele>1512.5</ele>
        <time>2020-02-23T12:25:05.000Z</time>
      </trkpt>
      <trkpt lat="45.14319" lon="5.57558">
        <ele>1516</ele>
        <time>2020-02-23T12:25:07.000Z</time>
      </trkpt>
      <trkpt lat="45.14324" lon="5.57558">
        <ele>1513.5</ele>
        <time>2020-02-23T12:25:17.000Z</time>
      </trkpt>
      <trkpt lat="45.14336" lon="5.57551">
        <ele>1520.8</ele>
        <time>2020-02-23T12:25:27.000Z</time>
      </trkpt>
      <trkpt lat="45.14345" lon="5.57547">
        <ele>1516</ele>
        <time>2020-02-23T12:25:18.000Z</time>
      </trkpt>
      <trkpt lat="45.14356" lon="5.57548">
        <ele>1521.7</ele>
        <time>2020-02-23T12:25:28.000Z</time>
      </trkpt>
      <trkpt lat="45.14362" lon="5.57546">
        <ele>1522.1</ele>
        <time>2020-02-23T12:25:38.000Z</time>
      </trkpt>
      <trkpt lat="45.14376" lon="5.57545">
        <ele>1518</ele>
        <time>2020-02-23T12:25:33.000Z</time>
      </trkpt>
      <trkpt lat="45.14393" lon="5.57539">
        <ele>1524.2</ele>
        <time>2020-02-23T12:25:43.000Z</time>
      </trkpt>
      <trkpt lat="45.14399" lon="5.57539">
        <ele>1522</ele>
        <time>2020-02-23T12:25:43.000Z</time>
      </trkpt>
      <trkpt lat="45.14401" lon="5.57539">
        <ele>1524.7</ele>
        <time>2020-02-23T12:25:53.000Z</time>
      </trkpt>
      <trkpt lat="45.14406" lon="5.57544">
        <ele>1524.9</ele>
        <time>2020-02-23T12:26:03.000Z</time>
      </trkpt>
      <trkpt lat="45.14408" lon="5.57545">
        <ele>1525</ele>
        <time>2020-02-23T12:26:13.000Z</time>
      </trkpt>
      <trkpt lat="45.14411" lon="5.57544">
        <ele>1525.1</ele>
        <time>2020-02-23T12:26:23.000Z</time>
      </trkpt>
      <trkpt lat="45.14414" lon="5.57539">
        <ele>1525.2</ele>
        <time>2020-02-23T12:26:33.000Z</time>
      </trkpt>
      <trkpt lat="45.14416" lon="5.57538">
        <ele>1524</ele>
        <time>2020-02-23T12:25:58.000Z</time>
      </trkpt>
      <trkpt lat="45.14419" lon="5.57532">
        <ele>1532.3</ele>
        <time>2020-02-23T12:26:08.000Z</time>
      </trkpt>
      <trkpt lat="45.14422" lon="5.5753">
        <ele>1532.4</ele>
        <time>2020-02-23T12:26:18.000Z</time>
      </trkpt>
      <trkpt lat="45.14428" lon="5.57527">
        <ele>1532.5</ele>
        <time>2020-02-23T12:26:28.000Z</time>
      </trkpt>
      <trkpt lat="45.14433" lon="5.57525">
        <ele>1524</ele>
        <time>2020-02-23T12:26:12.000Z</time>
      </trkpt>
      <trkpt lat="45.14438" lon="5.5752">
        <ele>1532.9</ele>
        <time>2020-02-23T12:26:22.000Z</time>
      </trkpt>
      <trkpt lat="45.14441" lon="5.57521">
        <ele>1533.1</ele>
        <time>2020-02-23T12:26:32.000Z</time>
      </trkpt>
      <trkpt lat="45.14453" lon="5.57519">
        <ele>1540</ele>
        <time>2020-02-23T12:26:27.000Z</time>
      </trkpt>
      <trkpt lat="45.14462" lon="5.57521">
        <ele>1534.8</ele>
        <time>2020-02-23T12:26:37.000Z</time>
      </trkpt>
      <trkpt lat="45.14467" lon="5.57521">
        <ele>1535.2</ele>
        <time>2020-02-23T12:26:47.000Z</time>
      </trkpt>
      <trkpt lat="45.14473" lon="5.57522">
        <ele>1540</ele>
        <time>2020-02-23T12:26:40.000Z</time>
      </trkpt>
      <trkpt lat="45.14479" lon="5.57521">
        <ele>1536.1</ele>
        <time>2020-02-23T12:26:50.000Z</time>
      </trkpt>
      <trkpt lat="45.14491" lon="5.57516">
        <ele>1541</ele>
        <time>2020-02-23T12:26:48.000Z</time>
      </trkpt>
      <trkpt lat="45.14496" lon="5.57516">
        <ele>1537.5</ele>
        <time>2020-02-23T12:26:58.000Z</time>
      </trkpt>
      <trkpt lat="45.14504" lon="5.57519">
        <ele>1542.1</ele>
        <time>2020-02-23T12:27:08.000Z</time>
      </trkpt>
      <trkpt lat="45.14512" lon="5.57521">
        <ele>1543</ele>
        <time>2020-02-23T12:26:58.000Z</time>
      </trkpt>
      <trkpt lat="45.14531" lon="5.57517">
        <ele>1543.5</ele>
        <time>2020-02-23T12:27:08.000Z</time>
      </trkpt>
      <trkpt lat="45.14543" lon="5.57516">
        <ele>1545</ele>
        <time>2020-02-23T12:27:14.000Z</time>
      </trkpt>
      <trkpt lat="45.14555" lon="5.57522">
        <ele>1544.8</ele>
        <time>2020-02-23T12:27:24.000Z</time>
      </trkpt>
      <trkpt lat="45.14559" lon="5.57525">
        <ele>1545</ele>
        <time>2020-02-23T12:27:34.000Z</time>
      </trkpt>
      <trkpt lat="45.14569" lon="5.5754">
        <ele>1550</ele>
        <time>2020-02-23T12:27:27.000Z</time>
      </trkpt>
      <trkpt lat="45.14576" lon="5.57548">
        <ele>1546.4</ele>
        <time>2020-02-23T12:27:37.000Z</time>
      </trkpt>
      <trkpt lat="45.14582" lon="5.57552">
        <ele>1546.8</ele>
        <time>2020-02-23T12:27:47.000Z</time>
      </trkpt>
      <trkpt lat="45.14587" lon="5.57553">
        <ele>1546</ele>
        <time>2020-02-23T12:27:36.000Z</time>
      </trkpt>
      <trkpt lat="45.14596" lon="5.57558">
        <ele>1552</ele>
        <time>2020-02-23T12:27:46.000Z</time>
      </trkpt>
      <trkpt lat="45.14599" lon="5.57558">
        <ele>1552.1</ele>
        <time>2020-02-23T12:27:56.000Z</time>
      </trkpt>
      <trkpt lat="45.14602" lon="5.57556">
        <ele>1552.1</ele>
        <time>2020-02-23T12:28:06.000Z</time>
      </trkpt>
      <trkpt lat="45.14605" lon="5.57556">
        <ele>1552.2</ele>
        <time>2020-02-23T12:28:16.000Z</time>
      </trkpt>
      <trkpt lat="45.14613" lon="5.57559">
        <ele>1545</ele>
        <time>2020-02-23T12:27:57.000Z</time>
      </trkpt>
      <trkpt lat="45.14615" lon="5.57558">
        <ele>1552.6</ele>
        <time>2020-02-23T12:28:07.000Z</time>
      </trkpt>
      <trkpt lat="45.14622" lon="5.57559">
        <ele>1553</ele>
        <time>2020-02-23T12:28:17.000Z</time>
      </trkpt>
      <trkpt lat="45.1463" lon="5.57558">
        <ele>1553.3</ele>
        <time>2020-02-23T12:28:27.000Z</time>
      </trkpt>
      <trkpt lat="45.14635" lon="5.57558">
        <ele>1545</ele>
        <time>2020-02-23T12:28:16.000Z</time>
      </trkpt>
      <trkpt lat="45.14642" lon="5.57554">
        <ele>1553.8</ele>
        <time>2020-02-23T12:28:26.000Z</time>
      </trkpt>
      <trkpt lat="45.14648" lon="5.57552">
        <ele>1553.9</ele>
        <time>2020-02-23T12:28:36.000Z</time>
      </trkpt>
      <trkpt lat="45.14654" lon="5.57554">
        <ele>1545</ele>
        <time>2020-02-23T12:28:35.000Z</time>
      </trkpt>
      <trkpt lat="45.14656" lon="5.57553">
        <ele>1554.3</ele>
        <time>2020-02-23T12:28:45.000Z</time>
      </trkpt>
      <trkpt lat="45.1466" lon="5.57555">
        <ele>1554.6</ele>
        <time>2020-02-23T12:28:55.000Z</time>
      </trkpt>
      <trkpt lat="45.14663" lon="5.57555">
        <ele>1554.7</ele>
        <time>2020-02-23T12:29:05.000Z</time>
      </trkpt>
      <trkpt lat="45.1468" lon="5.57563">
        <ele>1554</ele>
        <time>2020-02-23T12:28:57.000Z</time>
      </trkpt>
      <trkpt lat="45.14687" lon="5.57564">
        <ele>1557.9</ele>
        <time>2020-02-23T12:29:07.000Z</time>
      </trkpt>
      <trkpt lat="45.14699" lon="5.57563">
        <ele>1557.9</ele>
        <time>2020-02-23T12:29:17.000Z</time>
      </trkpt>
      <trkpt lat="45.14701" lon="5.57562">
        <ele>1553</ele>
        <time>2020-02-23T12:29:10.000Z</time>
      </trkpt>
      <trkpt lat="45.14738" lon="5.57564">
        <ele>1554</ele>
        <time>2020-02-23T12:29:35.000Z</time>
      </trkpt>
      <trkpt lat="45.14744" lon="5.57564">
        <ele>1558.7</ele>
        <time>2020-02-23T12:29:45.000Z</time>
      </trkpt>
      <trkpt lat="45.1475" lon="5.57565">
        <ele>1560.6</ele>
        <time>2020-02-23T12:29:55.000Z</time>
      </trkpt>
      <trkpt lat="45.14756" lon="5.57567">
        <ele>1560.7</ele>
        <time>2020-02-23T12:30:05.000Z</time>
      </trkpt>
      <trkpt lat="45.14764" lon="5.57569">
        <ele>1556</ele>
        <time>2020-02-23T12:29:52.000Z</time>
      </trkpt>
      <trkpt lat="45.14772" lon="5.57573">
        <ele>1561.1</ele>
        <time>2020-02-23T12:30:02.000Z</time>
      </trkpt>
      <trkpt lat="45.14778" lon="5.57575">
        <ele>1561.4</ele>
        <time>2020-02-23T12:30:12.000Z</time>
      </trkpt>
      <trkpt lat="45.14781" lon="5.57575">
        <ele>1561.6</ele>
        <time>2020-02-23T12:30:22.000Z</time>
      </trkpt>
      <trkpt lat="45.14789" lon="5.5758">
        <ele>1558</ele>
        <time>2020-02-23T12:30:11.000Z</time>
      </trkpt>
      <trkpt lat="45.14798" lon="5.57582">
        <ele>1562.7</ele>
        <time>2020-02-23T12:30:21.000Z</time>
      </trkpt>
      <trkpt lat="45.14807" lon="5.57586">
        <ele>1564.6</ele>
        <time>2020-02-23T12:30:31.000Z</time>
      </trkpt>
      <trkpt lat="45.14815" lon="5.57588">
        <ele>1565</ele>
        <time>2020-02-23T12:30:31.000Z</time>
      </trkpt>
      <trkpt lat="45.14821" lon="5.57588">
        <ele>1565.9</ele>
        <time>2020-02-23T12:30:41.000Z</time>
      </trkpt>
      <trkpt lat="45.14828" lon="5.57589">
        <ele>1566.7</ele>
        <time>2020-02-23T12:30:51.000Z</time>
      </trkpt>
      <trkpt lat="45.1483" lon="5.5759">
        <ele>1566.7</ele>
        <time>2020-02-23T12:31:01.000Z</time>
      </trkpt>
      <trkpt lat="45.14835" lon="5.5759">
        <ele>1566</ele>
        <time>2020-02-23T12:30:47.000Z</time>
      </trkpt>
      <trkpt lat="45.14838" lon="5.57591">
        <ele>1568.8</ele>
        <time>2020-02-23T12:30:57.000Z</time>
      </trkpt>
      <trkpt lat="45.14843" lon="5.57594">
        <ele>1569.2</ele>
        <time>2020-02-23T12:31:07.000Z</time>
      </trkpt>
      <trkpt lat="45.14845" lon="5.57596">
        <ele>1569.4</ele>
        <time>2020-02-23T12:31:17.000Z</time>
      </trkpt>
      <trkpt lat="45.14848" lon="5.57603">
        <ele>1569.7</ele>
        <time>2020-02-23T12:31:27.000Z</time>
      </trkpt>
      <trkpt lat="45.14858" lon="5.57618">
        <ele>1568</ele>
        <time>2020-02-23T12:31:09.000Z</time>
      </trkpt>
      <trkpt lat="45.14861" lon="5.57624">
        <ele>1570.3</ele>
        <time>2020-02-23T12:31:19.000Z</time>
      </trkpt>
      <trkpt lat="45.14863" lon="5.57627">
        <ele>1570.4</ele>
        <time>2020-02-23T12:31:29.000Z</time>
      </trkpt>
      <trkpt lat="45.14868" lon="5.5763">
        <ele>1570.7</ele>
        <time>2020-02-23T12:31:39.000Z</time>
      </trkpt>
      <trkpt lat="45.14874" lon="5.57631">
        <ele>1569</ele>
        <time>2020-02-23T12:31:23.000Z</time>
      </trkpt>
      <trkpt lat="45.14884" lon="5.5764">
        <ele>1571.7</ele>
        <time>2020-02-23T12:31:33.000Z</time>
      </trkpt>
      <trkpt lat="45.14891" lon="5.57645">
        <ele>1568</ele>
        <time>2020-02-23T12:31:36.000Z</time>
      </trkpt>
      <trkpt lat="45.14915" lon="5.57652">
        <ele>1568</ele>
        <time>2020-02-23T12:31:53.000Z</time>
      </trkpt>
      <trkpt lat="45.14925" lon="5.57654">
        <ele>1576.8</ele>
        <time>2020-02-23T12:32:03.000Z</time>
      </trkpt>
      <trkpt lat="45.14934" lon="5.57657">
        <ele>1568</ele>
        <time>2020-02-23T12:32:07.000Z</time>
      </trkpt>
      <trkpt lat="45.14943" lon="5.57658">
        <ele>1577</ele>
        <time>2020-02-23T12:32:17.000Z</time>
      </trkpt>
      <trkpt lat="45.14948" lon="5.5766">
        <ele>1577.1</ele>
        <time>2020-02-23T12:32:27.000Z</time>
      </trkpt>
      <trkpt lat="45.14954" lon="5.57665">
        <ele>1568</ele>
        <time>2020-02-23T12:32:19.000Z</time>
      </trkpt>
      <trkpt lat="45.14962" lon="5.57675">
        <ele>1574.5</ele>
        <time>2020-02-23T12:32:29.000Z</time>
      </trkpt>
      <trkpt lat="45.1497" lon="5.57681">
        <ele>1569</ele>
        <time>2020-02-23T12:32:29.000Z</time>
      </trkpt>
      <trkpt lat="45.14974" lon="5.57682">
        <ele>1574.9</ele>
        <time>2020-02-23T12:32:39.000Z</time>
      </trkpt>
      <trkpt lat="45.14987" lon="5.57681">
        <ele>1576</ele>
        <time>2020-02-23T12:32:49.000Z</time>
      </trkpt>
      <trkpt lat="45.14998" lon="5.57683">
        <ele>1581</ele>
        <time>2020-02-23T12:32:42.000Z</time>
      </trkpt>
      <trkpt lat="45.15004" lon="5.57683">
        <ele>1579.8</ele>
        <time>2020-02-23T12:32:52.000Z</time>
      </trkpt>
      <trkpt lat="45.15011" lon="5.5768">
        <ele>1580</ele>
        <time>2020-02-23T12:33:02.000Z</time>
      </trkpt>
      <trkpt lat="45.15016" lon="5.57677">
        <ele>1581</ele>
        <time>2020-02-23T12:32:52.000Z</time>
      </trkpt>
      <trkpt lat="45.15022" lon="5.57676">
        <ele>1580.3</ele>
        <time>2020-02-23T12:33:02.000Z</time>
      </trkpt>
      <trkpt lat="45.15039" lon="5.57684">
        <ele>1583</ele>
        <time>2020-02-23T12:33:09.000Z</time>
      </trkpt>
      <trkpt lat="45.15043" lon="5.57685">
        <ele>1581</ele>
        <time>2020-02-23T12:33:19.000Z</time>
      </trkpt>
      <trkpt lat="45.15048" lon="5.57683">
        <ele>1581.4</ele>
        <time>2020-02-23T12:33:29.000Z</time>
      </trkpt>
      <trkpt lat="45.15059" lon="5.57679">
        <ele>1585</ele>
        <time>2020-02-23T12:33:26.000Z</time>
      </trkpt>
      <trkpt lat="45.15065" lon="5.57678">
        <ele>1582.8</ele>
        <time>2020-02-23T12:33:36.000Z</time>
      </trkpt>
      <trkpt lat="45.15072" lon="5.57676">
        <ele>1583.5</ele>
        <time>2020-02-23T12:33:46.000Z</time>
      </trkpt>
      <trkpt lat="45.15086" lon="5.57675">
        <ele>1589</ele>
        <time>2020-02-23T12:33:48.000Z</time>
      </trkpt>
      <trkpt lat="45.15091" lon="5.57674">
        <ele>1588.3</ele>
        <time>2020-02-23T12:33:58.000Z</time>
      </trkpt>
      <trkpt lat="45.15104" lon="5.57674">
        <ele>1590.2</ele>
        <time>2020-02-23T12:34:08.000Z</time>
      </trkpt>
      <trkpt lat="45.15115" lon="5.57676">
        <ele>1597</ele>
        <time>2020-02-23T12:34:11.000Z</time>
      </trkpt>
      <trkpt lat="45.15135" lon="5.57682">
        <ele>1600</ele>
        <time>2020-02-23T12:34:27.000Z</time>
      </trkpt>
      <trkpt lat="45.15149" lon="5.5769">
        <ele>1595.5</ele>
        <time>2020-02-23T12:34:37.000Z</time>
      </trkpt>
      <trkpt lat="45.15168" lon="5.57698">
        <ele>1600</ele>
        <time>2020-02-23T12:34:53.000Z</time>
      </trkpt>
      <trkpt lat="45.15186" lon="5.57713">
        <ele>1600</ele>
        <time>2020-02-23T12:35:06.000Z</time>
      </trkpt>
      <trkpt lat="45.1519" lon="5.57717">
        <ele>1605.4</ele>
        <time>2020-02-23T12:35:16.000Z</time>
      </trkpt>
      <trkpt lat="45.15198" lon="5.57719">
        <ele>1605.9</ele>
        <time>2020-02-23T12:35:26.000Z</time>
      </trkpt>
      <trkpt lat="45.152" lon="5.5772">
        <ele>1606.1</ele>
        <time>2020-02-23T12:35:36.000Z</time>
      </trkpt>
      <trkpt lat="45.15213" lon="5.57723">
        <ele>1595</ele>
        <time>2020-02-23T12:35:27.000Z</time>
      </trkpt>
      <trkpt lat="45.15218" lon="5.57726">
        <ele>1607.7</ele>
        <time>2020-02-23T12:35:37.000Z</time>
      </trkpt>
      <trkpt lat="45.15225" lon="5.57727">
        <ele>1608.4</ele>
        <time>2020-02-23T12:35:47.000Z</time>
      </trkpt>
      <trkpt lat="45.15228" lon="5.57729">
        <ele>1608.8</ele>
        <time>2020-02-23T12:35:57.000Z</time>
      </trkpt>
      <trkpt lat="45.15234" lon="5.57731">
        <ele>1595</ele>
        <time>2020-02-23T12:35:41.000Z</time>
      </trkpt>
      <trkpt lat="45.15241" lon="5.57735">
        <ele>1610.7</ele>
        <time>2020-02-23T12:35:51.000Z</time>
      </trkpt>
      <trkpt lat="45.15246" lon="5.57737">
        <ele>1611.4</ele>
        <time>2020-02-23T12:36:01.000Z</time>
      </trkpt>
      <trkpt lat="45.15254" lon="5.57742">
        <ele>1604</ele>
        <time>2020-02-23T12:35:54.000Z</time>
      </trkpt>
      <trkpt lat="45.15256" lon="5.57743">
        <ele>1615.2</ele>
        <time>2020-02-23T12:36:04.000Z</time>
      </trkpt>
      <trkpt lat="45.15266" lon="5.57744">
        <ele>1615.5</ele>
        <time>2020-02-23T12:36:14.000Z</time>
      </trkpt>
      <trkpt lat="45.15283" lon="5.5775">
        <ele>1611</ele>
        <time>2020-02-23T12:36:19.000Z</time>
      </trkpt>
      <trkpt lat="45.15285" lon="5.57749">
        <ele>1616.5</ele>
        <time>2020-02-23T12:36:29.000Z</time>
      </trkpt>
      <trkpt lat="45.15289" lon="5.5775">
        <ele>1616.8</ele>
        <time>2020-02-23T12:36:39.000Z</time>
      </trkpt>
      <trkpt lat="45.15299" lon="5.57749">
        <ele>1617.6</ele>
        <time>2020-02-23T12:36:49.000Z</time>
      </trkpt>
      <trkpt lat="45.15312" lon="5.57755">
        <ele>1613</ele>
        <time>2020-02-23T12:36:43.000Z</time>
      </trkpt>
      <trkpt lat="45.15317" lon="5.57759">
        <ele>1618.5</ele>
        <time>2020-02-23T12:36:53.000Z</time>
      </trkpt>
      <trkpt lat="45.1532" lon="5.5776">
        <ele>1618.8</ele>
        <time>2020-02-23T12:37:03.000Z</time>
      </trkpt>
      <trkpt lat="45.15322" lon="5.57762">
        <ele>1618.9</ele>
        <time>2020-02-23T12:37:13.000Z</time>
      </trkpt>
      <trkpt lat="45.15332" lon="5.57766">
        <ele>1615</ele>
        <time>2020-02-23T12:36:58.000Z</time>
      </trkpt>
      <trkpt lat="45.15338" lon="5.5777">
        <ele>1623.8</ele>
        <time>2020-02-23T12:37:08.000Z</time>
      </trkpt>
      <trkpt lat="45.15346" lon="5.57774">
        <ele>1624</ele>
        <time>2020-02-23T12:37:18.000Z</time>
      </trkpt>
      <trkpt lat="45.15358" lon="5.57779">
        <ele>1621</ele>
        <time>2020-02-23T12:37:16.000Z</time>
      </trkpt>
      <trkpt lat="45.15371" lon="5.57782">
        <ele>1625</ele>
        <time>2020-02-23T12:37:26.000Z</time>
      </trkpt>
      <trkpt lat="45.15379" lon="5.57785">
        <ele>1621</ele>
        <time>2020-02-23T12:37:32.000Z</time>
      </trkpt>
      <trkpt lat="45.15391" lon="5.57786">
        <ele>1626</ele>
        <time>2020-02-23T12:37:42.000Z</time>
      </trkpt>
      <trkpt lat="45.15401" lon="5.57786">
        <ele>1624</ele>
        <time>2020-02-23T12:37:49.000Z</time>
      </trkpt>
      <trkpt lat="45.15408" lon="5.57788">
        <ele>1626.6</ele>
        <time>2020-02-23T12:37:59.000Z</time>
      </trkpt>
      <trkpt lat="45.15411" lon="5.57789">
        <ele>1626.7</ele>
        <time>2020-02-23T12:38:09.000Z</time>
      </trkpt>
      <trkpt lat="45.15417" lon="5.57785">
        <ele>1630.3</ele>
        <time>2020-02-23T12:38:19.000Z</time>
      </trkpt>
      <trkpt lat="45.15422" lon="5.57783">
        <ele>1624</ele>
        <time>2020-02-23T12:38:08.000Z</time>
      </trkpt>
      <trkpt lat="45.15431" lon="5.57782">
        <ele>1630.4</ele>
        <time>2020-02-23T12:38:18.000Z</time>
      </trkpt>
      <trkpt lat="45.15454" lon="5.57775">
        <ele>1624</ele>
        <time>2020-02-23T12:38:24.000Z</time>
      </trkpt>
      <trkpt lat="45.1546" lon="5.57775">
        <ele>1630.5</ele>
        <time>2020-02-23T12:38:34.000Z</time>
      </trkpt>
      <trkpt lat="45.15474" lon="5.57777">
        <ele>1625</ele>
        <time>2020-02-23T12:38:33.000Z</time>
      </trkpt>
      <trkpt lat="45.1548" lon="5.5778">
        <ele>1630.6</ele>
        <time>2020-02-23T12:38:43.000Z</time>
      </trkpt>
      <trkpt lat="45.15496" lon="5.57792">
        <ele>1622</ele>
        <time>2020-02-23T12:38:45.000Z</time>
      </trkpt>
      <trkpt lat="45.15504" lon="5.57801">
        <ele>1630.6</ele>
        <time>2020-02-23T12:38:55.000Z</time>
      </trkpt>
      <trkpt lat="45.15512" lon="5.57807">
        <ele>1630.7</ele>
        <time>2020-02-23T12:39:05.000Z</time>
      </trkpt>
      <trkpt lat="45.15518" lon="5.57813">
        <ele>1624</ele>
        <time>2020-02-23T12:38:54.000Z</time>
      </trkpt>
      <trkpt lat="45.15533" lon="5.57821">
        <ele>1630.5</ele>
        <time>2020-02-23T12:39:04.000Z</time>
      </trkpt>
      <trkpt lat="45.15541" lon="5.57826">
        <ele>1626</ele>
        <time>2020-02-23T12:39:04.000Z</time>
      </trkpt>
      <trkpt lat="45.1555" lon="5.57839">
        <ele>1629.1</ele>
        <time>2020-02-23T12:39:14.000Z</time>
      </trkpt>
      <trkpt lat="45.15561" lon="5.57852">
        <ele>1637</ele>
        <time>2020-02-23T12:39:15.000Z</time>
      </trkpt>
      <trkpt lat="45.15565" lon="5.57855">
        <ele>1628.8</ele>
        <time>2020-02-23T12:39:25.000Z</time>
      </trkpt>
      <trkpt lat="45.15577" lon="5.5786">
        <ele>1628.8</ele>
        <time>2020-02-23T12:39:35.000Z</time>
      </trkpt>
      <trkpt lat="45.15584" lon="5.57863">
        <ele>1638</ele>
        <time>2020-02-23T12:39:25.000Z</time>
      </trkpt>
      <trkpt lat="45.15591" lon="5.57869">
        <ele>1632.4</ele>
        <time>2020-02-23T12:39:35.000Z</time>
      </trkpt>
      <trkpt lat="45.15599" lon="5.57873">
        <ele>1632.6</ele>
        <time>2020-02-23T12:39:45.000Z</time>
      </trkpt>
      <trkpt lat="45.15604" lon="5.57874">
        <ele>1642</ele>
        <time>2020-02-23T12:39:39.000Z</time>
      </trkpt>
      <trkpt lat="45.15611" lon="5.5787">
        <ele>1633.3</ele>
        <time>2020-02-23T12:39:49.000Z</time>
      </trkpt>
      <trkpt lat="45.15613" lon="5.57869">
        <ele>1633.4</ele>
        <time>2020-02-23T12:39:59.000Z</time>
      </trkpt>
      <trkpt lat="45.1562" lon="5.57865">
        <ele>1633.9</ele>
        <time>2020-02-23T12:40:09.000Z</time>
      </trkpt>
      <trkpt lat="45.15627" lon="5.57864">
        <ele>1642</ele>
        <time>2020-02-23T12:40:00.000Z</time>
      </trkpt>
      <trkpt lat="45.1563" lon="5.57863">
        <ele>1634.5</ele>
        <time>2020-02-23T12:40:10.000Z</time>
      </trkpt>
      <trkpt lat="45.15632" lon="5.57862">
        <ele>1634.7</ele>
        <time>2020-02-23T12:40:20.000Z</time>
      </trkpt>
      <trkpt lat="45.15643" lon="5.57861">
        <ele>1635.4</ele>
        <time>2020-02-23T12:40:30.000Z</time>
      </trkpt>
      <trkpt lat="45.15661" lon="5.57863">
        <ele>1643</ele>
        <time>2020-02-23T12:40:24.000Z</time>
      </trkpt>
      <trkpt lat="45.15664" lon="5.57863">
        <ele>1636.3</ele>
        <time>2020-02-23T12:40:34.000Z</time>
      </trkpt>
      <trkpt lat="45.15683" lon="5.57854">
        <ele>1643</ele>
        <time>2020-02-23T12:40:38.000Z</time>
      </trkpt>
      <trkpt lat="45.15688" lon="5.57851">
        <ele>1640.4</ele>
        <time>2020-02-23T12:40:48.000Z</time>
      </trkpt>
      <trkpt lat="45.15699" lon="5.57849">
        <ele>1640.6</ele>
        <time>2020-02-23T12:40:58.000Z</time>
      </trkpt>
      <trkpt lat="45.15704" lon="5.5785">
        <ele>1637</ele>
        <time>2020-02-23T12:40:51.000Z</time>
      </trkpt>
      <trkpt lat="45.15723" lon="5.57851">
        <ele>1641.1</ele>
        <time>2020-02-23T12:41:01.000Z</time>
      </trkpt>
      <trkpt lat="45.15731" lon="5.57853">
        <ele>1620</ele>
        <time>2020-02-23T12:41:10.000Z</time>
      </trkpt>
      <trkpt lat="45.15735" lon="5.57855">
        <ele>1641.4</ele>
        <time>2020-02-23T12:41:20.000Z</time>
      </trkpt>
      <trkpt lat="45.15741" lon="5.57856">
        <ele>1641.5</ele>
        <time>2020-02-23T12:41:30.000Z</time>
      </trkpt>
      <trkpt lat="45.15747" lon="5.57858">
        <ele>1641.5</ele>
        <time>2020-02-23T12:41:40.000Z</time>
      </trkpt>
      <trkpt lat="45.15759" lon="5.57861">
        <ele>1621</ele>
        <time>2020-02-23T12:41:31.000Z</time>
      </trkpt>
      <trkpt lat="45.15761" lon="5.5786">
        <ele>1644.5</ele>
        <time>2020-02-23T12:41:41.000Z</time>
      </trkpt>
      <trkpt lat="45.15766" lon="5.57863">
        <ele>1644.7</ele>
        <time>2020-02-23T12:41:51.000Z</time>
      </trkpt>
      <trkpt lat="45.15786" lon="5.57871">
        <ele>1622</ele>
        <time>2020-02-23T12:41:53.000Z</time>
      </trkpt>
      <trkpt lat="45.15794" lon="5.57876">
        <ele>1645.9</ele>
        <time>2020-02-23T12:42:03.000Z</time>
      </trkpt>
      <trkpt lat="45.1581" lon="5.57883">
        <ele>1634</ele>
        <time>2020-02-23T12:42:11.000Z</time>
      </trkpt>
      <trkpt lat="45.15813" lon="5.57882">
        <ele>1646.8</ele>
        <time>2020-02-23T12:42:21.000Z</time>
      </trkpt>
      <trkpt lat="45.1582" lon="5.57883">
        <ele>1647.1</ele>
        <time>2020-02-23T12:42:31.000Z</time>
      </trkpt>
      <trkpt lat="45.15822" lon="5.57882">
        <ele>1647.1</ele>
        <time>2020-02-23T12:42:41.000Z</time>
      </trkpt>
      <trkpt lat="45.15828" lon="5.57884">
        <ele>1647.4</ele>
        <time>2020-02-23T12:42:51.000Z</time>
      </trkpt>
      <trkpt lat="45.1583" lon="5.57884">
        <ele>1647</ele>
        <time>2020-02-23T12:42:25.000Z</time>
      </trkpt>
      <trkpt lat="45.15836" lon="5.57885">
        <ele>1649.8</ele>
        <time>2020-02-23T12:42:35.000Z</time>
      </trkpt>
      <trkpt lat="45.15839" lon="5.57885">
        <ele>1649.8</ele>
        <time>2020-02-23T12:42:45.000Z</time>
      </trkpt>
      <trkpt lat="45.15848" lon="5.57887">
        <ele>1649.8</ele>
        <time>2020-02-23T12:42:55.000Z</time>
      </trkpt>
      <trkpt lat="45.1585" lon="5.57887">
        <ele>1654</ele>
        <time>2020-02-23T12:42:38.000Z</time>
      </trkpt>
      <trkpt lat="45.15854" lon="5.57887">
        <ele>1649.8</ele>
        <time>2020-02-23T12:42:48.000Z</time>
      </trkpt>
      <trkpt lat="45.1586" lon="5.5789">
        <ele>1649.9</ele>
        <time>2020-02-23T12:42:58.000Z</time>
      </trkpt>
      <trkpt lat="45.15863" lon="5.57893">
        <ele>1650</ele>
        <time>2020-02-23T12:43:08.000Z</time>
      </trkpt>
      <trkpt lat="45.1587" lon="5.57906">
        <ele>1654</ele>
        <time>2020-02-23T12:42:53.000Z</time>
      </trkpt>
      <trkpt lat="45.1588" lon="5.57911">
        <ele>1650.5</ele>
        <time>2020-02-23T12:43:03.000Z</time>
      </trkpt>
      <trkpt lat="45.15888" lon="5.57914">
        <ele>1655</ele>
        <time>2020-02-23T12:43:07.000Z</time>
      </trkpt>
      <trkpt lat="45.15895" lon="5.57921">
        <ele>1651.3</ele>
        <time>2020-02-23T12:43:17.000Z</time>
      </trkpt>
      <trkpt lat="45.15902" lon="5.57932">
        <ele>1655</ele>
        <time>2020-02-23T12:43:18.000Z</time>
      </trkpt>
      <trkpt lat="45.1591" lon="5.57939">
        <ele>1651.2</ele>
        <time>2020-02-23T12:43:28.000Z</time>
      </trkpt>
      <trkpt lat="45.15917" lon="5.57946">
        <ele>1651.9</ele>
        <time>2020-02-23T12:43:38.000Z</time>
      </trkpt>
      <trkpt lat="45.15931" lon="5.5797">
        <ele>1653</ele>
        <time>2020-02-23T12:43:44.000Z</time>
      </trkpt>
      <trkpt lat="45.15934" lon="5.57979">
        <ele>1651.4</ele>
        <time>2020-02-23T12:43:54.000Z</time>
      </trkpt>
      <trkpt lat="45.15936" lon="5.57981">
        <ele>1651.4</ele>
        <time>2020-02-23T12:44:04.000Z</time>
      </trkpt>
      <trkpt lat="45.15944" lon="5.57986">
        <ele>1651.6</ele>
        <time>2020-02-23T12:44:14.000Z</time>
      </trkpt>
      <trkpt lat="45.15953" lon="5.57989">
        <ele>1651</ele>
        <time>2020-02-23T12:43:58.000Z</time>
      </trkpt>
      <trkpt lat="45.15964" lon="5.57992">
        <ele>1652.2</ele>
        <time>2020-02-23T12:44:08.000Z</time>
      </trkpt>
      <trkpt lat="45.15972" lon="5.57999">
        <ele>1648</ele>
        <time>2020-02-23T12:44:06.000Z</time>
      </trkpt>
      <trkpt lat="45.15983" lon="5.58005">
        <ele>1651.9</ele>
        <time>2020-02-23T12:44:16.000Z</time>
      </trkpt>
      <trkpt lat="45.15988" lon="5.58007">
        <ele>1652.4</ele>
        <time>2020-02-23T12:44:26.000Z</time>
      </trkpt>
      <trkpt lat="45.15995" lon="5.58012">
        <ele>1647</ele>
        <time>2020-02-23T12:44:17.000Z</time>
      </trkpt>
      <trkpt lat="45.16002" lon="5.58013">
        <ele>1655</ele>
        <time>2020-02-23T12:44:27.000Z</time>
      </trkpt>
      <trkpt lat="45.16019" lon="5.58012">
        <ele>1647</ele>
        <time>2020-02-23T12:44:26.000Z</time>
      </trkpt>
      <trkpt lat="45.1603" lon="5.58013">
        <ele>1655.3</ele>
        <time>2020-02-23T12:44:36.000Z</time>
      </trkpt>
      <trkpt lat="45.16042" lon="5.58016">
        <ele>1647</ele>
        <time>2020-02-23T12:44:37.000Z</time>
      </trkpt>
      <trkpt lat="45.16053" lon="5.58021">
        <ele>1655.9</ele>
        <time>2020-02-23T12:44:47.000Z</time>
      </trkpt>
      <trkpt lat="45.1606" lon="5.58022">
        <ele>1656</ele>
        <time>2020-02-23T12:44:57.000Z</time>
      </trkpt>
      <trkpt lat="45.16078" lon="5.58027">
        <ele>1636</ele>
        <time>2020-02-23T12:44:53.000Z</time>
      </trkpt>
      <trkpt lat="45.16088" lon="5.58034">
        <ele>1658.1</ele>
        <time>2020-02-23T12:45:03.000Z</time>
      </trkpt>
      <trkpt lat="45.16094" lon="5.58034">
        <ele>1658.1</ele>
        <time>2020-02-23T12:45:13.000Z</time>
      </trkpt>
      <trkpt lat="45.16097" lon="5.58035">
        <ele>1636</ele>
        <time>2020-02-23T12:45:04.000Z</time>
      </trkpt>
      <trkpt lat="45.16103" lon="5.58035">
        <ele>1658.1</ele>
        <time>2020-02-23T12:45:14.000Z</time>
      </trkpt>
      <trkpt lat="45.16106" lon="5.58034">
        <ele>1658.2</ele>
        <time>2020-02-23T12:45:24.000Z</time>
      </trkpt>
      <trkpt lat="45.16111" lon="5.58031">
        <ele>1658.2</ele>
        <time>2020-02-23T12:45:34.000Z</time>
      </trkpt>
      <trkpt lat="45.16117" lon="5.58029">
        <ele>1641</ele>
        <time>2020-02-23T12:45:18.000Z</time>
      </trkpt>
      <trkpt lat="45.16126" lon="5.58025">
        <ele>1658.5</ele>
        <time>2020-02-23T12:45:28.000Z</time>
      </trkpt>
      <trkpt lat="45.16135" lon="5.58024">
        <ele>1658.7</ele>
        <time>2020-02-23T12:45:38.000Z</time>
      </trkpt>
      <trkpt lat="45.16145" lon="5.58022">
        <ele>1645</ele>
        <time>2020-02-23T12:45:39.000Z</time>
      </trkpt>
      <trkpt lat="45.1616" lon="5.58025">
        <ele>1659.1</ele>
        <time>2020-02-23T12:45:49.000Z</time>
      </trkpt>
      <trkpt lat="45.16165" lon="5.58026">
        <ele>1646</ele>
        <time>2020-02-23T12:45:52.000Z</time>
      </trkpt>
      <trkpt lat="45.1617" lon="5.5803">
        <ele>1659.7</ele>
        <time>2020-02-23T12:46:02.000Z</time>
      </trkpt>
      <trkpt lat="45.16173" lon="5.58032">
        <ele>1659.7</ele>
        <time>2020-02-23T12:46:12.000Z</time>
      </trkpt>
      <trkpt lat="45.16179" lon="5.58032">
        <ele>1659.7</ele>
        <time>2020-02-23T12:46:22.000Z</time>
      </trkpt>
      <trkpt lat="45.16185" lon="5.58035">
        <ele>1646</ele>
        <time>2020-02-23T12:46:05.000Z</time>
      </trkpt>
      <trkpt lat="45.16193" lon="5.58037">
        <ele>1659.5</ele>
        <time>2020-02-23T12:46:15.000Z</time>
      </trkpt>
      <trkpt lat="45.16218" lon="5.58044">
        <ele>1644</ele>
        <time>2020-02-23T12:46:23.000Z</time>
      </trkpt>
      <trkpt lat="45.16226" lon="5.58045">
        <ele>1659.5</ele>
        <time>2020-02-23T12:46:33.000Z</time>
      </trkpt>
      <trkpt lat="45.16251" lon="5.58054">
        <ele>1643</ele>
        <time>2020-02-23T12:46:38.000Z</time>
      </trkpt>
      <trkpt lat="45.16257" lon="5.58055">
        <ele>1658.1</ele>
        <time>2020-02-23T12:46:48.000Z</time>
      </trkpt>
      <trkpt lat="45.16261" lon="5.58057">
        <ele>1658.1</ele>
        <time>2020-02-23T12:46:58.000Z</time>
      </trkpt>
      <trkpt lat="45.16274" lon="5.5806">
        <ele>1642</ele>
        <time>2020-02-23T12:46:48.000Z</time>
      </trkpt>
      <trkpt lat="45.16279" lon="5.58063">
        <ele>1657.9</ele>
        <time>2020-02-23T12:46:58.000Z</time>
      </trkpt>
      <trkpt lat="45.16282" lon="5.58064">
        <ele>1657.8</ele>
        <time>2020-02-23T12:47:08.000Z</time>
      </trkpt>
      <trkpt lat="45.16292" lon="5.58067">
        <ele>1657.8</ele>
        <time>2020-02-23T12:47:18.000Z</time>
      </trkpt>
      <trkpt lat="45.16299" lon="5.58069">
        <ele>1642</ele>
        <time>2020-02-23T12:46:59.000Z</time>
      </trkpt>
      <trkpt lat="45.16305" lon="5.5807">
        <ele>1657.8</ele>
        <time>2020-02-23T12:47:09.000Z</time>
      </trkpt>
      <trkpt lat="45.16308" lon="5.58072">
        <ele>1657.8</ele>
        <time>2020-02-23T12:47:19.000Z</time>
      </trkpt>
      <trkpt lat="45.1631" lon="5.58073">
        <ele>1657.9</ele>
        <time>2020-02-23T12:47:29.000Z</time>
      </trkpt>
      <trkpt lat="45.16315" lon="5.58072">
        <ele>1657.9</ele>
        <time>2020-02-23T12:47:39.000Z</time>
      </trkpt>
      <trkpt lat="45.16327" lon="5.58077">
        <ele>1651</ele>
        <time>2020-02-23T12:47:12.000Z</time>
      </trkpt>
      <trkpt lat="45.16335" lon="5.58076">
        <ele>1654.4</ele>
        <time>2020-02-23T12:47:22.000Z</time>
      </trkpt>
      <trkpt lat="45.16342" lon="5.58078">
        <ele>1652.9</ele>
        <time>2020-02-23T12:47:32.000Z</time>
      </trkpt>
      <trkpt lat="45.16359" lon="5.58089">
        <ele>1653</ele>
        <time>2020-02-23T12:47:26.000Z</time>
      </trkpt>
      <trkpt lat="45.16364" lon="5.58093">
        <ele>1648.2</ele>
        <time>2020-02-23T12:47:36.000Z</time>
      </trkpt>
      <trkpt lat="45.16368" lon="5.581">
        <ele>1647.2</ele>
        <time>2020-02-23T12:47:46.000Z</time>
      </trkpt>
      <trkpt lat="45.16375" lon="5.58105">
        <ele>1656</ele>
        <time>2020-02-23T12:47:33.000Z</time>
      </trkpt>
      <trkpt lat="45.16379" lon="5.58109">
        <ele>1645.8</ele>
        <time>2020-02-23T12:47:43.000Z</time>
      </trkpt>
      <trkpt lat="45.16382" lon="5.58115">
        <ele>1645.5</ele>
        <time>2020-02-23T12:47:53.000Z</time>
      </trkpt>
      <trkpt lat="45.16389" lon="5.58126">
        <ele>1655</ele>
        <time>2020-02-23T12:47:41.000Z</time>
      </trkpt>
      <trkpt lat="45.16392" lon="5.58137">
        <ele>1645.3</ele>
        <time>2020-02-23T12:47:51.000Z</time>
      </trkpt>
      <trkpt lat="45.16395" lon="5.58142">
        <ele>1645.6</ele>
        <time>2020-02-23T12:48:01.000Z</time>
      </trkpt>
      <trkpt lat="45.16411" lon="5.5816">
        <ele>1656</ele>
        <time>2020-02-23T12:47:55.000Z</time>
      </trkpt>
      <trkpt lat="45.16428" lon="5.58183">
        <ele>1653</ele>
        <time>2020-02-23T12:48:06.000Z</time>
      </trkpt>
      <trkpt lat="45.16439" lon="5.58196">
        <ele>1645.7</ele>
        <time>2020-02-23T12:48:16.000Z</time>
      </trkpt>
      <trkpt lat="45.16451" lon="5.58212">
        <ele>1652</ele>
        <time>2020-02-23T12:48:18.000Z</time>
      </trkpt>
      <trkpt lat="45.1646" lon="5.5822">
        <ele>1644.9</ele>
        <time>2020-02-23T12:48:28.000Z</time>
      </trkpt>
      <trkpt lat="45.16467" lon="5.58226">
        <ele>1645.1</ele>
        <time>2020-02-23T12:48:38.000Z</time>
      </trkpt>
      <trkpt lat="45.16474" lon="5.5823">
        <ele>1652</ele>
        <time>2020-02-23T12:48:31.000Z</time>
      </trkpt>
      <trkpt lat="45.16489" lon="5.58241">
        <ele>1646.5</ele>
        <time>2020-02-23T12:48:41.000Z</time>
      </trkpt>
      <trkpt lat="45.16499" lon="5.58245">
        <ele>1656</ele>
        <time>2020-02-23T12:48:45.000Z</time>
      </trkpt>
      <trkpt lat="45.1651" lon="5.58248">
        <ele>1647.9</ele>
        <time>2020-02-23T12:48:55.000Z</time>
      </trkpt>
      <trkpt lat="45.16516" lon="5.58251">
        <ele>1644.1</ele>
        <time>2020-02-23T12:49:05.000Z</time>
      </trkpt>
      <trkpt lat="45.16521" lon="5.58251">
        <ele>1656</ele>
        <time>2020-02-23T12:48:55.000Z</time>
      </trkpt>
      <trkpt lat="45.16535" lon="5.58258">
        <ele>1642.6</ele>
        <time>2020-02-23T12:49:05.000Z</time>
      </trkpt>
      <trkpt lat="45.1654" lon="5.58259">
        <ele>1656</ele>
        <time>2020-02-23T12:49:05.000Z</time>
      </trkpt>
      <trkpt lat="45.16554" lon="5.58265">
        <ele>1643</ele>
        <time>2020-02-23T12:49:15.000Z</time>
      </trkpt>
      <trkpt lat="45.16581" lon="5.58276">
        <ele>1653</ele>
        <time>2020-02-23T12:49:24.000Z</time>
      </trkpt>
      <trkpt lat="45.16589" lon="5.58277">
        <ele>1644.4</ele>
        <time>2020-02-23T12:49:34.000Z</time>
      </trkpt>
      <trkpt lat="45.16594" lon="5.58278">
        <ele>1644</ele>
        <time>2020-02-23T12:49:44.000Z</time>
      </trkpt>
      <trkpt lat="45.16601" lon="5.58282">
        <ele>1650</ele>
        <time>2020-02-23T12:49:33.000Z</time>
      </trkpt>
      <trkpt lat="45.16617" lon="5.58286">
        <ele>1642</ele>
        <time>2020-02-23T12:49:43.000Z</time>
      </trkpt>
      <trkpt lat="45.16631" lon="5.58294">
        <ele>1645</ele>
        <time>2020-02-23T12:49:46.000Z</time>
      </trkpt>
      <trkpt lat="45.16637" lon="5.58295">
        <ele>1641.3</ele>
        <time>2020-02-23T12:49:56.000Z</time>
      </trkpt>
      <trkpt lat="45.1664" lon="5.58294">
        <ele>1641.3</ele>
        <time>2020-02-23T12:50:06.000Z</time>
      </trkpt>
      <trkpt lat="45.16643" lon="5.58294">
        <ele>1641.3</ele>
        <time>2020-02-23T12:50:16.000Z</time>
      </trkpt>
      <trkpt lat="45.16645" lon="5.58296">
        <ele>1641.2</ele>
        <time>2020-02-23T12:50:26.000Z</time>
      </trkpt>
      <trkpt lat="45.16647" lon="5.58295">
        <ele>1641.3</ele>
        <time>2020-02-23T12:50:36.000Z</time>
      </trkpt>
      <trkpt lat="45.16648" lon="5.58293">
        <ele>1641.3</ele>
        <time>2020-02-23T12:50:46.000Z</time>
      </trkpt>
      <trkpt lat="45.16653" lon="5.58293">
        <ele>1645</ele>
        <time>2020-02-23T12:50:58.000Z</time>
      </trkpt>
      <trkpt lat="45.1666" lon="5.58295">
        <ele>1641.3</ele>
        <time>2020-02-23T12:51:08.000Z</time>
      </trkpt>
      <trkpt lat="45.1667" lon="5.583">
        <ele>1640.1</ele>
        <time>2020-02-23T12:51:18.000Z</time>
      </trkpt>
      <trkpt lat="45.16681" lon="5.58302">
        <ele>1645</ele>
        <time>2020-02-23T12:51:09.000Z</time>
      </trkpt>
      <trkpt lat="45.16687" lon="5.58303">
        <ele>1640</ele>
        <time>2020-02-23T12:51:19.000Z</time>
      </trkpt>
      <trkpt lat="45.16695" lon="5.58305">
        <ele>1639.9</ele>
        <time>2020-02-23T12:51:29.000Z</time>
      </trkpt>
      <trkpt lat="45.16705" lon="5.58306">
        <ele>1640</ele>
        <time>2020-02-23T12:51:18.000Z</time>
      </trkpt>
      <trkpt lat="45.16722" lon="5.58311">
        <ele>1639.8</ele>
        <time>2020-02-23T12:51:28.000Z</time>
      </trkpt>
      <trkpt lat="45.16754" lon="5.58312">
        <ele>1636</ele>
        <time>2020-02-23T12:51:39.000Z</time>
      </trkpt>
      <trkpt lat="45.16771" lon="5.58322">
        <ele>1640</ele>
        <time>2020-02-23T12:51:49.000Z</time>
      </trkpt>
      <trkpt lat="45.1679" lon="5.58328">
        <ele>1635</ele>
        <time>2020-02-23T12:51:58.000Z</time>
      </trkpt>
      <trkpt lat="45.168" lon="5.58334">
        <ele>1636.9</ele>
        <time>2020-02-23T12:52:08.000Z</time>
      </trkpt>
      <trkpt lat="45.16809" lon="5.58335">
        <ele>1636</ele>
        <time>2020-02-23T12:52:06.000Z</time>
      </trkpt>
      <trkpt lat="45.16815" lon="5.58333">
        <ele>1643.6</ele>
        <time>2020-02-23T12:52:16.000Z</time>
      </trkpt>
      <trkpt lat="45.16826" lon="5.58332">
        <ele>1646.2</ele>
        <time>2020-02-23T12:52:26.000Z</time>
      </trkpt>
      <trkpt lat="45.16831" lon="5.58333">
        <ele>1638</ele>
        <time>2020-02-23T12:52:17.000Z</time>
      </trkpt>
      <trkpt lat="45.16843" lon="5.58339">
        <ele>1646.7</ele>
        <time>2020-02-23T12:52:27.000Z</time>
      </trkpt>
      <trkpt lat="45.16862" lon="5.58342">
        <ele>1637</ele>
        <time>2020-02-23T12:52:32.000Z</time>
      </trkpt>
      <trkpt lat="45.16865" lon="5.58344">
        <ele>1645.5</ele>
        <time>2020-02-23T12:52:42.000Z</time>
      </trkpt>
      <trkpt lat="45.16876" lon="5.5835">
        <ele>1645.5</ele>
        <time>2020-02-23T12:52:52.000Z</time>
      </trkpt>
      <trkpt lat="45.1689" lon="5.58351">
        <ele>1636</ele>
        <time>2020-02-23T12:52:46.000Z</time>
      </trkpt>
      <trkpt lat="45.16903" lon="5.58359">
        <ele>1646.9</ele>
        <time>2020-02-23T12:52:56.000Z</time>
      </trkpt>
      <trkpt lat="45.16909" lon="5.5836">
        <ele>1636</ele>
        <time>2020-02-23T12:52:56.000Z</time>
      </trkpt>
      <trkpt lat="45.16915" lon="5.58362">
        <ele>1647.1</ele>
        <time>2020-02-23T12:53:06.000Z</time>
      </trkpt>
      <trkpt lat="45.16919" lon="5.58362">
        <ele>1649.7</ele>
        <time>2020-02-23T12:53:16.000Z</time>
      </trkpt>
      <trkpt lat="45.16922" lon="5.5836">
        <ele>1649.9</ele>
        <time>2020-02-23T12:53:26.000Z</time>
      </trkpt>
      <trkpt lat="45.16925" lon="5.58361">
        <ele>1649.7</ele>
        <time>2020-02-23T12:53:36.000Z</time>
      </trkpt>
      <trkpt lat="45.16934" lon="5.58366">
        <ele>1649</ele>
        <time>2020-02-23T12:53:20.000Z</time>
      </trkpt>
      <trkpt lat="45.16948" lon="5.58369">
        <ele>1648.3</ele>
        <time>2020-02-23T12:53:30.000Z</time>
      </trkpt>
      <trkpt lat="45.1697" lon="5.58377">
        <ele>1649</ele>
        <time>2020-02-23T12:53:37.000Z</time>
      </trkpt>
      <trkpt lat="45.16972" lon="5.58378">
        <ele>1647.4</ele>
        <time>2020-02-23T12:53:47.000Z</time>
      </trkpt>
      <trkpt lat="45.16975" lon="5.58376">
        <ele>1647.4</ele>
        <time>2020-02-23T12:53:57.000Z</time>
      </trkpt>
      <trkpt lat="45.16982" lon="5.58372">
        <ele>1647.6</ele>
        <time>2020-02-23T12:54:07.000Z</time>
      </trkpt>
      <trkpt lat="45.16985" lon="5.58369">
        <ele>1647.8</ele>
        <time>2020-02-23T12:54:17.000Z</time>
      </trkpt>
      <trkpt lat="45.16993" lon="5.58357">
        <ele>1640</ele>
        <time>2020-02-23T12:53:58.000Z</time>
      </trkpt>
      <trkpt lat="45.16996" lon="5.58356">
        <ele>1648.8</ele>
        <time>2020-02-23T12:54:08.000Z</time>
      </trkpt>
      <trkpt lat="45.16998" lon="5.58356">
        <ele>1648.8</ele>
        <time>2020-02-23T12:54:18.000Z</time>
      </trkpt>
      <trkpt lat="45.17001" lon="5.58354">
        <ele>1643.4</ele>
        <time>2020-02-23T12:54:28.000Z</time>
      </trkpt>
      <trkpt lat="45.17006" lon="5.58351">
        <ele>1643.7</ele>
        <time>2020-02-23T12:54:38.000Z</time>
      </trkpt>
      <trkpt lat="45.1701" lon="5.5835">
        <ele>1643.4</ele>
        <time>2020-02-23T12:54:48.000Z</time>
      </trkpt>
      <trkpt lat="45.17017" lon="5.58351">
        <ele>1640</ele>
        <time>2020-02-23T12:54:16.000Z</time>
      </trkpt>
      <trkpt lat="45.17023" lon="5.58349">
        <ele>1641.3</ele>
        <time>2020-02-23T12:54:26.000Z</time>
      </trkpt>
      <trkpt lat="45.17026" lon="5.58349">
        <ele>1640.8</ele>
        <time>2020-02-23T12:54:36.000Z</time>
      </trkpt>
      <trkpt lat="45.1703" lon="5.58348">
        <ele>1640.2</ele>
        <time>2020-02-23T12:54:46.000Z</time>
      </trkpt>
      <trkpt lat="45.17037" lon="5.58348">
        <ele>1640</ele>
        <time>2020-02-23T12:54:32.000Z</time>
      </trkpt>
      <trkpt lat="45.1704" lon="5.58347">
        <ele>1638.7</ele>
        <time>2020-02-23T12:54:42.000Z</time>
      </trkpt>
      <trkpt lat="45.17055" lon="5.58349">
        <ele>1636.7</ele>
        <time>2020-02-23T12:54:52.000Z</time>
      </trkpt>
      <trkpt lat="45.17069" lon="5.58357">
        <ele>1630</ele>
        <time>2020-02-23T12:54:49.000Z</time>
      </trkpt>
      <trkpt lat="45.17076" lon="5.58357">
        <ele>1634.9</ele>
        <time>2020-02-23T12:54:59.000Z</time>
      </trkpt>
      <trkpt lat="45.17097" lon="5.58362">
        <ele>1625</ele>
        <time>2020-02-23T12:55:02.000Z</time>
      </trkpt>
      <trkpt lat="45.17104" lon="5.58366">
        <ele>1626.8</ele>
        <time>2020-02-23T12:55:12.000Z</time>
      </trkpt>
      <trkpt lat="45.17109" lon="5.58366">
        <ele>1626.7</ele>
        <time>2020-02-23T12:55:22.000Z</time>
      </trkpt>
      <trkpt lat="45.17112" lon="5.58366">
        <ele>1626.6</ele>
        <time>2020-02-23T12:55:32.000Z</time>
      </trkpt>
      <trkpt lat="45.17133" lon="5.58376">
        <ele>1620</ele>
        <time>2020-02-23T12:55:18.000Z</time>
      </trkpt>
      <trkpt lat="45.1714" lon="5.58378">
        <ele>1625.5</ele>
        <time>2020-02-23T12:55:28.000Z</time>
      </trkpt>
      <trkpt lat="45.17149" lon="5.58379">
        <ele>1625.5</ele>
        <time>2020-02-23T12:55:38.000Z</time>
      </trkpt>
      <trkpt lat="45.17153" lon="5.58381">
        <ele>1618</ele>
        <time>2020-02-23T12:55:27.000Z</time>
      </trkpt>
      <trkpt lat="45.17157" lon="5.58385">
        <ele>1625.3</ele>
        <time>2020-02-23T12:55:37.000Z</time>
      </trkpt>
      <trkpt lat="45.17161" lon="5.58388">
        <ele>1625.3</ele>
        <time>2020-02-23T12:55:47.000Z</time>
      </trkpt>
      <trkpt lat="45.17162" lon="5.58391">
        <ele>1625.2</ele>
        <time>2020-02-23T12:55:57.000Z</time>
      </trkpt>
      <trkpt lat="45.17164" lon="5.58394">
        <ele>1625.2</ele>
        <time>2020-02-23T12:56:07.000Z</time>
      </trkpt>
      <trkpt lat="45.17169" lon="5.58395">
        <ele>1619</ele>
        <time>2020-02-23T12:55:43.000Z</time>
      </trkpt>
      <trkpt lat="45.17193" lon="5.58393">
        <ele>1620</ele>
        <time>2020-02-23T12:56:04.000Z</time>
      </trkpt>
      <trkpt lat="45.17195" lon="5.58391">
        <ele>1632.2</ele>
        <time>2020-02-23T12:56:14.000Z</time>
      </trkpt>
      <trkpt lat="45.17207" lon="5.58384">
        <ele>1633.6</ele>
        <time>2020-02-23T12:56:24.000Z</time>
      </trkpt>
      <trkpt lat="45.1722" lon="5.58382">
        <ele>1624</ele>
        <time>2020-02-23T12:56:26.000Z</time>
      </trkpt>
      <trkpt lat="45.17227" lon="5.58382">
        <ele>1635.7</ele>
        <time>2020-02-23T12:56:36.000Z</time>
      </trkpt>
      <trkpt lat="45.17235" lon="5.58387">
        <ele>1636.6</ele>
        <time>2020-02-23T12:56:46.000Z</time>
      </trkpt>
      <trkpt lat="45.17244" lon="5.58389">
        <ele>1638</ele>
        <time>2020-02-23T12:56:49.000Z</time>
      </trkpt>
      <trkpt lat="45.17256" lon="5.58394">
        <ele>1647.8</ele>
        <time>2020-02-23T12:56:59.000Z</time>
      </trkpt>
      <trkpt lat="45.17261" lon="5.58396">
        <ele>1648</ele>
        <time>2020-02-23T12:57:09.000Z</time>
      </trkpt>
      <trkpt lat="45.17264" lon="5.58395">
        <ele>1638</ele>
        <time>2020-02-23T12:57:02.000Z</time>
      </trkpt>
      <trkpt lat="45.17267" lon="5.58396">
        <ele>1648.7</ele>
        <time>2020-02-23T12:57:12.000Z</time>
      </trkpt>
      <trkpt lat="45.17278" lon="5.58394">
        <ele>1650.1</ele>
        <time>2020-02-23T12:57:22.000Z</time>
      </trkpt>
      <trkpt lat="45.17282" lon="5.58396">
        <ele>1650.6</ele>
        <time>2020-02-23T12:57:32.000Z</time>
      </trkpt>
      <trkpt lat="45.17283" lon="5.58394">
        <ele>1644</ele>
        <time>2020-02-23T12:57:18.000Z</time>
      </trkpt>
      <trkpt lat="45.17285" lon="5.58396">
        <ele>1651</ele>
        <time>2020-02-23T12:57:28.000Z</time>
      </trkpt>
      <trkpt lat="45.17292" lon="5.58403">
        <ele>1652</ele>
        <time>2020-02-23T12:57:38.000Z</time>
      </trkpt>
      <trkpt lat="45.17301" lon="5.58413">
        <ele>1653</ele>
        <time>2020-02-23T12:57:36.000Z</time>
      </trkpt>
      <trkpt lat="45.17306" lon="5.58422">
        <ele>1649.1</ele>
        <time>2020-02-23T12:57:46.000Z</time>
      </trkpt>
      <trkpt lat="45.1731" lon="5.58424">
        <ele>1650</ele>
        <time>2020-02-23T12:57:56.000Z</time>
      </trkpt>
      <trkpt lat="45.17312" lon="5.58427">
        <ele>1650.2</ele>
        <time>2020-02-23T12:58:06.000Z</time>
      </trkpt>
      <trkpt lat="45.17317" lon="5.58435">
        <ele>1653</ele>
        <time>2020-02-23T12:57:54.000Z</time>
      </trkpt>
      <trkpt lat="45.1732" lon="5.58438">
        <ele>1649.7</ele>
        <time>2020-02-23T12:58:04.000Z</time>
      </trkpt>
      <trkpt lat="45.17325" lon="5.58446">
        <ele>1648.4</ele>
        <time>2020-02-23T12:58:14.000Z</time>
      </trkpt>
      <trkpt lat="45.17327" lon="5.58448">
        <ele>1648.1</ele>
        <time>2020-02-23T12:58:24.000Z</time>
      </trkpt>
      <trkpt lat="45.17329" lon="5.58449">
        <ele>1648.1</ele>
        <time>2020-02-23T12:58:34.000Z</time>
      </trkpt>
      <trkpt lat="45.17334" lon="5.58452">
        <ele>1657</ele>
        <time>2020-02-23T12:58:14.000Z</time>
      </trkpt>
      <trkpt lat="45.1734" lon="5.58459">
        <ele>1660.9</ele>
        <time>2020-02-23T12:58:24.000Z</time>
      </trkpt>
      <trkpt lat="45.17344" lon="5.58461">
        <ele>1660.9</ele>
        <time>2020-02-23T12:58:34.000Z</time>
      </trkpt>
      <trkpt lat="45.17346" lon="5.58463">
        <ele>1660.8</ele>
        <time>2020-02-23T12:58:44.000Z</time>
      </trkpt>
      <trkpt lat="45.17348" lon="5.58468">
        <ele>1660.2</ele>
        <time>2020-02-23T12:58:54.000Z</time>
      </trkpt>
      <trkpt lat="45.17352" lon="5.58468">
        <ele>1664</ele>
        <time>2020-02-23T12:58:37.000Z</time>
      </trkpt>
      <trkpt lat="45.1736" lon="5.58467">
        <ele>1662.2</ele>
        <time>2020-02-23T12:58:47.000Z</time>
      </trkpt>
      <trkpt lat="45.17368" lon="5.58471">
        <ele>1663.1</ele>
        <time>2020-02-23T12:58:57.000Z</time>
      </trkpt>
      <trkpt lat="45.17376" lon="5.58477">
        <ele>1664</ele>
        <time>2020-02-23T12:59:02.000Z</time>
      </trkpt>
      <trkpt lat="45.17398" lon="5.58502">
        <ele>1676</ele>
        <time>2020-02-23T12:59:23.000Z</time>
      </trkpt>
      <trkpt lat="45.17401" lon="5.58504">
        <ele>1662.1</ele>
        <time>2020-02-23T12:59:33.000Z</time>
      </trkpt>
      <trkpt lat="45.17411" lon="5.58507">
        <ele>1666.8</ele>
        <time>2020-02-23T12:59:43.000Z</time>
      </trkpt>
      <trkpt lat="45.17418" lon="5.58517">
        <ele>1674</ele>
        <time>2020-02-23T12:59:39.000Z</time>
      </trkpt>
      <trkpt lat="45.17424" lon="5.58525">
        <ele>1671.1</ele>
        <time>2020-02-23T12:59:49.000Z</time>
      </trkpt>
      <trkpt lat="45.17425" lon="5.58527">
        <ele>1670.8</ele>
        <time>2020-02-23T12:59:59.000Z</time>
      </trkpt>
      <trkpt lat="45.17427" lon="5.58529">
        <ele>1670.5</ele>
        <time>2020-02-23T13:00:09.000Z</time>
      </trkpt>
      <trkpt lat="45.1743" lon="5.58531">
        <ele>1670.3</ele>
        <time>2020-02-23T13:00:19.000Z</time>
      </trkpt>
      <trkpt lat="45.17435" lon="5.58531">
        <ele>1676</ele>
        <time>2020-02-23T12:59:55.000Z</time>
      </trkpt>
      <trkpt lat="45.17438" lon="5.58533">
        <ele>1670.3</ele>
        <time>2020-02-23T13:00:05.000Z</time>
      </trkpt>
      <trkpt lat="45.17446" lon="5.5854">
        <ele>1669.9</ele>
        <time>2020-02-23T13:00:15.000Z</time>
      </trkpt>
      <trkpt lat="45.17457" lon="5.58542">
        <ele>1678</ele>
        <time>2020-02-23T13:00:12.000Z</time>
      </trkpt>
      <trkpt lat="45.17459" lon="5.58543">
        <ele>1670.7</ele>
        <time>2020-02-23T13:00:22.000Z</time>
      </trkpt>
      <trkpt lat="45.17461" lon="5.58546">
        <ele>1670.5</ele>
        <time>2020-02-23T13:00:32.000Z</time>
      </trkpt>
      <trkpt lat="45.17463" lon="5.58546">
        <ele>1670.7</ele>
        <time>2020-02-23T13:00:42.000Z</time>
      </trkpt>
      <trkpt lat="45.17469" lon="5.58546">
        <ele>1671.2</ele>
        <time>2020-02-23T13:00:52.000Z</time>
      </trkpt>
      <trkpt lat="45.17478" lon="5.58543">
        <ele>1677</ele>
        <time>2020-02-23T13:00:25.000Z</time>
      </trkpt>
      <trkpt lat="45.17486" lon="5.58545">
        <ele>1672.5</ele>
        <time>2020-02-23T13:00:35.000Z</time>
      </trkpt>
      <trkpt lat="45.17495" lon="5.58544">
        <ele>1673</ele>
        <time>2020-02-23T13:00:45.000Z</time>
      </trkpt>
      <trkpt lat="45.17505" lon="5.58548">
        <ele>1683</ele>
        <time>2020-02-23T13:00:37.000Z</time>
      </trkpt>
      <trkpt lat="45.17509" lon="5.5855">
        <ele>1679.5</ele>
        <time>2020-02-23T13:00:47.000Z</time>
      </trkpt>
      <trkpt lat="45.17516" lon="5.5856">
        <ele>1678.7</ele>
        <time>2020-02-23T13:00:57.000Z</time>
      </trkpt>
      <trkpt lat="45.17524" lon="5.58568">
        <ele>1684</ele>
        <time>2020-02-23T13:00:48.000Z</time>
      </trkpt>
      <trkpt lat="45.17527" lon="5.58572">
        <ele>1678.9</ele>
        <time>2020-02-23T13:00:58.000Z</time>
      </trkpt>
      <trkpt lat="45.1753" lon="5.58576">
        <ele>1679.1</ele>
        <time>2020-02-23T13:01:08.000Z</time>
      </trkpt>
      <trkpt lat="45.17535" lon="5.58578">
        <ele>1679.8</ele>
        <time>2020-02-23T13:01:18.000Z</time>
      </trkpt>
      <trkpt lat="45.17538" lon="5.58578">
        <ele>1680.1</ele>
        <time>2020-02-23T13:01:28.000Z</time>
      </trkpt>
      <trkpt lat="45.17545" lon="5.58577">
        <ele>1685</ele>
        <time>2020-02-23T13:00:59.000Z</time>
      </trkpt>
      <trkpt lat="45.17549" lon="5.58579">
        <ele>1681.4</ele>
        <time>2020-02-23T13:01:09.000Z</time>
      </trkpt>
      <trkpt lat="45.17556" lon="5.58581">
        <ele>1682.2</ele>
        <time>2020-02-23T13:01:19.000Z</time>
      </trkpt>
      <trkpt lat="45.17568" lon="5.58586">
        <ele>1686</ele>
        <time>2020-02-23T13:01:09.000Z</time>
      </trkpt>
      <trkpt lat="45.1757" lon="5.58586">
        <ele>1677</ele>
        <time>2020-02-23T13:01:19.000Z</time>
      </trkpt>
      <trkpt lat="45.1759" lon="5.58592">
        <ele>1688</ele>
        <time>2020-02-23T13:01:18.000Z</time>
      </trkpt>
      <trkpt lat="45.17602" lon="5.58603">
        <ele>1677.6</ele>
        <time>2020-02-23T13:01:28.000Z</time>
      </trkpt>
      <trkpt lat="45.1761" lon="5.58612">
        <ele>1691</ele>
        <time>2020-02-23T13:01:28.000Z</time>
      </trkpt>
      <trkpt lat="45.17619" lon="5.58619">
        <ele>1674.7</ele>
        <time>2020-02-23T13:01:38.000Z</time>
      </trkpt>
      <trkpt lat="45.17623" lon="5.58621">
        <ele>1674.5</ele>
        <time>2020-02-23T13:01:48.000Z</time>
      </trkpt>
      <trkpt lat="45.17629" lon="5.58621">
        <ele>1691</ele>
        <time>2020-02-23T13:01:39.000Z</time>
      </trkpt>
      <trkpt lat="45.17631" lon="5.58622">
        <ele>1674.5</ele>
        <time>2020-02-23T13:01:49.000Z</time>
      </trkpt>
      <trkpt lat="45.17638" lon="5.58627">
        <ele>1674</ele>
        <time>2020-02-23T13:01:59.000Z</time>
      </trkpt>
      <trkpt lat="45.17643" lon="5.5863">
        <ele>1673.7</ele>
        <time>2020-02-23T13:02:09.000Z</time>
      </trkpt>
      <trkpt lat="45.17648" lon="5.58632">
        <ele>1681</ele>
        <time>2020-02-23T13:01:47.000Z</time>
      </trkpt>
      <trkpt lat="45.17657" lon="5.58636">
        <ele>1673</ele>
        <time>2020-02-23T13:01:57.000Z</time>
      </trkpt>
      <trkpt lat="45.17668" lon="5.58639">
        <ele>1672</ele>
        <time>2020-02-23T13:01:56.000Z</time>
      </trkpt>
      <trkpt lat="45.17676" lon="5.5864">
        <ele>1670.6</ele>
        <time>2020-02-23T13:02:06.000Z</time>
      </trkpt>
      <trkpt lat="45.1768" lon="5.58642">
        <ele>1670.4</ele>
        <time>2020-02-23T13:02:16.000Z</time>
      </trkpt>
      <trkpt lat="45.17685" lon="5.58643">
        <ele>1670.2</ele>
        <time>2020-02-23T13:02:26.000Z</time>
      </trkpt>
      <trkpt lat="45.17692" lon="5.58642">
        <ele>1669</ele>
        <time>2020-02-23T13:02:06.000Z</time>
      </trkpt>
      <trkpt lat="45.17697" lon="5.58644">
        <ele>1669.7</ele>
        <time>2020-02-23T13:02:16.000Z</time>
      </trkpt>
      <trkpt lat="45.17702" lon="5.58645">
        <ele>1669.4</ele>
        <time>2020-02-23T13:02:26.000Z</time>
      </trkpt>
      <trkpt lat="45.17707" lon="5.58643">
        <ele>1669.2</ele>
        <time>2020-02-23T13:02:36.000Z</time>
      </trkpt>
      <trkpt lat="45.17711" lon="5.58639">
        <ele>1667</ele>
        <time>2020-02-23T13:02:14.000Z</time>
      </trkpt>
      <trkpt lat="45.17713" lon="5.58638">
        <ele>1669.3</ele>
        <time>2020-02-23T13:02:24.000Z</time>
      </trkpt>
      <trkpt lat="45.17725" lon="5.58638">
        <ele>1668.3</ele>
        <time>2020-02-23T13:02:34.000Z</time>
      </trkpt>
      <trkpt lat="45.1774" lon="5.58632">
        <ele>1663</ele>
        <time>2020-02-23T13:02:26.000Z</time>
      </trkpt>
      <trkpt lat="45.17746" lon="5.58631">
        <ele>1668.1</ele>
        <time>2020-02-23T13:02:36.000Z</time>
      </trkpt>
      <trkpt lat="45.17754" lon="5.58631">
        <ele>1662.1</ele>
        <time>2020-02-23T13:02:46.000Z</time>
      </trkpt>
      <trkpt lat="45.17759" lon="5.58632">
        <ele>1663</ele>
        <time>2020-02-23T13:02:32.000Z</time>
      </trkpt>
      <trkpt lat="45.17767" lon="5.58636">
        <ele>1661.2</ele>
        <time>2020-02-23T13:02:42.000Z</time>
      </trkpt>
      <trkpt lat="45.17772" lon="5.58637">
        <ele>1660.9</ele>
        <time>2020-02-23T13:02:52.000Z</time>
      </trkpt>
      <trkpt lat="45.17777" lon="5.58634">
        <ele>1661</ele>
        <time>2020-02-23T13:03:02.000Z</time>
      </trkpt>
      <trkpt lat="45.17788" lon="5.58624">
        <ele>1661</ele>
        <time>2020-02-23T13:02:44.000Z</time>
      </trkpt>
      <trkpt lat="45.17793" lon="5.5862">
        <ele>1661.8</ele>
        <time>2020-02-23T13:02:54.000Z</time>
      </trkpt>
      <trkpt lat="45.1781" lon="5.58611">
        <ele>1660</ele>
        <time>2020-02-23T13:02:54.000Z</time>
      </trkpt>
      <trkpt lat="45.17815" lon="5.58609">
        <ele>1662.7</ele>
        <time>2020-02-23T13:03:04.000Z</time>
      </trkpt>
      <trkpt lat="45.17821" lon="5.58608">
        <ele>1662.9</ele>
        <time>2020-02-23T13:03:14.000Z</time>
      </trkpt>
      <trkpt lat="45.17828" lon="5.58606">
        <ele>1663.4</ele>
        <time>2020-02-23T13:03:24.000Z</time>
      </trkpt>
      <trkpt lat="45.17834" lon="5.58602">
        <ele>1658</ele>
        <time>2020-02-23T13:03:03.000Z</time>
      </trkpt>
      <trkpt lat="45.1784" lon="5.586">
        <ele>1659.3</ele>
        <time>2020-02-23T13:03:13.000Z</time>
      </trkpt>
      <trkpt lat="45.17845" lon="5.58597">
        <ele>1659.4</ele>
        <time>2020-02-23T13:03:23.000Z</time>
      </trkpt>
      <trkpt lat="45.17849" lon="5.58593">
        <ele>1659.4</ele>
        <time>2020-02-23T13:03:33.000Z</time>
      </trkpt>
      <trkpt lat="45.17853" lon="5.58585">
        <ele>1656</ele>
        <time>2020-02-23T13:03:13.000Z</time>
      </trkpt>
      <trkpt lat="45.17857" lon="5.5858">
        <ele>1665.8</ele>
        <time>2020-02-23T13:03:23.000Z</time>
      </trkpt>
      <trkpt lat="45.17864" lon="5.58576">
        <ele>1665.1</ele>
        <time>2020-02-23T13:03:33.000Z</time>
      </trkpt>
      <trkpt lat="45.17869" lon="5.58574">
        <ele>1664.7</ele>
        <time>2020-02-23T13:03:43.000Z</time>
      </trkpt>
      <trkpt lat="45.17871" lon="5.58572">
        <ele>1656</ele>
        <time>2020-02-23T13:03:21.000Z</time>
      </trkpt>
      <trkpt lat="45.1788" lon="5.58566">
        <ele>1663.8</ele>
        <time>2020-02-23T13:03:31.000Z</time>
      </trkpt>
      <trkpt lat="45.17883" lon="5.58566">
        <ele>1663.6</ele>
        <time>2020-02-23T13:03:41.000Z</time>
      </trkpt>
      <trkpt lat="45.17888" lon="5.58566">
        <ele>1663.2</ele>
        <time>2020-02-23T13:03:51.000Z</time>
      </trkpt>
      <trkpt lat="45.17894" lon="5.58566">
        <ele>1663</ele>
        <time>2020-02-23T13:03:28.000Z</time>
      </trkpt>
      <trkpt lat="45.17907" lon="5.58569">
        <ele>1661.6</ele>
        <time>2020-02-23T13:03:38.000Z</time>
      </trkpt>
      <trkpt lat="45.17917" lon="5.58569">
        <ele>1661</ele>
        <time>2020-02-23T13:03:38.000Z</time>
      </trkpt>
      <trkpt lat="45.17927" lon="5.58572">
        <ele>1658.3</ele>
        <time>2020-02-23T13:03:48.000Z</time>
      </trkpt>
      <trkpt lat="45.17934" lon="5.58575">
        <ele>1658.2</ele>
        <time>2020-02-23T13:03:58.000Z</time>
      </trkpt>
      <trkpt lat="45.1794" lon="5.58574">
        <ele>1662</ele>
        <time>2020-02-23T13:03:47.000Z</time>
      </trkpt>
      <trkpt lat="45.17954" lon="5.58578">
        <ele>1657.6</ele>
        <time>2020-02-23T13:03:57.000Z</time>
      </trkpt>
      <trkpt lat="45.17963" lon="5.58576">
        <ele>1664</ele>
        <time>2020-02-23T13:03:57.000Z</time>
      </trkpt>
      <trkpt lat="45.17971" lon="5.58576">
        <ele>1657.2</ele>
        <time>2020-02-23T13:04:07.000Z</time>
      </trkpt>
      <trkpt lat="45.17978" lon="5.58576">
        <ele>1657.1</ele>
        <time>2020-02-23T13:04:17.000Z</time>
      </trkpt>
      <trkpt lat="45.1799" lon="5.58584">
        <ele>1664</ele>
        <time>2020-02-23T13:04:13.000Z</time>
      </trkpt>
      <trkpt lat="45.17992" lon="5.58586">
        <ele>1654.7</ele>
        <time>2020-02-23T13:04:23.000Z</time>
      </trkpt>
      <trkpt lat="45.18" lon="5.58592">
        <ele>1654.6</ele>
        <time>2020-02-23T13:04:33.000Z</time>
      </trkpt>
      <trkpt lat="45.18004" lon="5.58597">
        <ele>1657.5</ele>
        <time>2020-02-23T13:04:43.000Z</time>
      </trkpt>
      <trkpt lat="45.18009" lon="5.58599">
        <ele>1665</ele>
        <time>2020-02-23T13:04:26.000Z</time>
      </trkpt>
      <trkpt lat="45.18016" lon="5.58608">
        <ele>1657.9</ele>
        <time>2020-02-23T13:04:36.000Z</time>
      </trkpt>
      <trkpt lat="45.18022" lon="5.58611">
        <ele>1658.1</ele>
        <time>2020-02-23T13:04:46.000Z</time>
      </trkpt>
      <trkpt lat="45.18029" lon="5.58615">
        <ele>1666</ele>
        <time>2020-02-23T13:04:42.000Z</time>
      </trkpt>
      <trkpt lat="45.18033" lon="5.58616">
        <ele>1658.6</ele>
        <time>2020-02-23T13:04:52.000Z</time>
      </trkpt>
      <trkpt lat="45.18039" lon="5.58619">
        <ele>1658.9</ele>
        <time>2020-02-23T13:05:02.000Z</time>
      </trkpt>
      <trkpt lat="45.18044" lon="5.58625">
        <ele>1659.2</ele>
        <time>2020-02-23T13:05:12.000Z</time>
      </trkpt>
      <trkpt lat="45.18047" lon="5.58626">
        <ele>1666</ele>
        <time>2020-02-23T13:04:55.000Z</time>
      </trkpt>
      <trkpt lat="45.18052" lon="5.58633">
        <ele>1659.7</ele>
        <time>2020-02-23T13:05:05.000Z</time>
      </trkpt>
      <trkpt lat="45.18061" lon="5.58639">
        <ele>1660.5</ele>
        <time>2020-02-23T13:05:15.000Z</time>
      </trkpt>
      <trkpt lat="45.18069" lon="5.58643">
        <ele>1669</ele>
        <time>2020-02-23T13:05:12.000Z</time>
      </trkpt>
      <trkpt lat="45.18079" lon="5.58647">
        <ele>1662.3</ele>
        <time>2020-02-23T13:05:22.000Z</time>
      </trkpt>
      <trkpt lat="45.18088" lon="5.58657">
        <ele>1671</ele>
        <time>2020-02-23T13:05:23.000Z</time>
      </trkpt>
      <trkpt lat="45.18092" lon="5.58658">
        <ele>1665</ele>
        <time>2020-02-23T13:05:33.000Z</time>
      </trkpt>
      <trkpt lat="45.18097" lon="5.58658">
        <ele>1664.7</ele>
        <time>2020-02-23T13:05:43.000Z</time>
      </trkpt>
      <trkpt lat="45.18102" lon="5.5866">
        <ele>1664.5</ele>
        <time>2020-02-23T13:05:53.000Z</time>
      </trkpt>
      <trkpt lat="45.18106" lon="5.58664">
        <ele>1672</ele>
        <time>2020-02-23T13:05:30.000Z</time>
      </trkpt>
      <trkpt lat="45.1811" lon="5.58672">
        <ele>1658.1</ele>
        <time>2020-02-23T13:05:40.000Z</time>
      </trkpt>
      <trkpt lat="45.18118" lon="5.5868">
        <ele>1656.8</ele>
        <time>2020-02-23T13:05:50.000Z</time>
      </trkpt>
      <trkpt lat="45.18122" lon="5.58683">
        <ele>1672</ele>
        <time>2020-02-23T13:05:39.000Z</time>
      </trkpt>
      <trkpt lat="45.18127" lon="5.58683">
        <ele>1656.4</ele>
        <time>2020-02-23T13:05:49.000Z</time>
      </trkpt>
      <trkpt lat="45.18131" lon="5.58685">
        <ele>1656.3</ele>
        <time>2020-02-23T13:05:59.000Z</time>
      </trkpt>
      <trkpt lat="45.18137" lon="5.5869">
        <ele>1656</ele>
        <time>2020-02-23T13:06:09.000Z</time>
      </trkpt>
      <trkpt lat="45.18152" lon="5.587">
        <ele>1671</ele>
        <time>2020-02-23T13:05:53.000Z</time>
      </trkpt>
      <trkpt lat="45.1816" lon="5.58706">
        <ele>1655</ele>
        <time>2020-02-23T13:06:03.000Z</time>
      </trkpt>
      <trkpt lat="45.18181" lon="5.58721">
        <ele>1671</ele>
        <time>2020-02-23T13:06:08.000Z</time>
      </trkpt>
      <trkpt lat="45.18198" lon="5.58735">
        <ele>1669</ele>
        <time>2020-02-23T13:06:17.000Z</time>
      </trkpt>
      <trkpt lat="45.18203" lon="5.58738">
        <ele>1659.9</ele>
        <time>2020-02-23T13:06:27.000Z</time>
      </trkpt>
      <trkpt lat="45.18207" lon="5.58739">
        <ele>1660.4</ele>
        <time>2020-02-23T13:06:37.000Z</time>
      </trkpt>
      <trkpt lat="45.18213" lon="5.58742">
        <ele>1661.1</ele>
        <time>2020-02-23T13:06:47.000Z</time>
      </trkpt>
      <trkpt lat="45.18219" lon="5.58745">
        <ele>1668</ele>
        <time>2020-02-23T13:06:29.000Z</time>
      </trkpt>
      <trkpt lat="45.18232" lon="5.58751">
        <ele>1657.3</ele>
        <time>2020-02-23T13:06:39.000Z</time>
      </trkpt>
      <trkpt lat="45.1824" lon="5.58758">
        <ele>1668</ele>
        <time>2020-02-23T13:06:43.000Z</time>
      </trkpt>
      <trkpt lat="45.1825" lon="5.58764">
        <ele>1658.9</ele>
        <time>2020-02-23T13:06:53.000Z</time>
      </trkpt>
      <trkpt lat="45.18258" lon="5.58777">
        <ele>1671</ele>
        <time>2020-02-23T13:06:59.000Z</time>
      </trkpt>
      <trkpt lat="45.18262" lon="5.5878">
        <ele>1665.9</ele>
        <time>2020-02-23T13:07:09.000Z</time>
      </trkpt>
      <trkpt lat="45.18268" lon="5.58786">
        <ele>1665.5</ele>
        <time>2020-02-23T13:07:19.000Z</time>
      </trkpt>
      <trkpt lat="45.18274" lon="5.5879">
        <ele>1665.6</ele>
        <time>2020-02-23T13:07:29.000Z</time>
      </trkpt>
      <trkpt lat="45.18279" lon="5.58791">
        <ele>1675</ele>
        <time>2020-02-23T13:07:18.000Z</time>
      </trkpt>
      <trkpt lat="45.18285" lon="5.58795">
        <ele>1666.4</ele>
        <time>2020-02-23T13:07:28.000Z</time>
      </trkpt>
      <trkpt lat="45.18293" lon="5.58799">
        <ele>1667.1</ele>
        <time>2020-02-23T13:07:38.000Z</time>
      </trkpt>
      <trkpt lat="45.18301" lon="5.58802">
        <ele>1678</ele>
        <time>2020-02-23T13:07:36.000Z</time>
      </trkpt>
      <trkpt lat="45.18312" lon="5.58807">
        <ele>1669.5</ele>
        <time>2020-02-23T13:07:46.000Z</time>
      </trkpt>
      <trkpt lat="45.18326" lon="5.58809">
        <ele>1680</ele>
        <time>2020-02-23T13:07:57.000Z</time>
      </trkpt>
      <trkpt lat="45.18328" lon="5.58811">
        <ele>1671.3</ele>
        <time>2020-02-23T13:08:07.000Z</time>
      </trkpt>
      <trkpt lat="45.18333" lon="5.58819">
        <ele>1672.5</ele>
        <time>2020-02-23T13:08:17.000Z</time>
      </trkpt>
      <trkpt lat="45.18335" lon="5.58821">
        <ele>1678.3</ele>
        <time>2020-02-23T13:08:27.000Z</time>
      </trkpt>
      <trkpt lat="45.18337" lon="5.58823">
        <ele>1678.1</ele>
        <time>2020-02-23T13:08:37.000Z</time>
      </trkpt>
      <trkpt lat="45.18346" lon="5.58833">
        <ele>1681</ele>
        <time>2020-02-23T13:08:16.000Z</time>
      </trkpt>
      <trkpt lat="45.18354" lon="5.58839">
        <ele>1676.4</ele>
        <time>2020-02-23T13:08:26.000Z</time>
      </trkpt>
      <trkpt lat="45.18356" lon="5.58842">
        <ele>1676.4</ele>
        <time>2020-02-23T13:08:36.000Z</time>
      </trkpt>
      <trkpt lat="45.18365" lon="5.58852">
        <ele>1685</ele>
        <time>2020-02-23T13:08:32.000Z</time>
      </trkpt>
      <trkpt lat="45.18378" lon="5.58873">
        <ele>1685</ele>
        <time>2020-02-23T13:08:46.000Z</time>
      </trkpt>
      <trkpt lat="45.1838" lon="5.58876">
        <ele>1676.9</ele>
        <time>2020-02-23T13:08:56.000Z</time>
      </trkpt>
      <trkpt lat="45.18382" lon="5.58878">
        <ele>1677</ele>
        <time>2020-02-23T13:09:06.000Z</time>
      </trkpt>
      <trkpt lat="45.18388" lon="5.58884">
        <ele>1677.6</ele>
        <time>2020-02-23T13:09:16.000Z</time>
      </trkpt>
      <trkpt lat="45.18396" lon="5.58897">
        <ele>1688</ele>
        <time>2020-02-23T13:09:03.000Z</time>
      </trkpt>
      <trkpt lat="45.18407" lon="5.58911">
        <ele>1682.1</ele>
        <time>2020-02-23T13:09:13.000Z</time>
      </trkpt>
      <trkpt lat="45.18413" lon="5.5892">
        <ele>1692</ele>
        <time>2020-02-23T13:09:19.000Z</time>
      </trkpt>
      <trkpt lat="45.18417" lon="5.58924">
        <ele>1686.5</ele>
        <time>2020-02-23T13:09:29.000Z</time>
      </trkpt>
      <trkpt lat="45.18421" lon="5.58926">
        <ele>1686.7</ele>
        <time>2020-02-23T13:09:39.000Z</time>
      </trkpt>
      <trkpt lat="45.18426" lon="5.5893">
        <ele>1687</ele>
        <time>2020-02-23T13:09:49.000Z</time>
      </trkpt>
      <trkpt lat="45.18435" lon="5.5894">
        <ele>1692</ele>
        <time>2020-02-23T13:09:39.000Z</time>
      </trkpt>
      <trkpt lat="45.18443" lon="5.58951">
        <ele>1687.7</ele>
        <time>2020-02-23T13:09:49.000Z</time>
      </trkpt>
      <trkpt lat="45.18447" lon="5.58954">
        <ele>1688</ele>
        <time>2020-02-23T13:09:59.000Z</time>
      </trkpt>
      <trkpt lat="45.18456" lon="5.58962">
        <ele>1697</ele>
        <time>2020-02-23T13:09:58.000Z</time>
      </trkpt>
      <trkpt lat="45.1846" lon="5.58966">
        <ele>1689.2</ele>
        <time>2020-02-23T13:10:08.000Z</time>
      </trkpt>
      <trkpt lat="45.18465" lon="5.5897">
        <ele>1689.9</ele>
        <time>2020-02-23T13:10:18.000Z</time>
      </trkpt>
      <trkpt lat="45.18477" lon="5.58992">
        <ele>1698</ele>
        <time>2020-02-23T13:10:20.000Z</time>
      </trkpt>
      <trkpt lat="45.18478" lon="5.58995">
        <ele>1693.3</ele>
        <time>2020-02-23T13:10:30.000Z</time>
      </trkpt>
      <trkpt lat="45.18484" lon="5.59002">
        <ele>1689.4</ele>
        <time>2020-02-23T13:10:40.000Z</time>
      </trkpt>
      <trkpt lat="45.18485" lon="5.59006">
        <ele>1689.3</ele>
        <time>2020-02-23T13:10:50.000Z</time>
      </trkpt>
      <trkpt lat="45.18485" lon="5.59021">
        <ele>1697</ele>
        <time>2020-02-23T13:10:39.000Z</time>
      </trkpt>
      <trkpt lat="45.18486" lon="5.59024">
        <ele>1684.4</ele>
        <time>2020-02-23T13:10:49.000Z</time>
      </trkpt>
      <trkpt lat="45.18487" lon="5.59028">
        <ele>1683.6</ele>
        <time>2020-02-23T13:10:59.000Z</time>
      </trkpt>
      <trkpt lat="45.18496" lon="5.5904">
        <ele>1682.5</ele>
        <time>2020-02-23T13:11:09.000Z</time>
      </trkpt>
      <trkpt lat="45.18501" lon="5.59041">
        <ele>1697</ele>
        <time>2020-02-23T13:10:57.000Z</time>
      </trkpt>
      <trkpt lat="45.18503" lon="5.59043">
        <ele>1700.7</ele>
        <time>2020-02-23T13:11:07.000Z</time>
      </trkpt>
      <trkpt lat="45.18505" lon="5.59046">
        <ele>1700.5</ele>
        <time>2020-02-23T13:11:17.000Z</time>
      </trkpt>
      <trkpt lat="45.18507" lon="5.5905">
        <ele>1700.1</ele>
        <time>2020-02-23T13:11:27.000Z</time>
      </trkpt>
      <trkpt lat="45.18514" lon="5.59058">
        <ele>1699.6</ele>
        <time>2020-02-23T13:11:37.000Z</time>
      </trkpt>
      <trkpt lat="45.18524" lon="5.59067">
        <ele>1709</ele>
        <time>2020-02-23T13:11:16.000Z</time>
      </trkpt>
      <trkpt lat="45.18528" lon="5.59073">
        <ele>1700.4</ele>
        <time>2020-02-23T13:11:26.000Z</time>
      </trkpt>
      <trkpt lat="45.18536" lon="5.59089">
        <ele>1709</ele>
        <time>2020-02-23T13:11:30.000Z</time>
      </trkpt>
      <trkpt lat="45.18539" lon="5.59095">
        <ele>1694.2</ele>
        <time>2020-02-23T13:11:40.000Z</time>
      </trkpt>
      <trkpt lat="45.18545" lon="5.59099">
        <ele>1695.2</ele>
        <time>2020-02-23T13:11:50.000Z</time>
      </trkpt>
      <trkpt lat="45.18556" lon="5.59104">
        <ele>1717</ele>
        <time>2020-02-23T13:11:42.000Z</time>
      </trkpt>
      <trkpt lat="45.18562" lon="5.59112">
        <ele>1697.5</ele>
        <time>2020-02-23T13:11:52.000Z</time>
      </trkpt>
      <trkpt lat="45.18566" lon="5.59118">
        <ele>1697.2</ele>
        <time>2020-02-23T13:12:02.000Z</time>
      </trkpt>
      <trkpt lat="45.18568" lon="5.59122">
        <ele>1697</ele>
        <time>2020-02-23T13:12:12.000Z</time>
      </trkpt>
      <trkpt lat="45.18568" lon="5.59125">
        <ele>1717</ele>
        <time>2020-02-23T13:11:50.000Z</time>
      </trkpt>
      <trkpt lat="45.18568" lon="5.59132">
        <ele>1696</ele>
        <time>2020-02-23T13:12:00.000Z</time>
      </trkpt>
      <trkpt lat="45.1857" lon="5.59139">
        <ele>1696.1</ele>
        <time>2020-02-23T13:12:10.000Z</time>
      </trkpt>
      <trkpt lat="45.18575" lon="5.59148">
        <ele>1697.4</ele>
        <time>2020-02-23T13:12:20.000Z</time>
      </trkpt>
      <trkpt lat="45.18578" lon="5.59157">
        <ele>1717</ele>
        <time>2020-02-23T13:12:00.000Z</time>
      </trkpt>
      <trkpt lat="45.18581" lon="5.5916">
        <ele>1700.8</ele>
        <time>2020-02-23T13:12:10.000Z</time>
      </trkpt>
      <trkpt lat="45.18593" lon="5.59165">
        <ele>1706.7</ele>
        <time>2020-02-23T13:12:20.000Z</time>
      </trkpt>
      <trkpt lat="45.186" lon="5.59172">
        <ele>1717</ele>
        <time>2020-02-23T13:12:10.000Z</time>
      </trkpt>
      <trkpt lat="45.18605" lon="5.59182">
        <ele>1698.8</ele>
        <time>2020-02-23T13:12:20.000Z</time>
      </trkpt>
      <trkpt lat="45.18612" lon="5.59191">
        <ele>1697.7</ele>
        <time>2020-02-23T13:12:30.000Z</time>
      </trkpt>
      <trkpt lat="45.18617" lon="5.59201">
        <ele>1713</ele>
        <time>2020-02-23T13:12:22.000Z</time>
      </trkpt>
      <trkpt lat="45.18622" lon="5.59206">
        <ele>1696</ele>
        <time>2020-02-23T13:12:32.000Z</time>
      </trkpt>
      <trkpt lat="45.18625" lon="5.59211">
        <ele>1695.6</ele>
        <time>2020-02-23T13:12:42.000Z</time>
      </trkpt>
      <trkpt lat="45.18631" lon="5.59223">
        <ele>1706</ele>
        <time>2020-02-23T13:12:29.000Z</time>
      </trkpt>
      <trkpt lat="45.18641" lon="5.59234">
        <ele>1694.7</ele>
        <time>2020-02-23T13:12:39.000Z</time>
      </trkpt>
      <trkpt lat="45.18643" lon="5.59238">
        <ele>1694.7</ele>
        <time>2020-02-23T13:12:49.000Z</time>
      </trkpt>
      <trkpt lat="45.18645" lon="5.59238">
        <ele>1694.9</ele>
        <time>2020-02-23T13:12:59.000Z</time>
      </trkpt>
      <trkpt lat="45.18646" lon="5.59242">
        <ele>1704</ele>
        <time>2020-02-23T13:13:06.000Z</time>
      </trkpt>
      <trkpt lat="45.18648" lon="5.59244">
        <ele>1694.9</ele>
        <time>2020-02-23T13:13:16.000Z</time>
      </trkpt>
      <trkpt lat="45.18653" lon="5.59251">
        <ele>1682.3</ele>
        <time>2020-02-23T13:13:26.000Z</time>
      </trkpt>
      <trkpt lat="45.18658" lon="5.59251">
        <ele>1686.3</ele>
        <time>2020-02-23T13:13:36.000Z</time>
      </trkpt>
      <trkpt lat="45.18663" lon="5.59257">
        <ele>1702</ele>
        <time>2020-02-23T13:20:26.000Z</time>
      </trkpt>
      <trkpt lat="45.18668" lon="5.5926">
        <ele>1686.8</ele>
        <time>2020-02-23T13:20:36.000Z</time>
      </trkpt>
      <trkpt lat="45.18677" lon="5.59263">
        <ele>1682.6</ele>
        <time>2020-02-23T13:20:46.000Z</time>
      </trkpt>
      <trkpt lat="45.18681" lon="5.59266">
        <ele>1702</ele>
        <time>2020-02-23T13:20:42.000Z</time>
      </trkpt>
      <trkpt lat="45.18684" lon="5.59266">
        <ele>1679.2</ele>
        <time>2020-02-23T13:20:52.000Z</time>
      </trkpt>
      <trkpt lat="45.18688" lon="5.59263">
        <ele>1678.9</ele>
        <time>2020-02-23T13:21:02.000Z</time>
      </trkpt>
      <trkpt lat="45.18699" lon="5.59249">
        <ele>1689</ele>
        <time>2020-02-23T13:20:58.000Z</time>
      </trkpt>
      <trkpt lat="45.18704" lon="5.5924">
        <ele>1697</ele>
        <time>2020-02-23T13:21:08.000Z</time>
      </trkpt>
      <trkpt lat="45.18726" lon="5.59216">
        <ele>1692</ele>
        <time>2020-02-23T13:21:12.000Z</time>
      </trkpt>
      <trkpt lat="45.18734" lon="5.59212">
        <ele>1697.6</ele>
        <time>2020-02-23T13:21:22.000Z</time>
      </trkpt>
      <trkpt lat="45.18738" lon="5.59207">
        <ele>1698.2</ele>
        <time>2020-02-23T13:21:32.000Z</time>
      </trkpt>
      <trkpt lat="45.18751" lon="5.59183">
        <ele>1696</ele>
        <time>2020-02-23T13:21:26.000Z</time>
      </trkpt>
      <trkpt lat="45.18754" lon="5.59178">
        <ele>1695.4</ele>
        <time>2020-02-23T13:21:36.000Z</time>
      </trkpt>
      <trkpt lat="45.18758" lon="5.59173">
        <ele>1696.4</ele>
        <time>2020-02-23T13:21:46.000Z</time>
      </trkpt>
      <trkpt lat="45.18764" lon="5.59165">
        <ele>1696</ele>
        <time>2020-02-23T13:21:34.000Z</time>
      </trkpt>
      <trkpt lat="45.18769" lon="5.59161">
        <ele>1700.8</ele>
        <time>2020-02-23T13:21:44.000Z</time>
      </trkpt>
      <trkpt lat="45.18788" lon="5.59149">
        <ele>1694</ele>
        <time>2020-02-23T13:21:44.000Z</time>
      </trkpt>
      <trkpt lat="45.1879" lon="5.59148">
        <ele>1698.4</ele>
        <time>2020-02-23T13:21:54.000Z</time>
      </trkpt>
      <trkpt lat="45.18799" lon="5.59147">
        <ele>1697.3</ele>
        <time>2020-02-23T13:22:04.000Z</time>
      </trkpt>
      <trkpt lat="45.18813" lon="5.59146">
        <ele>1692</ele>
        <time>2020-02-23T13:21:55.000Z</time>
      </trkpt>
      <trkpt lat="45.18824" lon="5.59143">
        <ele>1694.6</ele>
        <time>2020-02-23T13:22:05.000Z</time>
      </trkpt>
      <trkpt lat="45.18828" lon="5.59142">
        <ele>1694.5</ele>
        <time>2020-02-23T13:22:15.000Z</time>
      </trkpt>
      <trkpt lat="45.18839" lon="5.59142">
        <ele>1691</ele>
        <time>2020-02-23T13:22:07.000Z</time>
      </trkpt>
      <trkpt lat="45.18846" lon="5.59139">
        <ele>1689.7</ele>
        <time>2020-02-23T13:22:17.000Z</time>
      </trkpt>
      <trkpt lat="45.18858" lon="5.59134">
        <ele>1690</ele>
        <time>2020-02-23T13:22:16.000Z</time>
      </trkpt>
      <trkpt lat="45.18861" lon="5.59134">
        <ele>1690.1</ele>
        <time>2020-02-23T13:22:26.000Z</time>
      </trkpt>
      <trkpt lat="45.18865" lon="5.59135">
        <ele>1689.9</ele>
        <time>2020-02-23T13:22:36.000Z</time>
      </trkpt>
      <trkpt lat="45.18871" lon="5.59139">
        <ele>1689.4</ele>
        <time>2020-02-23T13:22:46.000Z</time>
      </trkpt>
      <trkpt lat="45.18887" lon="5.59141">
        <ele>1688</ele>
        <time>2020-02-23T13:22:29.000Z</time>
      </trkpt>
      <trkpt lat="45.18889" lon="5.59141">
        <ele>1688.4</ele>
        <time>2020-02-23T13:22:39.000Z</time>
      </trkpt>
      <trkpt lat="45.18901" lon="5.59137">
        <ele>1688.2</ele>
        <time>2020-02-23T13:22:49.000Z</time>
      </trkpt>
      <trkpt lat="45.18911" lon="5.59136">
        <ele>1688</ele>
        <time>2020-02-23T13:22:38.000Z</time>
      </trkpt>
      <trkpt lat="45.18918" lon="5.59132">
        <ele>1684.5</ele>
        <time>2020-02-23T13:22:48.000Z</time>
      </trkpt>
      <trkpt lat="45.18925" lon="5.59129">
        <ele>1684.8</ele>
        <time>2020-02-23T13:22:58.000Z</time>
      </trkpt>
      <trkpt lat="45.18938" lon="5.59128">
        <ele>1686</ele>
        <time>2020-02-23T13:22:49.000Z</time>
      </trkpt>
      <trkpt lat="45.18944" lon="5.5913">
        <ele>1684.3</ele>
        <time>2020-02-23T13:22:59.000Z</time>
      </trkpt>
      <trkpt lat="45.18949" lon="5.59133">
        <ele>1683.9</ele>
        <time>2020-02-23T13:23:09.000Z</time>
      </trkpt>
      <trkpt lat="45.18962" lon="5.59131">
        <ele>1686</ele>
        <time>2020-02-23T13:22:57.000Z</time>
      </trkpt>
      <trkpt lat="45.18973" lon="5.59132">
        <ele>1683</ele>
        <time>2020-02-23T13:23:07.000Z</time>
      </trkpt>
      <trkpt lat="45.18991" lon="5.59134">
        <ele>1686</ele>
        <time>2020-02-23T13:23:06.000Z</time>
      </trkpt>
      <trkpt lat="45.18995" lon="5.59132">
        <ele>1682.2</ele>
        <time>2020-02-23T13:23:16.000Z</time>
      </trkpt>
      <trkpt lat="45.18999" lon="5.59131">
        <ele>1682.3</ele>
        <time>2020-02-23T13:23:26.000Z</time>
      </trkpt>
      <trkpt lat="45.19011" lon="5.5913">
        <ele>1686</ele>
        <time>2020-02-23T13:23:16.000Z</time>
      </trkpt>
      <trkpt lat="45.19024" lon="5.59131">
        <ele>1676.4</ele>
        <time>2020-02-23T13:23:26.000Z</time>
      </trkpt>
      <trkpt lat="45.19033" lon="5.59137">
        <ele>1675</ele>
        <time>2020-02-23T13:23:23.000Z</time>
      </trkpt>
      <trkpt lat="45.19039" lon="5.59136">
        <ele>1675.3</ele>
        <time>2020-02-23T13:23:33.000Z</time>
      </trkpt>
      <trkpt lat="45.19042" lon="5.59137">
        <ele>1675.1</ele>
        <time>2020-02-23T13:23:43.000Z</time>
      </trkpt>
      <trkpt lat="45.19047" lon="5.59141">
        <ele>1674.6</ele>
        <time>2020-02-23T13:23:53.000Z</time>
      </trkpt>
      <trkpt lat="45.19057" lon="5.59145">
        <ele>1674</ele>
        <time>2020-02-23T13:23:33.000Z</time>
      </trkpt>
      <trkpt lat="45.19065" lon="5.59147">
        <ele>1673.1</ele>
        <time>2020-02-23T13:23:43.000Z</time>
      </trkpt>
      <trkpt lat="45.19085" lon="5.59159">
        <ele>1675</ele>
        <time>2020-02-23T13:23:42.000Z</time>
      </trkpt>
      <trkpt lat="45.19089" lon="5.59163">
        <ele>1666.6</ele>
        <time>2020-02-23T13:23:52.000Z</time>
      </trkpt>
      <trkpt lat="45.19107" lon="5.59166">
        <ele>1669</ele>
        <time>2020-02-23T13:23:54.000Z</time>
      </trkpt>
      <trkpt lat="45.19121" lon="5.59176">
        <ele>1653.9</ele>
        <time>2020-02-23T13:24:04.000Z</time>
      </trkpt>
      <trkpt lat="45.19146" lon="5.59185">
        <ele>1663</ele>
        <time>2020-02-23T13:24:10.000Z</time>
      </trkpt>
      <trkpt lat="45.19148" lon="5.59187">
        <ele>1651.5</ele>
        <time>2020-02-23T13:24:20.000Z</time>
      </trkpt>
      <trkpt lat="45.19155" lon="5.5919">
        <ele>1651.2</ele>
        <time>2020-02-23T13:24:30.000Z</time>
      </trkpt>
      <trkpt lat="45.19168" lon="5.59192">
        <ele>1654</ele>
        <time>2020-02-23T13:24:19.000Z</time>
      </trkpt>
      <trkpt lat="45.19178" lon="5.59195">
        <ele>1645.9</ele>
        <time>2020-02-23T13:24:29.000Z</time>
      </trkpt>
      <trkpt lat="45.19183" lon="5.59195">
        <ele>1645.5</ele>
        <time>2020-02-23T13:24:39.000Z</time>
      </trkpt>
      <trkpt lat="45.19188" lon="5.59197">
        <ele>1654</ele>
        <time>2020-02-23T13:24:26.000Z</time>
      </trkpt>
      <trkpt lat="45.19204" lon="5.59203">
        <ele>1643.3</ele>
        <time>2020-02-23T13:24:36.000Z</time>
      </trkpt>
      <trkpt lat="45.19217" lon="5.59203">
        <ele>1644</ele>
        <time>2020-02-23T13:24:42.000Z</time>
      </trkpt>
      <trkpt lat="45.19223" lon="5.59207">
        <ele>1642.2</ele>
        <time>2020-02-23T13:24:52.000Z</time>
      </trkpt>
      <trkpt lat="45.19228" lon="5.59207">
        <ele>1642</ele>
        <time>2020-02-23T13:25:02.000Z</time>
      </trkpt>
      <trkpt lat="45.1924" lon="5.59213">
        <ele>1641</ele>
        <time>2020-02-23T13:24:53.000Z</time>
      </trkpt>
      <trkpt lat="45.19287" lon="5.59223">
        <ele>1642</ele>
        <time>2020-02-23T13:25:14.000Z</time>
      </trkpt>
      <trkpt lat="45.19291" lon="5.59224">
        <ele>1640.9</ele>
        <time>2020-02-23T13:25:24.000Z</time>
      </trkpt>
      <trkpt lat="45.19295" lon="5.59227">
        <ele>1641.1</ele>
        <time>2020-02-23T13:25:34.000Z</time>
      </trkpt>
      <trkpt lat="45.19306" lon="5.59231">
        <ele>1642</ele>
        <time>2020-02-23T13:25:23.000Z</time>
      </trkpt>
      <trkpt lat="45.19315" lon="5.59236">
        <ele>1642.2</ele>
        <time>2020-02-23T13:25:33.000Z</time>
      </trkpt>
      <trkpt lat="45.19335" lon="5.59237">
        <ele>1641</ele>
        <time>2020-02-23T13:25:36.000Z</time>
      </trkpt>
      <trkpt lat="45.19343" lon="5.59238">
        <ele>1645.7</ele>
        <time>2020-02-23T13:25:46.000Z</time>
      </trkpt>
      <trkpt lat="45.19354" lon="5.59242">
        <ele>1646.3</ele>
        <time>2020-02-23T13:25:56.000Z</time>
      </trkpt>
      <trkpt lat="45.19365" lon="5.59242">
        <ele>1642</ele>
        <time>2020-02-23T13:25:48.000Z</time>
      </trkpt>
      <trkpt lat="45.19371" lon="5.59244">
        <ele>1647.6</ele>
        <time>2020-02-23T13:25:58.000Z</time>
      </trkpt>
      <trkpt lat="45.19382" lon="5.59244">
        <ele>1648.6</ele>
        <time>2020-02-23T13:26:08.000Z</time>
      </trkpt>
      <trkpt lat="45.19398" lon="5.59241">
        <ele>1644</ele>
        <time>2020-02-23T13:26:03.000Z</time>
      </trkpt>
      <trkpt lat="45.19415" lon="5.59241">
        <ele>1652.5</ele>
        <time>2020-02-23T13:26:13.000Z</time>
      </trkpt>
      <trkpt lat="45.19422" lon="5.59239">
        <ele>1645</ele>
        <time>2020-02-23T13:26:13.000Z</time>
      </trkpt>
      <trkpt lat="45.19435" lon="5.59234">
        <ele>1654.6</ele>
        <time>2020-02-23T13:26:23.000Z</time>
      </trkpt>
      <trkpt lat="45.19453" lon="5.59217">
        <ele>1646</ele>
        <time>2020-02-23T13:26:28.000Z</time>
      </trkpt>
      <trkpt lat="45.19457" lon="5.59214">
        <ele>1654.7</ele>
        <time>2020-02-23T13:26:38.000Z</time>
      </trkpt>
      <trkpt lat="45.19463" lon="5.59212">
        <ele>1654.9</ele>
        <time>2020-02-23T13:26:48.000Z</time>
      </trkpt>
      <trkpt lat="45.19484" lon="5.59207">
        <ele>1656</ele>
        <time>2020-02-23T13:26:43.000Z</time>
      </trkpt>
      <trkpt lat="45.19491" lon="5.59207">
        <ele>1655.7</ele>
        <time>2020-02-23T13:26:53.000Z</time>
      </trkpt>
      <trkpt lat="45.19497" lon="5.59205">
        <ele>1655.9</ele>
        <time>2020-02-23T13:27:03.000Z</time>
      </trkpt>
      <trkpt lat="45.19508" lon="5.59204">
        <ele>1656</ele>
        <time>2020-02-23T13:26:55.000Z</time>
      </trkpt>
      <trkpt lat="45.19514" lon="5.59201">
        <ele>1654.4</ele>
        <time>2020-02-23T13:27:05.000Z</time>
      </trkpt>
      <trkpt lat="45.19529" lon="5.59191">
        <ele>1656</ele>
        <time>2020-02-23T13:27:04.000Z</time>
      </trkpt>
      <trkpt lat="45.19549" lon="5.59187">
        <ele>1656</ele>
        <time>2020-02-23T13:27:13.000Z</time>
      </trkpt>
      <trkpt lat="45.19573" lon="5.59181">
        <ele>1649</ele>
        <time>2020-02-23T13:27:24.000Z</time>
      </trkpt>
      <trkpt lat="45.19584" lon="5.59173">
        <ele>1654.3</ele>
        <time>2020-02-23T13:27:34.000Z</time>
      </trkpt>
      <trkpt lat="45.19587" lon="5.59171">
        <ele>1654.5</ele>
        <time>2020-02-23T13:27:44.000Z</time>
      </trkpt>
      <trkpt lat="45.19596" lon="5.59167">
        <ele>1649</ele>
        <time>2020-02-23T13:27:37.000Z</time>
      </trkpt>
      <trkpt lat="45.19606" lon="5.59166">
        <ele>1653.1</ele>
        <time>2020-02-23T13:27:47.000Z</time>
      </trkpt>
      <trkpt lat="45.19611" lon="5.59165">
        <ele>1652.7</ele>
        <time>2020-02-23T13:27:57.000Z</time>
      </trkpt>
      <trkpt lat="45.19618" lon="5.59161">
        <ele>1647</ele>
        <time>2020-02-23T13:27:45.000Z</time>
      </trkpt>
      <trkpt lat="45.19633" lon="5.5916">
        <ele>1651.5</ele>
        <time>2020-02-23T13:27:55.000Z</time>
      </trkpt>
      <trkpt lat="45.19647" lon="5.59155">
        <ele>1645</ele>
        <time>2020-02-23T13:27:58.000Z</time>
      </trkpt>
      <trkpt lat="45.19655" lon="5.59155">
        <ele>1651.2</ele>
        <time>2020-02-23T13:28:08.000Z</time>
      </trkpt>
      <trkpt lat="45.19661" lon="5.59156">
        <ele>1651.3</ele>
        <time>2020-02-23T13:28:18.000Z</time>
      </trkpt>
      <trkpt lat="45.1967" lon="5.59156">
        <ele>1640</ele>
        <time>2020-02-23T13:28:08.000Z</time>
      </trkpt>
      <trkpt lat="45.19674" lon="5.59157">
        <ele>1648.4</ele>
        <time>2020-02-23T13:28:18.000Z</time>
      </trkpt>
      <trkpt lat="45.19682" lon="5.5916">
        <ele>1647.4</ele>
        <time>2020-02-23T13:28:28.000Z</time>
      </trkpt>
      <trkpt lat="45.19686" lon="5.59158">
        <ele>1646.5</ele>
        <time>2020-02-23T13:28:38.000Z</time>
      </trkpt>
      <trkpt lat="45.19689" lon="5.5916">
        <ele>1640</ele>
        <time>2020-02-23T13:28:20.000Z</time>
      </trkpt>
      <trkpt lat="45.19692" lon="5.59166">
        <ele>1645.8</ele>
        <time>2020-02-23T13:28:30.000Z</time>
      </trkpt>
      <trkpt lat="45.19696" lon="5.59169">
        <ele>1642.8</ele>
        <time>2020-02-23T13:28:40.000Z</time>
      </trkpt>
      <trkpt lat="45.1971" lon="5.59177">
        <ele>1633</ele>
        <time>2020-02-23T13:28:38.000Z</time>
      </trkpt>
      <trkpt lat="45.19715" lon="5.59181">
        <ele>1640</ele>
        <time>2020-02-23T13:28:48.000Z</time>
      </trkpt>
      <trkpt lat="45.19718" lon="5.59183">
        <ele>1639.7</ele>
        <time>2020-02-23T13:28:58.000Z</time>
      </trkpt>
      <trkpt lat="45.19728" lon="5.59185">
        <ele>1639</ele>
        <time>2020-02-23T13:29:08.000Z</time>
      </trkpt>
      <trkpt lat="45.19734" lon="5.59188">
        <ele>1633</ele>
        <time>2020-02-23T13:28:54.000Z</time>
      </trkpt>
      <trkpt lat="45.19737" lon="5.59189">
        <ele>1638.5</ele>
        <time>2020-02-23T13:29:04.000Z</time>
      </trkpt>
      <trkpt lat="45.1974" lon="5.5919">
        <ele>1638.4</ele>
        <time>2020-02-23T13:29:14.000Z</time>
      </trkpt>
      <trkpt lat="45.19748" lon="5.59189">
        <ele>1638.2</ele>
        <time>2020-02-23T13:29:24.000Z</time>
      </trkpt>
      <trkpt lat="45.19751" lon="5.5919">
        <ele>1634.8</ele>
        <time>2020-02-23T13:29:34.000Z</time>
      </trkpt>
      <trkpt lat="45.19754" lon="5.59191">
        <ele>1630</ele>
        <time>2020-02-23T13:29:07.000Z</time>
      </trkpt>
      <trkpt lat="45.1976" lon="5.59195">
        <ele>1634.3</ele>
        <time>2020-02-23T13:29:17.000Z</time>
      </trkpt>
      <trkpt lat="45.19768" lon="5.59197">
        <ele>1633.9</ele>
        <time>2020-02-23T13:29:27.000Z</time>
      </trkpt>
      <trkpt lat="45.19778" lon="5.59197">
        <ele>1629</ele>
        <time>2020-02-23T13:29:26.000Z</time>
      </trkpt>
      <trkpt lat="45.19798" lon="5.59195">
        <ele>1629</ele>
        <time>2020-02-23T13:29:40.000Z</time>
      </trkpt>
      <trkpt lat="45.19805" lon="5.59189">
        <ele>1633</ele>
        <time>2020-02-23T13:29:50.000Z</time>
      </trkpt>
      <trkpt lat="45.19809" lon="5.59184">
        <ele>1633</ele>
        <time>2020-02-23T13:30:00.000Z</time>
      </trkpt>
      <trkpt lat="45.19811" lon="5.59182">
        <ele>1633</ele>
        <time>2020-02-23T13:30:10.000Z</time>
      </trkpt>
      <trkpt lat="45.19816" lon="5.59182">
        <ele>1632</ele>
        <time>2020-02-23T13:29:55.000Z</time>
      </trkpt>
      <trkpt lat="45.19818" lon="5.5918">
        <ele>1632.9</ele>
        <time>2020-02-23T13:30:05.000Z</time>
      </trkpt>
      <trkpt lat="45.19825" lon="5.59181">
        <ele>1632.8</ele>
        <time>2020-02-23T13:30:15.000Z</time>
      </trkpt>
      <trkpt lat="45.1984" lon="5.59185">
        <ele>1632</ele>
        <time>2020-02-23T13:30:08.000Z</time>
      </trkpt>
      <trkpt lat="45.19848" lon="5.59186">
        <ele>1630.9</ele>
        <time>2020-02-23T13:30:18.000Z</time>
      </trkpt>
      <trkpt lat="45.19856" lon="5.59185">
        <ele>1630.7</ele>
        <time>2020-02-23T13:30:28.000Z</time>
      </trkpt>
      <trkpt lat="45.19874" lon="5.5918">
        <ele>1632</ele>
        <time>2020-02-23T13:30:21.000Z</time>
      </trkpt>
      <trkpt lat="45.19892" lon="5.59177">
        <ele>1630.4</ele>
        <time>2020-02-23T13:30:31.000Z</time>
      </trkpt>
      <trkpt lat="45.19902" lon="5.59179">
        <ele>1632</ele>
        <time>2020-02-23T13:30:34.000Z</time>
      </trkpt>
      <trkpt lat="45.19931" lon="5.59187">
        <ele>1637</ele>
        <time>2020-02-23T13:30:46.000Z</time>
      </trkpt>
      <trkpt lat="45.19938" lon="5.59185">
        <ele>1629.8</ele>
        <time>2020-02-23T13:30:56.000Z</time>
      </trkpt>
      <trkpt lat="45.19965" lon="5.59187">
        <ele>1638</ele>
        <time>2020-02-23T13:30:59.000Z</time>
      </trkpt>
      <trkpt lat="45.19985" lon="5.59187">
        <ele>1638</ele>
        <time>2020-02-23T13:31:08.000Z</time>
      </trkpt>
      <trkpt lat="45.19992" lon="5.59189">
        <ele>1630.6</ele>
        <time>2020-02-23T13:31:18.000Z</time>
      </trkpt>
      <trkpt lat="45.20027" lon="5.59198">
        <ele>1633</ele>
        <time>2020-02-23T13:31:24.000Z</time>
      </trkpt>
      <trkpt lat="45.20045" lon="5.59205">
        <ele>1633</ele>
        <time>2020-02-23T13:31:32.000Z</time>
      </trkpt>
      <trkpt lat="45.20059" lon="5.59209">
        <ele>1630.5</ele>
        <time>2020-02-23T13:31:42.000Z</time>
      </trkpt>
      <trkpt lat="45.20078" lon="5.59215">
        <ele>1631</ele>
        <time>2020-02-23T13:31:47.000Z</time>
      </trkpt>
      <trkpt lat="45.20099" lon="5.59219">
        <ele>1631</ele>
        <time>2020-02-23T13:31:55.000Z</time>
      </trkpt>
      <trkpt lat="45.20137" lon="5.59222">
        <ele>1631</ele>
        <time>2020-02-23T13:32:08.000Z</time>
      </trkpt>
      <trkpt lat="45.20166" lon="5.5923">
        <ele>1631</ele>
        <time>2020-02-23T13:32:21.000Z</time>
      </trkpt>
      <trkpt lat="45.20184" lon="5.59236">
        <ele>1634.6</ele>
        <time>2020-02-23T13:32:31.000Z</time>
      </trkpt>
      <trkpt lat="45.20214" lon="5.59243">
        <ele>1631</ele>
        <time>2020-02-23T13:32:41.000Z</time>
      </trkpt>
      <trkpt lat="45.20218" lon="5.59247">
        <ele>1634.6</ele>
        <time>2020-02-23T13:32:51.000Z</time>
      </trkpt>
      <trkpt lat="45.20229" lon="5.5925">
        <ele>1631.5</ele>
        <time>2020-02-23T13:33:01.000Z</time>
      </trkpt>
      <trkpt lat="45.20241" lon="5.59255">
        <ele>1626</ele>
        <time>2020-02-23T13:33:45.000Z</time>
      </trkpt>
      <trkpt lat="45.20263" lon="5.59264">
        <ele>1626</ele>
        <time>2020-02-23T13:33:54.000Z</time>
      </trkpt>
      <trkpt lat="45.20279" lon="5.59269">
        <ele>1630.2</ele>
        <time>2020-02-23T13:34:04.000Z</time>
      </trkpt>
      <trkpt lat="45.20311" lon="5.59276">
        <ele>1622</ele>
        <time>2020-02-23T13:34:13.000Z</time>
      </trkpt>
      <trkpt lat="45.2032" lon="5.59277">
        <ele>1629.2</ele>
        <time>2020-02-23T13:34:23.000Z</time>
      </trkpt>
      <trkpt lat="45.20326" lon="5.59279">
        <ele>1629.1</ele>
        <time>2020-02-23T13:34:33.000Z</time>
      </trkpt>
      <trkpt lat="45.20354" lon="5.59288">
        <ele>1614</ele>
        <time>2020-02-23T13:34:29.000Z</time>
      </trkpt>
      <trkpt lat="45.20384" lon="5.59301">
        <ele>1614</ele>
        <time>2020-02-23T13:34:41.000Z</time>
      </trkpt>
      <trkpt lat="45.20401" lon="5.59305">
        <ele>1626.7</ele>
        <time>2020-02-23T13:34:51.000Z</time>
      </trkpt>
      <trkpt lat="45.20421" lon="5.59305">
        <ele>1614</ele>
        <time>2020-02-23T13:34:54.000Z</time>
      </trkpt>
      <trkpt lat="45.20443" lon="5.59302">
        <ele>1609</ele>
        <time>2020-02-23T13:35:01.000Z</time>
      </trkpt>
      <trkpt lat="45.20451" lon="5.59304">
        <ele>1626.5</ele>
        <time>2020-02-23T13:35:11.000Z</time>
      </trkpt>
      <trkpt lat="45.20464" lon="5.59311">
        <ele>1609</ele>
        <time>2020-02-23T13:35:09.000Z</time>
      </trkpt>
      <trkpt lat="45.2047" lon="5.5931">
        <ele>1626.4</ele>
        <time>2020-02-23T13:35:19.000Z</time>
      </trkpt>
      <trkpt lat="45.20478" lon="5.59307">
        <ele>1626.4</ele>
        <time>2020-02-23T13:35:29.000Z</time>
      </trkpt>
      <trkpt lat="45.20484" lon="5.59305">
        <ele>1609</ele>
        <time>2020-02-23T13:35:16.000Z</time>
      </trkpt>
      <trkpt lat="45.20491" lon="5.59299">
        <ele>1626.6</ele>
        <time>2020-02-23T13:35:26.000Z</time>
      </trkpt>
      <trkpt lat="45.20511" lon="5.59282">
        <ele>1609</ele>
        <time>2020-02-23T13:35:28.000Z</time>
      </trkpt>
      <trkpt lat="45.20516" lon="5.59281">
        <ele>1626</ele>
        <time>2020-02-23T13:35:38.000Z</time>
      </trkpt>
      <trkpt lat="45.20533" lon="5.59289">
        <ele>1610</ele>
        <time>2020-02-23T13:35:37.000Z</time>
      </trkpt>
      <trkpt lat="45.20543" lon="5.59297">
        <ele>1624.8</ele>
        <time>2020-02-23T13:35:47.000Z</time>
      </trkpt>
      <trkpt lat="45.20544" lon="5.59299">
        <ele>1624.7</ele>
        <time>2020-02-23T13:35:57.000Z</time>
      </trkpt>
      <trkpt lat="45.20546" lon="5.593">
        <ele>1624.6</ele>
        <time>2020-02-23T13:36:07.000Z</time>
      </trkpt>
      <trkpt lat="45.20559" lon="5.59319">
        <ele>1616</ele>
        <time>2020-02-23T13:35:54.000Z</time>
      </trkpt>
      <trkpt lat="45.20563" lon="5.59322">
        <ele>1623.1</ele>
        <time>2020-02-23T13:36:04.000Z</time>
      </trkpt>
      <trkpt lat="45.20573" lon="5.59335">
        <ele>1620</ele>
        <time>2020-02-23T13:36:14.000Z</time>
      </trkpt>
      <trkpt lat="45.20573" lon="5.59338">
        <ele>1617</ele>
        <time>2020-02-23T13:36:21.000Z</time>
      </trkpt>
      <trkpt lat="45.20574" lon="5.5934">
        <ele>1620</ele>
        <time>2020-02-23T13:36:31.000Z</time>
      </trkpt>
      <trkpt lat="45.20573" lon="5.59347">
        <ele>1619.9</ele>
        <time>2020-02-23T13:36:41.000Z</time>
      </trkpt>
      <trkpt lat="45.20572" lon="5.59357">
        <ele>1619.7</ele>
        <time>2020-02-23T13:36:51.000Z</time>
      </trkpt>
      <trkpt lat="45.20572" lon="5.59364">
        <ele>1618</ele>
        <time>2020-02-23T13:36:38.000Z</time>
      </trkpt>
      <trkpt lat="45.20572" lon="5.59368">
        <ele>1619.4</ele>
        <time>2020-02-23T13:36:48.000Z</time>
      </trkpt>
      <trkpt lat="45.2057" lon="5.59378">
        <ele>1618.9</ele>
        <time>2020-02-23T13:36:58.000Z</time>
      </trkpt>
      <trkpt lat="45.20567" lon="5.59384">
        <ele>1618.7</ele>
        <time>2020-02-23T13:37:08.000Z</time>
      </trkpt>
      <trkpt lat="45.20567" lon="5.59387">
        <ele>1618.6</ele>
        <time>2020-02-23T13:37:18.000Z</time>
      </trkpt>
      <trkpt lat="45.20567" lon="5.59397">
        <ele>1617</ele>
        <time>2020-02-23T13:36:51.000Z</time>
      </trkpt>
      <trkpt lat="45.20567" lon="5.59405">
        <ele>1617.4</ele>
        <time>2020-02-23T13:37:01.000Z</time>
      </trkpt>
      <trkpt lat="45.20568" lon="5.59411">
        <ele>1616.9</ele>
        <time>2020-02-23T13:37:11.000Z</time>
      </trkpt>
      <trkpt lat="45.20569" lon="5.59414">
        <ele>1616.7</ele>
        <time>2020-02-23T13:37:21.000Z</time>
      </trkpt>
      <trkpt lat="45.20572" lon="5.59421">
        <ele>1613.7</ele>
        <time>2020-02-23T13:37:31.000Z</time>
      </trkpt>
      <trkpt lat="45.20578" lon="5.59426">
        <ele>1616</ele>
        <time>2020-02-23T13:37:07.000Z</time>
      </trkpt>
      <trkpt lat="45.20578" lon="5.5943">
        <ele>1613.4</ele>
        <time>2020-02-23T13:37:17.000Z</time>
      </trkpt>
      <trkpt lat="45.20577" lon="5.59435">
        <ele>1613.2</ele>
        <time>2020-02-23T13:37:27.000Z</time>
      </trkpt>
      <trkpt lat="45.20576" lon="5.59444">
        <ele>1612.7</ele>
        <time>2020-02-23T13:37:37.000Z</time>
      </trkpt>
      <trkpt lat="45.20576" lon="5.59449">
        <ele>1612.4</ele>
        <time>2020-02-23T13:37:47.000Z</time>
      </trkpt>
      <trkpt lat="45.20574" lon="5.59458">
        <ele>1607</ele>
        <time>2020-02-23T13:37:20.000Z</time>
      </trkpt>
      <trkpt lat="45.20577" lon="5.59469">
        <ele>1610.9</ele>
        <time>2020-02-23T13:37:30.000Z</time>
      </trkpt>
      <trkpt lat="45.20579" lon="5.59475">
        <ele>1610.3</ele>
        <time>2020-02-23T13:37:40.000Z</time>
      </trkpt>
      <trkpt lat="45.20582" lon="5.5949">
        <ele>1601</ele>
        <time>2020-02-23T13:37:31.000Z</time>
      </trkpt>
      <trkpt lat="45.20583" lon="5.59494">
        <ele>1607.4</ele>
        <time>2020-02-23T13:37:41.000Z</time>
      </trkpt>
      <trkpt lat="45.20584" lon="5.59497">
        <ele>1606.5</ele>
        <time>2020-02-23T13:37:51.000Z</time>
      </trkpt>
      <trkpt lat="45.2059" lon="5.59504">
        <ele>1605.4</ele>
        <time>2020-02-23T13:38:01.000Z</time>
      </trkpt>
      <trkpt lat="45.20594" lon="5.59514">
        <ele>1601</ele>
        <time>2020-02-23T13:37:39.000Z</time>
      </trkpt>
      <trkpt lat="45.20596" lon="5.59522">
        <ele>1604.4</ele>
        <time>2020-02-23T13:37:49.000Z</time>
      </trkpt>
      <trkpt lat="45.20601" lon="5.59531">
        <ele>1604</ele>
        <time>2020-02-23T13:37:59.000Z</time>
      </trkpt>
      <trkpt lat="45.20604" lon="5.59536">
        <ele>1603.8</ele>
        <time>2020-02-23T13:38:09.000Z</time>
      </trkpt>
      <trkpt lat="45.20606" lon="5.59546">
        <ele>1602</ele>
        <time>2020-02-23T13:37:53.000Z</time>
      </trkpt>
      <trkpt lat="45.20606" lon="5.59552">
        <ele>1603.3</ele>
        <time>2020-02-23T13:38:03.000Z</time>
      </trkpt>
      <trkpt lat="45.2061" lon="5.59556">
        <ele>1603.2</ele>
        <time>2020-02-23T13:38:13.000Z</time>
      </trkpt>
      <trkpt lat="45.20613" lon="5.5956">
        <ele>1603.1</ele>
        <time>2020-02-23T13:38:23.000Z</time>
      </trkpt>
      <trkpt lat="45.20619" lon="5.59566">
        <ele>1602</ele>
        <time>2020-02-23T13:38:17.000Z</time>
      </trkpt>
      <trkpt lat="45.20624" lon="5.59566">
        <ele>1602.8</ele>
        <time>2020-02-23T13:38:27.000Z</time>
      </trkpt>
      <trkpt lat="45.20633" lon="5.59571">
        <ele>1602.6</ele>
        <time>2020-02-23T13:38:37.000Z</time>
      </trkpt>
      <trkpt lat="45.20639" lon="5.59572">
        <ele>1601</ele>
        <time>2020-02-23T13:38:32.000Z</time>
      </trkpt>
      <trkpt lat="45.20654" lon="5.59561">
        <ele>1602.4</ele>
        <time>2020-02-23T13:38:42.000Z</time>
      </trkpt>
      <trkpt lat="45.20659" lon="5.59558">
        <ele>1605</ele>
        <time>2020-02-23T13:38:46.000Z</time>
      </trkpt>
      <trkpt lat="45.20664" lon="5.59554">
        <ele>1602.6</ele>
        <time>2020-02-23T13:38:56.000Z</time>
      </trkpt>
      <trkpt lat="45.20668" lon="5.59554">
        <ele>1601.7</ele>
        <time>2020-02-23T13:39:06.000Z</time>
      </trkpt>
      <trkpt lat="45.20671" lon="5.59555">
        <ele>1601.7</ele>
        <time>2020-02-23T13:39:16.000Z</time>
      </trkpt>
      <trkpt lat="45.20685" lon="5.5956">
        <ele>1607</ele>
        <time>2020-02-23T13:38:56.000Z</time>
      </trkpt>
      <trkpt lat="45.20695" lon="5.59568">
        <ele>1601.2</ele>
        <time>2020-02-23T13:39:06.000Z</time>
      </trkpt>
      <trkpt lat="45.20704" lon="5.59576">
        <ele>1606</ele>
        <time>2020-02-23T13:39:03.000Z</time>
      </trkpt>
      <trkpt lat="45.20712" lon="5.5958">
        <ele>1600.6</ele>
        <time>2020-02-23T13:39:13.000Z</time>
      </trkpt>
      <trkpt lat="45.20724" lon="5.59583">
        <ele>1606</ele>
        <time>2020-02-23T13:39:11.000Z</time>
      </trkpt>
      <trkpt lat="45.20736" lon="5.59588">
        <ele>1598.1</ele>
        <time>2020-02-23T13:39:21.000Z</time>
      </trkpt>
      <trkpt lat="45.20745" lon="5.5959">
        <ele>1599</ele>
        <time>2020-02-23T13:39:19.000Z</time>
      </trkpt>
      <trkpt lat="45.20754" lon="5.59597">
        <ele>1594.6</ele>
        <time>2020-02-23T13:39:29.000Z</time>
      </trkpt>
      <trkpt lat="45.20761" lon="5.59605">
        <ele>1596</ele>
        <time>2020-02-23T13:39:26.000Z</time>
      </trkpt>
      <trkpt lat="45.20767" lon="5.59608">
        <ele>1593.1</ele>
        <time>2020-02-23T13:39:36.000Z</time>
      </trkpt>
      <trkpt lat="45.20781" lon="5.59611">
        <ele>1588</ele>
        <time>2020-02-23T13:39:35.000Z</time>
      </trkpt>
      <trkpt lat="45.20789" lon="5.59614">
        <ele>1591.4</ele>
        <time>2020-02-23T13:39:45.000Z</time>
      </trkpt>
      <trkpt lat="45.208" lon="5.59616">
        <ele>1583</ele>
        <time>2020-02-23T13:39:42.000Z</time>
      </trkpt>
      <trkpt lat="45.20805" lon="5.59618">
        <ele>1590.2</ele>
        <time>2020-02-23T13:39:52.000Z</time>
      </trkpt>
      <trkpt lat="45.20822" lon="5.59618">
        <ele>1579</ele>
        <time>2020-02-23T13:39:52.000Z</time>
      </trkpt>
      <trkpt lat="45.20828" lon="5.5962">
        <ele>1589.1</ele>
        <time>2020-02-23T13:40:02.000Z</time>
      </trkpt>
      <trkpt lat="45.20834" lon="5.59625">
        <ele>1585.6</ele>
        <time>2020-02-23T13:40:12.000Z</time>
      </trkpt>
      <trkpt lat="45.20841" lon="5.59638">
        <ele>1575</ele>
        <time>2020-02-23T13:40:04.000Z</time>
      </trkpt>
      <trkpt lat="45.20842" lon="5.59641">
        <ele>1584.7</ele>
        <time>2020-02-23T13:40:14.000Z</time>
      </trkpt>
      <trkpt lat="45.20845" lon="5.59656">
        <ele>1583.8</ele>
        <time>2020-02-23T13:40:24.000Z</time>
      </trkpt>
      <trkpt lat="45.20846" lon="5.59663">
        <ele>1583.5</ele>
        <time>2020-02-23T13:40:34.000Z</time>
      </trkpt>
      <trkpt lat="45.20846" lon="5.59666">
        <ele>1572</ele>
        <time>2020-02-23T13:40:13.000Z</time>
      </trkpt>
      <trkpt lat="45.20843" lon="5.59679">
        <ele>1581.9</ele>
        <time>2020-02-23T13:40:23.000Z</time>
      </trkpt>
      <trkpt lat="45.20842" lon="5.59688">
        <ele>1581.9</ele>
        <time>2020-02-23T13:40:33.000Z</time>
      </trkpt>
      <trkpt lat="45.20841" lon="5.5969">
        <ele>1581.9</ele>
        <time>2020-02-23T13:40:43.000Z</time>
      </trkpt>
      <trkpt lat="45.20838" lon="5.59692">
        <ele>1567</ele>
        <time>2020-02-23T13:40:24.000Z</time>
      </trkpt>
      <trkpt lat="45.20837" lon="5.59696">
        <ele>1582</ele>
        <time>2020-02-23T13:40:34.000Z</time>
      </trkpt>
      <trkpt lat="45.2084" lon="5.59706">
        <ele>1582</ele>
        <time>2020-02-23T13:40:44.000Z</time>
      </trkpt>
      <trkpt lat="45.20844" lon="5.59712">
        <ele>1582</ele>
        <time>2020-02-23T13:40:54.000Z</time>
      </trkpt>
      <trkpt lat="45.2085" lon="5.59725">
        <ele>1566</ele>
        <time>2020-02-23T13:40:36.000Z</time>
      </trkpt>
      <trkpt lat="45.2086" lon="5.59726">
        <ele>1581.8</ele>
        <time>2020-02-23T13:40:46.000Z</time>
      </trkpt>
      <trkpt lat="45.20872" lon="5.59733">
        <ele>1565</ele>
        <time>2020-02-23T13:40:47.000Z</time>
      </trkpt>
      <trkpt lat="45.20875" lon="5.59737">
        <ele>1581.2</ele>
        <time>2020-02-23T13:40:57.000Z</time>
      </trkpt>
      <trkpt lat="45.20876" lon="5.59742">
        <ele>1581.1</ele>
        <time>2020-02-23T13:41:07.000Z</time>
      </trkpt>
      <trkpt lat="45.2088" lon="5.59747">
        <ele>1580.8</ele>
        <time>2020-02-23T13:41:17.000Z</time>
      </trkpt>
      <trkpt lat="45.20898" lon="5.59768">
        <ele>1564</ele>
        <time>2020-02-23T13:41:02.000Z</time>
      </trkpt>
      <trkpt lat="45.2091" lon="5.5978">
        <ele>1577.8</ele>
        <time>2020-02-23T13:41:12.000Z</time>
      </trkpt>
      <trkpt lat="45.20919" lon="5.59788">
        <ele>1563</ele>
        <time>2020-02-23T13:41:12.000Z</time>
      </trkpt>
      <trkpt lat="45.20921" lon="5.5979">
        <ele>1575.7</ele>
        <time>2020-02-23T13:41:22.000Z</time>
      </trkpt>
      <trkpt lat="45.20924" lon="5.5979">
        <ele>1575.7</ele>
        <time>2020-02-23T13:41:32.000Z</time>
      </trkpt>
      <trkpt lat="45.20931" lon="5.59788">
        <ele>1575.8</ele>
        <time>2020-02-23T13:41:42.000Z</time>
      </trkpt>
      <trkpt lat="45.20934" lon="5.59788">
        <ele>1575.8</ele>
        <time>2020-02-23T13:41:52.000Z</time>
      </trkpt>
      <trkpt lat="45.20937" lon="5.59789">
        <ele>1575.8</ele>
        <time>2020-02-23T13:42:02.000Z</time>
      </trkpt>
      <trkpt lat="45.20938" lon="5.59791">
        <ele>1563</ele>
        <time>2020-02-23T13:41:21.000Z</time>
      </trkpt>
      <trkpt lat="45.2094" lon="5.59794">
        <ele>1575.6</ele>
        <time>2020-02-23T13:41:31.000Z</time>
      </trkpt>
      <trkpt lat="45.20941" lon="5.59798">
        <ele>1575.6</ele>
        <time>2020-02-23T13:41:41.000Z</time>
      </trkpt>
      <trkpt lat="45.20943" lon="5.59815">
        <ele>1575.2</ele>
        <time>2020-02-23T13:41:51.000Z</time>
      </trkpt>
      <trkpt lat="45.20944" lon="5.59824">
        <ele>1557</ele>
        <time>2020-02-23T13:41:31.000Z</time>
      </trkpt>
      <trkpt lat="45.20941" lon="5.59841">
        <ele>1572.6</ele>
        <time>2020-02-23T13:41:41.000Z</time>
      </trkpt>
      <trkpt lat="45.2094" lon="5.59854">
        <ele>1556</ele>
        <time>2020-02-23T13:41:40.000Z</time>
      </trkpt>
      <trkpt lat="45.20936" lon="5.5988">
        <ele>1571.2</ele>
        <time>2020-02-23T13:41:50.000Z</time>
      </trkpt>
      <trkpt lat="45.20932" lon="5.59889">
        <ele>1555</ele>
        <time>2020-02-23T13:41:50.000Z</time>
      </trkpt>
      <trkpt lat="45.20928" lon="5.59894">
        <ele>1570.2</ele>
        <time>2020-02-23T13:42:00.000Z</time>
      </trkpt>
      <trkpt lat="45.20912" lon="5.5991">
        <ele>1555</ele>
        <time>2020-02-23T13:41:59.000Z</time>
      </trkpt>
      <trkpt lat="45.20903" lon="5.59918">
        <ele>1567.8</ele>
        <time>2020-02-23T13:42:09.000Z</time>
      </trkpt>
      <trkpt lat="45.20894" lon="5.59928">
        <ele>1552</ele>
        <time>2020-02-23T13:42:12.000Z</time>
      </trkpt>
      <trkpt lat="45.20892" lon="5.59934">
        <ele>1568.4</ele>
        <time>2020-02-23T13:42:22.000Z</time>
      </trkpt>
      <trkpt lat="45.2089" lon="5.59944">
        <ele>1568.5</ele>
        <time>2020-02-23T13:42:32.000Z</time>
      </trkpt>
      <trkpt lat="45.20891" lon="5.59952">
        <ele>1568.5</ele>
        <time>2020-02-23T13:42:42.000Z</time>
      </trkpt>
      <trkpt lat="45.20891" lon="5.59957">
        <ele>1543</ele>
        <time>2020-02-23T13:42:33.000Z</time>
      </trkpt>
      <trkpt lat="45.20894" lon="5.5996">
        <ele>1568.5</ele>
        <time>2020-02-23T13:42:43.000Z</time>
      </trkpt>
      <trkpt lat="45.20896" lon="5.5996">
        <ele>1568.5</ele>
        <time>2020-02-23T13:42:53.000Z</time>
      </trkpt>
      <trkpt lat="45.20898" lon="5.59959">
        <ele>1568.4</ele>
        <time>2020-02-23T13:43:03.000Z</time>
      </trkpt>
      <trkpt lat="45.20901" lon="5.59959">
        <ele>1568.4</ele>
        <time>2020-02-23T13:43:13.000Z</time>
      </trkpt>
      <trkpt lat="45.2091" lon="5.59963">
        <ele>1545</ele>
        <time>2020-02-23T13:42:51.000Z</time>
      </trkpt>
      <trkpt lat="45.20916" lon="5.59964">
        <ele>1568.3</ele>
        <time>2020-02-23T13:43:01.000Z</time>
      </trkpt>
      <trkpt lat="45.20925" lon="5.5997">
        <ele>1568.2</ele>
        <time>2020-02-23T13:43:11.000Z</time>
      </trkpt>
      <trkpt lat="45.2093" lon="5.59971">
        <ele>1547</ele>
        <time>2020-02-23T13:43:03.000Z</time>
      </trkpt>
      <trkpt lat="45.20942" lon="5.59979">
        <ele>1568.2</ele>
        <time>2020-02-23T13:43:13.000Z</time>
      </trkpt>
      <trkpt lat="45.20946" lon="5.59984">
        <ele>1568.2</ele>
        <time>2020-02-23T13:43:23.000Z</time>
      </trkpt>
      <trkpt lat="45.20953" lon="5.59988">
        <ele>1548</ele>
        <time>2020-02-23T13:43:13.000Z</time>
      </trkpt>
      <trkpt lat="45.20956" lon="5.59991">
        <ele>1568.2</ele>
        <time>2020-02-23T13:43:23.000Z</time>
      </trkpt>
      <trkpt lat="45.20957" lon="5.59994">
        <ele>1568.2</ele>
        <time>2020-02-23T13:43:33.000Z</time>
      </trkpt>
      <trkpt lat="45.2096" lon="5.60003">
        <ele>1567.3</ele>
        <time>2020-02-23T13:43:43.000Z</time>
      </trkpt>
      <trkpt lat="45.20964" lon="5.60009">
        <ele>1567.2</ele>
        <time>2020-02-23T13:43:53.000Z</time>
      </trkpt>
      <trkpt lat="45.20967" lon="5.60013">
        <ele>1553</ele>
        <time>2020-02-23T13:43:22.000Z</time>
      </trkpt>
      <trkpt lat="45.20971" lon="5.60016">
        <ele>1567.1</ele>
        <time>2020-02-23T13:43:32.000Z</time>
      </trkpt>
      <trkpt lat="45.20976" lon="5.60023">
        <ele>1567</ele>
        <time>2020-02-23T13:43:42.000Z</time>
      </trkpt>
      <trkpt lat="45.20983" lon="5.60026">
        <ele>1566.9</ele>
        <time>2020-02-23T13:43:52.000Z</time>
      </trkpt>
      <trkpt lat="45.20985" lon="5.60029">
        <ele>1556</ele>
        <time>2020-02-23T13:43:31.000Z</time>
      </trkpt>
      <trkpt lat="45.20989" lon="5.60034">
        <ele>1566.7</ele>
        <time>2020-02-23T13:43:41.000Z</time>
      </trkpt>
      <trkpt lat="45.20991" lon="5.60038">
        <ele>1566.6</ele>
        <time>2020-02-23T13:43:51.000Z</time>
      </trkpt>
      <trkpt lat="45.20994" lon="5.60043">
        <ele>1566.4</ele>
        <time>2020-02-23T13:44:01.000Z</time>
      </trkpt>
      <trkpt lat="45.20998" lon="5.60051">
        <ele>1559</ele>
        <time>2020-02-23T13:43:40.000Z</time>
      </trkpt>
      <trkpt lat="45.21006" lon="5.60065">
        <ele>1566.8</ele>
        <time>2020-02-23T13:43:50.000Z</time>
      </trkpt>
      <trkpt lat="45.2101" lon="5.60075">
        <ele>1558</ele>
        <time>2020-02-23T13:43:48.000Z</time>
      </trkpt>
      <trkpt lat="45.21016" lon="5.60087">
        <ele>1563.6</ele>
        <time>2020-02-23T13:43:58.000Z</time>
      </trkpt>
      <trkpt lat="45.2102" lon="5.60097">
        <ele>1563.7</ele>
        <time>2020-02-23T13:44:08.000Z</time>
      </trkpt>
      <trkpt lat="45.21026" lon="5.60105">
        <ele>1558</ele>
        <time>2020-02-23T13:43:57.000Z</time>
      </trkpt>
      <trkpt lat="45.21028" lon="5.60111">
        <ele>1563.8</ele>
        <time>2020-02-23T13:44:07.000Z</time>
      </trkpt>
      <trkpt lat="45.21032" lon="5.60117">
        <ele>1563.7</ele>
        <time>2020-02-23T13:44:17.000Z</time>
      </trkpt>
      <trkpt lat="45.21033" lon="5.60123">
        <ele>1563.6</ele>
        <time>2020-02-23T13:44:27.000Z</time>
      </trkpt>
      <trkpt lat="45.21034" lon="5.60127">
        <ele>1563.5</ele>
        <time>2020-02-23T13:44:37.000Z</time>
      </trkpt>
      <trkpt lat="45.21033" lon="5.60142">
        <ele>1558</ele>
        <time>2020-02-23T13:44:10.000Z</time>
      </trkpt>
      <trkpt lat="45.21034" lon="5.60156">
        <ele>1562.5</ele>
        <time>2020-02-23T13:44:20.000Z</time>
      </trkpt>
      <trkpt lat="45.21036" lon="5.60169">
        <ele>1559</ele>
        <time>2020-02-23T13:44:18.000Z</time>
      </trkpt>
      <trkpt lat="45.21039" lon="5.60179">
        <ele>1559.6</ele>
        <time>2020-02-23T13:44:28.000Z</time>
      </trkpt>
      <trkpt lat="45.21042" lon="5.60185">
        <ele>1559.6</ele>
        <time>2020-02-23T13:44:38.000Z</time>
      </trkpt>
      <trkpt lat="45.21045" lon="5.60185">
        <ele>1559.6</ele>
        <time>2020-02-23T13:44:48.000Z</time>
      </trkpt>
      <trkpt lat="45.21049" lon="5.60182">
        <ele>1559</ele>
        <time>2020-02-23T13:44:30.000Z</time>
      </trkpt>
      <trkpt lat="45.21052" lon="5.6018">
        <ele>1559.7</ele>
        <time>2020-02-23T13:44:40.000Z</time>
      </trkpt>
      <trkpt lat="45.21054" lon="5.60181">
        <ele>1559.7</ele>
        <time>2020-02-23T13:44:50.000Z</time>
      </trkpt>
      <trkpt lat="45.21058" lon="5.60187">
        <ele>1559.7</ele>
        <time>2020-02-23T13:45:00.000Z</time>
      </trkpt>
      <trkpt lat="45.21059" lon="5.6019">
        <ele>1559.6</ele>
        <time>2020-02-23T13:45:10.000Z</time>
      </trkpt>
      <trkpt lat="45.21062" lon="5.60194">
        <ele>1559.5</ele>
        <time>2020-02-23T13:45:20.000Z</time>
      </trkpt>
      <trkpt lat="45.21064" lon="5.602">
        <ele>1557</ele>
        <time>2020-02-23T13:44:41.000Z</time>
      </trkpt>
      <trkpt lat="45.21075" lon="5.6022">
        <ele>1558.8</ele>
        <time>2020-02-23T13:44:51.000Z</time>
      </trkpt>
      <trkpt lat="45.21077" lon="5.60227">
        <ele>1556</ele>
        <time>2020-02-23T13:44:50.000Z</time>
      </trkpt>
      <trkpt lat="45.21083" lon="5.60239">
        <ele>1557.8</ele>
        <time>2020-02-23T13:45:00.000Z</time>
      </trkpt>
      <trkpt lat="45.21085" lon="5.60241">
        <ele>1557.8</ele>
        <time>2020-02-23T13:45:10.000Z</time>
      </trkpt>
      <trkpt lat="45.21088" lon="5.60251">
        <ele>1552</ele>
        <time>2020-02-23T13:45:03.000Z</time>
      </trkpt>
      <trkpt lat="45.2109" lon="5.60259">
        <ele>1556.2</ele>
        <time>2020-02-23T13:45:13.000Z</time>
      </trkpt>
      <trkpt lat="45.21092" lon="5.60263">
        <ele>1556</ele>
        <time>2020-02-23T13:45:23.000Z</time>
      </trkpt>
      <trkpt lat="45.21095" lon="5.60272">
        <ele>1555.6</ele>
        <time>2020-02-23T13:45:33.000Z</time>
      </trkpt>
      <trkpt lat="45.21099" lon="5.60276">
        <ele>1552</ele>
        <time>2020-02-23T13:45:16.000Z</time>
      </trkpt>
      <trkpt lat="45.21103" lon="5.60278">
        <ele>1555.3</ele>
        <time>2020-02-23T13:45:26.000Z</time>
      </trkpt>
      <trkpt lat="45.21111" lon="5.60279">
        <ele>1555.1</ele>
        <time>2020-02-23T13:45:36.000Z</time>
      </trkpt>
      <trkpt lat="45.21118" lon="5.60283">
        <ele>1548</ele>
        <time>2020-02-23T13:45:25.000Z</time>
      </trkpt>
      <trkpt lat="45.21121" lon="5.60284">
        <ele>1554.7</ele>
        <time>2020-02-23T13:45:35.000Z</time>
      </trkpt>
      <trkpt lat="45.21127" lon="5.60289">
        <ele>1554.5</ele>
        <time>2020-02-23T13:45:45.000Z</time>
      </trkpt>
      <trkpt lat="45.21134" lon="5.60301">
        <ele>1543</ele>
        <time>2020-02-23T13:45:31.000Z</time>
      </trkpt>
      <trkpt lat="45.21136" lon="5.60303">
        <ele>1553.9</ele>
        <time>2020-02-23T13:45:41.000Z</time>
      </trkpt>
      <trkpt lat="45.21138" lon="5.60305">
        <ele>1553.7</ele>
        <time>2020-02-23T13:45:51.000Z</time>
      </trkpt>
      <trkpt lat="45.21142" lon="5.60308">
        <ele>1553.4</ele>
        <time>2020-02-23T13:46:01.000Z</time>
      </trkpt>
      <trkpt lat="45.21149" lon="5.60314">
        <ele>1552.7</ele>
        <time>2020-02-23T13:46:11.000Z</time>
      </trkpt>
      <trkpt lat="45.21151" lon="5.6032">
        <ele>1543</ele>
        <time>2020-02-23T13:45:41.000Z</time>
      </trkpt>
      <trkpt lat="45.21155" lon="5.60337">
        <ele>1550.5</ele>
        <time>2020-02-23T13:45:51.000Z</time>
      </trkpt>
      <trkpt lat="45.21159" lon="5.60346">
        <ele>1544</ele>
        <time>2020-02-23T13:45:48.000Z</time>
      </trkpt>
      <trkpt lat="45.21169" lon="5.60355">
        <ele>1548.3</ele>
        <time>2020-02-23T13:45:58.000Z</time>
      </trkpt>
      <trkpt lat="45.21173" lon="5.60357">
        <ele>1548.2</ele>
        <time>2020-02-23T13:46:08.000Z</time>
      </trkpt>
      <trkpt lat="45.21179" lon="5.60361">
        <ele>1545</ele>
        <time>2020-02-23T13:46:00.000Z</time>
      </trkpt>
      <trkpt lat="45.21185" lon="5.60363">
        <ele>1548</ele>
        <time>2020-02-23T13:46:10.000Z</time>
      </trkpt>
      <trkpt lat="45.21187" lon="5.60363">
        <ele>1547.9</ele>
        <time>2020-02-23T13:46:20.000Z</time>
      </trkpt>
      <trkpt lat="45.21191" lon="5.60359">
        <ele>1547.9</ele>
        <time>2020-02-23T13:46:30.000Z</time>
      </trkpt>
      <trkpt lat="45.21193" lon="5.60359">
        <ele>1547.8</ele>
        <time>2020-02-23T13:46:40.000Z</time>
      </trkpt>
      <trkpt lat="45.21199" lon="5.60359">
        <ele>1551</ele>
        <time>2020-02-23T13:46:10.000Z</time>
      </trkpt>
      <trkpt lat="45.21202" lon="5.60361">
        <ele>1547.6</ele>
        <time>2020-02-23T13:46:20.000Z</time>
      </trkpt>
      <trkpt lat="45.2121" lon="5.60369">
        <ele>1547.4</ele>
        <time>2020-02-23T13:46:30.000Z</time>
      </trkpt>
      <trkpt lat="45.2122" lon="5.60385">
        <ele>1555</ele>
        <time>2020-02-23T13:46:20.000Z</time>
      </trkpt>
      <trkpt lat="45.21228" lon="5.60391">
        <ele>1547.1</ele>
        <time>2020-02-23T13:46:30.000Z</time>
      </trkpt>
      <trkpt lat="45.21232" lon="5.60393">
        <ele>1547</ele>
        <time>2020-02-23T13:46:40.000Z</time>
      </trkpt>
      <trkpt lat="45.21238" lon="5.60395">
        <ele>1555</ele>
        <time>2020-02-23T13:46:29.000Z</time>
      </trkpt>
      <trkpt lat="45.21247" lon="5.60395">
        <ele>1546.7</ele>
        <time>2020-02-23T13:46:39.000Z</time>
      </trkpt>
      <trkpt lat="45.21267" lon="5.60406">
        <ele>1554</ele>
        <time>2020-02-23T13:46:43.000Z</time>
      </trkpt>
      <trkpt lat="45.21277" lon="5.60414">
        <ele>1541.3</ele>
        <time>2020-02-23T13:46:53.000Z</time>
      </trkpt>
      <trkpt lat="45.2129" lon="5.60432">
        <ele>1554</ele>
        <time>2020-02-23T13:46:57.000Z</time>
      </trkpt>
      <trkpt lat="45.21291" lon="5.60434">
        <ele>1542.6</ele>
        <time>2020-02-23T13:47:07.000Z</time>
      </trkpt>
      <trkpt lat="45.21293" lon="5.60443">
        <ele>1542.7</ele>
        <time>2020-02-23T13:47:17.000Z</time>
      </trkpt>
      <trkpt lat="45.21292" lon="5.60448">
        <ele>1542.9</ele>
        <time>2020-02-23T13:47:27.000Z</time>
      </trkpt>
      <trkpt lat="45.21292" lon="5.60456">
        <ele>1543.2</ele>
        <time>2020-02-23T13:47:37.000Z</time>
      </trkpt>
      <trkpt lat="45.21298" lon="5.60477">
        <ele>1554</ele>
        <time>2020-02-23T13:47:12.000Z</time>
      </trkpt>
      <trkpt lat="45.21298" lon="5.60481">
        <ele>1543.6</ele>
        <time>2020-02-23T13:47:22.000Z</time>
      </trkpt>
      <trkpt lat="45.21296" lon="5.60485">
        <ele>1543.8</ele>
        <time>2020-02-23T13:47:32.000Z</time>
      </trkpt>
      <trkpt lat="45.21299" lon="5.60494">
        <ele>1543.8</ele>
        <time>2020-02-23T13:47:42.000Z</time>
      </trkpt>
      <trkpt lat="45.21298" lon="5.60501">
        <ele>1548.3</ele>
        <time>2020-02-23T13:47:52.000Z</time>
      </trkpt>
      <trkpt lat="45.21296" lon="5.60505">
        <ele>1555</ele>
        <time>2020-02-23T13:47:31.000Z</time>
      </trkpt>
      <trkpt lat="45.21295" lon="5.60508">
        <ele>1548.6</ele>
        <time>2020-02-23T13:47:41.000Z</time>
      </trkpt>
      <trkpt lat="45.21296" lon="5.6051">
        <ele>1548.6</ele>
        <time>2020-02-23T13:47:51.000Z</time>
      </trkpt>
      <trkpt lat="45.21296" lon="5.60514">
        <ele>1548.8</ele>
        <time>2020-02-23T13:48:01.000Z</time>
      </trkpt>
      <trkpt lat="45.21292" lon="5.60527">
        <ele>1549.5</ele>
        <time>2020-02-23T13:48:11.000Z</time>
      </trkpt>
      <trkpt lat="45.21293" lon="5.60533">
        <ele>1558</ele>
        <time>2020-02-23T13:47:49.000Z</time>
      </trkpt>
      <trkpt lat="45.21299" lon="5.60544">
        <ele>1550.2</ele>
        <time>2020-02-23T13:47:59.000Z</time>
      </trkpt>
      <trkpt lat="45.21299" lon="5.60548">
        <ele>1550.4</ele>
        <time>2020-02-23T13:48:09.000Z</time>
      </trkpt>
      <trkpt lat="45.21299" lon="5.60558">
        <ele>1553</ele>
        <time>2020-02-23T13:48:03.000Z</time>
      </trkpt>
      <trkpt lat="45.21306" lon="5.60565">
        <ele>1551.1</ele>
        <time>2020-02-23T13:48:13.000Z</time>
      </trkpt>
      <trkpt lat="45.21308" lon="5.6057">
        <ele>1551.3</ele>
        <time>2020-02-23T13:48:23.000Z</time>
      </trkpt>
      <trkpt lat="45.21309" lon="5.60575">
        <ele>1551.5</ele>
        <time>2020-02-23T13:48:33.000Z</time>
      </trkpt>
      <trkpt lat="45.21309" lon="5.60579">
        <ele>1551.6</ele>
        <time>2020-02-23T13:48:43.000Z</time>
      </trkpt>
      <trkpt lat="45.21305" lon="5.60593">
        <ele>1555</ele>
        <time>2020-02-23T13:48:23.000Z</time>
      </trkpt>
      <trkpt lat="45.21304" lon="5.60595">
        <ele>1555.4</ele>
        <time>2020-02-23T13:48:33.000Z</time>
      </trkpt>
      <trkpt lat="45.21299" lon="5.60603">
        <ele>1555.7</ele>
        <time>2020-02-23T13:48:43.000Z</time>
      </trkpt>
      <trkpt lat="45.21297" lon="5.60612">
        <ele>1555.9</ele>
        <time>2020-02-23T13:48:53.000Z</time>
      </trkpt>
      <trkpt lat="45.21298" lon="5.60615">
        <ele>1556</ele>
        <time>2020-02-23T13:49:03.000Z</time>
      </trkpt>
      <trkpt lat="45.21297" lon="5.60619">
        <ele>1555</ele>
        <time>2020-02-23T13:48:39.000Z</time>
      </trkpt>
      <trkpt lat="45.21291" lon="5.60624">
        <ele>1556.2</ele>
        <time>2020-02-23T13:48:49.000Z</time>
      </trkpt>
      <trkpt lat="45.21289" lon="5.60627">
        <ele>1556.3</ele>
        <time>2020-02-23T13:48:59.000Z</time>
      </trkpt>
      <trkpt lat="45.21275" lon="5.60633">
        <ele>1555</ele>
        <time>2020-02-23T13:48:54.000Z</time>
      </trkpt>
      <trkpt lat="45.21272" lon="5.60637">
        <ele>1556.3</ele>
        <time>2020-02-23T13:49:04.000Z</time>
      </trkpt>
      <trkpt lat="45.21271" lon="5.60639">
        <ele>1556.3</ele>
        <time>2020-02-23T13:49:14.000Z</time>
      </trkpt>
      <trkpt lat="45.21269" lon="5.60646">
        <ele>1556.3</ele>
        <time>2020-02-23T13:49:24.000Z</time>
      </trkpt>
      <trkpt lat="45.21266" lon="5.60651">
        <ele>1556.3</ele>
        <time>2020-02-23T13:49:34.000Z</time>
      </trkpt>
      <trkpt lat="45.21261" lon="5.6066">
        <ele>1557</ele>
        <time>2020-02-23T13:49:05.000Z</time>
      </trkpt>
      <trkpt lat="45.21258" lon="5.60667">
        <ele>1557.5</ele>
        <time>2020-02-23T13:49:15.000Z</time>
      </trkpt>
      <trkpt lat="45.21254" lon="5.60674">
        <ele>1557.6</ele>
        <time>2020-02-23T13:49:25.000Z</time>
      </trkpt>
      <trkpt lat="45.21253" lon="5.60678">
        <ele>1558.1</ele>
        <time>2020-02-23T13:49:35.000Z</time>
      </trkpt>
      <trkpt lat="45.21251" lon="5.60681">
        <ele>1558.4</ele>
        <time>2020-02-23T13:49:45.000Z</time>
      </trkpt>
      <trkpt lat="45.21243" lon="5.60688">
        <ele>1557</ele>
        <time>2020-02-23T13:49:18.000Z</time>
      </trkpt>
      <trkpt lat="45.21233" lon="5.60692">
        <ele>1556</ele>
        <time>2020-02-23T13:49:28.000Z</time>
      </trkpt>
      <trkpt lat="45.21227" lon="5.60693">
        <ele>1555.9</ele>
        <time>2020-02-23T13:49:38.000Z</time>
      </trkpt>
      <trkpt lat="45.21213" lon="5.60694">
        <ele>1549</ele>
        <time>2020-02-23T13:49:31.000Z</time>
      </trkpt>
      <trkpt lat="45.21194" lon="5.607">
        <ele>1544</ele>
        <time>2020-02-23T13:49:38.000Z</time>
      </trkpt>
      <trkpt lat="45.21181" lon="5.607">
        <ele>1554.4</ele>
        <time>2020-02-23T13:49:48.000Z</time>
      </trkpt>
      <trkpt lat="45.21171" lon="5.60699">
        <ele>1539</ele>
        <time>2020-02-23T13:49:45.000Z</time>
      </trkpt>
      <trkpt lat="45.21163" lon="5.60704">
        <ele>1549.3</ele>
        <time>2020-02-23T13:49:55.000Z</time>
      </trkpt>
      <trkpt lat="45.21154" lon="5.60706">
        <ele>1549.1</ele>
        <time>2020-02-23T13:50:05.000Z</time>
      </trkpt>
      <trkpt lat="45.21143" lon="5.6071">
        <ele>1540</ele>
        <time>2020-02-23T13:49:57.000Z</time>
      </trkpt>
      <trkpt lat="45.21128" lon="5.60714">
        <ele>1548</ele>
        <time>2020-02-23T13:50:07.000Z</time>
      </trkpt>
      <trkpt lat="45.21124" lon="5.60716">
        <ele>1541</ele>
        <time>2020-02-23T13:50:06.000Z</time>
      </trkpt>
      <trkpt lat="45.2112" lon="5.6072">
        <ele>1547.5</ele>
        <time>2020-02-23T13:50:16.000Z</time>
      </trkpt>
      <trkpt lat="45.21116" lon="5.60724">
        <ele>1547.2</ele>
        <time>2020-02-23T13:50:26.000Z</time>
      </trkpt>
      <trkpt lat="45.2111" lon="5.6073">
        <ele>1546.7</ele>
        <time>2020-02-23T13:50:36.000Z</time>
      </trkpt>
      <trkpt lat="45.211" lon="5.60735">
        <ele>1541</ele>
        <time>2020-02-23T13:50:17.000Z</time>
      </trkpt>
      <trkpt lat="45.21093" lon="5.6074">
        <ele>1544.6</ele>
        <time>2020-02-23T13:50:27.000Z</time>
      </trkpt>
      <trkpt lat="45.21081" lon="5.60755">
        <ele>1533</ele>
        <time>2020-02-23T13:50:25.000Z</time>
      </trkpt>
      <trkpt lat="45.21078" lon="5.60758">
        <ele>1541.9</ele>
        <time>2020-02-23T13:50:35.000Z</time>
      </trkpt>
      <trkpt lat="45.21062" lon="5.60765">
        <ele>1524</ele>
        <time>2020-02-23T13:50:31.000Z</time>
      </trkpt>
      <trkpt lat="45.21054" lon="5.60766">
        <ele>1541</ele>
        <time>2020-02-23T13:50:41.000Z</time>
      </trkpt>
      <trkpt lat="45.21049" lon="5.60768">
        <ele>1540.8</ele>
        <time>2020-02-23T13:50:51.000Z</time>
      </trkpt>
      <trkpt lat="45.21041" lon="5.60775">
        <ele>1518</ele>
        <time>2020-02-23T13:50:38.000Z</time>
      </trkpt>
      <trkpt lat="45.2103" lon="5.60781">
        <ele>1540</ele>
        <time>2020-02-23T13:50:48.000Z</time>
      </trkpt>
      <trkpt lat="45.21022" lon="5.60782">
        <ele>1518</ele>
        <time>2020-02-23T13:50:42.000Z</time>
      </trkpt>
      <trkpt lat="45.21007" lon="5.60785">
        <ele>1538.9</ele>
        <time>2020-02-23T13:50:52.000Z</time>
      </trkpt>
      <trkpt lat="45.21002" lon="5.60785">
        <ele>1511</ele>
        <time>2020-02-23T13:50:52.000Z</time>
      </trkpt>
      <trkpt lat="45.20994" lon="5.60788">
        <ele>1530.9</ele>
        <time>2020-02-23T13:51:02.000Z</time>
      </trkpt>
      <trkpt lat="45.20988" lon="5.60791">
        <ele>1530.7</ele>
        <time>2020-02-23T13:51:12.000Z</time>
      </trkpt>
      <trkpt lat="45.20986" lon="5.60794">
        <ele>1530.7</ele>
        <time>2020-02-23T13:51:22.000Z</time>
      </trkpt>
      <trkpt lat="45.20982" lon="5.60797">
        <ele>1510</ele>
        <time>2020-02-23T13:51:03.000Z</time>
      </trkpt>
      <trkpt lat="45.20976" lon="5.60799">
        <ele>1530.1</ele>
        <time>2020-02-23T13:51:13.000Z</time>
      </trkpt>
      <trkpt lat="45.20971" lon="5.60802">
        <ele>1529.8</ele>
        <time>2020-02-23T13:51:23.000Z</time>
      </trkpt>
      <trkpt lat="45.20968" lon="5.60803">
        <ele>1529.5</ele>
        <time>2020-02-23T13:51:33.000Z</time>
      </trkpt>
      <trkpt lat="45.20964" lon="5.60807">
        <ele>1510</ele>
        <time>2020-02-23T13:51:10.000Z</time>
      </trkpt>
      <trkpt lat="45.2096" lon="5.60811">
        <ele>1528.8</ele>
        <time>2020-02-23T13:51:20.000Z</time>
      </trkpt>
      <trkpt lat="45.20954" lon="5.60821">
        <ele>1528</ele>
        <time>2020-02-23T13:51:30.000Z</time>
      </trkpt>
      <trkpt lat="45.20949" lon="5.60829">
        <ele>1508</ele>
        <time>2020-02-23T13:51:19.000Z</time>
      </trkpt>
      <trkpt lat="45.20939" lon="5.60838">
        <ele>1527.1</ele>
        <time>2020-02-23T13:51:29.000Z</time>
      </trkpt>
      <trkpt lat="45.20933" lon="5.60845">
        <ele>1499</ele>
        <time>2020-02-23T13:51:27.000Z</time>
      </trkpt>
      <trkpt lat="45.20931" lon="5.6085">
        <ele>1526.6</ele>
        <time>2020-02-23T13:51:37.000Z</time>
      </trkpt>
      <trkpt lat="45.20921" lon="5.60861">
        <ele>1526.8</ele>
        <time>2020-02-23T13:51:47.000Z</time>
      </trkpt>
      <trkpt lat="45.20915" lon="5.60867">
        <ele>1498</ele>
        <time>2020-02-23T13:51:37.000Z</time>
      </trkpt>
      <trkpt lat="45.20908" lon="5.60878">
        <ele>1514.4</ele>
        <time>2020-02-23T13:51:47.000Z</time>
      </trkpt>
      <trkpt lat="45.20905" lon="5.60881">
        <ele>1514.2</ele>
        <time>2020-02-23T13:51:57.000Z</time>
      </trkpt>
      <trkpt lat="45.20899" lon="5.60887">
        <ele>1486</ele>
        <time>2020-02-23T13:51:46.000Z</time>
      </trkpt>
      <trkpt lat="45.20893" lon="5.60893">
        <ele>1513.6</ele>
        <time>2020-02-23T13:51:56.000Z</time>
      </trkpt>
      <trkpt lat="45.20885" lon="5.60906">
        <ele>1486</ele>
        <time>2020-02-23T13:51:54.000Z</time>
      </trkpt>
      <trkpt lat="45.20869" lon="5.6092">
        <ele>1505.3</ele>
        <time>2020-02-23T13:52:04.000Z</time>
      </trkpt>
      <trkpt lat="45.20863" lon="5.60931">
        <ele>1482</ele>
        <time>2020-02-23T13:52:08.000Z</time>
      </trkpt>
      <trkpt lat="45.20867" lon="5.60931">
        <ele>1504.6</ele>
        <time>2020-02-23T13:52:18.000Z</time>
      </trkpt>
      <trkpt lat="45.20873" lon="5.60937">
        <ele>1505</ele>
        <time>2020-02-23T13:52:28.000Z</time>
      </trkpt>
      <trkpt lat="45.20873" lon="5.6094">
        <ele>1504.8</ele>
        <time>2020-02-23T13:52:38.000Z</time>
      </trkpt>
      <trkpt lat="45.20875" lon="5.60943">
        <ele>1504.8</ele>
        <time>2020-02-23T13:52:48.000Z</time>
      </trkpt>
      <trkpt lat="45.20881" lon="5.60946">
        <ele>1479</ele>
        <time>2020-02-23T13:52:39.000Z</time>
      </trkpt>
      <trkpt lat="45.20886" lon="5.6095">
        <ele>1505.7</ele>
        <time>2020-02-23T13:52:49.000Z</time>
      </trkpt>
      <trkpt lat="45.20889" lon="5.60955">
        <ele>1505.6</ele>
        <time>2020-02-23T13:52:59.000Z</time>
      </trkpt>
      <trkpt lat="45.2089" lon="5.60966">
        <ele>1504.8</ele>
        <time>2020-02-23T13:53:09.000Z</time>
      </trkpt>
      <trkpt lat="45.20889" lon="5.6097">
        <ele>1473</ele>
        <time>2020-02-23T13:53:00.000Z</time>
      </trkpt>
      <trkpt lat="45.20877" lon="5.60999">
        <ele>1469</ele>
        <time>2020-02-23T13:53:12.000Z</time>
      </trkpt>
      <trkpt lat="45.2087" lon="5.61007">
        <ele>1491.4</ele>
        <time>2020-02-23T13:53:22.000Z</time>
      </trkpt>
      <trkpt lat="45.20867" lon="5.61009">
        <ele>1490.7</ele>
        <time>2020-02-23T13:53:32.000Z</time>
      </trkpt>
      <trkpt lat="45.20865" lon="5.61012">
        <ele>1490.2</ele>
        <time>2020-02-23T13:53:42.000Z</time>
      </trkpt>
      <trkpt lat="45.20862" lon="5.61019">
        <ele>1469</ele>
        <time>2020-02-23T13:53:32.000Z</time>
      </trkpt>
      <trkpt lat="45.20855" lon="5.61028">
        <ele>1488.1</ele>
        <time>2020-02-23T13:53:42.000Z</time>
      </trkpt>
      <trkpt lat="45.20852" lon="5.61033">
        <ele>1487.5</ele>
        <time>2020-02-23T13:53:52.000Z</time>
      </trkpt>
      <trkpt lat="45.20849" lon="5.61043">
        <ele>1467</ele>
        <time>2020-02-23T13:53:44.000Z</time>
      </trkpt>
      <trkpt lat="45.20843" lon="5.61053">
        <ele>1483.6</ele>
        <time>2020-02-23T13:53:54.000Z</time>
      </trkpt>
      <trkpt lat="45.20839" lon="5.61065">
        <ele>1479.5</ele>
        <time>2020-02-23T13:54:04.000Z</time>
      </trkpt>
      <trkpt lat="45.20838" lon="5.61071">
        <ele>1460</ele>
        <time>2020-02-23T13:53:53.000Z</time>
      </trkpt>
      <trkpt lat="45.20837" lon="5.61083">
        <ele>1470.4</ele>
        <time>2020-02-23T13:54:03.000Z</time>
      </trkpt>
      <trkpt lat="45.20837" lon="5.61096">
        <ele>1473.1</ele>
        <time>2020-02-23T13:54:13.000Z</time>
      </trkpt>
      <trkpt lat="45.20835" lon="5.61105">
        <ele>1456</ele>
        <time>2020-02-23T13:54:07.000Z</time>
      </trkpt>
      <trkpt lat="45.20835" lon="5.61114">
        <ele>1475.7</ele>
        <time>2020-02-23T13:54:17.000Z</time>
      </trkpt>
      <trkpt lat="45.20834" lon="5.61117">
        <ele>1475.8</ele>
        <time>2020-02-23T13:54:27.000Z</time>
      </trkpt>
      <trkpt lat="45.20833" lon="5.61119">
        <ele>1457.5</ele>
        <time>2020-02-23T13:54:37.000Z</time>
      </trkpt>
      <trkpt lat="45.2083" lon="5.61122">
        <ele>1457.1</ele>
        <time>2020-02-23T13:54:47.000Z</time>
      </trkpt>
      <trkpt lat="45.20826" lon="5.61131">
        <ele>1453</ele>
        <time>2020-02-23T13:54:20.000Z</time>
      </trkpt>
      <trkpt lat="45.20819" lon="5.61139">
        <ele>1455.7</ele>
        <time>2020-02-23T13:54:30.000Z</time>
      </trkpt>
      <trkpt lat="45.20814" lon="5.61142">
        <ele>1455.2</ele>
        <time>2020-02-23T13:54:40.000Z</time>
      </trkpt>
      <trkpt lat="45.20812" lon="5.61146">
        <ele>1455</ele>
        <time>2020-02-23T13:54:50.000Z</time>
      </trkpt>
      <trkpt lat="45.20812" lon="5.6115">
        <ele>1441</ele>
        <time>2020-02-23T13:54:34.000Z</time>
      </trkpt>
      <trkpt lat="45.20813" lon="5.61164">
        <ele>1455.5</ele>
        <time>2020-02-23T13:54:44.000Z</time>
      </trkpt>
      <trkpt lat="45.20812" lon="5.61172">
        <ele>1450</ele>
        <time>2020-02-23T13:54:54.000Z</time>
      </trkpt>
      <trkpt lat="45.20813" lon="5.61178">
        <ele>1440</ele>
        <time>2020-02-23T13:54:49.000Z</time>
      </trkpt>
      <trkpt lat="45.20813" lon="5.6119">
        <ele>1447.9</ele>
        <time>2020-02-23T13:54:59.000Z</time>
      </trkpt>
      <trkpt lat="45.20811" lon="5.61198">
        <ele>1446.6</ele>
        <time>2020-02-23T13:55:09.000Z</time>
      </trkpt>
      <trkpt lat="45.20809" lon="5.61201">
        <ele>1446</ele>
        <time>2020-02-23T13:55:19.000Z</time>
      </trkpt>
      <trkpt lat="45.20806" lon="5.61206">
        <ele>1439</ele>
        <time>2020-02-23T13:55:00.000Z</time>
      </trkpt>
      <trkpt lat="45.20803" lon="5.61212">
        <ele>1444.3</ele>
        <time>2020-02-23T13:55:10.000Z</time>
      </trkpt>
      <trkpt lat="45.20801" lon="5.61223">
        <ele>1443.4</ele>
        <time>2020-02-23T13:55:20.000Z</time>
      </trkpt>
      <trkpt lat="45.20801" lon="5.61241">
        <ele>1431</ele>
        <time>2020-02-23T13:55:10.000Z</time>
      </trkpt>
      <trkpt lat="45.20797" lon="5.61266">
        <ele>1433.6</ele>
        <time>2020-02-23T13:55:20.000Z</time>
      </trkpt>
      <trkpt lat="45.20793" lon="5.61278">
        <ele>1423</ele>
        <time>2020-02-23T13:55:21.000Z</time>
      </trkpt>
      <trkpt lat="45.20792" lon="5.61283">
        <ele>1431.7</ele>
        <time>2020-02-23T13:55:31.000Z</time>
      </trkpt>
      <trkpt lat="45.20792" lon="5.61292">
        <ele>1431</ele>
        <time>2020-02-23T13:55:41.000Z</time>
      </trkpt>
      <trkpt lat="45.20794" lon="5.61299">
        <ele>1430.7</ele>
        <time>2020-02-23T13:55:51.000Z</time>
      </trkpt>
      <trkpt lat="45.20792" lon="5.61308">
        <ele>1422</ele>
        <time>2020-02-23T13:55:34.000Z</time>
      </trkpt>
      <trkpt lat="45.20792" lon="5.61313">
        <ele>1429.5</ele>
        <time>2020-02-23T13:55:44.000Z</time>
      </trkpt>
      <trkpt lat="45.20791" lon="5.61319">
        <ele>1429</ele>
        <time>2020-02-23T13:55:54.000Z</time>
      </trkpt>
      <trkpt lat="45.20789" lon="5.61321">
        <ele>1428.6</ele>
        <time>2020-02-23T13:56:04.000Z</time>
      </trkpt>
      <trkpt lat="45.20787" lon="5.61329">
        <ele>1427.8</ele>
        <time>2020-02-23T13:56:14.000Z</time>
      </trkpt>
      <trkpt lat="45.20786" lon="5.61337">
        <ele>1420</ele>
        <time>2020-02-23T13:55:53.000Z</time>
      </trkpt>
      <trkpt lat="45.20788" lon="5.61349">
        <ele>1418.7</ele>
        <time>2020-02-23T13:56:03.000Z</time>
      </trkpt>
      <trkpt lat="45.20791" lon="5.61357">
        <ele>1418.6</ele>
        <time>2020-02-23T13:56:13.000Z</time>
      </trkpt>
      <trkpt lat="45.20791" lon="5.61372">
        <ele>1420</ele>
        <time>2020-02-23T13:56:10.000Z</time>
      </trkpt>
      <trkpt lat="45.20792" lon="5.61376">
        <ele>1417.2</ele>
        <time>2020-02-23T13:56:20.000Z</time>
      </trkpt>
      <trkpt lat="45.20798" lon="5.6139">
        <ele>1417</ele>
        <time>2020-02-23T13:56:30.000Z</time>
      </trkpt>
      <trkpt lat="45.20799" lon="5.61395">
        <ele>1416.9</ele>
        <time>2020-02-23T13:56:40.000Z</time>
      </trkpt>
      <trkpt lat="45.20799" lon="5.614">
        <ele>1417</ele>
        <time>2020-02-23T13:56:22.000Z</time>
      </trkpt>
      <trkpt lat="45.20796" lon="5.61414">
        <ele>1415.6</ele>
        <time>2020-02-23T13:56:32.000Z</time>
      </trkpt>
      <trkpt lat="45.20793" lon="5.61421">
        <ele>1406.7</ele>
        <time>2020-02-23T13:56:42.000Z</time>
      </trkpt>
      <trkpt lat="45.20791" lon="5.61425">
        <ele>1407</ele>
        <time>2020-02-23T13:56:32.000Z</time>
      </trkpt>
      <trkpt lat="45.20789" lon="5.61437">
        <ele>1405.1</ele>
        <time>2020-02-23T13:56:42.000Z</time>
      </trkpt>
      <trkpt lat="45.2079" lon="5.61449">
        <ele>1404.6</ele>
        <time>2020-02-23T13:56:52.000Z</time>
      </trkpt>
      <trkpt lat="45.2079" lon="5.61453">
        <ele>1397</ele>
        <time>2020-02-23T13:56:45.000Z</time>
      </trkpt>
      <trkpt lat="45.20786" lon="5.61464">
        <ele>1403</ele>
        <time>2020-02-23T13:56:55.000Z</time>
      </trkpt>
      <trkpt lat="45.20786" lon="5.61478">
        <ele>1401.9</ele>
        <time>2020-02-23T13:57:05.000Z</time>
      </trkpt>
      <trkpt lat="45.20785" lon="5.61484">
        <ele>1391</ele>
        <time>2020-02-23T13:56:56.000Z</time>
      </trkpt>
      <trkpt lat="45.20781" lon="5.61494">
        <ele>1399.7</ele>
        <time>2020-02-23T13:57:06.000Z</time>
      </trkpt>
      <trkpt lat="45.20775" lon="5.61502">
        <ele>1389.7</ele>
        <time>2020-02-23T13:57:16.000Z</time>
      </trkpt>
      <trkpt lat="45.2077" lon="5.61512">
        <ele>1385</ele>
        <time>2020-02-23T13:57:05.000Z</time>
      </trkpt>
      <trkpt lat="45.20765" lon="5.61528">
        <ele>1387.4</ele>
        <time>2020-02-23T13:57:15.000Z</time>
      </trkpt>
      <trkpt lat="45.2076" lon="5.61541">
        <ele>1375</ele>
        <time>2020-02-23T13:57:14.000Z</time>
      </trkpt>
      <trkpt lat="45.20754" lon="5.61555">
        <ele>1381.7</ele>
        <time>2020-02-23T13:57:24.000Z</time>
      </trkpt>
      <trkpt lat="45.20749" lon="5.61561">
        <ele>1369.1</ele>
        <time>2020-02-23T13:57:34.000Z</time>
      </trkpt>
      <trkpt lat="45.20748" lon="5.61567">
        <ele>1374</ele>
        <time>2020-02-23T13:57:24.000Z</time>
      </trkpt>
      <trkpt lat="45.20748" lon="5.61569">
        <ele>1368</ele>
        <time>2020-02-23T13:57:34.000Z</time>
      </trkpt>
      <trkpt lat="45.20751" lon="5.61583">
        <ele>1367</ele>
        <time>2020-02-23T13:57:44.000Z</time>
      </trkpt>
      <trkpt lat="45.20756" lon="5.61599">
        <ele>1369</ele>
        <time>2020-02-23T13:57:34.000Z</time>
      </trkpt>
      <trkpt lat="45.20768" lon="5.61629">
        <ele>1365</ele>
        <time>2020-02-23T13:57:43.000Z</time>
      </trkpt>
      <trkpt lat="45.20772" lon="5.61642">
        <ele>1370.6</ele>
        <time>2020-02-23T13:57:53.000Z</time>
      </trkpt>
      <trkpt lat="45.20775" lon="5.61649">
        <ele>1370.4</ele>
        <time>2020-02-23T13:58:03.000Z</time>
      </trkpt>
      <trkpt lat="45.2078" lon="5.61658">
        <ele>1362</ele>
        <time>2020-02-23T13:57:52.000Z</time>
      </trkpt>
      <trkpt lat="45.20784" lon="5.61667">
        <ele>1366.7</ele>
        <time>2020-02-23T13:58:02.000Z</time>
      </trkpt>
      <trkpt lat="45.2079" lon="5.61679">
        <ele>1368.2</ele>
        <time>2020-02-23T13:58:12.000Z</time>
      </trkpt>
      <trkpt lat="45.20792" lon="5.61686">
        <ele>1357</ele>
        <time>2020-02-23T13:58:01.000Z</time>
      </trkpt>
      <trkpt lat="45.20795" lon="5.61705">
        <ele>1368.2</ele>
        <time>2020-02-23T13:58:11.000Z</time>
      </trkpt>
      <trkpt lat="45.20796" lon="5.61708">
        <ele>1368.2</ele>
        <time>2020-02-23T13:58:21.000Z</time>
      </trkpt>
      <trkpt lat="45.20798" lon="5.6171">
        <ele>1368.4</ele>
        <time>2020-02-23T13:58:31.000Z</time>
      </trkpt>
      <trkpt lat="45.20797" lon="5.6171">
        <ele>1357</ele>
        <time>2020-02-23T13:58:39.000Z</time>
      </trkpt>
      <trkpt lat="45.20794" lon="5.61705">
        <ele>1368</ele>
        <time>2020-02-23T13:58:49.000Z</time>
      </trkpt>
      <trkpt lat="45.20792" lon="5.61704">
        <ele>1367.7</ele>
        <time>2020-02-23T13:58:59.000Z</time>
      </trkpt>
      <trkpt lat="45.20785" lon="5.61688">
        <ele>1357</ele>
        <time>2020-02-23T13:59:49.000Z</time>
      </trkpt>
      <trkpt lat="45.20778" lon="5.6168">
        <ele>1365.3</ele>
        <time>2020-02-23T13:59:59.000Z</time>
      </trkpt>
      <trkpt lat="45.20777" lon="5.61686">
        <ele>1365.2</ele>
        <time>2020-02-23T14:00:09.000Z</time>
      </trkpt>
      <trkpt lat="45.20787" lon="5.61689">
        <ele>1357</ele>
        <time>2020-02-23T14:04:14.000Z</time>
      </trkpt>
      <trkpt lat="45.20789" lon="5.61692">
        <ele>1367.6</ele>
        <time>2020-02-23T14:04:24.000Z</time>
      </trkpt>
      <trkpt lat="45.20791" lon="5.61695">
        <ele>1367.9</ele>
        <time>2020-02-23T14:04:34.000Z</time>
      </trkpt>
      <trkpt lat="45.20796" lon="5.61704">
        <ele>1368.4</ele>
        <time>2020-02-23T14:04:44.000Z</time>
      </trkpt>
      <trkpt lat="45.20798" lon="5.6171">
        <ele>1368.4</ele>
        <time>2020-02-23T14:04:54.000Z</time>
      </trkpt>
      <trkpt lat="45.20796" lon="5.61708">
        <ele>1356</ele>
        <time>2020-02-23T14:06:50.000Z</time>
      </trkpt>
      <trkpt lat="45.20791" lon="5.61711">
        <ele>1367.3</ele>
        <time>2020-02-23T14:07:00.000Z</time>
      </trkpt>
      <trkpt lat="45.20789" lon="5.61711">
        <ele>1367</ele>
        <time>2020-02-23T14:07:10.000Z</time>
      </trkpt>
      <trkpt lat="45.20786" lon="5.6171">
        <ele>1366.6</ele>
        <time>2020-02-23T14:07:20.000Z</time>
      </trkpt>
      <trkpt lat="45.20776" lon="5.61711">
        <ele>1356</ele>
        <time>2020-02-23T14:07:04.000Z</time>
      </trkpt>
      <trkpt lat="45.20769" lon="5.61715">
        <ele>1364</ele>
        <time>2020-02-23T14:07:14.000Z</time>
      </trkpt>
      <trkpt lat="45.20753" lon="5.61728">
        <ele>1352</ele>
        <time>2020-02-23T14:07:15.000Z</time>
      </trkpt>
      <trkpt lat="45.20743" lon="5.61732">
        <ele>1350.6</ele>
        <time>2020-02-23T14:07:25.000Z</time>
      </trkpt>
      <trkpt lat="45.20732" lon="5.61736">
        <ele>1349</ele>
        <time>2020-02-23T14:07:24.000Z</time>
      </trkpt>
      <trkpt lat="45.20727" lon="5.61737">
        <ele>1349.3</ele>
        <time>2020-02-23T14:07:34.000Z</time>
      </trkpt>
      <trkpt lat="45.20713" lon="5.61737">
        <ele>1347.5</ele>
        <time>2020-02-23T14:07:44.000Z</time>
      </trkpt>
      <trkpt lat="45.20703" lon="5.61739">
        <ele>1342</ele>
        <time>2020-02-23T14:07:34.000Z</time>
      </trkpt>
      <trkpt lat="45.20684" lon="5.6174">
        <ele>1343</ele>
        <time>2020-02-23T14:07:44.000Z</time>
      </trkpt>
      <trkpt lat="45.20648" lon="5.61745">
        <ele>1333</ele>
        <time>2020-02-23T14:07:56.000Z</time>
      </trkpt>
      <trkpt lat="45.20633" lon="5.61755">
        <ele>1332.5</ele>
        <time>2020-02-23T14:08:06.000Z</time>
      </trkpt>
      <trkpt lat="45.20611" lon="5.61763">
        <ele>1328</ele>
        <time>2020-02-23T14:08:12.000Z</time>
      </trkpt>
      <trkpt lat="45.20606" lon="5.61767">
        <ele>1330</ele>
        <time>2020-02-23T14:08:22.000Z</time>
      </trkpt>
      <trkpt lat="45.206" lon="5.61769">
        <ele>1329.6</ele>
        <time>2020-02-23T14:08:32.000Z</time>
      </trkpt>
      <trkpt lat="45.2059" lon="5.61769">
        <ele>1322</ele>
        <time>2020-02-23T14:08:24.000Z</time>
      </trkpt>
      <trkpt lat="45.20583" lon="5.61772">
        <ele>1320.9</ele>
        <time>2020-02-23T14:08:34.000Z</time>
      </trkpt>
      <trkpt lat="45.20574" lon="5.61768">
        <ele>1320.8</ele>
        <time>2020-02-23T14:08:44.000Z</time>
      </trkpt>
      <trkpt lat="45.20562" lon="5.61759">
        <ele>1321</ele>
        <time>2020-02-23T14:08:41.000Z</time>
      </trkpt>
      <trkpt lat="45.20556" lon="5.61761">
        <ele>1318.7</ele>
        <time>2020-02-23T14:08:51.000Z</time>
      </trkpt>
      <trkpt lat="45.20548" lon="5.6176">
        <ele>1317.6</ele>
        <time>2020-02-23T14:09:01.000Z</time>
      </trkpt>
      <trkpt lat="45.20542" lon="5.61758">
        <ele>1318</ele>
        <time>2020-02-23T14:08:52.000Z</time>
      </trkpt>
      <trkpt lat="45.20527" lon="5.61758">
        <ele>1314.7</ele>
        <time>2020-02-23T14:09:02.000Z</time>
      </trkpt>
      <trkpt lat="45.20509" lon="5.61754">
        <ele>1314</ele>
        <time>2020-02-23T14:09:04.000Z</time>
      </trkpt>
      <trkpt lat="45.20496" lon="5.61752">
        <ele>1307.8</ele>
        <time>2020-02-23T14:09:14.000Z</time>
      </trkpt>
      <trkpt lat="45.20483" lon="5.61753">
        <ele>1305</ele>
        <time>2020-02-23T14:09:13.000Z</time>
      </trkpt>
      <trkpt lat="45.20471" lon="5.61751">
        <ele>1297.5</ele>
        <time>2020-02-23T14:09:23.000Z</time>
      </trkpt>
      <trkpt lat="45.20464" lon="5.61752">
        <ele>1305</ele>
        <time>2020-02-23T14:09:22.000Z</time>
      </trkpt>
      <trkpt lat="45.20451" lon="5.61751">
        <ele>1292.7</ele>
        <time>2020-02-23T14:09:32.000Z</time>
      </trkpt>
      <trkpt lat="45.20439" lon="5.61753">
        <ele>1281</ele>
        <time>2020-02-23T14:09:33.000Z</time>
      </trkpt>
      <trkpt lat="45.20431" lon="5.61757">
        <ele>1288.9</ele>
        <time>2020-02-23T14:09:43.000Z</time>
      </trkpt>
      <trkpt lat="45.20428" lon="5.61755">
        <ele>1288.4</ele>
        <time>2020-02-23T14:09:53.000Z</time>
      </trkpt>
      <trkpt lat="45.20427" lon="5.61753">
        <ele>1288.1</ele>
        <time>2020-02-23T14:10:03.000Z</time>
      </trkpt>
      <trkpt lat="45.20423" lon="5.61751">
        <ele>1287.3</ele>
        <time>2020-02-23T14:10:13.000Z</time>
      </trkpt>
      <trkpt lat="45.20417" lon="5.61751">
        <ele>1281</ele>
        <time>2020-02-23T14:09:46.000Z</time>
      </trkpt>
      <trkpt lat="45.2041" lon="5.61752">
        <ele>1280.1</ele>
        <time>2020-02-23T14:09:56.000Z</time>
      </trkpt>
      <trkpt lat="45.20405" lon="5.61754">
        <ele>1276.5</ele>
        <time>2020-02-23T14:10:06.000Z</time>
      </trkpt>
      <trkpt lat="45.20396" lon="5.61754">
        <ele>1278</ele>
        <time>2020-02-23T14:10:00.000Z</time>
      </trkpt>
      <trkpt lat="45.20378" lon="5.61749">
        <ele>1273.3</ele>
        <time>2020-02-23T14:10:10.000Z</time>
      </trkpt>
      <trkpt lat="45.20362" lon="5.61749">
        <ele>1276</ele>
        <time>2020-02-23T14:10:17.000Z</time>
      </trkpt>
      <trkpt lat="45.20356" lon="5.61747">
        <ele>1266.1</ele>
        <time>2020-02-23T14:10:27.000Z</time>
      </trkpt>
      <trkpt lat="45.20351" lon="5.61744">
        <ele>1264.4</ele>
        <time>2020-02-23T14:10:37.000Z</time>
      </trkpt>
      <trkpt lat="45.20344" lon="5.61737">
        <ele>1262</ele>
        <time>2020-02-23T14:10:25.000Z</time>
      </trkpt>
      <trkpt lat="45.20339" lon="5.61732">
        <ele>1263.8</ele>
        <time>2020-02-23T14:10:35.000Z</time>
      </trkpt>
      <trkpt lat="45.2033" lon="5.61729">
        <ele>1248.1</ele>
        <time>2020-02-23T14:10:45.000Z</time>
      </trkpt>
      <trkpt lat="45.20325" lon="5.61729">
        <ele>1262</ele>
        <time>2020-02-23T14:10:40.000Z</time>
      </trkpt>
      <trkpt lat="45.20319" lon="5.61729">
        <ele>1246.9</ele>
        <time>2020-02-23T14:10:50.000Z</time>
      </trkpt>
      <trkpt lat="45.20311" lon="5.6173">
        <ele>1245.6</ele>
        <time>2020-02-23T14:11:00.000Z</time>
      </trkpt>
      <trkpt lat="45.20306" lon="5.61734">
        <ele>1254</ele>
        <time>2020-02-23T14:10:50.000Z</time>
      </trkpt>
      <trkpt lat="45.20303" lon="5.61735">
        <ele>1244.1</ele>
        <time>2020-02-23T14:11:00.000Z</time>
      </trkpt>
      <trkpt lat="45.203" lon="5.61735">
        <ele>1243.4</ele>
        <time>2020-02-23T14:11:10.000Z</time>
      </trkpt>
      <trkpt lat="45.20296" lon="5.61737">
        <ele>1242.5</ele>
        <time>2020-02-23T14:11:20.000Z</time>
      </trkpt>
      <trkpt lat="45.20292" lon="5.61742">
        <ele>1241.4</ele>
        <time>2020-02-23T14:11:30.000Z</time>
      </trkpt>
      <trkpt lat="45.20281" lon="5.61755">
        <ele>1244</ele>
        <time>2020-02-23T14:11:12.000Z</time>
      </trkpt>
      <trkpt lat="45.20275" lon="5.61759">
        <ele>1230.1</ele>
        <time>2020-02-23T14:11:22.000Z</time>
      </trkpt>
      <trkpt lat="45.20272" lon="5.61759">
        <ele>1229.5</ele>
        <time>2020-02-23T14:11:32.000Z</time>
      </trkpt>
      <trkpt lat="45.20264" lon="5.61755">
        <ele>1227.7</ele>
        <time>2020-02-23T14:11:42.000Z</time>
      </trkpt>
      <trkpt lat="45.20262" lon="5.61752">
        <ele>1240</ele>
        <time>2020-02-23T14:11:20.000Z</time>
      </trkpt>
      <trkpt lat="45.2026" lon="5.6175">
        <ele>1230.2</ele>
        <time>2020-02-23T14:11:30.000Z</time>
      </trkpt>
      <trkpt lat="45.20254" lon="5.61734">
        <ele>1232.6</ele>
        <time>2020-02-23T14:11:40.000Z</time>
      </trkpt>
      <trkpt lat="45.20247" lon="5.61728">
        <ele>1237</ele>
        <time>2020-02-23T14:11:33.000Z</time>
      </trkpt>
      <trkpt lat="45.20243" lon="5.61726">
        <ele>1219.7</ele>
        <time>2020-02-23T14:11:43.000Z</time>
      </trkpt>
      <trkpt lat="45.20241" lon="5.61726">
        <ele>1219.5</ele>
        <time>2020-02-23T14:11:53.000Z</time>
      </trkpt>
      <trkpt lat="45.20237" lon="5.61722">
        <ele>1219</ele>
        <time>2020-02-23T14:12:03.000Z</time>
      </trkpt>
      <trkpt lat="45.20234" lon="5.61721">
        <ele>1218.7</ele>
        <time>2020-02-23T14:12:13.000Z</time>
      </trkpt>
      <trkpt lat="45.20232" lon="5.61722">
        <ele>1218.5</ele>
        <time>2020-02-23T14:12:23.000Z</time>
      </trkpt>
      <trkpt lat="45.20228" lon="5.61727">
        <ele>1229</ele>
        <time>2020-02-23T14:11:47.000Z</time>
      </trkpt>
      <trkpt lat="45.2022" lon="5.61732">
        <ele>1216.8</ele>
        <time>2020-02-23T14:11:57.000Z</time>
      </trkpt>
      <trkpt lat="45.20218" lon="5.61734">
        <ele>1216.4</ele>
        <time>2020-02-23T14:12:07.000Z</time>
      </trkpt>
      <trkpt lat="45.20205" lon="5.61742">
        <ele>1217</ele>
        <time>2020-02-23T14:12:02.000Z</time>
      </trkpt>
      <trkpt lat="45.20188" lon="5.61755">
        <ele>1207</ele>
        <time>2020-02-23T14:12:11.000Z</time>
      </trkpt>
      <trkpt lat="45.20167" lon="5.61768">
        <ele>1207</ele>
        <time>2020-02-23T14:12:21.000Z</time>
      </trkpt>
      <trkpt lat="45.20157" lon="5.61771">
        <ele>1186.5</ele>
        <time>2020-02-23T14:12:31.000Z</time>
      </trkpt>
      <trkpt lat="45.20145" lon="5.6177">
        <ele>1199</ele>
        <time>2020-02-23T14:12:29.000Z</time>
      </trkpt>
      <trkpt lat="45.20139" lon="5.61767">
        <ele>1183.7</ele>
        <time>2020-02-23T14:12:39.000Z</time>
      </trkpt>
      <trkpt lat="45.2013" lon="5.61764">
        <ele>1182.3</ele>
        <time>2020-02-23T14:12:49.000Z</time>
      </trkpt>
      <trkpt lat="45.20121" lon="5.61762">
        <ele>1192</ele>
        <time>2020-02-23T14:12:39.000Z</time>
      </trkpt>
      <trkpt lat="45.20115" lon="5.61763">
        <ele>1180.1</ele>
        <time>2020-02-23T14:12:49.000Z</time>
      </trkpt>
      <trkpt lat="45.20107" lon="5.61767">
        <ele>1179</ele>
        <time>2020-02-23T14:12:59.000Z</time>
      </trkpt>
      <trkpt lat="45.20101" lon="5.61771">
        <ele>1178</ele>
        <time>2020-02-23T14:12:51.000Z</time>
      </trkpt>
      <trkpt lat="45.20098" lon="5.61775">
        <ele>1177.6</ele>
        <time>2020-02-23T14:13:01.000Z</time>
      </trkpt>
      <trkpt lat="45.20093" lon="5.61777">
        <ele>1177.1</ele>
        <time>2020-02-23T14:13:11.000Z</time>
      </trkpt>
      <trkpt lat="45.20091" lon="5.61778">
        <ele>1176.9</ele>
        <time>2020-02-23T14:13:21.000Z</time>
      </trkpt>
      <trkpt lat="45.20083" lon="5.61778">
        <ele>1177</ele>
        <time>2020-02-23T14:13:00.000Z</time>
      </trkpt>
      <trkpt lat="45.2008" lon="5.61779">
        <ele>1162.3</ele>
        <time>2020-02-23T14:13:10.000Z</time>
      </trkpt>
      <trkpt lat="45.20077" lon="5.61779">
        <ele>1162</ele>
        <time>2020-02-23T14:13:20.000Z</time>
      </trkpt>
      <trkpt lat="45.20072" lon="5.61781">
        <ele>1160.9</ele>
        <time>2020-02-23T14:13:30.000Z</time>
      </trkpt>
      <trkpt lat="45.20066" lon="5.61782">
        <ele>1159.7</ele>
        <time>2020-02-23T14:13:40.000Z</time>
      </trkpt>
      <trkpt lat="45.20057" lon="5.61786">
        <ele>1168</ele>
        <time>2020-02-23T14:13:15.000Z</time>
      </trkpt>
      <trkpt lat="45.20049" lon="5.61788">
        <ele>1155.8</ele>
        <time>2020-02-23T14:13:25.000Z</time>
      </trkpt>
      <trkpt lat="45.20033" lon="5.61794">
        <ele>1152</ele>
        <time>2020-02-23T14:13:27.000Z</time>
      </trkpt>
      <trkpt lat="45.20027" lon="5.61795">
        <ele>1151</ele>
        <time>2020-02-23T14:13:37.000Z</time>
      </trkpt>
      <trkpt lat="45.20018" lon="5.61793">
        <ele>1150</ele>
        <time>2020-02-23T14:13:47.000Z</time>
      </trkpt>
      <trkpt lat="45.20007" lon="5.61787">
        <ele>1150</ele>
        <time>2020-02-23T14:13:35.000Z</time>
      </trkpt>
      <trkpt lat="45.20002" lon="5.61787">
        <ele>1149.9</ele>
        <time>2020-02-23T14:13:45.000Z</time>
      </trkpt>
      <trkpt lat="45.19996" lon="5.61785">
        <ele>1134.1</ele>
        <time>2020-02-23T14:13:55.000Z</time>
      </trkpt>
      <trkpt lat="45.1998" lon="5.61768">
        <ele>1149</ele>
        <time>2020-02-23T14:13:48.000Z</time>
      </trkpt>
      <trkpt lat="45.19977" lon="5.61766">
        <ele>1136.5</ele>
        <time>2020-02-23T14:13:58.000Z</time>
      </trkpt>
      <trkpt lat="45.19968" lon="5.61759">
        <ele>1135.1</ele>
        <time>2020-02-23T14:14:08.000Z</time>
      </trkpt>
      <trkpt lat="45.19956" lon="5.61751">
        <ele>1142</ele>
        <time>2020-02-23T14:13:56.000Z</time>
      </trkpt>
      <trkpt lat="45.19948" lon="5.61748">
        <ele>1144.2</ele>
        <time>2020-02-23T14:14:06.000Z</time>
      </trkpt>
      <trkpt lat="45.19939" lon="5.61749">
        <ele>1141.5</ele>
        <time>2020-02-23T14:14:16.000Z</time>
      </trkpt>
      <trkpt lat="45.19923" lon="5.61745">
        <ele>1136</ele>
        <time>2020-02-23T14:14:13.000Z</time>
      </trkpt>
      <trkpt lat="45.19919" lon="5.61745">
        <ele>1133.8</ele>
        <time>2020-02-23T14:14:23.000Z</time>
      </trkpt>
      <trkpt lat="45.19913" lon="5.61744">
        <ele>1129</ele>
        <time>2020-02-23T14:14:33.000Z</time>
      </trkpt>
      <trkpt lat="45.19905" lon="5.61744">
        <ele>1128</ele>
        <time>2020-02-23T14:14:43.000Z</time>
      </trkpt>
      <trkpt lat="45.19893" lon="5.61741">
        <ele>1127</ele>
        <time>2020-02-23T14:14:26.000Z</time>
      </trkpt>
      <trkpt lat="45.19883" lon="5.61736">
        <ele>1124.8</ele>
        <time>2020-02-23T14:14:36.000Z</time>
      </trkpt>
      <trkpt lat="45.19876" lon="5.61731">
        <ele>1123.9</ele>
        <time>2020-02-23T14:14:46.000Z</time>
      </trkpt>
      <trkpt lat="45.19871" lon="5.61726">
        <ele>1123</ele>
        <time>2020-02-23T14:14:33.000Z</time>
      </trkpt>
      <trkpt lat="45.19858" lon="5.61718">
        <ele>1122.1</ele>
        <time>2020-02-23T14:14:43.000Z</time>
      </trkpt>
      <trkpt lat="45.19856" lon="5.61717">
        <ele>1122</ele>
        <time>2020-02-23T14:14:53.000Z</time>
      </trkpt>
      <trkpt lat="45.19853" lon="5.61718">
        <ele>1123</ele>
        <time>2020-02-23T14:14:41.000Z</time>
      </trkpt>
      <trkpt lat="45.19848" lon="5.61722">
        <ele>1120.1</ele>
        <time>2020-02-23T14:14:51.000Z</time>
      </trkpt>
      <trkpt lat="45.19845" lon="5.61721">
        <ele>1119.9</ele>
        <time>2020-02-23T14:15:01.000Z</time>
      </trkpt>
      <trkpt lat="45.19844" lon="5.61717">
        <ele>1120.5</ele>
        <time>2020-02-23T14:15:11.000Z</time>
      </trkpt>
      <trkpt lat="45.19841" lon="5.61713">
        <ele>1120.8</ele>
        <time>2020-02-23T14:15:21.000Z</time>
      </trkpt>
      <trkpt lat="45.19832" lon="5.61709">
        <ele>1119</ele>
        <time>2020-02-23T14:14:55.000Z</time>
      </trkpt>
      <trkpt lat="45.19827" lon="5.61709">
        <ele>1108.1</ele>
        <time>2020-02-23T14:15:05.000Z</time>
      </trkpt>
      <trkpt lat="45.19821" lon="5.61712">
        <ele>1107.4</ele>
        <time>2020-02-23T14:15:15.000Z</time>
      </trkpt>
      <trkpt lat="45.19813" lon="5.61714">
        <ele>1112</ele>
        <time>2020-02-23T14:15:05.000Z</time>
      </trkpt>
      <trkpt lat="45.19803" lon="5.61717">
        <ele>1105.6</ele>
        <time>2020-02-23T14:15:15.000Z</time>
      </trkpt>
      <trkpt lat="45.19788" lon="5.61719">
        <ele>1099</ele>
        <time>2020-02-23T14:15:15.000Z</time>
      </trkpt>
      <trkpt lat="45.19784" lon="5.61721">
        <ele>1103.3</ele>
        <time>2020-02-23T14:15:25.000Z</time>
      </trkpt>
      <trkpt lat="45.1978" lon="5.61726">
        <ele>1102.3</ele>
        <time>2020-02-23T14:15:35.000Z</time>
      </trkpt>
      <trkpt lat="45.19774" lon="5.61729">
        <ele>1101</ele>
        <time>2020-02-23T14:15:45.000Z</time>
      </trkpt>
      <trkpt lat="45.19772" lon="5.61731">
        <ele>1100.4</ele>
        <time>2020-02-23T14:15:55.000Z</time>
      </trkpt>
      <trkpt lat="45.19766" lon="5.61736">
        <ele>1091</ele>
        <time>2020-02-23T14:15:27.000Z</time>
      </trkpt>
      <trkpt lat="45.19751" lon="5.61739">
        <ele>1094.7</ele>
        <time>2020-02-23T14:15:37.000Z</time>
      </trkpt>
      <trkpt lat="45.19737" lon="5.61746">
        <ele>1080</ele>
        <time>2020-02-23T14:15:41.000Z</time>
      </trkpt>
      <trkpt lat="45.19733" lon="5.61746">
        <ele>1086.7</ele>
        <time>2020-02-23T14:15:51.000Z</time>
      </trkpt>
      <trkpt lat="45.19724" lon="5.61742">
        <ele>1085.5</ele>
        <time>2020-02-23T14:16:01.000Z</time>
      </trkpt>
      <trkpt lat="45.1972" lon="5.61743">
        <ele>1084.9</ele>
        <time>2020-02-23T14:16:11.000Z</time>
      </trkpt>
      <trkpt lat="45.19713" lon="5.61746">
        <ele>1080</ele>
        <time>2020-02-23T14:15:52.000Z</time>
      </trkpt>
      <trkpt lat="45.19709" lon="5.61746">
        <ele>1082.9</ele>
        <time>2020-02-23T14:16:02.000Z</time>
      </trkpt>
      <trkpt lat="45.19705" lon="5.61744">
        <ele>1082.2</ele>
        <time>2020-02-23T14:16:12.000Z</time>
      </trkpt>
      <trkpt lat="45.19699" lon="5.61743">
        <ele>1081</ele>
        <time>2020-02-23T14:16:22.000Z</time>
      </trkpt>
      <trkpt lat="45.19693" lon="5.61744">
        <ele>1075</ele>
        <time>2020-02-23T14:16:02.000Z</time>
      </trkpt>
      <trkpt lat="45.19686" lon="5.61744">
        <ele>1077.5</ele>
        <time>2020-02-23T14:16:12.000Z</time>
      </trkpt>
      <trkpt lat="45.19681" lon="5.61745">
        <ele>1075.8</ele>
        <time>2020-02-23T14:16:22.000Z</time>
      </trkpt>
      <trkpt lat="45.19676" lon="5.61753">
        <ele>1072</ele>
        <time>2020-02-23T14:16:13.000Z</time>
      </trkpt>
      <trkpt lat="45.19675" lon="5.61767">
        <ele>1066.7</ele>
        <time>2020-02-23T14:16:23.000Z</time>
      </trkpt>
      <trkpt lat="45.19674" lon="5.6177">
        <ele>1066.3</ele>
        <time>2020-02-23T14:16:33.000Z</time>
      </trkpt>
      <trkpt lat="45.19671" lon="5.61776">
        <ele>1065.4</ele>
        <time>2020-02-23T14:16:43.000Z</time>
      </trkpt>
      <trkpt lat="45.19669" lon="5.6178">
        <ele>1062</ele>
        <time>2020-02-23T14:16:23.000Z</time>
      </trkpt>
      <trkpt lat="45.19667" lon="5.61781">
        <ele>1064.4</ele>
        <time>2020-02-23T14:16:33.000Z</time>
      </trkpt>
      <trkpt lat="45.19665" lon="5.61782">
        <ele>1049.7</ele>
        <time>2020-02-23T14:16:43.000Z</time>
      </trkpt>
      <trkpt lat="45.19662" lon="5.61782">
        <ele>1049.5</ele>
        <time>2020-02-23T14:16:53.000Z</time>
      </trkpt>
      <trkpt lat="45.19644" lon="5.61777">
        <ele>1061</ele>
        <time>2020-02-23T14:16:33.000Z</time>
      </trkpt>
      <trkpt lat="45.19624" lon="5.61767">
        <ele>1058</ele>
        <time>2020-02-23T14:16:41.000Z</time>
      </trkpt>
      <trkpt lat="45.19612" lon="5.61765">
        <ele>1042.9</ele>
        <time>2020-02-23T14:16:51.000Z</time>
      </trkpt>
      <trkpt lat="45.19605" lon="5.61762">
        <ele>1058</ele>
        <time>2020-02-23T14:16:50.000Z</time>
      </trkpt>
      <trkpt lat="45.19601" lon="5.61761">
        <ele>1041.4</ele>
        <time>2020-02-23T14:17:00.000Z</time>
      </trkpt>
      <trkpt lat="45.1959" lon="5.6176">
        <ele>1040.2</ele>
        <time>2020-02-23T14:17:10.000Z</time>
      </trkpt>
      <trkpt lat="45.19569" lon="5.61756">
        <ele>1031</ele>
        <time>2020-02-23T14:17:03.000Z</time>
      </trkpt>
      <trkpt lat="45.19538" lon="5.61742">
        <ele>1017</ele>
        <time>2020-02-23T14:17:14.000Z</time>
      </trkpt>
      <trkpt lat="45.19524" lon="5.61739">
        <ele>1028.4</ele>
        <time>2020-02-23T14:17:24.000Z</time>
      </trkpt>
      <trkpt lat="45.19514" lon="5.61736">
        <ele>1017</ele>
        <time>2020-02-23T14:17:25.000Z</time>
      </trkpt>
      <trkpt lat="45.19509" lon="5.61733">
        <ele>1025.8</ele>
        <time>2020-02-23T14:17:35.000Z</time>
      </trkpt>
      <trkpt lat="45.19507" lon="5.61731">
        <ele>1026.1</ele>
        <time>2020-02-23T14:17:45.000Z</time>
      </trkpt>
      <trkpt lat="45.19504" lon="5.61726">
        <ele>1027.2</ele>
        <time>2020-02-23T14:17:55.000Z</time>
      </trkpt>
      <trkpt lat="45.19502" lon="5.61725">
        <ele>1027.4</ele>
        <time>2020-02-23T14:18:05.000Z</time>
      </trkpt>
      <trkpt lat="45.19492" lon="5.61715">
        <ele>1017</ele>
        <time>2020-02-23T14:17:36.000Z</time>
      </trkpt>
      <trkpt lat="45.19488" lon="5.61713">
        <ele>1014.5</ele>
        <time>2020-02-23T14:17:46.000Z</time>
      </trkpt>
      <trkpt lat="45.19486" lon="5.61712">
        <ele>1014.4</ele>
        <time>2020-02-23T14:17:56.000Z</time>
      </trkpt>
      <trkpt lat="45.19479" lon="5.61715">
        <ele>1013.3</ele>
        <time>2020-02-23T14:18:06.000Z</time>
      </trkpt>
      <trkpt lat="45.19474" lon="5.61715">
        <ele>1012.7</ele>
        <time>2020-02-23T14:18:16.000Z</time>
      </trkpt>
      <trkpt lat="45.19461" lon="5.61715">
        <ele>1009</ele>
        <time>2020-02-23T14:17:52.000Z</time>
      </trkpt>
      <trkpt lat="45.19453" lon="5.61716">
        <ele>1009.6</ele>
        <time>2020-02-23T14:18:02.000Z</time>
      </trkpt>
      <trkpt lat="45.19443" lon="5.6172">
        <ele>1007.4</ele>
        <time>2020-02-23T14:18:12.000Z</time>
      </trkpt>
      <trkpt lat="45.1944" lon="5.61723">
        <ele>1000</ele>
        <time>2020-02-23T14:18:01.000Z</time>
      </trkpt>
      <trkpt lat="45.19432" lon="5.61726">
        <ele>1004.2</ele>
        <time>2020-02-23T14:18:11.000Z</time>
      </trkpt>
      <trkpt lat="45.19428" lon="5.61731">
        <ele>1002.1</ele>
        <time>2020-02-23T14:18:21.000Z</time>
      </trkpt>
      <trkpt lat="45.19426" lon="5.61736">
        <ele>999.9</ele>
        <time>2020-02-23T14:18:31.000Z</time>
      </trkpt>
      <trkpt lat="45.19425" lon="5.61741">
        <ele>990</ele>
        <time>2020-02-23T14:18:12.000Z</time>
      </trkpt>
      <trkpt lat="45.19423" lon="5.61748">
        <ele>994.2</ele>
        <time>2020-02-23T14:18:22.000Z</time>
      </trkpt>
      <trkpt lat="45.19418" lon="5.61758">
        <ele>990.8</ele>
        <time>2020-02-23T14:18:32.000Z</time>
      </trkpt>
      <trkpt lat="45.19415" lon="5.61763">
        <ele>983.8</ele>
        <time>2020-02-23T14:18:42.000Z</time>
      </trkpt>
      <trkpt lat="45.19402" lon="5.61778">
        <ele>984</ele>
        <time>2020-02-23T14:18:29.000Z</time>
      </trkpt>
      <trkpt lat="45.194" lon="5.61779">
        <ele>979.2</ele>
        <time>2020-02-23T14:18:39.000Z</time>
      </trkpt>
      <trkpt lat="45.19396" lon="5.6178">
        <ele>978.7</ele>
        <time>2020-02-23T14:18:49.000Z</time>
      </trkpt>
      <trkpt lat="45.19384" lon="5.61779">
        <ele>977.6</ele>
        <time>2020-02-23T14:18:59.000Z</time>
      </trkpt>
      <trkpt lat="45.19379" lon="5.61783">
        <ele>979</ele>
        <time>2020-02-23T14:18:38.000Z</time>
      </trkpt>
      <trkpt lat="45.19377" lon="5.61783">
        <ele>976.6</ele>
        <time>2020-02-23T14:18:48.000Z</time>
      </trkpt>
      <trkpt lat="45.19362" lon="5.61778">
        <ele>975.6</ele>
        <time>2020-02-23T14:18:58.000Z</time>
      </trkpt>
      <trkpt lat="45.19356" lon="5.6178">
        <ele>979</ele>
        <time>2020-02-23T14:18:51.000Z</time>
      </trkpt>
      <trkpt lat="45.19351" lon="5.61779">
        <ele>974.8</ele>
        <time>2020-02-23T14:19:01.000Z</time>
      </trkpt>
      <trkpt lat="45.19349" lon="5.61779">
        <ele>974.7</ele>
        <time>2020-02-23T14:19:11.000Z</time>
      </trkpt>
      <trkpt lat="45.19341" lon="5.61785">
        <ele>973.8</ele>
        <time>2020-02-23T14:19:21.000Z</time>
      </trkpt>
      <trkpt lat="45.19339" lon="5.61788">
        <ele>975</ele>
        <time>2020-02-23T14:19:03.000Z</time>
      </trkpt>
      <trkpt lat="45.19334" lon="5.61798">
        <ele>971.9</ele>
        <time>2020-02-23T14:19:13.000Z</time>
      </trkpt>
      <trkpt lat="45.19325" lon="5.61809">
        <ele>966</ele>
        <time>2020-02-23T14:19:16.000Z</time>
      </trkpt>
      <trkpt lat="45.19325" lon="5.61814">
        <ele>965.9</ele>
        <time>2020-02-23T14:19:26.000Z</time>
      </trkpt>
      <trkpt lat="45.19328" lon="5.61823">
        <ele>964.1</ele>
        <time>2020-02-23T14:19:36.000Z</time>
      </trkpt>
      <trkpt lat="45.1933" lon="5.61835">
        <ele>959</ele>
        <time>2020-02-23T14:19:25.000Z</time>
      </trkpt>
      <trkpt lat="45.19329" lon="5.61849">
        <ele>955.8</ele>
        <time>2020-02-23T14:19:35.000Z</time>
      </trkpt>
      <trkpt lat="45.19327" lon="5.6185">
        <ele>955.5</ele>
        <time>2020-02-23T14:19:45.000Z</time>
      </trkpt>
      <trkpt lat="45.19324" lon="5.61849">
        <ele>955.4</ele>
        <time>2020-02-23T14:19:55.000Z</time>
      </trkpt>
      <trkpt lat="45.19323" lon="5.61846">
        <ele>955.9</ele>
        <time>2020-02-23T14:20:05.000Z</time>
      </trkpt>
      <trkpt lat="45.19323" lon="5.61849">
        <ele>955.3</ele>
        <time>2020-02-23T14:20:15.000Z</time>
      </trkpt>
      <trkpt lat="45.19325" lon="5.61851">
        <ele>951</ele>
        <time>2020-02-23T14:19:53.000Z</time>
      </trkpt>
      <trkpt lat="45.19326" lon="5.61856">
        <ele>954.2</ele>
        <time>2020-02-23T14:20:03.000Z</time>
      </trkpt>
      <trkpt lat="45.19326" lon="5.61862">
        <ele>953.1</ele>
        <time>2020-02-23T14:20:13.000Z</time>
      </trkpt>
      <trkpt lat="45.19325" lon="5.61869">
        <ele>951.9</ele>
        <time>2020-02-23T14:20:23.000Z</time>
      </trkpt>
      <trkpt lat="45.19325" lon="5.6188">
        <ele>951</ele>
        <time>2020-02-23T14:20:03.000Z</time>
      </trkpt>
      <trkpt lat="45.19325" lon="5.6189">
        <ele>948.8</ele>
        <time>2020-02-23T14:20:13.000Z</time>
      </trkpt>
      <trkpt lat="45.19328" lon="5.61901">
        <ele>947.2</ele>
        <time>2020-02-23T14:20:23.000Z</time>
      </trkpt>
      <trkpt lat="45.19328" lon="5.61904">
        <ele>946.7</ele>
        <time>2020-02-23T14:20:33.000Z</time>
      </trkpt>
      <trkpt lat="45.19327" lon="5.61924">
        <ele>940</ele>
        <time>2020-02-23T14:20:15.000Z</time>
      </trkpt>
      <trkpt lat="45.19325" lon="5.61936">
        <ele>937.8</ele>
        <time>2020-02-23T14:20:25.000Z</time>
      </trkpt>
      <trkpt lat="45.19319" lon="5.61958">
        <ele>935</ele>
        <time>2020-02-23T14:20:24.000Z</time>
      </trkpt>
      <trkpt lat="45.19316" lon="5.61967">
        <ele>933.1</ele>
        <time>2020-02-23T14:20:34.000Z</time>
      </trkpt>
      <trkpt lat="45.19308" lon="5.6198">
        <ele>931</ele>
        <time>2020-02-23T14:20:31.000Z</time>
      </trkpt>
      <trkpt lat="45.19307" lon="5.61981">
        <ele>931.8</ele>
        <time>2020-02-23T14:20:41.000Z</time>
      </trkpt>
      <trkpt lat="45.19305" lon="5.61981">
        <ele>931.7</ele>
        <time>2020-02-23T14:20:51.000Z</time>
      </trkpt>
      <trkpt lat="45.19303" lon="5.61978">
        <ele>931.9</ele>
        <time>2020-02-23T14:21:01.000Z</time>
      </trkpt>
      <trkpt lat="45.19301" lon="5.6198">
        <ele>931.7</ele>
        <time>2020-02-23T14:21:11.000Z</time>
      </trkpt>
      <trkpt lat="45.19299" lon="5.6198">
        <ele>931.7</ele>
        <time>2020-02-23T14:21:21.000Z</time>
      </trkpt>
      <trkpt lat="45.19295" lon="5.61978">
        <ele>931.7</ele>
        <time>2020-02-23T14:21:31.000Z</time>
      </trkpt>
      <trkpt lat="45.19292" lon="5.61974">
        <ele>928</ele>
        <time>2020-02-23T14:22:23.000Z</time>
      </trkpt>
      <trkpt lat="45.19277" lon="5.61962">
        <ele>932.3</ele>
        <time>2020-02-23T14:22:33.000Z</time>
      </trkpt>
      <trkpt lat="45.1927" lon="5.61958">
        <ele>927</ele>
        <time>2020-02-23T14:22:33.000Z</time>
      </trkpt>
      <trkpt lat="45.19259" lon="5.61955">
        <ele>932.6</ele>
        <time>2020-02-23T14:22:43.000Z</time>
      </trkpt>
      <trkpt lat="45.19245" lon="5.61954">
        <ele>927</ele>
        <time>2020-02-23T14:22:42.000Z</time>
      </trkpt>
      <trkpt lat="45.19217" lon="5.61954">
        <ele>927</ele>
        <time>2020-02-23T14:22:52.000Z</time>
      </trkpt>
      <trkpt lat="45.19176" lon="5.61955">
        <ele>926</ele>
        <time>2020-02-23T14:23:05.000Z</time>
      </trkpt>
      <trkpt lat="45.19131" lon="5.61954">
        <ele>926</ele>
        <time>2020-02-23T14:23:20.000Z</time>
      </trkpt>
      <trkpt lat="45.19106" lon="5.61955">
        <ele>924</ele>
        <time>2020-02-23T14:23:29.000Z</time>
      </trkpt>
      <trkpt lat="45.19083" lon="5.61959">
        <ele>921</ele>
        <time>2020-02-23T14:23:36.000Z</time>
      </trkpt>
      <trkpt lat="45.19057" lon="5.61963">
        <ele>916</ele>
        <time>2020-02-23T14:23:46.000Z</time>
      </trkpt>
      <trkpt lat="45.19027" lon="5.61969">
        <ele>913</ele>
        <time>2020-02-23T14:23:55.000Z</time>
      </trkpt>
      <trkpt lat="45.19009" lon="5.61971">
        <ele>918</ele>
        <time>2020-02-23T14:24:05.000Z</time>
      </trkpt>
      <trkpt lat="45.18977" lon="5.61978">
        <ele>913</ele>
        <time>2020-02-23T14:24:13.000Z</time>
      </trkpt>
      <trkpt lat="45.18947" lon="5.61981">
        <ele>911</ele>
        <time>2020-02-23T14:24:23.000Z</time>
      </trkpt>
      <trkpt lat="45.18931" lon="5.61981">
        <ele>914.8</ele>
        <time>2020-02-23T14:24:33.000Z</time>
      </trkpt>
      <trkpt lat="45.18907" lon="5.61976">
        <ele>910</ele>
        <time>2020-02-23T14:24:37.000Z</time>
      </trkpt>
      <trkpt lat="45.18894" lon="5.61971">
        <ele>913.8</ele>
        <time>2020-02-23T14:24:47.000Z</time>
      </trkpt>
      <trkpt lat="45.18885" lon="5.61967">
        <ele>910</ele>
        <time>2020-02-23T14:24:46.000Z</time>
      </trkpt>
      <trkpt lat="45.18867" lon="5.61952">
        <ele>911</ele>
        <time>2020-02-23T14:24:54.000Z</time>
      </trkpt>
      <trkpt lat="45.18853" lon="5.61937">
        <ele>916.5</ele>
        <time>2020-02-23T14:25:04.000Z</time>
      </trkpt>
      <trkpt lat="45.18843" lon="5.61924">
        <ele>914</ele>
        <time>2020-02-23T14:25:07.000Z</time>
      </trkpt>
      <trkpt lat="45.18836" lon="5.61909">
        <ele>922.7</ele>
        <time>2020-02-23T14:25:17.000Z</time>
      </trkpt>
      <trkpt lat="45.18825" lon="5.61866">
        <ele>918</ele>
        <time>2020-02-23T14:25:25.000Z</time>
      </trkpt>
      <trkpt lat="45.18817" lon="5.61838">
        <ele>923</ele>
        <time>2020-02-23T14:25:33.000Z</time>
      </trkpt>
      <trkpt lat="45.18812" lon="5.61804">
        <ele>925</ele>
        <time>2020-02-23T14:25:42.000Z</time>
      </trkpt>
      <trkpt lat="45.18809" lon="5.61776">
        <ele>927</ele>
        <time>2020-02-23T14:25:49.000Z</time>
      </trkpt>
      <trkpt lat="45.18805" lon="5.61753">
        <ele>920.4</ele>
        <time>2020-02-23T14:25:59.000Z</time>
      </trkpt>
      <trkpt lat="45.18802" lon="5.61739">
        <ele>925</ele>
        <time>2020-02-23T14:25:59.000Z</time>
      </trkpt>
      <trkpt lat="45.188" lon="5.61732">
        <ele>922.1</ele>
        <time>2020-02-23T14:26:09.000Z</time>
      </trkpt>
      <trkpt lat="45.18795" lon="5.61706">
        <ele>923</ele>
        <time>2020-02-23T14:26:07.000Z</time>
      </trkpt>
      <trkpt lat="45.18791" lon="5.61698">
        <ele>921</ele>
        <time>2020-02-23T14:26:17.000Z</time>
      </trkpt>
      <trkpt lat="45.18793" lon="5.61696">
        <ele>921.5</ele>
        <time>2020-02-23T14:26:27.000Z</time>
      </trkpt>
      <trkpt lat="45.18794" lon="5.61698">
        <ele>921.7</ele>
        <time>2020-02-23T14:26:37.000Z</time>
      </trkpt>
      <trkpt lat="45.18793" lon="5.61696">
        <ele>921.5</ele>
        <time>2020-02-23T14:26:47.000Z</time>
      </trkpt>
      <trkpt lat="45.18789" lon="5.61693">
        <ele>920.7</ele>
        <time>2020-02-23T14:26:57.000Z</time>
      </trkpt>
      <trkpt lat="45.18783" lon="5.61686">
        <ele>923</ele>
        <time>2020-02-23T14:26:50.000Z</time>
      </trkpt>
      <trkpt lat="45.18778" lon="5.61679">
        <ele>918</ele>
        <time>2020-02-23T14:27:00.000Z</time>
      </trkpt>
      <trkpt lat="45.18774" lon="5.61671">
        <ele>916.6</ele>
        <time>2020-02-23T14:27:10.000Z</time>
      </trkpt>
      <trkpt lat="45.18763" lon="5.61642">
        <ele>919</ele>
        <time>2020-02-23T14:27:05.000Z</time>
      </trkpt>
      <trkpt lat="45.18759" lon="5.61621">
        <ele>920.3</ele>
        <time>2020-02-23T14:27:15.000Z</time>
      </trkpt>
      <trkpt lat="45.18756" lon="5.61615">
        <ele>916</ele>
        <time>2020-02-23T14:27:12.000Z</time>
      </trkpt>
      <trkpt lat="45.18754" lon="5.61613">
        <ele>919.7</ele>
        <time>2020-02-23T14:27:22.000Z</time>
      </trkpt>
      <trkpt lat="45.1875" lon="5.61609">
        <ele>910.2</ele>
        <time>2020-02-23T14:27:32.000Z</time>
      </trkpt>
      <trkpt lat="45.18745" lon="5.61607">
        <ele>910.3</ele>
        <time>2020-02-23T14:27:42.000Z</time>
      </trkpt>
      <trkpt lat="45.18735" lon="5.61601">
        <ele>913</ele>
        <time>2020-02-23T14:27:22.000Z</time>
      </trkpt>
      <trkpt lat="45.18731" lon="5.61598">
        <ele>910.5</ele>
        <time>2020-02-23T14:27:32.000Z</time>
      </trkpt>
      <trkpt lat="45.18727" lon="5.61593">
        <ele>910.5</ele>
        <time>2020-02-23T14:27:42.000Z</time>
      </trkpt>
      <trkpt lat="45.18722" lon="5.6159">
        <ele>910.4</ele>
        <time>2020-02-23T14:27:52.000Z</time>
      </trkpt>
      <trkpt lat="45.1872" lon="5.6159">
        <ele>910.3</ele>
        <time>2020-02-23T14:28:02.000Z</time>
      </trkpt>
      <trkpt lat="45.18718" lon="5.6159">
        <ele>910</ele>
        <time>2020-02-23T14:27:30.000Z</time>
      </trkpt>
      <trkpt lat="45.18716" lon="5.61594">
        <ele>910.1</ele>
        <time>2020-02-23T14:27:40.000Z</time>
      </trkpt>
      <trkpt lat="45.18718" lon="5.61607">
        <ele>909.7</ele>
        <time>2020-02-23T14:27:50.000Z</time>
      </trkpt>
      <trkpt lat="45.1872" lon="5.61613">
        <ele>909.5</ele>
        <time>2020-02-23T14:28:00.000Z</time>
      </trkpt>
      <trkpt lat="45.1872" lon="5.61624">
        <ele>905</ele>
        <time>2020-02-23T14:27:42.000Z</time>
      </trkpt>
      <trkpt lat="45.18719" lon="5.6163">
        <ele>908.7</ele>
        <time>2020-02-23T14:27:52.000Z</time>
      </trkpt>
      <trkpt lat="45.18718" lon="5.61649">
        <ele>908</ele>
        <time>2020-02-23T14:28:02.000Z</time>
      </trkpt>
      <trkpt lat="45.18713" lon="5.61664">
        <ele>900</ele>
        <time>2020-02-23T14:27:53.000Z</time>
      </trkpt>
      <trkpt lat="45.18706" lon="5.61705">
        <ele>889</ele>
        <time>2020-02-23T14:28:04.000Z</time>
      </trkpt>
      <trkpt lat="45.18692" lon="5.61745">
        <ele>883</ele>
        <time>2020-02-23T14:28:16.000Z</time>
      </trkpt>
      <trkpt lat="45.18689" lon="5.61752">
        <ele>891.9</ele>
        <time>2020-02-23T14:28:26.000Z</time>
      </trkpt>
      <trkpt lat="45.18676" lon="5.61775">
        <ele>882</ele>
        <time>2020-02-23T14:28:25.000Z</time>
      </trkpt>
      <trkpt lat="45.18674" lon="5.61783">
        <ele>890.3</ele>
        <time>2020-02-23T14:28:35.000Z</time>
      </trkpt>
      <trkpt lat="45.18673" lon="5.61787">
        <ele>890</ele>
        <time>2020-02-23T14:28:45.000Z</time>
      </trkpt>
      <trkpt lat="45.18676" lon="5.61798">
        <ele>889</ele>
        <time>2020-02-23T14:28:55.000Z</time>
      </trkpt>
      <trkpt lat="45.18677" lon="5.61811">
        <ele>880</ele>
        <time>2020-02-23T14:28:33.000Z</time>
      </trkpt>
      <trkpt lat="45.18678" lon="5.61828">
        <ele>884.3</ele>
        <time>2020-02-23T14:28:43.000Z</time>
      </trkpt>
      <trkpt lat="45.18674" lon="5.61845">
        <ele>879</ele>
        <time>2020-02-23T14:28:42.000Z</time>
      </trkpt>
      <trkpt lat="45.18671" lon="5.61857">
        <ele>882.4</ele>
        <time>2020-02-23T14:28:52.000Z</time>
      </trkpt>
      <trkpt lat="45.18671" lon="5.61866">
        <ele>882.4</ele>
        <time>2020-02-23T14:29:02.000Z</time>
      </trkpt>
      <trkpt lat="45.18669" lon="5.61874">
        <ele>877</ele>
        <time>2020-02-23T14:28:49.000Z</time>
      </trkpt>
      <trkpt lat="45.18666" lon="5.61883">
        <ele>877.6</ele>
        <time>2020-02-23T14:28:59.000Z</time>
      </trkpt>
      <trkpt lat="45.18662" lon="5.61909">
        <ele>875</ele>
        <time>2020-02-23T14:28:56.000Z</time>
      </trkpt>
      <trkpt lat="45.18658" lon="5.61922">
        <ele>868.8</ele>
        <time>2020-02-23T14:29:06.000Z</time>
      </trkpt>
      <trkpt lat="45.18653" lon="5.61933">
        <ele>867.8</ele>
        <time>2020-02-23T14:29:16.000Z</time>
      </trkpt>
      <trkpt lat="45.18652" lon="5.61937">
        <ele>870</ele>
        <time>2020-02-23T14:29:04.000Z</time>
      </trkpt>
      <trkpt lat="45.18651" lon="5.61943">
        <ele>866.9</ele>
        <time>2020-02-23T14:29:14.000Z</time>
      </trkpt>
      <trkpt lat="45.18651" lon="5.61951">
        <ele>866.2</ele>
        <time>2020-02-23T14:29:24.000Z</time>
      </trkpt>
      <trkpt lat="45.18652" lon="5.61963">
        <ele>865.1</ele>
        <time>2020-02-23T14:29:34.000Z</time>
      </trkpt>
      <trkpt lat="45.18651" lon="5.61971">
        <ele>865</ele>
        <time>2020-02-23T14:29:13.000Z</time>
      </trkpt>
      <trkpt lat="45.18649" lon="5.61978">
        <ele>863.8</ele>
        <time>2020-02-23T14:29:23.000Z</time>
      </trkpt>
      <trkpt lat="45.18646" lon="5.61985">
        <ele>863.3</ele>
        <time>2020-02-23T14:29:33.000Z</time>
      </trkpt>
      <trkpt lat="45.18622" lon="5.62032">
        <ele>856</ele>
        <time>2020-02-23T14:29:32.000Z</time>
      </trkpt>
      <trkpt lat="45.18618" lon="5.62042">
        <ele>847.4</ele>
        <time>2020-02-23T14:29:42.000Z</time>
      </trkpt>
      <trkpt lat="45.18612" lon="5.62057">
        <ele>844</ele>
        <time>2020-02-23T14:29:39.000Z</time>
      </trkpt>
      <trkpt lat="45.18608" lon="5.62064">
        <ele>844.3</ele>
        <time>2020-02-23T14:29:49.000Z</time>
      </trkpt>
      <trkpt lat="45.18604" lon="5.62073">
        <ele>842.9</ele>
        <time>2020-02-23T14:29:59.000Z</time>
      </trkpt>
      <trkpt lat="45.18599" lon="5.62078">
        <ele>845</ele>
        <time>2020-02-23T14:29:47.000Z</time>
      </trkpt>
      <trkpt lat="45.18598" lon="5.62072">
        <ele>842.3</ele>
        <time>2020-02-23T14:29:57.000Z</time>
      </trkpt>
      <trkpt lat="45.18595" lon="5.62071">
        <ele>842.1</ele>
        <time>2020-02-23T14:30:07.000Z</time>
      </trkpt>
      <trkpt lat="45.18591" lon="5.62071">
        <ele>841.6</ele>
        <time>2020-02-23T14:30:17.000Z</time>
      </trkpt>
      <trkpt lat="45.18589" lon="5.6207">
        <ele>841.6</ele>
        <time>2020-02-23T14:30:27.000Z</time>
      </trkpt>
      <trkpt lat="45.18575" lon="5.62061">
        <ele>847</ele>
        <time>2020-02-23T14:30:21.000Z</time>
      </trkpt>
      <trkpt lat="45.1857" lon="5.62056">
        <ele>846.6</ele>
        <time>2020-02-23T14:30:31.000Z</time>
      </trkpt>
      <trkpt lat="45.18565" lon="5.62048">
        <ele>848.2</ele>
        <time>2020-02-23T14:30:41.000Z</time>
      </trkpt>
      <trkpt lat="45.18559" lon="5.62042">
        <ele>851</ele>
        <time>2020-02-23T14:30:36.000Z</time>
      </trkpt>
      <trkpt lat="45.18552" lon="5.62037">
        <ele>850.5</ele>
        <time>2020-02-23T14:30:46.000Z</time>
      </trkpt>
      <trkpt lat="45.18545" lon="5.62033">
        <ele>851.3</ele>
        <time>2020-02-23T14:30:56.000Z</time>
      </trkpt>
      <trkpt lat="45.18542" lon="5.62033">
        <ele>851.5</ele>
        <time>2020-02-23T14:31:06.000Z</time>
      </trkpt>
      <trkpt lat="45.18534" lon="5.62033">
        <ele>855</ele>
        <time>2020-02-23T14:30:52.000Z</time>
      </trkpt>
      <trkpt lat="45.18522" lon="5.62042">
        <ele>851</ele>
        <time>2020-02-23T14:31:02.000Z</time>
      </trkpt>
      <trkpt lat="45.18514" lon="5.62047">
        <ele>854</ele>
        <time>2020-02-23T14:31:09.000Z</time>
      </trkpt>
      <trkpt lat="45.18506" lon="5.62054">
        <ele>848.5</ele>
        <time>2020-02-23T14:31:19.000Z</time>
      </trkpt>
      <trkpt lat="45.18502" lon="5.62058">
        <ele>847.5</ele>
        <time>2020-02-23T14:31:29.000Z</time>
      </trkpt>
      <trkpt lat="45.18494" lon="5.62065">
        <ele>854</ele>
        <time>2020-02-23T14:31:23.000Z</time>
      </trkpt>
      <trkpt lat="45.18487" lon="5.62072">
        <ele>850</ele>
        <time>2020-02-23T14:31:33.000Z</time>
      </trkpt>
      <trkpt lat="45.18474" lon="5.62089">
        <ele>855</ele>
        <time>2020-02-23T14:31:40.000Z</time>
      </trkpt>
      <trkpt lat="45.18466" lon="5.62094">
        <ele>834.2</ele>
        <time>2020-02-23T14:31:50.000Z</time>
      </trkpt>
      <trkpt lat="45.18463" lon="5.62094">
        <ele>834.3</ele>
        <time>2020-02-23T14:32:00.000Z</time>
      </trkpt>
      <trkpt lat="45.18457" lon="5.62095">
        <ele>834.7</ele>
        <time>2020-02-23T14:32:10.000Z</time>
      </trkpt>
      <trkpt lat="45.18452" lon="5.62094">
        <ele>856</ele>
        <time>2020-02-23T14:31:53.000Z</time>
      </trkpt>
      <trkpt lat="45.18434" lon="5.62086">
        <ele>840.6</ele>
        <time>2020-02-23T14:32:03.000Z</time>
      </trkpt>
      <trkpt lat="45.18427" lon="5.62081">
        <ele>857</ele>
        <time>2020-02-23T14:32:03.000Z</time>
      </trkpt>
      <trkpt lat="45.18417" lon="5.62073">
        <ele>854.9</ele>
        <time>2020-02-23T14:32:13.000Z</time>
      </trkpt>
      <trkpt lat="45.18407" lon="5.62066">
        <ele>861</ele>
        <time>2020-02-23T14:32:11.000Z</time>
      </trkpt>
      <trkpt lat="45.18391" lon="5.62056">
        <ele>864.3</ele>
        <time>2020-02-23T14:32:21.000Z</time>
      </trkpt>
      <trkpt lat="45.18383" lon="5.62053">
        <ele>861</ele>
        <time>2020-02-23T14:32:21.000Z</time>
      </trkpt>
      <trkpt lat="45.18372" lon="5.62052">
        <ele>865.1</ele>
        <time>2020-02-23T14:32:31.000Z</time>
      </trkpt>
      <trkpt lat="45.18365" lon="5.62051">
        <ele>865.1</ele>
        <time>2020-02-23T14:32:41.000Z</time>
      </trkpt>
      <trkpt lat="45.18355" lon="5.62052">
        <ele>862</ele>
        <time>2020-02-23T14:32:32.000Z</time>
      </trkpt>
      <trkpt lat="45.18346" lon="5.62054">
        <ele>863.4</ele>
        <time>2020-02-23T14:32:42.000Z</time>
      </trkpt>
      <trkpt lat="45.18336" lon="5.62057">
        <ele>862</ele>
        <time>2020-02-23T14:32:52.000Z</time>
      </trkpt>
      <trkpt lat="45.18323" lon="5.62067">
        <ele>858</ele>
        <time>2020-02-23T14:32:45.000Z</time>
      </trkpt>
      <trkpt lat="45.18316" lon="5.62069">
        <ele>854.3</ele>
        <time>2020-02-23T14:32:55.000Z</time>
      </trkpt>
      <trkpt lat="45.18308" lon="5.62068">
        <ele>854.4</ele>
        <time>2020-02-23T14:33:05.000Z</time>
      </trkpt>
      <trkpt lat="45.18299" lon="5.62063">
        <ele>862</ele>
        <time>2020-02-23T14:32:55.000Z</time>
      </trkpt>
      <trkpt lat="45.1829" lon="5.62056">
        <ele>854.8</ele>
        <time>2020-02-23T14:33:05.000Z</time>
      </trkpt>
      <trkpt lat="45.18276" lon="5.62038">
        <ele>861</ele>
        <time>2020-02-23T14:33:05.000Z</time>
      </trkpt>
      <trkpt lat="45.18263" lon="5.62025">
        <ele>856.7</ele>
        <time>2020-02-23T14:33:15.000Z</time>
      </trkpt>
      <trkpt lat="45.18257" lon="5.62016">
        <ele>861</ele>
        <time>2020-02-23T14:33:15.000Z</time>
      </trkpt>
      <trkpt lat="45.18249" lon="5.62">
        <ele>857.5</ele>
        <time>2020-02-23T14:33:25.000Z</time>
      </trkpt>
      <trkpt lat="45.18243" lon="5.6198">
        <ele>869</ele>
        <time>2020-02-23T14:33:24.000Z</time>
      </trkpt>
      <trkpt lat="45.18238" lon="5.6196">
        <ele>863.3</ele>
        <time>2020-02-23T14:33:34.000Z</time>
      </trkpt>
      <trkpt lat="45.18236" lon="5.61953">
        <ele>878</ele>
        <time>2020-02-23T14:33:32.000Z</time>
      </trkpt>
      <trkpt lat="45.18233" lon="5.61946">
        <ele>865.4</ele>
        <time>2020-02-23T14:33:42.000Z</time>
      </trkpt>
      <trkpt lat="45.18227" lon="5.61937">
        <ele>866.2</ele>
        <time>2020-02-23T14:33:52.000Z</time>
      </trkpt>
      <trkpt lat="45.18218" lon="5.61927">
        <ele>877</ele>
        <time>2020-02-23T14:33:40.000Z</time>
      </trkpt>
      <trkpt lat="45.18211" lon="5.61921">
        <ele>865.4</ele>
        <time>2020-02-23T14:33:50.000Z</time>
      </trkpt>
      <trkpt lat="45.18196" lon="5.61911">
        <ele>878</ele>
        <time>2020-02-23T14:33:49.000Z</time>
      </trkpt>
      <trkpt lat="45.18192" lon="5.61908">
        <ele>876.2</ele>
        <time>2020-02-23T14:33:59.000Z</time>
      </trkpt>
      <trkpt lat="45.18183" lon="5.61904">
        <ele>874.8</ele>
        <time>2020-02-23T14:34:09.000Z</time>
      </trkpt>
      <trkpt lat="45.18174" lon="5.61903">
        <ele>873</ele>
        <time>2020-02-23T14:33:59.000Z</time>
      </trkpt>
      <trkpt lat="45.18135" lon="5.61907">
        <ele>869</ele>
        <time>2020-02-23T14:34:15.000Z</time>
      </trkpt>
      <trkpt lat="45.18121" lon="5.61906">
        <ele>870.3</ele>
        <time>2020-02-23T14:34:25.000Z</time>
      </trkpt>
      <trkpt lat="45.18115" lon="5.61905">
        <ele>869</ele>
        <time>2020-02-23T14:34:24.000Z</time>
      </trkpt>
      <trkpt lat="45.18097" lon="5.619">
        <ele>868.3</ele>
        <time>2020-02-23T14:34:34.000Z</time>
      </trkpt>
      <trkpt lat="45.18081" lon="5.61893">
        <ele>869</ele>
        <time>2020-02-23T14:34:38.000Z</time>
      </trkpt>
      <trkpt lat="45.1807" lon="5.61889">
        <ele>870.1</ele>
        <time>2020-02-23T14:34:48.000Z</time>
      </trkpt>
      <trkpt lat="45.18065" lon="5.61888">
        <ele>870.6</ele>
        <time>2020-02-23T14:34:58.000Z</time>
      </trkpt>
      <trkpt lat="45.18052" lon="5.61888">
        <ele>868</ele>
        <time>2020-02-23T14:34:48.000Z</time>
      </trkpt>
      <trkpt lat="45.18047" lon="5.61889">
        <ele>871.3</ele>
        <time>2020-02-23T14:34:58.000Z</time>
      </trkpt>
      <trkpt lat="45.18029" lon="5.61895">
        <ele>861</ele>
        <time>2020-02-23T14:34:58.000Z</time>
      </trkpt>
      <trkpt lat="45.18" lon="5.61908">
        <ele>861</ele>
        <time>2020-02-23T14:35:09.000Z</time>
      </trkpt>
      <trkpt lat="45.17983" lon="5.61917">
        <ele>858.7</ele>
        <time>2020-02-23T14:35:19.000Z</time>
      </trkpt>
      <trkpt lat="45.17972" lon="5.6192">
        <ele>862</ele>
        <time>2020-02-23T14:35:21.000Z</time>
      </trkpt>
      <trkpt lat="45.17964" lon="5.61922">
        <ele>856.5</ele>
        <time>2020-02-23T14:35:31.000Z</time>
      </trkpt>
      <trkpt lat="45.17958" lon="5.61922">
        <ele>856.5</ele>
        <time>2020-02-23T14:35:41.000Z</time>
      </trkpt>
      <trkpt lat="45.17953" lon="5.61921">
        <ele>856.7</ele>
        <time>2020-02-23T14:35:51.000Z</time>
      </trkpt>
      <trkpt lat="45.17951" lon="5.61919">
        <ele>867</ele>
        <time>2020-02-23T14:35:29.000Z</time>
      </trkpt>
      <trkpt lat="45.17944" lon="5.61914">
        <ele>869.9</ele>
        <time>2020-02-23T14:35:39.000Z</time>
      </trkpt>
      <trkpt lat="45.17928" lon="5.61899">
        <ele>873</ele>
        <time>2020-02-23T14:35:40.000Z</time>
      </trkpt>
      <trkpt lat="45.17919" lon="5.61893">
        <ele>870.6</ele>
        <time>2020-02-23T14:35:50.000Z</time>
      </trkpt>
      <trkpt lat="45.17913" lon="5.6189">
        <ele>868.3</ele>
        <time>2020-02-23T14:36:00.000Z</time>
      </trkpt>
      <trkpt lat="45.17902" lon="5.61888">
        <ele>873</ele>
        <time>2020-02-23T14:35:48.000Z</time>
      </trkpt>
      <trkpt lat="45.17882" lon="5.61888">
        <ele>873</ele>
        <time>2020-02-23T14:35:56.000Z</time>
      </trkpt>
      <trkpt lat="45.17856" lon="5.61891">
        <ele>866</ele>
        <time>2020-02-23T14:36:05.000Z</time>
      </trkpt>
      <trkpt lat="45.17845" lon="5.6189">
        <ele>864.6</ele>
        <time>2020-02-23T14:36:15.000Z</time>
      </trkpt>
      <trkpt lat="45.17839" lon="5.61889">
        <ele>864.4</ele>
        <time>2020-02-23T14:36:25.000Z</time>
      </trkpt>
      <trkpt lat="45.17828" lon="5.61885">
        <ele>867</ele>
        <time>2020-02-23T14:36:15.000Z</time>
      </trkpt>
      <trkpt lat="45.17822" lon="5.61882">
        <ele>862.6</ele>
        <time>2020-02-23T14:36:25.000Z</time>
      </trkpt>
      <trkpt lat="45.17805" lon="5.61871">
        <ele>866</ele>
        <time>2020-02-23T14:36:23.000Z</time>
      </trkpt>
      <trkpt lat="45.17799" lon="5.61869">
        <ele>864.4</ele>
        <time>2020-02-23T14:36:33.000Z</time>
      </trkpt>
      <trkpt lat="45.17794" lon="5.61868">
        <ele>864.4</ele>
        <time>2020-02-23T14:36:43.000Z</time>
      </trkpt>
      <trkpt lat="45.17781" lon="5.61867">
        <ele>866</ele>
        <time>2020-02-23T14:36:33.000Z</time>
      </trkpt>
      <trkpt lat="45.17757" lon="5.61872">
        <ele>865</ele>
        <time>2020-02-23T14:36:42.000Z</time>
      </trkpt>
      <trkpt lat="45.17739" lon="5.61874">
        <ele>859.9</ele>
        <time>2020-02-23T14:36:52.000Z</time>
      </trkpt>
      <trkpt lat="45.1772" lon="5.61875">
        <ele>864</ele>
        <time>2020-02-23T14:36:57.000Z</time>
      </trkpt>
      <trkpt lat="45.17715" lon="5.61876">
        <ele>858.7</ele>
        <time>2020-02-23T14:37:07.000Z</time>
      </trkpt>
      <trkpt lat="45.17714" lon="5.61877">
        <ele>858.6</ele>
        <time>2020-02-23T14:37:17.000Z</time>
      </trkpt>
      <trkpt lat="45.17713" lon="5.6188">
        <ele>858.2</ele>
        <time>2020-02-23T14:37:27.000Z</time>
      </trkpt>
      <trkpt lat="45.17714" lon="5.61882">
        <ele>858</ele>
        <time>2020-02-23T14:37:37.000Z</time>
      </trkpt>
      <trkpt lat="45.17715" lon="5.6189">
        <ele>857.2</ele>
        <time>2020-02-23T14:37:47.000Z</time>
      </trkpt>
      <trkpt lat="45.17716" lon="5.61893">
        <ele>862</ele>
        <time>2020-02-23T14:37:17.000Z</time>
      </trkpt>
      <trkpt lat="45.17718" lon="5.61896">
        <ele>856.8</ele>
        <time>2020-02-23T14:37:27.000Z</time>
      </trkpt>
      <trkpt lat="45.17721" lon="5.61897">
        <ele>856.7</ele>
        <time>2020-02-23T14:37:37.000Z</time>
      </trkpt>
      <trkpt lat="45.17733" lon="5.61895">
        <ele>856.8</ele>
        <time>2020-02-23T14:37:47.000Z</time>
      </trkpt>
      <trkpt lat="45.17754" lon="5.61889">
        <ele>861</ele>
        <time>2020-02-23T14:37:34.000Z</time>
      </trkpt>
      <trkpt lat="45.1777" lon="5.61885">
        <ele>861.7</ele>
        <time>2020-02-23T14:37:44.000Z</time>
      </trkpt>
      <trkpt lat="45.17787" lon="5.61883">
        <ele>859</ele>
        <time>2020-02-23T14:37:46.000Z</time>
      </trkpt>
      <trkpt lat="45.17793" lon="5.61884">
        <ele>862.4</ele>
        <time>2020-02-23T14:37:56.000Z</time>
      </trkpt>
      <trkpt lat="45.17799" lon="5.61887">
        <ele>862.1</ele>
        <time>2020-02-23T14:38:06.000Z</time>
      </trkpt>
      <trkpt lat="45.17823" lon="5.61903">
        <ele>859</ele>
        <time>2020-02-23T14:37:59.000Z</time>
      </trkpt>
      <trkpt lat="45.17858" lon="5.61919">
        <ele>862</ele>
        <time>2020-02-23T14:38:12.000Z</time>
      </trkpt>
      <trkpt lat="45.17881" lon="5.61928">
        <ele>859</ele>
        <time>2020-02-23T14:38:20.000Z</time>
      </trkpt>
      <trkpt lat="45.17886" lon="5.61932">
        <ele>855.4</ele>
        <time>2020-02-23T14:38:30.000Z</time>
      </trkpt>
      <trkpt lat="45.17888" lon="5.61936">
        <ele>855.1</ele>
        <time>2020-02-23T14:38:40.000Z</time>
      </trkpt>
      <trkpt lat="45.17898" lon="5.61946">
        <ele>857</ele>
        <time>2020-02-23T14:38:33.000Z</time>
      </trkpt>
      <trkpt lat="45.17924" lon="5.61963">
        <ele>854</ele>
        <time>2020-02-23T14:38:45.000Z</time>
      </trkpt>
      <trkpt lat="45.17932" lon="5.61971">
        <ele>849.6</ele>
        <time>2020-02-23T14:38:55.000Z</time>
      </trkpt>
      <trkpt lat="45.1794" lon="5.6198">
        <ele>854</ele>
        <time>2020-02-23T14:38:57.000Z</time>
      </trkpt>
      <trkpt lat="45.1794" lon="5.61984">
        <ele>847.8</ele>
        <time>2020-02-23T14:39:07.000Z</time>
      </trkpt>
      <trkpt lat="45.17931" lon="5.61989">
        <ele>846.1</ele>
        <time>2020-02-23T14:39:17.000Z</time>
      </trkpt>
      <trkpt lat="45.1793" lon="5.61993">
        <ele>845.2</ele>
        <time>2020-02-23T14:39:27.000Z</time>
      </trkpt>
      <trkpt lat="45.17937" lon="5.62006">
        <ele>839</ele>
        <time>2020-02-23T14:39:25.000Z</time>
      </trkpt>
      <trkpt lat="45.17936" lon="5.6201">
        <ele>843.2</ele>
        <time>2020-02-23T14:39:35.000Z</time>
      </trkpt>
      <trkpt lat="45.1793" lon="5.62017">
        <ele>843.5</ele>
        <time>2020-02-23T14:39:45.000Z</time>
      </trkpt>
      <trkpt lat="45.17928" lon="5.6202">
        <ele>843.8</ele>
        <time>2020-02-23T14:39:55.000Z</time>
      </trkpt>
      <trkpt lat="45.17926" lon="5.6203">
        <ele>841</ele>
        <time>2020-02-23T14:39:41.000Z</time>
      </trkpt>
      <trkpt lat="45.17926" lon="5.62038">
        <ele>845.9</ele>
        <time>2020-02-23T14:39:51.000Z</time>
      </trkpt>
      <trkpt lat="45.17926" lon="5.62042">
        <ele>846.4</ele>
        <time>2020-02-23T14:40:01.000Z</time>
      </trkpt>
      <trkpt lat="45.17928" lon="5.62048">
        <ele>847.1</ele>
        <time>2020-02-23T14:40:11.000Z</time>
      </trkpt>
      <trkpt lat="45.17935" lon="5.62055">
        <ele>843</ele>
        <time>2020-02-23T14:39:55.000Z</time>
      </trkpt>
      <trkpt lat="45.17938" lon="5.62055">
        <ele>847.6</ele>
        <time>2020-02-23T14:40:05.000Z</time>
      </trkpt>
      <trkpt lat="45.17943" lon="5.6206">
        <ele>847.8</ele>
        <time>2020-02-23T14:40:15.000Z</time>
      </trkpt>
      <trkpt lat="45.1795" lon="5.62064">
        <ele>847.7</ele>
        <time>2020-02-23T14:40:25.000Z</time>
      </trkpt>
      <trkpt lat="45.17955" lon="5.62066">
        <ele>843</ele>
        <time>2020-02-23T14:40:06.000Z</time>
      </trkpt>
      <trkpt lat="45.17958" lon="5.62066">
        <ele>847.4</ele>
        <time>2020-02-23T14:40:16.000Z</time>
      </trkpt>
      <trkpt lat="45.17977" lon="5.62063">
        <ele>842</ele>
        <time>2020-02-23T14:40:15.000Z</time>
      </trkpt>
      <trkpt lat="45.17986" lon="5.62059">
        <ele>846.6</ele>
        <time>2020-02-23T14:40:25.000Z</time>
      </trkpt>
      <trkpt lat="45.18003" lon="5.62053">
        <ele>842</ele>
        <time>2020-02-23T14:40:25.000Z</time>
      </trkpt>
      <trkpt lat="45.1801" lon="5.62052">
        <ele>844.6</ele>
        <time>2020-02-23T14:40:35.000Z</time>
      </trkpt>
      <trkpt lat="45.18017" lon="5.62055">
        <ele>844.7</ele>
        <time>2020-02-23T14:40:45.000Z</time>
      </trkpt>
      <trkpt lat="45.18022" lon="5.62059">
        <ele>844</ele>
        <time>2020-02-23T14:40:35.000Z</time>
      </trkpt>
      <trkpt lat="45.18028" lon="5.62065">
        <ele>844.8</ele>
        <time>2020-02-23T14:40:45.000Z</time>
      </trkpt>
      <trkpt lat="45.18041" lon="5.62082">
        <ele>845</ele>
        <time>2020-02-23T14:40:49.000Z</time>
      </trkpt>
      <trkpt lat="45.18045" lon="5.62086">
        <ele>858.2</ele>
        <time>2020-02-23T14:40:59.000Z</time>
      </trkpt>
      <trkpt lat="45.18052" lon="5.62095">
        <ele>858.4</ele>
        <time>2020-02-23T14:41:09.000Z</time>
      </trkpt>
      <trkpt lat="45.18057" lon="5.62101">
        <ele>846</ele>
        <time>2020-02-23T14:41:04.000Z</time>
      </trkpt>
      <trkpt lat="45.18059" lon="5.62103">
        <ele>858.8</ele>
        <time>2020-02-23T14:41:14.000Z</time>
      </trkpt>
      <trkpt lat="45.18073" lon="5.62117">
        <ele>847</ele>
        <time>2020-02-23T14:41:18.000Z</time>
      </trkpt>
      <trkpt lat="45.18079" lon="5.62121">
        <ele>862.1</ele>
        <time>2020-02-23T14:41:28.000Z</time>
      </trkpt>
      <trkpt lat="45.18092" lon="5.62128">
        <ele>847</ele>
        <time>2020-02-23T14:41:31.000Z</time>
      </trkpt>
      <trkpt lat="45.18129" lon="5.62143">
        <ele>848</ele>
        <time>2020-02-23T14:41:54.000Z</time>
      </trkpt>
      <trkpt lat="45.18135" lon="5.62147">
        <ele>853</ele>
        <time>2020-02-23T14:42:04.000Z</time>
      </trkpt>
      <trkpt lat="45.18138" lon="5.6215">
        <ele>852.8</ele>
        <time>2020-02-23T14:42:14.000Z</time>
      </trkpt>
      <trkpt lat="45.18144" lon="5.62158">
        <ele>852.2</ele>
        <time>2020-02-23T14:42:24.000Z</time>
      </trkpt>
      <trkpt lat="45.18148" lon="5.62167">
        <ele>849</ele>
        <time>2020-02-23T14:42:07.000Z</time>
      </trkpt>
      <trkpt lat="45.18155" lon="5.62191">
        <ele>866.4</ele>
        <time>2020-02-23T14:42:17.000Z</time>
      </trkpt>
      <trkpt lat="45.18157" lon="5.62198">
        <ele>856</ele>
        <time>2020-02-23T14:42:16.000Z</time>
      </trkpt>
      <trkpt lat="45.18163" lon="5.62214">
        <ele>870.7</ele>
        <time>2020-02-23T14:42:26.000Z</time>
      </trkpt>
      <trkpt lat="45.1817" lon="5.62226">
        <ele>858</ele>
        <time>2020-02-23T14:42:23.000Z</time>
      </trkpt>
      <trkpt lat="45.18174" lon="5.62235">
        <ele>856.6</ele>
        <time>2020-02-23T14:42:33.000Z</time>
      </trkpt>
      <trkpt lat="45.18178" lon="5.62241">
        <ele>857.6</ele>
        <time>2020-02-23T14:42:43.000Z</time>
      </trkpt>
      <trkpt lat="45.18185" lon="5.62251">
        <ele>863</ele>
        <time>2020-02-23T14:42:32.000Z</time>
      </trkpt>
      <trkpt lat="45.18197" lon="5.62271">
        <ele>865</ele>
        <time>2020-02-23T14:42:42.000Z</time>
      </trkpt>
      <trkpt lat="45.18199" lon="5.62281">
        <ele>856</ele>
        <time>2020-02-23T14:42:47.000Z</time>
      </trkpt>
      <trkpt lat="45.18201" lon="5.62283">
        <ele>865.9</ele>
        <time>2020-02-23T14:42:57.000Z</time>
      </trkpt>
      <trkpt lat="45.18202" lon="5.62288">
        <ele>866.5</ele>
        <time>2020-02-23T14:43:07.000Z</time>
      </trkpt>
      <trkpt lat="45.18204" lon="5.62289">
        <ele>866.3</ele>
        <time>2020-02-23T14:43:17.000Z</time>
      </trkpt>
      <trkpt lat="45.18207" lon="5.62295">
        <ele>866.6</ele>
        <time>2020-02-23T14:43:27.000Z</time>
      </trkpt>
      <trkpt lat="45.18208" lon="5.62296">
        <ele>866.6</ele>
        <time>2020-02-23T14:43:37.000Z</time>
      </trkpt>
      <trkpt lat="45.18211" lon="5.62301">
        <ele>866.7</ele>
        <time>2020-02-23T14:43:47.000Z</time>
      </trkpt>
      <trkpt lat="45.18212" lon="5.62303">
        <ele>873</ele>
        <time>2020-02-23T14:43:25.000Z</time>
      </trkpt>
      <trkpt lat="45.18212" lon="5.62306">
        <ele>867.1</ele>
        <time>2020-02-23T14:43:35.000Z</time>
      </trkpt>
      <trkpt lat="45.18216" lon="5.62316">
        <ele>867.2</ele>
        <time>2020-02-23T14:43:45.000Z</time>
      </trkpt>
      <trkpt lat="45.18217" lon="5.62319">
        <ele>867.2</ele>
        <time>2020-02-23T14:43:55.000Z</time>
      </trkpt>
      <trkpt lat="45.18215" lon="5.62318">
        <ele>867.7</ele>
        <time>2020-02-23T14:44:05.000Z</time>
      </trkpt>
      <trkpt lat="45.18213" lon="5.62318">
        <ele>868.3</ele>
        <time>2020-02-23T14:44:15.000Z</time>
      </trkpt>
      <trkpt lat="45.18204" lon="5.62321">
        <ele>891</ele>
        <time>2020-02-23T14:44:00.000Z</time>
      </trkpt>
      <trkpt lat="45.18203" lon="5.62323">
        <ele>872.4</ele>
        <time>2020-02-23T14:44:10.000Z</time>
      </trkpt>
      <trkpt lat="45.18203" lon="5.62325">
        <ele>872.6</ele>
        <time>2020-02-23T14:44:20.000Z</time>
      </trkpt>
      <trkpt lat="45.18204" lon="5.62329">
        <ele>872.6</ele>
        <time>2020-02-23T14:44:30.000Z</time>
      </trkpt>
      <trkpt lat="45.18206" lon="5.62331">
        <ele>872</ele>
        <time>2020-02-23T14:44:40.000Z</time>
      </trkpt>
      <trkpt lat="45.18205" lon="5.62334">
        <ele>886.8</ele>
        <time>2020-02-23T14:44:50.000Z</time>
      </trkpt>
      <trkpt lat="45.18203" lon="5.62333">
        <ele>873.4</ele>
        <time>2020-02-23T14:45:00.000Z</time>
      </trkpt>
      <trkpt lat="45.18203" lon="5.62342">
        <ele>891</ele>
        <time>2020-02-23T14:44:31.000Z</time>
      </trkpt>
      <trkpt lat="45.18204" lon="5.62344">
        <ele>887.6</ele>
        <time>2020-02-23T14:44:41.000Z</time>
      </trkpt>
      <trkpt lat="45.18207" lon="5.62344">
        <ele>886.4</ele>
        <time>2020-02-23T14:44:51.000Z</time>
      </trkpt>
      <trkpt lat="45.18218" lon="5.62353">
        <ele>883.1</ele>
        <time>2020-02-23T14:45:01.000Z</time>
      </trkpt>
      <trkpt lat="45.18222" lon="5.62356">
        <ele>882</ele>
        <time>2020-02-23T14:44:48.000Z</time>
      </trkpt>
      <trkpt lat="45.18224" lon="5.6236">
        <ele>882.1</ele>
        <time>2020-02-23T14:44:58.000Z</time>
      </trkpt>
      <trkpt lat="45.18227" lon="5.62367">
        <ele>882.4</ele>
        <time>2020-02-23T14:45:08.000Z</time>
      </trkpt>
      <trkpt lat="45.18227" lon="5.62374">
        <ele>883.3</ele>
        <time>2020-02-23T14:45:18.000Z</time>
      </trkpt>
      <trkpt lat="45.18228" lon="5.62376">
        <ele>883.2</ele>
        <time>2020-02-23T14:45:28.000Z</time>
      </trkpt>
      <trkpt lat="45.18228" lon="5.62379">
        <ele>883.5</ele>
        <time>2020-02-23T14:45:38.000Z</time>
      </trkpt>
      <trkpt lat="45.1823" lon="5.62391">
        <ele>874</ele>
        <time>2020-02-23T14:45:11.000Z</time>
      </trkpt>
      <trkpt lat="45.1823" lon="5.62395">
        <ele>883</ele>
        <time>2020-02-23T14:45:21.000Z</time>
      </trkpt>
      <trkpt lat="45.18227" lon="5.62403">
        <ele>883.5</ele>
        <time>2020-02-23T14:45:31.000Z</time>
      </trkpt>
      <trkpt lat="45.1822" lon="5.62413">
        <ele>874</ele>
        <time>2020-02-23T14:45:27.000Z</time>
      </trkpt>
      <trkpt lat="45.18213" lon="5.62427">
        <ele>897.1</ele>
        <time>2020-02-23T14:45:37.000Z</time>
      </trkpt>
      <trkpt lat="45.18203" lon="5.62449">
        <ele>906</ele>
        <time>2020-02-23T14:45:54.000Z</time>
      </trkpt>
      <trkpt lat="45.18198" lon="5.6246">
        <ele>903.7</ele>
        <time>2020-02-23T14:46:04.000Z</time>
      </trkpt>
      <trkpt lat="45.18197" lon="5.62487">
        <ele>905</ele>
        <time>2020-02-23T14:46:14.000Z</time>
      </trkpt>
      <trkpt lat="45.18195" lon="5.62501">
        <ele>911.3</ele>
        <time>2020-02-23T14:46:24.000Z</time>
      </trkpt>
      <trkpt lat="45.18192" lon="5.62513">
        <ele>905</ele>
        <time>2020-02-23T14:46:29.000Z</time>
      </trkpt>
      <trkpt lat="45.18187" lon="5.62523">
        <ele>912.5</ele>
        <time>2020-02-23T14:46:39.000Z</time>
      </trkpt>
      <trkpt lat="45.18179" lon="5.6253">
        <ele>913.3</ele>
        <time>2020-02-23T14:46:49.000Z</time>
      </trkpt>
      <trkpt lat="45.18168" lon="5.62552">
        <ele>921</ele>
        <time>2020-02-23T14:47:15.000Z</time>
      </trkpt>
      <trkpt lat="45.18166" lon="5.62569">
        <ele>935.8</ele>
        <time>2020-02-23T14:47:25.000Z</time>
      </trkpt>
      <trkpt lat="45.18161" lon="5.62594">
        <ele>938</ele>
        <time>2020-02-23T14:47:36.000Z</time>
      </trkpt>
      <trkpt lat="45.18156" lon="5.62604">
        <ele>941.6</ele>
        <time>2020-02-23T14:47:46.000Z</time>
      </trkpt>
      <trkpt lat="45.18148" lon="5.62614">
        <ele>952</ele>
        <time>2020-02-23T14:47:56.000Z</time>
      </trkpt>
      <trkpt lat="45.18141" lon="5.62626">
        <ele>951.1</ele>
        <time>2020-02-23T14:48:06.000Z</time>
      </trkpt>
      <trkpt lat="45.1814" lon="5.62629">
        <ele>951.7</ele>
        <time>2020-02-23T14:48:16.000Z</time>
      </trkpt>
      <trkpt lat="45.18135" lon="5.62636">
        <ele>966</ele>
        <time>2020-02-23T14:48:10.000Z</time>
      </trkpt>
      <trkpt lat="45.1813" lon="5.62649">
        <ele>954.6</ele>
        <time>2020-02-23T14:48:20.000Z</time>
      </trkpt>
      <trkpt lat="45.18128" lon="5.62662">
        <ele>986</ele>
        <time>2020-02-23T14:48:21.000Z</time>
      </trkpt>
      <trkpt lat="45.18121" lon="5.62667">
        <ele>971</ele>
        <time>2020-02-23T14:48:31.000Z</time>
      </trkpt>
      <trkpt lat="45.18111" lon="5.62668">
        <ele>971.6</ele>
        <time>2020-02-23T14:48:41.000Z</time>
      </trkpt>
      <trkpt lat="45.18104" lon="5.62678">
        <ele>986</ele>
        <time>2020-02-23T14:48:50.000Z</time>
      </trkpt>
      <trkpt lat="45.18096" lon="5.62683">
        <ele>972.9</ele>
        <time>2020-02-23T14:49:00.000Z</time>
      </trkpt>
      <trkpt lat="45.18086" lon="5.62685">
        <ele>973</ele>
        <time>2020-02-23T14:49:10.000Z</time>
      </trkpt>
      <trkpt lat="45.18077" lon="5.62689">
        <ele>989</ele>
        <time>2020-02-23T14:49:28.000Z</time>
      </trkpt>
      <trkpt lat="45.1807" lon="5.62697">
        <ele>988</ele>
        <time>2020-02-23T14:49:38.000Z</time>
      </trkpt>
      <trkpt lat="45.18072" lon="5.6271">
        <ele>990.5</ele>
        <time>2020-02-23T14:49:48.000Z</time>
      </trkpt>
      <trkpt lat="45.18079" lon="5.62718">
        <ele>992</ele>
        <time>2020-02-23T14:51:04.000Z</time>
      </trkpt>
      <trkpt lat="45.1807" lon="5.62719">
        <ele>992</ele>
        <time>2020-02-23T14:51:14.000Z</time>
      </trkpt>
      <trkpt lat="45.18051" lon="5.6272">
        <ele>995</ele>
        <time>2020-02-23T14:51:36.000Z</time>
      </trkpt>
      <trkpt lat="45.18033" lon="5.62733">
        <ele>998</ele>
        <time>2020-02-23T14:51:55.000Z</time>
      </trkpt>
      <trkpt lat="45.1803" lon="5.62736">
        <ele>997.3</ele>
        <time>2020-02-23T14:52:05.000Z</time>
      </trkpt>
      <trkpt lat="45.18032" lon="5.62737">
        <ele>997.1</ele>
        <time>2020-02-23T14:52:15.000Z</time>
      </trkpt>
      <trkpt lat="45.18023" lon="5.62749">
        <ele>998.6</ele>
        <time>2020-02-23T14:52:25.000Z</time>
      </trkpt>
      <trkpt lat="45.18018" lon="5.62757">
        <ele>1011</ele>
        <time>2020-02-23T14:52:41.000Z</time>
      </trkpt>
      <trkpt lat="45.18011" lon="5.62765">
        <ele>1007.4</ele>
        <time>2020-02-23T14:52:51.000Z</time>
      </trkpt>
      <trkpt lat="45.18006" lon="5.62777">
        <ele>1009.3</ele>
        <time>2020-02-23T14:53:01.000Z</time>
      </trkpt>
      <trkpt lat="45.17998" lon="5.62785">
        <ele>1024</ele>
        <time>2020-02-23T14:53:02.000Z</time>
      </trkpt>
      <trkpt lat="45.17992" lon="5.62795">
        <ele>1018.6</ele>
        <time>2020-02-23T14:53:12.000Z</time>
      </trkpt>
      <trkpt lat="45.17974" lon="5.62807">
        <ele>1036</ele>
        <time>2020-02-23T14:53:23.000Z</time>
      </trkpt>
      <trkpt lat="45.17967" lon="5.62819">
        <ele>1021.4</ele>
        <time>2020-02-23T14:53:33.000Z</time>
      </trkpt>
      <trkpt lat="45.17959" lon="5.62826">
        <ele>1040</ele>
        <time>2020-02-23T14:53:37.000Z</time>
      </trkpt>
      <trkpt lat="45.17951" lon="5.62831">
        <ele>1022.8</ele>
        <time>2020-02-23T14:53:47.000Z</time>
      </trkpt>
      <trkpt lat="45.17946" lon="5.62838">
        <ele>1030</ele>
        <time>2020-02-23T14:53:57.000Z</time>
      </trkpt>
      <trkpt lat="45.17943" lon="5.6284">
        <ele>1030</ele>
        <time>2020-02-23T14:54:07.000Z</time>
      </trkpt>
      <trkpt lat="45.17941" lon="5.62843">
        <ele>1040</ele>
        <time>2020-02-23T14:53:52.000Z</time>
      </trkpt>
      <trkpt lat="45.17938" lon="5.62844">
        <ele>1030</ele>
        <time>2020-02-23T14:54:02.000Z</time>
      </trkpt>
      <trkpt lat="45.17936" lon="5.62846">
        <ele>1030.1</ele>
        <time>2020-02-23T14:54:12.000Z</time>
      </trkpt>
      <trkpt lat="45.17932" lon="5.62852">
        <ele>1030.5</ele>
        <time>2020-02-23T14:54:22.000Z</time>
      </trkpt>
      <trkpt lat="45.17926" lon="5.62859">
        <ele>1041</ele>
        <time>2020-02-23T14:54:09.000Z</time>
      </trkpt>
      <trkpt lat="45.17921" lon="5.62861">
        <ele>1031.4</ele>
        <time>2020-02-23T14:54:19.000Z</time>
      </trkpt>
      <trkpt lat="45.17912" lon="5.6286">
        <ele>1037.7</ele>
        <time>2020-02-23T14:54:29.000Z</time>
      </trkpt>
      <trkpt lat="45.17915" lon="5.62846">
        <ele>1041</ele>
        <time>2020-02-23T14:54:29.000Z</time>
      </trkpt>
      <trkpt lat="45.17921" lon="5.62833">
        <ele>1025.5</ele>
        <time>2020-02-23T14:54:39.000Z</time>
      </trkpt>
      <trkpt lat="45.17923" lon="5.62817">
        <ele>1042</ele>
        <time>2020-02-23T14:54:46.000Z</time>
      </trkpt>
      <trkpt lat="45.17924" lon="5.62812">
        <ele>1024.6</ele>
        <time>2020-02-23T14:54:56.000Z</time>
      </trkpt>
      <trkpt lat="45.17921" lon="5.62798">
        <ele>1025</ele>
        <time>2020-02-23T14:55:06.000Z</time>
      </trkpt>
      <trkpt lat="45.17917" lon="5.62789">
        <ele>1045</ele>
        <time>2020-02-23T14:55:09.000Z</time>
      </trkpt>
      <trkpt lat="45.17917" lon="5.62786">
        <ele>1026.2</ele>
        <time>2020-02-23T14:55:19.000Z</time>
      </trkpt>
      <trkpt lat="45.17914" lon="5.6277">
        <ele>1043.5</ele>
        <time>2020-02-23T14:55:29.000Z</time>
      </trkpt>
      <trkpt lat="45.17917" lon="5.62758">
        <ele>1054</ele>
        <time>2020-02-23T14:55:41.000Z</time>
      </trkpt>
      <trkpt lat="45.1792" lon="5.62746">
        <ele>1036.3</ele>
        <time>2020-02-23T14:55:51.000Z</time>
      </trkpt>
      <trkpt lat="45.17921" lon="5.62732">
        <ele>1034.3</ele>
        <time>2020-02-23T14:56:01.000Z</time>
      </trkpt>
      <trkpt lat="45.17923" lon="5.62717">
        <ele>1054</ele>
        <time>2020-02-23T14:56:12.000Z</time>
      </trkpt>
      <trkpt lat="45.17927" lon="5.62705">
        <ele>1035.8</ele>
        <time>2020-02-23T14:56:22.000Z</time>
      </trkpt>
      <trkpt lat="45.1793" lon="5.62692">
        <ele>1038.5</ele>
        <time>2020-02-23T14:56:32.000Z</time>
      </trkpt>
      <trkpt lat="45.17934" lon="5.62681">
        <ele>1054</ele>
        <time>2020-02-23T14:56:41.000Z</time>
      </trkpt>
      <trkpt lat="45.1794" lon="5.62669">
        <ele>1040</ele>
        <time>2020-02-23T14:56:51.000Z</time>
      </trkpt>
      <trkpt lat="45.17943" lon="5.62655">
        <ele>1055</ele>
        <time>2020-02-23T14:57:03.000Z</time>
      </trkpt>
      <trkpt lat="45.17948" lon="5.62644">
        <ele>1051.2</ele>
        <time>2020-02-23T14:57:13.000Z</time>
      </trkpt>
      <trkpt lat="45.17951" lon="5.62631">
        <ele>1052.1</ele>
        <time>2020-02-23T14:57:23.000Z</time>
      </trkpt>
      <trkpt lat="45.17956" lon="5.6262">
        <ele>1055</ele>
        <time>2020-02-23T14:57:29.000Z</time>
      </trkpt>
      <trkpt lat="45.17962" lon="5.6261">
        <ele>1052.7</ele>
        <time>2020-02-23T14:57:39.000Z</time>
      </trkpt>
      <trkpt lat="45.17967" lon="5.62584">
        <ele>1056</ele>
        <time>2020-02-23T14:58:01.000Z</time>
      </trkpt>
      <trkpt lat="45.17967" lon="5.62579">
        <ele>1069.2</ele>
        <time>2020-02-23T14:58:11.000Z</time>
      </trkpt>
      <trkpt lat="45.17967" lon="5.62576">
        <ele>1069.4</ele>
        <time>2020-02-23T14:58:21.000Z</time>
      </trkpt>
      <trkpt lat="45.17971" lon="5.62569">
        <ele>1068.7</ele>
        <time>2020-02-23T14:58:31.000Z</time>
      </trkpt>
      <trkpt lat="45.17972" lon="5.62567">
        <ele>1068.7</ele>
        <time>2020-02-23T14:58:41.000Z</time>
      </trkpt>
      <trkpt lat="45.17973" lon="5.62564">
        <ele>1068.9</ele>
        <time>2020-02-23T14:58:51.000Z</time>
      </trkpt>
      <trkpt lat="45.17977" lon="5.62555">
        <ele>1056</ele>
        <time>2020-02-23T14:58:30.000Z</time>
      </trkpt>
      <trkpt lat="45.17979" lon="5.62552">
        <ele>1069.9</ele>
        <time>2020-02-23T14:58:40.000Z</time>
      </trkpt>
      <trkpt lat="45.17981" lon="5.62546">
        <ele>1070.8</ele>
        <time>2020-02-23T14:58:50.000Z</time>
      </trkpt>
      <trkpt lat="45.17987" lon="5.62535">
        <ele>1071.7</ele>
        <time>2020-02-23T14:59:00.000Z</time>
      </trkpt>
      <trkpt lat="45.17997" lon="5.62523">
        <ele>1056</ele>
        <time>2020-02-23T14:59:02.000Z</time>
      </trkpt>
      <trkpt lat="45.18003" lon="5.62512">
        <ele>1052.1</ele>
        <time>2020-02-23T14:59:12.000Z</time>
      </trkpt>
      <trkpt lat="45.18005" lon="5.62504">
        <ele>1058.9</ele>
        <time>2020-02-23T14:59:22.000Z</time>
      </trkpt>
      <trkpt lat="45.18006" lon="5.62498">
        <ele>1051</ele>
        <time>2020-02-23T14:59:23.000Z</time>
      </trkpt>
      <trkpt lat="45.18009" lon="5.62493">
        <ele>1056.9</ele>
        <time>2020-02-23T14:59:33.000Z</time>
      </trkpt>
      <trkpt lat="45.18009" lon="5.62485">
        <ele>1053</ele>
        <time>2020-02-23T14:59:43.000Z</time>
      </trkpt>
      <trkpt lat="45.18011" lon="5.62482">
        <ele>1050.9</ele>
        <time>2020-02-23T14:59:53.000Z</time>
      </trkpt>
      <trkpt lat="45.18011" lon="5.62479">
        <ele>1049.9</ele>
        <time>2020-02-23T15:00:03.000Z</time>
      </trkpt>
      <trkpt lat="45.18025" lon="5.62447">
        <ele>1058</ele>
        <time>2020-02-23T15:00:04.000Z</time>
      </trkpt>
      <trkpt lat="45.18026" lon="5.62441">
        <ele>1043.2</ele>
        <time>2020-02-23T15:00:14.000Z</time>
      </trkpt>
      <trkpt lat="45.18026" lon="5.62438">
        <ele>1043.6</ele>
        <time>2020-02-23T15:00:24.000Z</time>
      </trkpt>
      <trkpt lat="45.18025" lon="5.62436">
        <ele>1044.4</ele>
        <time>2020-02-23T15:00:34.000Z</time>
      </trkpt>
      <trkpt lat="45.18023" lon="5.62436">
        <ele>1045.4</ele>
        <time>2020-02-23T15:00:44.000Z</time>
      </trkpt>
      <trkpt lat="45.1802" lon="5.62438">
        <ele>1046.4</ele>
        <time>2020-02-23T15:00:54.000Z</time>
      </trkpt>
      <trkpt lat="45.18017" lon="5.62445">
        <ele>1065</ele>
        <time>2020-02-23T15:00:24.000Z</time>
      </trkpt>
      <trkpt lat="45.18008" lon="5.62455">
        <ele>1047.5</ele>
        <time>2020-02-23T15:00:34.000Z</time>
      </trkpt>
      <trkpt lat="45.18006" lon="5.62457">
        <ele>1047.8</ele>
        <time>2020-02-23T15:00:44.000Z</time>
      </trkpt>
      <trkpt lat="45.17998" lon="5.62468">
        <ele>1069</ele>
        <time>2020-02-23T15:00:49.000Z</time>
      </trkpt>
      <trkpt lat="45.17994" lon="5.62471">
        <ele>1079.8</ele>
        <time>2020-02-23T15:00:59.000Z</time>
      </trkpt>
      <trkpt lat="45.17987" lon="5.62482">
        <ele>1079.2</ele>
        <time>2020-02-23T15:01:09.000Z</time>
      </trkpt>
      <trkpt lat="45.17983" lon="5.62492">
        <ele>1070</ele>
        <time>2020-02-23T15:01:04.000Z</time>
      </trkpt>
      <trkpt lat="45.17982" lon="5.62495">
        <ele>1078.8</ele>
        <time>2020-02-23T15:01:14.000Z</time>
      </trkpt>
      <trkpt lat="45.17981" lon="5.62502">
        <ele>1074.2</ele>
        <time>2020-02-23T15:01:24.000Z</time>
      </trkpt>
      <trkpt lat="45.17976" lon="5.62516">
        <ele>1075.2</ele>
        <time>2020-02-23T15:01:34.000Z</time>
      </trkpt>
      <trkpt lat="45.17974" lon="5.62523">
        <ele>1067</ele>
        <time>2020-02-23T15:01:21.000Z</time>
      </trkpt>
      <trkpt lat="45.17971" lon="5.62531">
        <ele>1075.2</ele>
        <time>2020-02-23T15:01:31.000Z</time>
      </trkpt>
      <trkpt lat="45.1797" lon="5.62535">
        <ele>1074.9</ele>
        <time>2020-02-23T15:01:41.000Z</time>
      </trkpt>
      <trkpt lat="45.17965" lon="5.62546">
        <ele>1074.5</ele>
        <time>2020-02-23T15:01:51.000Z</time>
      </trkpt>
      <trkpt lat="45.17965" lon="5.62551">
        <ele>1069</ele>
        <time>2020-02-23T15:01:35.000Z</time>
      </trkpt>
      <trkpt lat="45.17962" lon="5.6256">
        <ele>1073.3</ele>
        <time>2020-02-23T15:01:45.000Z</time>
      </trkpt>
      <trkpt lat="45.17958" lon="5.62564">
        <ele>1074.1</ele>
        <time>2020-02-23T15:01:55.000Z</time>
      </trkpt>
      <trkpt lat="45.17952" lon="5.62573">
        <ele>1072</ele>
        <time>2020-02-23T15:01:46.000Z</time>
      </trkpt>
      <trkpt lat="45.17944" lon="5.62582">
        <ele>1077.6</ele>
        <time>2020-02-23T15:01:56.000Z</time>
      </trkpt>
      <trkpt lat="45.17938" lon="5.62594">
        <ele>1076</ele>
        <time>2020-02-23T15:01:55.000Z</time>
      </trkpt>
      <trkpt lat="45.17932" lon="5.62602">
        <ele>1064.9</ele>
        <time>2020-02-23T15:02:05.000Z</time>
      </trkpt>
      <trkpt lat="45.1793" lon="5.62605">
        <ele>1064.3</ele>
        <time>2020-02-23T15:02:15.000Z</time>
      </trkpt>
      <trkpt lat="45.17918" lon="5.62623">
        <ele>1080</ele>
        <time>2020-02-23T15:02:07.000Z</time>
      </trkpt>
      <trkpt lat="45.17913" lon="5.62627">
        <ele>1080.1</ele>
        <time>2020-02-23T15:02:17.000Z</time>
      </trkpt>
      <trkpt lat="45.17896" lon="5.6264">
        <ele>1086</ele>
        <time>2020-02-23T15:02:20.000Z</time>
      </trkpt>
      <trkpt lat="45.17887" lon="5.62647">
        <ele>1079.5</ele>
        <time>2020-02-23T15:02:30.000Z</time>
      </trkpt>
      <trkpt lat="45.17883" lon="5.62651">
        <ele>1080</ele>
        <time>2020-02-23T15:02:40.000Z</time>
      </trkpt>
      <trkpt lat="45.17878" lon="5.62659">
        <ele>1088</ele>
        <time>2020-02-23T15:02:28.000Z</time>
      </trkpt>
      <trkpt lat="45.17872" lon="5.62669">
        <ele>1069.3</ele>
        <time>2020-02-23T15:02:38.000Z</time>
      </trkpt>
      <trkpt lat="45.17865" lon="5.62677">
        <ele>1070.9</ele>
        <time>2020-02-23T15:02:48.000Z</time>
      </trkpt>
      <trkpt lat="45.17859" lon="5.62682">
        <ele>1091</ele>
        <time>2020-02-23T15:02:40.000Z</time>
      </trkpt>
      <trkpt lat="45.17845" lon="5.6269">
        <ele>1074.1</ele>
        <time>2020-02-23T15:02:50.000Z</time>
      </trkpt>
      <trkpt lat="45.17835" lon="5.62692">
        <ele>1094</ele>
        <time>2020-02-23T15:02:52.000Z</time>
      </trkpt>
      <trkpt lat="45.17824" lon="5.62693">
        <ele>1089</ele>
        <time>2020-02-23T15:03:02.000Z</time>
      </trkpt>
      <trkpt lat="45.17812" lon="5.6269">
        <ele>1101</ele>
        <time>2020-02-23T15:03:08.000Z</time>
      </trkpt>
      <trkpt lat="45.17804" lon="5.6269">
        <ele>1090.5</ele>
        <time>2020-02-23T15:03:18.000Z</time>
      </trkpt>
      <trkpt lat="45.17792" lon="5.62691">
        <ele>1103</ele>
        <time>2020-02-23T15:03:22.000Z</time>
      </trkpt>
      <trkpt lat="45.17781" lon="5.62689">
        <ele>1093.1</ele>
        <time>2020-02-23T15:03:32.000Z</time>
      </trkpt>
      <trkpt lat="45.17772" lon="5.62694">
        <ele>1103</ele>
        <time>2020-02-23T15:03:38.000Z</time>
      </trkpt>
      <trkpt lat="45.17762" lon="5.62703">
        <ele>1093.7</ele>
        <time>2020-02-23T15:03:48.000Z</time>
      </trkpt>
      <trkpt lat="45.17758" lon="5.62705">
        <ele>1093.7</ele>
        <time>2020-02-23T15:03:58.000Z</time>
      </trkpt>
      <trkpt lat="45.17738" lon="5.62722">
        <ele>1098</ele>
        <time>2020-02-23T15:04:06.000Z</time>
      </trkpt>
      <trkpt lat="45.1773" lon="5.62725">
        <ele>1099.5</ele>
        <time>2020-02-23T15:04:16.000Z</time>
      </trkpt>
      <trkpt lat="45.17723" lon="5.62729">
        <ele>1099.5</ele>
        <time>2020-02-23T15:04:26.000Z</time>
      </trkpt>
      <trkpt lat="45.1772" lon="5.6273">
        <ele>1099.6</ele>
        <time>2020-02-23T15:04:36.000Z</time>
      </trkpt>
      <trkpt lat="45.17711" lon="5.62738">
        <ele>1098</ele>
        <time>2020-02-23T15:04:30.000Z</time>
      </trkpt>
      <trkpt lat="45.17705" lon="5.62746">
        <ele>1099.4</ele>
        <time>2020-02-23T15:04:40.000Z</time>
      </trkpt>
      <trkpt lat="45.17694" lon="5.62755">
        <ele>1097</ele>
        <time>2020-02-23T15:04:45.000Z</time>
      </trkpt>
      <trkpt lat="45.17692" lon="5.62758">
        <ele>1094.9</ele>
        <time>2020-02-23T15:04:55.000Z</time>
      </trkpt>
      <trkpt lat="45.17691" lon="5.62762">
        <ele>1094.9</ele>
        <time>2020-02-23T15:05:05.000Z</time>
      </trkpt>
      <trkpt lat="45.1769" lon="5.62766">
        <ele>1094.8</ele>
        <time>2020-02-23T15:05:15.000Z</time>
      </trkpt>
      <trkpt lat="45.17691" lon="5.6277">
        <ele>1094.7</ele>
        <time>2020-02-23T15:05:25.000Z</time>
      </trkpt>
      <trkpt lat="45.17692" lon="5.62776">
        <ele>1094.5</ele>
        <time>2020-02-23T15:05:35.000Z</time>
      </trkpt>
      <trkpt lat="45.17687" lon="5.6278">
        <ele>1093</ele>
        <time>2020-02-23T15:05:06.000Z</time>
      </trkpt>
      <trkpt lat="45.17685" lon="5.62783">
        <ele>1094.6</ele>
        <time>2020-02-23T15:05:16.000Z</time>
      </trkpt>
      <trkpt lat="45.17677" lon="5.62808">
        <ele>1093</ele>
        <time>2020-02-23T15:05:23.000Z</time>
      </trkpt>
      <trkpt lat="45.17674" lon="5.62811">
        <ele>1095.3</ele>
        <time>2020-02-23T15:05:33.000Z</time>
      </trkpt>
      <trkpt lat="45.1767" lon="5.6282">
        <ele>1096</ele>
        <time>2020-02-23T15:05:43.000Z</time>
      </trkpt>
      <trkpt lat="45.17661" lon="5.62831">
        <ele>1094</ele>
        <time>2020-02-23T15:05:40.000Z</time>
      </trkpt>
      <trkpt lat="45.17658" lon="5.62836">
        <ele>1099.8</ele>
        <time>2020-02-23T15:05:50.000Z</time>
      </trkpt>
      <trkpt lat="45.17656" lon="5.62838">
        <ele>1100.2</ele>
        <time>2020-02-23T15:06:00.000Z</time>
      </trkpt>
      <trkpt lat="45.17651" lon="5.62846">
        <ele>1101.2</ele>
        <time>2020-02-23T15:06:10.000Z</time>
      </trkpt>
      <trkpt lat="45.17634" lon="5.62865">
        <ele>1095</ele>
        <time>2020-02-23T15:06:04.000Z</time>
      </trkpt>
      <trkpt lat="45.1763" lon="5.6287">
        <ele>1103.4</ele>
        <time>2020-02-23T15:06:14.000Z</time>
      </trkpt>
      <trkpt lat="45.17626" lon="5.62877">
        <ele>1103.6</ele>
        <time>2020-02-23T15:06:24.000Z</time>
      </trkpt>
      <trkpt lat="45.17622" lon="5.62882">
        <ele>1103.9</ele>
        <time>2020-02-23T15:06:34.000Z</time>
      </trkpt>
      <trkpt lat="45.17612" lon="5.62889">
        <ele>1096</ele>
        <time>2020-02-23T15:06:26.000Z</time>
      </trkpt>
      <trkpt lat="45.17609" lon="5.6289">
        <ele>1105.2</ele>
        <time>2020-02-23T15:06:36.000Z</time>
      </trkpt>
      <trkpt lat="45.17607" lon="5.62892">
        <ele>1105.4</ele>
        <time>2020-02-23T15:06:46.000Z</time>
      </trkpt>
      <trkpt lat="45.176" lon="5.629">
        <ele>1106.5</ele>
        <time>2020-02-23T15:06:56.000Z</time>
      </trkpt>
      <trkpt lat="45.17591" lon="5.62906">
        <ele>1097</ele>
        <time>2020-02-23T15:06:46.000Z</time>
      </trkpt>
      <trkpt lat="45.1758" lon="5.62915">
        <ele>1111.6</ele>
        <time>2020-02-23T15:06:56.000Z</time>
      </trkpt>
      <trkpt lat="45.17572" lon="5.62925">
        <ele>1099</ele>
        <time>2020-02-23T15:07:01.000Z</time>
      </trkpt>
      <trkpt lat="45.17565" lon="5.62933">
        <ele>1116.1</ele>
        <time>2020-02-23T15:07:11.000Z</time>
      </trkpt>
      <trkpt lat="45.1756" lon="5.62937">
        <ele>1116.8</ele>
        <time>2020-02-23T15:07:21.000Z</time>
      </trkpt>
      <trkpt lat="45.17545" lon="5.62956">
        <ele>1103</ele>
        <time>2020-02-23T15:07:25.000Z</time>
      </trkpt>
      <trkpt lat="45.17521" lon="5.6298">
        <ele>1104</ele>
        <time>2020-02-23T15:07:48.000Z</time>
      </trkpt>
      <trkpt lat="45.17519" lon="5.62984">
        <ele>1121.6</ele>
        <time>2020-02-23T15:07:58.000Z</time>
      </trkpt>
      <trkpt lat="45.17512" lon="5.62996">
        <ele>1123.3</ele>
        <time>2020-02-23T15:08:08.000Z</time>
      </trkpt>
      <trkpt lat="45.17507" lon="5.63002">
        <ele>1109</ele>
        <time>2020-02-23T15:08:04.000Z</time>
      </trkpt>
      <trkpt lat="45.17502" lon="5.63006">
        <ele>1124.8</ele>
        <time>2020-02-23T15:08:14.000Z</time>
      </trkpt>
      <trkpt lat="45.17499" lon="5.63007">
        <ele>1126.4</ele>
        <time>2020-02-23T15:08:24.000Z</time>
      </trkpt>
      <trkpt lat="45.17494" lon="5.63007">
        <ele>1126.5</ele>
        <time>2020-02-23T15:08:34.000Z</time>
      </trkpt>
      <trkpt lat="45.17484" lon="5.63005">
        <ele>1110</ele>
        <time>2020-02-23T15:08:18.000Z</time>
      </trkpt>
      <trkpt lat="45.17481" lon="5.63003">
        <ele>1127</ele>
        <time>2020-02-23T15:08:28.000Z</time>
      </trkpt>
      <trkpt lat="45.17457" lon="5.62984">
        <ele>1111</ele>
        <time>2020-02-23T15:08:41.000Z</time>
      </trkpt>
      <trkpt lat="45.17448" lon="5.62976">
        <ele>1125.8</ele>
        <time>2020-02-23T15:08:51.000Z</time>
      </trkpt>
      <trkpt lat="45.17437" lon="5.62966">
        <ele>1121</ele>
        <time>2020-02-23T15:08:58.000Z</time>
      </trkpt>
      <trkpt lat="45.17427" lon="5.6296">
        <ele>1125.7</ele>
        <time>2020-02-23T15:09:08.000Z</time>
      </trkpt>
      <trkpt lat="45.17423" lon="5.62954">
        <ele>1125.5</ele>
        <time>2020-02-23T15:09:18.000Z</time>
      </trkpt>
      <trkpt lat="45.17418" lon="5.6295">
        <ele>1122</ele>
        <time>2020-02-23T15:09:15.000Z</time>
      </trkpt>
      <trkpt lat="45.17408" lon="5.62943">
        <ele>1129.1</ele>
        <time>2020-02-23T15:09:25.000Z</time>
      </trkpt>
      <trkpt lat="45.17396" lon="5.62938">
        <ele>1122</ele>
        <time>2020-02-23T15:09:31.000Z</time>
      </trkpt>
      <trkpt lat="45.17387" lon="5.62936">
        <ele>1130</ele>
        <time>2020-02-23T15:09:41.000Z</time>
      </trkpt>
      <trkpt lat="45.17372" lon="5.62934">
        <ele>1130</ele>
        <time>2020-02-23T15:09:47.000Z</time>
      </trkpt>
      <trkpt lat="45.17351" lon="5.62936">
        <ele>1130</ele>
        <time>2020-02-23T15:10:01.000Z</time>
      </trkpt>
      <trkpt lat="45.17343" lon="5.62939">
        <ele>1132.1</ele>
        <time>2020-02-23T15:10:11.000Z</time>
      </trkpt>
      <trkpt lat="45.1732" lon="5.62939">
        <ele>1134</ele>
        <time>2020-02-23T15:10:26.000Z</time>
      </trkpt>
      <trkpt lat="45.17314" lon="5.62942">
        <ele>1139.7</ele>
        <time>2020-02-23T15:10:36.000Z</time>
      </trkpt>
      <trkpt lat="45.17307" lon="5.62949">
        <ele>1140.8</ele>
        <time>2020-02-23T15:10:46.000Z</time>
      </trkpt>
      <trkpt lat="45.173" lon="5.62961">
        <ele>1140</ele>
        <time>2020-02-23T15:10:44.000Z</time>
      </trkpt>
      <trkpt lat="45.17287" lon="5.62986">
        <ele>1140</ele>
        <time>2020-02-23T15:11:00.000Z</time>
      </trkpt>
      <trkpt lat="45.17284" lon="5.62996">
        <ele>1144.4</ele>
        <time>2020-02-23T15:11:10.000Z</time>
      </trkpt>
      <trkpt lat="45.17279" lon="5.63005">
        <ele>1146.9</ele>
        <time>2020-02-23T15:11:20.000Z</time>
      </trkpt>
      <trkpt lat="45.17278" lon="5.63008">
        <ele>1146.9</ele>
        <time>2020-02-23T15:11:30.000Z</time>
      </trkpt>
      <trkpt lat="45.17273" lon="5.63013">
        <ele>1145</ele>
        <time>2020-02-23T15:11:18.000Z</time>
      </trkpt>
      <trkpt lat="45.17266" lon="5.63017">
        <ele>1147.7</ele>
        <time>2020-02-23T15:11:28.000Z</time>
      </trkpt>
      <trkpt lat="45.1726" lon="5.63018">
        <ele>1148</ele>
        <time>2020-02-23T15:11:38.000Z</time>
      </trkpt>
      <trkpt lat="45.17246" lon="5.63015">
        <ele>1146</ele>
        <time>2020-02-23T15:11:38.000Z</time>
      </trkpt>
      <trkpt lat="45.17237" lon="5.63014">
        <ele>1153</ele>
        <time>2020-02-23T15:11:48.000Z</time>
      </trkpt>
      <trkpt lat="45.17232" lon="5.63015">
        <ele>1153.4</ele>
        <time>2020-02-23T15:11:58.000Z</time>
      </trkpt>
      <trkpt lat="45.17224" lon="5.63018">
        <ele>1148</ele>
        <time>2020-02-23T15:11:54.000Z</time>
      </trkpt>
      <trkpt lat="45.1722" lon="5.63022">
        <ele>1154.3</ele>
        <time>2020-02-23T15:12:04.000Z</time>
      </trkpt>
      <trkpt lat="45.17216" lon="5.63027">
        <ele>1154.5</ele>
        <time>2020-02-23T15:12:14.000Z</time>
      </trkpt>
      <trkpt lat="45.17214" lon="5.63035">
        <ele>1154.7</ele>
        <time>2020-02-23T15:12:24.000Z</time>
      </trkpt>
      <trkpt lat="45.17211" lon="5.63041">
        <ele>1152</ele>
        <time>2020-02-23T15:12:10.000Z</time>
      </trkpt>
      <trkpt lat="45.172" lon="5.63056">
        <ele>1155.6</ele>
        <time>2020-02-23T15:12:20.000Z</time>
      </trkpt>
      <trkpt lat="45.17184" lon="5.63072">
        <ele>1160</ele>
        <time>2020-02-23T15:12:32.000Z</time>
      </trkpt>
      <trkpt lat="45.17183" lon="5.63074">
        <ele>1157.7</ele>
        <time>2020-02-23T15:12:42.000Z</time>
      </trkpt>
      <trkpt lat="45.17162" lon="5.63109">
        <ele>1168</ele>
        <time>2020-02-23T15:12:55.000Z</time>
      </trkpt>
      <trkpt lat="45.17155" lon="5.63121">
        <ele>1163.2</ele>
        <time>2020-02-23T15:13:05.000Z</time>
      </trkpt>
      <trkpt lat="45.1715" lon="5.63127">
        <ele>1163.5</ele>
        <time>2020-02-23T15:13:15.000Z</time>
      </trkpt>
      <trkpt lat="45.17143" lon="5.63136">
        <ele>1171</ele>
        <time>2020-02-23T15:13:14.000Z</time>
      </trkpt>
      <trkpt lat="45.17131" lon="5.63156">
        <ele>1164.2</ele>
        <time>2020-02-23T15:13:24.000Z</time>
      </trkpt>
      <trkpt lat="45.1713" lon="5.63159">
        <ele>1169</ele>
        <time>2020-02-23T15:13:28.000Z</time>
      </trkpt>
      <trkpt lat="45.17129" lon="5.63163">
        <ele>1164.3</ele>
        <time>2020-02-23T15:13:38.000Z</time>
      </trkpt>
      <trkpt lat="45.1713" lon="5.63172">
        <ele>1166</ele>
        <time>2020-02-23T15:13:48.000Z</time>
      </trkpt>
      <trkpt lat="45.17129" lon="5.63185">
        <ele>1166.1</ele>
        <time>2020-02-23T15:13:58.000Z</time>
      </trkpt>
      <trkpt lat="45.17127" lon="5.63216">
        <ele>1167</ele>
        <time>2020-02-23T15:13:54.000Z</time>
      </trkpt>
      <trkpt lat="45.17127" lon="5.63221">
        <ele>1166.6</ele>
        <time>2020-02-23T15:14:04.000Z</time>
      </trkpt>
      <trkpt lat="45.17126" lon="5.6323">
        <ele>1166.7</ele>
        <time>2020-02-23T15:14:14.000Z</time>
      </trkpt>
      <trkpt lat="45.17126" lon="5.63242">
        <ele>1166.8</ele>
        <time>2020-02-23T15:14:24.000Z</time>
      </trkpt>
      <trkpt lat="45.17124" lon="5.63251">
        <ele>1167</ele>
        <time>2020-02-23T15:14:09.000Z</time>
      </trkpt>
      <trkpt lat="45.17121" lon="5.63262">
        <ele>1168.4</ele>
        <time>2020-02-23T15:14:19.000Z</time>
      </trkpt>
      <trkpt lat="45.17118" lon="5.63286">
        <ele>1167</ele>
        <time>2020-02-23T15:14:19.000Z</time>
      </trkpt>
      <trkpt lat="45.17117" lon="5.63301">
        <ele>1169.1</ele>
        <time>2020-02-23T15:14:29.000Z</time>
      </trkpt>
      <trkpt lat="45.17106" lon="5.63407">
        <ele>1166</ele>
        <time>2020-02-23T15:14:51.000Z</time>
      </trkpt>
      <trkpt lat="45.17104" lon="5.63417">
        <ele>1170.5</ele>
        <time>2020-02-23T15:15:01.000Z</time>
      </trkpt>
      <trkpt lat="45.17102" lon="5.63434">
        <ele>1165</ele>
        <time>2020-02-23T15:14:58.000Z</time>
      </trkpt>
      <trkpt lat="45.17101" lon="5.63448">
        <ele>1168.2</ele>
        <time>2020-02-23T15:15:08.000Z</time>
      </trkpt>
      <trkpt lat="45.17099" lon="5.63462">
        <ele>1160</ele>
        <time>2020-02-23T15:15:07.000Z</time>
      </trkpt>
      <trkpt lat="45.17096" lon="5.63469">
        <ele>1167</ele>
        <time>2020-02-23T15:15:17.000Z</time>
      </trkpt>
      <trkpt lat="45.17091" lon="5.63476">
        <ele>1166.9</ele>
        <time>2020-02-23T15:15:27.000Z</time>
      </trkpt>
      <trkpt lat="45.17089" lon="5.63478">
        <ele>1166.9</ele>
        <time>2020-02-23T15:15:37.000Z</time>
      </trkpt>
      <trkpt lat="45.17082" lon="5.63483">
        <ele>1160</ele>
        <time>2020-02-23T15:15:16.000Z</time>
      </trkpt>
      <trkpt lat="45.17065" lon="5.63489">
        <ele>1175.4</ele>
        <time>2020-02-23T15:15:26.000Z</time>
      </trkpt>
      <trkpt lat="45.17053" lon="5.63496">
        <ele>1160</ele>
        <time>2020-02-23T15:15:28.000Z</time>
      </trkpt>
      <trkpt lat="45.17046" lon="5.635">
        <ele>1178.7</ele>
        <time>2020-02-23T15:15:38.000Z</time>
      </trkpt>
      <trkpt lat="45.17023" lon="5.63523">
        <ele>1160</ele>
        <time>2020-02-23T15:15:41.000Z</time>
      </trkpt>
      <trkpt lat="45.17019" lon="5.63529">
        <ele>1170.7</ele>
        <time>2020-02-23T15:15:51.000Z</time>
      </trkpt>
      <trkpt lat="45.17016" lon="5.63535">
        <ele>1170</ele>
        <time>2020-02-23T15:16:01.000Z</time>
      </trkpt>
      <trkpt lat="45.17006" lon="5.63558">
        <ele>1167</ele>
        <time>2020-02-23T15:15:52.000Z</time>
      </trkpt>
      <trkpt lat="45.16999" lon="5.63573">
        <ele>1169.9</ele>
        <time>2020-02-23T15:16:02.000Z</time>
      </trkpt>
      <trkpt lat="45.16983" lon="5.63595">
        <ele>1162</ele>
        <time>2020-02-23T15:16:06.000Z</time>
      </trkpt>
      <trkpt lat="45.16965" lon="5.63619">
        <ele>1160</ele>
        <time>2020-02-23T15:16:15.000Z</time>
      </trkpt>
      <trkpt lat="45.1696" lon="5.63624">
        <ele>1158.1</ele>
        <time>2020-02-23T15:16:25.000Z</time>
      </trkpt>
      <trkpt lat="45.16952" lon="5.6363">
        <ele>1157.6</ele>
        <time>2020-02-23T15:16:35.000Z</time>
      </trkpt>
      <trkpt lat="45.16933" lon="5.63638">
        <ele>1162</ele>
        <time>2020-02-23T15:16:28.000Z</time>
      </trkpt>
      <trkpt lat="45.16922" lon="5.63641">
        <ele>1155.9</ele>
        <time>2020-02-23T15:16:38.000Z</time>
      </trkpt>
      <trkpt lat="45.1691" lon="5.63642">
        <ele>1164</ele>
        <time>2020-02-23T15:16:36.000Z</time>
      </trkpt>
      <trkpt lat="45.16887" lon="5.6364">
        <ele>1164</ele>
        <time>2020-02-23T15:16:45.000Z</time>
      </trkpt>
      <trkpt lat="45.16862" lon="5.63637">
        <ele>1155</ele>
        <time>2020-02-23T15:16:54.000Z</time>
      </trkpt>
      <trkpt lat="45.16836" lon="5.63638">
        <ele>1155</ele>
        <time>2020-02-23T15:17:05.000Z</time>
      </trkpt>
      <trkpt lat="45.16809" lon="5.63644">
        <ele>1147</ele>
        <time>2020-02-23T15:17:16.000Z</time>
      </trkpt>
      <trkpt lat="45.16794" lon="5.63645">
        <ele>1159.8</ele>
        <time>2020-02-23T15:17:26.000Z</time>
      </trkpt>
      <trkpt lat="45.1679" lon="5.63647">
        <ele>1147</ele>
        <time>2020-02-23T15:17:24.000Z</time>
      </trkpt>
      <trkpt lat="45.16789" lon="5.6365">
        <ele>1159.3</ele>
        <time>2020-02-23T15:17:34.000Z</time>
      </trkpt>
      <trkpt lat="45.16782" lon="5.6365">
        <ele>1159</ele>
        <time>2020-02-23T15:17:44.000Z</time>
      </trkpt>
      <trkpt lat="45.16773" lon="5.63653">
        <ele>1157.9</ele>
        <time>2020-02-23T15:17:54.000Z</time>
      </trkpt>
      <trkpt lat="45.16767" lon="5.63653">
        <ele>1148</ele>
        <time>2020-02-23T15:17:57.000Z</time>
      </trkpt>
      <trkpt lat="45.16759" lon="5.63656">
        <ele>1155.4</ele>
        <time>2020-02-23T15:18:07.000Z</time>
      </trkpt>
      <trkpt lat="45.16753" lon="5.63655">
        <ele>1154.9</ele>
        <time>2020-02-23T15:18:17.000Z</time>
      </trkpt>
      <trkpt lat="45.16748" lon="5.63653">
        <ele>1148</ele>
        <time>2020-02-23T15:18:11.000Z</time>
      </trkpt>
      <trkpt lat="45.16728" lon="5.6365">
        <ele>1149</ele>
        <time>2020-02-23T15:18:21.000Z</time>
      </trkpt>
      <trkpt lat="45.16716" lon="5.63647">
        <ele>1157</ele>
        <time>2020-02-23T15:18:31.000Z</time>
      </trkpt>
      <trkpt lat="45.16695" lon="5.63646">
        <ele>1141</ele>
        <time>2020-02-23T15:18:34.000Z</time>
      </trkpt>
      <trkpt lat="45.16686" lon="5.63647">
        <ele>1155.6</ele>
        <time>2020-02-23T15:18:44.000Z</time>
      </trkpt>
      <trkpt lat="45.16684" lon="5.63649">
        <ele>1155.1</ele>
        <time>2020-02-23T15:18:54.000Z</time>
      </trkpt>
      <trkpt lat="45.16681" lon="5.63654">
        <ele>1154</ele>
        <time>2020-02-23T15:19:04.000Z</time>
      </trkpt>
      <trkpt lat="45.16679" lon="5.63672">
        <ele>1134</ele>
        <time>2020-02-23T15:18:46.000Z</time>
      </trkpt>
      <trkpt lat="45.16677" lon="5.63679">
        <ele>1144.2</ele>
        <time>2020-02-23T15:18:56.000Z</time>
      </trkpt>
      <trkpt lat="45.16674" lon="5.63686">
        <ele>1143.2</ele>
        <time>2020-02-23T15:19:06.000Z</time>
      </trkpt>
      <trkpt lat="45.16667" lon="5.63702">
        <ele>1131</ele>
        <time>2020-02-23T15:18:55.000Z</time>
      </trkpt>
      <trkpt lat="45.16662" lon="5.63712">
        <ele>1138.7</ele>
        <time>2020-02-23T15:19:05.000Z</time>
      </trkpt>
      <trkpt lat="45.16658" lon="5.63718">
        <ele>1137.9</ele>
        <time>2020-02-23T15:19:15.000Z</time>
      </trkpt>
      <trkpt lat="45.1665" lon="5.63728">
        <ele>1128</ele>
        <time>2020-02-23T15:19:04.000Z</time>
      </trkpt>
      <trkpt lat="45.16654" lon="5.63729">
        <ele>1136.7</ele>
        <time>2020-02-23T15:19:14.000Z</time>
      </trkpt>
      <trkpt lat="45.16656" lon="5.63728">
        <ele>1136.7</ele>
        <time>2020-02-23T15:19:24.000Z</time>
      </trkpt>
      <trkpt lat="45.16669" lon="5.63718">
        <ele>1127</ele>
        <time>2020-02-23T15:19:18.000Z</time>
      </trkpt>
      <trkpt lat="45.16674" lon="5.63717">
        <ele>1138.6</ele>
        <time>2020-02-23T15:19:28.000Z</time>
      </trkpt>
      <trkpt lat="45.16689" lon="5.63707">
        <ele>1127</ele>
        <time>2020-02-23T15:19:27.000Z</time>
      </trkpt>
      <trkpt lat="45.16702" lon="5.63698">
        <ele>1140.9</ele>
        <time>2020-02-23T15:19:37.000Z</time>
      </trkpt>
      <trkpt lat="45.16712" lon="5.63694">
        <ele>1123</ele>
        <time>2020-02-23T15:19:38.000Z</time>
      </trkpt>
      <trkpt lat="45.16725" lon="5.63692">
        <ele>1141.9</ele>
        <time>2020-02-23T15:19:48.000Z</time>
      </trkpt>
      <trkpt lat="45.1673" lon="5.63693">
        <ele>1142</ele>
        <time>2020-02-23T15:19:58.000Z</time>
      </trkpt>
      <trkpt lat="45.16737" lon="5.63693">
        <ele>1123</ele>
        <time>2020-02-23T15:19:54.000Z</time>
      </trkpt>
      <trkpt lat="45.16749" lon="5.63702">
        <ele>1140.8</ele>
        <time>2020-02-23T15:20:04.000Z</time>
      </trkpt>
      <trkpt lat="45.16751" lon="5.63705">
        <ele>1141.7</ele>
        <time>2020-02-23T15:20:14.000Z</time>
      </trkpt>
      <trkpt lat="45.16749" lon="5.63709">
        <ele>1120</ele>
        <time>2020-02-23T15:20:06.000Z</time>
      </trkpt>
      <trkpt lat="45.16736" lon="5.63714">
        <ele>1138.7</ele>
        <time>2020-02-23T15:20:16.000Z</time>
      </trkpt>
      <trkpt lat="45.16725" lon="5.63721">
        <ele>1118</ele>
        <time>2020-02-23T15:20:17.000Z</time>
      </trkpt>
      <trkpt lat="45.16715" lon="5.63731">
        <ele>1137.2</ele>
        <time>2020-02-23T15:20:27.000Z</time>
      </trkpt>
      <trkpt lat="45.16707" lon="5.63742">
        <ele>1117</ele>
        <time>2020-02-23T15:20:25.000Z</time>
      </trkpt>
      <trkpt lat="45.16706" lon="5.63745">
        <ele>1136.5</ele>
        <time>2020-02-23T15:20:35.000Z</time>
      </trkpt>
      <trkpt lat="45.16697" lon="5.63768">
        <ele>1117</ele>
        <time>2020-02-23T15:20:33.000Z</time>
      </trkpt>
      <trkpt lat="45.16695" lon="5.63779">
        <ele>1127</ele>
        <time>2020-02-23T15:20:43.000Z</time>
      </trkpt>
      <trkpt lat="45.16693" lon="5.63786">
        <ele>1126.6</ele>
        <time>2020-02-23T15:20:53.000Z</time>
      </trkpt>
      <trkpt lat="45.16681" lon="5.63813">
        <ele>1113</ele>
        <time>2020-02-23T15:20:47.000Z</time>
      </trkpt>
      <trkpt lat="45.16677" lon="5.63823">
        <ele>1122.9</ele>
        <time>2020-02-23T15:20:57.000Z</time>
      </trkpt>
      <trkpt lat="45.16675" lon="5.63835">
        <ele>1119.8</ele>
        <time>2020-02-23T15:21:07.000Z</time>
      </trkpt>
      <trkpt lat="45.16672" lon="5.63854">
        <ele>1107</ele>
        <time>2020-02-23T15:20:58.000Z</time>
      </trkpt>
      <trkpt lat="45.16671" lon="5.63863">
        <ele>1119</ele>
        <time>2020-02-23T15:21:08.000Z</time>
      </trkpt>
      <trkpt lat="45.16672" lon="5.63881">
        <ele>1118.2</ele>
        <time>2020-02-23T15:21:18.000Z</time>
      </trkpt>
      <trkpt lat="45.16671" lon="5.63894">
        <ele>1105</ele>
        <time>2020-02-23T15:21:07.000Z</time>
      </trkpt>
      <trkpt lat="45.1667" lon="5.63923">
        <ele>1105</ele>
        <time>2020-02-23T15:21:14.000Z</time>
      </trkpt>
      <trkpt lat="45.16668" lon="5.63939">
        <ele>1114.5</ele>
        <time>2020-02-23T15:21:24.000Z</time>
      </trkpt>
      <trkpt lat="45.16667" lon="5.63963">
        <ele>1103</ele>
        <time>2020-02-23T15:21:24.000Z</time>
      </trkpt>
      <trkpt lat="45.1667" lon="5.63983">
        <ele>1113.6</ele>
        <time>2020-02-23T15:21:34.000Z</time>
      </trkpt>
      <trkpt lat="45.16671" lon="5.6399">
        <ele>1101</ele>
        <time>2020-02-23T15:21:31.000Z</time>
      </trkpt>
      <trkpt lat="45.16679" lon="5.64012">
        <ele>1109.7</ele>
        <time>2020-02-23T15:21:41.000Z</time>
      </trkpt>
      <trkpt lat="45.16686" lon="5.64026">
        <ele>1100</ele>
        <time>2020-02-23T15:21:41.000Z</time>
      </trkpt>
      <trkpt lat="45.16694" lon="5.64036">
        <ele>1106.8</ele>
        <time>2020-02-23T15:21:51.000Z</time>
      </trkpt>
      <trkpt lat="45.16699" lon="5.64039">
        <ele>1106.5</ele>
        <time>2020-02-23T15:22:01.000Z</time>
      </trkpt>
      <trkpt lat="45.16704" lon="5.64041">
        <ele>1099</ele>
        <time>2020-02-23T15:21:49.000Z</time>
      </trkpt>
      <trkpt lat="45.16726" lon="5.64038">
        <ele>1099</ele>
        <time>2020-02-23T15:21:57.000Z</time>
      </trkpt>
      <trkpt lat="45.16735" lon="5.64035">
        <ele>1106.1</ele>
        <time>2020-02-23T15:22:07.000Z</time>
      </trkpt>
      <trkpt lat="45.16746" lon="5.64029">
        <ele>1102</ele>
        <time>2020-02-23T15:22:04.000Z</time>
      </trkpt>
      <trkpt lat="45.16756" lon="5.64022">
        <ele>1103.2</ele>
        <time>2020-02-23T15:22:14.000Z</time>
      </trkpt>
      <trkpt lat="45.1676" lon="5.64016">
        <ele>1104.2</ele>
        <time>2020-02-23T15:22:24.000Z</time>
      </trkpt>
      <trkpt lat="45.16764" lon="5.64011">
        <ele>1106</ele>
        <time>2020-02-23T15:22:12.000Z</time>
      </trkpt>
      <trkpt lat="45.16785" lon="5.63976">
        <ele>1106</ele>
        <time>2020-02-23T15:22:24.000Z</time>
      </trkpt>
      <trkpt lat="45.16792" lon="5.63967">
        <ele>1107.8</ele>
        <time>2020-02-23T15:22:34.000Z</time>
      </trkpt>
      <trkpt lat="45.16809" lon="5.63942">
        <ele>1106</ele>
        <time>2020-02-23T15:22:37.000Z</time>
      </trkpt>
      <trkpt lat="45.16814" lon="5.63938">
        <ele>1107.9</ele>
        <time>2020-02-23T15:22:47.000Z</time>
      </trkpt>
      <trkpt lat="45.16819" lon="5.63935">
        <ele>1107.9</ele>
        <time>2020-02-23T15:22:57.000Z</time>
      </trkpt>
      <trkpt lat="45.16822" lon="5.63934">
        <ele>1107.8</ele>
        <time>2020-02-23T15:23:07.000Z</time>
      </trkpt>
      <trkpt lat="45.16828" lon="5.63935">
        <ele>1100</ele>
        <time>2020-02-23T15:22:44.000Z</time>
      </trkpt>
      <trkpt lat="45.1683" lon="5.63937">
        <ele>1107.5</ele>
        <time>2020-02-23T15:22:54.000Z</time>
      </trkpt>
      <trkpt lat="45.16832" lon="5.6394">
        <ele>1107.3</ele>
        <time>2020-02-23T15:23:04.000Z</time>
      </trkpt>
      <trkpt lat="45.16833" lon="5.63943">
        <ele>1107.1</ele>
        <time>2020-02-23T15:23:14.000Z</time>
      </trkpt>
      <trkpt lat="45.16834" lon="5.63946">
        <ele>1100.3</ele>
        <time>2020-02-23T15:23:24.000Z</time>
      </trkpt>
      <trkpt lat="45.16833" lon="5.63949">
        <ele>1106.7</ele>
        <time>2020-02-23T15:23:34.000Z</time>
      </trkpt>
      <trkpt lat="45.16832" lon="5.63952">
        <ele>1106.5</ele>
        <time>2020-02-23T15:23:44.000Z</time>
      </trkpt>
      <trkpt lat="45.16824" lon="5.63959">
        <ele>1102</ele>
        <time>2020-02-23T15:22:57.000Z</time>
      </trkpt>
      <trkpt lat="45.16818" lon="5.63976">
        <ele>1104.5</ele>
        <time>2020-02-23T15:23:07.000Z</time>
      </trkpt>
      <trkpt lat="45.16818" lon="5.6398">
        <ele>1104</ele>
        <time>2020-02-23T15:23:17.000Z</time>
      </trkpt>
      <trkpt lat="45.16819" lon="5.63987">
        <ele>1098</ele>
        <time>2020-02-23T15:23:12.000Z</time>
      </trkpt>
      <trkpt lat="45.1682" lon="5.63991">
        <ele>1102</ele>
        <time>2020-02-23T15:23:22.000Z</time>
      </trkpt>
      <trkpt lat="45.16828" lon="5.64007">
        <ele>1096.5</ele>
        <time>2020-02-23T15:23:32.000Z</time>
      </trkpt>
      <trkpt lat="45.16829" lon="5.64013">
        <ele>1095</ele>
        <time>2020-02-23T15:23:25.000Z</time>
      </trkpt>
      <trkpt lat="45.16834" lon="5.64021">
        <ele>1091</ele>
        <time>2020-02-23T15:23:35.000Z</time>
      </trkpt>
      <trkpt lat="45.16845" lon="5.64036">
        <ele>1093</ele>
        <time>2020-02-23T15:23:37.000Z</time>
      </trkpt>
      <trkpt lat="45.16866" lon="5.64052">
        <ele>1085</ele>
        <time>2020-02-23T15:23:46.000Z</time>
      </trkpt>
      <trkpt lat="45.16868" lon="5.64053">
        <ele>1086.9</ele>
        <time>2020-02-23T15:23:56.000Z</time>
      </trkpt>
      <trkpt lat="45.16872" lon="5.64052">
        <ele>1086.7</ele>
        <time>2020-02-23T15:24:06.000Z</time>
      </trkpt>
      <trkpt lat="45.16876" lon="5.64054">
        <ele>1086.4</ele>
        <time>2020-02-23T15:24:16.000Z</time>
      </trkpt>
      <trkpt lat="45.16881" lon="5.64066">
        <ele>1083</ele>
        <time>2020-02-23T15:23:58.000Z</time>
      </trkpt>
      <trkpt lat="45.16885" lon="5.64072">
        <ele>1085.2</ele>
        <time>2020-02-23T15:24:08.000Z</time>
      </trkpt>
      <trkpt lat="45.16892" lon="5.64083">
        <ele>1084.2</ele>
        <time>2020-02-23T15:24:18.000Z</time>
      </trkpt>
      <trkpt lat="45.16894" lon="5.64093">
        <ele>1082</ele>
        <time>2020-02-23T15:24:10.000Z</time>
      </trkpt>
      <trkpt lat="45.16895" lon="5.64099">
        <ele>1078.1</ele>
        <time>2020-02-23T15:24:20.000Z</time>
      </trkpt>
      <trkpt lat="45.16901" lon="5.64109">
        <ele>1077.5</ele>
        <time>2020-02-23T15:24:30.000Z</time>
      </trkpt>
      <trkpt lat="45.16907" lon="5.64118">
        <ele>1080</ele>
        <time>2020-02-23T15:24:20.000Z</time>
      </trkpt>
      <trkpt lat="45.1691" lon="5.64125">
        <ele>1076.2</ele>
        <time>2020-02-23T15:24:30.000Z</time>
      </trkpt>
      <trkpt lat="45.16915" lon="5.64132">
        <ele>1075.5</ele>
        <time>2020-02-23T15:24:40.000Z</time>
      </trkpt>
      <trkpt lat="45.16927" lon="5.64145">
        <ele>1076</ele>
        <time>2020-02-23T15:24:32.000Z</time>
      </trkpt>
      <trkpt lat="45.16931" lon="5.64151">
        <ele>1068.8</ele>
        <time>2020-02-23T15:24:42.000Z</time>
      </trkpt>
      <trkpt lat="45.16931" lon="5.64154">
        <ele>1068.9</ele>
        <time>2020-02-23T15:24:52.000Z</time>
      </trkpt>
      <trkpt lat="45.16931" lon="5.64157">
        <ele>1068.9</ele>
        <time>2020-02-23T15:25:02.000Z</time>
      </trkpt>
      <trkpt lat="45.16928" lon="5.6417">
        <ele>1067</ele>
        <time>2020-02-23T15:24:41.000Z</time>
      </trkpt>
      <trkpt lat="45.16923" lon="5.64193">
        <ele>1061.4</ele>
        <time>2020-02-23T15:24:51.000Z</time>
      </trkpt>
      <trkpt lat="45.16919" lon="5.64206">
        <ele>1064</ele>
        <time>2020-02-23T15:24:51.000Z</time>
      </trkpt>
      <trkpt lat="45.16918" lon="5.64216">
        <ele>1057.9</ele>
        <time>2020-02-23T15:25:01.000Z</time>
      </trkpt>
      <trkpt lat="45.16918" lon="5.64222">
        <ele>1057.1</ele>
        <time>2020-02-23T15:25:11.000Z</time>
      </trkpt>
      <trkpt lat="45.1692" lon="5.64229">
        <ele>1056.3</ele>
        <time>2020-02-23T15:25:21.000Z</time>
      </trkpt>
      <trkpt lat="45.16921" lon="5.64239">
        <ele>1056</ele>
        <time>2020-02-23T15:25:08.000Z</time>
      </trkpt>
      <trkpt lat="45.16922" lon="5.64243">
        <ele>1055</ele>
        <time>2020-02-23T15:25:18.000Z</time>
      </trkpt>
      <trkpt lat="45.16928" lon="5.64256">
        <ele>1049.4</ele>
        <time>2020-02-23T15:25:28.000Z</time>
      </trkpt>
      <trkpt lat="45.1693" lon="5.64267">
        <ele>1051</ele>
        <time>2020-02-23T15:25:19.000Z</time>
      </trkpt>
      <trkpt lat="45.16931" lon="5.64269">
        <ele>1046.8</ele>
        <time>2020-02-23T15:25:29.000Z</time>
      </trkpt>
      <trkpt lat="45.16933" lon="5.64272">
        <ele>1046.2</ele>
        <time>2020-02-23T15:25:39.000Z</time>
      </trkpt>
      <trkpt lat="45.16943" lon="5.64279">
        <ele>1044.6</ele>
        <time>2020-02-23T15:25:49.000Z</time>
      </trkpt>
      <trkpt lat="45.16954" lon="5.64283">
        <ele>1048</ele>
        <time>2020-02-23T15:25:33.000Z</time>
      </trkpt>
      <trkpt lat="45.16959" lon="5.64287">
        <ele>1043.2</ele>
        <time>2020-02-23T15:25:43.000Z</time>
      </trkpt>
      <trkpt lat="45.16973" lon="5.6431">
        <ele>1040</ele>
        <time>2020-02-23T15:25:45.000Z</time>
      </trkpt>
      <trkpt lat="45.16976" lon="5.64313">
        <ele>1040.4</ele>
        <time>2020-02-23T15:25:55.000Z</time>
      </trkpt>
      <trkpt lat="45.16988" lon="5.64326">
        <ele>1035</ele>
        <time>2020-02-23T15:25:53.000Z</time>
      </trkpt>
      <trkpt lat="45.16994" lon="5.64334">
        <ele>1033</ele>
        <time>2020-02-23T15:26:03.000Z</time>
      </trkpt>
      <trkpt lat="45.17003" lon="5.64343">
        <ele>1035</ele>
        <time>2020-02-23T15:26:01.000Z</time>
      </trkpt>
      <trkpt lat="45.17008" lon="5.64345">
        <ele>1030.8</ele>
        <time>2020-02-23T15:26:11.000Z</time>
      </trkpt>
      <trkpt lat="45.17013" lon="5.64345">
        <ele>1030.2</ele>
        <time>2020-02-23T15:26:21.000Z</time>
      </trkpt>
      <trkpt lat="45.17017" lon="5.64347">
        <ele>1029.4</ele>
        <time>2020-02-23T15:26:31.000Z</time>
      </trkpt>
      <trkpt lat="45.17019" lon="5.64347">
        <ele>1029.2</ele>
        <time>2020-02-23T15:26:41.000Z</time>
      </trkpt>
      <trkpt lat="45.1704" lon="5.64345">
        <ele>1031</ele>
        <time>2020-02-23T15:26:17.000Z</time>
      </trkpt>
      <trkpt lat="45.17046" lon="5.64343">
        <ele>1027.9</ele>
        <time>2020-02-23T15:26:27.000Z</time>
      </trkpt>
      <trkpt lat="45.17051" lon="5.64343">
        <ele>1027.8</ele>
        <time>2020-02-23T15:26:37.000Z</time>
      </trkpt>
      <trkpt lat="45.17054" lon="5.64344">
        <ele>1027.8</ele>
        <time>2020-02-23T15:26:47.000Z</time>
      </trkpt>
      <trkpt lat="45.17056" lon="5.64346">
        <ele>1027.7</ele>
        <time>2020-02-23T15:26:57.000Z</time>
      </trkpt>
      <trkpt lat="45.17057" lon="5.6435">
        <ele>1031</ele>
        <time>2020-02-23T15:26:24.000Z</time>
      </trkpt>
      <trkpt lat="45.17058" lon="5.64353">
        <ele>1027.3</ele>
        <time>2020-02-23T15:26:34.000Z</time>
      </trkpt>
      <trkpt lat="45.17055" lon="5.64357">
        <ele>1026.9</ele>
        <time>2020-02-23T15:26:44.000Z</time>
      </trkpt>
      <trkpt lat="45.17054" lon="5.64359">
        <ele>1026.8</ele>
        <time>2020-02-23T15:26:54.000Z</time>
      </trkpt>
      <trkpt lat="45.17046" lon="5.64373">
        <ele>1028</ele>
        <time>2020-02-23T15:26:33.000Z</time>
      </trkpt>
      <trkpt lat="45.17032" lon="5.64392">
        <ele>1025</ele>
        <time>2020-02-23T15:26:40.000Z</time>
      </trkpt>
      <trkpt lat="45.17018" lon="5.64404">
        <ele>1022.4</ele>
        <time>2020-02-23T15:26:50.000Z</time>
      </trkpt>
      <trkpt lat="45.17" lon="5.64423">
        <ele>1024</ele>
        <time>2020-02-23T15:26:53.000Z</time>
      </trkpt>
      <trkpt lat="45.16992" lon="5.6443">
        <ele>1012.3</ele>
        <time>2020-02-23T15:27:03.000Z</time>
      </trkpt>
      <trkpt lat="45.16984" lon="5.64433">
        <ele>1010.6</ele>
        <time>2020-02-23T15:27:13.000Z</time>
      </trkpt>
      <trkpt lat="45.16973" lon="5.64435">
        <ele>1024</ele>
        <time>2020-02-23T15:27:04.000Z</time>
      </trkpt>
      <trkpt lat="45.16965" lon="5.64439">
        <ele>1008.1</ele>
        <time>2020-02-23T15:27:14.000Z</time>
      </trkpt>
      <trkpt lat="45.1696" lon="5.64439">
        <ele>1007.9</ele>
        <time>2020-02-23T15:27:24.000Z</time>
      </trkpt>
      <trkpt lat="45.16954" lon="5.64439">
        <ele>1017</ele>
        <time>2020-02-23T15:27:11.000Z</time>
      </trkpt>
      <trkpt lat="45.1695" lon="5.64436">
        <ele>1007.8</ele>
        <time>2020-02-23T15:27:21.000Z</time>
      </trkpt>
      <trkpt lat="45.16941" lon="5.64429">
        <ele>1008.4</ele>
        <time>2020-02-23T15:27:31.000Z</time>
      </trkpt>
      <trkpt lat="45.16934" lon="5.64425">
        <ele>1022</ele>
        <time>2020-02-23T15:27:20.000Z</time>
      </trkpt>
      <trkpt lat="45.16928" lon="5.64414">
        <ele>1016.8</ele>
        <time>2020-02-23T15:27:30.000Z</time>
      </trkpt>
      <trkpt lat="45.16922" lon="5.64407">
        <ele>1016.8</ele>
        <time>2020-02-23T15:27:40.000Z</time>
      </trkpt>
      <trkpt lat="45.16918" lon="5.64404">
        <ele>1024</ele>
        <time>2020-02-23T15:27:29.000Z</time>
      </trkpt>
      <trkpt lat="45.16914" lon="5.64401">
        <ele>1018.5</ele>
        <time>2020-02-23T15:27:39.000Z</time>
      </trkpt>
      <trkpt lat="45.16907" lon="5.64399">
        <ele>1019.7</ele>
        <time>2020-02-23T15:27:49.000Z</time>
      </trkpt>
      <trkpt lat="45.16901" lon="5.644">
        <ele>1020.2</ele>
        <time>2020-02-23T15:27:59.000Z</time>
      </trkpt>
      <trkpt lat="45.16893" lon="5.64403">
        <ele>1019</ele>
        <time>2020-02-23T15:27:40.000Z</time>
      </trkpt>
      <trkpt lat="45.16891" lon="5.64406">
        <ele>1020.8</ele>
        <time>2020-02-23T15:27:50.000Z</time>
      </trkpt>
      <trkpt lat="45.16881" lon="5.64421">
        <ele>1009.8</ele>
        <time>2020-02-23T15:28:00.000Z</time>
      </trkpt>
      <trkpt lat="45.1688" lon="5.64425">
        <ele>1014</ele>
        <time>2020-02-23T15:27:51.000Z</time>
      </trkpt>
      <trkpt lat="45.16879" lon="5.64431">
        <ele>1009.2</ele>
        <time>2020-02-23T15:28:01.000Z</time>
      </trkpt>
      <trkpt lat="45.16877" lon="5.64436">
        <ele>1008.9</ele>
        <time>2020-02-23T15:28:11.000Z</time>
      </trkpt>
      <trkpt lat="45.16873" lon="5.6444">
        <ele>1008.8</ele>
        <time>2020-02-23T15:28:21.000Z</time>
      </trkpt>
      <trkpt lat="45.16868" lon="5.64444">
        <ele>1008.7</ele>
        <time>2020-02-23T15:28:31.000Z</time>
      </trkpt>
      <trkpt lat="45.16866" lon="5.64446">
        <ele>1007</ele>
        <time>2020-02-23T15:28:02.000Z</time>
      </trkpt>
      <trkpt lat="45.16861" lon="5.64448">
        <ele>1008.7</ele>
        <time>2020-02-23T15:28:12.000Z</time>
      </trkpt>
      <trkpt lat="45.16855" lon="5.64452">
        <ele>1008.5</ele>
        <time>2020-02-23T15:28:22.000Z</time>
      </trkpt>
      <trkpt lat="45.16842" lon="5.6446">
        <ele>1005</ele>
        <time>2020-02-23T15:28:49.000Z</time>
      </trkpt>
      <trkpt lat="45.16838" lon="5.64465">
        <ele>1007</ele>
        <time>2020-02-23T15:28:59.000Z</time>
      </trkpt>
      <trkpt lat="45.16838" lon="5.6447">
        <ele>1006.2</ele>
        <time>2020-02-23T15:29:09.000Z</time>
      </trkpt>
      <trkpt lat="45.16839" lon="5.64473">
        <ele>1005.8</ele>
        <time>2020-02-23T15:29:19.000Z</time>
      </trkpt>
      <trkpt lat="45.16845" lon="5.64479">
        <ele>1005</ele>
        <time>2020-02-23T15:29:29.000Z</time>
      </trkpt>
      <trkpt lat="45.16852" lon="5.64484">
        <ele>1002</ele>
        <time>2020-02-23T15:29:08.000Z</time>
      </trkpt>
      <trkpt lat="45.16861" lon="5.64485">
        <ele>1004.5</ele>
        <time>2020-02-23T15:29:18.000Z</time>
      </trkpt>
      <trkpt lat="45.16866" lon="5.64484">
        <ele>1004.5</ele>
        <time>2020-02-23T15:29:28.000Z</time>
      </trkpt>
      <trkpt lat="45.16873" lon="5.6448">
        <ele>1002</ele>
        <time>2020-02-23T15:29:17.000Z</time>
      </trkpt>
      <trkpt lat="45.1689" lon="5.64473">
        <ele>1004.2</ele>
        <time>2020-02-23T15:29:27.000Z</time>
      </trkpt>
      <trkpt lat="45.16899" lon="5.64471">
        <ele>997</ele>
        <time>2020-02-23T15:29:28.000Z</time>
      </trkpt>
      <trkpt lat="45.16902" lon="5.64471">
        <ele>1003.7</ele>
        <time>2020-02-23T15:29:38.000Z</time>
      </trkpt>
      <trkpt lat="45.16905" lon="5.64472">
        <ele>1003.3</ele>
        <time>2020-02-23T15:29:48.000Z</time>
      </trkpt>
      <trkpt lat="45.16911" lon="5.64476">
        <ele>1002.2</ele>
        <time>2020-02-23T15:29:58.000Z</time>
      </trkpt>
      <trkpt lat="45.16915" lon="5.64477">
        <ele>1001.8</ele>
        <time>2020-02-23T15:30:08.000Z</time>
      </trkpt>
      <trkpt lat="45.16921" lon="5.64482">
        <ele>992</ele>
        <time>2020-02-23T15:29:36.000Z</time>
      </trkpt>
      <trkpt lat="45.16929" lon="5.64486">
        <ele>1000.2</ele>
        <time>2020-02-23T15:29:46.000Z</time>
      </trkpt>
      <trkpt lat="45.16954" lon="5.64503">
        <ele>991</ele>
        <time>2020-02-23T15:29:51.000Z</time>
      </trkpt>
      <trkpt lat="45.16965" lon="5.64519">
        <ele>990.1</ele>
        <time>2020-02-23T15:30:01.000Z</time>
      </trkpt>
      <trkpt lat="45.16978" lon="5.64535">
        <ele>988</ele>
        <time>2020-02-23T15:30:04.000Z</time>
      </trkpt>
      <trkpt lat="45.16982" lon="5.64544">
        <ele>987.8</ele>
        <time>2020-02-23T15:30:14.000Z</time>
      </trkpt>
      <trkpt lat="45.16985" lon="5.64554">
        <ele>986.5</ele>
        <time>2020-02-23T15:30:24.000Z</time>
      </trkpt>
      <trkpt lat="45.16988" lon="5.64561">
        <ele>986</ele>
        <time>2020-02-23T15:30:12.000Z</time>
      </trkpt>
      <trkpt lat="45.16997" lon="5.64569">
        <ele>984.1</ele>
        <time>2020-02-23T15:30:22.000Z</time>
      </trkpt>
      <trkpt lat="45.17002" lon="5.64578">
        <ele>982.9</ele>
        <time>2020-02-23T15:30:32.000Z</time>
      </trkpt>
      <trkpt lat="45.17003" lon="5.64581">
        <ele>984</ele>
        <time>2020-02-23T15:30:20.000Z</time>
      </trkpt>
      <trkpt lat="45.17003" lon="5.64585">
        <ele>979.6</ele>
        <time>2020-02-23T15:30:30.000Z</time>
      </trkpt>
      <trkpt lat="45.17002" lon="5.64597">
        <ele>976.4</ele>
        <time>2020-02-23T15:30:40.000Z</time>
      </trkpt>
      <trkpt lat="45.17004" lon="5.64602">
        <ele>975.1</ele>
        <time>2020-02-23T15:30:50.000Z</time>
      </trkpt>
      <trkpt lat="45.17005" lon="5.64605">
        <ele>974.4</ele>
        <time>2020-02-23T15:31:00.000Z</time>
      </trkpt>
      <trkpt lat="45.17008" lon="5.64608">
        <ele>980</ele>
        <time>2020-02-23T15:30:30.000Z</time>
      </trkpt>
      <trkpt lat="45.17017" lon="5.64611">
        <ele>972.8</ele>
        <time>2020-02-23T15:30:40.000Z</time>
      </trkpt>
      <trkpt lat="45.17019" lon="5.64613">
        <ele>972.4</ele>
        <time>2020-02-23T15:30:50.000Z</time>
      </trkpt>
      <trkpt lat="45.17021" lon="5.64615">
        <ele>972.1</ele>
        <time>2020-02-23T15:31:00.000Z</time>
      </trkpt>
      <trkpt lat="45.17024" lon="5.6462">
        <ele>971.3</ele>
        <time>2020-02-23T15:31:10.000Z</time>
      </trkpt>
      <trkpt lat="45.17026" lon="5.64626">
        <ele>980</ele>
        <time>2020-02-23T15:30:40.000Z</time>
      </trkpt>
      <trkpt lat="45.17029" lon="5.64636">
        <ele>969.2</ele>
        <time>2020-02-23T15:30:50.000Z</time>
      </trkpt>
      <trkpt lat="45.1703" lon="5.64647">
        <ele>968</ele>
        <time>2020-02-23T15:31:00.000Z</time>
      </trkpt>
      <trkpt lat="45.17032" lon="5.64657">
        <ele>976</ele>
        <time>2020-02-23T15:30:49.000Z</time>
      </trkpt>
      <trkpt lat="45.17035" lon="5.64663">
        <ele>966.9</ele>
        <time>2020-02-23T15:30:59.000Z</time>
      </trkpt>
      <trkpt lat="45.1704" lon="5.6467">
        <ele>955.1</ele>
        <time>2020-02-23T15:31:09.000Z</time>
      </trkpt>
      <trkpt lat="45.17042" lon="5.64671">
        <ele>955.1</ele>
        <time>2020-02-23T15:31:19.000Z</time>
      </trkpt>
      <trkpt lat="45.17045" lon="5.64672">
        <ele>955.1</ele>
        <time>2020-02-23T15:31:29.000Z</time>
      </trkpt>
      <trkpt lat="45.17051" lon="5.64669">
        <ele>969</ele>
        <time>2020-02-23T15:31:00.000Z</time>
      </trkpt>
      <trkpt lat="45.17057" lon="5.64665">
        <ele>966.3</ele>
        <time>2020-02-23T15:31:10.000Z</time>
      </trkpt>
      <trkpt lat="45.17059" lon="5.64665">
        <ele>966.1</ele>
        <time>2020-02-23T15:31:20.000Z</time>
      </trkpt>
      <trkpt lat="45.17063" lon="5.64665">
        <ele>965.7</ele>
        <time>2020-02-23T15:31:30.000Z</time>
      </trkpt>
      <trkpt lat="45.17065" lon="5.64666">
        <ele>965.4</ele>
        <time>2020-02-23T15:31:40.000Z</time>
      </trkpt>
      <trkpt lat="45.17067" lon="5.64668">
        <ele>956.9</ele>
        <time>2020-02-23T15:31:50.000Z</time>
      </trkpt>
      <trkpt lat="45.17069" lon="5.64675">
        <ele>969</ele>
        <time>2020-02-23T15:31:10.000Z</time>
      </trkpt>
      <trkpt lat="45.17069" lon="5.64684">
        <ele>955.4</ele>
        <time>2020-02-23T15:31:20.000Z</time>
      </trkpt>
      <trkpt lat="45.17066" lon="5.64689">
        <ele>954.5</ele>
        <time>2020-02-23T15:31:30.000Z</time>
      </trkpt>
      <trkpt lat="45.17061" lon="5.64698">
        <ele>953.2</ele>
        <time>2020-02-23T15:31:40.000Z</time>
      </trkpt>
      <trkpt lat="45.1706" lon="5.64701">
        <ele>965</ele>
        <time>2020-02-23T15:31:19.000Z</time>
      </trkpt>
      <trkpt lat="45.17061" lon="5.64704">
        <ele>952.4</ele>
        <time>2020-02-23T15:31:29.000Z</time>
      </trkpt>
      <trkpt lat="45.17062" lon="5.64707">
        <ele>952</ele>
        <time>2020-02-23T15:31:39.000Z</time>
      </trkpt>
      <trkpt lat="45.17065" lon="5.64712">
        <ele>951.3</ele>
        <time>2020-02-23T15:31:49.000Z</time>
      </trkpt>
      <trkpt lat="45.17066" lon="5.64714">
        <ele>951</ele>
        <time>2020-02-23T15:31:59.000Z</time>
      </trkpt>
      <trkpt lat="45.1707" lon="5.64714">
        <ele>951</ele>
        <time>2020-02-23T15:32:09.000Z</time>
      </trkpt>
      <trkpt lat="45.17073" lon="5.64711">
        <ele>951.4</ele>
        <time>2020-02-23T15:32:19.000Z</time>
      </trkpt>
      <trkpt lat="45.17083" lon="5.64692">
        <ele>964</ele>
        <time>2020-02-23T15:31:36.000Z</time>
      </trkpt>
      <trkpt lat="45.17088" lon="5.64676">
        <ele>956.2</ele>
        <time>2020-02-23T15:31:46.000Z</time>
      </trkpt>
      <trkpt lat="45.17089" lon="5.64664">
        <ele>965</ele>
        <time>2020-02-23T15:31:45.000Z</time>
      </trkpt>
      <trkpt lat="45.17092" lon="5.64658">
        <ele>963.9</ele>
        <time>2020-02-23T15:31:55.000Z</time>
      </trkpt>
      <trkpt lat="45.17093" lon="5.64656">
        <ele>964.3</ele>
        <time>2020-02-23T15:32:05.000Z</time>
      </trkpt>
      <trkpt lat="45.17098" lon="5.64654">
        <ele>965</ele>
        <time>2020-02-23T15:32:15.000Z</time>
      </trkpt>
      <trkpt lat="45.17102" lon="5.64653">
        <ele>965.3</ele>
        <time>2020-02-23T15:32:25.000Z</time>
      </trkpt>
      <trkpt lat="45.17111" lon="5.64654">
        <ele>959</ele>
        <time>2020-02-23T15:31:57.000Z</time>
      </trkpt>
      <trkpt lat="45.17116" lon="5.64657">
        <ele>965.4</ele>
        <time>2020-02-23T15:32:07.000Z</time>
      </trkpt>
      <trkpt lat="45.17123" lon="5.64664">
        <ele>964.9</ele>
        <time>2020-02-23T15:32:17.000Z</time>
      </trkpt>
      <trkpt lat="45.17132" lon="5.6467">
        <ele>954</ele>
        <time>2020-02-23T15:32:06.000Z</time>
      </trkpt>
      <trkpt lat="45.17137" lon="5.64675">
        <ele>950.2</ele>
        <time>2020-02-23T15:32:16.000Z</time>
      </trkpt>
      <trkpt lat="45.17152" lon="5.64678">
        <ele>954</ele>
        <time>2020-02-23T15:32:13.000Z</time>
      </trkpt>
      <trkpt lat="45.1716" lon="5.64684">
        <ele>950.1</ele>
        <time>2020-02-23T15:32:23.000Z</time>
      </trkpt>
      <trkpt lat="45.17172" lon="5.6469">
        <ele>956</ele>
        <time>2020-02-23T15:32:20.000Z</time>
      </trkpt>
      <trkpt lat="45.17177" lon="5.64694">
        <ele>946.4</ele>
        <time>2020-02-23T15:32:30.000Z</time>
      </trkpt>
      <trkpt lat="45.17182" lon="5.64698">
        <ele>945.4</ele>
        <time>2020-02-23T15:32:40.000Z</time>
      </trkpt>
      <trkpt lat="45.17195" lon="5.64705">
        <ele>952</ele>
        <time>2020-02-23T15:32:30.000Z</time>
      </trkpt>
      <trkpt lat="45.17203" lon="5.64711">
        <ele>943.4</ele>
        <time>2020-02-23T15:32:40.000Z</time>
      </trkpt>
      <trkpt lat="45.17215" lon="5.64712">
        <ele>949</ele>
        <time>2020-02-23T15:32:39.000Z</time>
      </trkpt>
      <trkpt lat="45.17232" lon="5.64717">
        <ele>943</ele>
        <time>2020-02-23T15:32:49.000Z</time>
      </trkpt>
      <trkpt lat="45.17241" lon="5.64722">
        <ele>946</ele>
        <time>2020-02-23T15:32:49.000Z</time>
      </trkpt>
      <trkpt lat="45.17258" lon="5.64736">
        <ele>946</ele>
        <time>2020-02-23T15:32:56.000Z</time>
      </trkpt>
      <trkpt lat="45.17267" lon="5.64741">
        <ele>941.6</ele>
        <time>2020-02-23T15:33:06.000Z</time>
      </trkpt>
      <trkpt lat="45.17276" lon="5.64743">
        <ele>938</ele>
        <time>2020-02-23T15:33:03.000Z</time>
      </trkpt>
      <trkpt lat="45.17287" lon="5.64743">
        <ele>944</ele>
        <time>2020-02-23T15:33:13.000Z</time>
      </trkpt>
      <trkpt lat="45.1729" lon="5.64743">
        <ele>944.1</ele>
        <time>2020-02-23T15:33:23.000Z</time>
      </trkpt>
      <trkpt lat="45.173" lon="5.64746">
        <ele>937</ele>
        <time>2020-02-23T15:33:12.000Z</time>
      </trkpt>
      <trkpt lat="45.17305" lon="5.64747">
        <ele>943.6</ele>
        <time>2020-02-23T15:33:22.000Z</time>
      </trkpt>
      <trkpt lat="45.1732" lon="5.64756">
        <ele>937</ele>
        <time>2020-02-23T15:33:20.000Z</time>
      </trkpt>
      <trkpt lat="45.17326" lon="5.64761">
        <ele>929.2</ele>
        <time>2020-02-23T15:33:30.000Z</time>
      </trkpt>
      <trkpt lat="45.17331" lon="5.64764">
        <ele>928.7</ele>
        <time>2020-02-23T15:33:40.000Z</time>
      </trkpt>
      <trkpt lat="45.17341" lon="5.64766">
        <ele>940</ele>
        <time>2020-02-23T15:33:27.000Z</time>
      </trkpt>
      <trkpt lat="45.17351" lon="5.64764">
        <ele>925.7</ele>
        <time>2020-02-23T15:33:37.000Z</time>
      </trkpt>
      <trkpt lat="45.17361" lon="5.64767">
        <ele>938</ele>
        <time>2020-02-23T15:33:35.000Z</time>
      </trkpt>
      <trkpt lat="45.17366" lon="5.64769">
        <ele>922.7</ele>
        <time>2020-02-23T15:33:45.000Z</time>
      </trkpt>
      <trkpt lat="45.17371" lon="5.64768">
        <ele>922.5</ele>
        <time>2020-02-23T15:33:55.000Z</time>
      </trkpt>
      <trkpt lat="45.17376" lon="5.64769">
        <ele>922.2</ele>
        <time>2020-02-23T15:34:05.000Z</time>
      </trkpt>
      <trkpt lat="45.17381" lon="5.64773">
        <ele>937</ele>
        <time>2020-02-23T15:33:45.000Z</time>
      </trkpt>
      <trkpt lat="45.17388" lon="5.6478">
        <ele>920.2</ele>
        <time>2020-02-23T15:33:55.000Z</time>
      </trkpt>
      <trkpt lat="45.17395" lon="5.64784">
        <ele>919.3</ele>
        <time>2020-02-23T15:34:05.000Z</time>
      </trkpt>
      <trkpt lat="45.17404" lon="5.64792">
        <ele>937</ele>
        <time>2020-02-23T15:33:54.000Z</time>
      </trkpt>
      <trkpt lat="45.17418" lon="5.64797">
        <ele>913.8</ele>
        <time>2020-02-23T15:34:04.000Z</time>
      </trkpt>
      <trkpt lat="45.17436" lon="5.64802">
        <ele>924</ele>
        <time>2020-02-23T15:34:06.000Z</time>
      </trkpt>
      <trkpt lat="45.17445" lon="5.64805">
        <ele>912.3</ele>
        <time>2020-02-23T15:34:16.000Z</time>
      </trkpt>
      <trkpt lat="45.17457" lon="5.64804">
        <ele>917</ele>
        <time>2020-02-23T15:34:15.000Z</time>
      </trkpt>
      <trkpt lat="45.1746" lon="5.64803">
        <ele>912.9</ele>
        <time>2020-02-23T15:34:25.000Z</time>
      </trkpt>
      <trkpt lat="45.17467" lon="5.64804">
        <ele>912.6</ele>
        <time>2020-02-23T15:34:35.000Z</time>
      </trkpt>
      <trkpt lat="45.17476" lon="5.64808">
        <ele>913</ele>
        <time>2020-02-23T15:34:25.000Z</time>
      </trkpt>
      <trkpt lat="45.17477" lon="5.64811">
        <ele>910.6</ele>
        <time>2020-02-23T15:34:35.000Z</time>
      </trkpt>
      <trkpt lat="45.17476" lon="5.64816">
        <ele>909.6</ele>
        <time>2020-02-23T15:34:45.000Z</time>
      </trkpt>
      <trkpt lat="45.17474" lon="5.64819">
        <ele>909.3</ele>
        <time>2020-02-23T15:34:55.000Z</time>
      </trkpt>
      <trkpt lat="45.17471" lon="5.64822">
        <ele>909.1</ele>
        <time>2020-02-23T15:35:05.000Z</time>
      </trkpt>
      <trkpt lat="45.17459" lon="5.64827">
        <ele>908</ele>
        <time>2020-02-23T15:34:58.000Z</time>
      </trkpt>
      <trkpt lat="45.17423" lon="5.64837">
        <ele>908</ele>
        <time>2020-02-23T15:35:11.000Z</time>
      </trkpt>
      <trkpt lat="45.17396" lon="5.6484">
        <ele>908</ele>
        <time>2020-02-23T15:35:20.000Z</time>
      </trkpt>
      <trkpt lat="45.17359" lon="5.64848">
        <ele>908</ele>
        <time>2020-02-23T15:35:32.000Z</time>
      </trkpt>
      <trkpt lat="45.17356" lon="5.64849">
        <ele>890.3</ele>
        <time>2020-02-23T15:35:42.000Z</time>
      </trkpt>
      <trkpt lat="45.17347" lon="5.64853">
        <ele>890.6</ele>
        <time>2020-02-23T15:35:52.000Z</time>
      </trkpt>
      <trkpt lat="45.17335" lon="5.64856">
        <ele>901</ele>
        <time>2020-02-23T15:35:40.000Z</time>
      </trkpt>
      <trkpt lat="45.17326" lon="5.64857">
        <ele>891</ele>
        <time>2020-02-23T15:35:50.000Z</time>
      </trkpt>
      <trkpt lat="45.17306" lon="5.64864">
        <ele>898</ele>
        <time>2020-02-23T15:35:49.000Z</time>
      </trkpt>
      <trkpt lat="45.17291" lon="5.64866">
        <ele>887.6</ele>
        <time>2020-02-23T15:35:59.000Z</time>
      </trkpt>
      <trkpt lat="45.17272" lon="5.64871">
        <ele>898</ele>
        <time>2020-02-23T15:36:00.000Z</time>
      </trkpt>
      <trkpt lat="45.17256" lon="5.64873">
        <ele>886.8</ele>
        <time>2020-02-23T15:36:10.000Z</time>
      </trkpt>
      <trkpt lat="45.17242" lon="5.64873">
        <ele>898</ele>
        <time>2020-02-23T15:36:10.000Z</time>
      </trkpt>
      <trkpt lat="45.1723" lon="5.64874">
        <ele>888.5</ele>
        <time>2020-02-23T15:36:20.000Z</time>
      </trkpt>
      <trkpt lat="45.17224" lon="5.64873">
        <ele>888.8</ele>
        <time>2020-02-23T15:36:30.000Z</time>
      </trkpt>
      <trkpt lat="45.17218" lon="5.64871">
        <ele>899</ele>
        <time>2020-02-23T15:36:18.000Z</time>
      </trkpt>
      <trkpt lat="45.17191" lon="5.64867">
        <ele>900</ele>
        <time>2020-02-23T15:36:27.000Z</time>
      </trkpt>
      <trkpt lat="45.17183" lon="5.64868">
        <ele>890.6</ele>
        <time>2020-02-23T15:36:37.000Z</time>
      </trkpt>
      <trkpt lat="45.17171" lon="5.64871">
        <ele>900</ele>
        <time>2020-02-23T15:36:34.000Z</time>
      </trkpt>
      <trkpt lat="45.17166" lon="5.64874">
        <ele>895.5</ele>
        <time>2020-02-23T15:36:44.000Z</time>
      </trkpt>
      <trkpt lat="45.17161" lon="5.64877">
        <ele>895</ele>
        <time>2020-02-23T15:36:54.000Z</time>
      </trkpt>
      <trkpt lat="45.1716" lon="5.6488">
        <ele>894.4</ele>
        <time>2020-02-23T15:37:04.000Z</time>
      </trkpt>
      <trkpt lat="45.17156" lon="5.64888">
        <ele>897</ele>
        <time>2020-02-23T15:36:42.000Z</time>
      </trkpt>
      <trkpt lat="45.17155" lon="5.64895">
        <ele>890.8</ele>
        <time>2020-02-23T15:36:52.000Z</time>
      </trkpt>
      <trkpt lat="45.17151" lon="5.64926">
        <ele>891</ele>
        <time>2020-02-23T15:36:52.000Z</time>
      </trkpt>
      <trkpt lat="45.17149" lon="5.64934">
        <ele>875.9</ele>
        <time>2020-02-23T15:37:02.000Z</time>
      </trkpt>
      <trkpt lat="45.17147" lon="5.64942">
        <ele>875.1</ele>
        <time>2020-02-23T15:37:12.000Z</time>
      </trkpt>
      <trkpt lat="45.17145" lon="5.64946">
        <ele>874.8</ele>
        <time>2020-02-23T15:37:22.000Z</time>
      </trkpt>
      <trkpt lat="45.1714" lon="5.64953">
        <ele>886</ele>
        <time>2020-02-23T15:36:59.000Z</time>
      </trkpt>
      <trkpt lat="45.17134" lon="5.64957">
        <ele>874</ele>
        <time>2020-02-23T15:37:09.000Z</time>
      </trkpt>
      <trkpt lat="45.17125" lon="5.64959">
        <ele>874.2</ele>
        <time>2020-02-23T15:37:19.000Z</time>
      </trkpt>
      <trkpt lat="45.1711" lon="5.6496">
        <ele>888</ele>
        <time>2020-02-23T15:37:08.000Z</time>
      </trkpt>
      <trkpt lat="45.1709" lon="5.64959">
        <ele>884</ele>
        <time>2020-02-23T15:37:14.000Z</time>
      </trkpt>
      <trkpt lat="45.17077" lon="5.64963">
        <ele>879.3</ele>
        <time>2020-02-23T15:37:24.000Z</time>
      </trkpt>
      <trkpt lat="45.17068" lon="5.64967">
        <ele>880</ele>
        <time>2020-02-23T15:37:21.000Z</time>
      </trkpt>
      <trkpt lat="45.17041" lon="5.6498">
        <ele>875</ele>
        <time>2020-02-23T15:37:30.000Z</time>
      </trkpt>
      <trkpt lat="45.17029" lon="5.64989">
        <ele>877.8</ele>
        <time>2020-02-23T15:37:40.000Z</time>
      </trkpt>
      <trkpt lat="45.17023" lon="5.64996">
        <ele>877</ele>
        <time>2020-02-23T15:37:38.000Z</time>
      </trkpt>
      <trkpt lat="45.17018" lon="5.65004">
        <ele>868.3</ele>
        <time>2020-02-23T15:37:48.000Z</time>
      </trkpt>
      <trkpt lat="45.17014" lon="5.65013">
        <ele>868.1</ele>
        <time>2020-02-23T15:37:58.000Z</time>
      </trkpt>
      <trkpt lat="45.1701" lon="5.65013">
        <ele>868.6</ele>
        <time>2020-02-23T15:38:08.000Z</time>
      </trkpt>
      <trkpt lat="45.17008" lon="5.65015">
        <ele>876</ele>
        <time>2020-02-23T15:37:50.000Z</time>
      </trkpt>
      <trkpt lat="45.17005" lon="5.65024">
        <ele>867.3</ele>
        <time>2020-02-23T15:38:00.000Z</time>
      </trkpt>
      <trkpt lat="45.17002" lon="5.65038">
        <ele>865.9</ele>
        <time>2020-02-23T15:38:10.000Z</time>
      </trkpt>
      <trkpt lat="45.16998" lon="5.6506">
        <ele>875</ele>
        <time>2020-02-23T15:38:03.000Z</time>
      </trkpt>
      <trkpt lat="45.16998" lon="5.65071">
        <ele>870.7</ele>
        <time>2020-02-23T15:38:13.000Z</time>
      </trkpt>
      <trkpt lat="45.16999" lon="5.65079">
        <ele>867.4</ele>
        <time>2020-02-23T15:38:23.000Z</time>
      </trkpt>
      <trkpt lat="45.17001" lon="5.65098">
        <ele>875</ele>
        <time>2020-02-23T15:38:13.000Z</time>
      </trkpt>
      <trkpt lat="45.17006" lon="5.65112">
        <ele>858.8</ele>
        <time>2020-02-23T15:38:23.000Z</time>
      </trkpt>
      <trkpt lat="45.17008" lon="5.6512">
        <ele>858.1</ele>
        <time>2020-02-23T15:38:33.000Z</time>
      </trkpt>
      <trkpt lat="45.17011" lon="5.65149">
        <ele>872</ele>
        <time>2020-02-23T15:38:28.000Z</time>
      </trkpt>
      <trkpt lat="45.17011" lon="5.65156">
        <ele>858.7</ele>
        <time>2020-02-23T15:38:38.000Z</time>
      </trkpt>
      <trkpt lat="45.1701" lon="5.65163">
        <ele>859.4</ele>
        <time>2020-02-23T15:38:48.000Z</time>
      </trkpt>
      <trkpt lat="45.17003" lon="5.65181">
        <ele>871</ele>
        <time>2020-02-23T15:38:39.000Z</time>
      </trkpt>
      <trkpt lat="45.16999" lon="5.65185">
        <ele>866.9</ele>
        <time>2020-02-23T15:38:49.000Z</time>
      </trkpt>
      <trkpt lat="45.16992" lon="5.65189">
        <ele>867.9</ele>
        <time>2020-02-23T15:38:59.000Z</time>
      </trkpt>
      <trkpt lat="45.16991" lon="5.65192">
        <ele>868.3</ele>
        <time>2020-02-23T15:39:09.000Z</time>
      </trkpt>
      <trkpt lat="45.16989" lon="5.65197">
        <ele>868.7</ele>
        <time>2020-02-23T15:39:19.000Z</time>
      </trkpt>
      <trkpt lat="45.16989" lon="5.65206">
        <ele>870</ele>
        <time>2020-02-23T15:38:52.000Z</time>
      </trkpt>
      <trkpt lat="45.16989" lon="5.65209">
        <ele>868.7</ele>
        <time>2020-02-23T15:39:02.000Z</time>
      </trkpt>
      <trkpt lat="45.16991" lon="5.65211">
        <ele>868.4</ele>
        <time>2020-02-23T15:39:12.000Z</time>
      </trkpt>
      <trkpt lat="45.17002" lon="5.65217">
        <ele>853.1</ele>
        <time>2020-02-23T15:39:22.000Z</time>
      </trkpt>
      <trkpt lat="45.17008" lon="5.65221">
        <ele>860</ele>
        <time>2020-02-23T15:39:03.000Z</time>
      </trkpt>
      <trkpt lat="45.17012" lon="5.65226">
        <ele>852.6</ele>
        <time>2020-02-23T15:39:13.000Z</time>
      </trkpt>
      <trkpt lat="45.17013" lon="5.6523">
        <ele>852.6</ele>
        <time>2020-02-23T15:39:23.000Z</time>
      </trkpt>
      <trkpt lat="45.17013" lon="5.65238">
        <ele>853</ele>
        <time>2020-02-23T15:39:33.000Z</time>
      </trkpt>
      <trkpt lat="45.17011" lon="5.65253">
        <ele>859</ele>
        <time>2020-02-23T15:39:12.000Z</time>
      </trkpt>
      <trkpt lat="45.17012" lon="5.65265">
        <ele>849.9</ele>
        <time>2020-02-23T15:39:22.000Z</time>
      </trkpt>
      <trkpt lat="45.17013" lon="5.65271">
        <ele>849</ele>
        <time>2020-02-23T15:39:32.000Z</time>
      </trkpt>
      <trkpt lat="45.17012" lon="5.65283">
        <ele>858</ele>
        <time>2020-02-23T15:39:20.000Z</time>
      </trkpt>
      <trkpt lat="45.17013" lon="5.65291">
        <ele>847.7</ele>
        <time>2020-02-23T15:39:30.000Z</time>
      </trkpt>
      <trkpt lat="45.17013" lon="5.65316">
        <ele>856</ele>
        <time>2020-02-23T15:39:28.000Z</time>
      </trkpt>
      <trkpt lat="45.17015" lon="5.65323">
        <ele>849.3</ele>
        <time>2020-02-23T15:39:38.000Z</time>
      </trkpt>
      <trkpt lat="45.17016" lon="5.65331">
        <ele>849.7</ele>
        <time>2020-02-23T15:39:48.000Z</time>
      </trkpt>
      <trkpt lat="45.17019" lon="5.65341">
        <ele>847.2</ele>
        <time>2020-02-23T15:39:58.000Z</time>
      </trkpt>
      <trkpt lat="45.17022" lon="5.65352">
        <ele>841</ele>
        <time>2020-02-23T15:39:38.000Z</time>
      </trkpt>
      <trkpt lat="45.17023" lon="5.65361">
        <ele>844.6</ele>
        <time>2020-02-23T15:39:48.000Z</time>
      </trkpt>
      <trkpt lat="45.17025" lon="5.65368">
        <ele>843.9</ele>
        <time>2020-02-23T15:39:58.000Z</time>
      </trkpt>
      <trkpt lat="45.1703" lon="5.6539">
        <ele>841</ele>
        <time>2020-02-23T15:39:49.000Z</time>
      </trkpt>
      <trkpt lat="45.17034" lon="5.65401">
        <ele>842.9</ele>
        <time>2020-02-23T15:39:59.000Z</time>
      </trkpt>
      <trkpt lat="45.17037" lon="5.65408">
        <ele>842.3</ele>
        <time>2020-02-23T15:40:09.000Z</time>
      </trkpt>
      <trkpt lat="45.17039" lon="5.65415">
        <ele>842</ele>
        <time>2020-02-23T15:39:56.000Z</time>
      </trkpt>
      <trkpt lat="45.1704" lon="5.65424">
        <ele>838.5</ele>
        <time>2020-02-23T15:40:06.000Z</time>
      </trkpt>
      <trkpt lat="45.17041" lon="5.65432">
        <ele>837.9</ele>
        <time>2020-02-23T15:40:16.000Z</time>
      </trkpt>
      <trkpt lat="45.17045" lon="5.65451">
        <ele>836</ele>
        <time>2020-02-23T15:40:06.000Z</time>
      </trkpt>
      <trkpt lat="45.17047" lon="5.65457">
        <ele>835.5</ele>
        <time>2020-02-23T15:40:16.000Z</time>
      </trkpt>
      <trkpt lat="45.17055" lon="5.65476">
        <ele>830</ele>
        <time>2020-02-23T15:40:14.000Z</time>
      </trkpt>
      <trkpt lat="45.17057" lon="5.65482">
        <ele>832.2</ele>
        <time>2020-02-23T15:40:24.000Z</time>
      </trkpt>
      <trkpt lat="45.17061" lon="5.65493">
        <ele>830.3</ele>
        <time>2020-02-23T15:40:34.000Z</time>
      </trkpt>
      <trkpt lat="45.17063" lon="5.655">
        <ele>828</ele>
        <time>2020-02-23T15:40:20.000Z</time>
      </trkpt>
      <trkpt lat="45.17065" lon="5.65528">
        <ele>828</ele>
        <time>2020-02-23T15:40:29.000Z</time>
      </trkpt>
      <trkpt lat="45.17065" lon="5.65532">
        <ele>824.5</ele>
        <time>2020-02-23T15:40:39.000Z</time>
      </trkpt>
      <trkpt lat="45.17064" lon="5.65542">
        <ele>824.1</ele>
        <time>2020-02-23T15:40:49.000Z</time>
      </trkpt>
      <trkpt lat="45.17064" lon="5.65549">
        <ele>823.6</ele>
        <time>2020-02-23T15:40:59.000Z</time>
      </trkpt>
      <trkpt lat="45.17066" lon="5.65563">
        <ele>823</ele>
        <time>2020-02-23T15:40:40.000Z</time>
      </trkpt>
      <trkpt lat="45.17065" lon="5.65572">
        <ele>820.8</ele>
        <time>2020-02-23T15:40:50.000Z</time>
      </trkpt>
      <trkpt lat="45.17067" lon="5.65577">
        <ele>819.8</ele>
        <time>2020-02-23T15:41:00.000Z</time>
      </trkpt>
      <trkpt lat="45.17068" lon="5.65585">
        <ele>815</ele>
        <time>2020-02-23T15:41:10.000Z</time>
      </trkpt>
      <trkpt lat="45.17068" lon="5.65597">
        <ele>820</ele>
        <time>2020-02-23T15:40:52.000Z</time>
      </trkpt>
      <trkpt lat="45.17069" lon="5.65601">
        <ele>815.1</ele>
        <time>2020-02-23T15:41:02.000Z</time>
      </trkpt>
      <trkpt lat="45.1707" lon="5.65614">
        <ele>814.7</ele>
        <time>2020-02-23T15:41:12.000Z</time>
      </trkpt>
      <trkpt lat="45.17078" lon="5.65646">
        <ele>810</ele>
        <time>2020-02-23T15:41:07.000Z</time>
      </trkpt>
      <trkpt lat="45.17078" lon="5.65652">
        <ele>809.6</ele>
        <time>2020-02-23T15:41:17.000Z</time>
      </trkpt>
      <trkpt lat="45.17079" lon="5.65663">
        <ele>806.5</ele>
        <time>2020-02-23T15:41:27.000Z</time>
      </trkpt>
      <trkpt lat="45.17079" lon="5.65673">
        <ele>808</ele>
        <time>2020-02-23T15:41:15.000Z</time>
      </trkpt>
      <trkpt lat="45.17082" lon="5.65696">
        <ele>804.1</ele>
        <time>2020-02-23T15:41:25.000Z</time>
      </trkpt>
      <trkpt lat="45.17082" lon="5.65703">
        <ele>805</ele>
        <time>2020-02-23T15:41:24.000Z</time>
      </trkpt>
      <trkpt lat="45.1708" lon="5.65721">
        <ele>802</ele>
        <time>2020-02-23T15:41:34.000Z</time>
      </trkpt>
      <trkpt lat="45.17081" lon="5.65731">
        <ele>802</ele>
        <time>2020-02-23T15:41:32.000Z</time>
      </trkpt>
      <trkpt lat="45.17085" lon="5.65741">
        <ele>794.2</ele>
        <time>2020-02-23T15:41:42.000Z</time>
      </trkpt>
      <trkpt lat="45.17092" lon="5.65756">
        <ele>801</ele>
        <time>2020-02-23T15:41:41.000Z</time>
      </trkpt>
      <trkpt lat="45.17095" lon="5.65761">
        <ele>790.5</ele>
        <time>2020-02-23T15:41:51.000Z</time>
      </trkpt>
      <trkpt lat="45.17101" lon="5.65774">
        <ele>788.4</ele>
        <time>2020-02-23T15:42:01.000Z</time>
      </trkpt>
      <trkpt lat="45.17107" lon="5.65784">
        <ele>800</ele>
        <time>2020-02-23T15:41:53.000Z</time>
      </trkpt>
      <trkpt lat="45.17118" lon="5.65799">
        <ele>786</ele>
        <time>2020-02-23T15:42:03.000Z</time>
      </trkpt>
      <trkpt lat="45.17121" lon="5.65805">
        <ele>800</ele>
        <time>2020-02-23T15:42:02.000Z</time>
      </trkpt>
      <trkpt lat="45.17127" lon="5.65821">
        <ele>784.9</ele>
        <time>2020-02-23T15:42:12.000Z</time>
      </trkpt>
      <trkpt lat="45.17128" lon="5.6583">
        <ele>800</ele>
        <time>2020-02-23T15:42:11.000Z</time>
      </trkpt>
      <trkpt lat="45.1713" lon="5.65837">
        <ele>780.3</ele>
        <time>2020-02-23T15:42:21.000Z</time>
      </trkpt>
      <trkpt lat="45.17132" lon="5.65849">
        <ele>779.8</ele>
        <time>2020-02-23T15:42:31.000Z</time>
      </trkpt>
      <trkpt lat="45.17131" lon="5.65855">
        <ele>779.7</ele>
        <time>2020-02-23T15:42:41.000Z</time>
      </trkpt>
      <trkpt lat="45.17129" lon="5.65861">
        <ele>795</ele>
        <time>2020-02-23T15:42:23.000Z</time>
      </trkpt>
      <trkpt lat="45.17127" lon="5.65873">
        <ele>779</ele>
        <time>2020-02-23T15:42:33.000Z</time>
      </trkpt>
      <trkpt lat="45.17127" lon="5.65881">
        <ele>778.6</ele>
        <time>2020-02-23T15:42:43.000Z</time>
      </trkpt>
      <trkpt lat="45.17131" lon="5.65893">
        <ele>792</ele>
        <time>2020-02-23T15:42:35.000Z</time>
      </trkpt>
      <trkpt lat="45.17133" lon="5.65899">
        <ele>777.4</ele>
        <time>2020-02-23T15:42:45.000Z</time>
      </trkpt>
      <trkpt lat="45.17136" lon="5.65904">
        <ele>777</ele>
        <time>2020-02-23T15:42:55.000Z</time>
      </trkpt>
      <trkpt lat="45.1714" lon="5.65909">
        <ele>776.5</ele>
        <time>2020-02-23T15:43:05.000Z</time>
      </trkpt>
      <trkpt lat="45.17142" lon="5.65913">
        <ele>776.2</ele>
        <time>2020-02-23T15:43:15.000Z</time>
      </trkpt>
      <trkpt lat="45.17147" lon="5.65918">
        <ele>789</ele>
        <time>2020-02-23T15:42:48.000Z</time>
      </trkpt>
      <trkpt lat="45.17149" lon="5.65921">
        <ele>770.4</ele>
        <time>2020-02-23T15:42:58.000Z</time>
      </trkpt>
      <trkpt lat="45.1715" lon="5.65929">
        <ele>770</ele>
        <time>2020-02-23T15:43:08.000Z</time>
      </trkpt>
      <trkpt lat="45.17152" lon="5.65934">
        <ele>769.7</ele>
        <time>2020-02-23T15:43:18.000Z</time>
      </trkpt>
      <trkpt lat="45.17157" lon="5.65949">
        <ele>783</ele>
        <time>2020-02-23T15:43:01.000Z</time>
      </trkpt>
      <trkpt lat="45.17162" lon="5.6596">
        <ele>767.3</ele>
        <time>2020-02-23T15:43:11.000Z</time>
      </trkpt>
      <trkpt lat="45.17173" lon="5.65979">
        <ele>769</ele>
        <time>2020-02-23T15:43:13.000Z</time>
      </trkpt>
      <trkpt lat="45.17183" lon="5.65992">
        <ele>752.6</ele>
        <time>2020-02-23T15:43:23.000Z</time>
      </trkpt>
      <trkpt lat="45.17188" lon="5.66004">
        <ele>767</ele>
        <time>2020-02-23T15:43:24.000Z</time>
      </trkpt>
      <trkpt lat="45.17191" lon="5.66013">
        <ele>746</ele>
        <time>2020-02-23T15:43:34.000Z</time>
      </trkpt>
      <trkpt lat="45.17192" lon="5.66015">
        <ele>745.5</ele>
        <time>2020-02-23T15:43:44.000Z</time>
      </trkpt>
      <trkpt lat="45.17192" lon="5.66021">
        <ele>744.8</ele>
        <time>2020-02-23T15:43:54.000Z</time>
      </trkpt>
      <trkpt lat="45.17195" lon="5.66034">
        <ele>760</ele>
        <time>2020-02-23T15:43:34.000Z</time>
      </trkpt>
      <trkpt lat="45.17194" lon="5.66052">
        <ele>742.4</ele>
        <time>2020-02-23T15:43:44.000Z</time>
      </trkpt>
      <trkpt lat="45.17195" lon="5.66063">
        <ele>757</ele>
        <time>2020-02-23T15:43:43.000Z</time>
      </trkpt>
      <trkpt lat="45.17198" lon="5.66071">
        <ele>741.6</ele>
        <time>2020-02-23T15:43:53.000Z</time>
      </trkpt>
      <trkpt lat="45.17201" lon="5.6608">
        <ele>740.9</ele>
        <time>2020-02-23T15:44:03.000Z</time>
      </trkpt>
      <trkpt lat="45.17203" lon="5.66098">
        <ele>752</ele>
        <time>2020-02-23T15:43:58.000Z</time>
      </trkpt>
      <trkpt lat="45.17204" lon="5.66104">
        <ele>736.4</ele>
        <time>2020-02-23T15:44:08.000Z</time>
      </trkpt>
      <trkpt lat="45.17203" lon="5.6611">
        <ele>736.3</ele>
        <time>2020-02-23T15:44:18.000Z</time>
      </trkpt>
      <trkpt lat="45.17203" lon="5.66127">
        <ele>748</ele>
        <time>2020-02-23T15:44:07.000Z</time>
      </trkpt>
      <trkpt lat="45.17205" lon="5.66136">
        <ele>735.2</ele>
        <time>2020-02-23T15:44:17.000Z</time>
      </trkpt>
      <trkpt lat="45.17205" lon="5.66142">
        <ele>735</ele>
        <time>2020-02-23T15:44:27.000Z</time>
      </trkpt>
      <trkpt lat="45.17205" lon="5.66145">
        <ele>735</ele>
        <time>2020-02-23T15:44:37.000Z</time>
      </trkpt>
      <trkpt lat="45.17209" lon="5.66158">
        <ele>745</ele>
        <time>2020-02-23T15:44:17.000Z</time>
      </trkpt>
      <trkpt lat="45.1721" lon="5.66161">
        <ele>733.8</ele>
        <time>2020-02-23T15:44:27.000Z</time>
      </trkpt>
      <trkpt lat="45.17211" lon="5.66164">
        <ele>733.5</ele>
        <time>2020-02-23T15:44:37.000Z</time>
      </trkpt>
      <trkpt lat="45.17215" lon="5.6618">
        <ele>728.9</ele>
        <time>2020-02-23T15:44:47.000Z</time>
      </trkpt>
      <trkpt lat="45.1722" lon="5.662">
        <ele>739</ele>
        <time>2020-02-23T15:44:30.000Z</time>
      </trkpt>
      <trkpt lat="45.17221" lon="5.66204">
        <ele>727.6</ele>
        <time>2020-02-23T15:44:40.000Z</time>
      </trkpt>
      <trkpt lat="45.17224" lon="5.66219">
        <ele>726.5</ele>
        <time>2020-02-23T15:44:50.000Z</time>
      </trkpt>
      <trkpt lat="45.17227" lon="5.66239">
        <ele>734</ele>
        <time>2020-02-23T15:44:41.000Z</time>
      </trkpt>
      <trkpt lat="45.17231" lon="5.66254">
        <ele>715.9</ele>
        <time>2020-02-23T15:44:51.000Z</time>
      </trkpt>
      <trkpt lat="45.17233" lon="5.66267">
        <ele>730</ele>
        <time>2020-02-23T15:44:51.000Z</time>
      </trkpt>
      <trkpt lat="45.17232" lon="5.6628">
        <ele>713.8</ele>
        <time>2020-02-23T15:45:01.000Z</time>
      </trkpt>
      <trkpt lat="45.17227" lon="5.66296">
        <ele>725</ele>
        <time>2020-02-23T15:45:01.000Z</time>
      </trkpt>
      <trkpt lat="45.17221" lon="5.66304">
        <ele>711.2</ele>
        <time>2020-02-23T15:45:11.000Z</time>
      </trkpt>
      <trkpt lat="45.17214" lon="5.66311">
        <ele>711.1</ele>
        <time>2020-02-23T15:45:21.000Z</time>
      </trkpt>
      <trkpt lat="45.1721" lon="5.66313">
        <ele>717</ele>
        <time>2020-02-23T15:45:09.000Z</time>
      </trkpt>
      <trkpt lat="45.17203" lon="5.66319">
        <ele>711.5</ele>
        <time>2020-02-23T15:45:19.000Z</time>
      </trkpt>
      <trkpt lat="45.17192" lon="5.66325">
        <ele>715</ele>
        <time>2020-02-23T15:45:18.000Z</time>
      </trkpt>
      <trkpt lat="45.17185" lon="5.66331">
        <ele>711.6</ele>
        <time>2020-02-23T15:45:28.000Z</time>
      </trkpt>
      <trkpt lat="45.17177" lon="5.66335">
        <ele>703.1</ele>
        <time>2020-02-23T15:45:38.000Z</time>
      </trkpt>
      <trkpt lat="45.17167" lon="5.66346">
        <ele>711</ele>
        <time>2020-02-23T15:45:33.000Z</time>
      </trkpt>
      <trkpt lat="45.17152" lon="5.66357">
        <ele>706.7</ele>
        <time>2020-02-23T15:45:43.000Z</time>
      </trkpt>
      <trkpt lat="45.17138" lon="5.66366">
        <ele>706</ele>
        <time>2020-02-23T15:45:52.000Z</time>
      </trkpt>
      <trkpt lat="45.17136" lon="5.66368">
        <ele>706.1</ele>
        <time>2020-02-23T15:46:02.000Z</time>
      </trkpt>
      <trkpt lat="45.17134" lon="5.66372">
        <ele>705.7</ele>
        <time>2020-02-23T15:46:12.000Z</time>
      </trkpt>
      <trkpt lat="45.17131" lon="5.66382">
        <ele>704.4</ele>
        <time>2020-02-23T15:46:22.000Z</time>
      </trkpt>
      <trkpt lat="45.17129" lon="5.66399">
        <ele>699</ele>
        <time>2020-02-23T15:46:07.000Z</time>
      </trkpt>
      <trkpt lat="45.17122" lon="5.66414">
        <ele>701.9</ele>
        <time>2020-02-23T15:46:17.000Z</time>
      </trkpt>
      <trkpt lat="45.17119" lon="5.6642">
        <ele>687.5</ele>
        <time>2020-02-23T15:46:27.000Z</time>
      </trkpt>
      <trkpt lat="45.17117" lon="5.66427">
        <ele>693</ele>
        <time>2020-02-23T15:46:17.000Z</time>
      </trkpt>
      <trkpt lat="45.17109" lon="5.66446">
        <ele>686.4</ele>
        <time>2020-02-23T15:46:27.000Z</time>
      </trkpt>
      <trkpt lat="45.171" lon="5.66461">
        <ele>686</ele>
        <time>2020-02-23T15:46:28.000Z</time>
      </trkpt>
      <trkpt lat="45.17092" lon="5.6647">
        <ele>684.6</ele>
        <time>2020-02-23T15:46:38.000Z</time>
      </trkpt>
      <trkpt lat="45.17079" lon="5.6648">
        <ele>686</ele>
        <time>2020-02-23T15:46:36.000Z</time>
      </trkpt>
      <trkpt lat="45.17072" lon="5.66489">
        <ele>696.4</ele>
        <time>2020-02-23T15:46:46.000Z</time>
      </trkpt>
      <trkpt lat="45.1707" lon="5.66492">
        <ele>696.3</ele>
        <time>2020-02-23T15:46:56.000Z</time>
      </trkpt>
      <trkpt lat="45.17073" lon="5.66489">
        <ele>696</ele>
        <time>2020-02-23T15:47:06.000Z</time>
      </trkpt>
      <trkpt lat="45.17078" lon="5.66488">
        <ele>686</ele>
        <time>2020-02-23T15:46:52.000Z</time>
      </trkpt>
      <trkpt lat="45.17109" lon="5.66482">
        <ele>679</ele>
        <time>2020-02-23T15:47:09.000Z</time>
      </trkpt>
      <trkpt lat="45.17113" lon="5.66483">
        <ele>681.6</ele>
        <time>2020-02-23T15:47:19.000Z</time>
      </trkpt>
      <trkpt lat="45.17115" lon="5.66485">
        <ele>681.1</ele>
        <time>2020-02-23T15:47:29.000Z</time>
      </trkpt>
      <trkpt lat="45.17117" lon="5.66488">
        <ele>680.6</ele>
        <time>2020-02-23T15:47:39.000Z</time>
      </trkpt>
      <trkpt lat="45.1712" lon="5.66496">
        <ele>679.7</ele>
        <time>2020-02-23T15:47:49.000Z</time>
      </trkpt>
      <trkpt lat="45.17122" lon="5.66501">
        <ele>675</ele>
        <time>2020-02-23T15:47:18.000Z</time>
      </trkpt>
      <trkpt lat="45.17122" lon="5.66509">
        <ele>667</ele>
        <time>2020-02-23T15:47:28.000Z</time>
      </trkpt>
      <trkpt lat="45.17122" lon="5.66514">
        <ele>666.6</ele>
        <time>2020-02-23T15:47:38.000Z</time>
      </trkpt>
      <trkpt lat="45.17123" lon="5.66519">
        <ele>666</ele>
        <time>2020-02-23T15:47:48.000Z</time>
      </trkpt>
      <trkpt lat="45.17122" lon="5.66527">
        <ele>665.4</ele>
        <time>2020-02-23T15:47:58.000Z</time>
      </trkpt>
      <trkpt lat="45.17122" lon="5.66531">
        <ele>672</ele>
        <time>2020-02-23T15:47:32.000Z</time>
      </trkpt>
      <trkpt lat="45.17123" lon="5.6654">
        <ele>663.9</ele>
        <time>2020-02-23T15:47:42.000Z</time>
      </trkpt>
      <trkpt lat="45.17119" lon="5.66563">
        <ele>664</ele>
        <time>2020-02-23T15:47:46.000Z</time>
      </trkpt>
      <trkpt lat="45.17113" lon="5.66579">
        <ele>662.1</ele>
        <time>2020-02-23T15:47:56.000Z</time>
      </trkpt>
      <trkpt lat="45.17108" lon="5.6659">
        <ele>661</ele>
        <time>2020-02-23T15:48:00.000Z</time>
      </trkpt>
      <trkpt lat="45.17105" lon="5.66598">
        <ele>653.6</ele>
        <time>2020-02-23T15:48:10.000Z</time>
      </trkpt>
      <trkpt lat="45.17106" lon="5.66619">
        <ele>658</ele>
        <time>2020-02-23T15:48:14.000Z</time>
      </trkpt>
      <trkpt lat="45.1711" lon="5.66626">
        <ele>649.3</ele>
        <time>2020-02-23T15:48:24.000Z</time>
      </trkpt>
      <trkpt lat="45.17117" lon="5.66638">
        <ele>647.9</ele>
        <time>2020-02-23T15:48:34.000Z</time>
      </trkpt>
      <trkpt lat="45.17125" lon="5.66647">
        <ele>653</ele>
        <time>2020-02-23T15:48:32.000Z</time>
      </trkpt>
      <trkpt lat="45.1713" lon="5.66656">
        <ele>646.1</ele>
        <time>2020-02-23T15:48:42.000Z</time>
      </trkpt>
      <trkpt lat="45.17133" lon="5.66664">
        <ele>645.6</ele>
        <time>2020-02-23T15:48:52.000Z</time>
      </trkpt>
      <trkpt lat="45.17139" lon="5.66681">
        <ele>645</ele>
        <time>2020-02-23T15:48:49.000Z</time>
      </trkpt>
      <trkpt lat="45.17142" lon="5.66688">
        <ele>639.4</ele>
        <time>2020-02-23T15:48:59.000Z</time>
      </trkpt>
      <trkpt lat="45.17145" lon="5.66691">
        <ele>639.4</ele>
        <time>2020-02-23T15:49:09.000Z</time>
      </trkpt>
      <trkpt lat="45.17148" lon="5.66691">
        <ele>639.4</ele>
        <time>2020-02-23T15:49:19.000Z</time>
      </trkpt>
      <trkpt lat="45.1715" lon="5.6669">
        <ele>639.5</ele>
        <time>2020-02-23T15:49:29.000Z</time>
      </trkpt>
      <trkpt lat="45.17154" lon="5.66684">
        <ele>645</ele>
        <time>2020-02-23T15:49:03.000Z</time>
      </trkpt>
      <trkpt lat="45.17158" lon="5.66668">
        <ele>639.8</ele>
        <time>2020-02-23T15:49:13.000Z</time>
      </trkpt>
      <trkpt lat="45.17159" lon="5.66665">
        <ele>642.1</ele>
        <time>2020-02-23T15:49:23.000Z</time>
      </trkpt>
      <trkpt lat="45.17161" lon="5.66665">
        <ele>641.7</ele>
        <time>2020-02-23T15:49:33.000Z</time>
      </trkpt>
      <trkpt lat="45.17164" lon="5.66665">
        <ele>640.9</ele>
        <time>2020-02-23T15:49:43.000Z</time>
      </trkpt>
      <trkpt lat="45.17166" lon="5.66667">
        <ele>640</ele>
        <time>2020-02-23T15:49:20.000Z</time>
      </trkpt>
      <trkpt lat="45.17166" lon="5.66677">
        <ele>639.8</ele>
        <time>2020-02-23T15:49:30.000Z</time>
      </trkpt>
      <trkpt lat="45.17165" lon="5.66685">
        <ele>639.7</ele>
        <time>2020-02-23T15:49:40.000Z</time>
      </trkpt>
      <trkpt lat="45.17165" lon="5.66689">
        <ele>639.6</ele>
        <time>2020-02-23T15:49:50.000Z</time>
      </trkpt>
      <trkpt lat="45.17167" lon="5.66691">
        <ele>634.9</ele>
        <time>2020-02-23T15:50:00.000Z</time>
      </trkpt>
      <trkpt lat="45.1717" lon="5.6669">
        <ele>640</ele>
        <time>2020-02-23T15:49:34.000Z</time>
      </trkpt>
      <trkpt lat="45.17173" lon="5.66686">
        <ele>635</ele>
        <time>2020-02-23T15:49:44.000Z</time>
      </trkpt>
      <trkpt lat="45.17177" lon="5.66673">
        <ele>636.1</ele>
        <time>2020-02-23T15:49:54.000Z</time>
      </trkpt>
      <trkpt lat="45.17178" lon="5.66669">
        <ele>636.1</ele>
        <time>2020-02-23T15:50:04.000Z</time>
      </trkpt>
      <trkpt lat="45.17177" lon="5.66657">
        <ele>643</ele>
        <time>2020-02-23T15:49:44.000Z</time>
      </trkpt>
      <trkpt lat="45.17179" lon="5.66638">
        <ele>634.8</ele>
        <time>2020-02-23T15:49:54.000Z</time>
      </trkpt>
      <trkpt lat="45.17184" lon="5.6662">
        <ele>641</ele>
        <time>2020-02-23T15:49:54.000Z</time>
      </trkpt>
      <trkpt lat="45.17189" lon="5.66602">
        <ele>636</ele>
        <time>2020-02-23T15:50:04.000Z</time>
      </trkpt>
      <trkpt lat="45.17193" lon="5.66588">
        <ele>643</ele>
        <time>2020-02-23T15:50:03.000Z</time>
      </trkpt>
      <trkpt lat="45.17195" lon="5.66577">
        <ele>642.6</ele>
        <time>2020-02-23T15:50:13.000Z</time>
      </trkpt>
      <trkpt lat="45.17199" lon="5.66566">
        <ele>642.5</ele>
        <time>2020-02-23T15:50:23.000Z</time>
      </trkpt>
      <trkpt lat="45.17202" lon="5.66555">
        <ele>646</ele>
        <time>2020-02-23T15:50:11.000Z</time>
      </trkpt>
      <trkpt lat="45.17202" lon="5.66551">
        <ele>643</ele>
        <time>2020-02-23T15:50:21.000Z</time>
      </trkpt>
      <trkpt lat="45.17209" lon="5.66532">
        <ele>643.7</ele>
        <time>2020-02-23T15:50:31.000Z</time>
      </trkpt>
      <trkpt lat="45.17223" lon="5.66509">
        <ele>647</ele>
        <time>2020-02-23T15:50:29.000Z</time>
      </trkpt>
      <trkpt lat="45.1723" lon="5.66502">
        <ele>642.4</ele>
        <time>2020-02-23T15:50:39.000Z</time>
      </trkpt>
      <trkpt lat="45.17233" lon="5.66499">
        <ele>651.1</ele>
        <time>2020-02-23T15:50:49.000Z</time>
      </trkpt>
      <trkpt lat="45.17235" lon="5.66497">
        <ele>650.4</ele>
        <time>2020-02-23T15:50:59.000Z</time>
      </trkpt>
      <trkpt lat="45.17246" lon="5.66493">
        <ele>649</ele>
        <time>2020-02-23T15:50:43.000Z</time>
      </trkpt>
      <trkpt lat="45.17252" lon="5.6649">
        <ele>642.9</ele>
        <time>2020-02-23T15:50:53.000Z</time>
      </trkpt>
      <trkpt lat="45.17259" lon="5.66488">
        <ele>643.8</ele>
        <time>2020-02-23T15:51:03.000Z</time>
      </trkpt>
      <trkpt lat="45.17271" lon="5.66486">
        <ele>654</ele>
        <time>2020-02-23T15:50:56.000Z</time>
      </trkpt>
      <trkpt lat="45.17281" lon="5.66483">
        <ele>645.2</ele>
        <time>2020-02-23T15:51:06.000Z</time>
      </trkpt>
      <trkpt lat="45.17293" lon="5.66477">
        <ele>654</ele>
        <time>2020-02-23T15:51:05.000Z</time>
      </trkpt>
      <trkpt lat="45.17311" lon="5.66476">
        <ele>643.7</ele>
        <time>2020-02-23T15:51:15.000Z</time>
      </trkpt>
      <trkpt lat="45.17316" lon="5.66473">
        <ele>649</ele>
        <time>2020-02-23T15:51:15.000Z</time>
      </trkpt>
      <trkpt lat="45.17326" lon="5.6647">
        <ele>643.4</ele>
        <time>2020-02-23T15:51:25.000Z</time>
      </trkpt>
      <trkpt lat="45.1733" lon="5.66467">
        <ele>643.8</ele>
        <time>2020-02-23T15:51:35.000Z</time>
      </trkpt>
      <trkpt lat="45.17333" lon="5.66462">
        <ele>651</ele>
        <time>2020-02-23T15:51:23.000Z</time>
      </trkpt>
      <trkpt lat="45.17334" lon="5.66459">
        <ele>636.9</ele>
        <time>2020-02-23T15:51:33.000Z</time>
      </trkpt>
      <trkpt lat="45.17334" lon="5.66452">
        <ele>637.9</ele>
        <time>2020-02-23T15:51:43.000Z</time>
      </trkpt>
      <trkpt lat="45.17332" lon="5.66433">
        <ele>652</ele>
        <time>2020-02-23T15:51:31.000Z</time>
      </trkpt>
      <trkpt lat="45.17333" lon="5.6643">
        <ele>648.3</ele>
        <time>2020-02-23T15:51:41.000Z</time>
      </trkpt>
      <trkpt lat="45.17336" lon="5.66423">
        <ele>645.5</ele>
        <time>2020-02-23T15:51:51.000Z</time>
      </trkpt>
      <trkpt lat="45.1735" lon="5.66409">
        <ele>651</ele>
        <time>2020-02-23T15:51:40.000Z</time>
      </trkpt>
      <trkpt lat="45.17356" lon="5.66402">
        <ele>650.4</ele>
        <time>2020-02-23T15:51:50.000Z</time>
      </trkpt>
      <trkpt lat="45.17368" lon="5.66394">
        <ele>650</ele>
        <time>2020-02-23T15:51:48.000Z</time>
      </trkpt>
      <trkpt lat="45.17379" lon="5.66384">
        <ele>650.6</ele>
        <time>2020-02-23T15:51:58.000Z</time>
      </trkpt>
      <trkpt lat="45.1739" lon="5.66376">
        <ele>650</ele>
        <time>2020-02-23T15:52:04.000Z</time>
      </trkpt>
      <trkpt lat="45.17395" lon="5.66369">
        <ele>651.5</ele>
        <time>2020-02-23T15:52:14.000Z</time>
      </trkpt>
      <trkpt lat="45.17397" lon="5.66368">
        <ele>651.6</ele>
        <time>2020-02-23T15:52:24.000Z</time>
      </trkpt>
      <trkpt lat="45.17406" lon="5.66367">
        <ele>651.4</ele>
        <time>2020-02-23T15:52:34.000Z</time>
      </trkpt>
      <trkpt lat="45.17414" lon="5.66369">
        <ele>648</ele>
        <time>2020-02-23T15:52:20.000Z</time>
      </trkpt>
      <trkpt lat="45.17422" lon="5.66374">
        <ele>647.3</ele>
        <time>2020-02-23T15:52:30.000Z</time>
      </trkpt>
      <trkpt lat="45.17435" lon="5.66385">
        <ele>651</ele>
        <time>2020-02-23T15:52:35.000Z</time>
      </trkpt>
      <trkpt lat="45.17441" lon="5.66389">
        <ele>645.3</ele>
        <time>2020-02-23T15:52:45.000Z</time>
      </trkpt>
      <trkpt lat="45.17451" lon="5.66396">
        <ele>644.9</ele>
        <time>2020-02-23T15:52:55.000Z</time>
      </trkpt>
      <trkpt lat="45.17464" lon="5.66401">
        <ele>654</ele>
        <time>2020-02-23T15:52:54.000Z</time>
      </trkpt>
      <trkpt lat="45.17472" lon="5.66403">
        <ele>644.6</ele>
        <time>2020-02-23T15:53:04.000Z</time>
      </trkpt>
      <trkpt lat="45.1748" lon="5.66404">
        <ele>644.1</ele>
        <time>2020-02-23T15:53:14.000Z</time>
      </trkpt>
      <trkpt lat="45.1749" lon="5.66403">
        <ele>654</ele>
        <time>2020-02-23T15:53:06.000Z</time>
      </trkpt>
      <trkpt lat="45.17506" lon="5.66398">
        <ele>641.8</ele>
        <time>2020-02-23T15:53:16.000Z</time>
      </trkpt>
      <trkpt lat="45.17546" lon="5.66381">
        <ele>646</ele>
        <time>2020-02-23T15:53:27.000Z</time>
      </trkpt>
      <trkpt lat="45.17562" lon="5.66374">
        <ele>641.6</ele>
        <time>2020-02-23T15:53:37.000Z</time>
      </trkpt>
      <trkpt lat="45.17569" lon="5.66368">
        <ele>644</ele>
        <time>2020-02-23T15:53:36.000Z</time>
      </trkpt>
      <trkpt lat="45.17577" lon="5.66363">
        <ele>642.2</ele>
        <time>2020-02-23T15:53:46.000Z</time>
      </trkpt>
      <trkpt lat="45.17586" lon="5.66352">
        <ele>635</ele>
        <time>2020-02-23T15:53:44.000Z</time>
      </trkpt>
      <trkpt lat="45.17595" lon="5.66338">
        <ele>639.6</ele>
        <time>2020-02-23T15:53:54.000Z</time>
      </trkpt>
      <trkpt lat="45.17597" lon="5.66331">
        <ele>643.6</ele>
        <time>2020-02-23T15:54:04.000Z</time>
      </trkpt>
      <trkpt lat="45.176" lon="5.66322">
        <ele>635</ele>
        <time>2020-02-23T15:53:55.000Z</time>
      </trkpt>
      <trkpt lat="45.17604" lon="5.66314">
        <ele>643.6</ele>
        <time>2020-02-23T15:54:05.000Z</time>
      </trkpt>
      <trkpt lat="45.17607" lon="5.66309">
        <ele>643.6</ele>
        <time>2020-02-23T15:54:15.000Z</time>
      </trkpt>
      <trkpt lat="45.17614" lon="5.66303">
        <ele>636</ele>
        <time>2020-02-23T15:54:04.000Z</time>
      </trkpt>
      <trkpt lat="45.17639" lon="5.66295">
        <ele>640</ele>
        <time>2020-02-23T15:54:14.000Z</time>
      </trkpt>
      <trkpt lat="45.17642" lon="5.66294">
        <ele>642.8</ele>
        <time>2020-02-23T15:54:24.000Z</time>
      </trkpt>
      <trkpt lat="45.17666" lon="5.66296">
        <ele>644</ele>
        <time>2020-02-23T15:54:24.000Z</time>
      </trkpt>
      <trkpt lat="45.17674" lon="5.66295">
        <ele>642.1</ele>
        <time>2020-02-23T15:54:34.000Z</time>
      </trkpt>
      <trkpt lat="45.17689" lon="5.66298">
        <ele>644</ele>
        <time>2020-02-23T15:54:32.000Z</time>
      </trkpt>
      <trkpt lat="45.17699" lon="5.66298">
        <ele>642.7</ele>
        <time>2020-02-23T15:54:42.000Z</time>
      </trkpt>
      <trkpt lat="45.17705" lon="5.66296">
        <ele>643</ele>
        <time>2020-02-23T15:54:52.000Z</time>
      </trkpt>
      <trkpt lat="45.17721" lon="5.66284">
        <ele>648</ele>
        <time>2020-02-23T15:54:47.000Z</time>
      </trkpt>
      <trkpt lat="45.1773" lon="5.66282">
        <ele>644.2</ele>
        <time>2020-02-23T15:54:57.000Z</time>
      </trkpt>
      <trkpt lat="45.17737" lon="5.66282">
        <ele>644.4</ele>
        <time>2020-02-23T15:55:07.000Z</time>
      </trkpt>
      <trkpt lat="45.17744" lon="5.66284">
        <ele>648</ele>
        <time>2020-02-23T15:54:56.000Z</time>
      </trkpt>
      <trkpt lat="45.17749" lon="5.66286">
        <ele>644.4</ele>
        <time>2020-02-23T15:55:06.000Z</time>
      </trkpt>
      <trkpt lat="45.17752" lon="5.66289">
        <ele>646.8</ele>
        <time>2020-02-23T15:55:16.000Z</time>
      </trkpt>
      <trkpt lat="45.17756" lon="5.66295">
        <ele>646.7</ele>
        <time>2020-02-23T15:55:26.000Z</time>
      </trkpt>
      <trkpt lat="45.17766" lon="5.66313">
        <ele>648</ele>
        <time>2020-02-23T15:55:08.000Z</time>
      </trkpt>
      <trkpt lat="45.17771" lon="5.66321">
        <ele>646.3</ele>
        <time>2020-02-23T15:55:18.000Z</time>
      </trkpt>
      <trkpt lat="45.17781" lon="5.6633">
        <ele>646</ele>
        <time>2020-02-23T15:55:15.000Z</time>
      </trkpt>
      <trkpt lat="45.17789" lon="5.66332">
        <ele>646.6</ele>
        <time>2020-02-23T15:55:25.000Z</time>
      </trkpt>
      <trkpt lat="45.17793" lon="5.66331">
        <ele>646.6</ele>
        <time>2020-02-23T15:55:35.000Z</time>
      </trkpt>
      <trkpt lat="45.17808" lon="5.66326">
        <ele>644</ele>
        <time>2020-02-23T15:55:28.000Z</time>
      </trkpt>
      <trkpt lat="45.17813" lon="5.66327">
        <ele>646.7</ele>
        <time>2020-02-23T15:55:38.000Z</time>
      </trkpt>
      <trkpt lat="45.17819" lon="5.6633">
        <ele>646.5</ele>
        <time>2020-02-23T15:55:48.000Z</time>
      </trkpt>
      <trkpt lat="45.17825" lon="5.6633">
        <ele>646.4</ele>
        <time>2020-02-23T15:55:58.000Z</time>
      </trkpt>
      <trkpt lat="45.1783" lon="5.66332">
        <ele>636</ele>
        <time>2020-02-23T15:55:37.000Z</time>
      </trkpt>
      <trkpt lat="45.17837" lon="5.66332">
        <ele>645.6</ele>
        <time>2020-02-23T15:55:47.000Z</time>
      </trkpt>
      <trkpt lat="45.1784" lon="5.66331">
        <ele>645.3</ele>
        <time>2020-02-23T15:55:57.000Z</time>
      </trkpt>
      <trkpt lat="45.17864" lon="5.66312">
        <ele>630</ele>
        <time>2020-02-23T15:55:54.000Z</time>
      </trkpt>
      <trkpt lat="45.17875" lon="5.663">
        <ele>643.1</ele>
        <time>2020-02-23T15:56:04.000Z</time>
      </trkpt>
      <trkpt lat="45.1788" lon="5.66292">
        <ele>629</ele>
        <time>2020-02-23T15:56:04.000Z</time>
      </trkpt>
      <trkpt lat="45.17885" lon="5.66283">
        <ele>642.8</ele>
        <time>2020-02-23T15:56:14.000Z</time>
      </trkpt>
      <trkpt lat="45.17889" lon="5.66278">
        <ele>642.5</ele>
        <time>2020-02-23T15:56:24.000Z</time>
      </trkpt>
      <trkpt lat="45.179" lon="5.6627">
        <ele>628</ele>
        <time>2020-02-23T15:56:14.000Z</time>
      </trkpt>
      <trkpt lat="45.17907" lon="5.66267">
        <ele>641.2</ele>
        <time>2020-02-23T15:56:24.000Z</time>
      </trkpt>
      <trkpt lat="45.17915" lon="5.66262">
        <ele>640.5</ele>
        <time>2020-02-23T15:56:34.000Z</time>
      </trkpt>
      <trkpt lat="45.1792" lon="5.66261">
        <ele>626</ele>
        <time>2020-02-23T15:56:23.000Z</time>
      </trkpt>
      <trkpt lat="45.17925" lon="5.6626">
        <ele>636.2</ele>
        <time>2020-02-23T15:56:33.000Z</time>
      </trkpt>
      <trkpt lat="45.17938" lon="5.66265">
        <ele>634.4</ele>
        <time>2020-02-23T15:56:43.000Z</time>
      </trkpt>
      <trkpt lat="45.17944" lon="5.66271">
        <ele>622</ele>
        <time>2020-02-23T15:56:33.000Z</time>
      </trkpt>
      <trkpt lat="45.17954" lon="5.66281">
        <ele>632.5</ele>
        <time>2020-02-23T15:56:43.000Z</time>
      </trkpt>
      <trkpt lat="45.17962" lon="5.66295">
        <ele>619</ele>
        <time>2020-02-23T15:56:43.000Z</time>
      </trkpt>
      <trkpt lat="45.17966" lon="5.663">
        <ele>631.3</ele>
        <time>2020-02-23T15:56:53.000Z</time>
      </trkpt>
      <trkpt lat="45.17974" lon="5.66304">
        <ele>630.5</ele>
        <time>2020-02-23T15:57:03.000Z</time>
      </trkpt>
      <trkpt lat="45.17976" lon="5.66304">
        <ele>630.4</ele>
        <time>2020-02-23T15:57:13.000Z</time>
      </trkpt>
      <trkpt lat="45.17979" lon="5.66299">
        <ele>619</ele>
        <time>2020-02-23T15:56:50.000Z</time>
      </trkpt>
      <trkpt lat="45.1798" lon="5.66297">
        <ele>630.4</ele>
        <time>2020-02-23T15:57:00.000Z</time>
      </trkpt>
      <trkpt lat="45.17979" lon="5.66291">
        <ele>630.6</ele>
        <time>2020-02-23T15:57:10.000Z</time>
      </trkpt>
      <trkpt lat="45.17977" lon="5.66279">
        <ele>630.9</ele>
        <time>2020-02-23T15:57:20.000Z</time>
      </trkpt>
      <trkpt lat="45.17976" lon="5.66266">
        <ele>614</ele>
        <time>2020-02-23T15:57:02.000Z</time>
      </trkpt>
      <trkpt lat="45.17976" lon="5.66251">
        <ele>630.8</ele>
        <time>2020-02-23T15:57:12.000Z</time>
      </trkpt>
      <trkpt lat="45.17978" lon="5.66242">
        <ele>629.3</ele>
        <time>2020-02-23T15:57:22.000Z</time>
      </trkpt>
      <trkpt lat="45.17978" lon="5.66235">
        <ele>613</ele>
        <time>2020-02-23T15:57:12.000Z</time>
      </trkpt>
      <trkpt lat="45.17977" lon="5.66229">
        <ele>629.2</ele>
        <time>2020-02-23T15:57:22.000Z</time>
      </trkpt>
      <trkpt lat="45.17978" lon="5.66225">
        <ele>629.1</ele>
        <time>2020-02-23T15:57:32.000Z</time>
      </trkpt>
      <trkpt lat="45.17977" lon="5.66221">
        <ele>629</ele>
        <time>2020-02-23T15:57:42.000Z</time>
      </trkpt>
      <trkpt lat="45.17975" lon="5.662">
        <ele>612</ele>
        <time>2020-02-23T15:57:21.000Z</time>
      </trkpt>
      <trkpt lat="45.17971" lon="5.66189">
        <ele>627.7</ele>
        <time>2020-02-23T15:57:31.000Z</time>
      </trkpt>
      <trkpt lat="45.1797" lon="5.66185">
        <ele>627.5</ele>
        <time>2020-02-23T15:57:41.000Z</time>
      </trkpt>
      <trkpt lat="45.1797" lon="5.66181">
        <ele>627.3</ele>
        <time>2020-02-23T15:57:51.000Z</time>
      </trkpt>
      <trkpt lat="45.17971" lon="5.66174">
        <ele>612</ele>
        <time>2020-02-23T15:57:28.000Z</time>
      </trkpt>
      <trkpt lat="45.17972" lon="5.6617">
        <ele>626.7</ele>
        <time>2020-02-23T15:57:38.000Z</time>
      </trkpt>
      <trkpt lat="45.17977" lon="5.66159">
        <ele>624</ele>
        <time>2020-02-23T15:57:48.000Z</time>
      </trkpt>
      <trkpt lat="45.1798" lon="5.66149">
        <ele>610</ele>
        <time>2020-02-23T15:57:35.000Z</time>
      </trkpt>
      <trkpt lat="45.17982" lon="5.66142">
        <ele>624.2</ele>
        <time>2020-02-23T15:57:45.000Z</time>
      </trkpt>
      <trkpt lat="45.17984" lon="5.66139">
        <ele>624.2</ele>
        <time>2020-02-23T15:57:55.000Z</time>
      </trkpt>
      <trkpt lat="45.17995" lon="5.66123">
        <ele>610</ele>
        <time>2020-02-23T15:57:44.000Z</time>
      </trkpt>
      <trkpt lat="45.18001" lon="5.66111">
        <ele>619.5</ele>
        <time>2020-02-23T15:57:54.000Z</time>
      </trkpt>
      <trkpt lat="45.18002" lon="5.66108">
        <ele>619.6</ele>
        <time>2020-02-23T15:58:04.000Z</time>
      </trkpt>
      <trkpt lat="45.18005" lon="5.66097">
        <ele>613</ele>
        <time>2020-02-23T15:57:52.000Z</time>
      </trkpt>
      <trkpt lat="45.18007" lon="5.66082">
        <ele>621.5</ele>
        <time>2020-02-23T15:58:02.000Z</time>
      </trkpt>
      <trkpt lat="45.18009" lon="5.66072">
        <ele>621.1</ele>
        <time>2020-02-23T15:58:12.000Z</time>
      </trkpt>
      <trkpt lat="45.18014" lon="5.66059">
        <ele>614</ele>
        <time>2020-02-23T15:58:03.000Z</time>
      </trkpt>
      <trkpt lat="45.1802" lon="5.66038">
        <ele>621.2</ele>
        <time>2020-02-23T15:58:13.000Z</time>
      </trkpt>
      <trkpt lat="45.18021" lon="5.66029">
        <ele>615</ele>
        <time>2020-02-23T15:58:13.000Z</time>
      </trkpt>
      <trkpt lat="45.18024" lon="5.66023">
        <ele>621.7</ele>
        <time>2020-02-23T15:58:23.000Z</time>
      </trkpt>
      <trkpt lat="45.18029" lon="5.66016">
        <ele>621.5</ele>
        <time>2020-02-23T15:58:33.000Z</time>
      </trkpt>
      <trkpt lat="45.18032" lon="5.66009">
        <ele>621.4</ele>
        <time>2020-02-23T15:58:43.000Z</time>
      </trkpt>
      <trkpt lat="45.18032" lon="5.66003">
        <ele>618</ele>
        <time>2020-02-23T15:58:23.000Z</time>
      </trkpt>
      <trkpt lat="45.18031" lon="5.65999">
        <ele>624.1</ele>
        <time>2020-02-23T15:58:33.000Z</time>
      </trkpt>
      <trkpt lat="45.18028" lon="5.65994">
        <ele>624.4</ele>
        <time>2020-02-23T15:58:43.000Z</time>
      </trkpt>
      <trkpt lat="45.18027" lon="5.6599">
        <ele>624.5</ele>
        <time>2020-02-23T15:58:53.000Z</time>
      </trkpt>
      <trkpt lat="45.18026" lon="5.65992">
        <ele>624.6</ele>
        <time>2020-02-23T15:59:03.000Z</time>
      </trkpt>
      <trkpt lat="45.1803" lon="5.65996">
        <ele>624.2</ele>
        <time>2020-02-23T15:59:13.000Z</time>
      </trkpt>
      <trkpt lat="45.18039" lon="5.66001">
        <ele>618</ele>
        <time>2020-02-23T16:00:45.000Z</time>
      </trkpt>
      <trkpt lat="45.18051" lon="5.66012">
        <ele>619.4</ele>
        <time>2020-02-23T16:00:55.000Z</time>
      </trkpt>
      <trkpt lat="45.18056" lon="5.66014">
        <ele>614</ele>
        <time>2020-02-23T16:00:59.000Z</time>
      </trkpt>
      <trkpt lat="45.18062" lon="5.6602">
        <ele>618.5</ele>
        <time>2020-02-23T16:01:09.000Z</time>
      </trkpt>
      <trkpt lat="45.18065" lon="5.66021">
        <ele>618.3</ele>
        <time>2020-02-23T16:01:19.000Z</time>
      </trkpt>
      <trkpt lat="45.18068" lon="5.66021">
        <ele>618.1</ele>
        <time>2020-02-23T16:01:29.000Z</time>
      </trkpt>
      <trkpt lat="45.18074" lon="5.66019">
        <ele>606</ele>
        <time>2020-02-23T16:01:14.000Z</time>
      </trkpt>
      <trkpt lat="45.18083" lon="5.66016">
        <ele>617.1</ele>
        <time>2020-02-23T16:01:24.000Z</time>
      </trkpt>
      <trkpt lat="45.1809" lon="5.66011">
        <ele>613.8</ele>
        <time>2020-02-23T16:01:34.000Z</time>
      </trkpt>
      <trkpt lat="45.18098" lon="5.66006">
        <ele>606</ele>
        <time>2020-02-23T16:01:24.000Z</time>
      </trkpt>
      <trkpt lat="45.18102" lon="5.66002">
        <ele>613.3</ele>
        <time>2020-02-23T16:01:34.000Z</time>
      </trkpt>
      <trkpt lat="45.18141" lon="5.65958">
        <ele>613</ele>
        <time>2020-02-23T16:01:45.000Z</time>
      </trkpt>
      <trkpt lat="45.18156" lon="5.65942">
        <ele>613</ele>
        <time>2020-02-23T16:01:54.000Z</time>
      </trkpt>
      <trkpt lat="45.1816" lon="5.65939">
        <ele>613.6</ele>
        <time>2020-02-23T16:02:04.000Z</time>
      </trkpt>
      <trkpt lat="45.18163" lon="5.65938">
        <ele>613.5</ele>
        <time>2020-02-23T16:02:14.000Z</time>
      </trkpt>
      <trkpt lat="45.18178" lon="5.65939">
        <ele>612</ele>
        <time>2020-02-23T16:02:03.000Z</time>
      </trkpt>
      <trkpt lat="45.18193" lon="5.65943">
        <ele>607</ele>
        <time>2020-02-23T16:02:13.000Z</time>
      </trkpt>
      <trkpt lat="45.182" lon="5.65947">
        <ele>612</ele>
        <time>2020-02-23T16:02:11.000Z</time>
      </trkpt>
      <trkpt lat="45.18205" lon="5.65952">
        <ele>606</ele>
        <time>2020-02-23T16:02:21.000Z</time>
      </trkpt>
      <trkpt lat="45.18211" lon="5.65958">
        <ele>605.6</ele>
        <time>2020-02-23T16:02:31.000Z</time>
      </trkpt>
      <trkpt lat="45.18214" lon="5.65957">
        <ele>605.4</ele>
        <time>2020-02-23T16:02:41.000Z</time>
      </trkpt>
      <trkpt lat="45.18216" lon="5.65955">
        <ele>605.3</ele>
        <time>2020-02-23T16:02:51.000Z</time>
      </trkpt>
      <trkpt lat="45.18225" lon="5.65955">
        <ele>609</ele>
        <time>2020-02-23T16:02:24.000Z</time>
      </trkpt>
      <trkpt lat="45.18239" lon="5.65953">
        <ele>604</ele>
        <time>2020-02-23T16:02:34.000Z</time>
      </trkpt>
      <trkpt lat="45.18244" lon="5.65955">
        <ele>604</ele>
        <time>2020-02-23T16:02:31.000Z</time>
      </trkpt>
      <trkpt lat="45.18248" lon="5.65959">
        <ele>603.6</ele>
        <time>2020-02-23T16:02:41.000Z</time>
      </trkpt>
      <trkpt lat="45.18258" lon="5.65972">
        <ele>594.6</ele>
        <time>2020-02-23T16:02:51.000Z</time>
      </trkpt>
      <trkpt lat="45.1826" lon="5.65974">
        <ele>600</ele>
        <time>2020-02-23T16:02:40.000Z</time>
      </trkpt>
      <trkpt lat="45.18269" lon="5.65977">
        <ele>593.9</ele>
        <time>2020-02-23T16:02:50.000Z</time>
      </trkpt>
      <trkpt lat="45.18277" lon="5.65982">
        <ele>593</ele>
        <time>2020-02-23T16:03:00.000Z</time>
      </trkpt>
      <trkpt lat="45.18291" lon="5.65986">
        <ele>592</ele>
        <time>2020-02-23T16:02:54.000Z</time>
      </trkpt>
      <trkpt lat="45.18296" lon="5.65986">
        <ele>590.3</ele>
        <time>2020-02-23T16:03:04.000Z</time>
      </trkpt>
      <trkpt lat="45.18309" lon="5.65988">
        <ele>587.9</ele>
        <time>2020-02-23T16:03:14.000Z</time>
      </trkpt>
      <trkpt lat="45.18314" lon="5.6599">
        <ele>585</ele>
        <time>2020-02-23T16:03:04.000Z</time>
      </trkpt>
      <trkpt lat="45.18337" lon="5.66002">
        <ele>578</ele>
        <time>2020-02-23T16:03:14.000Z</time>
      </trkpt>
      <trkpt lat="45.18347" lon="5.66001">
        <ele>572.7</ele>
        <time>2020-02-23T16:03:24.000Z</time>
      </trkpt>
      <trkpt lat="45.18352" lon="5.66001">
        <ele>571</ele>
        <time>2020-02-23T16:03:34.000Z</time>
      </trkpt>
      <trkpt lat="45.18355" lon="5.66001">
        <ele>570.1</ele>
        <time>2020-02-23T16:03:44.000Z</time>
      </trkpt>
      <trkpt lat="45.18361" lon="5.66004">
        <ele>570</ele>
        <time>2020-02-23T16:03:24.000Z</time>
      </trkpt>
      <trkpt lat="45.1837" lon="5.66011">
        <ele>565.8</ele>
        <time>2020-02-23T16:03:34.000Z</time>
      </trkpt>
      <trkpt lat="45.18377" lon="5.66018">
        <ele>564.2</ele>
        <time>2020-02-23T16:03:44.000Z</time>
      </trkpt>
      <trkpt lat="45.18384" lon="5.66028">
        <ele>563</ele>
        <time>2020-02-23T16:03:34.000Z</time>
      </trkpt>
      <trkpt lat="45.18384" lon="5.6603">
        <ele>563</ele>
        <time>2020-02-23T16:03:44.000Z</time>
      </trkpt>
      <trkpt lat="45.18386" lon="5.66033">
        <ele>562.7</ele>
        <time>2020-02-23T16:03:54.000Z</time>
      </trkpt>
      <trkpt lat="45.18389" lon="5.6604">
        <ele>562.2</ele>
        <time>2020-02-23T16:04:04.000Z</time>
      </trkpt>
      <trkpt lat="45.18391" lon="5.66047">
        <ele>561.8</ele>
        <time>2020-02-23T16:04:14.000Z</time>
      </trkpt>
      <trkpt lat="45.18391" lon="5.66049">
        <ele>561.8</ele>
        <time>2020-02-23T16:04:24.000Z</time>
      </trkpt>
      <trkpt lat="45.18391" lon="5.66054">
        <ele>561</ele>
        <time>2020-02-23T16:03:43.000Z</time>
      </trkpt>
      <trkpt lat="45.18391" lon="5.66058">
        <ele>561.4</ele>
        <time>2020-02-23T16:03:53.000Z</time>
      </trkpt>
      <trkpt lat="45.18389" lon="5.6607">
        <ele>561.1</ele>
        <time>2020-02-23T16:04:03.000Z</time>
      </trkpt>
      <trkpt lat="45.18391" lon="5.6608">
        <ele>560.1</ele>
        <time>2020-02-23T16:04:13.000Z</time>
      </trkpt>
      <trkpt lat="45.18394" lon="5.66087">
        <ele>560</ele>
        <time>2020-02-23T16:03:56.000Z</time>
      </trkpt>
      <trkpt lat="45.18397" lon="5.6609">
        <ele>556.3</ele>
        <time>2020-02-23T16:04:06.000Z</time>
      </trkpt>
      <trkpt lat="45.18406" lon="5.66095">
        <ele>554.6</ele>
        <time>2020-02-23T16:04:16.000Z</time>
      </trkpt>
      <trkpt lat="45.1841" lon="5.66099">
        <ele>554.5</ele>
        <time>2020-02-23T16:04:26.000Z</time>
      </trkpt>
      <trkpt lat="45.18412" lon="5.66099">
        <ele>556</ele>
        <time>2020-02-23T16:04:05.000Z</time>
      </trkpt>
      <trkpt lat="45.18416" lon="5.66099">
        <ele>553.9</ele>
        <time>2020-02-23T16:04:15.000Z</time>
      </trkpt>
      <trkpt lat="45.18419" lon="5.661">
        <ele>540.3</ele>
        <time>2020-02-23T16:04:25.000Z</time>
      </trkpt>
      <trkpt lat="45.18423" lon="5.66099">
        <ele>540.1</ele>
        <time>2020-02-23T16:04:35.000Z</time>
      </trkpt>
      <trkpt lat="45.18433" lon="5.661">
        <ele>556</ele>
        <time>2020-02-23T16:04:16.000Z</time>
      </trkpt>
      <trkpt lat="45.18436" lon="5.66097">
        <ele>537.2</ele>
        <time>2020-02-23T16:04:26.000Z</time>
      </trkpt>
      <trkpt lat="45.18437" lon="5.66095">
        <ele>537.3</ele>
        <time>2020-02-23T16:04:36.000Z</time>
      </trkpt>
      <trkpt lat="45.18436" lon="5.66085">
        <ele>538.8</ele>
        <time>2020-02-23T16:04:46.000Z</time>
      </trkpt>
      <trkpt lat="45.18436" lon="5.66079">
        <ele>542.4</ele>
        <time>2020-02-23T16:04:56.000Z</time>
      </trkpt>
      <trkpt lat="45.18435" lon="5.66075">
        <ele>556</ele>
        <time>2020-02-23T16:04:27.000Z</time>
      </trkpt>
      <trkpt lat="45.18433" lon="5.66072">
        <ele>542.7</ele>
        <time>2020-02-23T16:04:37.000Z</time>
      </trkpt>
      <trkpt lat="45.18433" lon="5.66067">
        <ele>542.2</ele>
        <time>2020-02-23T16:04:47.000Z</time>
      </trkpt>
      <trkpt lat="45.18435" lon="5.66061">
        <ele>541.3</ele>
        <time>2020-02-23T16:04:57.000Z</time>
      </trkpt>
      <trkpt lat="45.18439" lon="5.66056">
        <ele>540.3</ele>
        <time>2020-02-23T16:05:07.000Z</time>
      </trkpt>
      <trkpt lat="45.18452" lon="5.66044">
        <ele>534</ele>
        <time>2020-02-23T16:04:40.000Z</time>
      </trkpt>
      <trkpt lat="45.18457" lon="5.66041">
        <ele>537.5</ele>
        <time>2020-02-23T16:04:50.000Z</time>
      </trkpt>
      <trkpt lat="45.18464" lon="5.66039">
        <ele>536.4</ele>
        <time>2020-02-23T16:05:00.000Z</time>
      </trkpt>
      <trkpt lat="45.18469" lon="5.66037">
        <ele>535.7</ele>
        <time>2020-02-23T16:05:10.000Z</time>
      </trkpt>
      <trkpt lat="45.18477" lon="5.66023">
        <ele>528</ele>
        <time>2020-02-23T16:04:53.000Z</time>
      </trkpt>
      <trkpt lat="45.18492" lon="5.66005">
        <ele>530.2</ele>
        <time>2020-02-23T16:05:03.000Z</time>
      </trkpt>
      <trkpt lat="45.185" lon="5.66012">
        <ele>523</ele>
        <time>2020-02-23T16:05:02.000Z</time>
      </trkpt>
      <trkpt lat="45.18504" lon="5.66018">
        <ele>522</ele>
        <time>2020-02-23T16:05:12.000Z</time>
      </trkpt>
      <trkpt lat="45.18508" lon="5.66027">
        <ele>520.5</ele>
        <time>2020-02-23T16:05:22.000Z</time>
      </trkpt>
      <trkpt lat="45.18518" lon="5.6605">
        <ele>519</ele>
        <time>2020-02-23T16:05:11.000Z</time>
      </trkpt>
      <trkpt lat="45.1853" lon="5.66072">
        <ele>512</ele>
        <time>2020-02-23T16:05:17.000Z</time>
      </trkpt>
      <trkpt lat="45.18534" lon="5.66083">
        <ele>515.9</ele>
        <time>2020-02-23T16:05:27.000Z</time>
      </trkpt>
      <trkpt lat="45.1854" lon="5.66116">
        <ele>512</ele>
        <time>2020-02-23T16:05:31.000Z</time>
      </trkpt>
      <trkpt lat="45.18545" lon="5.66129">
        <ele>508.4</ele>
        <time>2020-02-23T16:05:41.000Z</time>
      </trkpt>
      <trkpt lat="45.18559" lon="5.66142">
        <ele>506</ele>
        <time>2020-02-23T16:05:45.000Z</time>
      </trkpt>
      <trkpt lat="45.18562" lon="5.66148">
        <ele>506.4</ele>
        <time>2020-02-23T16:05:55.000Z</time>
      </trkpt>
      <trkpt lat="45.18566" lon="5.66155">
        <ele>505.6</ele>
        <time>2020-02-23T16:06:05.000Z</time>
      </trkpt>
      <trkpt lat="45.18575" lon="5.66191">
        <ele>502</ele>
        <time>2020-02-23T16:05:58.000Z</time>
      </trkpt>
      <trkpt lat="45.18575" lon="5.66199">
        <ele>499.1</ele>
        <time>2020-02-23T16:06:08.000Z</time>
      </trkpt>
      <trkpt lat="45.18576" lon="5.66203">
        <ele>498.7</ele>
        <time>2020-02-23T16:06:18.000Z</time>
      </trkpt>
      <trkpt lat="45.18577" lon="5.66211">
        <ele>498.1</ele>
        <time>2020-02-23T16:06:28.000Z</time>
      </trkpt>
      <trkpt lat="45.18579" lon="5.66217">
        <ele>500</ele>
        <time>2020-02-23T16:06:05.000Z</time>
      </trkpt>
      <trkpt lat="45.18585" lon="5.66232">
        <ele>496.9</ele>
        <time>2020-02-23T16:06:15.000Z</time>
      </trkpt>
      <trkpt lat="45.1859" lon="5.6624">
        <ele>500</ele>
        <time>2020-02-23T16:06:13.000Z</time>
      </trkpt>
      <trkpt lat="45.18595" lon="5.66248">
        <ele>496.3</ele>
        <time>2020-02-23T16:06:23.000Z</time>
      </trkpt>
      <trkpt lat="45.18597" lon="5.66255">
        <ele>494.2</ele>
        <time>2020-02-23T16:06:33.000Z</time>
      </trkpt>
      <trkpt lat="45.18599" lon="5.66263">
        <ele>493.9</ele>
        <time>2020-02-23T16:06:43.000Z</time>
      </trkpt>
      <trkpt lat="45.186" lon="5.66267">
        <ele>495</ele>
        <time>2020-02-23T16:06:21.000Z</time>
      </trkpt>
      <trkpt lat="45.186" lon="5.66275">
        <ele>493.3</ele>
        <time>2020-02-23T16:06:31.000Z</time>
      </trkpt>
      <trkpt lat="45.18599" lon="5.66279">
        <ele>493.1</ele>
        <time>2020-02-23T16:06:41.000Z</time>
      </trkpt>
      <trkpt lat="45.186" lon="5.66284">
        <ele>492.8</ele>
        <time>2020-02-23T16:06:51.000Z</time>
      </trkpt>
      <trkpt lat="45.18604" lon="5.66296">
        <ele>493</ele>
        <time>2020-02-23T16:06:28.000Z</time>
      </trkpt>
      <trkpt lat="45.1861" lon="5.66317">
        <ele>490.9</ele>
        <time>2020-02-23T16:06:38.000Z</time>
      </trkpt>
      <trkpt lat="45.1861" lon="5.66324">
        <ele>480</ele>
        <time>2020-02-23T16:06:35.000Z</time>
      </trkpt>
      <trkpt lat="45.18609" lon="5.66335">
        <ele>484.9</ele>
        <time>2020-02-23T16:06:45.000Z</time>
      </trkpt>
      <trkpt lat="45.18609" lon="5.66341">
        <ele>484.7</ele>
        <time>2020-02-23T16:06:55.000Z</time>
      </trkpt>
      <trkpt lat="45.18609" lon="5.66344">
        <ele>484.7</ele>
        <time>2020-02-23T16:07:05.000Z</time>
      </trkpt>
      <trkpt lat="45.18612" lon="5.66353">
        <ele>477</ele>
        <time>2020-02-23T16:06:45.000Z</time>
      </trkpt>
      <trkpt lat="45.1861" lon="5.66361">
        <ele>484.1</ele>
        <time>2020-02-23T16:06:55.000Z</time>
      </trkpt>
      <trkpt lat="45.18608" lon="5.66382">
        <ele>476</ele>
        <time>2020-02-23T16:06:53.000Z</time>
      </trkpt>
      <trkpt lat="45.18608" lon="5.66396">
        <ele>481.7</ele>
        <time>2020-02-23T16:07:03.000Z</time>
      </trkpt>
      <trkpt lat="45.18613" lon="5.66409">
        <ele>476</ele>
        <time>2020-02-23T16:07:01.000Z</time>
      </trkpt>
      <trkpt lat="45.18614" lon="5.66412">
        <ele>481.3</ele>
        <time>2020-02-23T16:07:11.000Z</time>
      </trkpt>
      <trkpt lat="45.18618" lon="5.66421">
        <ele>472.6</ele>
        <time>2020-02-23T16:07:21.000Z</time>
      </trkpt>
      <trkpt lat="45.18623" lon="5.66427">
        <ele>472.3</ele>
        <time>2020-02-23T16:07:31.000Z</time>
      </trkpt>
      <trkpt lat="45.18628" lon="5.66435">
        <ele>477</ele>
        <time>2020-02-23T16:07:11.000Z</time>
      </trkpt>
      <trkpt lat="45.1863" lon="5.66437">
        <ele>471.9</ele>
        <time>2020-02-23T16:07:21.000Z</time>
      </trkpt>
      <trkpt lat="45.18634" lon="5.6644">
        <ele>471.8</ele>
        <time>2020-02-23T16:07:31.000Z</time>
      </trkpt>
      <trkpt lat="45.1864" lon="5.66444">
        <ele>471.7</ele>
        <time>2020-02-23T16:07:41.000Z</time>
      </trkpt>
      <trkpt lat="45.18653" lon="5.66446">
        <ele>474</ele>
        <time>2020-02-23T16:07:24.000Z</time>
      </trkpt>
      <trkpt lat="45.18654" lon="5.66448">
        <ele>471.9</ele>
        <time>2020-02-23T16:07:34.000Z</time>
      </trkpt>
      <trkpt lat="45.18661" lon="5.66451">
        <ele>471.6</ele>
        <time>2020-02-23T16:07:44.000Z</time>
      </trkpt>
      <trkpt lat="45.18664" lon="5.66454">
        <ele>471.1</ele>
        <time>2020-02-23T16:07:54.000Z</time>
      </trkpt>
      <trkpt lat="45.18666" lon="5.66456">
        <ele>470.8</ele>
        <time>2020-02-23T16:08:04.000Z</time>
      </trkpt>
      <trkpt lat="45.18668" lon="5.66468">
        <ele>472</ele>
        <time>2020-02-23T16:07:35.000Z</time>
      </trkpt>
      <trkpt lat="45.18673" lon="5.66482">
        <ele>465.2</ele>
        <time>2020-02-23T16:07:45.000Z</time>
      </trkpt>
      <trkpt lat="45.18673" lon="5.66488">
        <ele>464.6</ele>
        <time>2020-02-23T16:07:55.000Z</time>
      </trkpt>
      <trkpt lat="45.18672" lon="5.66491">
        <ele>464.2</ele>
        <time>2020-02-23T16:08:05.000Z</time>
      </trkpt>
      <trkpt lat="45.18661" lon="5.66504">
        <ele>466</ele>
        <time>2020-02-23T16:07:47.000Z</time>
      </trkpt>
      <trkpt lat="45.18657" lon="5.66516">
        <ele>457.3</ele>
        <time>2020-02-23T16:07:57.000Z</time>
      </trkpt>
      <trkpt lat="45.18653" lon="5.66529">
        <ele>464</ele>
        <time>2020-02-23T16:07:55.000Z</time>
      </trkpt>
      <trkpt lat="45.18651" lon="5.66535">
        <ele>454</ele>
        <time>2020-02-23T16:08:05.000Z</time>
      </trkpt>
      <trkpt lat="45.18642" lon="5.66548">
        <ele>452.2</ele>
        <time>2020-02-23T16:08:15.000Z</time>
      </trkpt>
      <trkpt lat="45.18637" lon="5.66551">
        <ele>455</ele>
        <time>2020-02-23T16:08:03.000Z</time>
      </trkpt>
      <trkpt lat="45.18622" lon="5.66556">
        <ele>450.7</ele>
        <time>2020-02-23T16:08:13.000Z</time>
      </trkpt>
      <trkpt lat="45.18613" lon="5.66561">
        <ele>447</ele>
        <time>2020-02-23T16:08:15.000Z</time>
      </trkpt>
      <trkpt lat="45.1859" lon="5.66569">
        <ele>442</ele>
        <time>2020-02-23T16:08:23.000Z</time>
      </trkpt>
      <trkpt lat="45.18584" lon="5.66572">
        <ele>444.5</ele>
        <time>2020-02-23T16:08:33.000Z</time>
      </trkpt>
      <trkpt lat="45.18577" lon="5.66581">
        <ele>440.7</ele>
        <time>2020-02-23T16:08:43.000Z</time>
      </trkpt>
      <trkpt lat="45.18573" lon="5.66588">
        <ele>437</ele>
        <time>2020-02-23T16:08:35.000Z</time>
      </trkpt>
      <trkpt lat="45.18566" lon="5.66593">
        <ele>434.5</ele>
        <time>2020-02-23T16:08:45.000Z</time>
      </trkpt>
      <trkpt lat="45.18564" lon="5.66594">
        <ele>434.1</ele>
        <time>2020-02-23T16:08:55.000Z</time>
      </trkpt>
      <trkpt lat="45.18562" lon="5.66597">
        <ele>433.5</ele>
        <time>2020-02-23T16:09:05.000Z</time>
      </trkpt>
      <trkpt lat="45.18563" lon="5.666">
        <ele>433.4</ele>
        <time>2020-02-23T16:09:15.000Z</time>
      </trkpt>
      <trkpt lat="45.18562" lon="5.66615">
        <ele>427</ele>
        <time>2020-02-23T16:08:50.000Z</time>
      </trkpt>
      <trkpt lat="45.18562" lon="5.66621">
        <ele>431.3</ele>
        <time>2020-02-23T16:09:00.000Z</time>
      </trkpt>
      <trkpt lat="45.18565" lon="5.66627">
        <ele>430.9</ele>
        <time>2020-02-23T16:09:10.000Z</time>
      </trkpt>
      <trkpt lat="45.18565" lon="5.66631">
        <ele>430.5</ele>
        <time>2020-02-23T16:09:20.000Z</time>
      </trkpt>
      <trkpt lat="45.18565" lon="5.66635">
        <ele>430.2</ele>
        <time>2020-02-23T16:09:30.000Z</time>
      </trkpt>
      <trkpt lat="45.18565" lon="5.66645">
        <ele>426</ele>
        <time>2020-02-23T16:09:03.000Z</time>
      </trkpt>
      <trkpt lat="45.18566" lon="5.66648">
        <ele>429.4</ele>
        <time>2020-02-23T16:09:13.000Z</time>
      </trkpt>
      <trkpt lat="45.18568" lon="5.66654">
        <ele>429.1</ele>
        <time>2020-02-23T16:09:23.000Z</time>
      </trkpt>
      <trkpt lat="45.18572" lon="5.66661">
        <ele>428.8</ele>
        <time>2020-02-23T16:09:33.000Z</time>
      </trkpt>
      <trkpt lat="45.18574" lon="5.66668">
        <ele>426</ele>
        <time>2020-02-23T16:09:12.000Z</time>
      </trkpt>
      <trkpt lat="45.18573" lon="5.6668">
        <ele>423.3</ele>
        <time>2020-02-23T16:09:22.000Z</time>
      </trkpt>
      <trkpt lat="45.18573" lon="5.66683">
        <ele>422.8</ele>
        <time>2020-02-23T16:09:32.000Z</time>
      </trkpt>
      <trkpt lat="45.18572" lon="5.66691">
        <ele>421.4</ele>
        <time>2020-02-23T16:09:42.000Z</time>
      </trkpt>
      <trkpt lat="45.1857" lon="5.66701">
        <ele>422</ele>
        <time>2020-02-23T16:09:23.000Z</time>
      </trkpt>
      <trkpt lat="45.18563" lon="5.66725">
        <ele>416.8</ele>
        <time>2020-02-23T16:09:33.000Z</time>
      </trkpt>
      <trkpt lat="45.1856" lon="5.66738">
        <ele>416</ele>
        <time>2020-02-23T16:09:34.000Z</time>
      </trkpt>
      <trkpt lat="45.18561" lon="5.66747">
        <ele>414.9</ele>
        <time>2020-02-23T16:09:44.000Z</time>
      </trkpt>
      <trkpt lat="45.18561" lon="5.66757">
        <ele>408.4</ele>
        <time>2020-02-23T16:09:54.000Z</time>
      </trkpt>
      <trkpt lat="45.18563" lon="5.66769">
        <ele>411</ele>
        <time>2020-02-23T16:09:44.000Z</time>
      </trkpt>
      <trkpt lat="45.18564" lon="5.66783">
        <ele>407.1</ele>
        <time>2020-02-23T16:09:54.000Z</time>
      </trkpt>
      <trkpt lat="45.18564" lon="5.66786">
        <ele>406.9</ele>
        <time>2020-02-23T16:10:04.000Z</time>
      </trkpt>
      <trkpt lat="45.18561" lon="5.66793">
        <ele>406.4</ele>
        <time>2020-02-23T16:10:14.000Z</time>
      </trkpt>
      <trkpt lat="45.18553" lon="5.66804">
        <ele>395</ele>
        <time>2020-02-23T16:09:55.000Z</time>
      </trkpt>
      <trkpt lat="45.18553" lon="5.66807">
        <ele>405.7</ele>
        <time>2020-02-23T16:10:05.000Z</time>
      </trkpt>
      <trkpt lat="45.18554" lon="5.66812">
        <ele>405.3</ele>
        <time>2020-02-23T16:10:15.000Z</time>
      </trkpt>
      <trkpt lat="45.18556" lon="5.66815">
        <ele>405</ele>
        <time>2020-02-23T16:10:25.000Z</time>
      </trkpt>
      <trkpt lat="45.1856" lon="5.66819">
        <ele>404.4</ele>
        <time>2020-02-23T16:10:35.000Z</time>
      </trkpt>
      <trkpt lat="45.18569" lon="5.66827">
        <ele>396</ele>
        <time>2020-02-23T16:10:08.000Z</time>
      </trkpt>
      <trkpt lat="45.18571" lon="5.66829">
        <ele>402.2</ele>
        <time>2020-02-23T16:10:18.000Z</time>
      </trkpt>
      <trkpt lat="45.18574" lon="5.66835">
        <ele>399.7</ele>
        <time>2020-02-23T16:10:28.000Z</time>
      </trkpt>
      <trkpt lat="45.18576" lon="5.66845">
        <ele>400</ele>
        <time>2020-02-23T16:10:38.000Z</time>
      </trkpt>
      <trkpt lat="45.18579" lon="5.66858">
        <ele>395</ele>
        <time>2020-02-23T16:10:18.000Z</time>
      </trkpt>
      <trkpt lat="45.1859" lon="5.66881">
        <ele>395</ele>
        <time>2020-02-23T16:10:27.000Z</time>
      </trkpt>
      <trkpt lat="45.18592" lon="5.66891">
        <ele>401.9</ele>
        <time>2020-02-23T16:10:37.000Z</time>
      </trkpt>
      <trkpt lat="45.18593" lon="5.669">
        <ele>402</ele>
        <time>2020-02-23T16:10:47.000Z</time>
      </trkpt>
      <trkpt lat="45.18598" lon="5.66911">
        <ele>394</ele>
        <time>2020-02-23T16:10:37.000Z</time>
      </trkpt>
      <trkpt lat="45.18604" lon="5.66923">
        <ele>405.1</ele>
        <time>2020-02-23T16:10:47.000Z</time>
      </trkpt>
      <trkpt lat="45.18606" lon="5.66925">
        <ele>405.3</ele>
        <time>2020-02-23T16:10:57.000Z</time>
      </trkpt>
      <trkpt lat="45.18613" lon="5.66931">
        <ele>394</ele>
        <time>2020-02-23T16:10:46.000Z</time>
      </trkpt>
      <trkpt lat="45.1862" lon="5.66934">
        <ele>406.3</ele>
        <time>2020-02-23T16:10:56.000Z</time>
      </trkpt>
      <trkpt lat="45.1863" lon="5.66935">
        <ele>406.5</ele>
        <time>2020-02-23T16:11:06.000Z</time>
      </trkpt>
      <trkpt lat="45.18649" lon="5.66935">
        <ele>394</ele>
        <time>2020-02-23T16:11:04.000Z</time>
      </trkpt>
      <trkpt lat="45.18651" lon="5.66936">
        <ele>406.7</ele>
        <time>2020-02-23T16:11:14.000Z</time>
      </trkpt>
      <trkpt lat="45.18654" lon="5.66937">
        <ele>406.7</ele>
        <time>2020-02-23T16:11:24.000Z</time>
      </trkpt>
      <trkpt lat="45.18657" lon="5.66942">
        <ele>406.8</ele>
        <time>2020-02-23T16:11:34.000Z</time>
      </trkpt>
      <trkpt lat="45.18657" lon="5.66945">
        <ele>406.9</ele>
        <time>2020-02-23T16:11:44.000Z</time>
      </trkpt>
      <trkpt lat="45.18658" lon="5.66949">
        <ele>407</ele>
        <time>2020-02-23T16:11:54.000Z</time>
      </trkpt>
      <trkpt lat="45.18661" lon="5.66959">
        <ele>395</ele>
        <time>2020-02-23T16:11:16.000Z</time>
      </trkpt>
      <trkpt lat="45.18668" lon="5.6698">
        <ele>407.9</ele>
        <time>2020-02-23T16:11:26.000Z</time>
      </trkpt>
      <trkpt lat="45.18669" lon="5.66983">
        <ele>408</ele>
        <time>2020-02-23T16:11:36.000Z</time>
      </trkpt>
      <trkpt lat="45.18673" lon="5.66988">
        <ele>397</ele>
        <time>2020-02-23T16:11:32.000Z</time>
      </trkpt>
      <trkpt lat="45.18677" lon="5.66992">
        <ele>408.3</ele>
        <time>2020-02-23T16:11:42.000Z</time>
      </trkpt>
      <trkpt lat="45.18683" lon="5.66997">
        <ele>408.2</ele>
        <time>2020-02-23T16:11:52.000Z</time>
      </trkpt>
      <trkpt lat="45.18685" lon="5.66998">
        <ele>408.1</ele>
        <time>2020-02-23T16:12:02.000Z</time>
      </trkpt>
      <trkpt lat="45.18687" lon="5.66998">
        <ele>408.1</ele>
        <time>2020-02-23T16:12:12.000Z</time>
      </trkpt>
      <trkpt lat="45.18689" lon="5.67">
        <ele>408.1</ele>
        <time>2020-02-23T16:12:22.000Z</time>
      </trkpt>
      <trkpt lat="45.1869" lon="5.67004">
        <ele>402</ele>
        <time>2020-02-23T16:11:50.000Z</time>
      </trkpt>
      <trkpt lat="45.1869" lon="5.67008">
        <ele>409.2</ele>
        <time>2020-02-23T16:12:00.000Z</time>
      </trkpt>
      <trkpt lat="45.18692" lon="5.67022">
        <ele>409.2</ele>
        <time>2020-02-23T16:12:10.000Z</time>
      </trkpt>
      <trkpt lat="45.18695" lon="5.67035">
        <ele>402</ele>
        <time>2020-02-23T16:12:03.000Z</time>
      </trkpt>
      <trkpt lat="45.18696" lon="5.67047">
        <ele>409.2</ele>
        <time>2020-02-23T16:12:13.000Z</time>
      </trkpt>
      <trkpt lat="45.18698" lon="5.67056">
        <ele>409.2</ele>
        <time>2020-02-23T16:12:23.000Z</time>
      </trkpt>
      <trkpt lat="45.18699" lon="5.67065">
        <ele>402</ele>
        <time>2020-02-23T16:12:17.000Z</time>
      </trkpt>
      <trkpt lat="45.18699" lon="5.6708">
        <ele>409.1</ele>
        <time>2020-02-23T16:12:27.000Z</time>
      </trkpt>
      <trkpt lat="45.187" lon="5.6709">
        <ele>405.6</ele>
        <time>2020-02-23T16:12:37.000Z</time>
      </trkpt>
      <trkpt lat="45.18697" lon="5.6712">
        <ele>396</ele>
        <time>2020-02-23T16:12:36.000Z</time>
      </trkpt>
      <trkpt lat="45.18695" lon="5.67148">
        <ele>393</ele>
        <time>2020-02-23T16:12:44.000Z</time>
      </trkpt>
      <trkpt lat="45.18699" lon="5.67167">
        <ele>393.1</ele>
        <time>2020-02-23T16:12:54.000Z</time>
      </trkpt>
      <trkpt lat="45.18701" lon="5.67173">
        <ele>392.8</ele>
        <time>2020-02-23T16:13:04.000Z</time>
      </trkpt>
      <trkpt lat="45.18704" lon="5.67177">
        <ele>390</ele>
        <time>2020-02-23T16:12:53.000Z</time>
      </trkpt>
      <trkpt lat="45.18706" lon="5.67179">
        <ele>392.4</ele>
        <time>2020-02-23T16:13:03.000Z</time>
      </trkpt>
      <trkpt lat="45.18724" lon="5.67179">
        <ele>390</ele>
        <time>2020-02-23T16:13:01.000Z</time>
      </trkpt>
      <trkpt lat="45.18731" lon="5.67181">
        <ele>393.7</ele>
        <time>2020-02-23T16:13:11.000Z</time>
      </trkpt>
      <trkpt lat="45.18754" lon="5.67193">
        <ele>388</ele>
        <time>2020-02-23T16:13:13.000Z</time>
      </trkpt>
      <trkpt lat="45.18771" lon="5.67203">
        <ele>392</ele>
        <time>2020-02-23T16:13:23.000Z</time>
      </trkpt>
      <trkpt lat="45.18778" lon="5.67208">
        <ele>387</ele>
        <time>2020-02-23T16:13:22.000Z</time>
      </trkpt>
      <trkpt lat="45.18785" lon="5.67211">
        <ele>391.2</ele>
        <time>2020-02-23T16:13:32.000Z</time>
      </trkpt>
      <trkpt lat="45.18797" lon="5.67219">
        <ele>386</ele>
        <time>2020-02-23T16:13:31.000Z</time>
      </trkpt>
      <trkpt lat="45.18811" lon="5.67222">
        <ele>390.5</ele>
        <time>2020-02-23T16:13:41.000Z</time>
      </trkpt>
      <trkpt lat="45.18821" lon="5.67227">
        <ele>386</ele>
        <time>2020-02-23T16:13:41.000Z</time>
      </trkpt>
      <trkpt lat="45.18823" lon="5.67229">
        <ele>389.4</ele>
        <time>2020-02-23T16:13:51.000Z</time>
      </trkpt>
      <trkpt lat="45.18825" lon="5.67233">
        <ele>388.8</ele>
        <time>2020-02-23T16:14:01.000Z</time>
      </trkpt>
      <trkpt lat="45.18827" lon="5.6724">
        <ele>387.6</ele>
        <time>2020-02-23T16:14:11.000Z</time>
      </trkpt>
      <trkpt lat="45.18827" lon="5.67244">
        <ele>386.9</ele>
        <time>2020-02-23T16:14:21.000Z</time>
      </trkpt>
      <trkpt lat="45.18827" lon="5.67252">
        <ele>381</ele>
        <time>2020-02-23T16:13:48.000Z</time>
      </trkpt>
      <trkpt lat="45.18823" lon="5.67264">
        <ele>380.1</ele>
        <time>2020-02-23T16:13:58.000Z</time>
      </trkpt>
      <trkpt lat="45.18816" lon="5.67278">
        <ele>378</ele>
        <time>2020-02-23T16:13:58.000Z</time>
      </trkpt>
      <trkpt lat="45.18803" lon="5.67299">
        <ele>378</ele>
        <time>2020-02-23T16:14:06.000Z</time>
      </trkpt>
      <trkpt lat="45.18793" lon="5.67321">
        <ele>373.5</ele>
        <time>2020-02-23T16:14:16.000Z</time>
      </trkpt>
      <trkpt lat="45.18789" lon="5.67331">
        <ele>370</ele>
        <time>2020-02-23T16:14:16.000Z</time>
      </trkpt>
      <trkpt lat="45.18787" lon="5.67337">
        <ele>366.3</ele>
        <time>2020-02-23T16:14:26.000Z</time>
      </trkpt>
      <trkpt lat="45.18787" lon="5.67348">
        <ele>366</ele>
        <time>2020-02-23T16:14:36.000Z</time>
      </trkpt>
      <trkpt lat="45.18786" lon="5.67362">
        <ele>366</ele>
        <time>2020-02-23T16:14:25.000Z</time>
      </trkpt>
      <trkpt lat="45.1878" lon="5.67379">
        <ele>364.7</ele>
        <time>2020-02-23T16:14:35.000Z</time>
      </trkpt>
      <trkpt lat="45.18758" lon="5.67412">
        <ele>359</ele>
        <time>2020-02-23T16:14:41.000Z</time>
      </trkpt>
      <trkpt lat="45.18756" lon="5.67415">
        <ele>362.6</ele>
        <time>2020-02-23T16:14:51.000Z</time>
      </trkpt>
      <trkpt lat="45.1875" lon="5.6743">
        <ele>360.6</ele>
        <time>2020-02-23T16:15:01.000Z</time>
      </trkpt>
      <trkpt lat="45.18746" lon="5.67439">
        <ele>359</ele>
        <time>2020-02-23T16:14:50.000Z</time>
      </trkpt>
      <trkpt lat="45.18738" lon="5.67457">
        <ele>358.1</ele>
        <time>2020-02-23T16:15:00.000Z</time>
      </trkpt>
      <trkpt lat="45.18738" lon="5.67464">
        <ele>351</ele>
        <time>2020-02-23T16:14:58.000Z</time>
      </trkpt>
      <trkpt lat="45.18738" lon="5.67467">
        <ele>356.9</ele>
        <time>2020-02-23T16:15:08.000Z</time>
      </trkpt>
      <trkpt lat="45.18739" lon="5.6747">
        <ele>356.4</ele>
        <time>2020-02-23T16:15:18.000Z</time>
      </trkpt>
      <trkpt lat="45.18742" lon="5.67473">
        <ele>355.8</ele>
        <time>2020-02-23T16:15:28.000Z</time>
      </trkpt>
      <trkpt lat="45.18748" lon="5.67478">
        <ele>354.7</ele>
        <time>2020-02-23T16:15:38.000Z</time>
      </trkpt>
      <trkpt lat="45.18752" lon="5.67482">
        <ele>348</ele>
        <time>2020-02-23T16:15:08.000Z</time>
      </trkpt>
      <trkpt lat="45.18756" lon="5.67487">
        <ele>350.6</ele>
        <time>2020-02-23T16:15:18.000Z</time>
      </trkpt>
      <trkpt lat="45.18758" lon="5.67494">
        <ele>349.9</ele>
        <time>2020-02-23T16:15:28.000Z</time>
      </trkpt>
      <trkpt lat="45.18764" lon="5.67511">
        <ele>347</ele>
        <time>2020-02-23T16:15:17.000Z</time>
      </trkpt>
      <trkpt lat="45.18768" lon="5.67527">
        <ele>344.9</ele>
        <time>2020-02-23T16:15:27.000Z</time>
      </trkpt>
      <trkpt lat="45.1877" lon="5.67534">
        <ele>344.6</ele>
        <time>2020-02-23T16:15:37.000Z</time>
      </trkpt>
      <trkpt lat="45.18772" lon="5.67544">
        <ele>342</ele>
        <time>2020-02-23T16:15:27.000Z</time>
      </trkpt>
      <trkpt lat="45.18774" lon="5.67559">
        <ele>343.9</ele>
        <time>2020-02-23T16:15:37.000Z</time>
      </trkpt>
      <trkpt lat="45.18773" lon="5.67563">
        <ele>343.9</ele>
        <time>2020-02-23T16:15:47.000Z</time>
      </trkpt>
      <trkpt lat="45.18772" lon="5.6757">
        <ele>343</ele>
        <time>2020-02-23T16:15:34.000Z</time>
      </trkpt>
      <trkpt lat="45.18768" lon="5.67581">
        <ele>344.3</ele>
        <time>2020-02-23T16:15:44.000Z</time>
      </trkpt>
      <trkpt lat="45.18758" lon="5.67599">
        <ele>340</ele>
        <time>2020-02-23T16:15:43.000Z</time>
      </trkpt>
      <trkpt lat="45.1875" lon="5.67615">
        <ele>345.7</ele>
        <time>2020-02-23T16:15:53.000Z</time>
      </trkpt>
      <trkpt lat="45.18749" lon="5.67622">
        <ele>345.5</ele>
        <time>2020-02-23T16:16:03.000Z</time>
      </trkpt>
      <trkpt lat="45.18747" lon="5.67633">
        <ele>338</ele>
        <time>2020-02-23T16:15:53.000Z</time>
      </trkpt>
      <trkpt lat="45.18743" lon="5.67665">
        <ele>336</ele>
        <time>2020-02-23T16:16:01.000Z</time>
      </trkpt>
      <trkpt lat="45.18741" lon="5.67677">
        <ele>339.7</ele>
        <time>2020-02-23T16:16:11.000Z</time>
      </trkpt>
      <trkpt lat="45.18738" lon="5.67683">
        <ele>339.2</ele>
        <time>2020-02-23T16:16:21.000Z</time>
      </trkpt>
      <trkpt lat="45.18734" lon="5.67688">
        <ele>338.9</ele>
        <time>2020-02-23T16:16:31.000Z</time>
      </trkpt>
      <trkpt lat="45.18727" lon="5.67693">
        <ele>336</ele>
        <time>2020-02-23T16:16:11.000Z</time>
      </trkpt>
      <trkpt lat="45.18714" lon="5.677">
        <ele>338.6</ele>
        <time>2020-02-23T16:16:21.000Z</time>
      </trkpt>
      <trkpt lat="45.18701" lon="5.67708">
        <ele>335</ele>
        <time>2020-02-23T16:16:22.000Z</time>
      </trkpt>
      <trkpt lat="45.18677" lon="5.67731">
        <ele>334</ele>
        <time>2020-02-23T16:16:34.000Z</time>
      </trkpt>
      <trkpt lat="45.18668" lon="5.6774">
        <ele>338.1</ele>
        <time>2020-02-23T16:16:44.000Z</time>
      </trkpt>
      <trkpt lat="45.18664" lon="5.67745">
        <ele>339.6</ele>
        <time>2020-02-23T16:16:54.000Z</time>
      </trkpt>
      <trkpt lat="45.18655" lon="5.67762">
        <ele>330</ele>
        <time>2020-02-23T16:16:45.000Z</time>
      </trkpt>
      <trkpt lat="45.18641" lon="5.67788">
        <ele>329</ele>
        <time>2020-02-23T16:16:53.000Z</time>
      </trkpt>
      <trkpt lat="45.18628" lon="5.67803">
        <ele>333.3</ele>
        <time>2020-02-23T16:17:03.000Z</time>
      </trkpt>
      <trkpt lat="45.1862" lon="5.67815">
        <ele>329</ele>
        <time>2020-02-23T16:17:03.000Z</time>
      </trkpt>
      <trkpt lat="45.18612" lon="5.6783">
        <ele>332.6</ele>
        <time>2020-02-23T16:17:13.000Z</time>
      </trkpt>
      <trkpt lat="45.186" lon="5.67849">
        <ele>326</ele>
        <time>2020-02-23T16:17:14.000Z</time>
      </trkpt>
      <trkpt lat="45.18596" lon="5.67855">
        <ele>326.1</ele>
        <time>2020-02-23T16:17:24.000Z</time>
      </trkpt>
      <trkpt lat="45.18589" lon="5.67867">
        <ele>325</ele>
        <time>2020-02-23T16:17:34.000Z</time>
      </trkpt>
      <trkpt lat="45.18577" lon="5.67893">
        <ele>324</ele>
        <time>2020-02-23T16:17:28.000Z</time>
      </trkpt>
      <trkpt lat="45.18577" lon="5.67896">
        <ele>328.7</ele>
        <time>2020-02-23T16:17:38.000Z</time>
      </trkpt>
      <trkpt lat="45.18573" lon="5.67906">
        <ele>327.3</ele>
        <time>2020-02-23T16:17:48.000Z</time>
      </trkpt>
      <trkpt lat="45.18571" lon="5.6792">
        <ele>323</ele>
        <time>2020-02-23T16:17:36.000Z</time>
      </trkpt>
      <trkpt lat="45.18572" lon="5.67938">
        <ele>325</ele>
        <time>2020-02-23T16:17:46.000Z</time>
      </trkpt>
      <trkpt lat="45.18572" lon="5.67946">
        <ele>325.1</ele>
        <time>2020-02-23T16:17:56.000Z</time>
      </trkpt>
      <trkpt lat="45.18568" lon="5.67964">
        <ele>321</ele>
        <time>2020-02-23T16:17:48.000Z</time>
      </trkpt>
      <trkpt lat="45.18567" lon="5.67976">
        <ele>324.2</ele>
        <time>2020-02-23T16:17:58.000Z</time>
      </trkpt>
      <trkpt lat="45.18566" lon="5.6798">
        <ele>324</ele>
        <time>2020-02-23T16:18:08.000Z</time>
      </trkpt>
      <trkpt lat="45.18566" lon="5.6799">
        <ele>323.2</ele>
        <time>2020-02-23T16:18:18.000Z</time>
      </trkpt>
      <trkpt lat="45.18569" lon="5.68001">
        <ele>318</ele>
        <time>2020-02-23T16:17:58.000Z</time>
      </trkpt>
      <trkpt lat="45.18574" lon="5.68016">
        <ele>319.1</ele>
        <time>2020-02-23T16:18:08.000Z</time>
      </trkpt>
      <trkpt lat="45.18576" lon="5.68028">
        <ele>308</ele>
        <time>2020-02-23T16:18:05.000Z</time>
      </trkpt>
      <trkpt lat="45.18577" lon="5.68037">
        <ele>318.2</ele>
        <time>2020-02-23T16:18:15.000Z</time>
      </trkpt>
      <trkpt lat="45.18577" lon="5.68045">
        <ele>317.5</ele>
        <time>2020-02-23T16:18:25.000Z</time>
      </trkpt>
      <trkpt lat="45.18576" lon="5.68058">
        <ele>308</ele>
        <time>2020-02-23T16:18:12.000Z</time>
      </trkpt>
      <trkpt lat="45.18572" lon="5.68069">
        <ele>314.2</ele>
        <time>2020-02-23T16:18:22.000Z</time>
      </trkpt>
      <trkpt lat="45.18569" lon="5.6808">
        <ele>313.2</ele>
        <time>2020-02-23T16:18:32.000Z</time>
      </trkpt>
      <trkpt lat="45.18565" lon="5.68093">
        <ele>309</ele>
        <time>2020-02-23T16:18:22.000Z</time>
      </trkpt>
      <trkpt lat="45.18564" lon="5.68097">
        <ele>310.4</ele>
        <time>2020-02-23T16:18:32.000Z</time>
      </trkpt>
      <trkpt lat="45.18553" lon="5.68109">
        <ele>311.6</ele>
        <time>2020-02-23T16:18:42.000Z</time>
      </trkpt>
      <trkpt lat="45.18545" lon="5.68129">
        <ele>307</ele>
        <time>2020-02-23T16:19:03.000Z</time>
      </trkpt>
      <trkpt lat="45.18544" lon="5.68139">
        <ele>311.2</ele>
        <time>2020-02-23T16:19:13.000Z</time>
      </trkpt>
      <trkpt lat="45.18544" lon="5.68147">
        <ele>310.9</ele>
        <time>2020-02-23T16:19:23.000Z</time>
      </trkpt>
      <trkpt lat="45.18543" lon="5.68154">
        <ele>310.7</ele>
        <time>2020-02-23T16:19:33.000Z</time>
      </trkpt>
      <trkpt lat="45.18536" lon="5.68179">
        <ele>306</ele>
        <time>2020-02-23T16:19:17.000Z</time>
      </trkpt>
      <trkpt lat="45.18532" lon="5.68189">
        <ele>304.7</ele>
        <time>2020-02-23T16:19:27.000Z</time>
      </trkpt>
      <trkpt lat="45.18528" lon="5.68209">
        <ele>302</ele>
        <time>2020-02-23T16:19:25.000Z</time>
      </trkpt>
      <trkpt lat="45.18527" lon="5.6822">
        <ele>303.8</ele>
        <time>2020-02-23T16:19:35.000Z</time>
      </trkpt>
      <trkpt lat="45.18528" lon="5.68239">
        <ele>302</ele>
        <time>2020-02-23T16:19:33.000Z</time>
      </trkpt>
      <trkpt lat="45.18525" lon="5.68248">
        <ele>304.9</ele>
        <time>2020-02-23T16:19:43.000Z</time>
      </trkpt>
      <trkpt lat="45.18514" lon="5.68272">
        <ele>300</ele>
        <time>2020-02-23T16:19:45.000Z</time>
      </trkpt>
      <trkpt lat="45.18507" lon="5.6829">
        <ele>294.2</ele>
        <time>2020-02-23T16:19:55.000Z</time>
      </trkpt>
      <trkpt lat="45.18506" lon="5.68293">
        <ele>294.1</ele>
        <time>2020-02-23T16:20:05.000Z</time>
      </trkpt>
      <trkpt lat="45.18497" lon="5.6831">
        <ele>302</ele>
        <time>2020-02-23T16:19:56.000Z</time>
      </trkpt>
      <trkpt lat="45.18489" lon="5.68319">
        <ele>315.2</ele>
        <time>2020-02-23T16:20:06.000Z</time>
      </trkpt>
      <trkpt lat="45.18481" lon="5.6833">
        <ele>305</ele>
        <time>2020-02-23T16:20:04.000Z</time>
      </trkpt>
      <trkpt lat="45.1847" lon="5.68349">
        <ele>307.2</ele>
        <time>2020-02-23T16:20:14.000Z</time>
      </trkpt>
      <trkpt lat="45.18466" lon="5.68362">
        <ele>303</ele>
        <time>2020-02-23T16:20:14.000Z</time>
      </trkpt>
      <trkpt lat="45.18462" lon="5.68369">
        <ele>305.6</ele>
        <time>2020-02-23T16:20:24.000Z</time>
      </trkpt>
      <trkpt lat="45.18459" lon="5.6838">
        <ele>304.4</ele>
        <time>2020-02-23T16:20:34.000Z</time>
      </trkpt>
      <trkpt lat="45.18459" lon="5.68382">
        <ele>304.1</ele>
        <time>2020-02-23T16:20:44.000Z</time>
      </trkpt>
      <trkpt lat="45.1846" lon="5.68385">
        <ele>303.5</ele>
        <time>2020-02-23T16:20:54.000Z</time>
      </trkpt>
      <trkpt lat="45.18466" lon="5.68392">
        <ele>303</ele>
        <time>2020-02-23T16:20:24.000Z</time>
      </trkpt>
      <trkpt lat="45.1847" lon="5.68397">
        <ele>299.8</ele>
        <time>2020-02-23T16:20:34.000Z</time>
      </trkpt>
      <trkpt lat="45.18473" lon="5.68408">
        <ele>297.2</ele>
        <time>2020-02-23T16:20:44.000Z</time>
      </trkpt>
      <trkpt lat="45.18475" lon="5.68417">
        <ele>300</ele>
        <time>2020-02-23T16:20:34.000Z</time>
      </trkpt>
      <trkpt lat="45.18475" lon="5.6842">
        <ele>285.1</ele>
        <time>2020-02-23T16:20:44.000Z</time>
      </trkpt>
      <trkpt lat="45.18474" lon="5.6843">
        <ele>285.1</ele>
        <time>2020-02-23T16:20:54.000Z</time>
      </trkpt>
      <trkpt lat="45.18475" lon="5.68433">
        <ele>284.9</ele>
        <time>2020-02-23T16:21:04.000Z</time>
      </trkpt>
      <trkpt lat="45.18474" lon="5.68439">
        <ele>284.8</ele>
        <time>2020-02-23T16:21:14.000Z</time>
      </trkpt>
      <trkpt lat="45.18472" lon="5.68446">
        <ele>298</ele>
        <time>2020-02-23T16:20:44.000Z</time>
      </trkpt>
      <trkpt lat="45.18471" lon="5.68456">
        <ele>284.1</ele>
        <time>2020-02-23T16:20:54.000Z</time>
      </trkpt>
      <trkpt lat="45.1847" lon="5.68458">
        <ele>284.1</ele>
        <time>2020-02-23T16:21:04.000Z</time>
      </trkpt>
      <trkpt lat="45.18466" lon="5.68467">
        <ele>284</ele>
        <time>2020-02-23T16:21:14.000Z</time>
      </trkpt>
      <trkpt lat="45.18463" lon="5.68477">
        <ele>295</ele>
        <time>2020-02-23T16:20:58.000Z</time>
      </trkpt>
      <trkpt lat="45.18459" lon="5.68487">
        <ele>284</ele>
        <time>2020-02-23T16:21:08.000Z</time>
      </trkpt>
      <trkpt lat="45.18457" lon="5.68497">
        <ele>284.2</ele>
        <time>2020-02-23T16:21:18.000Z</time>
      </trkpt>
      <trkpt lat="45.18457" lon="5.68503">
        <ele>293</ele>
        <time>2020-02-23T16:21:06.000Z</time>
      </trkpt>
      <trkpt lat="45.18457" lon="5.68509">
        <ele>275.6</ele>
        <time>2020-02-23T16:21:16.000Z</time>
      </trkpt>
      <trkpt lat="45.18456" lon="5.68514">
        <ele>275.7</ele>
        <time>2020-02-23T16:21:26.000Z</time>
      </trkpt>
      <trkpt lat="45.18454" lon="5.6852">
        <ele>275.8</ele>
        <time>2020-02-23T16:21:36.000Z</time>
      </trkpt>
      <trkpt lat="45.18451" lon="5.68532">
        <ele>290</ele>
        <time>2020-02-23T16:21:16.000Z</time>
      </trkpt>
      <trkpt lat="45.18444" lon="5.68553">
        <ele>275.9</ele>
        <time>2020-02-23T16:21:26.000Z</time>
      </trkpt>
      <trkpt lat="45.1844" lon="5.6856">
        <ele>287</ele>
        <time>2020-02-23T16:21:26.000Z</time>
      </trkpt>
      <trkpt lat="45.18441" lon="5.68575">
        <ele>277.1</ele>
        <time>2020-02-23T16:21:36.000Z</time>
      </trkpt>
      <trkpt lat="45.18443" lon="5.68586">
        <ele>266.4</ele>
        <time>2020-02-23T16:21:46.000Z</time>
      </trkpt>
      <trkpt lat="45.18441" lon="5.68594">
        <ele>283</ele>
        <time>2020-02-23T16:21:38.000Z</time>
      </trkpt>
      <trkpt lat="45.18441" lon="5.68598">
        <ele>265.4</ele>
        <time>2020-02-23T16:21:48.000Z</time>
      </trkpt>
      <trkpt lat="45.18441" lon="5.68601">
        <ele>264.6</ele>
        <time>2020-02-23T16:21:58.000Z</time>
      </trkpt>
      <trkpt lat="45.18441" lon="5.68608">
        <ele>262.9</ele>
        <time>2020-02-23T16:22:08.000Z</time>
      </trkpt>
      <trkpt lat="45.18442" lon="5.6862">
        <ele>260</ele>
        <time>2020-02-23T16:22:18.000Z</time>
      </trkpt>
      <trkpt lat="45.18442" lon="5.68625">
        <ele>277</ele>
        <time>2020-02-23T16:21:48.000Z</time>
      </trkpt>
      <trkpt lat="45.18441" lon="5.68628">
        <ele>258.8</ele>
        <time>2020-02-23T16:21:58.000Z</time>
      </trkpt>
      <trkpt lat="45.18436" lon="5.68635">
        <ele>258.7</ele>
        <time>2020-02-23T16:22:08.000Z</time>
      </trkpt>
      <trkpt lat="45.18429" lon="5.68647">
        <ele>271</ele>
        <time>2020-02-23T16:21:57.000Z</time>
      </trkpt>
      <trkpt lat="45.18425" lon="5.68652">
        <ele>259.3</ele>
        <time>2020-02-23T16:22:07.000Z</time>
      </trkpt>
      <trkpt lat="45.18422" lon="5.6866">
        <ele>260.2</ele>
        <time>2020-02-23T16:22:17.000Z</time>
      </trkpt>
      <trkpt lat="45.18416" lon="5.6867">
        <ele>269</ele>
        <time>2020-02-23T16:22:14.000Z</time>
      </trkpt>
      <trkpt lat="45.18413" lon="5.68677">
        <ele>255.2</ele>
        <time>2020-02-23T16:22:24.000Z</time>
      </trkpt>
      <trkpt lat="45.1841" lon="5.68681">
        <ele>252.9</ele>
        <time>2020-02-23T16:22:34.000Z</time>
      </trkpt>
      <trkpt lat="45.18407" lon="5.68683">
        <ele>251.7</ele>
        <time>2020-02-23T16:22:44.000Z</time>
      </trkpt>
      <trkpt lat="45.18403" lon="5.68684">
        <ele>250.7</ele>
        <time>2020-02-23T16:22:54.000Z</time>
      </trkpt>
      <trkpt lat="45.18396" lon="5.68682">
        <ele>267</ele>
        <time>2020-02-23T16:22:32.000Z</time>
      </trkpt>
      <trkpt lat="45.18394" lon="5.68684">
        <ele>249.1</ele>
        <time>2020-02-23T16:22:42.000Z</time>
      </trkpt>
      <trkpt lat="45.18391" lon="5.68684">
        <ele>248.6</ele>
        <time>2020-02-23T16:22:52.000Z</time>
      </trkpt>
      <trkpt lat="45.18387" lon="5.68683">
        <ele>248.2</ele>
        <time>2020-02-23T16:23:02.000Z</time>
      </trkpt>
      <trkpt lat="45.18383" lon="5.68678">
        <ele>248.4</ele>
        <time>2020-02-23T16:23:12.000Z</time>
      </trkpt>
      <trkpt lat="45.18381" lon="5.68671">
        <ele>267</ele>
        <time>2020-02-23T16:22:46.000Z</time>
      </trkpt>
      <trkpt lat="45.18378" lon="5.68666">
        <ele>267.2</ele>
        <time>2020-02-23T16:22:56.000Z</time>
      </trkpt>
      <trkpt lat="45.18369" lon="5.68662">
        <ele>266.7</ele>
        <time>2020-02-23T16:23:06.000Z</time>
      </trkpt>
      <trkpt lat="45.18367" lon="5.6866">
        <ele>266.6</ele>
        <time>2020-02-23T16:23:16.000Z</time>
      </trkpt>
      <trkpt lat="45.18365" lon="5.68657">
        <ele>273</ele>
        <time>2020-02-23T16:23:01.000Z</time>
      </trkpt>
      <trkpt lat="45.18362" lon="5.6865">
        <ele>267.3</ele>
        <time>2020-02-23T16:23:11.000Z</time>
      </trkpt>
      <trkpt lat="45.18359" lon="5.68646">
        <ele>267.6</ele>
        <time>2020-02-23T16:23:21.000Z</time>
      </trkpt>
      <trkpt lat="45.18357" lon="5.68645">
        <ele>267.6</ele>
        <time>2020-02-23T16:23:31.000Z</time>
      </trkpt>
      <trkpt lat="45.18355" lon="5.68646">
        <ele>267.1</ele>
        <time>2020-02-23T16:23:41.000Z</time>
      </trkpt>
      <trkpt lat="45.18354" lon="5.68649">
        <ele>266.2</ele>
        <time>2020-02-23T16:23:51.000Z</time>
      </trkpt>
      <trkpt lat="45.18354" lon="5.68659">
        <ele>273</ele>
        <time>2020-02-23T16:23:30.000Z</time>
      </trkpt>
      <trkpt lat="45.18357" lon="5.68663">
        <ele>264.4</ele>
        <time>2020-02-23T16:23:40.000Z</time>
      </trkpt>
      <trkpt lat="45.18359" lon="5.68668">
        <ele>248.1</ele>
        <time>2020-02-23T16:23:50.000Z</time>
      </trkpt>
      <trkpt lat="45.18363" lon="5.68674">
        <ele>247.6</ele>
        <time>2020-02-23T16:24:00.000Z</time>
      </trkpt>
      <trkpt lat="45.18362" lon="5.68677">
        <ele>247.3</ele>
        <time>2020-02-23T16:24:10.000Z</time>
      </trkpt>
      <trkpt lat="45.18356" lon="5.68674">
        <ele>264</ele>
        <time>2020-02-23T16:23:52.000Z</time>
      </trkpt>
      <trkpt lat="45.18349" lon="5.68672">
        <ele>248.7</ele>
        <time>2020-02-23T16:24:02.000Z</time>
      </trkpt>
      <trkpt lat="45.18347" lon="5.6867">
        <ele>249.1</ele>
        <time>2020-02-23T16:24:12.000Z</time>
      </trkpt>
      <trkpt lat="45.18355" lon="5.68675">
        <ele>247.8</ele>
        <time>2020-02-23T16:24:22.000Z</time>
      </trkpt>
      <trkpt lat="45.18357" lon="5.68678">
        <ele>264</ele>
        <time>2020-02-23T16:24:12.000Z</time>
      </trkpt>
      <trkpt lat="45.18357" lon="5.68681">
        <ele>246.9</ele>
        <time>2020-02-23T16:24:22.000Z</time>
      </trkpt>
      <trkpt lat="45.18354" lon="5.68683">
        <ele>246.8</ele>
        <time>2020-02-23T16:24:32.000Z</time>
      </trkpt>
      <trkpt lat="45.18344" lon="5.6868">
        <ele>248</ele>
        <time>2020-02-23T16:24:42.000Z</time>
      </trkpt>
      <trkpt lat="45.18335" lon="5.68685">
        <ele>256</ele>
        <time>2020-02-23T16:24:27.000Z</time>
      </trkpt>
      <trkpt lat="45.18333" lon="5.68687">
        <ele>243.4</ele>
        <time>2020-02-23T16:24:37.000Z</time>
      </trkpt>
      <trkpt lat="45.18329" lon="5.6869">
        <ele>242.3</ele>
        <time>2020-02-23T16:24:47.000Z</time>
      </trkpt>
      <trkpt lat="45.18329" lon="5.68693">
        <ele>241.4</ele>
        <time>2020-02-23T16:24:57.000Z</time>
      </trkpt>
      <trkpt lat="45.18333" lon="5.68695">
        <ele>240.9</ele>
        <time>2020-02-23T16:25:07.000Z</time>
      </trkpt>
      <trkpt lat="45.18337" lon="5.68694">
        <ele>245</ele>
        <time>2020-02-23T16:25:17.000Z</time>
      </trkpt>
      <trkpt lat="45.18339" lon="5.68694">
        <ele>248</ele>
        <time>2020-02-23T16:24:40.000Z</time>
      </trkpt>
      <trkpt lat="45.18359" lon="5.68719">
        <ele>244</ele>
        <time>2020-02-23T16:24:54.000Z</time>
      </trkpt>
      <trkpt lat="45.18372" lon="5.6874">
        <ele>244</ele>
        <time>2020-02-23T16:25:00.000Z</time>
      </trkpt>
      <trkpt lat="45.18374" lon="5.68746">
        <ele>237.7</ele>
        <time>2020-02-23T16:25:10.000Z</time>
      </trkpt>
      <trkpt lat="45.18378" lon="5.68751">
        <ele>227.3</ele>
        <time>2020-02-23T16:25:20.000Z</time>
      </trkpt>
      <trkpt lat="45.1838" lon="5.68753">
        <ele>227.4</ele>
        <time>2020-02-23T16:25:30.000Z</time>
      </trkpt>
      <trkpt lat="45.18387" lon="5.68757">
        <ele>229</ele>
        <time>2020-02-23T16:25:08.000Z</time>
      </trkpt>
      <trkpt lat="45.18393" lon="5.68763">
        <ele>228.2</ele>
        <time>2020-02-23T16:25:18.000Z</time>
      </trkpt>
      <trkpt lat="45.18396" lon="5.68764">
        <ele>228.3</ele>
        <time>2020-02-23T16:25:28.000Z</time>
      </trkpt>
      <trkpt lat="45.18399" lon="5.68767">
        <ele>228.4</ele>
        <time>2020-02-23T16:25:38.000Z</time>
      </trkpt>
      <trkpt lat="45.18401" lon="5.68771">
        <ele>228.3</ele>
        <time>2020-02-23T16:25:48.000Z</time>
      </trkpt>
      <trkpt lat="45.18403" lon="5.68775">
        <ele>224</ele>
        <time>2020-02-23T16:25:18.000Z</time>
      </trkpt>
      <trkpt lat="45.1841" lon="5.68783">
        <ele>227.9</ele>
        <time>2020-02-23T16:25:28.000Z</time>
      </trkpt>
      <trkpt lat="45.18422" lon="5.68809">
        <ele>220</ele>
        <time>2020-02-23T16:25:30.000Z</time>
      </trkpt>
      <trkpt lat="45.18428" lon="5.68819">
        <ele>226.1</ele>
        <time>2020-02-23T16:25:40.000Z</time>
      </trkpt>
      <trkpt lat="45.18442" lon="5.68837">
        <ele>216</ele>
        <time>2020-02-23T16:25:40.000Z</time>
      </trkpt>
      <trkpt lat="45.18449" lon="5.68837">
        <ele>222.5</ele>
        <time>2020-02-23T16:25:50.000Z</time>
      </trkpt>
      <trkpt lat="45.18451" lon="5.68835">
        <ele>222.4</ele>
        <time>2020-02-23T16:26:00.000Z</time>
      </trkpt>
      <trkpt lat="45.18455" lon="5.68835">
        <ele>222</ele>
        <time>2020-02-23T16:26:10.000Z</time>
      </trkpt>
      <trkpt lat="45.18462" lon="5.68835">
        <ele>213</ele>
        <time>2020-02-23T16:25:49.000Z</time>
      </trkpt>
      <trkpt lat="45.18464" lon="5.68836">
        <ele>221.3</ele>
        <time>2020-02-23T16:25:59.000Z</time>
      </trkpt>
      <trkpt lat="45.18468" lon="5.68836">
        <ele>221</ele>
        <time>2020-02-23T16:26:09.000Z</time>
      </trkpt>
      <trkpt lat="45.18474" lon="5.68833">
        <ele>222.1</ele>
        <time>2020-02-23T16:26:19.000Z</time>
      </trkpt>
      <trkpt lat="45.18477" lon="5.68833">
        <ele>221.7</ele>
        <time>2020-02-23T16:26:29.000Z</time>
      </trkpt>
      <trkpt lat="45.18482" lon="5.68834">
        <ele>213</ele>
        <time>2020-02-23T16:25:57.000Z</time>
      </trkpt>
      <trkpt lat="45.18487" lon="5.68837">
        <ele>219.5</ele>
        <time>2020-02-23T16:26:07.000Z</time>
      </trkpt>
      <trkpt lat="45.18493" lon="5.68846">
        <ele>219.4</ele>
        <time>2020-02-23T16:26:17.000Z</time>
      </trkpt>
      <trkpt lat="45.18495" lon="5.6885">
        <ele>219.6</ele>
        <time>2020-02-23T16:26:27.000Z</time>
      </trkpt>
      <trkpt lat="45.18497" lon="5.68852">
        <ele>208</ele>
        <time>2020-02-23T16:26:04.000Z</time>
      </trkpt>
      <trkpt lat="45.18506" lon="5.68861">
        <ele>217.2</ele>
        <time>2020-02-23T16:26:14.000Z</time>
      </trkpt>
      <trkpt lat="45.1851" lon="5.68867">
        <ele>217.1</ele>
        <time>2020-02-23T16:26:24.000Z</time>
      </trkpt>
      <trkpt lat="45.18511" lon="5.68874">
        <ele>208</ele>
        <time>2020-02-23T16:26:13.000Z</time>
      </trkpt>
      <trkpt lat="45.18513" lon="5.68892">
        <ele>217.3</ele>
        <time>2020-02-23T16:26:23.000Z</time>
      </trkpt>
      <trkpt lat="45.18513" lon="5.68909">
        <ele>209</ele>
        <time>2020-02-23T16:26:25.000Z</time>
      </trkpt>
      <trkpt lat="45.18519" lon="5.68932">
        <ele>216.9</ele>
        <time>2020-02-23T16:26:35.000Z</time>
      </trkpt>
      <trkpt lat="45.18522" lon="5.68942">
        <ele>216</ele>
        <time>2020-02-23T16:26:32.000Z</time>
      </trkpt>
      <trkpt lat="45.18526" lon="5.6895">
        <ele>216</ele>
        <time>2020-02-23T16:26:35.000Z</time>
      </trkpt>
    </trkseg>
  </trk>
</gpx>